
Distance (Route):
Temperature : 1.9°C
Humidity : 94.3%
Pressure : 720.8hPa| Receiver | Frames | First received | Last received |
|---|---|---|---|
| OE5MMP-10 | 560 | 2026-09-02 23:06:29 | 2026-09-03 01:22:28 |
| BAUMI2-15 | 531 | 2026-09-02 23:16:15 | 2026-09-03 01:21:03 |
| OE5WHR-10 | 319 | 2026-09-02 23:01:04 | 2026-09-03 01:17:30 |
| DG1MFX-10 | 284 | 2026-09-02 22:47:14 | 2026-09-03 01:16:48 |
| OE5DRO-10 | 276 | 2026-09-02 22:57:29 | 2026-09-03 01:26:37 |
| DO3MHA-11 | 268 | 2026-09-02 22:46:05 | 2026-09-03 00:55:21 |
| OE8JPQ-2 | 212 | 2026-09-02 23:37:45 | 2026-09-03 01:03:23 |
| OE5DXL-15 | 176 | 2026-09-02 22:51:50 | 2026-09-03 01:27:46 |
| PG1ADW-2 | 161 | 2026-09-02 23:02:36 | 2026-09-03 01:26:03 |
| OE5FHM-15 | 157 | 2026-09-02 23:16:13 | 2026-09-03 01:23:42 |
| IN3HCDX | 151 | 2026-09-02 23:44:46 | 2026-09-03 01:04:14 |
| OE5HKT-10 | 82 | 2026-09-02 23:26:15 | 2026-09-03 01:16:50 |
| DL6DJ-15 | 55 | 2026-09-02 22:51:06 | 2026-09-03 00:38:18 |
| OE3JTB-15 | 47 | 2026-09-02 22:54:53 | 2026-09-03 01:20:16 |
| DB0UT-7 | 44 | 2026-09-02 23:08:03 | 2026-09-03 00:59:37 |
| DF3TZ-5 | 14 | 2026-09-02 23:04:30 | 2026-09-03 00:38:10 |
| PETON7-10 | 11 | 2026-09-02 23:54:35 | 2026-09-02 23:57:12 |
| IN3IJJ | 10 | 2026-09-03 00:04:02 | 2026-09-03 00:18:20 |
| S52SK | 4 | 2026-09-02 23:34:39 | 2026-09-02 23:37:36 |
| DH7VM-15 | 3 | 2026-09-02 23:14:37 | 2026-09-03 00:52:12 |
| DB0ND-19 | 2 | 2026-09-03 01:03:44 | 2026-09-03 01:04:46 |
| OE5REO-15 | 1 | 2026-09-02 23:43:35 | 2026-09-02 23:43:35 |
| DK5PH-5 | 1 | 2026-09-03 00:09:21 | 2026-09-03 00:09:21 |
| Receiver | Date | Latitude | Longitude | Direction | Speed | Altitude | Climb | Temperature | Humidity | Pressure | Voltage | Killtimer | Uptime | BKT | XDATA |
|---|---|---|---|---|---|---|---|---|---|---|---|---|---|---|---|
| OE5DXL-15 | 2026-09-03 01:27:46 | 47.41430 | 12.99380 | 111° | 46km/h | 2970m | -5.4m/s | 1.9°C | 94.3% | 720.8hPa | 2.7V | 00:00:00 | 00:00:00 | 00:00:00 | |
| OE5DXL-15 | 2026-09-03 01:27:26 | 47.41514 | 12.99056 | 112° | 49km/h | 3075m | -4.6m/s | 1.1°C | 90.9% | 711.5hPa | 2.7V | 00:00:00 | 00:00:00 | 00:00:00 | |
| OE5DXL-15 | 2026-09-03 01:27:06 | 47.41606 | 12.98717 | 113° | 49km/h | 3174m | -4.7m/s | 0.4°C | 85.0% | 702.6hPa | 2.7V | 00:00:00 | 02:57:46 | 00:00:00 | |
| OE5DRO-10 | 2026-09-03 01:26:37 | 47.41755 | 12.98226 | 116° | 49km/h | 3313m | -4.5m/s | -0.4°C | 77.6% | 690.7hPa | 2.7V | 00:00:00 | 00:00:00 | 00:00:00 | |
| OE5DRO-10 | 2026-09-03 01:26:21 | 47.41841 | 12.97958 | 118° | 49km/h | 3388m | -4.6m/s | -1.0°C | 77.1% | 684.3hPa | 2.7V | 00:00:00 | 00:00:00 | 00:00:00 | |
| OE5DXL-15 | 2026-09-03 01:26:05 | 47.41925 | 12.97692 | 115° | 49km/h | 3459m | -4.2m/s | -1.3°C | 66.8% | 678.2hPa | 2.7V | 00:00:00 | 00:00:00 | 00:00:00 | |
| PG1ADW-2 | 2026-09-03 01:26:03 | 47.41936 | 12.97658 | 115° | 49km/h | 3468m | -4.2m/s | -1.4°C | 67.0% | 677.5hPa | 2.7V | 00:00:00 | 00:00:00 | 00:00:00 | |
| OE5DRO-10 | 2026-09-03 01:25:49 | 47.42006 | 12.97423 | 112° | 49km/h | 3526m | -4.2m/s | -1.5°C | 47.2% | 672.5hPa | 2.7V | 07:38:00 | 00:00:00 | 00:00:00 | |
| PG1ADW-2 | 2026-09-03 01:25:41 | 47.42044 | 12.97291 | 116° | 49km/h | 3557m | -3.8m/s | -1.6°C | 42.7% | 669.8hPa | 2.7V | 00:00:00 | 02:56:21 | 00:00:00 | |
| OE5DXL-15 | 2026-09-03 01:25:35 | 47.42076 | 12.97190 | 115° | 49km/h | 3580m | -3.6m/s | -1.7°C | 38.5% | 667.8hPa | 2.7V | 00:00:00 | 00:00:00 | 00:00:00 | |
| OE5DRO-10 | 2026-09-03 01:25:33 | 47.42086 | 12.97156 | 113° | 49km/h | 3588m | -4.0m/s | -1.6°C | 34.8% | 667.3hPa | 2.7V | 00:00:00 | 00:00:00 | 00:00:00 | |
| PG1ADW-2 | 2026-09-03 01:25:21 | 47.42140 | 12.96954 | 112° | 49km/h | 3636m | -4.0m/s | -1.4°C | 29.6% | 663.2hPa | 2.7V | 00:00:00 | 00:00:00 | 00:00:00 | |
| OE5DRO-10 | 2026-09-03 01:25:17 | 47.42158 | 12.96886 | 113° | 49km/h | 3651m | -3.9m/s | -1.5°C | 33.1% | 661.9hPa | 2.7V | 00:00:00 | 00:00:00 | 00:00:00 | |
| OE5DXL-15 | 2026-09-03 01:25:05 | 47.42220 | 12.96685 | 115° | 47km/h | 3699m | -3.7m/s | -1.6°C | 65.3% | 657.9hPa | 2.7V | 00:00:00 | 00:00:00 | 00:00:00 | |
| PG1ADW-2 | 2026-09-03 01:25:01 | 47.42240 | 12.96619 | 114° | 47km/h | 3714m | -4.0m/s | -1.8°C | 65.3% | 656.6hPa | 2.6V | 00:00:00 | 00:00:00 | 00:00:00 | |
| OE5DRO-10 | 2026-09-03 01:24:45 | 47.42318 | 12.96363 | 116° | 47km/h | 3778m | -3.7m/s | -1.7°C | 67.8% | 651.4hPa | 2.6V | 00:00:00 | 00:00:00 | 00:00:00 | |
| PG1ADW-2 | 2026-09-03 01:24:41 | 47.42338 | 12.96299 | 116° | 47km/h | 3794m | -4.1m/s | -1.8°C | 73.0% | 650.1hPa | 2.6V | 00:00:00 | 00:00:00 | 00:00:00 | |
| OE5DXL-15 | 2026-09-03 01:24:34 | 47.42374 | 12.96188 | 116° | 49km/h | 3821m | -3.8m/s | -2.1°C | 77.8% | 647.8hPa | 2.6V | 00:00:00 | 00:00:00 | 00:00:00 | |
| OE5DRO-10 | 2026-09-03 01:24:29 | 47.42401 | 12.96109 | 118° | 49km/h | 3842m | -4.1m/s | -2.2°C | 84.1% | 646.3hPa | 2.6V | 00:00:00 | 00:00:00 | 00:00:00 | |
| PG1ADW-2 | 2026-09-03 01:24:21 | 47.42449 | 12.95983 | 122° | 51km/h | 3875m | -3.9m/s | -2.5°C | 91.7% | 643.6hPa | 2.6V | 00:00:00 | 02:55:01 | 00:00:00 | |
| OE5DRO-10 | 2026-09-03 01:24:13 | 47.42505 | 12.95854 | 124° | 53km/h | 3908m | -4.1m/s | -2.6°C | 90.5% | 640.9hPa | 2.7V | 00:00:00 | 00:00:00 | 00:00:00 | |
| OE5DXL-15 | 2026-09-03 01:24:05 | 47.42563 | 12.95724 | 125° | 49km/h | 3941m | -4.2m/s | -2.6°C | 91.6% | 638.2hPa | 2.7V | 07:40:00 | 00:00:00 | 00:00:00 | |
| PG1ADW-2 | 2026-09-03 01:24:01 | 47.42593 | 12.95659 | 124° | 51km/h | 3958m | -4.3m/s | -2.7°C | 92.6% | 636.9hPa | 2.7V | 00:00:00 | 00:00:00 | 00:00:00 | |
| OE5DRO-10 | 2026-09-03 01:23:57 | 47.42623 | 12.95595 | 125° | 49km/h | 3975m | -4.2m/s | -2.8°C | 92.0% | 635.6hPa | 2.7V | 00:00:00 | 00:00:00 | 00:00:00 | |
| OE5FHM-15 | 2026-09-03 01:23:42 | 47.42731 | 12.95365 | 125° | 47km/h | 4041m | -4.5m/s | -3.2°C | 88.5% | 630.2hPa | 2.7V | 00:00:00 | 02:54:22 | 00:00:00 | |
| PG1ADW-2 | 2026-09-03 01:23:41 | 47.42738 | 12.95350 | 125° | 47km/h | 4046m | -4.5m/s | -3.3°C | 88.7% | 629.9hPa | 2.7V | 07:40:00 | 00:00:00 | 00:00:00 | |
| OE5DXL-15 | 2026-09-03 01:23:35 | 47.42779 | 12.95266 | 128° | 47km/h | 4073m | -4.7m/s | -3.5°C | 87.9% | 627.7hPa | 2.7V | 00:00:00 | 00:00:00 | 00:00:00 | |
| OE5DRO-10 | 2026-09-03 01:23:25 | 47.42856 | 12.95127 | 131° | 47km/h | 4116m | -4.0m/s | -3.7°C | 87.4% | 624.3hPa | 2.7V | 00:00:00 | 00:00:00 | 00:00:00 | |
| PG1ADW-2 | 2026-09-03 01:23:21 | 47.42888 | 12.95073 | 132° | 47km/h | 4132m | -4.1m/s | -3.7°C | 86.6% | 623.0hPa | 2.7V | 00:00:00 | 00:00:00 | 00:00:00 | |
| OE5DRO-10 | 2026-09-03 01:23:09 | 47.42986 | 12.94911 | 133° | 46km/h | 4180m | -4.0m/s | -3.8°C | 85.6% | 619.3hPa | 2.7V | 00:00:00 | 00:00:00 | 00:00:00 | |
| OE5FHM-15 | 2026-09-03 01:23:06 | 47.43011 | 12.94872 | 134° | 47km/h | 4192m | -4.1m/s | -3.9°C | 85.4% | 618.2hPa | 2.7V | 00:00:00 | 02:53:46 | 00:00:00 | |
| OE5DXL-15 | 2026-09-03 01:23:05 | 47.43019 | 12.94860 | 134° | 47km/h | 4196m | -3.9m/s | -4.0°C | 85.4% | 618.0hPa | 2.7V | 00:00:00 | 00:00:00 | 00:00:00 | |
| PG1ADW-2 | 2026-09-03 01:23:01 | 47.43051 | 12.94809 | 133° | 47km/h | 4212m | -4.1m/s | -4.0°C | 85.3% | 616.7hPa | 2.7V | 00:00:00 | 02:53:41 | 00:00:00 | |
| OE5DRO-10 | 2026-09-03 01:22:53 | 47.43115 | 12.94708 | 136° | 47km/h | 4244m | -4.1m/s | -4.2°C | 84.8% | 614.2hPa | 2.7V | 00:00:00 | 00:00:00 | 00:00:00 | |
| PG1ADW-2 | 2026-09-03 01:22:41 | 47.43217 | 12.94558 | 133° | 49km/h | 4289m | -3.7m/s | -4.7°C | 86.2% | 610.7hPa | 2.6V | 00:00:00 | 00:00:00 | 00:00:00 | |
| OE5DRO-10 | 2026-09-03 01:22:37 | 47.43249 | 12.94505 | 135° | 49km/h | 4305m | -4.0m/s | -4.8°C | 85.9% | 609.4hPa | 2.6V | 00:00:00 | 00:00:00 | 00:00:00 | |
| OE5FHM-15 | 2026-09-03 01:22:36 | 47.43258 | 12.94492 | 136° | 49km/h | 4309m | -3.9m/s | -4.8°C | 86.5% | 609.2hPa | 2.6V | 00:00:00 | 02:53:16 | 00:00:00 | |
| OE5DXL-15 | 2026-09-03 01:22:34 | 47.43275 | 12.94468 | 137° | 49km/h | 4317m | -4.3m/s | -4.8°C | 83.5% | 608.7hPa | 2.7V | 00:00:00 | 00:00:00 | 00:00:00 | |
| OE5MMP-10 | 2026-09-03 01:22:28 | 47.43328 | 12.94393 | 137° | 49km/h | 4342m | -4.0m/s | -5.0°C | 81.2% | 606.6hPa | 2.7V | 00:00:00 | 02:53:08 | 00:00:00 | |
| PG1ADW-2 | 2026-09-03 01:22:21 | 47.43390 | 12.94303 | 136° | 49km/h | 4371m | -4.0m/s | -5.3°C | 82.7% | 604.5hPa | 2.7V | 00:00:00 | 00:00:00 | 00:00:00 | |
| OE5FHM-15 | 2026-09-03 01:22:06 | 47.43523 | 12.94102 | 137° | 51km/h | 4430m | -4.3m/s | -5.9°C | 86.1% | 599.9hPa | 2.7V | 00:00:00 | 02:52:46 | 00:00:00 | |
| OE5DXL-15 | 2026-09-03 01:22:05 | 47.43532 | 12.94089 | 137° | 51km/h | 4434m | -4.0m/s | -5.9°C | 86.2% | 599.6hPa | 2.7V | 00:00:00 | 00:00:00 | 00:00:00 | |
| OE5DRO-10 | 2026-09-03 01:21:49 | 47.43675 | 12.93878 | 136° | 53km/h | 4502m | -4.3m/s | -6.6°C | 89.5% | 594.5hPa | 2.6V | 00:00:00 | 00:00:00 | 00:00:00 | |
| OE5FHM-15 | 2026-09-03 01:21:36 | 47.43797 | 12.93701 | 136° | 53km/h | 4556m | -3.7m/s | -7.1°C | 92.3% | 590.4hPa | 2.6V | 00:00:00 | 02:52:16 | 00:00:00 | |
| OE5DXL-15 | 2026-09-03 01:21:35 | 47.43807 | 12.93688 | 136° | 53km/h | 4560m | -4.0m/s | -7.1°C | 92.6% | 590.1hPa | 2.6V | 00:00:00 | 00:00:00 | 00:00:00 | |
| OE5DRO-10 | 2026-09-03 01:21:33 | 47.43826 | 12.93659 | 135° | 53km/h | 4568m | -4.2m/s | -7.2°C | 93.1% | 589.4hPa | 2.6V | 07:43:00 | 00:00:00 | 00:00:00 | |
| PG1ADW-2 | 2026-09-03 01:21:21 | 47.43938 | 12.93487 | 137° | 53km/h | 4618m | -4.4m/s | -7.7°C | 96.0% | 585.6hPa | 2.6V | 00:00:00 | 00:00:00 | 00:00:00 | |
| OE5DRO-10 | 2026-09-03 01:21:17 | 47.43977 | 12.93430 | 134° | 53km/h | 4634m | -4.4m/s | -7.9°C | 97.1% | 584.5hPa | 2.6V | 00:00:00 | 00:00:00 | 00:00:00 | |
| OE5FHM-15 | 2026-09-03 01:21:06 | 47.44076 | 12.93267 | 132° | 53km/h | 4678m | -3.7m/s | -8.3°C | 0% | 581.1hPa | 2.6V | 07:43:00 | 02:51:46 | 00:00:00 | |
| OE5DXL-15 | 2026-09-03 01:21:05 | 47.44084 | 12.93253 | 130° | 53km/h | 4682m | -4.0m/s | -8.3°C | 0% | 580.7hPa | 2.6V | 00:00:00 | 00:00:00 | 00:00:00 | |
| BAUMI2-15 | 2026-09-03 01:21:03 | 47.44100 | 12.93225 | 131° | 51km/h | 4691m | -4.3m/s | -8.4°C | 0% | 580.2hPa | 2.6V | 07:43:00 | 02:51:43 | 00:00:00 | |
| PG1ADW-2 | 2026-09-03 01:21:01 | 47.44117 | 12.93196 | 133° | 53km/h | 4699m | -4.1m/s | -8.5°C | 0% | 579.6hPa | 2.6V | 07:43:00 | 00:00:00 | 00:00:00 | |
| BAUMI2-15 | 2026-09-03 01:20:54 | 47.44184 | 12.93098 | 137° | 55km/h | 4730m | -3.8m/s | -8.6°C | 0% | 577.2hPa | 2.6V | 00:00:00 | 02:51:34 | 00:00:00 | |
| BAUMI2-15 | 2026-09-03 01:20:46 | 47.44262 | 12.92986 | 137° | 53km/h | 4762m | -4.2m/s | -8.9°C | 0% | 574.8hPa | 2.6V | 00:00:00 | 02:51:26 | 00:00:00 | |
| OE5DRO-10 | 2026-09-03 01:20:45 | 47.44272 | 12.92972 | 137° | 53km/h | 4766m | -4.1m/s | -8.9°C | 0% | 574.5hPa | 2.6V | 00:00:00 | 00:00:00 | 00:00:00 | |
| PG1ADW-2 | 2026-09-03 01:20:41 | 47.44310 | 12.92918 | 137° | 53km/h | 4783m | -4.4m/s | -8.2°C | 91.4% | 573.2hPa | 2.6V | 00:00:00 | 00:00:00 | 00:00:00 | |
| BAUMI2-15 | 2026-09-03 01:20:38 | 47.44339 | 12.92878 | 137° | 53km/h | 4796m | -4.4m/s | -7.8°C | 85.8% | 572.3hPa | 2.6V | 00:00:00 | 02:51:18 | 00:00:00 | |
| OE5FHM-15 | 2026-09-03 01:20:36 | 47.44359 | 12.92851 | 138° | 51km/h | 4805m | -4.3m/s | -7.7°C | 85.0% | 571.6hPa | 2.6V | 00:00:00 | 02:51:16 | 00:00:00 | |
| OE5DXL-15 | 2026-09-03 01:20:35 | 47.44368 | 12.92837 | 137° | 51km/h | 4809m | -4.2m/s | -7.7°C | 85.1% | 571.4hPa | 2.6V | 00:00:00 | 00:00:00 | 00:00:00 | |
| BAUMI2-15 | 2026-09-03 01:20:33 | 47.44388 | 12.92810 | 137° | 53km/h | 4818m | -4.3m/s | -7.8°C | 85.1% | 570.7hPa | 2.6V | 00:00:00 | 02:51:13 | 00:00:00 | |
| OE5DRO-10 | 2026-09-03 01:20:29 | 47.44427 | 12.92754 | 137° | 51km/h | 4836m | -4.4m/s | -7.8°C | 84.4% | 569.4hPa | 2.6V | 00:00:00 | 00:00:00 | 00:00:00 | |
| BAUMI2-15 | 2026-09-03 01:20:25 | 47.44465 | 12.92699 | 136° | 51km/h | 4854m | -4.4m/s | -7.9°C | 85.1% | 568.0hPa | 2.6V | 00:00:00 | 02:51:05 | 00:00:00 | |
| PG1ADW-2 | 2026-09-03 01:20:21 | 47.44501 | 12.92645 | 134° | 51km/h | 4872m | -4.5m/s | -8.1°C | 85.9% | 566.7hPa | 2.6V | 00:00:00 | 02:51:01 | 00:00:00 | |
| BAUMI2-15 | 2026-09-03 01:20:17 | 47.44537 | 12.92589 | 133° | 51km/h | 4890m | -4.6m/s | -8.2°C | 86.7% | 565.4hPa | 2.6V | 00:00:00 | 02:50:57 | 00:00:00 | |
| OE3JTB-15 | 2026-09-03 01:20:16 | 47.44545 | 12.92575 | 132° | 49km/h | 4895m | -4.5m/s | -8.3°C | 86.3% | 565.0hPa | 2.6V | 00:00:00 | 00:00:00 | 00:00:00 | |
| OE5DRO-10 | 2026-09-03 01:20:13 | 47.44571 | 12.92533 | 132° | 49km/h | 4908m | -4.5m/s | -8.3°C | 86.4% | 563.9hPa | 2.6V | 00:00:00 | 00:00:00 | 00:00:00 | |
| BAUMI2-15 | 2026-09-03 01:20:10 | 47.44597 | 12.92490 | 132° | 51km/h | 4922m | -4.6m/s | -8.4°C | 86.1% | 563.1hPa | 2.6V | 00:00:00 | 02:50:50 | 00:00:00 | |
| OE5FHM-15 | 2026-09-03 01:20:06 | 47.44630 | 12.92434 | 130° | 49km/h | 4941m | -4.9m/s | -8.3°C | 81.6% | 561.7hPa | 2.6V | 00:00:00 | 02:50:46 | 00:00:00 | |
| OE5DXL-15 | 2026-09-03 01:20:05 | 47.44638 | 12.92419 | 129° | 49km/h | 4946m | -4.5m/s | -8.3°C | 81.3% | 561.5hPa | 2.6V | 07:44:00 | 00:00:00 | 00:00:00 | |
| BAUMI2-15 | 2026-09-03 01:20:04 | 47.44646 | 12.92405 | 129° | 49km/h | 4951m | -4.4m/s | -8.3°C | 81.2% | 561.0hPa | 2.6V | 07:44:00 | 02:50:44 | 00:00:00 | |
| PG1ADW-2 | 2026-09-03 01:20:01 | 47.44669 | 12.92361 | 128° | 49km/h | 4964m | -4.7m/s | -8.4°C | 81.2% | 560.1hPa | 2.6V | 00:00:00 | 00:00:00 | 00:00:00 | |
| OE5DRO-10 | 2026-09-03 01:19:57 | 47.44700 | 12.92301 | 128° | 49km/h | 4983m | -4.6m/s | -8.5°C | 80.7% | 558.7hPa | 2.6V | 00:00:00 | 00:00:00 | 00:00:00 | |
| BAUMI2-15 | 2026-09-03 01:19:52 | 47.44738 | 12.92227 | 129° | 49km/h | 5007m | -4.7m/s | -8.7°C | 81.6% | 557.0hPa | 2.6V | 00:00:00 | 02:50:32 | 00:00:00 | |
| OE3JTB-15 | 2026-09-03 01:19:47 | 47.44778 | 12.92156 | 131° | 51km/h | 5030m | -4.9m/s | -8.9°C | 81.0% | 555.3hPa | 2.6V | 00:00:00 | 00:00:00 | 00:00:00 | |
| OE5DRO-10 | 2026-09-03 01:19:41 | 47.44827 | 12.92071 | 131° | 51km/h | 5058m | -4.6m/s | -9.0°C | 79.6% | 553.2hPa | 2.6V | 00:00:00 | 00:00:00 | 00:00:00 | |
| BAUMI2-15 | 2026-09-03 01:19:40 | 47.44836 | 12.92056 | 131° | 51km/h | 5063m | -4.6m/s | -9.1°C | 79.6% | 552.9hPa | 2.6V | 00:00:00 | 02:50:20 | 00:00:00 | |
| OE5FHM-15 | 2026-09-03 01:19:36 | 47.44869 | 12.91999 | 131° | 49km/h | 5082m | -4.9m/s | -9.1°C | 78.5% | 551.6hPa | 2.5V | 00:00:00 | 02:50:16 | 00:00:00 | |
| OE5DXL-15 | 2026-09-03 01:19:35 | 47.44878 | 12.91984 | 131° | 49km/h | 5087m | -4.6m/s | -9.2°C | 77.9% | 551.4hPa | 2.6V | 00:00:00 | 00:00:00 | 00:00:00 | |
| BAUMI2-15 | 2026-09-03 01:19:29 | 47.44929 | 12.91900 | 133° | 51km/h | 5115m | -4.6m/s | -9.2°C | 77.3% | 549.3hPa | 2.6V | 00:00:00 | 02:50:09 | 00:00:00 | |
| OE5DRO-10 | 2026-09-03 01:19:25 | 47.44962 | 12.91844 | 132° | 49km/h | 5133m | -4.7m/s | -9.2°C | 75.4% | 548.0hPa | 2.6V | 07:45:00 | 00:00:00 | 00:00:00 | |
| PG1ADW-2 | 2026-09-03 01:19:21 | 47.44996 | 12.91787 | 131° | 49km/h | 5152m | -4.5m/s | -9.3°C | 74.5% | 546.7hPa | 2.6V | 00:00:00 | 00:00:00 | 00:00:00 | |
| BAUMI2-15 | 2026-09-03 01:19:20 | 47.45004 | 12.91773 | 132° | 49km/h | 5157m | -4.6m/s | -9.4°C | 74.6% | 546.4hPa | 2.6V | 00:00:00 | 02:50:00 | 00:00:00 | |
| OE3JTB-15 | 2026-09-03 01:19:18 | 47.45021 | 12.91745 | 131° | 49km/h | 5166m | -4.7m/s | -9.4°C | 74.8% | 545.7hPa | 2.6V | 00:00:00 | 02:49:58 | 00:00:00 | |
| OE5DRO-10 | 2026-09-03 01:19:09 | 47.45094 | 12.91621 | 131° | 49km/h | 5207m | -4.3m/s | -9.6°C | 75.4% | 542.8hPa | 2.6V | 00:00:00 | 00:00:00 | 00:00:00 | |
| OE5FHM-15 | 2026-09-03 01:19:06 | 47.45118 | 12.91579 | 131° | 49km/h | 5220m | -4.5m/s | -9.7°C | 75.4% | 541.9hPa | 2.6V | 00:00:00 | 02:49:46 | 00:00:00 | |
| OE5DXL-15 | 2026-09-03 01:19:05 | 47.45126 | 12.91565 | 131° | 49km/h | 5225m | -4.3m/s | -9.7°C | 75.3% | 541.6hPa | 2.6V | 00:00:00 | 00:00:00 | 00:00:00 | |
| PG1ADW-2 | 2026-09-03 01:19:01 | 47.45158 | 12.91510 | 131° | 49km/h | 5242m | -4.4m/s | -9.9°C | 76.2% | 540.3hPa | 2.5V | 00:00:00 | 02:49:41 | 00:00:00 | |
| OE5DRO-10 | 2026-09-03 01:18:53 | 47.45222 | 12.91399 | 129° | 47km/h | 5279m | -4.6m/s | -10.1°C | 77.4% | 537.7hPa | 2.5V | 00:00:00 | 00:00:00 | 00:00:00 | |
| OE3JTB-15 | 2026-09-03 01:18:49 | 47.45252 | 12.91340 | 127° | 47km/h | 5298m | -4.5m/s | -10.3°C | 77.8% | 536.5hPa | 2.6V | 00:00:00 | 00:00:00 | 00:00:00 | |
| OE5MMP-10 | 2026-09-03 01:18:47 | 47.45267 | 12.91312 | 128° | 47km/h | 5307m | -4.4m/s | -10.3°C | 78.5% | 535.8hPa | 2.5V | 00:00:00 | 02:49:27 | 00:00:00 | |
| PG1ADW-2 | 2026-09-03 01:18:41 | 47.45312 | 12.91228 | 129° | 47km/h | 5333m | -4.5m/s | -10.6°C | 80.5% | 533.9hPa | 2.5V | 00:00:00 | 00:00:00 | 00:00:00 | |
| OE5DRO-10 | 2026-09-03 01:18:37 | 47.45341 | 12.91170 | 127° | 47km/h | 5351m | -4.5m/s | -10.7°C | 80.1% | 532.7hPa | 2.5V | 00:00:00 | 00:00:00 | 00:00:00 | |
| OE5FHM-15 | 2026-09-03 01:18:36 | 47.45349 | 12.91156 | 127° | 47km/h | 5356m | -4.5m/s | -10.7°C | 80.9% | 532.3hPa | 2.5V | 00:00:00 | 02:49:16 | 00:00:00 | |
| OE5DXL-15 | 2026-09-03 01:18:35 | 47.45356 | 12.91141 | 127° | 47km/h | 5361m | -4.5m/s | -10.7°C | 81.2% | 532.0hPa | 2.5V | 00:00:00 | 00:00:00 | 00:00:00 | |
| OE5MMP-10 | 2026-09-03 01:18:22 | 47.45449 | 12.90960 | 128° | 46km/h | 5420m | -4.4m/s | -11.3°C | 83.6% | 527.9hPa | 2.5V | 07:46:00 | 02:49:02 | 00:00:00 | |
| OE5DRO-10 | 2026-09-03 01:18:21 | 47.45456 | 12.90946 | 128° | 47km/h | 5424m | -4.5m/s | -11.3°C | 83.5% | 527.7hPa | 2.6V | 00:00:00 | 00:00:00 | 00:00:00 | |
| OE3JTB-15 | 2026-09-03 01:18:20 | 47.45463 | 12.90932 | 128° | 51km/h | 5429m | -4.5m/s | -11.3°C | 83.4% | 527.3hPa | 2.6V | 07:46:00 | 00:00:00 | 00:00:00 | |
| OE5MMP-10 | 2026-09-03 01:18:10 | 47.45534 | 12.90795 | 129° | 49km/h | 5476m | -4.7m/s | -11.5°C | 78.4% | 524.1hPa | 2.6V | 00:00:00 | 02:48:50 | 00:00:00 | |
| OE5FHM-15 | 2026-09-03 01:18:06 | 47.45565 | 12.90737 | 129° | 53km/h | 5494m | -4.6m/s | -11.6°C | 78.6% | 522.8hPa | 2.6V | 00:00:00 | 02:48:46 | 00:00:00 | |
| OE5DRO-10 | 2026-09-03 01:18:05 | 47.45573 | 12.90722 | 129° | 53km/h | 5499m | -4.6m/s | -11.6°C | 79.0% | 522.6hPa | 2.6V | 00:00:00 | 00:00:00 | 00:00:00 | |
| PG1ADW-2 | 2026-09-03 01:18:01 | 47.45606 | 12.90662 | 129° | 55km/h | 5517m | -4.7m/s | -11.7°C | 79.4% | 521.3hPa | 2.6V | 00:00:00 | 00:00:00 | 00:00:00 | |
| OE5MMP-10 | 2026-09-03 01:18:00 | 47.45614 | 12.90646 | 130° | 53km/h | 5522m | -5.0m/s | -11.8°C | 79.0% | 521.0hPa | 2.6V | 00:00:00 | 02:48:40 | 00:00:00 | |
| OE5DRO-10 | 2026-09-03 01:17:49 | 47.45708 | 12.90475 | 129° | 55km/h | 5573m | -4.5m/s | -11.9°C | 76.2% | 517.6hPa | 2.6V | 00:00:00 | 00:00:00 | 00:00:00 | |
| OE5MMP-10 | 2026-09-03 01:17:46 | 47.45733 | 12.90427 | 129° | 55km/h | 5586m | -4.5m/s | -12.0°C | 76.5% | 516.6hPa | 2.6V | 00:00:00 | 02:48:26 | 00:00:00 | |
| OE3JTB-15 | 2026-09-03 01:17:42 | 47.45768 | 12.90362 | 130° | 53km/h | 5605m | -4.4m/s | -12.1°C | 76.4% | 515.4hPa | 2.6V | 00:00:00 | 02:48:22 | 00:00:00 | |
| OE5FHM-15 | 2026-09-03 01:17:36 | 47.45819 | 12.90265 | 126° | 53km/h | 5632m | -4.6m/s | -12.1°C | 69.7% | 513.5hPa | 2.6V | 00:00:00 | 02:48:16 | 00:00:00 | |
| OE5DXL-15 | 2026-09-03 01:17:35 | 47.45827 | 12.90249 | 126° | 53km/h | 5637m | -4.7m/s | -12.1°C | 68.5% | 513.1hPa | 2.6V | 00:00:00 | 00:00:00 | 00:00:00 | |
| OE5DRO-10 | 2026-09-03 01:17:33 | 47.45842 | 12.90216 | 125° | 53km/h | 5646m | -4.4m/s | -12.2°C | 68.2% | 512.6hPa | 2.6V | 00:00:00 | 00:00:00 | 00:00:00 | |
| OE5WHR-10 | 2026-09-03 01:17:30 | 47.45866 | 12.90167 | 126° | 53km/h | 5660m | -4.6m/s | -12.3°C | 68.0% | 511.6hPa | 2.6V | 00:00:00 | 00:00:00 | 00:00:00 | |
| PG1ADW-2 | 2026-09-03 01:17:21 | 47.45935 | 12.90020 | 126° | 53km/h | 5702m | -4.5m/s | -12.6°C | 65.4% | 508.9hPa | 2.6V | 00:00:00 | 00:00:00 | 00:00:00 | |
| OE5MMP-10 | 2026-09-03 01:17:17 | 47.45966 | 12.89956 | 125° | 53km/h | 5720m | -4.6m/s | -12.7°C | 63.4% | 507.7hPa | 2.6V | 00:00:00 | 02:47:57 | 00:00:00 | |
| OE3JTB-15 | 2026-09-03 01:17:13 | 47.45996 | 12.89891 | 125° | 51km/h | 5738m | -4.5m/s | -12.8°C | 63.5% | 506.3hPa | 2.6V | 00:00:00 | 00:00:00 | 00:00:00 | |
| OE5WHR-10 | 2026-09-03 01:17:10 | 47.46019 | 12.89842 | 126° | 53km/h | 5752m | -4.6m/s | -12.9°C | 63.9% | 505.5hPa | 2.6V | 00:00:00 | 00:00:00 | 00:00:00 | |
| OE5MMP-10 | 2026-09-03 01:17:07 | 47.46041 | 12.89794 | 125° | 53km/h | 5765m | -4.8m/s | -13.1°C | 64.3% | 504.6hPa | 2.6V | 00:00:00 | 02:47:47 | 00:00:00 | |
| OE5FHM-15 | 2026-09-03 01:17:06 | 47.46049 | 12.89778 | 125° | 51km/h | 5770m | -4.6m/s | -13.1°C | 64.5% | 504.2hPa | 2.5V | 07:47:00 | 02:47:46 | 00:00:00 | |
| OE5DXL-15 | 2026-09-03 01:17:05 | 47.46056 | 12.89762 | 124° | 51km/h | 5775m | -4.5m/s | -13.2°C | 64.5% | 504.0hPa | 2.5V | 00:00:00 | 00:00:00 | 00:00:00 | |
| BAUMI2-15 | 2026-09-03 01:17:02 | 47.46078 | 12.89712 | 123° | 51km/h | 5788m | -4.5m/s | -13.3°C | 64.8% | 503.1hPa | 2.5V | 00:00:00 | 02:47:42 | 00:00:00 | |
| PG1ADW-2 | 2026-09-03 01:17:01 | 47.46085 | 12.89696 | 123° | 51km/h | 5793m | -4.5m/s | -13.3°C | 65.1% | 502.8hPa | 2.5V | 00:00:00 | 00:00:00 | 00:00:00 | |
| OE5MMP-10 | 2026-09-03 01:16:57 | 47.46113 | 12.89632 | 124° | 51km/h | 5811m | -4.6m/s | -13.5°C | 65.8% | 501.6hPa | 2.5V | 00:00:00 | 02:47:37 | 00:00:00 | |
| BAUMI2-15 | 2026-09-03 01:16:56 | 47.46121 | 12.89616 | 125° | 51km/h | 5816m | -4.6m/s | -13.5°C | 66.1% | 501.2hPa | 2.5V | 00:00:00 | 02:47:36 | 00:00:00 | |
| OE5WHR-10 | 2026-09-03 01:16:52 | 47.46150 | 12.89552 | 125° | 49km/h | 5835m | -4.7m/s | -13.7°C | 66.5% | 500.0hPa | 2.5V | 07:47:00 | 02:47:32 | 00:00:00 | |
| OE5HKT-10 | 2026-09-03 01:16:50 | 47.46164 | 12.89521 | 125° | 49km/h | 5844m | -4.8m/s | -13.8°C | 66.8% | 499.5hPa | 2.5V | 00:00:00 | 00:00:00 | 00:00:00 | |
| DG1MFX-10 | 2026-09-03 01:16:48 | 47.46179 | 12.89489 | 124° | 51km/h | 5854m | -4.7m/s | -13.9°C | 65.1% | 498.8hPa | 2.5V | 00:00:00 | 00:00:00 | 00:00:00 | |
| OE5MMP-10 | 2026-09-03 01:16:47 | 47.46186 | 12.89473 | 123° | 49km/h | 5859m | -4.7m/s | -13.9°C | 67.0% | 498.5hPa | 2.5V | 07:47:00 | 02:47:27 | 00:00:00 | |
| OE5DRO-10 | 2026-09-03 01:16:45 | 47.46200 | 12.89441 | 123° | 49km/h | 5868m | -4.6m/s | -14.0°C | 67.3% | 497.9hPa | 2.5V | 00:00:00 | 00:00:00 | 00:00:00 | |
| OE3JTB-15 | 2026-09-03 01:16:44 | 47.46206 | 12.89425 | 122° | 49km/h | 5872m | -4.7m/s | -14.0°C | 67.4% | 497.7hPa | 2.5V | 00:00:00 | 00:00:00 | 00:00:00 | |
| BAUMI2-15 | 2026-09-03 01:16:43 | 47.46213 | 12.89409 | 123° | 49km/h | 5877m | -4.5m/s | -14.1°C | 67.4% | 497.3hPa | 2.5V | 07:47:00 | 02:47:23 | 00:00:00 | |
| PG1ADW-2 | 2026-09-03 01:16:41 | 47.46226 | 12.89377 | 122° | 47km/h | 5886m | -4.6m/s | -14.1°C | 66.0% | 496.6hPa | 2.5V | 00:00:00 | 00:00:00 | 00:00:00 | |
| OE5MMP-10 | 2026-09-03 01:16:37 | 47.46253 | 12.89315 | 122° | 47km/h | 5905m | -4.7m/s | -14.3°C | 65.8% | 495.5hPa | 2.5V | 00:00:00 | 02:47:17 | 00:00:00 | |
| OE5FHM-15 | 2026-09-03 01:16:36 | 47.46259 | 12.89300 | 123° | 47km/h | 5909m | -4.5m/s | -14.3°C | 65.6% | 495.1hPa | 2.6V | 00:00:00 | 02:47:16 | 00:00:00 | |
| OE5DXL-15 | 2026-09-03 01:16:35 | 47.46265 | 12.89285 | 122° | 47km/h | 5913m | -4.4m/s | -14.4°C | 65.2% | 494.8hPa | 2.6V | 00:00:00 | 00:00:00 | 00:00:00 | |
| OE5WHR-10 | 2026-09-03 01:16:34 | 47.46272 | 12.89269 | 122° | 47km/h | 5918m | -4.6m/s | -14.4°C | 65.2% | 494.5hPa | 2.6V | 00:00:00 | 00:00:00 | 00:00:00 | |
| OE5DRO-10 | 2026-09-03 01:16:29 | 47.46302 | 12.89194 | 121° | 47km/h | 5941m | -4.5m/s | -14.6°C | 67.2% | 493.1hPa | 2.5V | 00:00:00 | 00:00:00 | 00:00:00 | |
| OE5MMP-10 | 2026-09-03 01:16:27 | 47.46314 | 12.89164 | 120° | 46km/h | 5950m | -4.5m/s | -14.6°C | 67.7% | 492.4hPa | 2.6V | 00:00:00 | 02:47:07 | 00:00:00 | |
| DG1MFX-10 | 2026-09-03 01:16:26 | 47.46314 | 12.89164 | 121° | 46km/h | 5950m | -4.6m/s | -14.7°C | 65.9% | 492.5hPa | 2.6V | 07:48:00 | 00:00:00 | 00:00:00 | |
| PG1ADW-2 | 2026-09-03 01:16:21 | 47.46349 | 12.89076 | 122° | 47km/h | 5978m | -4.5m/s | -14.8°C | 66.9% | 490.7hPa | 2.6V | 00:00:00 | 02:47:01 | 00:00:00 | |
| OE5MMP-10 | 2026-09-03 01:16:17 | 47.46374 | 12.89016 | 123° | 47km/h | 5996m | -4.6m/s | -15.0°C | 66.3% | 489.5hPa | 2.6V | 00:00:00 | 02:46:57 | 00:00:00 | |
| OE3JTB-15 | 2026-09-03 01:16:14 | 47.46393 | 12.88971 | 123° | 49km/h | 6010m | -4.6m/s | -15.1°C | 66.3% | 488.6hPa | 2.6V | 00:00:00 | 02:46:54 | 00:00:00 | |
| OE5HKT-10 | 2026-09-03 01:16:13 | 47.46400 | 12.88956 | 123° | 47km/h | 6015m | -4.6m/s | -15.1°C | 66.4% | 488.3hPa | 2.6V | 00:00:00 | 00:00:00 | 00:00:00 | |
| BAUMI2-15 | 2026-09-03 01:16:11 | 47.46413 | 12.88926 | 123° | 47km/h | 6023m | -4.5m/s | -15.2°C | 66.5% | 487.7hPa | 2.6V | 00:00:00 | 02:46:51 | 00:00:00 | |
| OE5MMP-10 | 2026-09-03 01:16:07 | 47.46439 | 12.88868 | 125° | 49km/h | 6042m | -4.6m/s | -15.4°C | 66.3% | 486.6hPa | 2.6V | 00:00:00 | 02:46:47 | 00:00:00 | |
| DG1MFX-10 | 2026-09-03 01:16:06 | 47.46445 | 12.88854 | 126° | 46km/h | 6047m | -4.6m/s | -15.4°C | 64.0% | 486.3hPa | 2.5V | 07:48:00 | 00:00:00 | 00:00:00 | |
| OE5DXL-15 | 2026-09-03 01:16:05 | 47.46452 | 12.88840 | 127° | 53km/h | 6051m | -4.5m/s | -15.4°C | 65.6% | 485.9hPa | 2.5V | 07:48:00 | 00:00:00 | 00:00:00 | |
| BAUMI2-15 | 2026-09-03 01:16:04 | 47.46459 | 12.88826 | 127° | 60km/h | 6055m | -4.3m/s | -15.5°C | 63.9% | 485.6hPa | 2.6V | 00:00:00 | 02:46:44 | 00:00:00 | |
| PG1ADW-2 | 2026-09-03 01:16:01 | 47.46482 | 12.88784 | 129° | 53km/h | 6069m | -4.3m/s | -15.5°C | 60.9% | 484.7hPa | 2.6V | 00:00:00 | 00:00:00 | 00:00:00 | |
| OE5WHR-10 | 2026-09-03 01:16:00 | 47.46490 | 12.88769 | 130° | 53km/h | 6073m | -4.7m/s | -15.6°C | 60.6% | 484.5hPa | 2.6V | 00:00:00 | 02:46:40 | 00:00:00 | |
| OE5MMP-10 | 2026-09-03 01:15:57 | 47.46514 | 12.88725 | 130° | 51km/h | 6087m | -4.6m/s | -15.6°C | 56.7% | 483.6hPa | 2.6V | 00:00:00 | 02:46:37 | 00:00:00 | |
| OE5HKT-10 | 2026-09-03 01:15:56 | 47.46523 | 12.88710 | 130° | 53km/h | 6092m | -4.7m/s | -15.6°C | 56.0% | 483.4hPa | 2.6V | 00:00:00 | 00:00:00 | 00:00:00 | |
| OE5MMP-10 | 2026-09-03 01:15:47 | 47.46599 | 12.88577 | 132° | 55km/h | 6135m | -4.7m/s | -15.5°C | 38.1% | 480.6hPa | 2.6V | 00:00:00 | 02:46:27 | 00:00:00 | |
| OE3JTB-15 | 2026-09-03 01:15:45 | 47.46617 | 12.88547 | 132° | 58km/h | 6144m | -4.7m/s | -15.5°C | 35.7% | 479.9hPa | 2.6V | 00:00:00 | 00:00:00 | 00:00:00 | |
| OE5WHR-10 | 2026-09-03 01:15:43 | 47.46635 | 12.88517 | 133° | 57km/h | 6154m | -4.8m/s | -15.6°C | 36.7% | 479.3hPa | 2.5V | 00:00:00 | 00:00:00 | 00:00:00 | |
| OE5DRO-10 | 2026-09-03 01:15:41 | 47.46655 | 12.88487 | 134° | 58km/h | 6163m | -4.8m/s | -15.7°C | 36.7% | 478.7hPa | 2.5V | 00:00:00 | 00:00:00 | 00:00:00 | |
| OE5HKT-10 | 2026-09-03 01:15:39 | 47.46674 | 12.88457 | 136° | 58km/h | 6173m | -4.9m/s | -15.7°C | 34.4% | 478.1hPa | 2.5V | 00:00:00 | 02:46:19 | 00:00:00 | |
| OE5MMP-10 | 2026-09-03 01:15:37 | 47.46695 | 12.88428 | 136° | 58km/h | 6183m | -4.7m/s | -15.8°C | 32.7% | 477.5hPa | 2.5V | 00:00:00 | 02:46:17 | 00:00:00 | |
| OE5FHM-15 | 2026-09-03 01:15:36 | 47.46705 | 12.88413 | 136° | 60km/h | 6187m | -4.8m/s | -15.8°C | 32.7% | 477.2hPa | 2.6V | 00:00:00 | 02:46:16 | 00:00:00 | |
| OE5DXL-15 | 2026-09-03 01:15:35 | 47.46715 | 12.88398 | 137° | 60km/h | 6192m | -4.6m/s | -15.8°C | 31.6% | 477.0hPa | 2.6V | 00:00:00 | 00:00:00 | 00:00:00 | |
| OE5MMP-10 | 2026-09-03 01:15:27 | 47.46801 | 12.88276 | 137° | 60km/h | 6231m | -4.9m/s | -15.9°C | 23.4% | 474.5hPa | 2.6V | 07:49:00 | 02:46:07 | 00:00:00 | |
| DG1MFX-10 | 2026-09-03 01:15:26 | 47.46812 | 12.88261 | 137° | 60km/h | 6236m | -4.8m/s | -15.9°C | 20.0% | 474.2hPa | 2.6V | 07:49:00 | 00:00:00 | 00:00:00 | |
| OE5DRO-10 | 2026-09-03 01:15:25 | 47.46823 | 12.88245 | 137° | 60km/h | 6241m | -4.9m/s | -15.9°C | 18.7% | 473.9hPa | 2.6V | 00:00:00 | 00:00:00 | 00:00:00 | |
| OE5HKT-10 | 2026-09-03 01:15:22 | 47.46856 | 12.88199 | 137° | 60km/h | 6255m | -4.9m/s | -15.7°C | 10.9% | 473.0hPa | 2.6V | 00:00:00 | 00:00:00 | 00:00:00 | |
| PG1ADW-2 | 2026-09-03 01:15:21 | 47.46867 | 12.88184 | 137° | 62km/h | 6261m | -4.7m/s | -15.7°C | 9.0% | 472.7hPa | 2.5V | 00:00:00 | 00:00:00 | 00:00:00 | |
| OE5MMP-10 | 2026-09-03 01:15:17 | 47.46911 | 12.88122 | 137° | 62km/h | 6280m | -4.8m/s | -15.7°C | 6.5% | 471.4hPa | 2.6V | 00:00:00 | 02:45:57 | 00:00:00 | |
| OE3JTB-15 | 2026-09-03 01:15:16 | 47.46922 | 12.88107 | 137° | 64km/h | 6285m | -4.9m/s | -15.7°C | 6.3% | 471.1hPa | 2.6V | 00:00:00 | 00:00:00 | 00:00:00 | |
| OE5WHR-10 | 2026-09-03 01:15:09 | 47.47003 | 12.88000 | 138° | 64km/h | 6319m | -5.2m/s | -15.8°C | 6.1% | 469.0hPa | 2.6V | 00:00:00 | 02:45:49 | 00:00:00 | |
| OE5MMP-10 | 2026-09-03 01:15:07 | 47.47026 | 12.87968 | 138° | 64km/h | 6329m | -4.8m/s | -15.8°C | 6.0% | 468.4hPa | 2.6V | 00:00:00 | 02:45:47 | 00:00:00 | |
| OE5FHM-15 | 2026-09-03 01:15:06 | 47.47038 | 12.87953 | 137° | 68km/h | 6334m | -5.0m/s | -15.9°C | 5.9% | 468.1hPa | 2.6V | 00:00:00 | 02:45:46 | 00:00:00 | |
| OE5DXL-15 | 2026-09-03 01:15:05 | 47.47049 | 12.87936 | 137° | 68km/h | 6339m | -5.1m/s | -15.9°C | 5.9% | 467.8hPa | 2.5V | 00:00:00 | 00:00:00 | 00:00:00 | |
| DG1MFX-10 | 2026-09-03 01:15:04 | 47.47049 | 12.87936 | 138° | 62km/h | 6339m | -5.1m/s | -15.9°C | 5.5% | 467.8hPa | 2.5V | 07:49:00 | 00:00:00 | 00:00:00 | |
| OE5DRO-10 | 2026-09-03 01:14:53 | 47.47195 | 12.87737 | 138° | 69km/h | 6399m | -5.0m/s | -16.1°C | 5.4% | 464.1hPa | 2.5V | 00:00:00 | 00:00:00 | 00:00:00 | |
| OE5WHR-10 | 2026-09-03 01:14:52 | 47.47207 | 12.87720 | 138° | 69km/h | 6404m | -4.9m/s | -16.1°C | 5.3% | 463.7hPa | 2.5V | 00:00:00 | 00:00:00 | 00:00:00 | |
| OE5HKT-10 | 2026-09-03 01:14:48 | 47.47258 | 12.87650 | 138° | 71km/h | 6424m | -5.0m/s | -16.1°C | 5.2% | 462.5hPa | 2.6V | 00:00:00 | 02:45:28 | 00:00:00 | |
| OE5MMP-10 | 2026-09-03 01:14:47 | 47.47271 | 12.87633 | 138° | 71km/h | 6429m | -4.9m/s | -16.2°C | 5.3% | 462.3hPa | 2.6V | 00:00:00 | 02:45:27 | 00:00:00 | |
| DG1MFX-10 | 2026-09-03 01:14:44 | 47.47297 | 12.87597 | 139° | 71km/h | 6439m | -4.9m/s | -16.3°C | 4.9% | 461.6hPa | 2.6V | 07:50:00 | 00:00:00 | 00:00:00 | |
| PG1ADW-2 | 2026-09-03 01:14:41 | 47.47351 | 12.87527 | 139° | 71km/h | 6459m | -5.0m/s | -16.2°C | 6.4% | 460.4hPa | 2.6V | 00:00:00 | 00:00:00 | 00:00:00 | |
| OE5MMP-10 | 2026-09-03 01:14:37 | 47.47405 | 12.87456 | 138° | 71km/h | 6479m | -4.8m/s | -16.3°C | 7.5% | 459.2hPa | 2.6V | 00:00:00 | 02:45:17 | 00:00:00 | |
| OE5FHM-15 | 2026-09-03 01:14:36 | 47.47418 | 12.87439 | 139° | 71km/h | 6484m | -5.0m/s | -16.4°C | 7.9% | 458.9hPa | 2.5V | 00:00:00 | 02:45:16 | 00:00:00 | |
| OE5DXL-15 | 2026-09-03 01:14:34 | 47.47445 | 12.87404 | 139° | 69km/h | 6494m | -5.1m/s | -16.4°C | 8.6% | 458.3hPa | 2.5V | 00:00:00 | 00:00:00 | 00:00:00 | |
| OE5WHR-10 | 2026-09-03 01:14:31 | 47.47486 | 12.87351 | 140° | 71km/h | 6509m | -5.1m/s | -16.5°C | 9.3% | 457.3hPa | 2.5V | 07:50:00 | 00:00:00 | 00:00:00 | |
| OE5HKT-10 | 2026-09-03 01:14:27 | 47.47541 | 12.87284 | 141° | 69km/h | 6529m | -4.9m/s | -16.6°C | 9.5% | 456.1hPa | 2.5V | 00:00:00 | 00:00:00 | 00:00:00 | |
| DG1MFX-10 | 2026-09-03 01:14:24 | 47.47582 | 12.87234 | 141° | 69km/h | 6544m | -5.1m/s | -16.8°C | 9.0% | 455.2hPa | 2.5V | 07:50:00 | 00:00:00 | 00:00:00 | |
| PG1ADW-2 | 2026-09-03 01:14:21 | 47.47623 | 12.87182 | 140° | 69km/h | 6559m | -5.0m/s | -16.8°C | 9.2% | 454.3hPa | 2.5V | 00:00:00 | 00:00:00 | 00:00:00 | |
| OE3JTB-15 | 2026-09-03 01:14:18 | 47.47663 | 12.87131 | 140° | 69km/h | 6574m | -4.8m/s | -16.9°C | 8.9% | 453.4hPa | 2.6V | 07:50:00 | 00:00:00 | 00:00:00 | |
| OE5MMP-10 | 2026-09-03 01:14:17 | 47.47677 | 12.87114 | 140° | 69km/h | 6579m | -4.8m/s | -17.0°C | 9.0% | 453.1hPa | 2.5V | 00:00:00 | 02:44:57 | 00:00:00 | |
| OE5WHR-10 | 2026-09-03 01:14:09 | 47.47784 | 12.86977 | 138° | 77km/h | 6618m | -4.8m/s | -17.3°C | 9.4% | 450.7hPa | 2.5V | 00:00:00 | 02:44:49 | 00:00:00 | |
| OE5MMP-10 | 2026-09-03 01:14:07 | 47.47809 | 12.86942 | 138° | 68km/h | 6628m | -4.9m/s | -17.3°C | 9.4% | 450.2hPa | 2.5V | 07:50:00 | 02:44:47 | 00:00:00 | |
| OE5FHM-15 | 2026-09-03 01:14:06 | 47.47822 | 12.86925 | 138° | 69km/h | 6632m | -4.5m/s | -17.3°C | 9.4% | 449.9hPa | 2.6V | 00:00:00 | 02:44:46 | 00:00:00 | |
| OE5DXL-15 | 2026-09-03 01:14:04 | 47.47848 | 12.86892 | 140° | 71km/h | 6642m | -4.9m/s | -17.4°C | 9.4% | 449.3hPa | 2.6V | 00:00:00 | 00:00:00 | 00:00:00 | |
| DG1MFX-10 | 2026-09-03 01:14:03 | 47.47861 | 12.86875 | 141° | 68km/h | 6647m | -4.8m/s | -17.5°C | 8.8% | 449.0hPa | 2.6V | 07:51:00 | 00:00:00 | 00:00:00 | |
| PG1ADW-2 | 2026-09-03 01:14:01 | 47.47887 | 12.86842 | 141° | 69km/h | 6656m | -4.8m/s | -17.4°C | 9.4% | 448.4hPa | 2.6V | 00:00:00 | 00:00:00 | 00:00:00 | |
| OE5DRO-10 | 2026-09-03 01:13:59 | 47.47914 | 12.86810 | 141° | 69km/h | 6666m | -5.2m/s | -17.4°C | 9.3% | 447.7hPa | 2.6V | 00:00:00 | 00:00:00 | 00:00:00 | |
| OE5MMP-10 | 2026-09-03 01:13:57 | 47.47941 | 12.86777 | 142° | 69km/h | 6676m | -4.8m/s | -17.5°C | 9.2% | 447.2hPa | 2.5V | 00:00:00 | 02:44:37 | 00:00:00 | |
| OE3JTB-15 | 2026-09-03 01:13:49 | 47.48051 | 12.86648 | 142° | 73km/h | 6716m | -4.8m/s | -17.7°C | 9.8% | 444.9hPa | 2.5V | 00:00:00 | 00:00:00 | 00:00:00 | |
| OE5MMP-10 | 2026-09-03 01:13:47 | 47.48079 | 12.86616 | 142° | 73km/h | 6725m | -4.8m/s | -17.7°C | 10.9% | 444.3hPa | 2.5V | 00:00:00 | 02:44:27 | 00:00:00 | |
| OE5HKT-10 | 2026-09-03 01:13:45 | 47.48106 | 12.86582 | 141° | 73km/h | 6734m | -4.9m/s | -17.7°C | 11.0% | 443.8hPa | 2.5V | 00:00:00 | 02:44:25 | 00:00:00 | |
| DG1MFX-10 | 2026-09-03 01:13:43 | 47.48135 | 12.86548 | 142° | 73km/h | 6744m | -5.0m/s | -17.9°C | 10.4% | 443.2hPa | 2.5V | 07:51:00 | 00:00:00 | 00:00:00 | |
| PG1ADW-2 | 2026-09-03 01:13:41 | 47.48164 | 12.86514 | 142° | 75km/h | 6754m | -4.8m/s | -17.9°C | 11.2% | 442.5hPa | 2.5V | 00:00:00 | 02:44:21 | 00:00:00 | |
| OE5DRO-10 | 2026-09-03 01:13:40 | 47.48178 | 12.86497 | 142° | 75km/h | 6759m | -5.1m/s | -17.9°C | 11.2% | 442.2hPa | 2.5V | 00:00:00 | 00:00:00 | 00:00:00 | |
| OE5MMP-10 | 2026-09-03 01:13:37 | 47.48222 | 12.86447 | 143° | 73km/h | 6774m | -5.1m/s | -18.0°C | 11.3% | 441.4hPa | 2.5V | 00:00:00 | 02:44:17 | 00:00:00 | |
| OE5FHM-15 | 2026-09-03 01:13:35 | 47.48251 | 12.86415 | 144° | 78km/h | 6784m | -5.0m/s | -18.1°C | 11.1% | 440.8hPa | 2.5V | 00:00:00 | 02:44:15 | 00:00:00 | |
| OE5DXL-15 | 2026-09-03 01:13:34 | 47.48265 | 12.86399 | 144° | 78km/h | 6789m | -5.2m/s | -18.1°C | 11.1% | 440.5hPa | 2.5V | 00:00:00 | 00:00:00 | 00:00:00 | |
| OE5MMP-10 | 2026-09-03 01:13:27 | 47.48370 | 12.86282 | 143° | 77km/h | 6825m | -5.0m/s | -18.4°C | 10.9% | 438.3hPa | 2.5V | 00:00:00 | 02:44:07 | 00:00:00 | |
| OE5HKT-10 | 2026-09-03 01:13:24 | 47.48417 | 12.86231 | 144° | 80km/h | 6841m | -5.3m/s | -18.6°C | 11.2% | 437.5hPa | 2.5V | 00:00:00 | 00:00:00 | 00:00:00 | |
| OE5DRO-10 | 2026-09-03 01:13:21 | 47.48464 | 12.86180 | 145° | 82km/h | 6856m | -4.6m/s | -18.7°C | 11.2% | 436.5hPa | 2.5V | 00:00:00 | 00:00:00 | 00:00:00 | |
| OE3JTB-15 | 2026-09-03 01:13:20 | 47.48480 | 12.86162 | 145° | 84km/h | 6860m | -4.5m/s | -18.8°C | 11.1% | 436.3hPa | 2.5V | 00:00:00 | 02:44:00 | 00:00:00 | |
| OE5MMP-10 | 2026-09-03 01:13:17 | 47.48529 | 12.86112 | 146° | 80km/h | 6874m | -4.6m/s | -18.9°C | 11.0% | 435.5hPa | 2.5V | 00:00:00 | 02:43:57 | 00:00:00 | |
| OE5WHR-10 | 2026-09-03 01:13:12 | 47.48612 | 12.86026 | 144° | 84km/h | 6899m | -5.4m/s | -19.0°C | 10.4% | 434.1hPa | 2.5V | 00:00:00 | 00:00:00 | 00:00:00 | |
| OE5MMP-10 | 2026-09-03 01:13:07 | 47.48695 | 12.85932 | 143° | 84km/h | 6925m | -5.3m/s | -19.2°C | 10.2% | 432.5hPa | 2.5V | 00:00:00 | 02:43:47 | 00:00:00 | |
| OE5FHM-15 | 2026-09-03 01:13:05 | 47.48728 | 12.85894 | 144° | 86km/h | 6936m | -5.5m/s | -19.2°C | 9.5% | 431.9hPa | 2.6V | 07:51:00 | 02:43:45 | 00:00:00 | |
| OE5DXL-15 | 2026-09-03 01:13:04 | 47.48745 | 12.85876 | 145° | 86km/h | 6942m | -5.5m/s | -19.2°C | 9.5% | 431.6hPa | 2.6V | 00:00:00 | 00:00:00 | 00:00:00 | |
| OE5HKT-10 | 2026-09-03 01:13:03 | 47.48763 | 12.85857 | 145° | 86km/h | 6947m | -5.5m/s | -19.2°C | 9.5% | 431.3hPa | 2.6V | 00:00:00 | 00:00:00 | 00:00:00 | |
| OE5DRO-10 | 2026-09-03 01:13:02 | 47.48780 | 12.85839 | 146° | 86km/h | 6953m | -5.5m/s | -19.3°C | 9.5% | 430.9hPa | 2.6V | 00:00:00 | 00:00:00 | 00:00:00 | |
| OE5MMP-10 | 2026-09-03 01:12:57 | 47.48869 | 12.85747 | 144° | 86km/h | 6980m | -5.1m/s | -19.6°C | 9.9% | 429.3hPa | 2.5V | 00:00:00 | 02:43:37 | 00:00:00 | |
| OE5WHR-10 | 2026-09-03 01:12:51 | 47.48973 | 12.85630 | 144° | 86km/h | 7011m | -5.2m/s | -19.8°C | 10.7% | 427.6hPa | 2.5V | 00:00:00 | 00:00:00 | 00:00:00 | |
| OE5MMP-10 | 2026-09-03 01:12:47 | 47.49044 | 12.85554 | 144° | 86km/h | 7031m | -5.3m/s | -20.0°C | 11.8% | 426.4hPa | 2.5V | 07:51:00 | 02:43:27 | 00:00:00 | |
| OE5DRO-10 | 2026-09-03 01:12:43 | 47.49114 | 12.85477 | 144° | 88km/h | 7051m | -4.9m/s | -20.0°C | 11.1% | 425.2hPa | 2.5V | 07:51:00 | 00:00:00 | 00:00:00 | |
| OE5HKT-10 | 2026-09-03 01:12:42 | 47.49132 | 12.85458 | 144° | 88km/h | 7056m | -5.1m/s | -20.1°C | 10.2% | 424.9hPa | 2.5V | 00:00:00 | 02:43:22 | 00:00:00 | |
| PG1ADW-2 | 2026-09-03 01:12:41 | 47.49149 | 12.85438 | 144° | 88km/h | 7061m | -5.1m/s | -20.1°C | 10.4% | 424.7hPa | 2.5V | 00:00:00 | 00:00:00 | 00:00:00 | |
| DG1MFX-10 | 2026-09-03 01:12:40 | 47.49167 | 12.85419 | 144° | 86km/h | 7066m | -5.3m/s | -20.2°C | 10.9% | 424.4hPa | 2.5V | 07:52:00 | 00:00:00 | 00:00:00 | |
| OE5MMP-10 | 2026-09-03 01:12:37 | 47.49219 | 12.85360 | 143° | 88km/h | 7082m | -5.1m/s | -20.3°C | 14.2% | 423.5hPa | 2.5V | 00:00:00 | 02:43:17 | 00:00:00 | |
| BAUMI2-15 | 2026-09-03 01:12:36 | 47.49236 | 12.85341 | 143° | 88km/h | 7087m | -5.2m/s | -20.3°C | 14.1% | 423.2hPa | 2.5V | 00:00:00 | 02:43:16 | 00:00:00 | |
| OE5DXL-15 | 2026-09-03 01:12:34 | 47.49271 | 12.85301 | 143° | 88km/h | 7097m | -5.1m/s | -20.4°C | 13.8% | 422.6hPa | 2.5V | 00:00:00 | 00:00:00 | 00:00:00 | |
| BAUMI2-15 | 2026-09-03 01:12:31 | 47.49324 | 12.85242 | 143° | 88km/h | 7113m | -5.2m/s | -20.6°C | 13.4% | 421.7hPa | 2.5V | 00:00:00 | 02:43:11 | 00:00:00 | |
| OE5WHR-10 | 2026-09-03 01:12:30 | 47.49342 | 12.85222 | 143° | 89km/h | 7118m | -5.2m/s | -20.6°C | 13.2% | 421.4hPa | 2.5V | 00:00:00 | 02:43:10 | 00:00:00 | |
| OE5MMP-10 | 2026-09-03 01:12:26 | 47.49413 | 12.85142 | 143° | 88km/h | 7139m | -5.1m/s | -20.7°C | 13.4% | 420.2hPa | 2.5V | 00:00:00 | 02:43:06 | 00:00:00 | |
| OE5DRO-10 | 2026-09-03 01:12:24 | 47.49449 | 12.85102 | 143° | 88km/h | 7149m | -5.0m/s | -20.8°C | 14.5% | 419.6hPa | 2.5V | 00:00:00 | 00:00:00 | 00:00:00 | |
| BAUMI2-15 | 2026-09-03 01:12:23 | 47.49466 | 12.85082 | 143° | 88km/h | 7155m | -5.1m/s | -20.8°C | 15.6% | 419.3hPa | 2.5V | 00:00:00 | 02:43:03 | 00:00:00 | |
| OE3JTB-15 | 2026-09-03 01:12:22 | 47.49484 | 12.85062 | 143° | 88km/h | 7159m | -5.0m/s | -20.8°C | 17.6% | 419.0hPa | 2.6V | 00:00:00 | 00:00:00 | 00:00:00 | |
| PG1ADW-2 | 2026-09-03 01:12:21 | 47.49501 | 12.85042 | 142° | 88km/h | 7165m | -5.3m/s | -20.9°C | 20.3% | 418.7hPa | 2.6V | 00:00:00 | 02:43:01 | 00:00:00 | |
| DG1MFX-10 | 2026-09-03 01:12:19 | 47.49536 | 12.85001 | 143° | 88km/h | 7175m | -5.3m/s | -21.0°C | 24.5% | 418.2hPa | 2.5V | 07:52:00 | 00:00:00 | 00:00:00 | |
| BAUMI2-15 | 2026-09-03 01:12:17 | 47.49571 | 12.84960 | 142° | 88km/h | 7186m | -5.3m/s | -21.1°C | 28.1% | 417.6hPa | 2.5V | 00:00:00 | 02:42:57 | 00:00:00 | |
| OE5MMP-10 | 2026-09-03 01:12:16 | 47.49588 | 12.84940 | 142° | 88km/h | 7191m | -5.2m/s | -21.2°C | 28.8% | 417.3hPa | 2.5V | 00:00:00 | 02:42:56 | 00:00:00 | |
| OE5MMP-10 | 2026-09-03 01:12:06 | 47.49764 | 12.84737 | 142° | 89km/h | 7242m | -5.0m/s | -21.7°C | 31.7% | 414.4hPa | 2.5V | 00:00:00 | 02:42:46 | 00:00:00 | |
| OE5FHM-15 | 2026-09-03 01:12:05 | 47.49782 | 12.84717 | 142° | 89km/h | 7248m | -5.2m/s | -21.7°C | 32.4% | 414.1hPa | 2.5V | 00:00:00 | 02:42:45 | 00:00:00 | |
| OE5DXL-15 | 2026-09-03 01:12:04 | 47.49799 | 12.84696 | 142° | 89km/h | 7253m | -4.9m/s | -21.8°C | 32.7% | 413.8hPa | 2.5V | 07:52:00 | 00:00:00 | 00:00:00 | |
| PG1ADW-2 | 2026-09-03 01:12:01 | 47.49852 | 12.84634 | 142° | 89km/h | 7268m | -5.1m/s | -21.9°C | 33.5% | 412.9hPa | 2.5V | 00:00:00 | 00:00:00 | 00:00:00 | |
| BAUMI2-15 | 2026-09-03 01:11:58 | 47.49905 | 12.84572 | 142° | 89km/h | 7283m | -5.1m/s | -22.1°C | 34.3% | 412.1hPa | 2.5V | 00:00:00 | 02:42:38 | 00:00:00 | |
| OE5MMP-10 | 2026-09-03 01:11:56 | 47.49941 | 12.84530 | 142° | 89km/h | 7293m | -5.2m/s | -22.2°C | 34.4% | 411.5hPa | 2.5V | 00:00:00 | 02:42:36 | 00:00:00 | |
| OE3JTB-15 | 2026-09-03 01:11:53 | 47.49993 | 12.84468 | 141° | 89km/h | 7308m | -5.1m/s | -22.3°C | 35.8% | 410.6hPa | 2.5V | 00:00:00 | 02:42:33 | 00:00:00 | |
| BAUMI2-15 | 2026-09-03 01:11:47 | 47.50099 | 12.84342 | 142° | 89km/h | 7340m | -5.3m/s | -22.6°C | 38.7% | 408.8hPa | 2.5V | 00:00:00 | 02:42:27 | 00:00:00 | |
| OE5MMP-10 | 2026-09-03 01:11:46 | 47.50117 | 12.84321 | 142° | 89km/h | 7345m | -5.2m/s | -22.7°C | 38.8% | 408.5hPa | 2.5V | 00:00:00 | 02:42:26 | 00:00:00 | |
| PG1ADW-2 | 2026-09-03 01:11:41 | 47.50204 | 12.84214 | 141° | 89km/h | 7372m | -5.0m/s | -22.9°C | 40.7% | 407.1hPa | 2.5V | 00:00:00 | 00:00:00 | 00:00:00 | |
| OE5HKT-10 | 2026-09-03 01:11:37 | 47.50275 | 12.84128 | 141° | 89km/h | 7393m | -5.3m/s | -23.1°C | 43.4% | 406.0hPa | 2.5V | 00:00:00 | 02:42:17 | 00:00:00 | |
| OE5MMP-10 | 2026-09-03 01:11:36 | 47.50292 | 12.84106 | 141° | 89km/h | 7398m | -5.3m/s | -23.2°C | 43.6% | 405.6hPa | 2.5V | 00:00:00 | 02:42:16 | 00:00:00 | |
| OE5FHM-15 | 2026-09-03 01:11:35 | 47.50310 | 12.84085 | 141° | 91km/h | 7403m | -5.1m/s | -23.2°C | 43.8% | 405.3hPa | 2.6V | 00:00:00 | 02:42:15 | 00:00:00 | |
| OE5WHR-10 | 2026-09-03 01:11:34 | 47.50327 | 12.84064 | 141° | 91km/h | 7408m | -5.2m/s | -23.3°C | 43.9% | 405.1hPa | 2.6V | 00:00:00 | 00:00:00 | 00:00:00 | |
| BAUMI2-15 | 2026-09-03 01:11:31 | 47.50380 | 12.84000 | 141° | 89km/h | 7424m | -5.2m/s | -23.4°C | 44.3% | 404.2hPa | 2.5V | 00:00:00 | 02:42:11 | 00:00:00 | |
| OE5DRO-10 | 2026-09-03 01:11:27 | 47.50449 | 12.83914 | 140° | 91km/h | 7445m | -5.2m/s | -23.6°C | 44.6% | 403.0hPa | 2.6V | 00:00:00 | 00:00:00 | 00:00:00 | |
| OE5MMP-10 | 2026-09-03 01:11:26 | 47.50467 | 12.83892 | 140° | 91km/h | 7450m | -5.4m/s | -23.7°C | 44.4% | 402.7hPa | 2.6V | 07:53:00 | 02:42:06 | 00:00:00 | |
| OE3JTB-15 | 2026-09-03 01:11:24 | 47.50501 | 12.83847 | 139° | 91km/h | 7461m | -5.3m/s | -23.8°C | 44.7% | 402.2hPa | 2.6V | 00:00:00 | 00:00:00 | 00:00:00 | |
| BAUMI2-15 | 2026-09-03 01:11:21 | 47.50552 | 12.83779 | 139° | 89km/h | 7477m | -5.4m/s | -23.9°C | 45.0% | 401.3hPa | 2.5V | 00:00:00 | 02:42:01 | 00:00:00 | |
| DG1MFX-10 | 2026-09-03 01:11:17 | 47.50603 | 12.83712 | 139° | 89km/h | 7493m | -5.4m/s | -24.1°C | 43.2% | 400.5hPa | 2.5V | 07:53:00 | 00:00:00 | 00:00:00 | |
| OE5HKT-10 | 2026-09-03 01:11:16 | 47.50638 | 12.83667 | 139° | 91km/h | 7504m | -5.1m/s | -24.2°C | 45.6% | 399.8hPa | 2.5V | 07:53:00 | 00:00:00 | 00:00:00 | |
| BAUMI2-15 | 2026-09-03 01:11:11 | 47.50722 | 12.83553 | 138° | 91km/h | 7531m | -5.4m/s | -24.4°C | 48.2% | 398.4hPa | 2.6V | 07:53:00 | 02:41:51 | 00:00:00 | |
| OE5WHR-10 | 2026-09-03 01:11:09 | 47.50756 | 12.83507 | 137° | 91km/h | 7542m | -5.3m/s | -24.5°C | 48.9% | 397.8hPa | 2.6V | 00:00:00 | 00:00:00 | 00:00:00 | |
| OE5DRO-10 | 2026-09-03 01:11:08 | 47.50773 | 12.83484 | 138° | 91km/h | 7547m | -5.4m/s | -24.5°C | 49.2% | 397.5hPa | 2.6V | 00:00:00 | 00:00:00 | 00:00:00 | |
| OE5FHM-15 | 2026-09-03 01:11:05 | 47.50824 | 12.83414 | 138° | 93km/h | 7563m | -5.4m/s | -24.7°C | 49.7% | 396.6hPa | 2.5V | 00:00:00 | 02:41:45 | 00:00:00 | |
| OE5MMP-10 | 2026-09-03 01:11:04 | 47.50841 | 12.83391 | 138° | 91km/h | 7568m | -5.4m/s | -24.7°C | 49.9% | 396.3hPa | 2.5V | 00:00:00 | 02:41:44 | 00:00:00 | |
| PG1ADW-2 | 2026-09-03 01:11:01 | 47.50892 | 12.83321 | 138° | 93km/h | 7584m | -5.3m/s | -24.9°C | 50.6% | 395.5hPa | 2.5V | 00:00:00 | 02:41:41 | 00:00:00 | |
| DG1MFX-10 | 2026-09-03 01:10:56 | 47.50959 | 12.83227 | 138° | 93km/h | 7605m | -5.3m/s | -25.1°C | 49.0% | 394.3hPa | 2.5V | 07:53:00 | 00:00:00 | 00:00:00 | |
| OE5HKT-10 | 2026-09-03 01:10:55 | 47.50993 | 12.83180 | 137° | 93km/h | 7615m | -5.2m/s | -25.2°C | 52.5% | 393.8hPa | 2.5V | 00:00:00 | 00:00:00 | 00:00:00 | |
| OE5MMP-10 | 2026-09-03 01:10:54 | 47.51010 | 12.83156 | 137° | 93km/h | 7620m | -5.2m/s | -25.2°C | 52.7% | 393.5hPa | 2.5V | 00:00:00 | 02:41:34 | 00:00:00 | |
| OE5DRO-10 | 2026-09-03 01:10:49 | 47.51095 | 12.83037 | 137° | 93km/h | 7646m | -5.2m/s | -25.5°C | 54.0% | 392.1hPa | 2.5V | 00:00:00 | 00:00:00 | 00:00:00 | |
| OE5WHR-10 | 2026-09-03 01:10:48 | 47.51112 | 12.83013 | 137° | 93km/h | 7652m | -5.3m/s | -25.5°C | 54.2% | 391.8hPa | 2.5V | 00:00:00 | 02:41:28 | 00:00:00 | |
| OE5MMP-10 | 2026-09-03 01:10:42 | 47.51215 | 12.82869 | 137° | 95km/h | 7682m | -5.2m/s | -25.8°C | 56.0% | 390.1hPa | 2.5V | 00:00:00 | 02:41:22 | 00:00:00 | |
| PG1ADW-2 | 2026-09-03 01:10:41 | 47.51232 | 12.82845 | 137° | 93km/h | 7687m | -5.1m/s | -25.8°C | 56.3% | 389.8hPa | 2.5V | 00:00:00 | 00:00:00 | 00:00:00 | |
| OE5FHM-15 | 2026-09-03 01:10:35 | 47.51334 | 12.82697 | 136° | 93km/h | 7719m | -5.3m/s | -26.1°C | 57.7% | 388.2hPa | 2.5V | 00:00:00 | 02:41:15 | 00:00:00 | |
| OE5HKT-10 | 2026-09-03 01:10:34 | 47.51352 | 12.82673 | 136° | 93km/h | 7724m | -5.1m/s | -26.2°C | 57.9% | 387.8hPa | 2.5V | 00:00:00 | 02:41:14 | 00:00:00 | |
| OE5MMP-10 | 2026-09-03 01:10:31 | 47.51403 | 12.82599 | 136° | 93km/h | 7739m | -5.2m/s | -26.3°C | 58.6% | 387.0hPa | 2.5V | 00:00:00 | 02:41:11 | 00:00:00 | |
| OE5DRO-10 | 2026-09-03 01:10:30 | 47.51419 | 12.82574 | 136° | 95km/h | 7745m | -5.1m/s | -26.4°C | 58.7% | 386.8hPa | 2.6V | 00:00:00 | 00:00:00 | 00:00:00 | |
| OE5WHR-10 | 2026-09-03 01:10:27 | 47.51470 | 12.82500 | 135° | 93km/h | 7760m | -5.2m/s | -26.5°C | 59.1% | 385.9hPa | 2.6V | 07:54:00 | 00:00:00 | 00:00:00 | |
| OE3JTB-15 | 2026-09-03 01:10:26 | 47.51487 | 12.82475 | 135° | 93km/h | 7765m | -5.3m/s | -26.6°C | 59.1% | 385.7hPa | 2.5V | 07:54:00 | 02:41:06 | 00:00:00 | |
| OE5MMP-10 | 2026-09-03 01:10:21 | 47.51570 | 12.82351 | 136° | 95km/h | 7792m | -5.2m/s | -26.8°C | 58.5% | 384.2hPa | 2.5V | 00:00:00 | 02:41:01 | 00:00:00 | |
| DG1MFX-10 | 2026-09-03 01:10:15 | 47.51655 | 12.82229 | 137° | 95km/h | 7819m | -5.5m/s | -27.1°C | 56.4% | 382.9hPa | 2.5V | 07:54:00 | 00:00:00 | 00:00:00 | |
| OE5MMP-10 | 2026-09-03 01:10:11 | 47.51741 | 12.82105 | 136° | 93km/h | 7846m | -5.2m/s | -27.3°C | 60.5% | 381.4hPa | 2.5V | 00:00:00 | 02:40:51 | 00:00:00 | |
| OE5WHR-10 | 2026-09-03 01:10:06 | 47.51824 | 12.81982 | 136° | 91km/h | 7872m | -5.4m/s | -27.5°C | 60.7% | 380.1hPa | 2.5V | 00:00:00 | 00:00:00 | 00:00:00 | |
| OE5DXL-15 | 2026-09-03 01:10:03 | 47.51875 | 12.81910 | 137° | 89km/h | 7888m | -5.5m/s | -27.7°C | 61.0% | 379.1hPa | 2.5V | 00:00:00 | 00:00:00 | 00:00:00 | |
| OE5FHM-15 | 2026-09-03 01:10:02 | 47.51891 | 12.81886 | 136° | 89km/h | 7893m | -5.4m/s | -27.7°C | 61.0% | 378.9hPa | 2.5V | 00:00:00 | 02:40:42 | 00:00:00 | |
| OE5MMP-10 | 2026-09-03 01:10:01 | 47.51908 | 12.81862 | 137° | 91km/h | 7899m | -5.4m/s | 0°C | 0% | 0hPa | 2.5V | 07:54:00 | 02:40:41 | 00:00:00 | |
| OE3JTB-15 | 2026-09-03 01:09:57 | 47.51975 | 12.81767 | 136° | 89km/h | 7920m | -5.3m/s | -28.0°C | 62.3% | 377.5hPa | 2.6V | 00:00:00 | 00:00:00 | 00:00:00 | |
| DG1MFX-10 | 2026-09-03 01:09:55 | 47.51992 | 12.81743 | 137° | 91km/h | 7925m | -5.3m/s | -28.0°C | 59.2% | 377.2hPa | 2.5V | 07:55:00 | 00:00:00 | 00:00:00 | |
| OE5HKT-10 | 2026-09-03 01:09:52 | 47.52057 | 12.81648 | 136° | 89km/h | 7946m | -5.4m/s | -28.0°C | 64.7% | 376.1hPa | 2.5V | 00:00:00 | 00:00:00 | 00:00:00 | |
| OE5MMP-10 | 2026-09-03 01:09:51 | 47.52073 | 12.81625 | 135° | 89km/h | 7951m | -5.3m/s | -28.0°C | 64.8% | 375.8hPa | 2.5V | 00:00:00 | 02:40:31 | 00:00:00 | |
| OE5WHR-10 | 2026-09-03 01:09:45 | 47.52169 | 12.81482 | 135° | 89km/h | 7983m | -5.4m/s | -28.2°C | 64.2% | 374.2hPa | 2.5V | 00:00:00 | 02:40:25 | 00:00:00 | |
| OE5MMP-10 | 2026-09-03 01:09:41 | 47.52232 | 12.81388 | 135° | 89km/h | 8004m | -5.4m/s | -28.2°C | 63.5% | 373.1hPa | 2.5V | 00:00:00 | 02:40:21 | 00:00:00 | |
| DG1MFX-10 | 2026-09-03 01:09:36 | 47.52310 | 12.81270 | 134° | 89km/h | 8031m | -5.3m/s | -28.1°C | 60.0% | 371.7hPa | 2.5V | 07:55:00 | 00:00:00 | 00:00:00 | |
| OE5DXL-15 | 2026-09-03 01:09:34 | 47.52341 | 12.81222 | 134° | 88km/h | 8042m | -5.5m/s | -28.0°C | 63.6% | 371.1hPa | 2.5V | 00:00:00 | 00:00:00 | 00:00:00 | |
| OE5DRO-10 | 2026-09-03 01:09:33 | 47.52357 | 12.81198 | 134° | 88km/h | 8047m | -5.4m/s | -28.0°C | 63.7% | 370.9hPa | 2.5V | 00:00:00 | 00:00:00 | 00:00:00 | |
| OE5FHM-15 | 2026-09-03 01:09:32 | 47.52372 | 12.81173 | 134° | 88km/h | 8053m | -5.2m/s | -28.1°C | 63.9% | 370.6hPa | 2.5V | 00:00:00 | 02:40:12 | 00:00:00 | |
| OE5MMP-10 | 2026-09-03 01:09:31 | 47.52388 | 12.81149 | 134° | 89km/h | 8058m | -5.1m/s | -28.1°C | 64.0% | 370.3hPa | 2.5V | 00:00:00 | 02:40:11 | 00:00:00 | |
| OE3JTB-15 | 2026-09-03 01:09:28 | 47.52434 | 12.81076 | 134° | 88km/h | 8074m | -5.5m/s | -28.2°C | 64.5% | 369.4hPa | 2.5V | 00:00:00 | 00:00:00 | 00:00:00 | |
| OE5WHR-10 | 2026-09-03 01:09:24 | 47.52497 | 12.80978 | 134° | 88km/h | 8096m | -5.2m/s | -28.3°C | 64.4% | 368.4hPa | 2.5V | 00:00:00 | 00:00:00 | 00:00:00 | |
| OE5MMP-10 | 2026-09-03 01:09:21 | 47.52543 | 12.80906 | 134° | 88km/h | 8112m | -5.4m/s | -28.3°C | 64.8% | 367.5hPa | 2.5V | 00:00:00 | 02:40:01 | 00:00:00 | |
| OE5DRO-10 | 2026-09-03 01:09:14 | 47.52650 | 12.80743 | 134° | 88km/h | 8150m | -5.7m/s | -28.5°C | 63.3% | 365.6hPa | 2.5V | 00:00:00 | 00:00:00 | 00:00:00 | |
| OE5MMP-10 | 2026-09-03 01:09:11 | 47.52696 | 12.80672 | 134° | 88km/h | 8167m | -5.6m/s | -28.5°C | 62.8% | 364.8hPa | 2.5V | 00:00:00 | 02:39:51 | 00:00:00 | |
| OE5HKT-10 | 2026-09-03 01:09:10 | 47.52711 | 12.80648 | 135° | 88km/h | 8173m | -5.4m/s | -28.6°C | 62.9% | 364.5hPa | 2.5V | 00:00:00 | 00:00:00 | 00:00:00 | |
| BAUMI2-15 | 2026-09-03 01:09:04 | 47.52806 | 12.80508 | 136° | 88km/h | 8206m | -5.4m/s | -28.8°C | 61.3% | 362.8hPa | 2.5V | 00:00:00 | 02:39:44 | 00:00:00 | |
| OE5WHR-10 | 2026-09-03 01:09:03 | 47.52821 | 12.80485 | 135° | 88km/h | 8211m | -5.4m/s | -28.8°C | 61.4% | 362.5hPa | 2.5V | 00:00:00 | 00:00:00 | 00:00:00 | |
| OE5FHM-15 | 2026-09-03 01:09:02 | 47.52837 | 12.80462 | 136° | 88km/h | 8216m | -5.2m/s | -28.9°C | 61.7% | 362.2hPa | 2.5V | 07:55:00 | 02:39:42 | 00:00:00 | |
| OE5MMP-10 | 2026-09-03 01:09:01 | 47.52853 | 12.80438 | 135° | 86km/h | 8222m | -5.3m/s | -28.9°C | 61.8% | 362.0hPa | 2.5V | 00:00:00 | 02:39:41 | 00:00:00 | |
| OE3JTB-15 | 2026-09-03 01:08:59 | 47.52884 | 12.80392 | 136° | 88km/h | 8233m | -5.4m/s | -29.0°C | 62.1% | 361.4hPa | 2.6V | 00:00:00 | 02:39:39 | 00:00:00 | |
| OE5DRO-10 | 2026-09-03 01:08:55 | 47.52946 | 12.80302 | 136° | 88km/h | 8254m | -5.3m/s | -29.2°C | 61.9% | 360.4hPa | 2.6V | 00:00:00 | 00:00:00 | 00:00:00 | |
| BAUMI2-15 | 2026-09-03 01:08:54 | 47.52962 | 12.80279 | 137° | 88km/h | 8259m | -5.7m/s | -29.2°C | 61.9% | 360.0hPa | 2.6V | 00:00:00 | 02:39:34 | 00:00:00 | |
| DG1MFX-10 | 2026-09-03 01:08:53 | 47.52962 | 12.80279 | 137° | 88km/h | 8259m | -5.7m/s | -29.3°C | 58.5% | 360.1hPa | 2.6V | 07:56:00 | 00:00:00 | 00:00:00 | |
| OE5MMP-10 | 2026-09-03 01:08:51 | 47.53010 | 12.80212 | 138° | 88km/h | 8276m | -5.4m/s | -29.3°C | 60.9% | 359.2hPa | 2.6V | 00:00:00 | 02:39:31 | 00:00:00 | |
| BAUMI2-15 | 2026-09-03 01:08:49 | 47.53042 | 12.80167 | 137° | 88km/h | 8287m | -5.6m/s | -29.4°C | 60.9% | 358.7hPa | 2.6V | 00:00:00 | 02:39:29 | 00:00:00 | |
| OE5WHR-10 | 2026-09-03 01:08:42 | 47.53156 | 12.80009 | 137° | 88km/h | 8326m | -5.3m/s | -29.8°C | 60.0% | 356.7hPa | 2.6V | 00:00:00 | 02:39:22 | 00:00:00 | |
| OE5MMP-10 | 2026-09-03 01:08:41 | 47.53172 | 12.79986 | 137° | 89km/h | 8331m | -5.4m/s | -29.8°C | 60.2% | 356.4hPa | 2.6V | 07:55:00 | 02:39:21 | 00:00:00 | |
| BAUMI2-15 | 2026-09-03 01:08:39 | 47.53204 | 12.79941 | 137° | 88km/h | 8342m | -5.5m/s | -29.9°C | 59.4% | 355.9hPa | 2.6V | 00:00:00 | 02:39:19 | 00:00:00 | |
| OE5DRO-10 | 2026-09-03 01:08:36 | 47.53253 | 12.79874 | 138° | 88km/h | 8359m | -5.6m/s | -30.0°C | 58.3% | 355.0hPa | 2.6V | 00:00:00 | 00:00:00 | 00:00:00 | |
| BAUMI2-15 | 2026-09-03 01:08:34 | 47.53286 | 12.79829 | 138° | 89km/h | 8370m | -5.6m/s | -30.1°C | 58.3% | 354.5hPa | 2.6V | 00:00:00 | 02:39:14 | 00:00:00 | |
| DG1MFX-10 | 2026-09-03 01:08:33 | 47.53303 | 12.79807 | 139° | 89km/h | 8376m | -5.5m/s | -30.2°C | 55.0% | 354.3hPa | 2.6V | 07:56:00 | 00:00:00 | 00:00:00 | |
| OE5FHM-15 | 2026-09-03 01:08:32 | 47.53320 | 12.79784 | 138° | 89km/h | 8381m | -5.6m/s | -30.2°C | 58.5% | 354.0hPa | 2.6V | 00:00:00 | 02:39:12 | 00:00:00 | |
| OE5MMP-10 | 2026-09-03 01:08:31 | 47.53336 | 12.79762 | 138° | 88km/h | 8387m | -5.5m/s | -30.2°C | 58.7% | 353.7hPa | 2.6V | 00:00:00 | 02:39:11 | 00:00:00 | |
| OE3JTB-15 | 2026-09-03 01:08:30 | 47.53353 | 12.79740 | 139° | 89km/h | 8393m | -5.6m/s | -30.3°C | 59.0% | 353.4hPa | 2.6V | 00:00:00 | 00:00:00 | 00:00:00 | |
| BAUMI2-15 | 2026-09-03 01:08:29 | 47.53370 | 12.79717 | 139° | 89km/h | 8398m | -5.8m/s | -30.3°C | 59.0% | 353.2hPa | 2.5V | 07:56:00 | 02:39:09 | 00:00:00 | |
| OE5HKT-10 | 2026-09-03 01:08:28 | 47.53387 | 12.79695 | 139° | 89km/h | 8404m | -5.7m/s | -30.4°C | 58.9% | 352.9hPa | 2.6V | 07:56:00 | 02:39:08 | 00:00:00 | |
| BAUMI2-15 | 2026-09-03 01:08:24 | 47.53453 | 12.79606 | 138° | 88km/h | 8427m | -5.5m/s | -30.5°C | 58.4% | 351.7hPa | 2.6V | 00:00:00 | 02:39:04 | 00:00:00 | |
| OE5MMP-10 | 2026-09-03 01:08:21 | 47.53501 | 12.79540 | 137° | 89km/h | 8443m | -5.7m/s | -30.6°C | 59.1% | 350.9hPa | 2.6V | 00:00:00 | 02:39:01 | 00:00:00 | |
| BAUMI2-15 | 2026-09-03 01:08:19 | 47.53534 | 12.79495 | 137° | 89km/h | 8455m | -5.8m/s | -30.7°C | 59.3% | 350.3hPa | 2.6V | 00:00:00 | 02:38:59 | 00:00:00 | |
| OE5DRO-10 | 2026-09-03 01:08:17 | 47.53566 | 12.79449 | 137° | 91km/h | 8466m | -5.6m/s | -30.8°C | 59.8% | 349.8hPa | 2.6V | 00:00:00 | 00:00:00 | 00:00:00 | |
| BAUMI2-15 | 2026-09-03 01:08:14 | 47.53616 | 12.79381 | 138° | 91km/h | 8483m | -5.6m/s | -31.0°C | 60.2% | 348.9hPa | 2.5V | 00:00:00 | 02:38:54 | 00:00:00 | |
| DG1MFX-10 | 2026-09-03 01:08:12 | 47.53633 | 12.79358 | 139° | 91km/h | 8489m | -5.8m/s | -31.1°C | 56.9% | 348.7hPa | 2.5V | 07:57:00 | 00:00:00 | 00:00:00 | |
| OE5MMP-10 | 2026-09-03 01:08:11 | 47.53667 | 12.79312 | 138° | 91km/h | 8500m | -5.7m/s | -31.1°C | 60.6% | 348.1hPa | 2.5V | 00:00:00 | 02:38:51 | 00:00:00 | |
| BAUMI2-15 | 2026-09-03 01:08:09 | 47.53701 | 12.79266 | 138° | 91km/h | 8511m | -5.6m/s | -31.2°C | 60.6% | 347.5hPa | 2.5V | 00:00:00 | 02:38:49 | 00:00:00 | |
| OE5HKT-10 | 2026-09-03 01:08:07 | 47.53735 | 12.79219 | 138° | 93km/h | 8523m | -5.6m/s | -31.3°C | 60.8% | 347.1hPa | 2.5V | 00:00:00 | 00:00:00 | 00:00:00 | |
| BAUMI2-15 | 2026-09-03 01:08:04 | 47.53787 | 12.79150 | 138° | 91km/h | 8539m | -5.6m/s | -31.5°C | 62.4% | 346.2hPa | 2.5V | 00:00:00 | 02:38:44 | 00:00:00 | |
| OE5DXL-15 | 2026-09-03 01:08:03 | 47.53805 | 12.79127 | 139° | 97km/h | 8545m | -5.6m/s | -31.5°C | 63.1% | 345.9hPa | 2.5V | 07:56:00 | 00:00:00 | 00:00:00 | |
| OE5FHM-15 | 2026-09-03 01:08:02 | 47.53822 | 12.79104 | 139° | 97km/h | 8551m | -5.8m/s | -31.6°C | 63.6% | 345.6hPa | 2.5V | 00:00:00 | 02:38:42 | 00:00:00 | |
| OE5MMP-10 | 2026-09-03 01:08:01 | 47.53839 | 12.79081 | 139° | 93km/h | 8556m | -5.6m/s | -31.6°C | 63.9% | 345.3hPa | 2.5V | 00:00:00 | 02:38:41 | 00:00:00 | |
| OE5WHR-10 | 2026-09-03 01:08:00 | 47.53857 | 12.79058 | 139° | 95km/h | 8562m | -5.7m/s | -31.6°C | 63.8% | 345.1hPa | 2.5V | 00:00:00 | 00:00:00 | 00:00:00 | |
| BAUMI2-15 | 2026-09-03 01:07:59 | 47.53874 | 12.79036 | 139° | 93km/h | 8568m | -5.5m/s | -31.6°C | 63.5% | 344.8hPa | 2.5V | 00:00:00 | 02:38:39 | 00:00:00 | |
| OE5DRO-10 | 2026-09-03 01:07:58 | 47.53892 | 12.79013 | 139° | 95km/h | 8573m | -5.6m/s | -31.7°C | 63.4% | 344.5hPa | 2.5V | 00:00:00 | 00:00:00 | 00:00:00 | |
| BAUMI2-15 | 2026-09-03 01:07:54 | 47.53963 | 12.78921 | 139° | 95km/h | 8596m | -5.6m/s | -31.9°C | 63.7% | 343.4hPa | 2.5V | 00:00:00 | 02:38:34 | 00:00:00 | |
| OE5MMP-10 | 2026-09-03 01:07:51 | 47.54017 | 12.78851 | 140° | 97km/h | 8613m | -5.7m/s | -32.0°C | 63.4% | 342.6hPa | 2.5V | 00:00:00 | 02:38:31 | 00:00:00 | |
| BAUMI2-15 | 2026-09-03 01:07:49 | 47.54053 | 12.78804 | 139° | 97km/h | 8625m | -5.6m/s | -32.1°C | 63.9% | 342.0hPa | 2.5V | 07:56:00 | 02:38:29 | 00:00:00 | |
| OE5HKT-10 | 2026-09-03 01:07:46 | 47.54109 | 12.78733 | 139° | 99km/h | 8642m | -5.7m/s | -32.2°C | 63.6% | 341.2hPa | 2.5V | 00:00:00 | 00:00:00 | 00:00:00 | |
| BAUMI2-15 | 2026-09-03 01:07:44 | 47.54146 | 12.78685 | 139° | 97km/h | 8654m | -5.7m/s | -32.3°C | 64.7% | 340.7hPa | 2.5V | 00:00:00 | 02:38:24 | 00:00:00 | |
| PG1ADW-2 | 2026-09-03 01:07:41 | 47.54200 | 12.78611 | 138° | 100km/h | 8671m | -5.5m/s | -32.5°C | 66.2% | 339.7hPa | 2.5V | 07:56:00 | 00:00:00 | 00:00:00 | |
| BAUMI2-15 | 2026-09-03 01:07:39 | 47.54237 | 12.78561 | 137° | 99km/h | 8682m | -5.7m/s | -32.6°C | 67.1% | 339.2hPa | 2.5V | 00:00:00 | 02:38:19 | 00:00:00 | |
| BAUMI2-15 | 2026-09-03 01:07:34 | 47.54329 | 12.78434 | 138° | 100km/h | 8711m | -5.7m/s | -32.8°C | 68.8% | 337.9hPa | 2.5V | 00:00:00 | 02:38:14 | 00:00:00 | |
| OE5DXL-15 | 2026-09-03 01:07:33 | 47.54348 | 12.78409 | 138° | 104km/h | 8717m | -5.8m/s | -32.8°C | 68.8% | 337.6hPa | 2.5V | 00:00:00 | 00:00:00 | 00:00:00 | |
| OE5FHM-15 | 2026-09-03 01:07:32 | 47.54367 | 12.78384 | 138° | 104km/h | 8722m | -5.9m/s | -32.8°C | 69.0% | 337.3hPa | 2.5V | 00:00:00 | 02:38:12 | 00:00:00 | |
| OE5MMP-10 | 2026-09-03 01:07:31 | 47.54385 | 12.78359 | 138° | 102km/h | 8728m | -5.9m/s | -32.9°C | 69.4% | 337.0hPa | 2.6V | 00:00:00 | 02:38:11 | 00:00:00 | |
| BAUMI2-15 | 2026-09-03 01:07:29 | 47.54423 | 12.78308 | 138° | 102km/h | 8740m | -5.7m/s | -33.0°C | 70.1% | 336.5hPa | 2.5V | 00:00:00 | 02:38:09 | 00:00:00 | |
| OE5HKT-10 | 2026-09-03 01:07:25 | 47.54498 | 12.78206 | 138° | 106km/h | 8762m | -5.7m/s | -33.2°C | 71.2% | 335.4hPa | 2.6V | 00:00:00 | 02:38:05 | 00:00:00 | |
| BAUMI2-15 | 2026-09-03 01:07:24 | 47.54518 | 12.78180 | 138° | 104km/h | 8768m | -5.9m/s | -33.2°C | 71.5% | 335.1hPa | 2.6V | 00:00:00 | 02:38:04 | 00:00:00 | |
| OE5MMP-10 | 2026-09-03 01:07:21 | 47.54576 | 12.78101 | 138° | 106km/h | 8786m | -5.7m/s | -33.4°C | 72.4% | 334.2hPa | 2.6V | 07:57:00 | 02:38:01 | 00:00:00 | |
| OE5DRO-10 | 2026-09-03 01:07:20 | 47.54596 | 12.78074 | 138° | 106km/h | 8791m | -5.9m/s | -33.4°C | 72.7% | 334.0hPa | 2.6V | 00:00:00 | 00:00:00 | 00:00:00 | |
| BAUMI2-15 | 2026-09-03 01:07:19 | 47.54615 | 12.78048 | 138° | 104km/h | 8797m | -5.6m/s | -33.4°C | 73.2% | 333.7hPa | 2.5V | 00:00:00 | 02:37:59 | 00:00:00 | |
| BAUMI2-15 | 2026-09-03 01:07:14 | 47.54713 | 12.77915 | 138° | 106km/h | 8826m | -5.8m/s | -33.7°C | 74.5% | 332.3hPa | 2.5V | 00:00:00 | 02:37:54 | 00:00:00 | |
| DG1MFX-10 | 2026-09-03 01:07:12 | 47.54752 | 12.77862 | 138° | 106km/h | 8838m | -5.8m/s | -33.9°C | 70.5% | 331.8hPa | 2.5V | 07:57:00 | 00:00:00 | 00:00:00 | |
| OE5MMP-10 | 2026-09-03 01:07:11 | 47.54772 | 12.77835 | 138° | 106km/h | 8843m | -5.8m/s | -33.9°C | 74.8% | 331.5hPa | 2.5V | 00:00:00 | 02:37:51 | 00:00:00 | |
| BAUMI2-15 | 2026-09-03 01:07:09 | 47.54812 | 12.77782 | 138° | 108km/h | 8855m | -5.7m/s | -33.9°C | 73.7% | 330.9hPa | 2.5V | 07:57:00 | 02:37:49 | 00:00:00 | |
| OE5HKT-10 | 2026-09-03 01:07:04 | 47.54913 | 12.77651 | 140° | 111km/h | 8885m | -5.9m/s | -34.1°C | 70.9% | 329.5hPa | 2.5V | 00:00:00 | 00:00:00 | 00:00:00 | |
| OE3JTB-15 | 2026-09-03 01:07:03 | 47.54933 | 12.77625 | 139° | 110km/h | 8891m | -5.8m/s | -34.2°C | 71.0% | 329.3hPa | 2.5V | 00:00:00 | 00:00:00 | 00:00:00 | |
| OE5FHM-15 | 2026-09-03 01:07:02 | 47.54953 | 12.77598 | 139° | 110km/h | 8897m | -5.9m/s | -34.2°C | 71.4% | 329.0hPa | 2.5V | 00:00:00 | 02:37:42 | 00:00:00 | |
| OE5WHR-10 | 2026-09-03 01:06:57 | 47.55054 | 12.77462 | 138° | 110km/h | 8926m | -5.9m/s | -34.5°C | 72.5% | 327.6hPa | 2.5V | 00:00:00 | 00:00:00 | 00:00:00 | |
| OE5MMP-10 | 2026-09-03 01:06:51 | 47.55176 | 12.77297 | 138° | 110km/h | 8962m | -5.8m/s | -34.8°C | 73.8% | 326.0hPa | 2.5V | 00:00:00 | 02:37:31 | 00:00:00 | |
| OE5DRO-10 | 2026-09-03 01:06:42 | 47.55359 | 12.77043 | 136° | 113km/h | 9014m | -5.6m/s | -35.1°C | 70.4% | 323.5hPa | 2.5V | 00:00:00 | 00:00:00 | 00:00:00 | |
| OE5MMP-10 | 2026-09-03 01:06:41 | 47.55380 | 12.77014 | 136° | 111km/h | 9019m | -6.1m/s | -35.2°C | 70.2% | 323.2hPa | 2.5V | 00:00:00 | 02:37:21 | 00:00:00 | |
| OE5WHR-10 | 2026-09-03 01:06:36 | 47.55481 | 12.76868 | 136° | 113km/h | 9049m | -5.7m/s | -35.4°C | 72.7% | 321.9hPa | 2.5V | 00:00:00 | 02:37:16 | 00:00:00 | |
| OE5DXL-15 | 2026-09-03 01:06:33 | 47.55541 | 12.76780 | 135° | 113km/h | 9067m | -5.9m/s | -35.6°C | 73.6% | 321.1hPa | 2.5V | 00:00:00 | 00:00:00 | 00:00:00 | |
| OE5FHM-15 | 2026-09-03 01:06:32 | 47.55561 | 12.76750 | 135° | 113km/h | 9073m | -5.8m/s | -35.6°C | 73.5% | 320.8hPa | 2.5V | 00:00:00 | 02:37:12 | 00:00:00 | |
| DG1MFX-10 | 2026-09-03 01:06:31 | 47.55581 | 12.76720 | 136° | 111km/h | 9078m | -5.9m/s | -35.7°C | 68.7% | 320.6hPa | 2.5V | 00:00:00 | 00:00:00 | 00:00:00 | |
| OE5DRO-10 | 2026-09-03 01:06:23 | 47.55742 | 12.76479 | 135° | 115km/h | 9126m | -5.8m/s | -36.0°C | 78.0% | 318.3hPa | 2.5V | 00:00:00 | 00:00:00 | 00:00:00 | |
| OE5HKT-10 | 2026-09-03 01:06:21 | 47.55782 | 12.76418 | 135° | 115km/h | 9137m | -5.9m/s | -36.1°C | 78.0% | 317.8hPa | 2.5V | 00:00:00 | 00:00:00 | 00:00:00 | |
| OE5WHR-10 | 2026-09-03 01:06:15 | 47.55902 | 12.76235 | 135° | 115km/h | 9174m | -5.9m/s | -36.4°C | 77.4% | 316.2hPa | 2.5V | 00:00:00 | 00:00:00 | 00:00:00 | |
| OE5MMP-10 | 2026-09-03 01:06:11 | 47.55983 | 12.76113 | 135° | 115km/h | 9198m | -5.9m/s | -36.6°C | 74.9% | 315.1hPa | 2.5V | 00:00:00 | 02:36:51 | 00:00:00 | |
| DG1MFX-10 | 2026-09-03 01:06:10 | 47.55983 | 12.76113 | 136° | 115km/h | 9198m | -6.0m/s | -36.6°C | 69.9% | 315.1hPa | 2.5V | 00:00:00 | 00:00:00 | 00:00:00 | |
| OE5DRO-10 | 2026-09-03 01:06:04 | 47.56126 | 12.75898 | 135° | 117km/h | 9239m | -6.0m/s | -36.9°C | 71.0% | 313.2hPa | 2.5V | 00:00:00 | 00:00:00 | 00:00:00 | |
| OE5DXL-15 | 2026-09-03 01:06:03 | 47.56146 | 12.75867 | 135° | 117km/h | 9245m | -5.8m/s | -37.0°C | 69.9% | 312.9hPa | 2.5V | 00:00:00 | 00:00:00 | 00:00:00 | |
| OE5FHM-15 | 2026-09-03 01:06:02 | 47.56167 | 12.75837 | 135° | 117km/h | 9251m | -5.9m/s | -37.0°C | 68.6% | 312.7hPa | 2.5V | 00:00:00 | 02:36:42 | 00:00:00 | |
| OE5MMP-10 | 2026-09-03 01:06:01 | 47.56187 | 12.75806 | 135° | 117km/h | 9256m | -5.9m/s | -37.1°C | 67.9% | 312.4hPa | 2.5V | 07:58:00 | 02:36:41 | 00:00:00 | |
| OE5HKT-10 | 2026-09-03 01:05:54 | 47.56330 | 12.75590 | 135° | 117km/h | 9298m | -5.8m/s | -37.4°C | 66.8% | 310.5hPa | 2.5V | 00:00:00 | 02:36:34 | 00:00:00 | |
| OE5MMP-10 | 2026-09-03 01:05:51 | 47.56395 | 12.75497 | 137° | 119km/h | 9316m | -6.0m/s | -37.6°C | 67.2% | 309.7hPa | 2.5V | 00:00:00 | 02:36:31 | 00:00:00 | |
| OE5DRO-10 | 2026-09-03 01:05:45 | 47.56525 | 12.75314 | 137° | 117km/h | 9351m | -5.9m/s | -37.9°C | 62.3% | 308.2hPa | 2.5V | 00:00:00 | 00:00:00 | 00:00:00 | |
| DG1MFX-10 | 2026-09-03 01:05:44 | 47.56525 | 12.75314 | 138° | 117km/h | 9351m | -5.9m/s | -38.0°C | 57.7% | 308.2hPa | 2.5V | 00:00:00 | 00:00:00 | 00:00:00 | |
| OE5MMP-10 | 2026-09-03 01:05:41 | 47.56612 | 12.75195 | 138° | 117km/h | 9374m | -5.6m/s | -38.1°C | 49.1% | 307.1hPa | 2.5V | 00:00:00 | 02:36:21 | 00:00:00 | |
| OE5HKT-10 | 2026-09-03 01:05:33 | 47.56786 | 12.74960 | 139° | 115km/h | 9422m | -5.9m/s | -37.7°C | 19.8% | 305.0hPa | 2.5V | 00:00:00 | 00:00:00 | 00:00:00 | |
| OE5MMP-10 | 2026-09-03 01:05:31 | 47.56830 | 12.74903 | 139° | 115km/h | 9433m | -5.7m/s | -37.8°C | 20.1% | 304.5hPa | 2.5V | 00:00:00 | 02:36:11 | 00:00:00 | |
| OE5FHM-15 | 2026-09-03 01:05:26 | 47.56939 | 12.74761 | 139° | 117km/h | 9462m | -5.7m/s | -38.0°C | 20.1% | 303.2hPa | 2.5V | 00:00:00 | 02:36:06 | 00:00:00 | |
| DG1MFX-10 | 2026-09-03 01:05:23 | 47.56984 | 12.74705 | 140° | 115km/h | 9474m | -5.9m/s | -38.1°C | 17.9% | 302.7hPa | 2.5V | 07:59:00 | 00:00:00 | 00:00:00 | |
| OE5MMP-10 | 2026-09-03 01:05:21 | 47.57050 | 12.74620 | 140° | 115km/h | 9491m | -5.8m/s | -38.2°C | 21.0% | 301.9hPa | 2.5V | 00:00:00 | 02:36:01 | 00:00:00 | |
| OE5WHR-10 | 2026-09-03 01:05:12 | 47.57250 | 12.74372 | 141° | 117km/h | 9544m | -5.7m/s | -38.7°C | 23.7% | 299.6hPa | 2.5V | 00:00:00 | 00:00:00 | 00:00:00 | |
| OE5MMP-10 | 2026-09-03 01:05:11 | 47.57272 | 12.74345 | 141° | 115km/h | 9550m | -5.7m/s | -38.8°C | 24.2% | 299.4hPa | 2.5V | 00:00:00 | 02:35:51 | 00:00:00 | |
| OE5DRO-10 | 2026-09-03 01:05:07 | 47.57362 | 12.74236 | 142° | 119km/h | 9573m | -5.8m/s | -39.0°C | 25.7% | 298.3hPa | 2.5V | 07:59:00 | 00:00:00 | 00:00:00 | |
| OE5DXL-15 | 2026-09-03 01:05:03 | 47.57455 | 12.74129 | 142° | 120km/h | 9597m | -5.9m/s | -39.2°C | 27.8% | 297.3hPa | 2.5V | 00:00:00 | 00:00:00 | 00:00:00 | |
| DB0ND-19 | 2026-09-03 01:04:46 | 47.57863 | 12.73666 | 142° | 119km/h | 9695m | -5.8m/s | 0°C | -1.0% | -1.0hPa | 2.5V | 00:00:00 | 00:00:00 | 00:00:00 | |
| BAUMI2-15 | 2026-09-03 01:04:43 | 47.57935 | 12.73583 | 143° | 122km/h | 9712m | -6.0m/s | -40.0°C | 44.0% | 292.3hPa | 2.5V | 00:00:00 | 02:35:23 | 00:00:00 | |
| DG1MFX-10 | 2026-09-03 01:04:42 | 47.57935 | 12.73582 | 143° | 120km/h | 9712m | -6.0m/s | -40.0°C | 39.9% | 292.4hPa | 2.4V | 00:00:00 | 00:00:00 | 00:00:00 | |
| OE5MMP-10 | 2026-09-03 01:04:41 | 47.57984 | 12.73527 | 142° | 122km/h | 9724m | -5.9m/s | -40.1°C | 43.8% | 291.8hPa | 2.4V | 07:59:00 | 02:35:21 | 00:00:00 | |
| BAUMI2-15 | 2026-09-03 01:04:38 | 47.58057 | 12.73442 | 142° | 122km/h | 9742m | -5.9m/s | -40.2°C | 43.9% | 291.1hPa | 2.4V | 00:00:00 | 02:35:18 | 00:00:00 | |
| OE3JTB-15 | 2026-09-03 01:04:35 | 47.58177 | 12.73297 | 141° | 126km/h | 9771m | -5.8m/s | -40.4°C | 40.9% | 289.8hPa | 2.4V | 00:00:00 | 02:35:13 | 00:00:00 | |
| OE5DXL-15 | 2026-09-03 01:04:33 | 47.58177 | 12.73297 | 141° | 126km/h | 9771m | -5.8m/s | -40.4°C | 40.9% | 289.8hPa | 2.4V | 00:00:00 | 02:35:13 | 00:00:00 | |
| OE5WHR-10 | 2026-09-03 01:04:30 | 47.58250 | 12.73208 | 141° | 126km/h | 9789m | -5.8m/s | -40.5°C | 38.6% | 289.0hPa | 2.4V | 00:00:00 | 02:35:10 | 00:00:00 | |
| OE5DRO-10 | 2026-09-03 01:04:29 | 47.58274 | 12.73179 | 141° | 126km/h | 9795m | -5.7m/s | -40.6°C | 38.1% | 288.8hPa | 2.4V | 00:00:00 | 00:00:00 | 00:00:00 | |
| BAUMI2-15 | 2026-09-03 01:04:28 | 47.58298 | 12.73149 | 141° | 126km/h | 9801m | -5.9m/s | -40.6°C | 37.5% | 288.6hPa | 2.4V | 00:00:00 | 02:35:08 | 00:00:00 | |
| OE5FHM-15 | 2026-09-03 01:04:24 | 47.58396 | 12.73030 | 141° | 128km/h | 9824m | -6.0m/s | -40.7°C | 35.9% | 287.5hPa | 2.5V | 08:00:00 | 02:35:04 | 00:00:00 | |
| BAUMI2-15 | 2026-09-03 01:04:23 | 47.58420 | 12.72999 | 140° | 124km/h | 9830m | -5.9m/s | -40.8°C | 35.9% | 287.3hPa | 2.5V | 00:00:00 | 02:35:03 | 00:00:00 | |
| OE5MMP-10 | 2026-09-03 01:04:21 | 47.58468 | 12.72939 | 140° | 126km/h | 9842m | -5.9m/s | -40.9°C | 36.0% | 286.8hPa | 2.5V | 00:00:00 | 02:35:01 | 00:00:00 | |
| BAUMI2-15 | 2026-09-03 01:04:18 | 47.58540 | 12.72846 | 139° | 126km/h | 9859m | -6.1m/s | -41.0°C | 36.6% | 286.1hPa | 2.5V | 00:00:00 | 02:34:58 | 00:00:00 | |
| IN3HCDX | 2026-09-03 01:04:14 | 47.58635 | 12.72720 | 139° | 128km/h | 9883m | -5.7m/s | -41.3°C | 34.1% | 285.1hPa | 2.5V | 00:00:00 | 00:00:00 | 00:00:00 | |
| BAUMI2-15 | 2026-09-03 01:04:13 | 47.58659 | 12.72688 | 139° | 128km/h | 9889m | -5.8m/s | -41.3°C | 38.4% | 284.8hPa | 2.5V | 08:00:00 | 02:34:53 | 00:00:00 | |
| OE5MMP-10 | 2026-09-03 01:04:11 | 47.58708 | 12.72625 | 139° | 128km/h | 9901m | -5.7m/s | -41.3°C | 39.3% | 284.3hPa | 2.5V | 00:00:00 | 02:34:51 | 00:00:00 | |
| OE5DRO-10 | 2026-09-03 01:04:10 | 47.58732 | 12.72593 | 139° | 128km/h | 9907m | -5.9m/s | -41.4°C | 39.7% | 284.0hPa | 2.5V | 00:00:00 | 00:00:00 | 00:00:00 | |
| OE5WHR-10 | 2026-09-03 01:04:09 | 47.58756 | 12.72562 | 139° | 128km/h | 9912m | -5.9m/s | -41.4°C | 40.1% | 283.8hPa | 2.5V | 08:00:00 | 00:00:00 | 00:00:00 | |
| BAUMI2-15 | 2026-09-03 01:04:08 | 47.58780 | 12.72530 | 139° | 128km/h | 9918m | -5.6m/s | -41.5°C | 40.4% | 283.5hPa | 2.5V | 00:00:00 | 02:34:48 | 00:00:00 | |
| OE3JTB-15 | 2026-09-03 01:04:06 | 47.58876 | 12.72403 | 139° | 130km/h | 9942m | -5.9m/s | -41.7°C | 42.0% | 282.6hPa | 2.5V | 08:00:00 | 00:00:00 | 00:00:00 | |
| OE5DXL-15 | 2026-09-03 01:04:03 | 47.58900 | 12.72371 | 138° | 130km/h | 9947m | -6.0m/s | -41.7°C | 42.3% | 282.3hPa | 2.5V | 00:00:00 | 00:00:00 | 00:00:00 | |
| OE5HKT-10 | 2026-09-03 01:04:02 | 47.58925 | 12.72338 | 138° | 130km/h | 9954m | -6.1m/s | -41.8°C | 42.6% | 282.1hPa | 2.5V | 00:00:00 | 00:00:00 | 00:00:00 | |
| DB0ND-19 | 2026-09-03 01:03:44 | 47.59355 | 12.71748 | 136° | 128km/h | 10063m | -6.2m/s | 0°C | -1.0% | -1.0hPa | 2.5V | 00:00:00 | 00:00:00 | 00:00:00 | |
| BAUMI2-15 | 2026-09-03 01:03:43 | 47.59379 | 12.71715 | 137° | 130km/h | 10069m | -5.8m/s | -42.6°C | 54.7% | 277.3hPa | 2.5V | 00:00:00 | 02:34:23 | 00:00:00 | |
| OE5MMP-10 | 2026-09-03 01:03:41 | 47.59426 | 12.71648 | 137° | 130km/h | 10081m | -6.0m/s | -42.8°C | 56.0% | 276.8hPa | 2.5V | 00:00:00 | 02:34:21 | 00:00:00 | |
| BAUMI2-15 | 2026-09-03 01:03:38 | 47.59498 | 12.71547 | 138° | 130km/h | 10099m | -6.0m/s | -42.9°C | 57.9% | 276.1hPa | 2.5V | 00:00:00 | 02:34:18 | 00:00:00 | |
| OE3JTB-15 | 2026-09-03 01:03:37 | 47.59570 | 12.71448 | 137° | 128km/h | 10117m | -6.1m/s | -43.1°C | 59.6% | 275.4hPa | 2.5V | 00:00:00 | 00:00:00 | 00:00:00 | |
| BAUMI2-15 | 2026-09-03 01:03:33 | 47.59618 | 12.71382 | 137° | 128km/h | 10129m | -6.0m/s | -43.2°C | 60.9% | 274.8hPa | 2.5V | 00:00:00 | 02:34:13 | 00:00:00 | |
| OE5DRO-10 | 2026-09-03 01:03:32 | 47.59641 | 12.71348 | 136° | 128km/h | 10135m | -6.1m/s | -43.3°C | 61.3% | 274.6hPa | 2.5V | 00:00:00 | 00:00:00 | 00:00:00 | |
| OE5MMP-10 | 2026-09-03 01:03:31 | 47.59664 | 12.71315 | 136° | 130km/h | 10141m | -5.8m/s | -43.3°C | 61.7% | 274.3hPa | 2.5V | 00:00:00 | 02:34:11 | 00:00:00 | |
| BAUMI2-15 | 2026-09-03 01:03:28 | 47.59734 | 12.71214 | 136° | 130km/h | 10160m | -6.0m/s | -43.5°C | 62.4% | 273.6hPa | 2.4V | 08:01:00 | 02:34:08 | 00:00:00 | |
| OE5HKT-10 | 2026-09-03 01:03:27 | 47.59757 | 12.71180 | 136° | 128km/h | 10166m | -6.0m/s | -43.5°C | 62.7% | 273.3hPa | 2.4V | 00:00:00 | 00:00:00 | 00:00:00 | |
| IN3HCDX | 2026-09-03 01:03:26 | 47.59780 | 12.71146 | 136° | 130km/h | 10172m | -6.1m/s | -43.6°C | 57.1% | 273.1hPa | 2.4V | 08:01:00 | 00:00:00 | 00:00:00 | |
| OE5FHM-15 | 2026-09-03 01:03:25 | 47.59827 | 12.71078 | 137° | 128km/h | 10184m | -6.1m/s | -43.7°C | 63.6% | 272.6hPa | 2.4V | 00:00:00 | 02:34:04 | 00:00:00 | |
| OE8JPQ-2 | 2026-09-03 01:03:23 | 47.59851 | 12.71044 | 137° | 128km/h | 10190m | -6.2m/s | -43.8°C | 64.0% | 272.4hPa | 2.4V | 00:00:00 | 02:34:03 | 00:00:00 | |
| OE5MMP-10 | 2026-09-03 01:03:21 | 47.59898 | 12.70977 | 137° | 128km/h | 10203m | -6.4m/s | -43.9°C | 64.7% | 271.8hPa | 2.4V | 00:00:00 | 02:34:01 | 00:00:00 | |
| BAUMI2-15 | 2026-09-03 01:03:18 | 47.59969 | 12.70878 | 137° | 128km/h | 10221m | -6.1m/s | -44.0°C | 65.9% | 271.1hPa | 2.4V | 00:00:00 | 02:33:58 | 00:00:00 | |
| OE5DRO-10 | 2026-09-03 01:03:13 | 47.60086 | 12.70713 | 137° | 128km/h | 10253m | -6.0m/s | -44.3°C | 68.6% | 269.9hPa | 2.4V | 00:00:00 | 00:00:00 | 00:00:00 | |
| OE5MMP-10 | 2026-09-03 01:03:11 | 47.60133 | 12.70647 | 137° | 128km/h | 10265m | -6.0m/s | -44.4°C | 69.6% | 269.4hPa | 2.4V | 00:00:00 | 02:33:51 | 00:00:00 | |
| BAUMI2-15 | 2026-09-03 01:03:08 | 47.60204 | 12.70549 | 138° | 130km/h | 10283m | -6.0m/s | -44.6°C | 70.8% | 268.6hPa | 2.4V | 00:00:00 | 02:33:48 | 00:00:00 | |
| OE5WHR-10 | 2026-09-03 01:03:06 | 47.60252 | 12.70484 | 139° | 128km/h | 10296m | -6.3m/s | -44.7°C | 71.4% | 268.1hPa | 2.4V | 00:00:00 | 00:00:00 | 00:00:00 | |
| OE3JTB-15 | 2026-09-03 01:03:05 | 47.60300 | 12.70420 | 138° | 128km/h | 10308m | -6.3m/s | -44.8°C | 72.1% | 267.6hPa | 2.5V | 00:00:00 | 02:33:44 | 00:00:00 | |
| OE5DXL-15 | 2026-09-03 01:03:03 | 47.60324 | 12.70388 | 138° | 128km/h | 10314m | -6.0m/s | -44.9°C | 72.4% | 267.4hPa | 2.5V | 00:00:00 | 00:00:00 | 00:00:00 | |
| OE8JPQ-2 | 2026-09-03 01:03:02 | 47.60348 | 12.70356 | 138° | 128km/h | 10320m | -6.3m/s | -44.9°C | 72.6% | 267.2hPa | 2.5V | 00:00:00 | 00:00:00 | 00:00:00 | |
| OE5MMP-10 | 2026-09-03 01:03:01 | 47.60372 | 12.70324 | 138° | 128km/h | 10327m | -6.4m/s | -45.0°C | 72.9% | 266.9hPa | 2.5V | 08:01:00 | 02:33:41 | 00:00:00 | |
| IN3HCDX | 2026-09-03 01:03:00 | 47.60372 | 12.70324 | 138° | 128km/h | 10327m | -6.4m/s | -45.0°C | 66.4% | 267.0hPa | 2.5V | 00:00:00 | 00:00:00 | 00:00:00 | |
| DG1MFX-10 | 2026-09-03 01:02:57 | 47.60444 | 12.70227 | 140° | 128km/h | 10346m | -6.2m/s | -45.2°C | 67.1% | 266.2hPa | 2.5V | 08:02:00 | 00:00:00 | 00:00:00 | |
| OE5HKT-10 | 2026-09-03 01:02:56 | 47.60492 | 12.70164 | 139° | 130km/h | 10358m | -6.3m/s | -45.3°C | 74.0% | 265.7hPa | 2.5V | 00:00:00 | 02:33:36 | 00:00:00 | |
| OE5FHM-15 | 2026-09-03 01:02:54 | 47.60542 | 12.70101 | 140° | 128km/h | 10371m | -6.3m/s | -45.4°C | 74.6% | 265.1hPa | 2.5V | 00:00:00 | 02:33:34 | 00:00:00 | |
| OE5MMP-10 | 2026-09-03 01:02:51 | 47.60615 | 12.70008 | 140° | 128km/h | 10388m | -6.0m/s | -45.6°C | 74.8% | 264.4hPa | 2.5V | 00:00:00 | 02:33:31 | 00:00:00 | |
| OE5WHR-10 | 2026-09-03 01:02:45 | 47.60761 | 12.69821 | 140° | 128km/h | 10427m | -6.4m/s | -45.9°C | 74.0% | 262.9hPa | 2.5V | 00:00:00 | 00:00:00 | 00:00:00 | |
| OE5MMP-10 | 2026-09-03 01:02:41 | 47.60859 | 12.69698 | 140° | 128km/h | 10453m | -6.4m/s | -46.1°C | 73.0% | 261.9hPa | 2.5V | 00:00:00 | 02:33:21 | 00:00:00 | |
| DG1MFX-10 | 2026-09-03 01:02:37 | 47.60933 | 12.69606 | 141° | 128km/h | 10472m | -6.5m/s | -46.3°C | 64.7% | 261.2hPa | 2.5V | 08:02:00 | 00:00:00 | 00:00:00 | |
| OE3JTB-15 | 2026-09-03 01:02:36 | 47.61007 | 12.69514 | 140° | 128km/h | 10491m | -6.3m/s | -46.3°C | 70.3% | 260.4hPa | 2.5V | 00:00:00 | 00:00:00 | 00:00:00 | |
| OE5DRO-10 | 2026-09-03 01:02:35 | 47.61007 | 12.69514 | 140° | 128km/h | 10491m | -6.3m/s | -46.3°C | 70.3% | 260.4hPa | 2.5V | 08:01:00 | 00:00:00 | 00:00:00 | |
| OE5DXL-15 | 2026-09-03 01:02:33 | 47.61056 | 12.69452 | 140° | 128km/h | 10503m | -6.2m/s | -46.5°C | 69.9% | 259.9hPa | 2.5V | 08:02:00 | 00:00:00 | 00:00:00 | |
| OE5MMP-10 | 2026-09-03 01:02:31 | 47.61106 | 12.69390 | 140° | 126km/h | 10516m | -6.0m/s | -46.5°C | 69.2% | 259.4hPa | 2.4V | 00:00:00 | 02:33:11 | 00:00:00 | |
| OE5FHM-15 | 2026-09-03 01:02:24 | 47.61277 | 12.69177 | 140° | 128km/h | 10559m | -6.4m/s | -46.9°C | 68.6% | 257.7hPa | 2.5V | 00:00:00 | 02:33:04 | 00:00:00 | |
| OE5MMP-10 | 2026-09-03 01:02:21 | 47.61351 | 12.69086 | 140° | 128km/h | 10578m | -6.5m/s | -47.0°C | 68.1% | 257.0hPa | 2.5V | 00:00:00 | 02:33:01 | 00:00:00 | |
| OE5DRO-10 | 2026-09-03 01:02:16 | 47.61475 | 12.68932 | 140° | 128km/h | 10611m | -6.4m/s | -47.3°C | 67.8% | 255.7hPa | 2.5V | 00:00:00 | 00:00:00 | 00:00:00 | |
| OE5MMP-10 | 2026-09-03 01:02:11 | 47.61598 | 12.68776 | 140° | 128km/h | 10643m | -6.4m/s | -47.6°C | 67.5% | 254.5hPa | 2.5V | 00:00:00 | 02:32:51 | 00:00:00 | |
| OE3JTB-15 | 2026-09-03 01:02:07 | 47.61697 | 12.68651 | 141° | 128km/h | 10669m | -6.6m/s | -47.8°C | 67.5% | 253.4hPa | 2.5V | 00:00:00 | 00:00:00 | 00:00:00 | |
| OE5WHR-10 | 2026-09-03 01:02:03 | 47.61797 | 12.68528 | 140° | 128km/h | 10695m | -6.4m/s | -48.0°C | 66.9% | 252.5hPa | 2.5V | 00:00:00 | 00:00:00 | 00:00:00 | |
| OE5MMP-10 | 2026-09-03 01:02:01 | 47.61846 | 12.68466 | 140° | 128km/h | 10707m | -6.5m/s | -48.1°C | 65.8% | 252.0hPa | 2.5V | 00:00:00 | 02:32:41 | 00:00:00 | |
| OE8JPQ-2 | 2026-09-03 01:01:57 | 47.61945 | 12.68342 | 140° | 128km/h | 10734m | -6.7m/s | -48.3°C | 65.9% | 250.9hPa | 2.5V | 00:00:00 | 00:00:00 | 00:00:00 | |
| DG1MFX-10 | 2026-09-03 01:01:55 | 47.61969 | 12.68311 | 141° | 128km/h | 10741m | -6.6m/s | -48.4°C | 59.4% | 250.7hPa | 2.5V | 08:03:00 | 00:00:00 | 00:00:00 | |
| OE5FHM-15 | 2026-09-03 01:01:54 | 47.62019 | 12.68250 | 141° | 128km/h | 10754m | -6.5m/s | -48.5°C | 66.3% | 250.2hPa | 2.5V | 00:00:00 | 02:32:34 | 00:00:00 | |
| IN3HCDX | 2026-09-03 01:01:52 | 47.62069 | 12.68188 | 142° | 128km/h | 10767m | -6.4m/s | -48.7°C | 59.5% | 249.7hPa | 2.5V | 08:03:00 | 00:00:00 | 00:00:00 | |
| OE5MMP-10 | 2026-09-03 01:01:51 | 47.62094 | 12.68158 | 141° | 128km/h | 10773m | -6.6m/s | -48.7°C | 66.5% | 249.5hPa | 2.5V | 00:00:00 | 02:32:31 | 00:00:00 | |
| OE5WHR-10 | 2026-09-03 01:01:42 | 47.62317 | 12.67880 | 140° | 130km/h | 10832m | -6.5m/s | -49.2°C | 67.8% | 247.2hPa | 2.5V | 00:00:00 | 00:00:00 | 00:00:00 | |
| OE5MMP-10 | 2026-09-03 01:01:41 | 47.62342 | 12.67850 | 141° | 128km/h | 10838m | -6.3m/s | -49.3°C | 68.0% | 247.0hPa | 2.5V | 00:00:00 | 02:32:21 | 00:00:00 | |
| OE3JTB-15 | 2026-09-03 01:01:38 | 47.62417 | 12.67758 | 141° | 131km/h | 10857m | -6.4m/s | 0°C | 0% | 0hPa | 2.5V | 00:00:00 | 02:32:18 | 00:00:00 | |
| OE8JPQ-2 | 2026-09-03 01:01:36 | 47.62466 | 12.67697 | 141° | 131km/h | 10870m | -6.3m/s | -49.6°C | 67.2% | 245.8hPa | 2.5V | 00:00:00 | 02:32:16 | 00:00:00 | |
| DG1MFX-10 | 2026-09-03 01:01:34 | 47.62491 | 12.67667 | 141° | 128km/h | 10877m | -6.5m/s | -49.7°C | 59.8% | 245.6hPa | 2.5V | 08:03:00 | 00:00:00 | 00:00:00 | |
| OE5DXL-15 | 2026-09-03 01:01:33 | 47.62541 | 12.67606 | 141° | 133km/h | 10890m | -6.7m/s | -49.8°C | 66.6% | 245.1hPa | 2.5V | 00:00:00 | 00:00:00 | 00:00:00 | |
| OE5MMP-10 | 2026-09-03 01:01:31 | 47.62591 | 12.67544 | 140° | 131km/h | 10903m | -6.4m/s | -49.9°C | 66.7% | 244.6hPa | 2.5V | 08:03:00 | 02:32:11 | 00:00:00 | |
| OE5FHM-15 | 2026-09-03 01:01:24 | 47.62769 | 12.67328 | 142° | 135km/h | 10950m | -6.6m/s | -50.2°C | 64.9% | 242.8hPa | 2.5V | 00:00:00 | 02:32:04 | 00:00:00 | |
| OE5WHR-10 | 2026-09-03 01:01:21 | 47.62848 | 12.67236 | 142° | 135km/h | 10970m | -6.5m/s | -50.3°C | 64.1% | 242.1hPa | 2.5V | 00:00:00 | 02:32:01 | 00:00:00 | |
| IN3HCDX | 2026-09-03 01:01:20 | 47.62848 | 12.67236 | 142° | 133km/h | 10970m | -6.6m/s | -50.4°C | 56.9% | 242.2hPa | 2.5V | 00:00:00 | 00:00:00 | 00:00:00 | |
| OE5DRO-10 | 2026-09-03 01:01:19 | 47.62901 | 12.67174 | 142° | 135km/h | 10983m | -6.4m/s | -50.4°C | 63.7% | 241.6hPa | 2.5V | 00:00:00 | 00:00:00 | 00:00:00 | |
| OE8JPQ-2 | 2026-09-03 01:01:16 | 47.62982 | 12.67080 | 143° | 137km/h | 11003m | -6.6m/s | -50.5°C | 62.4% | 240.9hPa | 2.5V | 00:00:00 | 00:00:00 | 00:00:00 | |
| DG1MFX-10 | 2026-09-03 01:01:14 | 47.63010 | 12.67049 | 143° | 137km/h | 11010m | -6.6m/s | -50.6°C | 55.3% | 240.7hPa | 2.5V | 08:03:00 | 00:00:00 | 00:00:00 | |
| OE5MMP-10 | 2026-09-03 01:01:11 | 47.63120 | 12.66923 | 143° | 135km/h | 11036m | -6.4m/s | -50.6°C | 62.2% | 239.7hPa | 2.5V | 00:00:00 | 02:31:51 | 00:00:00 | |
| OE3JTB-15 | 2026-09-03 01:01:09 | 47.63174 | 12.66861 | 143° | 137km/h | 11049m | -6.8m/s | 0°C | 0% | 0hPa | 2.5V | 00:00:00 | 00:00:00 | 00:00:00 | |
| OE5DXL-15 | 2026-09-03 01:01:03 | 47.63334 | 12.66674 | 142° | 137km/h | 11089m | -6.5m/s | -51.0°C | 61.9% | 237.7hPa | 2.5V | 00:00:00 | 00:00:00 | 00:00:00 | |
| OE5MMP-10 | 2026-09-03 01:01:01 | 47.63389 | 12.66611 | 143° | 137km/h | 11102m | -6.4m/s | -51.1°C | 61.5% | 237.2hPa | 2.6V | 00:00:00 | 02:31:41 | 00:00:00 | |
| IN3HCDX | 2026-09-03 01:01:00 | 47.63416 | 12.66580 | 143° | 137km/h | 11108m | -6.5m/s | -51.2°C | 54.1% | 237.0hPa | 2.5V | 00:00:00 | 00:00:00 | 00:00:00 | |
| BAUMI2-15 | 2026-09-03 01:00:58 | 47.63471 | 12.66517 | 143° | 137km/h | 11122m | -6.9m/s | -51.2°C | 61.2% | 236.5hPa | 2.5V | 00:00:00 | 02:31:38 | 00:00:00 | |
| OE8JPQ-2 | 2026-09-03 01:00:56 | 47.63527 | 12.66455 | 143° | 137km/h | 11135m | -6.2m/s | -51.4°C | 61.1% | 236.0hPa | 2.5V | 00:00:00 | 00:00:00 | 00:00:00 | |
| OE5FHM-15 | 2026-09-03 01:00:54 | 47.63581 | 12.66392 | 143° | 137km/h | 11148m | -6.6m/s | -51.5°C | 61.0% | 235.5hPa | 2.5V | 00:00:00 | 02:31:34 | 00:00:00 | |
| BAUMI2-15 | 2026-09-03 01:00:53 | 47.63608 | 12.66361 | 143° | 137km/h | 11155m | -6.7m/s | -51.5°C | 61.3% | 235.3hPa | 2.5V | 00:00:00 | 02:31:33 | 00:00:00 | |
| OE5MMP-10 | 2026-09-03 01:00:51 | 47.63663 | 12.66298 | 143° | 137km/h | 11168m | -6.5m/s | -51.6°C | 61.5% | 234.8hPa | 2.5V | 00:00:00 | 02:31:31 | 00:00:00 | |
| BAUMI2-15 | 2026-09-03 01:00:48 | 47.63745 | 12.66205 | 143° | 137km/h | 11188m | -6.6m/s | -51.8°C | 61.8% | 234.1hPa | 2.5V | 00:00:00 | 02:31:28 | 00:00:00 | |
| BAUMI2-15 | 2026-09-03 01:00:43 | 47.63883 | 12.66051 | 143° | 137km/h | 11221m | -6.4m/s | -52.1°C | 61.7% | 232.9hPa | 2.5V | 08:03:00 | 02:31:23 | 00:00:00 | |
| OE5MMP-10 | 2026-09-03 01:00:41 | 47.63938 | 12.65989 | 143° | 137km/h | 11235m | -6.8m/s | -52.2°C | 61.6% | 232.4hPa | 2.5V | 00:00:00 | 02:31:21 | 00:00:00 | |
| OE3JTB-15 | 2026-09-03 01:00:40 | 47.63993 | 12.65927 | 144° | 137km/h | 11248m | -6.7m/s | 0°C | 0% | 0hPa | 2.5V | 00:00:00 | 00:00:00 | 00:00:00 | |
| OE5WHR-10 | 2026-09-03 01:00:39 | 47.63993 | 12.65927 | 144° | 137km/h | 11248m | -6.7m/s | -52.3°C | 61.3% | 232.0hPa | 2.5V | 00:00:00 | 00:00:00 | 00:00:00 | |
| BAUMI2-15 | 2026-09-03 01:00:38 | 47.64021 | 12.65896 | 144° | 137km/h | 11255m | -6.9m/s | -52.4°C | 61.1% | 231.7hPa | 2.5V | 00:00:00 | 02:31:18 | 00:00:00 | |
| OE8JPQ-2 | 2026-09-03 01:00:36 | 47.64076 | 12.65835 | 144° | 137km/h | 11268m | -6.7m/s | -52.4°C | 60.8% | 231.2hPa | 2.5V | 00:00:00 | 02:31:16 | 00:00:00 | |
| DG1MFX-10 | 2026-09-03 01:00:34 | 47.64132 | 12.65775 | 145° | 137km/h | 11282m | -7.0m/s | -52.6°C | 53.4% | 230.8hPa | 2.5V | 08:04:00 | 00:00:00 | 00:00:00 | |
| OE5DXL-15 | 2026-09-03 01:00:33 | 47.64160 | 12.65745 | 145° | 139km/h | 11289m | -6.5m/s | -52.6°C | 61.3% | 230.5hPa | 2.5V | 00:00:00 | 00:00:00 | 00:00:00 | |
| OE5MMP-10 | 2026-09-03 01:00:31 | 47.64217 | 12.65684 | 145° | 137km/h | 11303m | -6.8m/s | -52.7°C | 61.4% | 230.0hPa | 2.5V | 00:00:00 | 02:31:11 | 00:00:00 | |
| BAUMI2-15 | 2026-09-03 01:00:28 | 47.64301 | 12.65593 | 144° | 137km/h | 11323m | -6.7m/s | -52.9°C | 61.7% | 229.3hPa | 2.5V | 00:00:00 | 02:31:08 | 00:00:00 | |
| OE5FHM-15 | 2026-09-03 01:00:24 | 47.64412 | 12.65469 | 143° | 141km/h | 11350m | -6.4m/s | -53.1°C | 61.8% | 228.4hPa | 2.5V | 00:00:00 | 02:31:04 | 00:00:00 | |
| OE5MMP-10 | 2026-09-03 01:00:21 | 47.64495 | 12.65375 | 143° | 139km/h | 11369m | -6.6m/s | -53.3°C | 61.9% | 227.6hPa | 2.5V | 00:00:00 | 02:31:01 | 00:00:00 | |
| IN3HCDX | 2026-09-03 01:00:18 | 47.64579 | 12.65281 | 144° | 139km/h | 11389m | -6.9m/s | -53.5°C | 54.1% | 227.0hPa | 2.5V | 08:04:00 | 00:00:00 | 00:00:00 | |
| OE8JPQ-2 | 2026-09-03 01:00:17 | 47.64636 | 12.65218 | 143° | 142km/h | 11403m | -6.6m/s | -53.5°C | 61.8% | 226.5hPa | 2.5V | 08:04:00 | 00:00:00 | 00:00:00 | |
| BAUMI2-15 | 2026-09-03 01:00:13 | 47.64719 | 12.65123 | 143° | 141km/h | 11422m | -6.6m/s | -53.7°C | 62.1% | 225.7hPa | 2.5V | 00:00:00 | 02:30:53 | 00:00:00 | |
| DG1MFX-10 | 2026-09-03 01:00:12 | 47.64719 | 12.65123 | 143° | 139km/h | 11422m | -6.6m/s | -53.7°C | 54.2% | 225.8hPa | 2.5V | 08:04:00 | 00:00:00 | 00:00:00 | |
| OE5MMP-10 | 2026-09-03 01:00:11 | 47.64775 | 12.65058 | 142° | 142km/h | 11436m | -6.7m/s | -53.8°C | 62.1% | 225.3hPa | 2.5V | 00:00:00 | 02:30:51 | 00:00:00 | |
| BAUMI2-15 | 2026-09-03 01:00:08 | 47.64859 | 12.64960 | 143° | 142km/h | 11457m | -6.8m/s | -53.9°C | 62.4% | 224.6hPa | 2.5V | 00:00:00 | 02:30:48 | 00:00:00 | |
| OE5DRO-10 | 2026-09-03 01:00:03 | 47.65031 | 12.64765 | 143° | 144km/h | 11497m | -6.6m/s | -54.2°C | 62.6% | 223.2hPa | 2.5V | 00:00:00 | 00:00:00 | 00:00:00 | |
| OE5MMP-10 | 2026-09-03 01:00:01 | 47.65060 | 12.64732 | 143° | 144km/h | 11504m | -6.6m/s | -54.3°C | 62.7% | 223.0hPa | 2.5V | 08:04:00 | 02:30:41 | 00:00:00 | |
| BAUMI2-15 | 2026-09-03 00:59:58 | 47.65146 | 12.64634 | 143° | 144km/h | 11524m | -6.5m/s | -54.4°C | 62.6% | 222.2hPa | 2.5V | 08:04:00 | 02:30:38 | 00:00:00 | |
| IN3HCDX | 2026-09-03 00:59:57 | 47.65175 | 12.64602 | 144° | 144km/h | 11531m | -6.7m/s | -54.5°C | 54.4% | 222.1hPa | 2.5V | 08:04:00 | 00:00:00 | 00:00:00 | |
| OE8JPQ-2 | 2026-09-03 00:59:56 | 47.65204 | 12.64569 | 143° | 135km/h | 11537m | -6.9m/s | -54.5°C | 62.4% | 221.8hPa | 2.5V | 00:00:00 | 00:00:00 | 00:00:00 | |
| OE5FHM-15 | 2026-09-03 00:59:54 | 47.65263 | 12.64504 | 144° | 146km/h | 11551m | -6.8m/s | -54.6°C | 61.7% | 221.3hPa | 2.5V | 08:04:00 | 02:30:34 | 00:00:00 | |
| BAUMI2-15 | 2026-09-03 00:59:53 | 47.65292 | 12.64472 | 144° | 144km/h | 11558m | -6.6m/s | -54.6°C | 61.4% | 221.1hPa | 2.5V | 00:00:00 | 02:30:33 | 00:00:00 | |
| DG1MFX-10 | 2026-09-03 00:59:52 | 47.65322 | 12.64440 | 145° | 144km/h | 11564m | -6.8m/s | -54.7°C | 53.2% | 220.9hPa | 2.5V | 08:04:00 | 00:00:00 | 00:00:00 | |
| OE5MMP-10 | 2026-09-03 00:59:51 | 47.65351 | 12.64409 | 145° | 144km/h | 11571m | -6.4m/s | -54.7°C | 61.2% | 220.7hPa | 2.5V | 00:00:00 | 02:30:31 | 00:00:00 | |
| BAUMI2-15 | 2026-09-03 00:59:48 | 47.65441 | 12.64314 | 145° | 144km/h | 11591m | -6.4m/s | -54.9°C | 60.7% | 219.9hPa | 2.5V | 00:00:00 | 02:30:28 | 00:00:00 | |
| BAUMI2-15 | 2026-09-03 00:59:43 | 47.65589 | 12.64155 | 144° | 144km/h | 11624m | -6.7m/s | -55.2°C | 60.0% | 218.8hPa | 2.5V | 00:00:00 | 02:30:23 | 00:00:00 | |
| OE5MMP-10 | 2026-09-03 00:59:41 | 47.65648 | 12.64091 | 145° | 146km/h | 11638m | -6.7m/s | -55.3°C | 59.5% | 218.3hPa | 2.5V | 00:00:00 | 02:30:21 | 00:00:00 | |
| BAUMI2-15 | 2026-09-03 00:59:38 | 47.65738 | 12.63997 | 146° | 146km/h | 11659m | -6.7m/s | -55.5°C | 58.7% | 217.6hPa | 2.5V | 00:00:00 | 02:30:18 | 00:00:00 | |
| DB0UT-7 | 2026-09-03 00:59:37 | 47.65768 | 12.63966 | 146° | 150km/h | 11666m | -6.9m/s | -55.5°C | 58.3% | 217.4hPa | 2.5V | 00:00:00 | 02:30:17 | 00:00:00 | |
| OE5WHR-10 | 2026-09-03 00:59:36 | 47.65799 | 12.63936 | 147° | 148km/h | 11673m | -6.5m/s | -55.6°C | 58.2% | 217.2hPa | 2.5V | 00:00:00 | 00:00:00 | 00:00:00 | |
| IN3HCDX | 2026-09-03 00:59:35 | 47.65799 | 12.63936 | 147° | 146km/h | 11673m | -6.5m/s | -55.6°C | 50.0% | 217.2hPa | 2.5V | 08:05:00 | 00:00:00 | 00:00:00 | |
| BAUMI2-15 | 2026-09-03 00:59:33 | 47.65891 | 12.63845 | 147° | 148km/h | 11693m | -6.8m/s | -55.8°C | 57.3% | 216.5hPa | 2.5V | 00:00:00 | 02:30:13 | 00:00:00 | |
| OE5MMP-10 | 2026-09-03 00:59:31 | 47.65953 | 12.63784 | 147° | 148km/h | 11706m | -6.6m/s | -55.9°C | 57.0% | 216.0hPa | 2.5V | 00:00:00 | 02:30:11 | 00:00:00 | |
| BAUMI2-15 | 2026-09-03 00:59:28 | 47.66046 | 12.63691 | 146° | 148km/h | 11727m | -6.3m/s | -56.1°C | 56.0% | 215.3hPa | 2.5V | 00:00:00 | 02:30:08 | 00:00:00 | |
| OE5FHM-15 | 2026-09-03 00:59:24 | 47.66170 | 12.63566 | 147° | 148km/h | 11754m | -6.9m/s | -56.3°C | 54.3% | 214.4hPa | 2.5V | 00:00:00 | 02:30:04 | 00:00:00 | |
| BAUMI2-15 | 2026-09-03 00:59:23 | 47.66201 | 12.63535 | 147° | 150km/h | 11761m | -6.6m/s | -56.3°C | 53.9% | 214.2hPa | 2.5V | 00:00:00 | 02:30:03 | 00:00:00 | |
| OE5MMP-10 | 2026-09-03 00:59:21 | 47.66264 | 12.63473 | 147° | 151km/h | 11775m | -6.9m/s | -56.4°C | 53.0% | 213.7hPa | 2.5V | 00:00:00 | 02:30:01 | 00:00:00 | |
| BAUMI2-15 | 2026-09-03 00:59:18 | 47.66359 | 12.63379 | 146° | 153km/h | 11795m | -6.6m/s | -56.4°C | 52.0% | 213.0hPa | 2.5V | 00:00:00 | 02:29:58 | 00:00:00 | |
| OE5WHR-10 | 2026-09-03 00:59:15 | 47.66455 | 12.63283 | 147° | 148km/h | 11816m | -6.8m/s | -56.5°C | 51.1% | 212.3hPa | 2.5V | 00:00:00 | 02:29:55 | 00:00:00 | |
| IN3HCDX | 2026-09-03 00:59:14 | 47.66455 | 12.63283 | 147° | 153km/h | 11816m | -6.8m/s | -56.6°C | 43.2% | 212.3hPa | 2.5V | 08:05:00 | 00:00:00 | 00:00:00 | |
| BAUMI2-15 | 2026-09-03 00:59:13 | 47.66519 | 12.63219 | 146° | 151km/h | 11829m | -6.5m/s | -56.6°C | 50.4% | 211.9hPa | 2.5V | 08:05:00 | 02:29:53 | 00:00:00 | |
| OE5MMP-10 | 2026-09-03 00:59:11 | 47.66582 | 12.63155 | 146° | 148km/h | 11842m | -6.7m/s | -56.7°C | 49.4% | 211.4hPa | 2.5V | 00:00:00 | 02:29:51 | 00:00:00 | |
| DG1MFX-10 | 2026-09-03 00:59:10 | 47.66582 | 12.63155 | 146° | 151km/h | 11842m | -6.7m/s | -56.8°C | 41.6% | 211.5hPa | 2.5V | 08:05:00 | 00:00:00 | 00:00:00 | |
| BAUMI2-15 | 2026-09-03 00:59:08 | 47.66676 | 12.63059 | 145° | 148km/h | 11863m | -7.0m/s | -56.7°C | 46.2% | 210.7hPa | 2.5V | 00:00:00 | 02:29:48 | 00:00:00 | |
| OE5DRO-10 | 2026-09-03 00:59:07 | 47.66798 | 12.62932 | 145° | 139km/h | 11891m | -6.8m/s | -56.8°C | 42.9% | 209.8hPa | 2.5V | 00:00:00 | 00:00:00 | 00:00:00 | |
| OE5DXL-15 | 2026-09-03 00:59:03 | 47.66828 | 12.62900 | 145° | 137km/h | 11899m | -7.1m/s | -56.8°C | 42.2% | 209.6hPa | 2.5V | 00:00:00 | 00:00:00 | 00:00:00 | |
| PG1ADW-2 | 2026-09-03 00:59:01 | 47.66887 | 12.62838 | 145° | 139km/h | 11913m | -6.7m/s | -56.8°C | 40.5% | 209.1hPa | 2.5V | 00:00:00 | 02:29:41 | 00:00:00 | |
| OE5FHM-15 | 2026-09-03 00:58:54 | 47.67091 | 12.62618 | 143° | 133km/h | 11960m | -7.0m/s | -56.9°C | 35.4% | 207.5hPa | 2.5V | 00:00:00 | 02:29:34 | 00:00:00 | |
| OE5MMP-10 | 2026-09-03 00:58:51 | 47.67175 | 12.62522 | 142° | 135km/h | 11981m | -6.9m/s | -56.9°C | 34.4% | 206.9hPa | 2.5V | 00:00:00 | 02:29:31 | 00:00:00 | |
| DG1MFX-10 | 2026-09-03 00:58:50 | 47.67175 | 12.62522 | 143° | 139km/h | 11981m | -7.0m/s | -57.0°C | 28.0% | 206.9hPa | 2.5V | 08:06:00 | 00:00:00 | 00:00:00 | |
| OE5DRO-10 | 2026-09-03 00:58:45 | 47.67389 | 12.62268 | 142° | 131km/h | 12037m | -6.9m/s | -57.1°C | 32.1% | 205.1hPa | 2.5V | 00:00:00 | 00:00:00 | 00:00:00 | |
| OE5MMP-10 | 2026-09-03 00:58:41 | 47.67442 | 12.62206 | 141° | 131km/h | 12051m | -6.9m/s | -57.1°C | 31.5% | 204.6hPa | 2.5V | 00:00:00 | 02:29:21 | 00:00:00 | |
| OE3JTB-15 | 2026-09-03 00:58:39 | 47.67546 | 12.62082 | 142° | 128km/h | 12079m | -7.2m/s | 0°C | 0% | 0hPa | 2.5V | 00:00:00 | 02:29:17 | 00:00:00 | |
| IN3HCDX | 2026-09-03 00:58:34 | 47.67625 | 12.61992 | 144° | 131km/h | 12101m | -7.3m/s | -56.9°C | 24.0% | 203.0hPa | 2.5V | 08:06:00 | 00:00:00 | 00:00:00 | |
| OE5WHR-10 | 2026-09-03 00:58:33 | 47.67651 | 12.61962 | 143° | 128km/h | 12108m | -7.3m/s | -56.9°C | 29.9% | 202.7hPa | 2.5V | 00:00:00 | 00:00:00 | 00:00:00 | |
| OE5MMP-10 | 2026-09-03 00:58:31 | 47.67703 | 12.61903 | 143° | 128km/h | 12122m | -6.9m/s | -56.9°C | 29.9% | 202.3hPa | 2.5V | 08:06:00 | 02:29:11 | 00:00:00 | |
| DG1MFX-10 | 2026-09-03 00:58:30 | 47.67703 | 12.61903 | 144° | 130km/h | 12122m | -7.0m/s | -56.9°C | 23.9% | 202.3hPa | 2.5V | 08:06:00 | 00:00:00 | 00:00:00 | |
| OE8JPQ-2 | 2026-09-03 00:58:26 | 47.67832 | 12.61756 | 142° | 126km/h | 12158m | -6.8m/s | -57.0°C | 29.8% | 201.2hPa | 2.5V | 00:00:00 | 02:29:06 | 00:00:00 | |
| OE5FHM-15 | 2026-09-03 00:58:24 | 47.67883 | 12.61695 | 141° | 126km/h | 12172m | -7.0m/s | -57.0°C | 30.0% | 200.7hPa | 2.5V | 00:00:00 | 02:29:04 | 00:00:00 | |
| OE5MMP-10 | 2026-09-03 00:58:21 | 47.67958 | 12.61604 | 141° | 126km/h | 12193m | -7.3m/s | -57.2°C | 29.9% | 200.0hPa | 2.6V | 00:00:00 | 02:29:01 | 00:00:00 | |
| IN3HCDX | 2026-09-03 00:58:13 | 47.68153 | 12.61360 | 140° | 126km/h | 12251m | -7.2m/s | -57.6°C | 23.9% | 198.2hPa | 2.6V | 08:06:00 | 00:00:00 | 00:00:00 | |
| OE5WHR-10 | 2026-09-03 00:58:12 | 47.68177 | 12.61329 | 139° | 124km/h | 12258m | -7.2m/s | -57.6°C | 30.1% | 197.9hPa | 2.6V | 00:00:00 | 02:28:52 | 00:00:00 | |
| OE5MMP-10 | 2026-09-03 00:58:11 | 47.68201 | 12.61298 | 139° | 124km/h | 12265m | -7.1m/s | -57.6°C | 30.0% | 197.8hPa | 2.6V | 00:00:00 | 02:28:51 | 00:00:00 | |
| DG1MFX-10 | 2026-09-03 00:58:09 | 47.68225 | 12.61267 | 139° | 126km/h | 12272m | -7.1m/s | -57.7°C | 23.8% | 197.6hPa | 2.6V | 08:06:00 | 00:00:00 | 00:00:00 | |
| OE3JTB-15 | 2026-09-03 00:58:08 | 47.68318 | 12.61140 | 137° | 124km/h | 12301m | -7.0m/s | 0°C | 0% | 0hPa | 2.6V | 08:06:00 | 00:00:00 | 00:00:00 | |
| OE5DRO-10 | 2026-09-03 00:58:07 | 47.68318 | 12.61140 | 137° | 122km/h | 12301m | -7.0m/s | -57.9°C | 30.3% | 196.7hPa | 2.6V | 00:00:00 | 00:00:00 | 00:00:00 | |
| OE8JPQ-2 | 2026-09-03 00:58:06 | 47.68318 | 12.61140 | 137° | 122km/h | 12301m | -7.0m/s | -57.9°C | 30.3% | 196.7hPa | 2.6V | 00:00:00 | 00:00:00 | 00:00:00 | |
| OE5DXL-15 | 2026-09-03 00:58:03 | 47.68387 | 12.61044 | 137° | 122km/h | 12323m | -7.2m/s | -58.1°C | 30.3% | 196.0hPa | 2.5V | 08:06:00 | 00:00:00 | 00:00:00 | |
| OE5MMP-10 | 2026-09-03 00:58:01 | 47.68433 | 12.60980 | 138° | 122km/h | 12338m | -7.1m/s | -58.2°C | 30.2% | 195.5hPa | 2.5V | 00:00:00 | 02:28:41 | 00:00:00 | |
| OE5FHM-15 | 2026-09-03 00:57:54 | 47.68593 | 12.60762 | 138° | 124km/h | 12389m | -6.9m/s | -58.4°C | 29.7% | 194.0hPa | 2.5V | 00:00:00 | 02:28:34 | 00:00:00 | |
| IN3HCDX | 2026-09-03 00:57:52 | 47.68638 | 12.60701 | 139° | 122km/h | 12403m | -7.5m/s | -58.5°C | 22.9% | 193.5hPa | 2.5V | 08:07:00 | 00:00:00 | 00:00:00 | |
| OE5WHR-10 | 2026-09-03 00:57:51 | 47.68662 | 12.60670 | 138° | 122km/h | 12411m | -7.1m/s | -58.5°C | 29.3% | 193.3hPa | 2.5V | 08:06:00 | 00:00:00 | 00:00:00 | |
| DB0UT-7 | 2026-09-03 00:57:48 | 47.68730 | 12.60577 | 138° | 104km/h | 12432m | -7.6m/s | -58.3°C | 28.4% | 192.6hPa | 2.6V | 08:06:00 | 02:28:28 | 00:00:00 | |
| OE5HKT-10 | 2026-09-03 00:57:47 | 47.68753 | 12.60546 | 138° | 124km/h | 12440m | -7.1m/s | -58.3°C | 28.1% | 192.4hPa | 2.6V | 00:00:00 | 00:00:00 | 00:00:00 | |
| OE8JPQ-2 | 2026-09-03 00:57:46 | 47.68775 | 12.60515 | 137° | 124km/h | 12447m | -7.6m/s | -58.2°C | 27.8% | 192.2hPa | 2.6V | 00:00:00 | 00:00:00 | 00:00:00 | |
| OE5MMP-10 | 2026-09-03 00:57:41 | 47.68885 | 12.60358 | 137° | 124km/h | 12485m | -7.3m/s | -58.4°C | 27.1% | 191.1hPa | 2.6V | 00:00:00 | 02:28:21 | 00:00:00 | |
| OE3JTB-15 | 2026-09-03 00:57:38 | 47.68975 | 12.60230 | 137° | 110km/h | 12514m | -7.0m/s | 0°C | 0% | 0hPa | 2.6V | 00:00:00 | 00:00:00 | 00:00:00 | |
| OE5DXL-15 | 2026-09-03 00:57:33 | 47.69066 | 12.60101 | 137° | 126km/h | 12544m | -7.2m/s | -58.0°C | 24.9% | 189.2hPa | 2.6V | 00:00:00 | 00:00:00 | 00:00:00 | |
| OE5MMP-10 | 2026-09-03 00:57:31 | 47.69112 | 12.60036 | 137° | 130km/h | 12559m | -7.3m/s | -58.0°C | 24.7% | 188.8hPa | 2.6V | 00:00:00 | 02:28:11 | 00:00:00 | |
| OE5WHR-10 | 2026-09-03 00:57:30 | 47.69136 | 12.60003 | 137° | 128km/h | 12566m | -6.9m/s | -58.1°C | 24.6% | 188.6hPa | 2.5V | 00:00:00 | 00:00:00 | 00:00:00 | |
| DG1MFX-10 | 2026-09-03 00:57:28 | 47.69159 | 12.59970 | 138° | 128km/h | 12573m | -7.3m/s | -58.2°C | 18.8% | 188.4hPa | 2.5V | 08:07:00 | 00:00:00 | 00:00:00 | |
| OE8JPQ-2 | 2026-09-03 00:57:26 | 47.69231 | 12.59872 | 138° | 126km/h | 12595m | -7.2m/s | -58.2°C | 24.4% | 187.7hPa | 2.5V | 00:00:00 | 02:28:06 | 00:00:00 | |
| OE5FHM-15 | 2026-09-03 00:57:24 | 47.69280 | 12.59807 | 139° | 124km/h | 12610m | -7.0m/s | -58.3°C | 24.0% | 187.3hPa | 2.5V | 00:00:00 | 02:28:04 | 00:00:00 | |
| OE5MMP-10 | 2026-09-03 00:57:21 | 47.69355 | 12.59710 | 140° | 126km/h | 12631m | -7.1m/s | -58.4°C | 23.8% | 186.6hPa | 2.5V | 00:00:00 | 02:28:01 | 00:00:00 | |
| OE5MMP-10 | 2026-09-03 00:57:11 | 47.69595 | 12.59400 | 139° | 120km/h | 12704m | -7.2m/s | -58.6°C | 21.3% | 184.5hPa | 2.5V | 00:00:00 | 02:27:51 | 00:00:00 | |
| OE5DRO-10 | 2026-09-03 00:57:10 | 47.69642 | 12.59340 | 139° | 120km/h | 12719m | -7.3m/s | -58.6°C | 20.8% | 184.1hPa | 2.5V | 00:00:00 | 00:00:00 | 00:00:00 | |
| OE5WHR-10 | 2026-09-03 00:57:09 | 47.69642 | 12.59340 | 139° | 119km/h | 12719m | -7.3m/s | -58.6°C | 20.8% | 184.1hPa | 2.5V | 00:00:00 | 02:27:49 | 00:00:00 | |
| DG1MFX-10 | 2026-09-03 00:57:07 | 47.69664 | 12.59310 | 139° | 120km/h | 12726m | -7.0m/s | -58.6°C | 15.2% | 183.9hPa | 2.5V | 08:08:00 | 00:00:00 | 00:00:00 | |
| OE8JPQ-2 | 2026-09-03 00:57:06 | 47.69710 | 12.59250 | 138° | 119km/h | 12740m | -6.9m/s | -58.5°C | 20.0% | 183.4hPa | 2.5V | 00:00:00 | 00:00:00 | 00:00:00 | |
| OE5HKT-10 | 2026-09-03 00:57:05 | 47.69732 | 12.59219 | 138° | 84km/h | 12747m | -7.1m/s | -58.5°C | 19.7% | 183.2hPa | 2.5V | 08:07:00 | 00:00:00 | 00:00:00 | |
| BAUMI2-15 | 2026-09-03 00:57:03 | 47.69776 | 12.59158 | 137° | 122km/h | 12762m | -7.3m/s | -58.5°C | 19.1% | 182.8hPa | 2.5V | 00:00:00 | 02:27:43 | 00:00:00 | |
| OE5DXL-15 | 2026-09-03 00:57:02 | 47.69798 | 12.59127 | 137° | 115km/h | 12769m | -7.2m/s | -58.4°C | 18.7% | 182.6hPa | 2.5V | 00:00:00 | 00:00:00 | 00:00:00 | |
| OE5MMP-10 | 2026-09-03 00:57:01 | 47.69821 | 12.59095 | 137° | 120km/h | 12777m | -7.2m/s | -58.4°C | 18.6% | 182.4hPa | 2.5V | 08:07:00 | 02:27:41 | 00:00:00 | |
| BAUMI2-15 | 2026-09-03 00:56:58 | 47.69889 | 12.59001 | 138° | 120km/h | 12798m | -7.1m/s | -58.5°C | 18.3% | 181.7hPa | 2.5V | 00:00:00 | 02:27:38 | 00:00:00 | |
| OE5FHM-15 | 2026-09-03 00:56:54 | 47.69979 | 12.58880 | 139° | 111km/h | 12827m | -7.2m/s | -58.1°C | 16.5% | 180.9hPa | 2.5V | 00:00:00 | 02:27:34 | 00:00:00 | |
| BAUMI2-15 | 2026-09-03 00:56:53 | 47.70000 | 12.58851 | 138° | 113km/h | 12834m | -7.3m/s | -58.2°C | 16.3% | 180.7hPa | 2.5V | 00:00:00 | 02:27:33 | 00:00:00 | |
| OE5MMP-10 | 2026-09-03 00:56:51 | 47.70042 | 12.58793 | 137° | 113km/h | 12849m | -7.0m/s | -58.3°C | 15.8% | 180.3hPa | 2.5V | 00:00:00 | 02:27:31 | 00:00:00 | |
| OE5WHR-10 | 2026-09-03 00:56:48 | 47.70104 | 12.58705 | 136° | 111km/h | 12870m | -7.4m/s | -58.3°C | 15.0% | 179.7hPa | 2.5V | 00:00:00 | 00:00:00 | 00:00:00 | |
| DG1MFX-10 | 2026-09-03 00:56:47 | 47.70104 | 12.58705 | 137° | 113km/h | 12870m | -7.5m/s | -58.4°C | 10.3% | 179.8hPa | 2.5V | 08:08:00 | 00:00:00 | 00:00:00 | |
| OE8JPQ-2 | 2026-09-03 00:56:46 | 47.70145 | 12.58645 | 135° | 111km/h | 12885m | -7.3m/s | -58.1°C | 14.2% | 179.2hPa | 2.5V | 00:00:00 | 00:00:00 | 00:00:00 | |
| BAUMI2-15 | 2026-09-03 00:56:43 | 47.70205 | 12.58555 | 135° | 113km/h | 12907m | -7.3m/s | -57.8°C | 13.3% | 178.6hPa | 2.5V | 00:00:00 | 02:27:23 | 00:00:00 | |
| OE5MMP-10 | 2026-09-03 00:56:41 | 47.70246 | 12.58494 | 135° | 113km/h | 12922m | -7.2m/s | -57.6°C | 12.9% | 178.2hPa | 2.5V | 00:00:00 | 02:27:21 | 00:00:00 | |
| BAUMI2-15 | 2026-09-03 00:56:38 | 47.70305 | 12.58402 | 134° | 113km/h | 12944m | -7.1m/s | -57.4°C | 12.4% | 177.6hPa | 2.5V | 00:00:00 | 02:27:18 | 00:00:00 | |
| BAUMI2-15 | 2026-09-03 00:56:33 | 47.70404 | 12.58251 | 135° | 110km/h | 12979m | -7.3m/s | -57.4°C | 12.3% | 176.6hPa | 2.5V | 00:00:00 | 02:27:13 | 00:00:00 | |
| OE5DRO-10 | 2026-09-03 00:56:32 | 47.70423 | 12.58221 | 136° | 102km/h | 12987m | -7.2m/s | -57.4°C | 12.2% | 176.4hPa | 2.5V | 00:00:00 | 00:00:00 | 00:00:00 | |
| OE5MMP-10 | 2026-09-03 00:56:31 | 47.70443 | 12.58192 | 136° | 106km/h | 12994m | -7.1m/s | -57.4°C | 12.3% | 176.2hPa | 2.5V | 00:00:00 | 02:27:11 | 00:00:00 | |
| IN3HCDX | 2026-09-03 00:56:28 | 47.70501 | 12.58107 | 136° | 106km/h | 13015m | -7.0m/s | -57.5°C | 7.9% | 175.6hPa | 2.5V | 08:08:00 | 00:00:00 | 00:00:00 | |
| OE5WHR-10 | 2026-09-03 00:56:27 | 47.70520 | 12.58078 | 135° | 99km/h | 13023m | -7.5m/s | -57.3°C | 12.0% | 175.4hPa | 2.5V | 00:00:00 | 00:00:00 | 00:00:00 | |
| OE8JPQ-2 | 2026-09-03 00:56:26 | 47.70538 | 12.58050 | 135° | 99km/h | 13030m | -7.0m/s | -57.3°C | 11.9% | 175.2hPa | 2.5V | 00:00:00 | 02:27:06 | 00:00:00 | |
| OE5FHM-15 | 2026-09-03 00:56:24 | 47.70575 | 12.57994 | 134° | 99km/h | 13045m | -7.2m/s | -57.2°C | 11.7% | 174.7hPa | 2.5V | 00:00:00 | 02:27:04 | 00:00:00 | |
| BAUMI2-15 | 2026-09-03 00:56:23 | 47.70592 | 12.57967 | 134° | 100km/h | 13052m | -7.0m/s | -57.2°C | 11.7% | 174.6hPa | 2.5V | 00:00:00 | 02:27:03 | 00:00:00 | |
| OE5MMP-10 | 2026-09-03 00:56:21 | 47.70627 | 12.57912 | 133° | 97km/h | 13067m | -7.2m/s | -57.1°C | 11.4% | 174.2hPa | 2.5V | 00:00:00 | 02:27:01 | 00:00:00 | |
| BAUMI2-15 | 2026-09-03 00:56:18 | 47.70677 | 12.57830 | 131° | 95km/h | 13088m | -7.0m/s | -57.1°C | 11.3% | 173.5hPa | 2.5V | 00:00:00 | 02:26:58 | 00:00:00 | |
| BAUMI2-15 | 2026-09-03 00:56:13 | 47.70754 | 12.57691 | 129° | 97km/h | 13125m | -7.4m/s | -56.7°C | 11.0% | 172.6hPa | 2.5V | 00:00:00 | 02:26:53 | 00:00:00 | |
| OE5MMP-10 | 2026-09-03 00:56:11 | 47.70785 | 12.57635 | 130° | 99km/h | 13139m | -7.3m/s | -56.8°C | 11.1% | 172.2hPa | 2.6V | 00:00:00 | 02:26:51 | 00:00:00 | |
| BAUMI2-15 | 2026-09-03 00:56:08 | 47.70832 | 12.57550 | 129° | 99km/h | 13162m | -7.2m/s | -56.9°C | 11.2% | 171.5hPa | 2.6V | 00:00:00 | 02:26:48 | 00:00:00 | |
| IN3HCDX | 2026-09-03 00:56:07 | 47.70832 | 12.57550 | 130° | 99km/h | 13162m | -7.3m/s | -56.9°C | 7.2% | 171.6hPa | 2.6V | 08:09:00 | 00:00:00 | 00:00:00 | |
| OE8JPQ-2 | 2026-09-03 00:56:06 | 47.70862 | 12.57492 | 128° | 100km/h | 13177m | -7.5m/s | -56.9°C | 11.2% | 171.1hPa | 2.6V | 08:08:00 | 00:00:00 | 00:00:00 | |
| BAUMI2-15 | 2026-09-03 00:56:03 | 47.70907 | 12.57404 | 127° | 99km/h | 13199m | -7.4m/s | -56.8°C | 11.2% | 170.5hPa | 2.5V | 00:00:00 | 02:26:43 | 00:00:00 | |
| OE5MMP-10 | 2026-09-03 00:56:01 | 47.70936 | 12.57344 | 126° | 100km/h | 13214m | -7.3m/s | -56.7°C | 10.9% | 170.2hPa | 2.5V | 00:00:00 | 02:26:41 | 00:00:00 | |
| BAUMI2-15 | 2026-09-03 00:55:58 | 47.70980 | 12.57253 | 126° | 100km/h | 13236m | -7.7m/s | -56.7°C | 10.6% | 169.6hPa | 2.5V | 00:00:00 | 02:26:38 | 00:00:00 | |
| OE5FHM-15 | 2026-09-03 00:55:54 | 47.71038 | 12.57130 | 126° | 104km/h | 13266m | -7.5m/s | -56.7°C | 10.4% | 168.8hPa | 2.5V | 00:00:00 | 02:26:34 | 00:00:00 | |
| BAUMI2-15 | 2026-09-03 00:55:53 | 47.71053 | 12.57099 | 125° | 102km/h | 13274m | -7.4m/s | -56.8°C | 10.3% | 168.5hPa | 2.5V | 00:00:00 | 02:26:33 | 00:00:00 | |
| OE5MMP-10 | 2026-09-03 00:55:51 | 47.71083 | 12.57037 | 126° | 102km/h | 13289m | -7.2m/s | -56.9°C | 10.3% | 168.2hPa | 2.5V | 00:00:00 | 02:26:31 | 00:00:00 | |
| BAUMI2-15 | 2026-09-03 00:55:48 | 47.71127 | 12.56942 | 125° | 102km/h | 13311m | -7.5m/s | -57.0°C | 10.2% | 167.6hPa | 2.5V | 00:00:00 | 02:26:28 | 00:00:00 | |
| OE8JPQ-2 | 2026-09-03 00:55:46 | 47.71156 | 12.56878 | 124° | 104km/h | 13326m | -7.5m/s | -56.8°C | 10.0% | 167.2hPa | 2.5V | 00:00:00 | 00:00:00 | 00:00:00 | |
| OE5WHR-10 | 2026-09-03 00:55:45 | 47.71170 | 12.56847 | 124° | 106km/h | 13334m | -7.4m/s | -56.8°C | 9.9% | 166.9hPa | 2.5V | 00:00:00 | 00:00:00 | 00:00:00 | |
| BAUMI2-15 | 2026-09-03 00:55:43 | 47.71198 | 12.56783 | 123° | 102km/h | 13349m | -7.5m/s | -56.9°C | 9.9% | 166.6hPa | 2.6V | 08:08:00 | 02:26:23 | 00:00:00 | |
| OE5MMP-10 | 2026-09-03 00:55:41 | 47.71226 | 12.56718 | 122° | 104km/h | 13364m | -7.5m/s | -57.0°C | 10.0% | 166.2hPa | 2.6V | 00:00:00 | 02:26:21 | 00:00:00 | |
| BAUMI2-15 | 2026-09-03 00:55:38 | 47.71266 | 12.56620 | 121° | 106km/h | 13387m | -7.4m/s | -57.1°C | 10.0% | 165.6hPa | 2.6V | 00:00:00 | 02:26:18 | 00:00:00 | |
| OE5DRO-10 | 2026-09-03 00:55:35 | 47.71307 | 12.56518 | 121° | 110km/h | 13409m | -7.2m/s | -57.1°C | 9.7% | 165.0hPa | 2.6V | 00:00:00 | 00:00:00 | 00:00:00 | |
| BAUMI2-15 | 2026-09-03 00:55:33 | 47.71334 | 12.56449 | 121° | 108km/h | 13423m | -7.5m/s | -57.2°C | 9.7% | 164.6hPa | 2.6V | 00:00:00 | 02:26:13 | 00:00:00 | |
| OE5MMP-10 | 2026-09-03 00:55:31 | 47.71362 | 12.56381 | 122° | 110km/h | 13438m | -7.5m/s | -57.3°C | 9.7% | 164.2hPa | 2.6V | 08:09:00 | 02:26:11 | 00:00:00 | |
| BAUMI2-15 | 2026-09-03 00:55:28 | 47.71405 | 12.56277 | 122° | 110km/h | 13461m | -7.6m/s | -57.4°C | 9.6% | 163.6hPa | 2.5V | 00:00:00 | 02:26:08 | 00:00:00 | |
| OE8JPQ-2 | 2026-09-03 00:55:26 | 47.71433 | 12.56206 | 121° | 113km/h | 13476m | -7.2m/s | -57.3°C | 9.5% | 163.2hPa | 2.5V | 00:00:00 | 02:26:06 | 00:00:00 | |
| DG1MFX-10 | 2026-09-03 00:55:25 | 47.71447 | 12.56171 | 121° | 110km/h | 13483m | -7.3m/s | -57.3°C | 5.5% | 163.1hPa | 2.5V | 08:09:00 | 00:00:00 | 00:00:00 | |
| OE5WHR-10 | 2026-09-03 00:55:24 | 47.71461 | 12.56135 | 120° | 113km/h | 13491m | -7.5m/s | -57.2°C | 9.2% | 162.8hPa | 2.5V | 00:00:00 | 00:00:00 | 00:00:00 | |
| BAUMI2-15 | 2026-09-03 00:55:23 | 47.71475 | 12.56100 | 121° | 111km/h | 13498m | -7.4m/s | -57.2°C | 9.1% | 162.7hPa | 2.5V | 00:00:00 | 02:26:03 | 00:00:00 | |
| DO3MHA-11 | 2026-09-03 00:55:21 | 47.71503 | 12.56029 | 121° | 113km/h | 13513m | -7.5m/s | -57.0°C | 8.9% | 162.2hPa | 2.5V | 00:00:00 | 02:26:01 | 00:00:00 | |
| BAUMI2-15 | 2026-09-03 00:55:18 | 47.71549 | 12.55921 | 123° | 115km/h | 13536m | -7.5m/s | -57.0°C | 8.8% | 161.7hPa | 2.5V | 00:00:00 | 02:25:58 | 00:00:00 | |
| OE5DRO-10 | 2026-09-03 00:55:16 | 47.71580 | 12.55849 | 124° | 111km/h | 13551m | -7.6m/s | -57.1°C | 8.7% | 161.3hPa | 2.5V | 00:00:00 | 00:00:00 | 00:00:00 | |
| BAUMI2-15 | 2026-09-03 00:55:13 | 47.71628 | 12.55741 | 124° | 113km/h | 13574m | -7.2m/s | -57.3°C | 8.8% | 160.7hPa | 2.5V | 00:00:00 | 02:25:53 | 00:00:00 | |
| OE5MMP-10 | 2026-09-03 00:55:11 | 47.71660 | 12.55669 | 124° | 111km/h | 13590m | -7.9m/s | -57.4°C | 8.8% | 160.4hPa | 2.5V | 00:00:00 | 02:25:51 | 00:00:00 | |
| DO3MHA-11 | 2026-09-03 00:55:09 | 47.71692 | 12.55599 | 125° | 110km/h | 13605m | -7.4m/s | -57.4°C | 8.6% | 160.0hPa | 2.5V | 00:00:00 | 02:25:49 | 00:00:00 | |
| BAUMI2-15 | 2026-09-03 00:55:08 | 47.71708 | 12.55565 | 125° | 110km/h | 13613m | -7.4m/s | -57.3°C | 8.5% | 159.8hPa | 2.5V | 00:00:00 | 02:25:48 | 00:00:00 | |
| OE8JPQ-2 | 2026-09-03 00:55:06 | 47.71740 | 12.55497 | 126° | 102km/h | 13628m | -7.3m/s | -57.2°C | 8.4% | 159.4hPa | 2.5V | 00:00:00 | 00:00:00 | 00:00:00 | |
| DG1MFX-10 | 2026-09-03 00:55:04 | 47.71756 | 12.55463 | 127° | 110km/h | 13635m | -7.4m/s | -57.1°C | 4.6% | 159.2hPa | 2.5V | 08:09:00 | 00:00:00 | 00:00:00 | |
| OE5WHR-10 | 2026-09-03 00:55:03 | 47.71789 | 12.55397 | 128° | 99km/h | 13650m | -7.5m/s | -56.8°C | 7.8% | 158.8hPa | 2.5V | 00:00:00 | 02:25:43 | 00:00:00 | |
| OE5MMP-10 | 2026-09-03 00:55:01 | 47.71822 | 12.55332 | 128° | 102km/h | 13665m | -7.7m/s | -56.5°C | 7.5% | 158.4hPa | 2.5V | 00:00:00 | 02:25:41 | 00:00:00 | |
| DO3MHA-11 | 2026-09-03 00:54:59 | 47.71855 | 12.55269 | 129° | 100km/h | 13681m | -7.6m/s | -56.3°C | 7.2% | 158.0hPa | 2.5V | 00:00:00 | 02:25:39 | 00:00:00 | |
| OE5DRO-10 | 2026-09-03 00:54:57 | 47.71888 | 12.55209 | 130° | 95km/h | 13696m | -7.5m/s | -56.2°C | 7.0% | 157.7hPa | 2.6V | 00:00:00 | 00:00:00 | 00:00:00 | |
| IN3HCDX | 2026-09-03 00:54:54 | 47.71922 | 12.55150 | 132° | 102km/h | 13712m | -7.6m/s | -56.1°C | 3.6% | 157.3hPa | 2.5V | 00:00:00 | 00:00:00 | 00:00:00 | |
| OE5MMP-10 | 2026-09-03 00:54:51 | 47.71989 | 12.55038 | 132° | 93km/h | 13743m | -7.8m/s | -55.9°C | 6.6% | 156.5hPa | 2.5V | 00:00:00 | 02:25:31 | 00:00:00 | |
| DO3MHA-11 | 2026-09-03 00:54:49 | 47.72021 | 12.54984 | 132° | 86km/h | 13759m | -7.7m/s | -55.9°C | 6.6% | 156.2hPa | 2.5V | 00:00:00 | 02:25:29 | 00:00:00 | |
| OE8JPQ-2 | 2026-09-03 00:54:46 | 47.72068 | 12.54905 | 132° | 86km/h | 13782m | -7.8m/s | -55.9°C | 6.4% | 155.5hPa | 2.5V | 00:00:00 | 00:00:00 | 00:00:00 | |
| DG1MFX-10 | 2026-09-03 00:54:44 | 47.72084 | 12.54880 | 132° | 91km/h | 13790m | -8.0m/s | -55.9°C | 3.3% | 155.4hPa | 2.5V | 08:09:00 | 00:00:00 | 00:00:00 | |
| PG1ADW-2 | 2026-09-03 00:54:43 | 47.72114 | 12.54829 | 132° | 82km/h | 13805m | -7.4m/s | -55.8°C | 6.3% | 155.0hPa | 2.5V | 00:00:00 | 00:00:00 | 00:00:00 | |
| OE5WHR-10 | 2026-09-03 00:54:42 | 47.72128 | 12.54803 | 131° | 82km/h | 13813m | -7.5m/s | -55.8°C | 6.2% | 154.8hPa | 2.5V | 08:09:00 | 00:00:00 | 00:00:00 | |
| OE5MMP-10 | 2026-09-03 00:54:41 | 47.72143 | 12.54779 | 131° | 84km/h | 13821m | -7.6m/s | -55.8°C | 6.2% | 154.6hPa | 2.5V | 00:00:00 | 02:25:21 | 00:00:00 | |
| OE5DRO-10 | 2026-09-03 00:54:38 | 47.72184 | 12.54706 | 130° | 82km/h | 13844m | -7.7m/s | -55.8°C | 6.0% | 154.0hPa | 2.5V | 00:00:00 | 00:00:00 | 00:00:00 | |
| OE5DXL-15 | 2026-09-03 00:54:33 | 47.72249 | 12.54584 | 127° | 84km/h | 13884m | -7.8m/s | -56.0°C | 6.0% | 153.1hPa | 2.5V | 00:00:00 | 00:00:00 | 00:00:00 | |
| OE5MMP-10 | 2026-09-03 00:54:31 | 47.72274 | 12.54535 | 126° | 82km/h | 13900m | -7.8m/s | -56.1°C | 6.0% | 152.7hPa | 2.5V | 00:00:00 | 02:25:11 | 00:00:00 | |
| DB0UT-7 | 2026-09-03 00:54:28 | 47.72311 | 12.54460 | 126° | 68km/h | 13925m | -8.1m/s | -56.2°C | 6.0% | 152.1hPa | 2.6V | 00:00:00 | 00:00:00 | 00:00:00 | |
| OE8JPQ-2 | 2026-09-03 00:54:26 | 47.72335 | 12.54409 | 126° | 84km/h | 13941m | -8.1m/s | -56.2°C | 6.0% | 151.7hPa | 2.6V | 00:00:00 | 02:25:06 | 00:00:00 | |
| OE5FHM-15 | 2026-09-03 00:54:24 | 47.72358 | 12.54359 | 125° | 86km/h | 13957m | -8.0m/s | -56.3°C | 6.0% | 151.3hPa | 2.6V | 00:00:00 | 02:25:04 | 00:00:00 | |
| DG1MFX-10 | 2026-09-03 00:54:23 | 47.72358 | 12.54359 | 126° | 80km/h | 13957m | -8.0m/s | -56.4°C | 2.9% | 151.4hPa | 2.6V | 08:10:00 | 00:00:00 | 00:00:00 | |
| OE5WHR-10 | 2026-09-03 00:54:21 | 47.72393 | 12.54283 | 123° | 86km/h | 13982m | -8.4m/s | -56.5°C | 6.1% | 150.7hPa | 2.6V | 00:00:00 | 00:00:00 | 00:00:00 | |
| OE5DRO-10 | 2026-09-03 00:54:19 | 47.72414 | 12.54232 | 122° | 86km/h | 13999m | -8.1m/s | -56.6°C | 6.0% | 150.4hPa | 2.6V | 00:00:00 | 00:00:00 | 00:00:00 | |
| IN3HCDX | 2026-09-03 00:54:12 | 47.72477 | 12.54071 | 120° | 86km/h | 14048m | -8.2m/s | -56.9°C | 2.8% | 149.2hPa | 2.6V | 08:10:00 | 00:00:00 | 00:00:00 | |
| OE5MMP-10 | 2026-09-03 00:54:11 | 47.72498 | 12.54015 | 120° | 88km/h | 14065m | -8.1m/s | -56.9°C | 6.0% | 148.8hPa | 2.6V | 00:00:00 | 02:24:51 | 00:00:00 | |
| OE8JPQ-2 | 2026-09-03 00:54:06 | 47.72552 | 12.53872 | 120° | 93km/h | 14106m | -8.1m/s | -56.9°C | 5.9% | 147.8hPa | 2.6V | 00:00:00 | 00:00:00 | 00:00:00 | |
| PG1ADW-2 | 2026-09-03 00:54:03 | 47.72586 | 12.53786 | 122° | 93km/h | 14131m | -8.3m/s | -56.8°C | 5.9% | 147.3hPa | 2.6V | 00:00:00 | 02:24:43 | 00:00:00 | |
| OE5MMP-10 | 2026-09-03 00:54:01 | 47.72610 | 12.53729 | 122° | 93km/h | 14148m | -8.1m/s | -56.7°C | 5.9% | 146.9hPa | 2.6V | 08:10:00 | 02:24:41 | 00:00:00 | |
| OE5WHR-10 | 2026-09-03 00:54:00 | 47.72622 | 12.53699 | 121° | 91km/h | 14156m | -8.0m/s | -56.6°C | 5.9% | 146.7hPa | 2.5V | 00:00:00 | 02:24:40 | 00:00:00 | |
| OE5FHM-15 | 2026-09-03 00:53:54 | 47.72692 | 12.53518 | 121° | 88km/h | 14206m | -8.4m/s | -56.3°C | 5.7% | 145.5hPa | 2.5V | 00:00:00 | 02:24:34 | 00:00:00 | |
| OE5MMP-10 | 2026-09-03 00:53:51 | 47.72732 | 12.53427 | 125° | 91km/h | 14230m | -8.2m/s | -56.3°C | 5.7% | 145.0hPa | 2.6V | 00:00:00 | 02:24:31 | 00:00:00 | |
| OE8JPQ-2 | 2026-09-03 00:53:46 | 47.72802 | 12.53289 | 129° | 88km/h | 14272m | -8.5m/s | -56.5°C | 5.7% | 144.0hPa | 2.6V | 00:00:00 | 00:00:00 | 00:00:00 | |
| PG1ADW-2 | 2026-09-03 00:53:43 | 47.72844 | 12.53210 | 130° | 84km/h | 14297m | -8.5m/s | -56.5°C | 5.7% | 143.4hPa | 2.6V | 00:00:00 | 00:00:00 | 00:00:00 | |
| DG1MFX-10 | 2026-09-03 00:53:42 | 47.72844 | 12.53210 | 130° | 89km/h | 14297m | -8.6m/s | -56.6°C | 2.5% | 143.5hPa | 2.6V | 08:11:00 | 00:00:00 | 00:00:00 | |
| OE5MMP-10 | 2026-09-03 00:53:41 | 47.72873 | 12.53159 | 130° | 88km/h | 14314m | -8.5m/s | -56.4°C | 5.7% | 143.0hPa | 2.6V | 00:00:00 | 02:24:21 | 00:00:00 | |
| OE5WHR-10 | 2026-09-03 00:53:39 | 47.72902 | 12.53108 | 132° | 84km/h | 14331m | -8.4m/s | -56.2°C | 5.7% | 142.7hPa | 2.6V | 00:00:00 | 00:00:00 | 00:00:00 | |
| OE5DXL-15 | 2026-09-03 00:53:33 | 47.72991 | 12.52961 | 134° | 77km/h | 14383m | -8.4m/s | -55.8°C | 5.4% | 141.5hPa | 2.6V | 08:11:00 | 00:00:00 | 00:00:00 | |
| OE5MMP-10 | 2026-09-03 00:53:31 | 47.73021 | 12.52916 | 135° | 80km/h | 14399m | -8.3m/s | -55.8°C | 5.4% | 141.1hPa | 2.5V | 00:00:00 | 02:24:11 | 00:00:00 | |
| IN3HCDX | 2026-09-03 00:53:30 | 47.73021 | 12.52916 | 135° | 84km/h | 14399m | -8.3m/s | -55.9°C | 2.4% | 141.2hPa | 2.6V | 08:11:00 | 00:00:00 | 00:00:00 | |
| OE8JPQ-2 | 2026-09-03 00:53:26 | 47.73094 | 12.52808 | 138° | 77km/h | 14442m | -8.5m/s | -55.5°C | 5.3% | 140.2hPa | 2.6V | 00:00:00 | 02:24:06 | 00:00:00 | |
| OE5FHM-15 | 2026-09-03 00:53:24 | 47.73124 | 12.52768 | 138° | 71km/h | 14459m | -8.6m/s | -55.3°C | 5.2% | 139.8hPa | 2.6V | 00:00:00 | 02:24:04 | 00:00:00 | |
| OE5DRO-10 | 2026-09-03 00:53:22 | 47.73154 | 12.52727 | 138° | 75km/h | 14476m | -8.5m/s | -55.3°C | 5.2% | 139.4hPa | 2.6V | 00:00:00 | 00:00:00 | 00:00:00 | |
| OE5MMP-10 | 2026-09-03 00:53:21 | 47.73169 | 12.52707 | 138° | 77km/h | 14485m | -8.6m/s | -55.3°C | 5.2% | 139.3hPa | 2.6V | 00:00:00 | 02:24:01 | 00:00:00 | |
| OE5WHR-10 | 2026-09-03 00:53:18 | 47.73214 | 12.52646 | 138° | 69km/h | 14511m | -8.6m/s | -55.4°C | 5.2% | 138.7hPa | 2.6V | 00:00:00 | 00:00:00 | 00:00:00 | |
| DO3MHA-11 | 2026-09-03 00:53:14 | 47.73271 | 12.52569 | 140° | 71km/h | 14545m | -8.1m/s | -55.6°C | 5.3% | 137.9hPa | 2.6V | 00:00:00 | 02:23:54 | 00:00:00 | |
| OE5MMP-10 | 2026-09-03 00:53:11 | 47.73314 | 12.52517 | 141° | 69km/h | 14569m | -7.8m/s | -55.8°C | 5.3% | 137.4hPa | 2.6V | 00:00:00 | 02:23:51 | 00:00:00 | |
| IN3HCDX | 2026-09-03 00:53:10 | 47.73314 | 12.52517 | 142° | 71km/h | 14569m | -7.9m/s | -55.8°C | 2.3% | 137.5hPa | 2.6V | 08:11:00 | 00:00:00 | 00:00:00 | |
| OE5HKT-10 | 2026-09-03 00:53:06 | 47.73382 | 12.52434 | 142° | 60km/h | 14612m | -8.3m/s | -56.1°C | 5.4% | 136.5hPa | 2.6V | 00:00:00 | 00:00:00 | 00:00:00 | |
| DO3MHA-11 | 2026-09-03 00:53:04 | 47.73409 | 12.52403 | 142° | 64km/h | 14628m | -8.6m/s | -56.3°C | 5.5% | 136.2hPa | 2.6V | 08:11:00 | 02:23:44 | 00:00:00 | |
| OE5DXL-15 | 2026-09-03 00:53:03 | 47.73422 | 12.52387 | 142° | 55km/h | 14637m | -8.6m/s | -56.3°C | 5.5% | 136.0hPa | 2.5V | 00:00:00 | 00:00:00 | 00:00:00 | |
| OE5MMP-10 | 2026-09-03 00:53:01 | 47.73447 | 12.52356 | 141° | 60km/h | 14654m | -8.6m/s | -56.3°C | 5.4% | 135.6hPa | 2.5V | 00:00:00 | 02:23:41 | 00:00:00 | |
| DG1MFX-10 | 2026-09-03 00:53:00 | 47.73447 | 12.52356 | 142° | 64km/h | 14654m | -8.6m/s | -56.4°C | 2.4% | 135.7hPa | 2.6V | 08:11:00 | 00:00:00 | 00:00:00 | |
| BAUMI2-15 | 2026-09-03 00:52:58 | 47.73485 | 12.52310 | 141° | 60km/h | 14679m | -8.4m/s | -56.5°C | 5.5% | 135.1hPa | 2.6V | 08:11:00 | 02:23:38 | 00:00:00 | |
| OE5WHR-10 | 2026-09-03 00:52:57 | 47.73497 | 12.52295 | 140° | 51km/h | 14688m | -8.5m/s | -56.6°C | 5.5% | 134.9hPa | 2.6V | 00:00:00 | 02:23:37 | 00:00:00 | |
| OE5FHM-15 | 2026-09-03 00:52:54 | 47.73531 | 12.52251 | 140° | 47km/h | 14714m | -8.7m/s | -56.7°C | 5.5% | 134.3hPa | 2.6V | 00:00:00 | 02:23:34 | 00:00:00 | |
| BAUMI2-15 | 2026-09-03 00:52:53 | 47.73542 | 12.52237 | 140° | 55km/h | 14722m | -8.6m/s | -56.7°C | 5.5% | 134.2hPa | 2.6V | 00:00:00 | 02:23:33 | 00:00:00 | |
| OE5MMP-10 | 2026-09-03 00:52:51 | 47.73563 | 12.52210 | 139° | 51km/h | 14740m | -8.9m/s | -56.8°C | 5.5% | 133.8hPa | 2.6V | 00:00:00 | 02:23:31 | 00:00:00 | |
| IN3HCDX | 2026-09-03 00:52:49 | 47.73574 | 12.52196 | 139° | 55km/h | 14749m | -8.6m/s | -56.9°C | 2.4% | 133.7hPa | 2.6V | 08:12:00 | 00:00:00 | 00:00:00 | |
| BAUMI2-15 | 2026-09-03 00:52:48 | 47.73594 | 12.52169 | 138° | 51km/h | 14766m | -8.7m/s | -57.0°C | 5.6% | 133.2hPa | 2.6V | 00:00:00 | 02:23:28 | 00:00:00 | |
| OE8JPQ-2 | 2026-09-03 00:52:46 | 47.73613 | 12.52144 | 138° | 46km/h | 14784m | -8.9m/s | -57.0°C | 5.6% | 132.9hPa | 2.6V | 00:00:00 | 00:00:00 | 00:00:00 | |
| OE5HKT-10 | 2026-09-03 00:52:45 | 47.73622 | 12.52131 | 136° | 46km/h | 14793m | -8.3m/s | -57.0°C | 5.6% | 132.7hPa | 2.6V | 00:00:00 | 02:23:25 | 00:00:00 | |
| OE5DRO-10 | 2026-09-03 00:52:44 | 47.73631 | 12.52118 | 137° | 46km/h | 14802m | -8.5m/s | -57.0°C | 5.6% | 132.5hPa | 2.6V | 00:00:00 | 00:00:00 | 00:00:00 | |
| BAUMI2-15 | 2026-09-03 00:52:43 | 47.73640 | 12.52106 | 137° | 47km/h | 14810m | -8.7m/s | -57.0°C | 5.6% | 132.4hPa | 2.6V | 00:00:00 | 02:23:23 | 00:00:00 | |
| PG1ADW-2 | 2026-09-03 00:52:42 | 47.73648 | 12.52093 | 136° | 46km/h | 14819m | -8.7m/s | -57.0°C | 5.6% | 132.1hPa | 2.6V | 00:00:00 | 02:23:22 | 00:00:00 | |
| DG1MFX-10 | 2026-09-03 00:52:41 | 47.73656 | 12.52081 | 135° | 46km/h | 14828m | -8.8m/s | -57.1°C | 2.5% | 132.0hPa | 2.6V | 08:12:00 | 00:00:00 | 00:00:00 | |
| BAUMI2-15 | 2026-09-03 00:52:38 | 47.73680 | 12.52043 | 133° | 46km/h | 14855m | -8.7m/s | -57.1°C | 5.5% | 131.4hPa | 2.6V | 00:00:00 | 02:23:18 | 00:00:00 | |
| OE5WHR-10 | 2026-09-03 00:52:36 | 47.73695 | 12.52018 | 131° | 46km/h | 14873m | -8.6m/s | -57.2°C | 5.6% | 131.1hPa | 2.6V | 00:00:00 | 00:00:00 | 00:00:00 | |
| OE5DXL-15 | 2026-09-03 00:52:33 | 47.73717 | 12.51979 | 130° | 49km/h | 14899m | -8.5m/s | -57.4°C | 5.6% | 130.5hPa | 2.6V | 00:00:00 | 00:00:00 | 00:00:00 | |
| OE5MMP-10 | 2026-09-03 00:52:31 | 47.73731 | 12.51953 | 129° | 46km/h | 14917m | -8.5m/s | -57.6°C | 5.7% | 130.1hPa | 2.6V | 08:12:00 | 02:23:11 | 00:00:00 | |
| BAUMI2-15 | 2026-09-03 00:52:28 | 47.73752 | 12.51914 | 128° | 46km/h | 14943m | -8.4m/s | -57.8°C | 5.7% | 129.6hPa | 2.5V | 00:00:00 | 02:23:08 | 00:00:00 | |
| OE8JPQ-2 | 2026-09-03 00:52:26 | 47.73766 | 12.51887 | 126° | 49km/h | 14960m | -8.5m/s | -57.9°C | 5.7% | 129.2hPa | 2.5V | 00:00:00 | 02:23:06 | 00:00:00 | |
| OE5DRO-10 | 2026-09-03 00:52:25 | 47.73772 | 12.51873 | 123° | 49km/h | 14969m | -8.6m/s | -57.9°C | 5.7% | 129.1hPa | 2.5V | 00:00:00 | 00:00:00 | 00:00:00 | |
| OE5FHM-15 | 2026-09-03 00:52:24 | 47.73778 | 12.51858 | 123° | 51km/h | 14978m | -8.9m/s | -58.0°C | 5.8% | 128.9hPa | 2.5V | 00:00:00 | 02:23:04 | 00:00:00 | |
| BAUMI2-15 | 2026-09-03 00:52:23 | 47.73784 | 12.51844 | 122° | 47km/h | 14986m | -8.8m/s | -58.0°C | 5.7% | 128.7hPa | 2.5V | 00:00:00 | 02:23:03 | 00:00:00 | |
| OE5MMP-10 | 2026-09-03 00:52:21 | 47.73795 | 12.51814 | 118° | 51km/h | 15004m | -8.8m/s | -58.1°C | 5.7% | 128.4hPa | 2.5V | 00:00:00 | 02:23:01 | 00:00:00 | |
| DG1MFX-10 | 2026-09-03 00:52:19 | 47.73801 | 12.51798 | 119° | 49km/h | 15013m | -9.0m/s | -58.3°C | 2.4% | 128.2hPa | 2.5V | 08:12:00 | 00:00:00 | 00:00:00 | |
| BAUMI2-15 | 2026-09-03 00:52:18 | 47.73813 | 12.51765 | 118° | 53km/h | 15031m | -8.4m/s | -58.4°C | 5.8% | 127.8hPa | 2.5V | 00:00:00 | 02:22:58 | 00:00:00 | |
| OE5WHR-10 | 2026-09-03 00:52:15 | 47.73830 | 12.51713 | 118° | 53km/h | 15057m | -8.9m/s | -58.5°C | 5.8% | 127.3hPa | 2.5V | 00:00:00 | 00:00:00 | 00:00:00 | |
| BAUMI2-15 | 2026-09-03 00:52:13 | 47.73843 | 12.51678 | 118° | 51km/h | 15076m | -8.8m/s | -58.5°C | 5.8% | 126.9hPa | 2.5V | 08:12:00 | 02:22:53 | 00:00:00 | |
| DH7VM-15 | 2026-09-03 00:52:12 | 47.73843 | 12.51678 | 118° | 51km/h | 15076m | -8.8m/s | 0°C | 0% | 0hPa | 2.5V | 00:00:00 | 00:00:00 | 00:00:00 | |
| OE5MMP-10 | 2026-09-03 00:52:11 | 47.73855 | 12.51644 | 117° | 51km/h | 15093m | -8.7m/s | -58.6°C | 5.9% | 126.5hPa | 2.5V | 00:00:00 | 02:22:51 | 00:00:00 | |
| IN3HCDX | 2026-09-03 00:52:08 | 47.73871 | 12.51592 | 115° | 51km/h | 15120m | -8.6m/s | -58.8°C | 2.4% | 126.1hPa | 2.5V | 08:12:00 | 00:00:00 | 00:00:00 | |
| OE8JPQ-2 | 2026-09-03 00:52:06 | 47.73880 | 12.51557 | 113° | 57km/h | 15138m | -9.0m/s | -58.6°C | 5.9% | 125.7hPa | 2.5V | 00:00:00 | 00:00:00 | 00:00:00 | |
| OE5MMP-10 | 2026-09-03 00:52:01 | 47.73905 | 12.51469 | 116° | 57km/h | 15183m | -8.5m/s | -58.5°C | 5.8% | 124.8hPa | 2.5V | 00:00:00 | 02:22:41 | 00:00:00 | |
| BAUMI2-15 | 2026-09-03 00:51:58 | 47.73922 | 12.51414 | 117° | 57km/h | 15209m | -8.4m/s | -58.5°C | 5.7% | 124.3hPa | 2.6V | 00:00:00 | 02:22:38 | 00:00:00 | |
| OE5FHM-15 | 2026-09-03 00:51:54 | 47.73945 | 12.51336 | 114° | 75km/h | 15244m | -8.6m/s | -58.5°C | 5.6% | 123.5hPa | 2.5V | 00:00:00 | 02:22:34 | 00:00:00 | |
| BAUMI2-15 | 2026-09-03 00:51:53 | 47.73951 | 12.51316 | 113° | 60km/h | 15252m | -8.4m/s | -58.6°C | 5.7% | 123.4hPa | 2.5V | 00:00:00 | 02:22:33 | 00:00:00 | |
| OE5MMP-10 | 2026-09-03 00:51:51 | 47.73963 | 12.51274 | 114° | 66km/h | 15270m | -8.7m/s | -58.6°C | 5.7% | 123.0hPa | 2.5V | 00:00:00 | 02:22:31 | 00:00:00 | |
| BAUMI2-15 | 2026-09-03 00:51:48 | 47.73982 | 12.51210 | 114° | 66km/h | 15296m | -8.8m/s | -58.7°C | 5.8% | 122.6hPa | 2.5V | 00:00:00 | 02:22:28 | 00:00:00 | |
| OE5DRO-10 | 2026-09-03 00:51:47 | 47.73989 | 12.51188 | 114° | 77km/h | 15305m | -8.5m/s | -58.8°C | 5.7% | 122.4hPa | 2.5V | 00:00:00 | 00:00:00 | 00:00:00 | |
| OE8JPQ-2 | 2026-09-03 00:51:46 | 47.73995 | 12.51166 | 115° | 77km/h | 15314m | -8.4m/s | -58.8°C | 5.8% | 122.2hPa | 2.5V | 00:00:00 | 00:00:00 | 00:00:00 | |
| BAUMI2-15 | 2026-09-03 00:51:43 | 47.74017 | 12.51096 | 115° | 73km/h | 15340m | -8.7m/s | -58.8°C | 5.7% | 121.6hPa | 2.5V | 00:00:00 | 02:22:23 | 00:00:00 | |
| OE5MMP-10 | 2026-09-03 00:51:41 | 47.74032 | 12.51047 | 115° | 77km/h | 15358m | -8.5m/s | -58.8°C | 5.7% | 121.3hPa | 2.5V | 00:00:00 | 02:22:21 | 00:00:00 | |
| DG1MFX-10 | 2026-09-03 00:51:39 | 47.74048 | 12.50997 | 115° | 75km/h | 15375m | -8.4m/s | -59.0°C | 2.3% | 121.1hPa | 2.5V | 08:13:00 | 00:00:00 | 00:00:00 | |
| OE5WHR-10 | 2026-09-03 00:51:33 | 47.74097 | 12.50840 | 116° | 84km/h | 15427m | -8.6m/s | -59.0°C | 5.9% | 120.0hPa | 2.5V | 08:13:00 | 00:00:00 | 00:00:00 | |
| OE5MMP-10 | 2026-09-03 00:51:31 | 47.74116 | 12.50784 | 117° | 88km/h | 15445m | -8.3m/s | -58.9°C | 5.8% | 119.6hPa | 2.6V | 00:00:00 | 02:22:11 | 00:00:00 | |
| BAUMI2-15 | 2026-09-03 00:51:28 | 47.74145 | 12.50698 | 118° | 89km/h | 15471m | -8.9m/s | -58.7°C | 5.8% | 119.2hPa | 2.5V | 08:13:00 | 02:22:08 | 00:00:00 | |
| OE8JPQ-2 | 2026-09-03 00:51:26 | 47.74166 | 12.50640 | 120° | 80km/h | 15489m | -8.6m/s | -58.8°C | 5.8% | 118.8hPa | 2.5V | 00:00:00 | 02:22:06 | 00:00:00 | |
| IN3HCDX | 2026-09-03 00:51:25 | 47.74166 | 12.50640 | 121° | 89km/h | 15489m | -8.6m/s | -58.8°C | 2.1% | 118.8hPa | 2.5V | 08:13:00 | 00:00:00 | 00:00:00 | |
| OE5FHM-15 | 2026-09-03 00:51:24 | 47.74189 | 12.50582 | 121° | 75km/h | 15507m | -8.5m/s | -58.7°C | 5.9% | 118.5hPa | 2.5V | 00:00:00 | 02:22:04 | 00:00:00 | |
| BAUMI2-15 | 2026-09-03 00:51:23 | 47.74201 | 12.50553 | 124° | 86km/h | 15516m | -8.8m/s | -58.6°C | 5.8% | 118.3hPa | 2.5V | 00:00:00 | 02:22:03 | 00:00:00 | |
| OE5HKT-10 | 2026-09-03 00:51:21 | 47.74226 | 12.50499 | 125° | 82km/h | 15533m | -8.8m/s | -58.4°C | 5.7% | 118.0hPa | 2.5V | 00:00:00 | 00:00:00 | 00:00:00 | |
| BAUMI2-15 | 2026-09-03 00:51:18 | 47.74262 | 12.50422 | 126° | 78km/h | 15560m | -8.4m/s | -58.2°C | 5.5% | 117.5hPa | 2.5V | 00:00:00 | 02:21:58 | 00:00:00 | |
| DG1MFX-10 | 2026-09-03 00:51:17 | 47.74262 | 12.50422 | 127° | 80km/h | 15560m | -8.5m/s | -58.2°C | 2.0% | 117.6hPa | 2.5V | 08:13:00 | 00:00:00 | 00:00:00 | |
| BAUMI2-15 | 2026-09-03 00:51:13 | 47.74322 | 12.50306 | 130° | 75km/h | 15606m | -8.9m/s | -57.5°C | 5.2% | 116.6hPa | 2.5V | 00:00:00 | 02:21:53 | 00:00:00 | |
| OE5WHR-10 | 2026-09-03 00:51:12 | 47.74334 | 12.50285 | 130° | 68km/h | 15616m | -8.8m/s | -57.4°C | 5.1% | 116.5hPa | 2.5V | 00:00:00 | 00:00:00 | 00:00:00 | |
| OE5MMP-10 | 2026-09-03 00:51:11 | 47.74346 | 12.50264 | 131° | 71km/h | 15625m | -9.2m/s | -57.3°C | 5.1% | 116.3hPa | 2.5V | 00:00:00 | 02:21:51 | 00:00:00 | |
| BAUMI2-15 | 2026-09-03 00:51:08 | 47.74384 | 12.50203 | 136° | 68km/h | 15652m | -8.9m/s | -57.0°C | 5.0% | 115.8hPa | 2.5V | 00:00:00 | 02:21:48 | 00:00:00 | |
| OE8JPQ-2 | 2026-09-03 00:51:06 | 47.74410 | 12.50164 | 137° | 66km/h | 15670m | -8.9m/s | -57.0°C | 4.9% | 115.5hPa | 2.5V | 00:00:00 | 00:00:00 | 00:00:00 | |
| IN3HCDX | 2026-09-03 00:51:04 | 47.74424 | 12.50146 | 139° | 71km/h | 15679m | -9.1m/s | -57.0°C | 1.8% | 115.3hPa | 2.6V | 08:14:00 | 00:00:00 | 00:00:00 | |
| DB0UT-7 | 2026-09-03 00:51:03 | 47.74450 | 12.50112 | 140° | 58km/h | 15697m | -8.9m/s | -56.9°C | 4.9% | 115.0hPa | 2.6V | 00:00:00 | 02:21:43 | 00:00:00 | |
| OE5MMP-10 | 2026-09-03 00:51:01 | 47.74476 | 12.50080 | 140° | 64km/h | 15716m | -9.4m/s | -56.9°C | 4.9% | 114.6hPa | 2.5V | 08:13:00 | 02:21:41 | 00:00:00 | |
| DG1MFX-10 | 2026-09-03 00:50:56 | 47.74523 | 12.50016 | 137° | 62km/h | 15754m | -8.8m/s | -56.8°C | 1.7% | 114.0hPa | 2.5V | 08:14:00 | 00:00:00 | 00:00:00 | |
| OE5FHM-15 | 2026-09-03 00:50:54 | 47.74558 | 12.49965 | 135° | 58km/h | 15779m | -8.9m/s | -56.9°C | 5.0% | 113.5hPa | 2.5V | 08:13:00 | 02:21:34 | 00:00:00 | |
| OE5MMP-10 | 2026-09-03 00:50:51 | 47.74592 | 12.49913 | 136° | 60km/h | 15807m | -9.3m/s | -56.9°C | 5.0% | 113.0hPa | 2.6V | 00:00:00 | 02:21:31 | 00:00:00 | |
| DO3MHA-11 | 2026-09-03 00:50:47 | 47.74638 | 12.49846 | 136° | 42km/h | 15846m | -9.3m/s | -57.0°C | 5.0% | 112.3hPa | 2.6V | 00:00:00 | 02:21:27 | 00:00:00 | |
| OE8JPQ-2 | 2026-09-03 00:50:46 | 47.74649 | 12.49830 | 138° | 53km/h | 15855m | -9.4m/s | -56.9°C | 5.0% | 112.1hPa | 2.6V | 00:00:00 | 00:00:00 | 00:00:00 | |
| IN3HCDX | 2026-09-03 00:50:44 | 47.74671 | 12.49800 | 139° | 58km/h | 15874m | -9.3m/s | -56.5°C | 1.7% | 111.8hPa | 2.6V | 08:14:00 | 00:00:00 | 00:00:00 | |
| PG1ADW-2 | 2026-09-03 00:50:43 | 47.74682 | 12.49785 | 138° | 53km/h | 15883m | -9.2m/s | -56.3°C | 4.8% | 111.6hPa | 2.6V | 00:00:00 | 00:00:00 | 00:00:00 | |
| OE5MMP-10 | 2026-09-03 00:50:41 | 47.74704 | 12.49758 | 140° | 51km/h | 15902m | -9.5m/s | -56.0°C | 4.6% | 111.3hPa | 2.6V | 00:00:00 | 02:21:21 | 00:00:00 | |
| DG1MFX-10 | 2026-09-03 00:50:36 | 47.74745 | 12.49709 | 142° | 51km/h | 15941m | -9.8m/s | -56.0°C | 1.6% | 110.7hPa | 2.6V | 08:14:00 | 00:00:00 | 00:00:00 | |
| OE5DXL-15 | 2026-09-03 00:50:33 | 47.74793 | 12.49645 | 135° | 57km/h | 15991m | -9.8m/s | -56.1°C | 4.8% | 109.7hPa | 2.6V | 00:00:00 | 00:00:00 | 00:00:00 | |
| OE5MMP-10 | 2026-09-03 00:50:31 | 47.74802 | 12.49631 | 133° | 53km/h | 16001m | -9.8m/s | -56.1°C | 4.8% | 109.6hPa | 2.6V | 00:00:00 | 02:21:11 | 00:00:00 | |
| OE5WHR-10 | 2026-09-03 00:50:30 | 47.74810 | 12.49617 | 132° | 55km/h | 16011m | -9.8m/s | -56.2°C | 4.7% | 109.4hPa | 2.5V | 00:00:00 | 00:00:00 | 00:00:00 | |
| OE8JPQ-2 | 2026-09-03 00:50:26 | 47.74844 | 12.49554 | 128° | 57km/h | 16051m | -9.7m/s | -56.2°C | 4.8% | 108.7hPa | 2.5V | 00:00:00 | 02:21:06 | 00:00:00 | |
| PG1ADW-2 | 2026-09-03 00:50:23 | 47.74868 | 12.49505 | 125° | 57km/h | 16080m | -10.0m/s | -56.3°C | 5.0% | 108.2hPa | 2.5V | 00:00:00 | 00:00:00 | 00:00:00 | |
| OE5MMP-10 | 2026-09-03 00:50:21 | 47.74882 | 12.49471 | 122° | 57km/h | 16100m | -10.1m/s | -55.9°C | 4.8% | 107.8hPa | 2.5V | 00:00:00 | 02:21:01 | 00:00:00 | |
| DG1MFX-10 | 2026-09-03 00:50:15 | 47.74918 | 12.49377 | 119° | 58km/h | 16151m | -9.9m/s | -55.4°C | 1.6% | 107.1hPa | 2.5V | 08:14:00 | 00:00:00 | 00:00:00 | |
| OE5MMP-10 | 2026-09-03 00:50:11 | 47.74950 | 12.49283 | 118° | 58km/h | 16202m | -10.1m/s | -54.8°C | 4.5% | 106.1hPa | 2.5V | 00:00:00 | 02:20:51 | 00:00:00 | |
| OE5WHR-10 | 2026-09-03 00:50:09 | 47.74964 | 12.49246 | 118° | 57km/h | 16223m | -10.3m/s | -54.5°C | 4.4% | 105.8hPa | 2.5V | 00:00:00 | 00:00:00 | 00:00:00 | |
| OE8JPQ-2 | 2026-09-03 00:50:06 | 47.74984 | 12.49188 | 117° | 57km/h | 16254m | -9.9m/s | -53.9°C | 4.1% | 105.3hPa | 2.5V | 08:14:00 | 00:00:00 | 00:00:00 | |
| PG1ADW-2 | 2026-09-03 00:50:03 | 47.75005 | 12.49129 | 119° | 55km/h | 16285m | -10.1m/s | -53.8°C | 4.1% | 104.8hPa | 2.5V | 08:14:00 | 02:20:43 | 00:00:00 | |
| OE5MMP-10 | 2026-09-03 00:50:01 | 47.75021 | 12.49090 | 122° | 57km/h | 16306m | -10.4m/s | -53.9°C | 4.1% | 104.4hPa | 2.6V | 00:00:00 | 02:20:41 | 00:00:00 | |
| IN3HCDX | 2026-09-03 00:50:00 | 47.75021 | 12.49090 | 123° | 58km/h | 16306m | -10.4m/s | -53.9°C | 1.3% | 104.5hPa | 2.5V | 08:14:00 | 00:00:00 | 00:00:00 | |
| DG1MFX-10 | 2026-09-03 00:49:55 | 47.75064 | 12.48982 | 119° | 55km/h | 16369m | -10.5m/s | -54.1°C | 1.4% | 103.5hPa | 2.5V | 08:14:00 | 00:00:00 | 00:00:00 | |
| OE5MMP-10 | 2026-09-03 00:49:51 | 47.75089 | 12.48908 | 116° | 53km/h | 16412m | -10.4m/s | -54.0°C | 4.1% | 102.8hPa | 2.5V | 00:00:00 | 02:20:31 | 00:00:00 | |
| OE5WHR-10 | 2026-09-03 00:49:48 | 47.75108 | 12.48854 | 118° | 47km/h | 16444m | -10.8m/s | -53.9°C | 4.1% | 102.2hPa | 2.5V | 00:00:00 | 02:20:28 | 00:00:00 | |
| OE8JPQ-2 | 2026-09-03 00:49:46 | 47.75121 | 12.48819 | 121° | 47km/h | 16465m | -10.6m/s | -54.1°C | 4.1% | 101.9hPa | 2.5V | 00:00:00 | 00:00:00 | 00:00:00 | |
| OE5FHM-15 | 2026-09-03 00:49:44 | 47.75134 | 12.48785 | 122° | 47km/h | 16486m | -10.5m/s | -54.1°C | 4.2% | 101.5hPa | 2.5V | 00:00:00 | 02:20:24 | 00:00:00 | |
| PG1ADW-2 | 2026-09-03 00:49:43 | 47.75141 | 12.48769 | 124° | 46km/h | 16497m | -10.6m/s | -54.0°C | 4.1% | 101.4hPa | 2.5V | 00:00:00 | 00:00:00 | 00:00:00 | |
| OE5MMP-10 | 2026-09-03 00:49:41 | 47.75155 | 12.48737 | 123° | 47km/h | 16518m | -11.0m/s | -54.0°C | 4.1% | 101.0hPa | 2.5V | 00:00:00 | 02:20:21 | 00:00:00 | |
| OE5DXL-15 | 2026-09-03 00:49:33 | 47.75204 | 12.48614 | 119° | 44km/h | 16607m | -11.1m/s | -54.2°C | 4.2% | 99.7hPa | 2.5V | 00:00:00 | 00:00:00 | 00:00:00 | |
| OE5MMP-10 | 2026-09-03 00:49:31 | 47.75213 | 12.48585 | 113° | 42km/h | 16629m | -10.3m/s | -54.1°C | 4.1% | 99.3hPa | 2.5V | 08:15:00 | 02:20:11 | 00:00:00 | |
| DB0UT-7 | 2026-09-03 00:49:28 | 47.75223 | 12.48542 | 108° | 38km/h | 16662m | -10.8m/s | -54.2°C | 4.1% | 98.8hPa | 2.6V | 00:00:00 | 02:20:08 | 00:00:00 | |
| OE5WHR-10 | 2026-09-03 00:49:27 | 47.75227 | 12.48527 | 110° | 44km/h | 16673m | -10.8m/s | -54.3°C | 4.1% | 98.6hPa | 2.6V | 00:00:00 | 00:00:00 | 00:00:00 | |
| OE8JPQ-2 | 2026-09-03 00:49:26 | 47.75230 | 12.48512 | 110° | 44km/h | 16684m | -10.9m/s | -54.4°C | 4.2% | 98.5hPa | 2.6V | 00:00:00 | 02:20:06 | 00:00:00 | |
| PG1ADW-2 | 2026-09-03 00:49:23 | 47.75242 | 12.48466 | 114° | 46km/h | 16717m | -10.9m/s | -54.6°C | 4.3% | 98.0hPa | 2.6V | 00:00:00 | 00:00:00 | 00:00:00 | |
| OE5MMP-10 | 2026-09-03 00:49:21 | 47.75251 | 12.48434 | 113° | 42km/h | 16739m | -11.2m/s | -54.6°C | 4.3% | 97.6hPa | 2.6V | 00:00:00 | 02:20:01 | 00:00:00 | |
| IN3HCDX | 2026-09-03 00:49:18 | 47.75260 | 12.48404 | 114° | 42km/h | 16761m | -11.2m/s | -54.7°C | 1.4% | 97.4hPa | 2.6V | 00:00:00 | 00:00:00 | 00:00:00 | |
| DG1MFX-10 | 2026-09-03 00:49:12 | 47.75282 | 12.48317 | 109° | 44km/h | 16828m | -11.1m/s | -54.8°C | 1.4% | 96.3hPa | 2.6V | 08:15:00 | 00:00:00 | 00:00:00 | |
| OE5MMP-10 | 2026-09-03 00:49:11 | 47.75288 | 12.48285 | 107° | 49km/h | 16851m | -11.0m/s | -54.8°C | 4.3% | 95.9hPa | 2.6V | 00:00:00 | 02:19:51 | 00:00:00 | |
| OE5WHR-10 | 2026-09-03 00:49:06 | 47.75304 | 12.48196 | 105° | 46km/h | 16907m | -11.4m/s | -54.9°C | 4.4% | 95.1hPa | 2.6V | 00:00:00 | 00:00:00 | 00:00:00 | |
| OE5DRO-10 | 2026-09-03 00:49:05 | 47.75314 | 12.48143 | 109° | 44km/h | 16941m | -11.3m/s | -54.9°C | 4.3% | 94.6hPa | 2.6V | 00:00:00 | 00:00:00 | 00:00:00 | |
| PG1ADW-2 | 2026-09-03 00:49:03 | 47.75314 | 12.48143 | 109° | 44km/h | 16941m | -11.3m/s | -54.9°C | 4.3% | 94.6hPa | 2.6V | 00:00:00 | 00:00:00 | 00:00:00 | |
| BAUMI2-15 | 2026-09-03 00:49:02 | 47.75318 | 12.48126 | 110° | 47km/h | 16952m | -11.3m/s | -54.9°C | 4.3% | 94.4hPa | 2.5V | 00:00:00 | 02:19:42 | 00:00:00 | |
| OE5MMP-10 | 2026-09-03 00:49:01 | 47.75321 | 12.48109 | 111° | 46km/h | 16964m | -11.3m/s | -54.9°C | 4.3% | 94.2hPa | 2.5V | 00:00:00 | 02:19:41 | 00:00:00 | |
| IN3HCDX | 2026-09-03 00:48:58 | 47.75335 | 12.48060 | 115° | 47km/h | 16998m | -11.2m/s | -55.0°C | 1.4% | 93.8hPa | 2.6V | 00:00:00 | 00:00:00 | 00:00:00 | |
| BAUMI2-15 | 2026-09-03 00:48:57 | 47.75340 | 12.48045 | 117° | 46km/h | 17009m | -11.3m/s | -54.9°C | 4.3% | 93.6hPa | 2.6V | 00:00:00 | 02:19:37 | 00:00:00 | |
| BAUMI2-15 | 2026-09-03 00:48:52 | 47.75366 | 12.47969 | 118° | 42km/h | 17067m | -11.3m/s | -54.9°C | 4.3% | 92.7hPa | 2.6V | 00:00:00 | 02:19:32 | 00:00:00 | |
| OE5FHM-15 | 2026-09-03 00:48:50 | 47.75376 | 12.47940 | 115° | 37km/h | 17090m | -11.2m/s | -54.9°C | 4.3% | 92.4hPa | 2.6V | 00:00:00 | 02:19:30 | 00:00:00 | |
| BAUMI2-15 | 2026-09-03 00:48:47 | 47.75389 | 12.47901 | 117° | 37km/h | 17124m | -11.3m/s | -54.9°C | 4.3% | 91.9hPa | 2.6V | 00:00:00 | 02:19:27 | 00:00:00 | |
| OE8JPQ-2 | 2026-09-03 00:48:46 | 47.75393 | 12.47888 | 113° | 35km/h | 17135m | -11.0m/s | -54.8°C | 4.3% | 91.7hPa | 2.6V | 00:00:00 | 00:00:00 | 00:00:00 | |
| OE5WHR-10 | 2026-09-03 00:48:45 | 47.75397 | 12.47874 | 113° | 35km/h | 17147m | -11.3m/s | -54.8°C | 4.2% | 91.6hPa | 2.6V | 00:00:00 | 02:19:25 | 00:00:00 | |
| PG1ADW-2 | 2026-09-03 00:48:43 | 47.75403 | 12.47849 | 113° | 35km/h | 17169m | -11.4m/s | -54.8°C | 4.2% | 91.3hPa | 2.6V | 00:00:00 | 02:19:23 | 00:00:00 | |
| BAUMI2-15 | 2026-09-03 00:48:42 | 47.75406 | 12.47836 | 109° | 35km/h | 17181m | -11.2m/s | -54.9°C | 4.2% | 91.1hPa | 2.6V | 08:15:00 | 02:19:22 | 00:00:00 | |
| OE5MMP-10 | 2026-09-03 00:48:41 | 47.75409 | 12.47824 | 109° | 33km/h | 17192m | -11.3m/s | -54.9°C | 4.2% | 90.9hPa | 2.5V | 00:00:00 | 02:19:21 | 00:00:00 | |
| BAUMI2-15 | 2026-09-03 00:48:37 | 47.75420 | 12.47775 | 107° | 33km/h | 17238m | -11.4m/s | -55.1°C | 4.2% | 90.3hPa | 2.5V | 00:00:00 | 02:19:17 | 00:00:00 | |
| IN3HCDX | 2026-09-03 00:48:36 | 47.75420 | 12.47775 | 107° | 35km/h | 17238m | -11.5m/s | -55.1°C | 1.3% | 90.3hPa | 2.5V | 08:16:00 | 00:00:00 | 00:00:00 | |
| OE5DXL-15 | 2026-09-03 00:48:33 | 47.75428 | 12.47727 | 101° | 42km/h | 17284m | -11.3m/s | -55.2°C | 4.3% | 89.7hPa | 2.5V | 00:00:00 | 00:00:00 | 00:00:00 | |
| BAUMI2-15 | 2026-09-03 00:48:32 | 47.75430 | 12.47716 | 99° | 33km/h | 17296m | -11.3m/s | -55.3°C | 4.3% | 89.5hPa | 2.5V | 00:00:00 | 02:19:12 | 00:00:00 | |
| OE5MMP-10 | 2026-09-03 00:48:31 | 47.75430 | 12.47704 | 96° | 37km/h | 17307m | -11.5m/s | -55.4°C | 4.3% | 89.3hPa | 2.5V | 00:00:00 | 02:19:11 | 00:00:00 | |
| BAUMI2-15 | 2026-09-03 00:48:27 | 47.75431 | 12.47654 | 88° | 38km/h | 17353m | -11.3m/s | -55.7°C | 4.5% | 88.7hPa | 2.6V | 00:00:00 | 02:19:07 | 00:00:00 | |
| OE8JPQ-2 | 2026-09-03 00:48:26 | 47.75430 | 12.47640 | 86° | 44km/h | 17365m | -11.1m/s | -55.8°C | 4.5% | 88.5hPa | 2.5V | 00:00:00 | 02:19:06 | 00:00:00 | |
| OE5WHR-10 | 2026-09-03 00:48:24 | 47.75429 | 12.47612 | 86° | 46km/h | 17388m | -11.6m/s | -55.8°C | 4.5% | 88.2hPa | 2.5V | 08:16:00 | 00:00:00 | 00:00:00 | |
| PG1ADW-2 | 2026-09-03 00:48:23 | 47.75428 | 12.47597 | 85° | 46km/h | 17400m | -11.6m/s | -55.8°C | 4.6% | 88.0hPa | 2.6V | 00:00:00 | 00:00:00 | 00:00:00 | |
| BAUMI2-15 | 2026-09-03 00:48:22 | 47.75427 | 12.47582 | 84° | 40km/h | 17411m | -11.4m/s | -55.8°C | 4.5% | 87.9hPa | 2.6V | 00:00:00 | 02:19:02 | 00:00:00 | |
| OE5MMP-10 | 2026-09-03 00:48:21 | 47.75426 | 12.47567 | 85° | 44km/h | 17423m | -11.5m/s | -55.8°C | 4.5% | 87.7hPa | 2.6V | 00:00:00 | 02:19:01 | 00:00:00 | |
| OE5FHM-15 | 2026-09-03 00:48:20 | 47.75425 | 12.47552 | 83° | 47km/h | 17435m | -11.2m/s | -55.8°C | 4.5% | 87.5hPa | 2.6V | 00:00:00 | 02:19:00 | 00:00:00 | |
| BAUMI2-15 | 2026-09-03 00:48:17 | 47.75422 | 12.47506 | 87° | 44km/h | 17469m | -11.5m/s | -55.9°C | 4.5% | 87.1hPa | 2.5V | 00:00:00 | 02:18:57 | 00:00:00 | |
| IN3HCDX | 2026-09-03 00:48:16 | 47.75421 | 12.47490 | 88° | 42km/h | 17481m | -11.5m/s | -55.9°C | 1.5% | 87.0hPa | 2.5V | 08:16:00 | 00:00:00 | 00:00:00 | |
| BAUMI2-15 | 2026-09-03 00:48:12 | 47.75421 | 12.47423 | 94° | 49km/h | 17528m | -11.5m/s | -55.8°C | 4.5% | 86.3hPa | 2.5V | 00:00:00 | 02:18:52 | 00:00:00 | |
| OE5MMP-10 | 2026-09-03 00:48:11 | 47.75422 | 12.47405 | 95° | 51km/h | 17540m | -11.7m/s | -55.9°C | 4.6% | 86.1hPa | 2.6V | 00:00:00 | 02:18:51 | 00:00:00 | |
| BAUMI2-15 | 2026-09-03 00:48:07 | 47.75428 | 12.47330 | 99° | 53km/h | 17586m | -11.4m/s | -56.1°C | 4.7% | 85.5hPa | 2.6V | 00:00:00 | 02:18:47 | 00:00:00 | |
| OE8JPQ-2 | 2026-09-03 00:48:06 | 47.75430 | 12.47310 | 97° | 49km/h | 17598m | -11.3m/s | -56.1°C | 4.7% | 85.3hPa | 2.6V | 00:00:00 | 00:00:00 | 00:00:00 | |
| OE5WHR-10 | 2026-09-03 00:48:03 | 47.75436 | 12.47252 | 101° | 46km/h | 17633m | -11.5m/s | -55.7°C | 4.6% | 84.9hPa | 2.5V | 00:00:00 | 00:00:00 | 00:00:00 | |
| BAUMI2-15 | 2026-09-03 00:48:02 | 47.75438 | 12.47234 | 102° | 49km/h | 17644m | -11.6m/s | -55.5°C | 4.6% | 84.7hPa | 2.5V | 00:00:00 | 02:18:42 | 00:00:00 | |
| OE5MMP-10 | 2026-09-03 00:48:01 | 47.75441 | 12.47216 | 104° | 49km/h | 17656m | -11.7m/s | -55.3°C | 4.5% | 84.6hPa | 2.5V | 08:16:00 | 02:18:41 | 00:00:00 | |
| BAUMI2-15 | 2026-09-03 00:47:57 | 47.75454 | 12.47145 | 107° | 51km/h | 17703m | -11.6m/s | -55.0°C | 4.4% | 83.9hPa | 2.5V | 08:16:00 | 02:18:37 | 00:00:00 | |
| IN3HCDX | 2026-09-03 00:47:54 | 47.75462 | 12.47108 | 113° | 51km/h | 17727m | -11.8m/s | -54.8°C | 1.3% | 83.7hPa | 2.5V | 08:16:00 | 00:00:00 | 00:00:00 | |
| BAUMI2-15 | 2026-09-03 00:47:52 | 47.75479 | 12.47057 | 119° | 44km/h | 17763m | -11.5m/s | -54.8°C | 4.2% | 83.2hPa | 2.5V | 00:00:00 | 02:18:32 | 00:00:00 | |
| OE5MMP-10 | 2026-09-03 00:47:51 | 47.75485 | 12.47041 | 119° | 40km/h | 17774m | -11.2m/s | -54.9°C | 4.3% | 83.0hPa | 2.5V | 00:00:00 | 02:18:31 | 00:00:00 | |
| OE5FHM-15 | 2026-09-03 00:47:50 | 47.75490 | 12.47026 | 123° | 33km/h | 17786m | -11.2m/s | -55.0°C | 4.3% | 82.9hPa | 2.5V | 00:00:00 | 02:18:30 | 00:00:00 | |
| BAUMI2-15 | 2026-09-03 00:47:47 | 47.75508 | 12.46988 | 126° | 37km/h | 17820m | -11.7m/s | -55.0°C | 4.3% | 82.4hPa | 2.5V | 00:00:00 | 02:18:27 | 00:00:00 | |
| OE8JPQ-2 | 2026-09-03 00:47:46 | 47.75514 | 12.46976 | 126° | 35km/h | 17832m | -11.6m/s | -54.8°C | 4.2% | 82.3hPa | 2.5V | 00:00:00 | 00:00:00 | 00:00:00 | |
| PG1ADW-2 | 2026-09-03 00:47:43 | 47.75530 | 12.46943 | 126° | 33km/h | 17867m | -11.4m/s | -54.7°C | 4.2% | 81.8hPa | 2.5V | 00:00:00 | 00:00:00 | 00:00:00 | |
| OE5WHR-10 | 2026-09-03 00:47:42 | 47.75535 | 12.46932 | 121° | 31km/h | 17879m | -11.6m/s | -54.7°C | 4.2% | 81.7hPa | 2.5V | 00:00:00 | 02:18:22 | 00:00:00 | |
| OE5MMP-10 | 2026-09-03 00:47:41 | 47.75540 | 12.46921 | 119° | 37km/h | 17890m | -11.7m/s | -54.7°C | 4.2% | 81.5hPa | 2.5V | 00:00:00 | 02:18:21 | 00:00:00 | |
| BAUMI2-15 | 2026-09-03 00:47:37 | 47.75556 | 12.46870 | 114° | 37km/h | 17937m | -11.6m/s | -54.7°C | 4.1% | 80.9hPa | 2.5V | 00:00:00 | 02:18:17 | 00:00:00 | |
| OE5DXL-15 | 2026-09-03 00:47:33 | 47.75571 | 12.46820 | 113° | 27km/h | 17984m | -11.7m/s | -55.0°C | 4.2% | 80.3hPa | 2.5V | 00:00:00 | 00:00:00 | 00:00:00 | |
| BAUMI2-15 | 2026-09-03 00:47:32 | 47.75574 | 12.46809 | 113° | 29km/h | 17996m | -11.7m/s | -55.0°C | 4.2% | 80.2hPa | 2.6V | 00:00:00 | 02:18:12 | 00:00:00 | |
| OE5MMP-10 | 2026-09-03 00:47:31 | 47.75577 | 12.46798 | 112° | 27km/h | 18008m | -12.0m/s | -55.1°C | 4.2% | 80.0hPa | 2.6V | 00:00:00 | 02:18:11 | 00:00:00 | |
| BAUMI2-15 | 2026-09-03 00:47:27 | 47.75586 | 12.46759 | 108° | 26km/h | 18056m | -11.7m/s | -55.1°C | 4.2% | 79.4hPa | 2.5V | 00:00:00 | 02:18:07 | 00:00:00 | |
| OE8JPQ-2 | 2026-09-03 00:47:26 | 47.75587 | 12.46749 | 106° | 27km/h | 18068m | -11.7m/s | -55.0°C | 4.2% | 79.3hPa | 2.5V | 00:00:00 | 02:18:06 | 00:00:00 | |
| BAUMI2-15 | 2026-09-03 00:47:22 | 47.75595 | 12.46712 | 107° | 26km/h | 18115m | -12.0m/s | -55.0°C | 4.2% | 78.7hPa | 2.5V | 00:00:00 | 02:18:02 | 00:00:00 | |
| OE5MMP-10 | 2026-09-03 00:47:21 | 47.75597 | 12.46703 | 111° | 27km/h | 18127m | -12.1m/s | -55.0°C | 4.2% | 78.5hPa | 2.5V | 00:00:00 | 02:18:01 | 00:00:00 | |
| OE5FHM-15 | 2026-09-03 00:47:20 | 47.75599 | 12.46694 | 111° | 31km/h | 18140m | -12.1m/s | -55.1°C | 4.3% | 78.4hPa | 2.5V | 00:00:00 | 02:18:00 | 00:00:00 | |
| BAUMI2-15 | 2026-09-03 00:47:17 | 47.75608 | 12.46667 | 120° | 27km/h | 18176m | -12.1m/s | -55.2°C | 4.3% | 77.9hPa | 2.5V | 00:00:00 | 02:17:57 | 00:00:00 | |
| BAUMI2-15 | 2026-09-03 00:47:12 | 47.75626 | 12.46623 | 120° | 26km/h | 18237m | -12.0m/s | -55.5°C | 4.4% | 77.2hPa | 2.5V | 08:17:00 | 02:17:52 | 00:00:00 | |
| OE5MMP-10 | 2026-09-03 00:47:11 | 47.75630 | 12.46615 | 119° | 29km/h | 18249m | -12.1m/s | -55.6°C | 4.4% | 77.0hPa | 2.5V | 00:00:00 | 02:17:51 | 00:00:00 | |
| DG1MFX-10 | 2026-09-03 00:47:09 | 47.75636 | 12.46598 | 116° | 27km/h | 18274m | -12.4m/s | -55.9°C | 1.4% | 76.8hPa | 2.5V | 08:17:00 | 00:00:00 | 00:00:00 | |
| BAUMI2-15 | 2026-09-03 00:47:07 | 47.75641 | 12.46579 | 112° | 27km/h | 18299m | -12.1m/s | -55.8°C | 4.6% | 76.5hPa | 2.5V | 00:00:00 | 02:17:47 | 00:00:00 | |
| OE8JPQ-2 | 2026-09-03 00:47:06 | 47.75644 | 12.46569 | 113° | 37km/h | 18311m | -12.4m/s | -55.6°C | 4.5% | 76.3hPa | 2.5V | 08:17:00 | 00:00:00 | 00:00:00 | |
| OE5HKT-10 | 2026-09-03 00:47:02 | 47.75655 | 12.46527 | 109° | 37km/h | 18361m | -12.5m/s | -55.0°C | 4.2% | 75.7hPa | 2.5V | 00:00:00 | 02:17:42 | 00:00:00 | |
| OE5MMP-10 | 2026-09-03 00:47:01 | 47.75657 | 12.46516 | 109° | 38km/h | 18374m | -12.7m/s | -55.0°C | 4.3% | 75.6hPa | 2.5V | 00:00:00 | 02:17:41 | 00:00:00 | |
| OE5WHR-10 | 2026-09-03 00:47:00 | 47.75660 | 12.46504 | 106° | 37km/h | 18386m | -12.6m/s | -55.1°C | 4.3% | 75.4hPa | 2.5V | 00:00:00 | 00:00:00 | 00:00:00 | |
| OE5MMP-10 | 2026-09-03 00:46:52 | 47.75677 | 12.46376 | 107° | 37km/h | 18502m | -12.9m/s | -55.4°C | 4.5% | 74.0hPa | 2.5V | 00:00:00 | 02:17:31 | 00:00:00 | |
| OE5FHM-15 | 2026-09-03 00:46:50 | 47.75680 | 12.46361 | 108° | 33km/h | 18515m | -12.7m/s | -55.5°C | 4.5% | 73.9hPa | 2.5V | 00:00:00 | 02:17:30 | 00:00:00 | |
| DG1MFX-10 | 2026-09-03 00:46:48 | 47.75684 | 12.46347 | 111° | 38km/h | 18528m | -13.1m/s | -55.6°C | 1.4% | 73.8hPa | 2.5V | 08:18:00 | 00:00:00 | 00:00:00 | |
| OE8JPQ-2 | 2026-09-03 00:46:46 | 47.75696 | 12.46309 | 118° | 33km/h | 18567m | -12.7m/s | -55.6°C | 4.6% | 73.3hPa | 2.5V | 00:00:00 | 00:00:00 | 00:00:00 | |
| OE5MMP-10 | 2026-09-03 00:46:41 | 47.75717 | 12.46253 | 122° | 31km/h | 18632m | -12.9m/s | -54.8°C | 4.4% | 72.6hPa | 2.5V | 00:00:00 | 02:17:21 | 00:00:00 | |
| OE5WHR-10 | 2026-09-03 00:46:39 | 47.75725 | 12.46232 | 120° | 29km/h | 18659m | -13.0m/s | -54.6°C | 4.3% | 72.3hPa | 2.5V | 00:00:00 | 02:17:19 | 00:00:00 | |
| OE5DXL-15 | 2026-09-03 00:46:33 | 47.75748 | 12.46171 | 119° | 31km/h | 18738m | -13.1m/s | -54.3°C | 4.2% | 71.4hPa | 2.5V | 00:00:00 | 00:00:00 | 00:00:00 | |
| OE5DRO-10 | 2026-09-03 00:46:32 | 47.75756 | 12.46150 | 120° | 31km/h | 18764m | -13.1m/s | -54.4°C | 4.2% | 71.1hPa | 2.5V | 00:00:00 | 00:00:00 | 00:00:00 | |
| OE5MMP-10 | 2026-09-03 00:46:31 | 47.75756 | 12.46150 | 120° | 29km/h | 18764m | -13.1m/s | -54.4°C | 4.2% | 71.1hPa | 2.5V | 08:18:00 | 02:17:11 | 00:00:00 | |
| DG1MFX-10 | 2026-09-03 00:46:27 | 47.75767 | 12.46117 | 118° | 31km/h | 18804m | -12.9m/s | -54.5°C | 1.3% | 70.7hPa | 2.5V | 08:18:00 | 00:00:00 | 00:00:00 | |
| OE8JPQ-2 | 2026-09-03 00:46:26 | 47.75774 | 12.46096 | 116° | 29km/h | 18830m | -13.1m/s | -54.4°C | 4.3% | 70.4hPa | 2.5V | 00:00:00 | 02:17:06 | 00:00:00 | |
| OE5MMP-10 | 2026-09-03 00:46:21 | 47.75787 | 12.46050 | 107° | 29km/h | 18895m | -12.8m/s | -53.8°C | 4.0% | 69.6hPa | 2.5V | 00:00:00 | 02:17:01 | 00:00:00 | |
| OE5FHM-15 | 2026-09-03 00:46:20 | 47.75788 | 12.46041 | 103° | 37km/h | 18908m | -12.9m/s | -53.8°C | 4.0% | 69.5hPa | 2.5V | 00:00:00 | 02:17:00 | 00:00:00 | |
| OE5WHR-10 | 2026-09-03 00:46:18 | 47.75790 | 12.46023 | 99° | 37km/h | 18934m | -12.8m/s | -53.9°C | 4.0% | 69.3hPa | 2.5V | 00:00:00 | 00:00:00 | 00:00:00 | |
| OE5DRO-10 | 2026-09-03 00:46:13 | 47.75793 | 12.45942 | 93° | 38km/h | 19023m | -12.5m/s | -54.2°C | 4.2% | 68.3hPa | 2.5V | 00:00:00 | 00:00:00 | 00:00:00 | |
| OE5MMP-10 | 2026-09-03 00:46:11 | 47.75793 | 12.45942 | 93° | 38km/h | 19023m | -12.5m/s | -54.2°C | 4.2% | 68.3hPa | 2.5V | 00:00:00 | 02:16:51 | 00:00:00 | |
| IN3HCDX | 2026-09-03 00:46:10 | 47.75793 | 12.45942 | 93° | 35km/h | 19023m | -12.6m/s | -54.2°C | 1.2% | 68.3hPa | 2.5V | 08:18:00 | 00:00:00 | 00:00:00 | |
| OE8JPQ-2 | 2026-09-03 00:46:06 | 47.75797 | 12.45875 | 101° | 38km/h | 19086m | -12.8m/s | -53.7°C | 4.0% | 67.6hPa | 2.5V | 00:00:00 | 00:00:00 | 00:00:00 | |
| OE5DXL-15 | 2026-09-03 00:46:03 | 47.75803 | 12.45832 | 103° | 33km/h | 19125m | -12.4m/s | -53.7°C | 4.0% | 67.2hPa | 2.6V | 00:00:00 | 00:00:00 | 00:00:00 | |
| OE5MMP-10 | 2026-09-03 00:46:01 | 47.75808 | 12.45801 | 105° | 40km/h | 19151m | -12.4m/s | -53.8°C | 4.1% | 66.9hPa | 2.5V | 00:00:00 | 02:16:41 | 00:00:00 | |
| OE5DRO-10 | 2026-09-03 00:45:57 | 47.75838 | 12.45659 | 116° | 29km/h | 19280m | -12.9m/s | -53.8°C | 4.1% | 65.6hPa | 2.5V | 00:00:00 | 00:00:00 | 00:00:00 | |
| OE5MMP-10 | 2026-09-03 00:45:51 | 47.75838 | 12.45659 | 116° | 33km/h | 19280m | -12.9m/s | -53.8°C | 4.1% | 65.6hPa | 2.5V | 00:00:00 | 02:16:31 | 00:00:00 | |
| IN3HCDX | 2026-09-03 00:45:50 | 47.75842 | 12.45646 | 115° | 38km/h | 19293m | -12.9m/s | -53.9°C | 1.2% | 65.5hPa | 2.5V | 08:19:00 | 00:00:00 | 00:00:00 | |
| OE8JPQ-2 | 2026-09-03 00:45:46 | 47.75856 | 12.45597 | 111° | 27km/h | 19344m | -12.5m/s | -54.0°C | 4.2% | 64.9hPa | 2.5V | 00:00:00 | 00:00:00 | 00:00:00 | |
| DG1MFX-10 | 2026-09-03 00:45:45 | 47.75856 | 12.45597 | 111° | 31km/h | 19344m | -12.6m/s | -54.1°C | 1.3% | 65.0hPa | 2.5V | 08:19:00 | 00:00:00 | 00:00:00 | |
| OE5MMP-10 | 2026-09-03 00:45:41 | 47.75866 | 12.45543 | 103° | 26km/h | 19409m | -12.9m/s | -54.1°C | 4.3% | 64.3hPa | 2.5V | 00:00:00 | 02:16:21 | 00:00:00 | |
| OE5WHR-10 | 2026-09-03 00:45:36 | 47.75871 | 12.45497 | 93° | 27km/h | 19474m | -12.5m/s | -53.3°C | 3.9% | 63.6hPa | 2.5V | 00:00:00 | 02:16:16 | 00:00:00 | |
| OE5DXL-15 | 2026-09-03 00:45:32 | 47.75869 | 12.45458 | 79° | 26km/h | 19525m | -12.6m/s | -53.4°C | 3.9% | 63.1hPa | 2.5V | 00:00:00 | 00:00:00 | 00:00:00 | |
| OE5MMP-10 | 2026-09-03 00:45:31 | 47.75868 | 12.45448 | 78° | 27km/h | 19537m | -12.6m/s | -53.5°C | 4.0% | 63.0hPa | 2.5V | 00:00:00 | 02:16:11 | 00:00:00 | |
| IN3HCDX | 2026-09-03 00:45:28 | 47.75864 | 12.45427 | 79° | 27km/h | 19563m | -12.7m/s | -53.7°C | 1.2% | 62.8hPa | 2.5V | 08:19:00 | 00:00:00 | 00:00:00 | |
| DB0UT-7 | 2026-09-03 00:45:27 | 47.75862 | 12.45407 | 81° | 15km/h | 19589m | -12.9m/s | -53.7°C | 4.1% | 62.5hPa | 2.5V | 00:00:00 | 02:16:07 | 00:00:00 | |
| OE8JPQ-2 | 2026-09-03 00:45:26 | 47.75861 | 12.45397 | 84° | 26km/h | 19602m | -12.9m/s | -53.7°C | 4.1% | 62.4hPa | 2.5V | 00:00:00 | 02:16:06 | 00:00:00 | |
| OE5MMP-10 | 2026-09-03 00:45:21 | 47.75865 | 12.45347 | 107° | 27km/h | 19667m | -12.9m/s | -53.5°C | 4.0% | 61.8hPa | 2.5V | 00:00:00 | 02:16:01 | 00:00:00 | |
| OE5FHM-15 | 2026-09-03 00:45:20 | 47.75867 | 12.45337 | 110° | 26km/h | 19680m | -12.9m/s | -53.5°C | 4.1% | 61.6hPa | 2.5V | 08:19:00 | 02:16:00 | 00:00:00 | |
| OE5WHR-10 | 2026-09-03 00:45:15 | 47.75879 | 12.45288 | 109° | 20km/h | 19746m | -12.9m/s | -53.5°C | 4.1% | 61.0hPa | 2.5V | 08:19:00 | 00:00:00 | 00:00:00 | |
| OE5DRO-10 | 2026-09-03 00:45:14 | 47.75886 | 12.45252 | 107° | 22km/h | 19798m | -13.2m/s | -53.4°C | 4.0% | 60.5hPa | 2.6V | 00:00:00 | 00:00:00 | 00:00:00 | |
| OE5MMP-10 | 2026-09-03 00:45:11 | 47.75886 | 12.45252 | 107° | 22km/h | 19798m | -13.2m/s | -53.4°C | 4.0% | 60.5hPa | 2.6V | 00:00:00 | 02:15:51 | 00:00:00 | |
| IN3HCDX | 2026-09-03 00:45:08 | 47.75892 | 12.45227 | 118° | 22km/h | 19837m | -12.7m/s | -53.4°C | 1.1% | 60.2hPa | 2.6V | 08:20:00 | 00:00:00 | 00:00:00 | |
| OE8JPQ-2 | 2026-09-03 00:45:06 | 47.75897 | 12.45214 | 129° | 18km/h | 19863m | -12.9m/s | -53.4°C | 4.0% | 59.9hPa | 2.6V | 00:00:00 | 00:00:00 | 00:00:00 | |
| DG1MFX-10 | 2026-09-03 00:45:04 | 47.75901 | 12.45208 | 131° | 20km/h | 19876m | -12.9m/s | -53.5°C | 1.2% | 59.8hPa | 2.6V | 08:20:00 | 00:00:00 | 00:00:00 | |
| BAUMI2-15 | 2026-09-03 00:45:02 | 47.75909 | 12.45190 | 126° | 16km/h | 19915m | -12.7m/s | -53.4°C | 3.9% | 59.4hPa | 2.6V | 00:00:00 | 02:15:42 | 00:00:00 | |
| OE5MMP-10 | 2026-09-03 00:45:01 | 47.75912 | 12.45184 | 119° | 16km/h | 19928m | -12.8m/s | -53.3°C | 3.9% | 59.3hPa | 2.6V | 08:19:00 | 02:15:41 | 00:00:00 | |
| BAUMI2-15 | 2026-09-03 00:44:57 | 47.75916 | 12.45160 | 106° | 16km/h | 19980m | -12.8m/s | -53.3°C | 3.9% | 58.8hPa | 2.5V | 00:00:00 | 02:15:37 | 00:00:00 | |
| OE5WHR-10 | 2026-09-03 00:44:54 | 47.75919 | 12.45142 | 101° | 18km/h | 20019m | -13.2m/s | -52.8°C | 3.7% | 58.5hPa | 2.5V | 00:00:00 | 00:00:00 | 00:00:00 | |
| BAUMI2-15 | 2026-09-03 00:44:52 | 47.75921 | 12.45129 | 99° | 18km/h | 20046m | -13.4m/s | -52.9°C | 3.7% | 58.2hPa | 2.5V | 00:00:00 | 02:15:32 | 00:00:00 | |
| OE5MMP-10 | 2026-09-03 00:44:51 | 47.75922 | 12.45123 | 109° | 18km/h | 20060m | -13.1m/s | -52.9°C | 3.7% | 58.1hPa | 2.5V | 00:00:00 | 02:15:31 | 00:00:00 | |
| BAUMI2-15 | 2026-09-03 00:44:47 | 47.75927 | 12.45097 | 105° | 18km/h | 20113m | -13.4m/s | -53.4°C | 3.7% | 57.6hPa | 2.5V | 00:00:00 | 02:15:27 | 00:00:00 | |
| OE8JPQ-2 | 2026-09-03 00:44:46 | 47.75928 | 12.45091 | 103° | 20km/h | 20127m | -13.3m/s | -53.6°C | 3.8% | 57.5hPa | 2.5V | 00:00:00 | 00:00:00 | 00:00:00 | |
| DG1MFX-10 | 2026-09-03 00:44:43 | 47.75930 | 12.45077 | 105° | 18km/h | 20154m | -13.1m/s | -53.9°C | 1.2% | 57.3hPa | 2.5V | 08:20:00 | 00:00:00 | 00:00:00 | |
| BAUMI2-15 | 2026-09-03 00:44:42 | 47.75932 | 12.45063 | 99° | 20km/h | 20181m | -12.9m/s | -54.1°C | 3.9% | 57.0hPa | 2.5V | 00:00:00 | 02:15:22 | 00:00:00 | |
| OE5MMP-10 | 2026-09-03 00:44:41 | 47.75932 | 12.45056 | 97° | 20km/h | 20194m | -12.9m/s | -54.2°C | 4.0% | 56.9hPa | 2.6V | 00:00:00 | 02:15:21 | 00:00:00 | |
| BAUMI2-15 | 2026-09-03 00:44:37 | 47.75936 | 12.45027 | 104° | 18km/h | 20248m | -13.5m/s | -54.7°C | 4.1% | 56.4hPa | 2.6V | 00:00:00 | 02:15:17 | 00:00:00 | |
| OE5DRO-10 | 2026-09-03 00:44:36 | 47.75938 | 12.44998 | 89° | 35km/h | 20302m | -13.5m/s | -55.2°C | 4.3% | 55.9hPa | 2.6V | 08:20:00 | 00:00:00 | 00:00:00 | |
| OE5WHR-10 | 2026-09-03 00:44:33 | 47.75938 | 12.44998 | 89° | 31km/h | 20302m | -13.5m/s | -55.2°C | 4.3% | 55.9hPa | 2.5V | 00:00:00 | 02:15:13 | 00:00:00 | |
| BAUMI2-15 | 2026-09-03 00:44:32 | 47.75938 | 12.44990 | 88° | 24km/h | 20316m | -13.5m/s | -55.4°C | 4.4% | 55.8hPa | 2.5V | 00:00:00 | 02:15:12 | 00:00:00 | |
| OE5MMP-10 | 2026-09-03 00:44:31 | 47.75938 | 12.44982 | 89° | 27km/h | 20329m | -13.7m/s | -55.5°C | 4.4% | 55.7hPa | 2.5V | 00:00:00 | 02:15:11 | 00:00:00 | |
| BAUMI2-15 | 2026-09-03 00:44:27 | 47.75937 | 12.44942 | 93° | 29km/h | 20384m | -13.4m/s | -56.0°C | 4.7% | 55.2hPa | 2.5V | 08:20:00 | 02:15:07 | 00:00:00 | |
| OE8JPQ-2 | 2026-09-03 00:44:26 | 47.75938 | 12.44932 | 97° | 35km/h | 20398m | -13.4m/s | -56.1°C | 4.7% | 55.1hPa | 2.5V | 00:00:00 | 02:15:06 | 00:00:00 | |
| IN3HCDX | 2026-09-03 00:44:25 | 47.75938 | 12.44932 | 97° | 29km/h | 20398m | -13.4m/s | -56.1°C | 1.4% | 55.2hPa | 2.5V | 08:20:00 | 00:00:00 | 00:00:00 | |
| DG1MFX-10 | 2026-09-03 00:44:24 | 47.75940 | 12.44910 | 101° | 29km/h | 20425m | -13.3m/s | -56.2°C | 1.4% | 54.9hPa | 2.5V | 08:20:00 | 00:00:00 | 00:00:00 | |
| BAUMI2-15 | 2026-09-03 00:44:22 | 47.75943 | 12.44887 | 106° | 33km/h | 20451m | -13.2m/s | -56.1°C | 4.9% | 54.6hPa | 2.5V | 00:00:00 | 02:15:02 | 00:00:00 | |
| OE5MMP-10 | 2026-09-03 00:44:21 | 47.75945 | 12.44875 | 106° | 37km/h | 20465m | -13.4m/s | -56.0°C | 4.9% | 54.5hPa | 2.5V | 00:00:00 | 02:15:01 | 00:00:00 | |
| BAUMI2-15 | 2026-09-03 00:44:17 | 47.75955 | 12.44826 | 111° | 38km/h | 20519m | -13.8m/s | -55.3°C | 4.6% | 54.0hPa | 2.5V | 00:00:00 | 02:14:57 | 00:00:00 | |
| PG1ADW-2 | 2026-09-03 00:44:13 | 47.75972 | 12.44774 | 124° | 26km/h | 20574m | -13.4m/s | -55.2°C | 4.5% | 53.6hPa | 2.5V | 00:00:00 | 00:00:00 | 00:00:00 | |
| OE5WHR-10 | 2026-09-03 00:44:12 | 47.75978 | 12.44762 | 129° | 31km/h | 20588m | -13.5m/s | -55.2°C | 4.5% | 53.5hPa | 2.5V | 00:00:00 | 00:00:00 | 00:00:00 | |
| OE5MMP-10 | 2026-09-03 00:44:11 | 47.75984 | 12.44751 | 134° | 35km/h | 20601m | -13.6m/s | -55.1°C | 4.5% | 53.4hPa | 2.5V | 00:00:00 | 02:14:51 | 00:00:00 | |
| BAUMI2-15 | 2026-09-03 00:44:07 | 47.76013 | 12.44713 | 142° | 33km/h | 20657m | -13.7m/s | -54.7°C | 4.4% | 52.9hPa | 2.5V | 00:00:00 | 02:14:47 | 00:00:00 | |
| DG1MFX-10 | 2026-09-03 00:44:03 | 47.76033 | 12.44689 | 142° | 31km/h | 20699m | -13.6m/s | -54.3°C | 1.3% | 52.6hPa | 2.5V | 08:20:00 | 00:00:00 | 00:00:00 | |
| BAUMI2-15 | 2026-09-03 00:44:02 | 47.76044 | 12.44675 | 137° | 27km/h | 20726m | -13.5m/s | -53.9°C | 4.1% | 52.3hPa | 2.5V | 00:00:00 | 02:14:42 | 00:00:00 | |
| OE5MMP-10 | 2026-09-03 00:44:01 | 47.76049 | 12.44667 | 134° | 24km/h | 20740m | -13.4m/s | -53.8°C | 4.0% | 52.2hPa | 2.5V | 00:00:00 | 02:14:41 | 00:00:00 | |
| BAUMI2-15 | 2026-09-03 00:43:57 | 47.76067 | 12.44636 | 128° | 24km/h | 20796m | -14.1m/s | -53.9°C | 4.0% | 51.8hPa | 2.5V | 00:00:00 | 02:14:37 | 00:00:00 | |
| BAUMI2-15 | 2026-09-03 00:43:52 | 47.76087 | 12.44607 | 141° | 20km/h | 20866m | -13.7m/s | -54.1°C | 4.1% | 51.2hPa | 2.5V | 00:00:00 | 02:14:32 | 00:00:00 | |
| OE5WHR-10 | 2026-09-03 00:43:51 | 47.76091 | 12.44603 | 147° | 15km/h | 20880m | -13.7m/s | -54.1°C | 4.1% | 51.1hPa | 2.5V | 00:00:00 | 00:00:00 | 00:00:00 | |
| BAUMI2-15 | 2026-09-03 00:43:47 | 47.76110 | 12.44589 | 157° | 16km/h | 20935m | -14.0m/s | -54.1°C | 4.0% | 50.6hPa | 2.5V | 00:00:00 | 02:14:27 | 00:00:00 | |
| OE8JPQ-2 | 2026-09-03 00:43:46 | 47.76114 | 12.44587 | 156° | 15km/h | 20950m | -14.1m/s | -54.2°C | 4.0% | 50.5hPa | 2.5V | 00:00:00 | 00:00:00 | 00:00:00 | |
| DO3MHA-11 | 2026-09-03 00:43:45 | 47.76118 | 12.44584 | 156° | 16km/h | 20963m | -14.0m/s | -54.2°C | 4.0% | 50.4hPa | 2.5V | 00:00:00 | 02:14:25 | 00:00:00 | |
| IN3HCDX | 2026-09-03 00:43:44 | 47.76118 | 12.44584 | 156° | 16km/h | 20963m | -14.0m/s | -54.3°C | 1.1% | 50.5hPa | 2.5V | 08:20:00 | 00:00:00 | 00:00:00 | |
| BAUMI2-15 | 2026-09-03 00:43:42 | 47.76129 | 12.44577 | 154° | 11km/h | 21006m | -14.1m/s | -54.5°C | 4.1% | 50.1hPa | 2.5V | 08:20:00 | 02:14:22 | 00:00:00 | |
| OE5MMP-10 | 2026-09-03 00:43:41 | 47.76131 | 12.44575 | 149° | 13km/h | 21020m | -14.0m/s | -54.6°C | 4.1% | 50.0hPa | 2.5V | 00:00:00 | 02:14:21 | 00:00:00 | |
| BAUMI2-15 | 2026-09-03 00:43:37 | 47.76138 | 12.44566 | 116° | 15km/h | 21076m | -14.5m/s | -54.8°C | 4.2% | 49.5hPa | 2.5V | 00:00:00 | 02:14:17 | 00:00:00 | |
| BAUMI2-15 | 2026-09-03 00:43:32 | 47.76145 | 12.44540 | 111° | 20km/h | 21149m | -14.4m/s | -55.3°C | 4.4% | 49.0hPa | 2.5V | 00:00:00 | 02:14:12 | 00:00:00 | |
| OE5MMP-10 | 2026-09-03 00:43:31 | 47.76146 | 12.44533 | 114° | 16km/h | 21163m | -14.5m/s | -55.4°C | 4.5% | 48.9hPa | 2.5V | 08:21:00 | 02:14:11 | 00:00:00 | |
| OE5WHR-10 | 2026-09-03 00:43:30 | 47.76149 | 12.44526 | 114° | 15km/h | 21178m | -14.1m/s | -55.5°C | 4.6% | 48.8hPa | 2.5V | 00:00:00 | 02:14:10 | 00:00:00 | |
| BAUMI2-15 | 2026-09-03 00:43:27 | 47.76156 | 12.44506 | 120° | 15km/h | 21222m | -14.1m/s | -55.5°C | 4.6% | 48.4hPa | 2.5V | 00:00:00 | 02:14:07 | 00:00:00 | |
| OE8JPQ-2 | 2026-09-03 00:43:26 | 47.76158 | 12.44500 | 122° | 16km/h | 21236m | -14.3m/s | -55.5°C | 4.6% | 48.3hPa | 2.5V | 00:00:00 | 02:14:06 | 00:00:00 | |
| IN3HCDX | 2026-09-03 00:43:23 | 47.76162 | 12.44491 | 131° | 13km/h | 21265m | -14.4m/s | -55.5°C | 1.3% | 48.1hPa | 2.5V | 08:21:00 | 00:00:00 | 00:00:00 | |
| BAUMI2-15 | 2026-09-03 00:43:22 | 47.76166 | 12.44485 | 141° | 9km/h | 21295m | -14.4m/s | -55.4°C | 4.5% | 47.9hPa | 2.5V | 00:00:00 | 02:14:02 | 00:00:00 | |
| OE5MMP-10 | 2026-09-03 00:43:21 | 47.76168 | 12.44483 | 148° | 13km/h | 21309m | -14.2m/s | -55.4°C | 4.6% | 47.8hPa | 2.5V | 00:00:00 | 02:14:01 | 00:00:00 | |
| BAUMI2-15 | 2026-09-03 00:43:17 | 47.76176 | 12.44477 | 159° | 15km/h | 21367m | -14.4m/s | -55.3°C | 4.6% | 47.3hPa | 2.5V | 00:00:00 | 02:13:57 | 00:00:00 | |
| OE5DRO-10 | 2026-09-03 00:43:14 | 47.76195 | 12.44468 | 161° | 22km/h | 21441m | -14.8m/s | -55.2°C | 4.6% | 46.8hPa | 2.5V | 00:00:00 | 00:00:00 | 00:00:00 | |
| BAUMI2-15 | 2026-09-03 00:43:12 | 47.76195 | 12.44468 | 161° | 24km/h | 21441m | -14.8m/s | -55.2°C | 4.6% | 46.8hPa | 2.5V | 00:00:00 | 02:13:52 | 00:00:00 | |
| OE5MMP-10 | 2026-09-03 00:43:11 | 47.76200 | 12.44465 | 158° | 24km/h | 21456m | -14.5m/s | -55.1°C | 4.7% | 46.7hPa | 2.6V | 00:00:00 | 02:13:51 | 00:00:00 | |
| OE5WHR-10 | 2026-09-03 00:43:09 | 47.76211 | 12.44457 | 154° | 22km/h | 21485m | -14.6m/s | -55.0°C | 4.7% | 46.4hPa | 2.6V | 00:00:00 | 00:00:00 | 00:00:00 | |
| DO3MHA-11 | 2026-09-03 00:43:07 | 47.76223 | 12.44449 | 152° | 22km/h | 21515m | -14.7m/s | -54.5°C | 4.5% | 46.3hPa | 2.5V | 00:00:00 | 02:13:47 | 00:00:00 | |
| OE8JPQ-2 | 2026-09-03 00:43:06 | 47.76228 | 12.44444 | 151° | 20km/h | 21530m | -15.0m/s | -54.1°C | 4.3% | 46.1hPa | 2.5V | 00:00:00 | 00:00:00 | 00:00:00 | |
| IN3HCDX | 2026-09-03 00:43:03 | 47.76243 | 12.44429 | 142° | 22km/h | 21576m | -14.8m/s | -53.9°C | 1.2% | 45.9hPa | 2.5V | 08:21:00 | 00:00:00 | 00:00:00 | |
| DG1MFX-10 | 2026-09-03 00:43:02 | 47.76247 | 12.44424 | 137° | 22km/h | 21591m | -14.5m/s | -53.9°C | 1.2% | 45.7hPa | 2.5V | 08:21:00 | 00:00:00 | 00:00:00 | |
| OE5MMP-10 | 2026-09-03 00:43:01 | 47.76250 | 12.44418 | 130° | 20km/h | 21605m | -14.8m/s | -53.9°C | 4.2% | 45.6hPa | 2.5V | 00:00:00 | 02:13:41 | 00:00:00 | |
| OE5DRO-10 | 2026-09-03 00:42:53 | 47.76277 | 12.44356 | 129° | 18km/h | 21755m | -15.0m/s | -53.1°C | 4.0% | 44.6hPa | 2.5V | 00:00:00 | 00:00:00 | 00:00:00 | |
| OE5MMP-10 | 2026-09-03 00:42:51 | 47.76277 | 12.44356 | 129° | 18km/h | 21755m | -15.0m/s | -53.1°C | 4.0% | 44.6hPa | 2.5V | 00:00:00 | 02:13:31 | 00:00:00 | |
| OE5WHR-10 | 2026-09-03 00:42:48 | 47.76287 | 12.44340 | 138° | 15km/h | 21801m | -14.7m/s | -53.0°C | 3.9% | 44.2hPa | 2.5V | 00:00:00 | 00:00:00 | 00:00:00 | |
| OE8JPQ-2 | 2026-09-03 00:42:46 | 47.76295 | 12.44332 | 150° | 13km/h | 21831m | -14.9m/s | -53.0°C | 4.0% | 44.0hPa | 2.5V | 00:00:00 | 00:00:00 | 00:00:00 | |
| OE5FHM-15 | 2026-09-03 00:42:44 | 47.76303 | 12.44326 | 161° | 15km/h | 21862m | -15.1m/s | -52.8°C | 3.9% | 43.8hPa | 2.5V | 00:00:00 | 02:13:24 | 00:00:00 | |
| OE5MMP-10 | 2026-09-03 00:42:41 | 47.76316 | 12.44321 | 174° | 13km/h | 21908m | -15.0m/s | -52.8°C | 3.9% | 43.5hPa | 2.5V | 00:00:00 | 02:13:21 | 00:00:00 | |
| OE5HKT-10 | 2026-09-03 00:42:39 | 47.76324 | 12.44320 | 175° | 11km/h | 21939m | -15.2m/s | -52.8°C | 3.8% | 43.3hPa | 2.5V | 00:00:00 | 00:00:00 | 00:00:00 | |
| OE5MMP-10 | 2026-09-03 00:42:31 | 47.76347 | 12.44314 | 151° | 13km/h | 22062m | -15.3m/s | -53.2°C | 3.9% | 42.5hPa | 2.5V | 00:00:00 | 02:13:11 | 00:00:00 | |
| OE5DXL-15 | 2026-09-03 00:42:30 | 47.76349 | 12.44312 | 147° | 16km/h | 22078m | -15.4m/s | -53.3°C | 4.0% | 42.3hPa | 2.5V | 00:00:00 | 02:13:10 | 00:00:00 | |
| OE5WHR-10 | 2026-09-03 00:42:27 | 47.76355 | 12.44305 | 139° | 16km/h | 22125m | -15.6m/s | -53.3°C | 4.0% | 42.0hPa | 2.5V | 00:00:00 | 02:13:07 | 00:00:00 | |
| OE8JPQ-2 | 2026-09-03 00:42:26 | 47.76357 | 12.44302 | 140° | 18km/h | 22140m | -15.6m/s | -53.4°C | 4.0% | 42.0hPa | 2.5V | 00:00:00 | 02:13:06 | 00:00:00 | |
| OE5MMP-10 | 2026-09-03 00:42:21 | 47.76374 | 12.44284 | 144° | 16km/h | 22219m | -15.4m/s | -53.3°C | 4.1% | 41.4hPa | 2.5V | 00:00:00 | 02:13:01 | 00:00:00 | |
| DG1MFX-10 | 2026-09-03 00:42:20 | 47.76374 | 12.44284 | 145° | 18km/h | 22219m | -15.5m/s | -53.4°C | 1.2% | 41.5hPa | 2.5V | 08:22:00 | 00:00:00 | 00:00:00 | |
| OE5FHM-15 | 2026-09-03 00:42:14 | 47.76395 | 12.44249 | 138° | 13km/h | 22328m | -15.6m/s | -53.1°C | 4.0% | 40.7hPa | 2.5V | 00:00:00 | 02:12:54 | 00:00:00 | |
| OE5MMP-10 | 2026-09-03 00:42:11 | 47.76405 | 12.44241 | 162° | 20km/h | 22376m | -15.7m/s | -53.3°C | 4.0% | 40.4hPa | 2.5V | 00:00:00 | 02:12:51 | 00:00:00 | |
| OE5DRO-10 | 2026-09-03 00:42:10 | 47.76418 | 12.44234 | 160° | 13km/h | 22424m | -15.8m/s | -53.4°C | 4.0% | 40.1hPa | 2.5V | 00:00:00 | 00:00:00 | 00:00:00 | |
| OE5WHR-10 | 2026-09-03 00:42:06 | 47.76429 | 12.44229 | 160° | 13km/h | 22456m | -16.1m/s | -53.5°C | 4.1% | 39.9hPa | 2.5V | 08:22:00 | 00:00:00 | 00:00:00 | |
| DG1MFX-10 | 2026-09-03 00:42:01 | 47.76453 | 12.44220 | 172° | 15km/h | 22537m | -15.9m/s | -53.7°C | 1.2% | 39.5hPa | 2.5V | 08:22:00 | 00:00:00 | 00:00:00 | |
| OE5DXL-15 | 2026-09-03 00:42:00 | 47.76456 | 12.44219 | 170° | 13km/h | 22552m | -15.8m/s | -53.6°C | 4.2% | 39.3hPa | 2.5V | 00:00:00 | 00:00:00 | 00:00:00 | |
| OE5HKT-10 | 2026-09-03 00:41:52 | 47.76469 | 12.44208 | 146° | 15km/h | 22683m | -16.3m/s | -53.4°C | 4.3% | 38.5hPa | 2.5V | 00:00:00 | 02:12:32 | 00:00:00 | |
| OE5MMP-10 | 2026-09-03 00:41:51 | 47.76471 | 12.44207 | 145° | 11km/h | 22700m | -16.3m/s | -53.2°C | 4.2% | 38.4hPa | 2.5V | 00:00:00 | 02:12:31 | 00:00:00 | |
| OE8JPQ-2 | 2026-09-03 00:41:46 | 47.76482 | 12.44199 | 162° | 16km/h | 22783m | -16.4m/s | -52.6°C | 3.9% | 37.9hPa | 2.5V | 00:00:00 | 00:00:00 | 00:00:00 | |
| OE5WHR-10 | 2026-09-03 00:41:45 | 47.76486 | 12.44198 | 169° | 18km/h | 22799m | -16.2m/s | -52.3°C | 3.8% | 37.8hPa | 2.5V | 00:00:00 | 00:00:00 | 00:00:00 | |
| OE5FHM-15 | 2026-09-03 00:41:44 | 47.76489 | 12.44198 | 174° | 20km/h | 22816m | -16.6m/s | -52.1°C | 3.7% | 37.7hPa | 2.5V | 00:00:00 | 02:12:24 | 00:00:00 | |
| OE5MMP-10 | 2026-09-03 00:41:41 | 47.76498 | 12.44199 | 198° | 15km/h | 22865m | -16.3m/s | -52.1°C | 3.7% | 37.4hPa | 2.6V | 00:00:00 | 02:12:21 | 00:00:00 | |
| DG1MFX-10 | 2026-09-03 00:41:40 | 47.76498 | 12.44199 | 199° | 11km/h | 22865m | -16.4m/s | -52.1°C | 1.1% | 37.5hPa | 2.6V | 08:23:00 | 00:00:00 | 00:00:00 | |
| PG1ADW-2 | 2026-09-03 00:41:33 | 47.76523 | 12.44220 | 205° | 22km/h | 22998m | -16.6m/s | -52.4°C | 3.7% | 36.7hPa | 2.6V | 00:00:00 | 00:00:00 | 00:00:00 | |
| OE5MMP-10 | 2026-09-03 00:41:31 | 47.76534 | 12.44226 | 201° | 22km/h | 23032m | -16.6m/s | -52.7°C | 3.8% | 36.5hPa | 2.6V | 00:00:00 | 02:12:11 | 00:00:00 | |
| OE5HKT-10 | 2026-09-03 00:41:30 | 47.76540 | 12.44229 | 199° | 22km/h | 23049m | -16.4m/s | -52.8°C | 3.8% | 36.4hPa | 2.6V | 00:00:00 | 00:00:00 | 00:00:00 | |
| OE8JPQ-2 | 2026-09-03 00:41:27 | 47.76564 | 12.44246 | 215° | 20km/h | 23116m | -16.9m/s | -53.1°C | 3.9% | 36.0hPa | 2.5V | 00:00:00 | 02:12:06 | 00:00:00 | |
| OE5WHR-10 | 2026-09-03 00:41:24 | 47.76574 | 12.44258 | 219° | 16km/h | 23150m | -17.1m/s | -53.2°C | 4.0% | 35.8hPa | 2.5V | 00:00:00 | 02:12:04 | 00:00:00 | |
| IN3HCDX | 2026-09-03 00:41:20 | 47.76587 | 12.44276 | 231° | 22km/h | 23201m | -16.9m/s | -53.5°C | 1.1% | 35.6hPa | 2.5V | 00:00:00 | 00:00:00 | 00:00:00 | |
| DG1MFX-10 | 2026-09-03 00:41:19 | 47.76591 | 12.44283 | 234° | 24km/h | 23219m | -17.0m/s | -53.3°C | 1.1% | 35.5hPa | 2.5V | 08:23:00 | 00:00:00 | 00:00:00 | |
| OE5MMP-10 | 2026-09-03 00:41:17 | 47.76599 | 12.44302 | 242° | 13km/h | 23271m | -17.1m/s | -53.2°C | 4.0% | 35.2hPa | 2.5V | 00:00:00 | 02:11:57 | 00:00:00 | |
| OE5FHM-15 | 2026-09-03 00:41:14 | 47.76604 | 12.44321 | 259° | 9km/h | 23322m | -17.0m/s | -53.4°C | 4.1% | 34.9hPa | 2.5V | 00:00:00 | 02:11:54 | 00:00:00 | |
| PG1ADW-2 | 2026-09-03 00:41:11 | 47.76606 | 12.44340 | 268° | 7km/h | 23375m | -17.3m/s | -53.7°C | 4.2% | 34.6hPa | 2.5V | 00:00:00 | 02:11:51 | 00:00:00 | |
| OE5HKT-10 | 2026-09-03 00:41:09 | 47.76605 | 12.44350 | 283° | 7km/h | 23410m | -17.4m/s | -53.8°C | 4.3% | 34.4hPa | 2.5V | 00:00:00 | 00:00:00 | 00:00:00 | |
| OE8JPQ-2 | 2026-09-03 00:41:06 | 47.76603 | 12.44364 | 278° | 5km/h | 23462m | -17.4m/s | -53.9°C | 4.4% | 34.1hPa | 2.5V | 08:23:00 | 00:00:00 | 00:00:00 | |
| OE5WHR-10 | 2026-09-03 00:41:03 | 47.76603 | 12.44372 | 264° | 5km/h | 23514m | -17.3m/s | -53.7°C | 4.3% | 33.8hPa | 2.5V | 00:00:00 | 00:00:00 | 00:00:00 | |
| BAUMI2-15 | 2026-09-03 00:41:02 | 47.76603 | 12.44373 | 335° | 2km/h | 23532m | -17.5m/s | -53.5°C | 4.2% | 33.8hPa | 2.5V | 00:00:00 | 02:11:42 | 00:00:00 | |
| OE5DXL-15 | 2026-09-03 00:41:00 | 47.76602 | 12.44373 | 356° | 7km/h | 23567m | -17.7m/s | -53.2°C | 4.1% | 33.6hPa | 2.5V | 00:00:00 | 00:00:00 | 00:00:00 | |
| DG1MFX-10 | 2026-09-03 00:40:59 | 47.76602 | 12.44373 | 357° | 2km/h | 23567m | -17.7m/s | -53.3°C | 1.2% | 33.6hPa | 2.5V | 08:24:00 | 00:00:00 | 00:00:00 | |
| BAUMI2-15 | 2026-09-03 00:40:57 | 47.76600 | 12.44373 | 331° | 5km/h | 23621m | -17.7m/s | -52.8°C | 4.0% | 33.3hPa | 2.5V | 08:23:00 | 02:11:37 | 00:00:00 | |
| OE5MMP-10 | 2026-09-03 00:40:53 | 47.76598 | 12.44381 | 272° | 9km/h | 23693m | -17.9m/s | -52.5°C | 3.9% | 32.9hPa | 2.5V | 00:00:00 | 02:11:33 | 00:00:00 | |
| BAUMI2-15 | 2026-09-03 00:40:52 | 47.76598 | 12.44384 | 265° | 7km/h | 23711m | -17.9m/s | -52.5°C | 3.9% | 32.8hPa | 2.5V | 00:00:00 | 02:11:32 | 00:00:00 | |
| PG1ADW-2 | 2026-09-03 00:40:51 | 47.76599 | 12.44388 | 265° | 9km/h | 23730m | -18.0m/s | -52.6°C | 4.0% | 32.7hPa | 2.5V | 00:00:00 | 00:00:00 | 00:00:00 | |
| OE5HKT-10 | 2026-09-03 00:40:48 | 47.76598 | 12.44395 | 309° | 7km/h | 23784m | -18.1m/s | -52.7°C | 4.1% | 32.4hPa | 2.5V | 00:00:00 | 02:11:28 | 00:00:00 | |
| BAUMI2-15 | 2026-09-03 00:40:47 | 47.76597 | 12.44397 | 324° | 11km/h | 23802m | -17.6m/s | -52.7°C | 4.1% | 32.3hPa | 2.5V | 00:00:00 | 02:11:27 | 00:00:00 | |
| OE8JPQ-2 | 2026-09-03 00:40:46 | 47.76595 | 12.44398 | 342° | 7km/h | 23820m | -17.7m/s | -52.8°C | 4.1% | 32.2hPa | 2.5V | 00:00:00 | 00:00:00 | 00:00:00 | |
| OE5FHM-15 | 2026-09-03 00:40:44 | 47.76590 | 12.44399 | 3° | 5km/h | 23856m | -17.6m/s | -52.7°C | 4.2% | 32.1hPa | 2.5V | 00:00:00 | 02:11:24 | 00:00:00 | |
| OE5MMP-10 | 2026-09-03 00:40:43 | 47.76587 | 12.44399 | 4° | 9km/h | 23874m | -17.8m/s | -52.8°C | 4.1% | 32.0hPa | 2.5V | 00:00:00 | 02:11:23 | 00:00:00 | |
| BAUMI2-15 | 2026-09-03 00:40:42 | 47.76583 | 12.44399 | 6° | 11km/h | 23892m | -18.2m/s | -52.8°C | 4.2% | 31.9hPa | 2.5V | 00:00:00 | 02:11:22 | 00:00:00 | |
| DG1MFX-10 | 2026-09-03 00:40:39 | 47.76575 | 12.44397 | 16° | 9km/h | 23947m | -18.2m/s | -52.8°C | 1.2% | 31.7hPa | 2.5V | 08:24:00 | 00:00:00 | 00:00:00 | |
| IN3HCDX | 2026-09-03 00:40:38 | 47.76575 | 12.44397 | 16° | 9km/h | 23947m | -18.2m/s | -52.8°C | 1.1% | 31.7hPa | 2.5V | 08:24:00 | 00:00:00 | 00:00:00 | |
| BAUMI2-15 | 2026-09-03 00:40:37 | 47.76571 | 12.44394 | 36° | 7km/h | 23983m | -18.2m/s | -52.5°C | 4.2% | 31.5hPa | 2.5V | 00:00:00 | 02:11:17 | 00:00:00 | |
| OE5MMP-10 | 2026-09-03 00:40:33 | 47.76564 | 12.44389 | 17° | 4km/h | 24056m | -18.4m/s | -51.9°C | 4.0% | 31.1hPa | 2.5V | 00:00:00 | 02:11:13 | 00:00:00 | |
| BAUMI2-15 | 2026-09-03 00:40:32 | 47.76564 | 12.44389 | 21° | 2km/h | 24074m | -18.0m/s | -51.6°C | 3.9% | 31.0hPa | 2.5V | 00:00:00 | 02:11:12 | 00:00:00 | |
| OE5DXL-15 | 2026-09-03 00:40:30 | 47.76564 | 12.44389 | 207° | 7km/h | 24111m | -18.5m/s | -51.4°C | 3.9% | 30.8hPa | 2.5V | 00:00:00 | 00:00:00 | 00:00:00 | |
| OE5HKT-10 | 2026-09-03 00:40:27 | 47.76567 | 12.44389 | 168° | 7km/h | 24167m | -18.3m/s | -51.1°C | 3.8% | 30.5hPa | 2.5V | 00:00:00 | 00:00:00 | 00:00:00 | |
| OE8JPQ-2 | 2026-09-03 00:40:26 | 47.76568 | 12.44389 | 141° | 7km/h | 24185m | -18.5m/s | -51.1°C | 3.8% | 30.5hPa | 2.5V | 00:00:00 | 02:11:06 | 00:00:00 | |
| OE5MMP-10 | 2026-09-03 00:40:23 | 47.76568 | 12.44387 | 308° | 4km/h | 24241m | -18.7m/s | -50.8°C | 3.7% | 30.2hPa | 2.5V | 08:24:00 | 02:11:03 | 00:00:00 | |
| BAUMI2-15 | 2026-09-03 00:40:22 | 47.76569 | 12.44387 | 251° | 4km/h | 24260m | -18.6m/s | -50.7°C | 3.6% | 30.1hPa | 2.6V | 00:00:00 | 02:11:02 | 00:00:00 | |
| OE5WHR-10 | 2026-09-03 00:40:21 | 47.76569 | 12.44388 | 251° | 9km/h | 24279m | -18.6m/s | -50.6°C | 3.6% | 30.0hPa | 2.6V | 00:00:00 | 02:11:01 | 00:00:00 | |
| IN3HCDX | 2026-09-03 00:40:18 | 47.76571 | 12.44391 | 215° | 4km/h | 24335m | -19.1m/s | -50.7°C | 0.9% | 29.8hPa | 2.6V | 08:24:00 | 00:00:00 | 00:00:00 | |
| BAUMI2-15 | 2026-09-03 00:40:17 | 47.76571 | 12.44392 | 173° | 7km/h | 24355m | -19.1m/s | -50.6°C | 3.6% | 29.7hPa | 2.6V | 00:00:00 | 02:10:57 | 00:00:00 | |
| OE5FHM-15 | 2026-09-03 00:40:14 | 47.76575 | 12.44387 | 123° | 11km/h | 24412m | -18.8m/s | -50.5°C | 3.6% | 29.4hPa | 2.6V | 00:00:00 | 02:10:54 | 00:00:00 | |
| OE5MMP-10 | 2026-09-03 00:40:13 | 47.76576 | 12.44384 | 118° | 13km/h | 24431m | -18.9m/s | -50.5°C | 3.6% | 29.3hPa | 2.6V | 00:00:00 | 02:10:53 | 00:00:00 | |
| BAUMI2-15 | 2026-09-03 00:40:12 | 47.76577 | 12.44381 | 110° | 11km/h | 24450m | -18.8m/s | -50.5°C | 3.6% | 29.2hPa | 2.6V | 08:24:00 | 02:10:52 | 00:00:00 | |
| BAUMI2-15 | 2026-09-03 00:40:07 | 47.76584 | 12.44364 | 135° | 15km/h | 24545m | -19.0m/s | -50.7°C | 3.7% | 28.8hPa | 2.6V | 00:00:00 | 02:10:47 | 00:00:00 | |
| OE5HKT-10 | 2026-09-03 00:40:06 | 47.76587 | 12.44360 | 135° | 11km/h | 24564m | -18.9m/s | -50.7°C | 3.7% | 28.8hPa | 2.6V | 00:00:00 | 00:00:00 | 00:00:00 | |
| OE5MMP-10 | 2026-09-03 00:40:03 | 47.76594 | 12.44348 | 129° | 11km/h | 24621m | -19.0m/s | -50.5°C | 3.6% | 28.5hPa | 2.6V | 00:00:00 | 02:10:43 | 00:00:00 | |
| BAUMI2-15 | 2026-09-03 00:40:02 | 47.76596 | 12.44345 | 132° | 9km/h | 24640m | -18.9m/s | -50.5°C | 3.6% | 28.4hPa | 2.6V | 00:00:00 | 02:10:42 | 00:00:00 | |
| OE5WHR-10 | 2026-09-03 00:40:00 | 47.76599 | 12.44340 | 148° | 9km/h | 24678m | -19.4m/s | -50.5°C | 3.6% | 28.2hPa | 2.6V | 00:00:00 | 00:00:00 | 00:00:00 | |
| BAUMI2-15 | 2026-09-03 00:39:57 | 47.76606 | 12.44336 | 167° | 15km/h | 24737m | -19.3m/s | -50.3°C | 3.6% | 28.0hPa | 2.5V | 00:00:00 | 02:10:37 | 00:00:00 | |
| OE5DRO-10 | 2026-09-03 00:39:55 | 47.76620 | 12.44331 | 169° | 9km/h | 24815m | -19.3m/s | -50.1°C | 3.5% | 27.6hPa | 2.6V | 00:00:00 | 00:00:00 | 00:00:00 | |
| OE5MMP-10 | 2026-09-03 00:39:53 | 47.76620 | 12.44331 | 169° | 9km/h | 24815m | -19.3m/s | -50.1°C | 3.5% | 27.6hPa | 2.6V | 00:00:00 | 02:10:33 | 00:00:00 | |
| BAUMI2-15 | 2026-09-03 00:39:52 | 47.76623 | 12.44330 | 173° | 9km/h | 24834m | -19.4m/s | -50.2°C | 3.6% | 27.6hPa | 2.6V | 00:00:00 | 02:10:32 | 00:00:00 | |
| BAUMI2-15 | 2026-09-03 00:39:47 | 47.76632 | 12.44336 | 259° | 7km/h | 24932m | -19.6m/s | -50.3°C | 3.7% | 27.2hPa | 2.6V | 00:00:00 | 02:10:27 | 00:00:00 | |
| OE8JPQ-2 | 2026-09-03 00:39:46 | 47.76632 | 12.44339 | 277° | 7km/h | 24952m | -20.1m/s | -50.2°C | 3.6% | 27.1hPa | 2.6V | 00:00:00 | 00:00:00 | 00:00:00 | |
| OE5HKT-10 | 2026-09-03 00:39:45 | 47.76631 | 12.44342 | 286° | 7km/h | 24973m | -20.4m/s | -50.1°C | 3.6% | 27.0hPa | 2.6V | 00:00:00 | 02:10:25 | 00:00:00 | |
| OE5FHM-15 | 2026-09-03 00:39:44 | 47.76631 | 12.44344 | 298° | 7km/h | 24993m | -20.5m/s | -50.0°C | 3.6% | 26.9hPa | 2.6V | 00:00:00 | 02:10:24 | 00:00:00 | |
| OE5MMP-10 | 2026-09-03 00:39:43 | 47.76629 | 12.44347 | 312° | 7km/h | 25013m | -20.1m/s | -50.0°C | 3.6% | 26.8hPa | 2.6V | 00:00:00 | 02:10:23 | 00:00:00 | |
| BAUMI2-15 | 2026-09-03 00:39:42 | 47.76628 | 12.44349 | 316° | 7km/h | 25034m | -20.5m/s | -49.9°C | 3.5% | 26.7hPa | 2.6V | 00:00:00 | 02:10:22 | 00:00:00 | |
| OE5WHR-10 | 2026-09-03 00:39:39 | 47.76623 | 12.44353 | 6° | 7km/h | 25096m | -20.7m/s | -49.6°C | 3.4% | 26.5hPa | 2.5V | 00:00:00 | 00:00:00 | 00:00:00 | |
| DG1MFX-10 | 2026-09-03 00:39:38 | 47.76621 | 12.44352 | 29° | 5km/h | 25116m | -20.0m/s | -49.7°C | 0.9% | 26.5hPa | 2.5V | 08:25:00 | 00:00:00 | 00:00:00 | |
| BAUMI2-15 | 2026-09-03 00:39:37 | 47.76621 | 12.44351 | 48° | 7km/h | 25136m | -20.1m/s | -49.6°C | 3.4% | 26.3hPa | 2.5V | 00:00:00 | 02:10:17 | 00:00:00 | |
| IN3HCDX | 2026-09-03 00:39:36 | 47.76620 | 12.44351 | 49° | 5km/h | 25136m | -20.1m/s | -49.7°C | 0.9% | 26.4hPa | 2.5V | 08:25:00 | 00:00:00 | 00:00:00 | |
| DO3MHA-11 | 2026-09-03 00:39:34 | 47.76618 | 12.44343 | 82° | 7km/h | 25198m | -20.9m/s | -49.5°C | 3.4% | 26.0hPa | 2.5V | 00:00:00 | 02:10:14 | 00:00:00 | |
| OE5MMP-10 | 2026-09-03 00:39:33 | 47.76618 | 12.44340 | 93° | 7km/h | 25219m | -20.9m/s | -49.5°C | 3.4% | 26.0hPa | 2.5V | 00:00:00 | 02:10:13 | 00:00:00 | |
| BAUMI2-15 | 2026-09-03 00:39:32 | 47.76618 | 12.44337 | 101° | 5km/h | 25240m | -20.6m/s | -49.4°C | 3.3% | 25.9hPa | 2.5V | 00:00:00 | 02:10:12 | 00:00:00 | |
| OE5DXL-15 | 2026-09-03 00:39:29 | 47.76621 | 12.44331 | 143° | 9km/h | 25302m | -20.6m/s | -49.2°C | 3.3% | 25.7hPa | 2.5V | 00:00:00 | 00:00:00 | 00:00:00 | |
| BAUMI2-15 | 2026-09-03 00:39:27 | 47.76623 | 12.44328 | 126° | 7km/h | 25344m | -20.6m/s | -49.3°C | 3.3% | 25.5hPa | 2.5V | 08:25:00 | 02:10:07 | 00:00:00 | |
| OE8JPQ-2 | 2026-09-03 00:39:26 | 47.76624 | 12.44327 | 122° | 9km/h | 25364m | -20.7m/s | -49.3°C | 3.3% | 25.4hPa | 2.5V | 00:00:00 | 02:10:06 | 00:00:00 | |
| BAUMI2-15 | 2026-09-03 00:39:23 | 47.76625 | 12.44314 | 89° | 9km/h | 25448m | -20.7m/s | -49.5°C | 3.4% | 25.1hPa | 2.5V | 00:00:00 | 02:10:02 | 00:00:00 | |
| OE5WHR-10 | 2026-09-03 00:39:18 | 47.76626 | 12.44300 | 98° | 9km/h | 25532m | -20.6m/s | -49.7°C | 3.5% | 24.7hPa | 2.5V | 00:00:00 | 02:09:58 | 00:00:00 | |
| BAUMI2-15 | 2026-09-03 00:39:17 | 47.76626 | 12.44299 | 167° | 9km/h | 25552m | -20.6m/s | -49.8°C | 3.5% | 24.7hPa | 2.5V | 00:00:00 | 02:09:57 | 00:00:00 | |
| DG1MFX-10 | 2026-09-03 00:39:16 | 47.76626 | 12.44299 | 167° | 2km/h | 25552m | -20.6m/s | -49.8°C | 1.0% | 24.7hPa | 2.5V | 08:26:00 | 00:00:00 | 00:00:00 | |
| IN3HCDX | 2026-09-03 00:39:15 | 47.76626 | 12.44300 | 268° | 5km/h | 25573m | -20.5m/s | -49.9°C | 0.9% | 24.6hPa | 2.5V | 08:26:00 | 00:00:00 | 00:00:00 | |
| OE5FHM-15 | 2026-09-03 00:39:14 | 47.76626 | 12.44307 | 281° | 11km/h | 25614m | -21.0m/s | -49.9°C | 3.5% | 24.4hPa | 2.5V | 00:00:00 | 02:09:54 | 00:00:00 | |
| OE5MMP-10 | 2026-09-03 00:39:13 | 47.76625 | 12.44312 | 281° | 11km/h | 25636m | -21.1m/s | -49.9°C | 3.5% | 24.3hPa | 2.5V | 00:00:00 | 02:09:53 | 00:00:00 | |
| BAUMI2-15 | 2026-09-03 00:39:12 | 47.76625 | 12.44318 | 284° | 13km/h | 25657m | -20.9m/s | -49.9°C | 3.5% | 24.3hPa | 2.5V | 00:00:00 | 02:09:52 | 00:00:00 | |
| BAUMI2-15 | 2026-09-03 00:39:07 | 47.76618 | 12.44338 | 322° | 5km/h | 25764m | -21.2m/s | -50.1°C | 3.6% | 23.9hPa | 2.5V | 00:00:00 | 02:09:47 | 00:00:00 | |
| OE8JPQ-2 | 2026-09-03 00:39:06 | 47.76617 | 12.44340 | 334° | 9km/h | 25785m | -21.6m/s | -50.1°C | 3.7% | 23.8hPa | 2.5V | 00:00:00 | 00:00:00 | 00:00:00 | |
| OE5HKT-10 | 2026-09-03 00:39:03 | 47.76612 | 12.44342 | 340° | 18km/h | 25849m | -20.7m/s | -49.9°C | 3.6% | 23.5hPa | 2.6V | 00:00:00 | 00:00:00 | 00:00:00 | |
| OE5DXL-15 | 2026-09-03 00:39:00 | 47.76606 | 12.44346 | 347° | 9km/h | 25912m | -21.6m/s | -49.4°C | 3.5% | 23.3hPa | 2.6V | 00:00:00 | 00:00:00 | 00:00:00 | |
| OE5WHR-10 | 2026-09-03 00:38:57 | 47.76599 | 12.44346 | 17° | 9km/h | 25978m | -22.8m/s | -49.3°C | 3.4% | 23.1hPa | 2.6V | 08:25:00 | 00:00:00 | 00:00:00 | |
| DG1MFX-10 | 2026-09-03 00:38:56 | 47.76599 | 12.44346 | 17° | 9km/h | 25978m | -22.8m/s | -49.4°C | 0.9% | 23.1hPa | 2.5V | 08:26:00 | 00:00:00 | 00:00:00 | |
| IN3HCDX | 2026-09-03 00:38:54 | 47.76595 | 12.44342 | 39° | 11km/h | 26022m | -21.4m/s | -49.6°C | 0.9% | 23.0hPa | 2.5V | 08:26:00 | 00:00:00 | 00:00:00 | |
| OE5MMP-10 | 2026-09-03 00:38:53 | 47.76591 | 12.44336 | 46° | 9km/h | 26065m | -21.8m/s | -49.6°C | 3.5% | 22.8hPa | 2.5V | 08:25:00 | 02:09:33 | 00:00:00 | |
| OE8JPQ-2 | 2026-09-03 00:38:46 | 47.76578 | 12.44314 | 84° | 7km/h | 26216m | -21.2m/s | -48.8°C | 3.3% | 22.2hPa | 2.6V | 00:00:00 | 00:00:00 | 00:00:00 | |
| OE5FHM-15 | 2026-09-03 00:38:44 | 47.76578 | 12.44309 | 84° | 13km/h | 26260m | -22.9m/s | -48.7°C | 3.3% | 22.1hPa | 2.6V | 08:25:00 | 02:09:24 | 00:00:00 | |
| OE5MMP-10 | 2026-09-03 00:38:43 | 47.76578 | 12.44308 | 86° | 9km/h | 26283m | -22.3m/s | -48.7°C | 3.3% | 22.0hPa | 2.5V | 00:00:00 | 02:09:23 | 00:00:00 | |
| DG1MFX-10 | 2026-09-03 00:38:36 | 47.76567 | 12.44299 | 2° | 13km/h | 26436m | -21.7m/s | -48.7°C | 0.9% | 21.6hPa | 2.5V | 08:26:00 | 00:00:00 | 00:00:00 | |
| DO3MHA-11 | 2026-09-03 00:38:35 | 47.76564 | 12.44300 | 353° | 13km/h | 26458m | -21.4m/s | -48.7°C | 3.3% | 21.4hPa | 2.5V | 00:00:00 | 02:09:15 | 00:00:00 | |
| OE5MMP-10 | 2026-09-03 00:38:33 | 47.76558 | 12.44302 | 337° | 11km/h | 26501m | -22.1m/s | -48.7°C | 3.3% | 21.3hPa | 2.5V | 00:00:00 | 02:09:13 | 00:00:00 | |
| OE5DXL-15 | 2026-09-03 00:38:29 | 47.76550 | 12.44311 | 306° | 13km/h | 26587m | -22.4m/s | -48.6°C | 3.3% | 21.0hPa | 2.5V | 00:00:00 | 00:00:00 | 00:00:00 | |
| OE8JPQ-2 | 2026-09-03 00:38:26 | 47.76547 | 12.44315 | 348° | 15km/h | 26656m | -23.3m/s | -48.7°C | 3.2% | 20.8hPa | 2.5V | 00:00:00 | 02:09:06 | 00:00:00 | |
| DL6DJ-15 | 2026-09-03 00:38:18 | 47.76498 | 12.44297 | 34° | 11km/h | 26917m | -23.4m/s | 0°C | -1.0% | -1.0hPa | 2.5V | 00:00:00 | 00:00:00 | 00:00:00 | |
| OE5WHR-10 | 2026-09-03 00:38:15 | 47.76497 | 12.44297 | 35° | 7km/h | 26917m | -23.4m/s | -49.3°C | 3.4% | 20.0hPa | 2.5V | 00:00:00 | 02:08:55 | 00:00:00 | |
| OE5FHM-15 | 2026-09-03 00:38:14 | 47.76495 | 12.44294 | 48° | 7km/h | 26940m | -23.7m/s | -49.3°C | 3.5% | 19.9hPa | 2.5V | 00:00:00 | 02:08:54 | 00:00:00 | |
| IN3HCDX | 2026-09-03 00:38:12 | 47.76494 | 12.44291 | 68° | 9km/h | 26964m | -23.8m/s | -49.4°C | 0.9% | 19.9hPa | 2.5V | 08:26:00 | 00:00:00 | 00:00:00 | |
| DF3TZ-5 | 2026-09-03 00:38:10 | 47.76494 | 12.44282 | 113° | 7km/h | 27035m | -24.0m/s | -49.3°C | -1.0% | 19.7hPa | 2.5V | 00:00:00 | 00:00:00 | 00:00:00 | |
| OE8JPQ-2 | 2026-09-03 00:38:06 | 47.76497 | 12.44269 | 103° | 5km/h | 27131m | -23.2m/s | -49.3°C | 3.5% | 19.3hPa | 2.5V | 08:26:00 | 00:00:00 | 00:00:00 | |
| OE5DXL-15 | 2026-09-03 00:38:00 | 47.76498 | 12.44248 | 83° | 7km/h | 27275m | -24.9m/s | -49.2°C | 3.6% | 18.9hPa | 2.5V | 00:00:00 | 00:00:00 | 00:00:00 | |
| DG1MFX-10 | 2026-09-03 00:37:55 | 47.76496 | 12.44247 | 324° | 4km/h | 27370m | -23.9m/s | -49.1°C | 0.9% | 18.7hPa | 2.5V | 08:26:00 | 00:00:00 | 00:00:00 | |
| OE5WHR-10 | 2026-09-03 00:37:54 | 47.76495 | 12.44248 | 319° | 9km/h | 27418m | -24.2m/s | -48.7°C | 3.5% | 18.5hPa | 2.5V | 00:00:00 | 00:00:00 | 00:00:00 | |
| IN3HCDX | 2026-09-03 00:37:52 | 47.76493 | 12.44248 | 20° | 5km/h | 27467m | -24.3m/s | -48.5°C | 0.9% | 18.4hPa | 2.6V | 08:26:00 | 00:00:00 | 00:00:00 | |
| OE5FHM-15 | 2026-09-03 00:37:44 | 47.76490 | 12.44228 | 96° | 11km/h | 27659m | -25.1m/s | -47.7°C | 3.3% | 17.8hPa | 2.6V | 00:00:00 | 02:08:24 | 00:00:00 | |
| DG1MFX-10 | 2026-09-03 00:37:36 | 47.76505 | 12.44192 | 168° | 9km/h | 27861m | -24.8m/s | -47.1°C | 0.8% | 17.3hPa | 2.6V | 08:27:00 | 00:00:00 | 00:00:00 | |
| OE5MMP-10 | 2026-09-03 00:37:34 | 47.76509 | 12.44192 | 181° | 9km/h | 27911m | -24.7m/s | -47.0°C | 3.1% | 17.1hPa | 2.6V | 00:00:00 | 02:08:14 | 00:00:00 | |
| OE5WHR-10 | 2026-09-03 00:37:33 | 47.76511 | 12.44192 | 186° | 9km/h | 27935m | -23.9m/s | -47.1°C | 3.2% | 17.1hPa | 2.6V | 00:00:00 | 00:00:00 | 00:00:00 | |
| OE5DXL-15 | 2026-09-03 00:37:29 | 47.76521 | 12.44187 | 162° | 7km/h | 28034m | -25.1m/s | -47.1°C | 3.1% | 16.8hPa | 2.6V | 00:00:00 | 00:00:00 | 00:00:00 | |
| IN3HCDX | 2026-09-03 00:37:28 | 47.76521 | 12.44187 | 162° | 13km/h | 28034m | -25.2m/s | -47.1°C | 0.8% | 16.9hPa | 2.6V | 08:27:00 | 00:00:00 | 00:00:00 | |
| OE8JPQ-2 | 2026-09-03 00:37:26 | 47.76530 | 12.44184 | 179° | 7km/h | 28110m | -24.8m/s | -47.1°C | 3.2% | 16.6hPa | 2.6V | 00:00:00 | 02:08:06 | 00:00:00 | |
| OE5MMP-10 | 2026-09-03 00:37:23 | 47.76536 | 12.44189 | 238° | 13km/h | 28183m | -24.3m/s | -47.0°C | 3.2% | 16.4hPa | 2.6V | 00:00:00 | 02:08:03 | 00:00:00 | |
| DG1MFX-10 | 2026-09-03 00:37:15 | 47.76548 | 12.44203 | 167° | 13km/h | 28384m | -26.4m/s | -46.4°C | 0.8% | 16.0hPa | 2.6V | 08:27:00 | 00:00:00 | 00:00:00 | |
| OE5FHM-15 | 2026-09-03 00:37:14 | 47.76551 | 12.44203 | 176° | 5km/h | 28410m | -26.3m/s | -46.3°C | 3.0% | 15.9hPa | 2.6V | 00:00:00 | 02:07:54 | 00:00:00 | |
| OE5WHR-10 | 2026-09-03 00:37:12 | 47.76554 | 12.44202 | 203° | 4km/h | 28462m | -25.4m/s | -46.1°C | 3.0% | 15.8hPa | 2.6V | 00:00:00 | 02:07:52 | 00:00:00 | |
| IN3HCDX | 2026-09-03 00:37:07 | 47.76554 | 12.44207 | 285° | 5km/h | 28563m | -26.3m/s | -45.7°C | 0.7% | 15.5hPa | 2.6V | 08:27:00 | 00:00:00 | 00:00:00 | |
| OE8JPQ-2 | 2026-09-03 00:37:06 | 47.76554 | 12.44212 | 279° | 5km/h | 28614m | -25.4m/s | -45.8°C | 2.8% | 15.4hPa | 2.6V | 00:00:00 | 00:00:00 | 00:00:00 | |
| OE5DRO-10 | 2026-09-03 00:37:01 | 47.76548 | 12.44210 | 46° | 22km/h | 28797m | -25.6m/s | -46.2°C | 3.0% | 14.9hPa | 2.6V | 00:00:00 | 00:00:00 | 00:00:00 | |
| BAUMI2-15 | 2026-09-03 00:36:59 | 47.76548 | 12.44210 | 46° | 2km/h | 28797m | -25.6m/s | -46.2°C | 3.0% | 14.9hPa | 2.6V | 00:00:00 | 02:07:39 | 00:00:00 | |
| BAUMI2-15 | 2026-09-03 00:36:54 | 47.76546 | 12.44207 | 30° | 5km/h | 28927m | -25.7m/s | -46.4°C | 3.1% | 14.6hPa | 2.6V | 00:00:00 | 02:07:34 | 00:00:00 | |
| DG1MFX-10 | 2026-09-03 00:36:53 | 47.76546 | 12.44207 | 0° | 0km/h | 28927m | -25.8m/s | -46.4°C | 0.8% | 14.7hPa | 2.5V | 08:27:00 | 00:00:00 | 00:00:00 | |
| OE5WHR-10 | 2026-09-03 00:36:51 | 47.76543 | 12.44205 | 33° | 22km/h | 29004m | -25.8m/s | -46.3°C | 3.1% | 14.5hPa | 2.5V | 00:00:00 | 00:00:00 | 00:00:00 | |
| BAUMI2-15 | 2026-09-03 00:36:49 | 47.76540 | 12.44199 | 59° | 22km/h | 29055m | -25.2m/s | -46.3°C | 3.1% | 14.4hPa | 2.6V | 00:00:00 | 02:07:29 | 00:00:00 | |
| OE8JPQ-2 | 2026-09-03 00:36:46 | 47.76537 | 12.44177 | 85° | 26km/h | 29131m | -26.1m/s | -46.1°C | 3.1% | 14.2hPa | 2.6V | 00:00:00 | 00:00:00 | 00:00:00 | |
| OE5FHM-15 | 2026-09-03 00:36:44 | 47.76537 | 12.44156 | 95° | 29km/h | 29182m | -24.7m/s | -46.0°C | 3.0% | 14.1hPa | 2.6V | 00:00:00 | 02:07:24 | 00:00:00 | |
| BAUMI2-15 | 2026-09-03 00:36:39 | 47.76546 | 12.44119 | 148° | 15km/h | 29306m | -24.8m/s | -46.0°C | 3.1% | 13.8hPa | 2.6V | 08:27:00 | 02:07:19 | 00:00:00 | |
| DF3TZ-5 | 2026-09-03 00:36:37 | 47.76556 | 12.44105 | 118° | 18km/h | 29406m | -24.6m/s | -45.7°C | -1.0% | 13.6hPa | 2.6V | 00:00:00 | 00:00:00 | 00:00:00 | |
| BAUMI2-15 | 2026-09-03 00:36:34 | 47.76558 | 12.44097 | 111° | 37km/h | 29431m | -23.9m/s | -45.5°C | 3.1% | 13.5hPa | 2.6V | 00:00:00 | 02:07:14 | 00:00:00 | |
| DG1MFX-10 | 2026-09-03 00:36:32 | 47.76560 | 12.44086 | 109° | 35km/h | 29454m | -23.5m/s | -45.5°C | 0.8% | 13.5hPa | 2.6V | 08:28:00 | 00:00:00 | 00:00:00 | |
| OE5WHR-10 | 2026-09-03 00:36:30 | 47.76572 | 12.44044 | 115° | 27km/h | 29526m | -25.0m/s | -45.0°C | 3.0% | 13.3hPa | 2.6V | 00:00:00 | 00:00:00 | 00:00:00 | |
| BAUMI2-15 | 2026-09-03 00:36:29 | 47.76576 | 12.44030 | 115° | 22km/h | 29551m | -25.6m/s | -44.9°C | 2.9% | 13.3hPa | 2.6V | 00:00:00 | 02:07:09 | 00:00:00 | |
| OE8JPQ-2 | 2026-09-03 00:36:26 | 47.76585 | 12.44006 | 133° | 24km/h | 29626m | -23.8m/s | -44.6°C | 2.9% | 13.1hPa | 2.6V | 00:00:00 | 02:07:06 | 00:00:00 | |
| BAUMI2-15 | 2026-09-03 00:36:24 | 47.76587 | 12.44009 | 278° | 22km/h | 29671m | -21.8m/s | -44.4°C | 2.9% | 13.0hPa | 2.6V | 00:00:00 | 02:07:04 | 00:00:00 | |
| OE5HKT-10 | 2026-09-03 00:36:21 | 47.76581 | 12.44034 | 294° | 44km/h | 29741m | -24.5m/s | -44.2°C | 2.9% | 12.9hPa | 2.5V | 00:00:00 | 02:07:01 | 00:00:00 | |
| BAUMI2-15 | 2026-09-03 00:36:19 | 47.76577 | 12.44048 | 286° | 18km/h | 29789m | -23.8m/s | -44.0°C | 2.8% | 12.8hPa | 2.5V | 00:00:00 | 02:06:59 | 00:00:00 | |
| BAUMI2-15 | 2026-09-03 00:36:14 | 47.76600 | 12.44036 | 152° | 46km/h | 29899m | -22.6m/s | -43.7°C | 2.7% | 12.6hPa | 2.5V | 00:00:00 | 02:06:54 | 00:00:00 | |
| DG1MFX-10 | 2026-09-03 00:36:11 | 47.76621 | 12.44019 | 153° | 49km/h | 29945m | -23.3m/s | -43.6°C | 0.7% | 12.5hPa | 2.5V | 08:28:00 | 00:00:00 | 00:00:00 | |
| BAUMI2-15 | 2026-09-03 00:36:10 | 47.76650 | 12.44003 | 173° | 15km/h | 30017m | -22.1m/s | -43.4°C | 2.7% | 12.4hPa | 2.5V | 00:00:00 | 02:06:49 | 00:00:00 | |
| OE5WHR-10 | 2026-09-03 00:36:09 | 47.76650 | 12.44003 | 173° | 37km/h | 30017m | -22.1m/s | -43.4°C | 2.7% | 12.4hPa | 2.5V | 00:00:00 | 02:06:49 | 00:00:00 | |
| OE8JPQ-2 | 2026-09-03 00:36:06 | 47.76659 | 12.44006 | 301° | 42km/h | 30078m | -19.2m/s | -43.3°C | 2.7% | 12.2hPa | 2.5V | 00:00:00 | 00:00:00 | 00:00:00 | |
| IN3HCDX | 2026-09-03 00:36:05 | 47.76659 | 12.44006 | 302° | 7km/h | 30078m | -19.2m/s | -43.4°C | 0.7% | 12.3hPa | 2.5V | 08:28:00 | 00:00:00 | 00:00:00 | |
| BAUMI2-15 | 2026-09-03 00:36:04 | 47.76653 | 12.44012 | 332° | 24km/h | 30117m | -19.9m/s | -43.3°C | 2.7% | 12.2hPa | 2.5V | 00:00:00 | 02:06:44 | 00:00:00 | |
| OE5DXL-15 | 2026-09-03 00:36:00 | 47.76640 | 12.44039 | 280° | 49km/h | 30201m | -21.0m/s | -43.2°C | 2.7% | 12.0hPa | 2.5V | 00:00:00 | 00:00:00 | 00:00:00 | |
| BAUMI2-15 | 2026-09-03 00:35:59 | 47.76640 | 12.44049 | 256° | 38km/h | 30222m | -22.4m/s | -43.2°C | 2.7% | 12.0hPa | 2.5V | 00:00:00 | 02:06:39 | 00:00:00 | |
| OE5FHM-15 | 2026-09-03 00:35:58 | 47.76643 | 12.44059 | 238° | 26km/h | 30245m | -22.6m/s | -43.1°C | 2.7% | 12.0hPa | 2.5V | 00:00:00 | 02:06:38 | 00:00:00 | |
| BAUMI2-15 | 2026-09-03 00:35:54 | 47.76682 | 12.44079 | 170° | 62km/h | 30338m | -23.7m/s | -42.8°C | 2.6% | 11.7hPa | 2.5V | 08:28:00 | 02:06:34 | 00:00:00 | |
| DG1MFX-10 | 2026-09-03 00:35:50 | 47.76719 | 12.44045 | 129° | 66km/h | 30406m | -23.1m/s | -42.8°C | 0.7% | 11.7hPa | 2.5V | 08:29:00 | 00:00:00 | 00:00:00 | |
| BAUMI2-15 | 2026-09-03 00:35:49 | 47.76734 | 12.43998 | 101° | 60km/h | 30452m | -24.5m/s | -42.8°C | 2.7% | 11.6hPa | 2.5V | 00:00:00 | 02:06:29 | 00:00:00 | |
| OE5WHR-10 | 2026-09-03 00:35:48 | 47.76735 | 12.43973 | 90° | 47km/h | 30476m | -23.5m/s | -42.7°C | 2.7% | 11.5hPa | 2.5V | 08:28:00 | 00:00:00 | 00:00:00 | |
| OE8JPQ-2 | 2026-09-03 00:35:46 | 47.76728 | 12.43928 | 64° | 47km/h | 30522m | -22.9m/s | -42.6°C | 2.7% | 11.4hPa | 2.6V | 00:00:00 | 00:00:00 | 00:00:00 | |
| OE5HKT-10 | 2026-09-03 00:35:45 | 47.76721 | 12.43912 | 46° | 40km/h | 30544m | -23.3m/s | -42.6°C | 2.6% | 11.4hPa | 2.6V | 00:00:00 | 00:00:00 | 00:00:00 | |
| BAUMI2-15 | 2026-09-03 00:35:44 | 47.76713 | 12.43903 | 30° | 31km/h | 30567m | -22.8m/s | -42.4°C | 2.6% | 11.3hPa | 2.6V | 00:00:00 | 02:06:24 | 00:00:00 | |
| OE5MMP-10 | 2026-09-03 00:35:40 | 47.76694 | 12.43921 | 264° | 47km/h | 30657m | -23.3m/s | -42.1°C | 2.6% | 11.2hPa | 2.6V | 00:00:00 | 02:06:20 | 00:00:00 | |
| BAUMI2-15 | 2026-09-03 00:35:39 | 47.76697 | 12.43934 | 243° | 49km/h | 30680m | -22.8m/s | -42.0°C | 2.6% | 11.1hPa | 2.6V | 00:00:00 | 02:06:19 | 00:00:00 | |
| BAUMI2-15 | 2026-09-03 00:35:34 | 47.76751 | 12.43969 | 161° | 53km/h | 30807m | -26.4m/s | -41.9°C | 2.6% | 10.9hPa | 2.5V | 00:00:00 | 02:06:14 | 00:00:00 | |
| DG1MFX-10 | 2026-09-03 00:35:31 | 47.76773 | 12.43927 | 95° | 57km/h | 30881m | -23.5m/s | -41.6°C | 0.6% | 10.9hPa | 2.5V | 08:29:00 | 00:00:00 | 00:00:00 | |
| OE5DXL-15 | 2026-09-03 00:35:30 | 47.76764 | 12.43886 | 50° | 42km/h | 30929m | -25.5m/s | -41.4°C | 2.4% | 10.7hPa | 2.5V | 08:29:00 | 00:00:00 | 00:00:00 | |
| BAUMI2-15 | 2026-09-03 00:35:29 | 47.76764 | 12.43886 | 50° | 62km/h | 30929m | -25.5m/s | -41.4°C | 2.4% | 10.7hPa | 2.6V | 00:00:00 | 02:06:09 | 00:00:00 | |
| OE5WHR-10 | 2026-09-03 00:35:27 | 47.76737 | 12.43864 | 10° | 47km/h | 30982m | -26.8m/s | -41.2°C | 2.4% | 10.6hPa | 2.6V | 00:00:00 | 00:00:00 | 00:00:00 | |
| OE8JPQ-2 | 2026-09-03 00:35:26 | 47.76722 | 12.43864 | 351° | 44km/h | 31008m | -25.0m/s | -41.2°C | 2.3% | 10.6hPa | 2.6V | 00:00:00 | 02:06:06 | 00:00:00 | |
| BAUMI2-15 | 2026-09-03 00:35:24 | 47.76697 | 12.43883 | 312° | 44km/h | 31054m | -21.2m/s | -41.1°C | 2.4% | 10.5hPa | 2.6V | 00:00:00 | 02:06:04 | 00:00:00 | |
| IN3HCDX | 2026-09-03 00:35:23 | 47.76697 | 12.43883 | 312° | 53km/h | 31054m | -21.2m/s | -41.2°C | 0.6% | 10.6hPa | 2.5V | 00:00:00 | 00:00:00 | 00:00:00 | |
| BAUMI2-15 | 2026-09-03 00:35:18 | 47.76727 | 12.43932 | 148° | 42km/h | 31206m | -25.9m/s | -41.3°C | 2.4% | 10.3hPa | 2.5V | 00:00:00 | 02:05:58 | 00:00:00 | |
| BAUMI2-15 | 2026-09-03 00:35:13 | 47.76716 | 12.43869 | 28° | 53km/h | 31314m | -25.0m/s | -41.2°C | 2.4% | 10.1hPa | 2.5V | 00:00:00 | 02:05:53 | 00:00:00 | |
| DG1MFX-10 | 2026-09-03 00:35:10 | 47.76675 | 12.43854 | 3° | 47km/h | 31389m | -23.6m/s | -41.4°C | 0.6% | 10.1hPa | 2.5V | 08:29:00 | 00:00:00 | 00:00:00 | |
| BAUMI2-15 | 2026-09-03 00:35:09 | 47.76656 | 12.43857 | 340° | 13km/h | 31435m | -23.3m/s | -41.4°C | 2.5% | 9.9hPa | 2.5V | 08:29:00 | 02:05:48 | 00:00:00 | |
| OE5WHR-10 | 2026-09-03 00:35:06 | 47.76649 | 12.43860 | 16° | 26km/h | 31485m | -25.0m/s | -41.5°C | 2.5% | 9.9hPa | 2.6V | 00:00:00 | 02:05:46 | 00:00:00 | |
| OE8JPQ-2 | 2026-09-03 00:35:05 | 47.76648 | 12.43857 | 110° | 26km/h | 31510m | -25.8m/s | -41.5°C | 2.5% | 9.8hPa | 2.6V | 00:00:00 | 00:00:00 | 08:30:00 | |
| IN3HCDX | 2026-09-03 00:35:04 | 47.76653 | 12.43844 | 128° | 29km/h | 31564m | -25.8m/s | -41.6°C | 0.6% | 9.8hPa | 2.6V | 00:00:00 | 00:00:00 | 00:00:00 | |
| OE5MMP-10 | 2026-09-03 00:34:57 | 47.76656 | 12.43794 | 11° | 31km/h | 31743m | -28.4m/s | -41.6°C | 2.5% | 9.5hPa | 2.6V | 00:00:00 | 02:05:37 | 00:00:00 | |
| DG1MFX-10 | 2026-09-03 00:34:49 | 47.76617 | 12.43853 | 312° | 22km/h | 31936m | -24.4m/s | -41.7°C | 0.7% | 9.3hPa | 2.6V | 00:00:00 | 00:00:00 | 00:00:00 | |
| OE5MMP-10 | 2026-09-03 00:34:31 | 47.76534 | 12.43835 | 26° | 29km/h | 32528m | -33.4m/s | -40.1°C | 2.5% | 8.4hPa | 2.6V | 00:00:00 | 02:05:11 | 00:00:00 | |
| DG1MFX-10 | 2026-09-03 00:34:30 | 47.76527 | 12.43831 | 21° | 29km/h | 32562m | -33.5m/s | -40.0°C | 0.6% | 8.4hPa | 2.6V | 00:00:00 | 00:00:00 | 00:00:00 | |
| OE5DXL-15 | 2026-09-03 00:34:28 | 47.76514 | 12.43822 | 27° | 18km/h | 32630m | -35.6m/s | -39.5°C | 2.4% | 8.3hPa | 2.6V | 00:00:00 | 00:00:00 | 00:00:00 | |
| OE8JPQ-2 | 2026-09-03 00:34:25 | 47.76495 | 12.43799 | 64° | 18km/h | 32734m | -36.9m/s | -38.8°C | 2.3% | 8.2hPa | 2.6V | 00:00:00 | 02:05:05 | 00:00:00 | |
| OE5WHR-10 | 2026-09-03 00:34:24 | 47.76493 | 12.43789 | 82° | 18km/h | 32771m | -35.7m/s | -38.6°C | 2.3% | 8.1hPa | 2.6V | 00:00:00 | 00:00:00 | 00:00:00 | |
| OE5MMP-10 | 2026-09-03 00:34:21 | 47.76499 | 12.43765 | 142° | 16km/h | 32877m | -37.4m/s | -38.3°C | 2.2% | 8.0hPa | 2.6V | 00:00:00 | 02:05:01 | 08:30:00 | |
| IN3HCDX | 2026-09-03 00:34:20 | 47.76498 | 12.43765 | 143° | 24km/h | 32877m | -37.4m/s | -38.3°C | 0.5% | 8.1hPa | 2.5V | 00:00:00 | 00:00:00 | 00:00:00 | |
| OE5MMP-10 | 2026-09-03 00:34:11 | 47.76515 | 12.43742 | 36° | 13km/h | 33272m | -39.7m/s | -37.1°C | 1.9% | 7.5hPa | 2.5V | 00:00:00 | 02:04:51 | 00:00:00 | |
| DG1MFX-10 | 2026-09-03 00:34:09 | 47.76512 | 12.43737 | 41° | 18km/h | 33311m | -37.9m/s | -37.4°C | 0.5% | 7.5hPa | 2.5V | 00:00:00 | 00:00:00 | 00:00:00 | |
| OE5HKT-10 | 2026-09-03 00:34:07 | 47.76502 | 12.43722 | 36° | 15km/h | 33400m | -20.9m/s | -38.0°C | 2.0% | 7.4hPa | 2.5V | 00:00:00 | 00:00:00 | 00:00:00 | |
| OE8JPQ-2 | 2026-09-03 00:34:05 | 47.76497 | 12.43723 | 322° | 15km/h | 33441m | -23.9m/s | -38.2°C | 2.1% | 7.3hPa | 2.5V | 00:00:00 | 00:00:00 | 00:00:00 | |
| OE5WHR-10 | 2026-09-03 00:34:03 | 47.76493 | 12.43728 | 312° | 15km/h | 33470m | -5.0m/s | -38.3°C | 2.2% | 7.3hPa | 2.5V | 00:00:00 | 02:04:43 | 00:00:00 | |
| DF3TZ-5 | 2026-09-03 00:34:02 | 47.76489 | 12.43735 | 295° | 11km/h | 33465m | 5.4m/s | 0°C | -1.0% | 7.3hPa | 2.5V | 00:00:00 | 00:00:00 | 00:00:00 | |
| OE5MMP-10 | 2026-09-03 00:34:01 | 47.76489 | 12.43735 | 296° | 9km/h | 33465m | 5.4m/s | -38.2°C | 2.2% | 7.3hPa | 2.5V | 00:00:00 | 02:04:41 | 00:00:00 | |
| IN3HCDX | 2026-09-03 00:33:59 | 47.76488 | 12.43739 | 294° | 11km/h | 33460m | 4.7m/s | -38.2°C | 0.5% | 7.3hPa | 2.5V | 00:00:00 | 00:00:00 | 00:00:00 | |
| OE5DXL-15 | 2026-09-03 00:33:58 | 47.76485 | 12.43743 | 6° | 15km/h | 33449m | 6.0m/s | -38.1°C | 2.1% | 7.3hPa | 2.5V | 00:00:00 | 00:00:00 | 00:00:00 | |
| DG1MFX-10 | 2026-09-03 00:33:49 | 47.76456 | 12.43694 | 99° | 9km/h | 33402m | 6.7m/s | -37.9°C | 0.5% | 7.4hPa | 2.5V | 00:00:00 | 00:00:00 | 00:00:00 | |
| OE5HKT-10 | 2026-09-03 00:33:46 | 47.76460 | 12.43691 | 310° | 15km/h | 33378m | 5.1m/s | -37.7°C | 2.1% | 7.4hPa | 2.5V | 00:00:00 | 02:04:26 | 00:00:00 | |
| OE8JPQ-2 | 2026-09-03 00:33:45 | 47.76458 | 12.43692 | 346° | 15km/h | 33372m | 6.4m/s | -37.7°C | 2.1% | 7.4hPa | 2.5V | 00:00:00 | 00:00:00 | 00:00:00 | |
| OE5MMP-10 | 2026-09-03 00:33:44 | 47.76455 | 12.43692 | 360° | 18km/h | 33366m | 6.5m/s | -37.6°C | 2.1% | 7.4hPa | 2.5V | 00:00:00 | 02:04:24 | 00:00:00 | |
| OE5WHR-10 | 2026-09-03 00:33:42 | 47.76445 | 12.43689 | 26° | 15km/h | 33355m | 4.4m/s | -37.6°C | 2.1% | 7.4hPa | 2.6V | 00:00:00 | 00:00:00 | 00:00:00 | |
| IN3HCDX | 2026-09-03 00:33:38 | 47.76437 | 12.43672 | 99° | 18km/h | 33337m | 6.6m/s | -37.5°C | 0.5% | 7.5hPa | 2.6V | 00:00:00 | 00:00:00 | 00:00:00 | |
| PG1ADW-2 | 2026-09-03 00:33:35 | 47.76450 | 12.43654 | 167° | 5km/h | 33313m | 6.1m/s | -37.4°C | 2.0% | 7.5hPa | 2.6V | 00:00:00 | 00:00:00 | 00:00:00 | |
| OE5MMP-10 | 2026-09-03 00:33:34 | 47.76453 | 12.43654 | 189° | 9km/h | 33307m | 6.0m/s | -37.4°C | 2.0% | 7.4hPa | 2.6V | 00:00:00 | 02:04:14 | 00:00:00 | |
| DF3TZ-5 | 2026-09-03 00:33:31 | 47.76450 | 12.43656 | 13° | 5km/h | 33285m | 5.5m/s | 0°C | -1.0% | 7.5hPa | 2.6V | 00:00:00 | 00:00:00 | 00:00:00 | |
| DG1MFX-10 | 2026-09-03 00:33:29 | 47.76448 | 12.43655 | 64° | 5km/h | 33279m | 6.5m/s | -37.5°C | 0.5% | 7.5hPa | 2.6V | 00:00:00 | 00:00:00 | 00:00:00 | |
| OE5DXL-15 | 2026-09-03 00:33:28 | 47.76448 | 12.43652 | 107° | 13km/h | 33273m | 6.5m/s | -37.4°C | 2.0% | 7.5hPa | 2.6V | 00:00:00 | 00:00:00 | 00:00:00 | |
| OE5HKT-10 | 2026-09-03 00:33:25 | 47.76456 | 12.43637 | 131° | 18km/h | 33255m | 5.3m/s | -37.7°C | 2.0% | 7.5hPa | 2.6V | 00:00:00 | 00:00:00 | 00:00:00 | |
| OE5MMP-10 | 2026-09-03 00:33:24 | 47.76458 | 12.43632 | 129° | 13km/h | 33249m | 5.1m/s | -37.9°C | 2.1% | 7.5hPa | 2.5V | 00:00:00 | 02:04:04 | 00:00:00 | |
| OE5WHR-10 | 2026-09-03 00:33:21 | 47.76463 | 12.43622 | 136° | 13km/h | 33231m | 5.8m/s | -38.1°C | 2.1% | 7.5hPa | 2.5V | 00:00:00 | 00:00:00 | 00:00:00 | |
| IN3HCDX | 2026-09-03 00:33:18 | 47.76464 | 12.43624 | 230° | 9km/h | 33220m | 5.9m/s | -38.1°C | 0.5% | 7.6hPa | 2.5V | 00:00:00 | 00:00:00 | 00:00:00 | |
| OE5MMP-10 | 2026-09-03 00:33:14 | 47.76487 | 12.43632 | 171° | 16km/h | 33191m | 6.0m/s | -38.1°C | 2.1% | 7.6hPa | 2.5V | 00:00:00 | 02:03:54 | 00:00:00 | |
| DG1MFX-10 | 2026-09-03 00:33:07 | 47.76508 | 12.43610 | 149° | 16km/h | 33155m | 6.3m/s | -38.1°C | 0.5% | 7.7hPa | 2.6V | 00:00:00 | 00:00:00 | 00:00:00 | |
| OE8JPQ-2 | 2026-09-03 00:33:05 | 47.76517 | 12.43608 | 204° | 11km/h | 33138m | 5.5m/s | -38.0°C | 2.1% | 7.6hPa | 2.6V | 00:00:00 | 00:00:00 | 00:00:00 | |
| OE5MMP-10 | 2026-09-03 00:33:04 | 47.76518 | 12.43609 | 242° | 11km/h | 33132m | 6.7m/s | -38.0°C | 2.1% | 7.7hPa | 2.5V | 00:00:00 | 02:03:44 | 00:00:00 | |
| BAUMI2-15 | 2026-09-03 00:33:01 | 47.76516 | 12.43614 | 352° | 11km/h | 33115m | 4.5m/s | -37.9°C | 2.1% | 7.7hPa | 2.5V | 00:00:00 | 02:03:41 | 00:00:00 | |
| OE5WHR-10 | 2026-09-03 00:33:00 | 47.76516 | 12.43614 | 94° | 13km/h | 33110m | 5.5m/s | -37.9°C | 2.1% | 7.7hPa | 2.5V | 00:00:00 | 02:03:40 | 00:00:00 | |
| OE5DXL-15 | 2026-09-03 00:32:57 | 47.76522 | 12.43603 | 137° | 15km/h | 33090m | 5.6m/s | -37.9°C | 2.1% | 7.7hPa | 2.5V | 00:00:00 | 00:00:00 | 00:00:00 | |
| BAUMI2-15 | 2026-09-03 00:32:56 | 47.76526 | 12.43597 | 134° | 15km/h | 33085m | 4.8m/s | -37.9°C | 2.1% | 7.7hPa | 2.5V | 00:00:00 | 02:03:36 | 00:00:00 | |
| OE5MMP-10 | 2026-09-03 00:32:54 | 47.76531 | 12.43587 | 107° | 16km/h | 33075m | 6.1m/s | -37.9°C | 2.1% | 7.7hPa | 2.5V | 00:00:00 | 02:03:34 | 00:00:00 | |
| BAUMI2-15 | 2026-09-03 00:32:51 | 47.76526 | 12.43580 | 2° | 7km/h | 33057m | 5.3m/s | -37.9°C | 2.1% | 7.7hPa | 2.5V | 00:00:00 | 02:03:31 | 00:00:00 | |
| BAUMI2-15 | 2026-09-03 00:32:46 | 47.76520 | 12.43579 | 139° | 11km/h | 33028m | 5.1m/s | -38.0°C | 2.1% | 7.8hPa | 2.5V | 00:00:00 | 02:03:26 | 00:00:00 | |
| OE8JPQ-2 | 2026-09-03 00:32:45 | 47.76521 | 12.43577 | 124° | 15km/h | 33024m | 4.5m/s | -38.1°C | 2.1% | 7.8hPa | 2.5V | 00:00:00 | 00:00:00 | 00:00:00 | |
| BAUMI2-15 | 2026-09-03 00:32:41 | 47.76518 | 12.43558 | 46° | 18km/h | 33000m | 5.5m/s | -38.2°C | 2.1% | 7.8hPa | 2.5V | 00:00:00 | 02:03:21 | 00:00:00 | |
| OE5WHR-10 | 2026-09-03 00:32:39 | 47.76510 | 12.43547 | 47° | 16km/h | 32990m | 5.4m/s | -38.3°C | 2.1% | 7.8hPa | 2.5V | 00:00:00 | 00:00:00 | 08:30:00 | |
| BAUMI2-15 | 2026-09-03 00:32:36 | 47.76505 | 12.43532 | 80° | 13km/h | 32972m | 5.3m/s | -38.4°C | 2.1% | 7.9hPa | 2.6V | 00:00:00 | 02:03:16 | 00:00:00 | |
| BAUMI2-15 | 2026-09-03 00:32:31 | 47.76499 | 12.43512 | 59° | 16km/h | 32944m | 5.4m/s | -38.5°C | 2.1% | 7.9hPa | 2.5V | 00:00:00 | 02:03:11 | 00:00:00 | |
| BAUMI2-15 | 2026-09-03 00:32:26 | 47.76492 | 12.43480 | 65° | 20km/h | 32917m | 4.9m/s | -38.5°C | 2.1% | 7.9hPa | 2.5V | 00:00:00 | 02:03:06 | 00:00:00 | |
| OE8JPQ-2 | 2026-09-03 00:32:25 | 47.76490 | 12.43475 | 50° | 18km/h | 32911m | 6.3m/s | -38.5°C | 2.1% | 7.9hPa | 2.5V | 00:00:00 | 02:03:05 | 00:00:00 | |
| BAUMI2-15 | 2026-09-03 00:32:21 | 47.76471 | 12.43459 | 29° | 16km/h | 32888m | 5.4m/s | -38.6°C | 2.1% | 8.0hPa | 2.5V | 00:00:00 | 02:03:01 | 08:30:00 | |
| OE5WHR-10 | 2026-09-03 00:32:18 | 47.76464 | 12.43445 | 76° | 22km/h | 32870m | 5.0m/s | -38.6°C | 2.1% | 8.0hPa | 2.6V | 00:00:00 | 00:00:00 | 00:00:00 | |
| BAUMI2-15 | 2026-09-03 00:32:16 | 47.76461 | 12.43432 | 64° | 22km/h | 32860m | 5.9m/s | -38.7°C | 2.1% | 8.0hPa | 2.6V | 00:00:00 | 02:02:56 | 00:00:00 | |
| IN3HCDX | 2026-09-03 00:32:15 | 47.76461 | 12.43432 | 65° | 18km/h | 32860m | 6.0m/s | -38.7°C | 0.5% | 8.0hPa | 2.6V | 00:00:00 | 00:00:00 | 00:00:00 | |
| BAUMI2-15 | 2026-09-03 00:32:11 | 47.76440 | 12.43406 | 34° | 16km/h | 32833m | 5.5m/s | -38.8°C | 2.1% | 8.0hPa | 2.6V | 00:00:00 | 02:02:51 | 00:00:00 | |
| BAUMI2-15 | 2026-09-03 00:32:06 | 47.76424 | 12.43388 | 24° | 26km/h | 32805m | 6.0m/s | -38.8°C | 2.1% | 8.1hPa | 2.6V | 00:00:00 | 02:02:46 | 00:00:00 | |
| OE8JPQ-2 | 2026-09-03 00:32:05 | 47.76419 | 12.43385 | 19° | 24km/h | 32800m | 5.9m/s | -38.8°C | 2.1% | 8.1hPa | 2.6V | 00:00:00 | 00:00:00 | 08:30:00 | |
| BAUMI2-15 | 2026-09-03 00:32:01 | 47.76394 | 12.43365 | 43° | 26km/h | 32778m | 6.3m/s | -38.9°C | 2.1% | 8.1hPa | 2.5V | 00:00:00 | 02:02:41 | 00:00:00 | |
| OE5WHR-10 | 2026-09-03 00:31:57 | 47.76377 | 12.43337 | 35° | 18km/h | 32756m | 5.6m/s | -39.1°C | 2.2% | 8.1hPa | 2.5V | 00:00:00 | 02:02:37 | 00:00:00 | |
| BAUMI2-15 | 2026-09-03 00:31:56 | 47.76373 | 12.43334 | 16° | 20km/h | 32750m | 6.2m/s | -39.1°C | 2.1% | 8.1hPa | 2.5V | 00:00:00 | 02:02:36 | 00:00:00 | |
| IN3HCDX | 2026-09-03 00:31:54 | 47.76368 | 12.43333 | 361° | 22km/h | 32744m | 5.4m/s | -39.3°C | 0.5% | 8.2hPa | 2.5V | 00:00:00 | 00:00:00 | 00:00:00 | |
| BAUMI2-15 | 2026-09-03 00:31:51 | 47.76349 | 12.43335 | 18° | 18km/h | 32723m | 5.5m/s | -39.4°C | 2.1% | 8.2hPa | 2.5V | 00:00:00 | 02:02:31 | 00:00:00 | |
| OE5HKT-10 | 2026-09-03 00:31:49 | 47.76344 | 12.43328 | 53° | 16km/h | 32712m | 4.9m/s | -39.5°C | 2.2% | 8.2hPa | 2.6V | 00:00:00 | 00:00:00 | 00:00:00 | |
| BAUMI2-15 | 2026-09-03 00:31:46 | 47.76331 | 12.43307 | 42° | 26km/h | 32696m | 5.7m/s | -39.6°C | 2.2% | 8.2hPa | 2.6V | 00:00:00 | 02:02:26 | 00:00:00 | |
| OE8JPQ-2 | 2026-09-03 00:31:45 | 47.76325 | 12.43300 | 38° | 15km/h | 32690m | 4.7m/s | -39.7°C | 2.2% | 8.2hPa | 2.6V | 00:00:00 | 00:00:00 | 00:00:00 | |
| BAUMI2-15 | 2026-09-03 00:31:41 | 47.76308 | 12.43279 | 52° | 5km/h | 32670m | 5.6m/s | -39.9°C | 2.3% | 8.2hPa | 2.6V | 00:00:00 | 02:02:21 | 00:00:00 | |
| BAUMI2-15 | 2026-09-03 00:31:36 | 47.76304 | 12.43284 | 343° | 16km/h | 32643m | 4.7m/s | -40.1°C | 2.3% | 8.3hPa | 2.6V | 00:00:00 | 02:02:16 | 08:30:00 | |
| IN3HCDX | 2026-09-03 00:31:34 | 47.76297 | 12.43283 | 27° | 18km/h | 32635m | 4.6m/s | -40.2°C | 0.6% | 8.3hPa | 2.6V | 00:00:00 | 00:00:00 | 00:00:00 | |
| BAUMI2-15 | 2026-09-03 00:31:31 | 47.76288 | 12.43268 | 76° | 11km/h | 32618m | 5.4m/s | -40.2°C | 2.3% | 8.3hPa | 2.6V | 00:00:00 | 02:02:11 | 00:00:00 | |
| OE5HKT-10 | 2026-09-03 00:31:28 | 47.76287 | 12.43254 | 56° | 11km/h | 32604m | 5.2m/s | -40.3°C | 2.3% | 8.3hPa | 2.6V | 00:00:00 | 02:02:08 | 00:00:00 | |
| OE5DXL-15 | 2026-09-03 00:31:27 | 47.76286 | 12.43253 | 358° | 16km/h | 32598m | 5.6m/s | -40.3°C | 2.3% | 8.3hPa | 2.6V | 00:00:00 | 00:00:00 | 00:00:00 | |
| BAUMI2-15 | 2026-09-03 00:31:26 | 47.76283 | 12.43254 | 343° | 15km/h | 32593m | 5.5m/s | -40.4°C | 2.3% | 8.3hPa | 2.6V | 00:00:00 | 02:02:06 | 00:00:00 | |
| OE8JPQ-2 | 2026-09-03 00:31:25 | 47.76279 | 12.43256 | 343° | 13km/h | 32588m | 5.0m/s | -40.4°C | 2.3% | 8.3hPa | 2.6V | 00:00:00 | 02:02:05 | 00:00:00 | |
| BAUMI2-15 | 2026-09-03 00:31:21 | 47.76265 | 12.43258 | 32° | 7km/h | 32568m | 5.4m/s | -40.6°C | 2.3% | 8.3hPa | 2.6V | 00:00:00 | 02:02:01 | 00:00:00 | |
| BAUMI2-15 | 2026-09-03 00:31:16 | 47.76260 | 12.43244 | 45° | 20km/h | 32543m | 5.4m/s | -40.6°C | 2.4% | 8.4hPa | 2.5V | 00:00:00 | 02:01:56 | 00:00:00 | |
| OE5WHR-10 | 2026-09-03 00:31:15 | 47.76257 | 12.43239 | 43° | 18km/h | 32537m | 5.4m/s | -40.6°C | 2.4% | 8.4hPa | 2.5V | 00:00:00 | 00:00:00 | 00:00:00 | |
| IN3HCDX | 2026-09-03 00:31:13 | 47.76249 | 12.43228 | 49° | 22km/h | 32527m | 4.6m/s | -40.7°C | 0.6% | 8.4hPa | 2.5V | 00:00:00 | 00:00:00 | 00:00:00 | |
| BAUMI2-15 | 2026-09-03 00:31:11 | 47.76244 | 12.43216 | 64° | 9km/h | 32518m | 4.4m/s | -40.6°C | 2.4% | 8.4hPa | 2.5V | 00:00:00 | 02:01:51 | 00:00:00 | |
| BAUMI2-15 | 2026-09-03 00:31:06 | 47.76239 | 12.43218 | 326° | 22km/h | 32494m | 4.5m/s | -40.6°C | 2.3% | 8.5hPa | 2.5V | 00:00:00 | 02:01:46 | 00:00:00 | |
| OE8JPQ-2 | 2026-09-03 00:31:05 | 47.76234 | 12.43221 | 347° | 27km/h | 32490m | 4.7m/s | -40.6°C | 2.4% | 8.5hPa | 2.5V | 00:00:00 | 00:00:00 | 00:00:00 | |
| DG1MFX-10 | 2026-09-03 00:31:04 | 47.76234 | 12.43221 | 348° | 22km/h | 32490m | 4.8m/s | -40.6°C | 0.6% | 8.5hPa | 2.6V | 00:00:00 | 00:00:00 | 00:00:00 | |
| DL6DJ-15 | 2026-09-03 00:31:03 | 47.76207 | 12.43201 | 51° | 37km/h | 32469m | 4.6m/s | -40.6°C | -1.0% | -1.0hPa | 2.6V | 00:00:00 | 00:00:00 | 00:00:00 | |
| OE5DXL-15 | 2026-09-03 00:30:57 | 47.76197 | 12.43167 | 66° | 22km/h | 32451m | 5.3m/s | -40.6°C | 2.3% | 8.5hPa | 2.6V | 00:00:00 | 00:00:00 | 08:30:00 | |
| OE5WHR-10 | 2026-09-03 00:30:54 | 47.76189 | 12.43175 | 323° | 26km/h | 32434m | 4.7m/s | -40.5°C | 2.3% | 8.5hPa | 2.5V | 00:00:00 | 02:01:34 | 00:00:00 | |
| IN3HCDX | 2026-09-03 00:30:52 | 47.76183 | 12.43180 | 333° | 29km/h | 32430m | 4.2m/s | -40.6°C | 0.6% | 8.6hPa | 2.5V | 00:00:00 | 00:00:00 | 00:00:00 | |
| OE8JPQ-2 | 2026-09-03 00:30:45 | 47.76136 | 12.43147 | 46° | 20km/h | 32388m | 5.0m/s | -40.8°C | 2.4% | 8.6hPa | 2.5V | 00:00:00 | 00:00:00 | 00:00:00 | |
| DG1MFX-10 | 2026-09-03 00:30:43 | 47.76130 | 12.43141 | 33° | 26km/h | 32383m | 4.9m/s | -40.9°C | 0.6% | 8.6hPa | 2.5V | 00:00:00 | 00:00:00 | 00:00:00 | |
| OE5WHR-10 | 2026-09-03 00:30:33 | 47.76078 | 12.43161 | 11° | 20km/h | 32327m | 4.7m/s | -40.9°C | 2.4% | 8.6hPa | 2.5V | 00:00:00 | 00:00:00 | 00:00:00 | |
| IN3HCDX | 2026-09-03 00:30:31 | 47.76073 | 12.43158 | 28° | 22km/h | 32321m | 6.0m/s | -40.9°C | 0.6% | 8.7hPa | 2.5V | 00:00:00 | 00:00:00 | 00:00:00 | |
| OE5DXL-15 | 2026-09-03 00:30:27 | 47.76056 | 12.43133 | 21° | 18km/h | 32295m | 5.8m/s | -40.8°C | 2.4% | 8.7hPa | 2.5V | 00:00:00 | 00:00:00 | 00:00:00 | |
| OE8JPQ-2 | 2026-09-03 00:30:25 | 47.76047 | 12.43133 | 343° | 18km/h | 32284m | 5.1m/s | -40.7°C | 2.3% | 8.7hPa | 2.5V | 00:00:00 | 02:01:05 | 00:00:00 | |
| DG1MFX-10 | 2026-09-03 00:30:22 | 47.76036 | 12.43140 | 333° | 22km/h | 32274m | 5.2m/s | -40.8°C | 0.6% | 8.8hPa | 2.5V | 00:00:00 | 00:00:00 | 00:00:00 | |
| OE5WHR-10 | 2026-09-03 00:30:12 | 47.75987 | 12.43118 | 22° | 18km/h | 32217m | 5.8m/s | -41.0°C | 2.4% | 8.8hPa | 2.5V | 00:00:00 | 00:00:00 | 00:00:00 | |
| IN3HCDX | 2026-09-03 00:30:10 | 47.75984 | 12.43116 | 23° | 11km/h | 32211m | 5.6m/s | -41.0°C | 0.6% | 8.9hPa | 2.5V | 00:00:00 | 00:00:00 | 00:00:00 | |
| OE8JPQ-2 | 2026-09-03 00:30:05 | 47.75959 | 12.43108 | 13° | 22km/h | 32180m | 4.9m/s | -41.1°C | 2.4% | 8.9hPa | 2.5V | 00:00:00 | 00:00:00 | 00:00:00 | |
| DG1MFX-10 | 2026-09-03 00:30:01 | 47.75942 | 12.43101 | 19° | 16km/h | 32163m | 5.2m/s | -41.3°C | 0.6% | 8.9hPa | 2.5V | 00:00:00 | 00:00:00 | 00:00:00 | |
| DF3TZ-5 | 2026-09-03 00:29:53 | 47.75858 | 12.43128 | 331° | 31km/h | 32078m | 5.7m/s | 0°C | -1.0% | -1.0hPa | 2.5V | 00:00:00 | 00:00:00 | 00:00:00 | |
| OE5WHR-10 | 2026-09-03 00:29:51 | 47.75895 | 12.43109 | 349° | 24km/h | 32105m | 4.7m/s | -41.4°C | 2.4% | 9.0hPa | 2.5V | 00:00:00 | 02:00:31 | 00:00:00 | |
| IN3HCDX | 2026-09-03 00:29:49 | 47.75889 | 12.43111 | 347° | 27km/h | 32100m | 6.1m/s | -41.5°C | 0.6% | 9.0hPa | 2.5V | 00:00:00 | 00:00:00 | 00:00:00 | |
| OE8JPQ-2 | 2026-09-03 00:29:45 | 47.75852 | 12.43134 | 326° | 16km/h | 32073m | 6.1m/s | -41.6°C | 2.4% | 9.0hPa | 2.5V | 00:00:00 | 00:00:00 | 00:00:00 | |
| DG1MFX-10 | 2026-09-03 00:29:41 | 47.75842 | 12.43146 | 329° | 13km/h | 32057m | 4.6m/s | -41.7°C | 0.7% | 9.1hPa | 2.5V | 00:00:00 | 00:00:00 | 00:00:00 | |
| OE5DRO-10 | 2026-09-03 00:29:31 | 47.75786 | 12.43173 | 342° | 11km/h | 31985m | 5.0m/s | -41.7°C | 2.5% | 9.1hPa | 2.5V | 00:00:00 | 00:00:00 | 00:00:00 | |
| IN3HCDX | 2026-09-03 00:29:28 | 47.75786 | 12.43173 | 343° | 11km/h | 31985m | 5.0m/s | -41.8°C | 0.6% | 9.2hPa | 2.5V | 00:00:00 | 00:00:00 | 00:00:00 | |
| OE5DXL-15 | 2026-09-03 00:29:27 | 47.75783 | 12.43174 | 5° | 9km/h | 31973m | 6.6m/s | -41.8°C | 2.5% | 9.2hPa | 2.5V | 00:00:00 | 00:00:00 | 00:00:00 | |
| OE8JPQ-2 | 2026-09-03 00:29:25 | 47.75781 | 12.43173 | 35° | 9km/h | 31962m | 5.1m/s | -41.8°C | 2.5% | 9.2hPa | 2.5V | 00:00:00 | 02:00:05 | 00:00:00 | |
| DG1MFX-10 | 2026-09-03 00:29:20 | 47.75769 | 12.43171 | 352° | 16km/h | 31939m | 4.5m/s | -41.8°C | 0.7% | 9.3hPa | 2.5V | 00:00:00 | 00:00:00 | 00:00:00 | |
| OE5DRO-10 | 2026-09-03 00:29:10 | 47.75766 | 12.43174 | 113° | 11km/h | 31870m | 5.5m/s | -41.8°C | 2.5% | 9.3hPa | 2.5V | 00:00:00 | 00:00:00 | 00:00:00 | |
| OE5WHR-10 | 2026-09-03 00:29:09 | 47.75766 | 12.43174 | 113° | 11km/h | 31870m | 5.5m/s | -41.8°C | 2.5% | 9.3hPa | 2.5V | 00:00:00 | 00:00:00 | 00:00:00 | |
| IN3HCDX | 2026-09-03 00:29:07 | 47.75768 | 12.43171 | 115° | 9km/h | 31865m | 5.1m/s | -41.8°C | 0.6% | 9.3hPa | 2.5V | 00:00:00 | 00:00:00 | 00:00:00 | |
| OE8JPQ-2 | 2026-09-03 00:29:05 | 47.75767 | 12.43167 | 332° | 11km/h | 31848m | 5.6m/s | -41.8°C | 2.5% | 9.3hPa | 2.5V | 00:00:00 | 00:00:00 | 08:30:00 | |
| BAUMI2-15 | 2026-09-03 00:29:02 | 47.75769 | 12.43174 | 228° | 16km/h | 31831m | 6.5m/s | -41.7°C | 2.5% | 9.3hPa | 2.5V | 00:00:00 | 01:59:42 | 00:00:00 | |
| DG1MFX-10 | 2026-09-03 00:29:00 | 47.75771 | 12.43177 | 210° | 16km/h | 31825m | 6.0m/s | -41.7°C | 0.7% | 9.4hPa | 2.5V | 00:00:00 | 00:00:00 | 00:00:00 | |
| BAUMI2-15 | 2026-09-03 00:28:57 | 47.75787 | 12.43176 | 128° | 16km/h | 31802m | 6.0m/s | -41.6°C | 2.5% | 9.4hPa | 2.5V | 00:00:00 | 01:59:37 | 00:00:00 | |
| OE5DRO-10 | 2026-09-03 00:28:52 | 47.75795 | 12.43141 | 132° | 9km/h | 31757m | 6.5m/s | -41.6°C | 2.5% | 9.5hPa | 2.5V | 00:00:00 | 00:00:00 | 00:00:00 | |
| BAUMI2-15 | 2026-09-03 00:28:48 | 47.75795 | 12.43141 | 311° | 5km/h | 31745m | 5.7m/s | -41.6°C | 2.5% | 9.5hPa | 2.5V | 00:00:00 | 01:59:27 | 00:00:00 | |
| OE8JPQ-2 | 2026-09-03 00:28:45 | 47.75795 | 12.43144 | 234° | 9km/h | 31733m | 6.2m/s | -41.5°C | 2.5% | 9.5hPa | 2.5V | 00:00:00 | 00:00:00 | 00:00:00 | |
| BAUMI2-15 | 2026-09-03 00:28:42 | 47.75799 | 12.43144 | 145° | 13km/h | 31717m | 4.9m/s | -41.5°C | 2.5% | 9.5hPa | 2.5V | 00:00:00 | 01:59:22 | 00:00:00 | |
| BAUMI2-15 | 2026-09-03 00:28:37 | 47.75796 | 12.43123 | 66° | 7km/h | 31687m | 6.0m/s | -41.4°C | 2.4% | 9.5hPa | 2.5V | 00:00:00 | 01:59:17 | 00:00:00 | |
| BAUMI2-15 | 2026-09-03 00:28:32 | 47.75795 | 12.43111 | 92° | 5km/h | 31658m | 6.3m/s | -41.3°C | 2.4% | 9.6hPa | 2.5V | 00:00:00 | 01:59:12 | 00:00:00 | |
| OE5WHR-10 | 2026-09-03 00:28:27 | 47.75799 | 12.43101 | 131° | 15km/h | 31630m | 5.1m/s | -41.4°C | 2.4% | 9.6hPa | 2.5V | 00:00:00 | 00:00:00 | 00:00:00 | |
| IN3HCDX | 2026-09-03 00:28:26 | 47.75799 | 12.43101 | 131° | 11km/h | 31630m | 5.2m/s | -41.5°C | 0.6% | 9.7hPa | 2.5V | 00:00:00 | 00:00:00 | 00:00:00 | |
| OE8JPQ-2 | 2026-09-03 00:28:25 | 47.75801 | 12.43092 | 95° | 15km/h | 31620m | 5.1m/s | -41.5°C | 2.5% | 9.6hPa | 2.5V | 00:00:00 | 01:59:05 | 00:00:00 | |
| BAUMI2-15 | 2026-09-03 00:28:22 | 47.75796 | 12.43070 | 57° | 16km/h | 31601m | 5.3m/s | -41.6°C | 2.5% | 9.7hPa | 2.5V | 00:00:00 | 01:59:02 | 00:00:00 | |
| DG1MFX-10 | 2026-09-03 00:28:18 | 47.75788 | 12.43052 | 66° | 11km/h | 31585m | 6.5m/s | -41.6°C | 0.7% | 9.8hPa | 2.5V | 00:00:00 | 00:00:00 | 00:00:00 | |
| BAUMI2-15 | 2026-09-03 00:28:17 | 47.75788 | 12.43048 | 154° | 5km/h | 31573m | 5.3m/s | -41.6°C | 2.5% | 9.7hPa | 2.5V | 00:00:00 | 01:58:57 | 00:00:00 | |
| BAUMI2-15 | 2026-09-03 00:28:12 | 47.75789 | 12.43039 | 70° | 15km/h | 31546m | 5.6m/s | -41.5°C | 2.5% | 9.8hPa | 2.5V | 00:00:00 | 01:58:52 | 00:00:00 | |
| BAUMI2-15 | 2026-09-03 00:28:07 | 47.75781 | 12.43013 | 57° | 22km/h | 31517m | 6.7m/s | -41.4°C | 2.5% | 9.8hPa | 2.5V | 00:00:00 | 01:58:47 | 08:30:00 | |
| OE5WHR-10 | 2026-09-03 00:28:06 | 47.75777 | 12.43006 | 53° | 16km/h | 31510m | 5.9m/s | -41.4°C | 2.5% | 9.8hPa | 2.6V | 00:00:00 | 00:00:00 | 00:00:00 | |
| OE5DRO-10 | 2026-09-03 00:28:05 | 47.75770 | 12.42992 | 53° | 16km/h | 31500m | 4.6m/s | -41.4°C | 2.5% | 9.8hPa | 2.6V | 00:00:00 | 00:00:00 | 00:00:00 | |
| BAUMI2-15 | 2026-09-03 00:28:02 | 47.75767 | 12.42984 | 79° | 7km/h | 31489m | 6.6m/s | -41.3°C | 2.4% | 9.9hPa | 2.6V | 00:00:00 | 01:58:42 | 00:00:00 | |
| BAUMI2-15 | 2026-09-03 00:27:57 | 47.75768 | 12.42970 | 71° | 26km/h | 31460m | 5.6m/s | -41.3°C | 2.5% | 9.9hPa | 2.6V | 00:00:00 | 01:58:37 | 00:00:00 | |
| OE5DXL-15 | 2026-09-03 00:27:56 | 47.75766 | 12.42962 | 68° | 18km/h | 31455m | 5.3m/s | -41.3°C | 2.5% | 9.9hPa | 2.6V | 00:00:00 | 00:00:00 | 00:00:00 | |
| BAUMI2-15 | 2026-09-03 00:27:52 | 47.75755 | 12.42928 | 61° | 18km/h | 31432m | 5.1m/s | -41.2°C | 2.4% | 9.9hPa | 2.5V | 00:00:00 | 01:58:32 | 00:00:00 | |
| BAUMI2-15 | 2026-09-03 00:27:47 | 47.75737 | 12.42910 | 18° | 15km/h | 31404m | 5.3m/s | -41.2°C | 2.4% | 10.0hPa | 2.5V | 00:00:00 | 01:58:27 | 00:00:00 | |
| OE5WHR-10 | 2026-09-03 00:27:45 | 47.75728 | 12.42906 | 29° | 15km/h | 31394m | 5.3m/s | -41.1°C | 2.4% | 10.0hPa | 2.5V | 00:00:00 | 01:58:25 | 00:00:00 | |
| IN3HCDX | 2026-09-03 00:27:44 | 47.75729 | 12.42906 | 30° | 15km/h | 31394m | 5.4m/s | -41.2°C | 0.6% | 10.0hPa | 2.5V | 00:00:00 | 00:00:00 | 00:00:00 | |
| BAUMI2-15 | 2026-09-03 00:27:42 | 47.75726 | 12.42896 | 104° | 16km/h | 31376m | 4.9m/s | -41.1°C | 2.4% | 10.0hPa | 2.5V | 00:00:00 | 01:58:22 | 00:00:00 | |
| BAUMI2-15 | 2026-09-03 00:27:37 | 47.75717 | 12.42866 | 42° | 18km/h | 31349m | 4.9m/s | -41.1°C | 2.4% | 10.1hPa | 2.5V | 00:00:00 | 01:58:17 | 00:00:00 | |
| DG1MFX-10 | 2026-09-03 00:27:36 | 47.75718 | 12.42866 | 42° | 24km/h | 31349m | 4.9m/s | -41.2°C | 0.6% | 10.1hPa | 2.5V | 00:00:00 | 00:00:00 | 00:00:00 | |
| BAUMI2-15 | 2026-09-03 00:27:32 | 47.75698 | 12.42857 | 351° | 16km/h | 31322m | 4.7m/s | -41.2°C | 2.5% | 10.1hPa | 2.5V | 00:00:00 | 01:58:12 | 00:00:00 | |
| OE5DXL-15 | 2026-09-03 00:27:27 | 47.75677 | 12.42845 | 54° | 20km/h | 31288m | 6.0m/s | -41.3°C | 2.5% | 10.2hPa | 2.5V | 00:00:00 | 00:00:00 | 00:00:00 | |
| OE8JPQ-2 | 2026-09-03 00:27:25 | 47.75675 | 12.42841 | 56° | 18km/h | 31283m | 4.8m/s | -41.3°C | 2.5% | 10.2hPa | 2.5V | 00:00:00 | 01:58:05 | 00:00:00 | |
| OE5WHR-10 | 2026-09-03 00:27:24 | 47.75673 | 12.42838 | 47° | 22km/h | 31278m | 4.5m/s | -41.3°C | 2.5% | 10.2hPa | 2.5V | 00:00:00 | 00:00:00 | 00:00:00 | |
| IN3HCDX | 2026-09-03 00:27:23 | 47.75673 | 12.42838 | 47° | 13km/h | 31278m | 4.5m/s | -41.4°C | 0.7% | 10.2hPa | 2.5V | 00:00:00 | 00:00:00 | 00:00:00 | |
| OE5HKT-10 | 2026-09-03 00:27:22 | 47.75666 | 12.42831 | 21° | 26km/h | 31266m | 6.2m/s | -41.3°C | 2.5% | 10.2hPa | 2.5V | 00:00:00 | 00:00:00 | 08:30:00 | |
| BAUMI2-15 | 2026-09-03 00:27:17 | 47.75638 | 12.42833 | 341° | 16km/h | 31237m | 4.9m/s | -41.3°C | 2.5% | 10.2hPa | 2.5V | 00:00:00 | 01:57:57 | 00:00:00 | |
| DG1MFX-10 | 2026-09-03 00:27:16 | 47.75638 | 12.42833 | 341° | 18km/h | 31237m | 5.0m/s | -41.3°C | 0.6% | 10.3hPa | 2.5V | 00:00:00 | 00:00:00 | 00:00:00 | |
| BAUMI2-15 | 2026-09-03 00:27:12 | 47.75620 | 12.42822 | 58° | 18km/h | 31210m | 5.6m/s | -41.1°C | 2.4% | 10.3hPa | 2.5V | 00:00:00 | 01:57:52 | 00:00:00 | |
| BAUMI2-15 | 2026-09-03 00:27:07 | 47.75607 | 12.42797 | 13° | 27km/h | 31183m | 5.4m/s | -41.0°C | 2.4% | 10.3hPa | 2.5V | 00:00:00 | 01:57:47 | 00:00:00 | |
| OE8JPQ-2 | 2026-09-03 00:27:05 | 47.75594 | 12.42796 | 355° | 22km/h | 31171m | 6.1m/s | -41.0°C | 2.4% | 10.4hPa | 2.6V | 00:00:00 | 00:00:00 | 00:00:00 | |
| OE5WHR-10 | 2026-09-03 00:27:03 | 47.75577 | 12.42801 | 344° | 18km/h | 31161m | 4.6m/s | -41.0°C | 2.4% | 10.4hPa | 2.6V | 00:00:00 | 00:00:00 | 00:00:00 | |
| IN3HCDX | 2026-09-03 00:27:02 | 47.75577 | 12.42801 | 344° | 35km/h | 31161m | 4.6m/s | -41.1°C | 0.6% | 10.4hPa | 2.6V | 00:00:00 | 00:00:00 | 00:00:00 | |
| OE5HKT-10 | 2026-09-03 00:27:01 | 47.75562 | 12.42810 | 333° | 24km/h | 31150m | 5.8m/s | -41.0°C | 2.4% | 10.4hPa | 2.6V | 00:00:00 | 00:00:00 | 00:00:00 | |
| OE5DXL-15 | 2026-09-03 00:26:56 | 47.75546 | 12.42808 | 55° | 15km/h | 31121m | 4.9m/s | -41.0°C | 2.4% | 10.4hPa | 2.6V | 00:00:00 | 00:00:00 | 00:00:00 | |
| OE5DRO-10 | 2026-09-03 00:26:47 | 47.75497 | 12.42798 | 4° | 9km/h | 31068m | 3.9m/s | -40.9°C | 2.4% | 10.5hPa | 2.6V | 00:00:00 | 00:00:00 | 08:30:00 | |
| OE8JPQ-2 | 2026-09-03 00:26:45 | 47.75492 | 12.42798 | 8° | 13km/h | 31063m | 4.9m/s | -40.9°C | 2.4% | 10.5hPa | 2.6V | 00:00:00 | 00:00:00 | 00:00:00 | |
| IN3HCDX | 2026-09-03 00:26:42 | 47.75490 | 12.42798 | 204° | 9km/h | 31044m | 5.9m/s | -41.0°C | 0.6% | 10.6hPa | 2.6V | 00:00:00 | 00:00:00 | 00:00:00 | |
| OE5WHR-10 | 2026-09-03 00:26:41 | 47.75492 | 12.42799 | 214° | 13km/h | 31039m | 4.2m/s | -40.9°C | 2.4% | 10.6hPa | 2.6V | 00:00:00 | 01:57:21 | 00:00:00 | |
| DG1MFX-10 | 2026-09-03 00:26:35 | 47.75478 | 12.42805 | 358° | 27km/h | 31012m | 5.3m/s | -41.2°C | 0.6% | 10.7hPa | 2.6V | 00:00:00 | 00:00:00 | 00:00:00 | |
| OE5HKT-10 | 2026-09-03 00:26:34 | 47.75465 | 12.42806 | 356° | 18km/h | 31001m | 5.2m/s | -41.3°C | 2.4% | 10.6hPa | 2.6V | 00:00:00 | 01:57:14 | 00:00:00 | |
| OE5DRO-10 | 2026-09-03 00:26:28 | 47.75461 | 12.42808 | 204° | 15km/h | 30968m | 4.9m/s | -41.4°C | 2.4% | 10.7hPa | 2.6V | 00:00:00 | 00:00:00 | 00:00:00 | |
| OE5DXL-15 | 2026-09-03 00:26:26 | 47.75467 | 12.42814 | 226° | 11km/h | 30957m | 6.4m/s | -41.5°C | 2.4% | 10.7hPa | 2.6V | 00:00:00 | 00:00:00 | 08:30:00 | |
| OE8JPQ-2 | 2026-09-03 00:26:25 | 47.75469 | 12.42819 | 238° | 13km/h | 30951m | 5.3m/s | -41.5°C | 2.5% | 10.7hPa | 2.6V | 00:00:00 | 01:57:05 | 00:00:00 | |
| IN3HCDX | 2026-09-03 00:26:22 | 47.75469 | 12.42833 | 320° | 13km/h | 30936m | 6.9m/s | -41.6°C | 0.6% | 10.8hPa | 2.6V | 00:00:00 | 00:00:00 | 00:00:00 | |
| DG1MFX-10 | 2026-09-03 00:26:16 | 47.75458 | 12.42826 | 182° | 11km/h | 30903m | 6.2m/s | -41.6°C | 0.6% | 10.8hPa | 2.6V | 00:00:00 | 00:00:00 | 00:00:00 | |
| OE5DRO-10 | 2026-09-03 00:26:09 | 47.75482 | 12.42843 | 187° | 7km/h | 30860m | 6.0m/s | -41.7°C | 2.5% | 10.9hPa | 2.6V | 00:00:00 | 00:00:00 | 00:00:00 | |
| OE8JPQ-2 | 2026-09-03 00:26:05 | 47.75486 | 12.42845 | 199° | 11km/h | 30843m | 5.0m/s | -41.8°C | 2.5% | 10.9hPa | 2.6V | 00:00:00 | 00:00:00 | 08:30:00 | |
| DL6DJ-15 | 2026-09-03 00:25:52 | 47.75519 | 12.42822 | 155° | 16km/h | 30734m | 5.4m/s | -42.1°C | 0.7% | 11.1hPa | 2.5V | 00:00:00 | 00:00:00 | 00:00:00 | |
| OE5DRO-10 | 2026-09-03 00:25:51 | 47.75506 | 12.42834 | 107° | 15km/h | 30756m | 6.1m/s | -42.1°C | 2.6% | 11.0hPa | 2.5V | 00:00:00 | 00:00:00 | 00:00:00 | |
| OE8JPQ-2 | 2026-09-03 00:25:45 | 47.75519 | 12.42822 | 156° | 20km/h | 30734m | 5.4m/s | -42.1°C | 2.5% | 11.0hPa | 2.5V | 00:00:00 | 00:00:00 | 00:00:00 | |
| IN3HCDX | 2026-09-03 00:25:39 | 47.75532 | 12.42812 | 154° | 9km/h | 30706m | 6.1m/s | -42.0°C | 0.6% | 11.1hPa | 2.5V | 00:00:00 | 00:00:00 | 00:00:00 | |
| DG1MFX-10 | 2026-09-03 00:25:35 | 47.75540 | 12.42784 | 99° | 27km/h | 30677m | 5.6m/s | -42.2°C | 0.7% | 11.2hPa | 2.5V | 00:00:00 | 00:00:00 | 00:00:00 | |
| OE5WHR-10 | 2026-09-03 00:25:34 | 47.75541 | 12.42774 | 105° | 29km/h | 30672m | 4.4m/s | -42.2°C | 2.5% | 11.2hPa | 2.5V | 00:00:00 | 01:56:14 | 00:00:00 | |
| OE5DXL-15 | 2026-09-03 00:25:26 | 47.75581 | 12.42737 | 133° | 26km/h | 30629m | 5.5m/s | -42.5°C | 2.5% | 11.2hPa | 2.5V | 00:00:00 | 00:00:00 | 00:00:00 | |
| OE8JPQ-2 | 2026-09-03 00:25:25 | 47.75583 | 12.42732 | 110° | 29km/h | 30624m | 5.3m/s | -42.5°C | 2.6% | 11.2hPa | 2.5V | 00:00:00 | 01:56:05 | 00:00:00 | |
| DL6DJ-15 | 2026-09-03 00:25:21 | 47.75594 | 12.42689 | 120° | 38km/h | 30600m | 5.5m/s | -42.6°C | 0.7% | 11.3hPa | 2.5V | 00:00:00 | 00:00:00 | 00:00:00 | |
| IN3HCDX | 2026-09-03 00:25:18 | 47.75606 | 12.42664 | 129° | 38km/h | 30589m | 5.6m/s | -42.7°C | 0.7% | 11.3hPa | 2.5V | 00:00:00 | 00:00:00 | 00:00:00 | |
| DG1MFX-10 | 2026-09-03 00:25:14 | 47.75623 | 12.42627 | 124° | 24km/h | 30567m | 5.0m/s | -42.8°C | 0.7% | 11.4hPa | 2.5V | 00:00:00 | 00:00:00 | 00:00:00 | |
| OE5WHR-10 | 2026-09-03 00:25:13 | 47.75630 | 12.42614 | 133° | 22km/h | 30556m | 6.3m/s | -42.8°C | 2.6% | 11.4hPa | 2.5V | 00:00:00 | 00:00:00 | 00:00:00 | |
| OE5DRO-10 | 2026-09-03 00:25:07 | 47.75659 | 12.42552 | 114° | 20km/h | 30511m | 5.3m/s | -42.9°C | 2.6% | 11.4hPa | 2.6V | 00:00:00 | 00:00:00 | 00:00:00 | |
| OE8JPQ-2 | 2026-09-03 00:25:05 | 47.75659 | 12.42552 | 114° | 18km/h | 30511m | 5.3m/s | -42.9°C | 2.6% | 11.4hPa | 2.6V | 00:00:00 | 00:00:00 | 00:00:00 | |
| BAUMI2-15 | 2026-09-03 00:25:02 | 47.75671 | 12.42530 | 139° | 20km/h | 30493m | 5.5m/s | -42.9°C | 2.6% | 11.5hPa | 2.5V | 00:00:00 | 01:55:42 | 00:00:00 | |
| DL6DJ-15 | 2026-09-03 00:24:50 | 47.75704 | 12.42475 | 108° | 16km/h | 30424m | 6.1m/s | -43.0°C | 0.7% | 11.7hPa | 2.5V | 00:00:00 | 00:00:00 | 00:00:00 | |
| BAUMI2-15 | 2026-09-03 00:24:47 | 47.75709 | 12.42455 | 122° | 20km/h | 30407m | 6.5m/s | -43.1°C | 2.6% | 11.6hPa | 2.5V | 00:00:00 | 01:55:27 | 00:00:00 | |
| OE8JPQ-2 | 2026-09-03 00:24:45 | 47.75716 | 12.42443 | 139° | 20km/h | 30395m | 5.0m/s | -43.1°C | 2.6% | 11.6hPa | 2.5V | 00:00:00 | 00:00:00 | 00:00:00 | |
| BAUMI2-15 | 2026-09-03 00:24:42 | 47.75726 | 12.42428 | 120° | 15km/h | 30378m | 5.9m/s | -43.2°C | 2.7% | 11.7hPa | 2.5V | 00:00:00 | 01:55:22 | 00:00:00 | |
| DG1MFX-10 | 2026-09-03 00:24:33 | 47.75740 | 12.42382 | 100° | 27km/h | 30333m | 6.7m/s | -43.3°C | 0.7% | 11.8hPa | 2.5V | 00:00:00 | 00:00:00 | 00:00:00 | |
| BAUMI2-15 | 2026-09-03 00:24:32 | 47.75741 | 12.42360 | 96° | 26km/h | 30321m | 4.8m/s | -43.2°C | 2.6% | 11.8hPa | 2.5V | 00:00:00 | 01:55:12 | 00:00:00 | |
| OE5WHR-10 | 2026-09-03 00:24:31 | 47.75742 | 12.42348 | 101° | 20km/h | 30316m | 6.0m/s | -43.3°C | 2.7% | 11.8hPa | 2.5V | 00:00:00 | 01:55:11 | 00:00:00 | |
| OE5HKT-10 | 2026-09-03 00:24:28 | 47.75749 | 12.42323 | 124° | 18km/h | 30298m | 5.0m/s | -43.3°C | 2.7% | 11.8hPa | 2.5V | 00:00:00 | 00:00:00 | 00:00:00 | |
| BAUMI2-15 | 2026-09-03 00:24:27 | 47.75752 | 12.42318 | 121° | 16km/h | 30293m | 6.2m/s | -43.4°C | 2.7% | 11.8hPa | 2.5V | 00:00:00 | 01:55:07 | 00:00:00 | |
| OE8JPQ-2 | 2026-09-03 00:24:25 | 47.75755 | 12.42306 | 103° | 18km/h | 30280m | 5.5m/s | -43.4°C | 2.7% | 11.8hPa | 2.5V | 00:00:00 | 01:55:05 | 00:00:00 | |
| BAUMI2-15 | 2026-09-03 00:24:22 | 47.75758 | 12.42289 | 114° | 20km/h | 30263m | 6.1m/s | -43.5°C | 2.7% | 11.9hPa | 2.5V | 00:00:00 | 01:55:02 | 00:00:00 | |
| DL6DJ-15 | 2026-09-03 00:24:19 | 47.75763 | 12.42268 | 96° | 20km/h | 30247m | 6.3m/s | -43.5°C | 0.7% | 12.0hPa | 2.6V | 00:00:00 | 00:00:00 | 00:00:00 | |
| BAUMI2-15 | 2026-09-03 00:24:17 | 47.75762 | 12.42251 | 82° | 18km/h | 30235m | 5.1m/s | -43.5°C | 2.7% | 12.0hPa | 2.6V | 00:00:00 | 01:54:57 | 00:00:00 | |
| IN3HCDX | 2026-09-03 00:24:15 | 47.75762 | 12.42244 | 86° | 20km/h | 30230m | 5.0m/s | -43.5°C | 0.7% | 12.0hPa | 2.6V | 00:00:00 | 00:00:00 | 00:00:00 | |
| BAUMI2-15 | 2026-09-03 00:24:12 | 47.75769 | 12.42221 | 145° | 18km/h | 30206m | 5.0m/s | -43.5°C | 2.7% | 12.0hPa | 2.6V | 00:00:00 | 01:54:52 | 00:00:00 | |
| OE5WHR-10 | 2026-09-03 00:24:10 | 47.75775 | 12.42212 | 125° | 18km/h | 30195m | 6.3m/s | -43.5°C | 2.7% | 12.0hPa | 2.6V | 00:00:00 | 00:00:00 | 00:00:00 | |
| OE5HKT-10 | 2026-09-03 00:24:07 | 47.75777 | 12.42193 | 84° | 20km/h | 30177m | 6.0m/s | -43.4°C | 2.7% | 12.1hPa | 2.6V | 00:00:00 | 00:00:00 | 00:00:00 | |
| OE8JPQ-2 | 2026-09-03 00:24:05 | 47.75776 | 12.42175 | 89° | 20km/h | 30165m | 5.6m/s | -43.4°C | 2.7% | 12.1hPa | 2.6V | 00:00:00 | 00:00:00 | 00:00:00 | |
| BAUMI2-15 | 2026-09-03 00:24:02 | 47.75776 | 12.42146 | 88° | 18km/h | 30148m | 5.9m/s | -43.4°C | 2.7% | 12.1hPa | 2.5V | 00:00:00 | 01:54:42 | 00:00:00 | |
| DL6DJ-15 | 2026-09-03 00:23:48 | 47.75786 | 12.42062 | 97° | 20km/h | 30062m | 4.9m/s | -43.7°C | -1.0% | -1.0hPa | 2.5V | 00:00:00 | 00:00:00 | 00:00:00 | |
| BAUMI2-15 | 2026-09-03 00:23:47 | 47.75786 | 12.42062 | 98° | 20km/h | 30063m | 4.8m/s | -43.7°C | 2.7% | 12.2hPa | 2.5V | 00:00:00 | 01:54:27 | 00:00:00 | |
| OE5HKT-10 | 2026-09-03 00:23:46 | 47.75787 | 12.42054 | 95° | 15km/h | 30057m | 5.9m/s | -43.7°C | 2.7% | 12.3hPa | 2.5V | 00:00:00 | 01:54:26 | 00:00:00 | |
| OE8JPQ-2 | 2026-09-03 00:23:45 | 47.75787 | 12.42046 | 91° | 13km/h | 30051m | 6.1m/s | -43.8°C | 2.7% | 12.3hPa | 2.5V | 00:00:00 | 00:00:00 | 00:00:00 | |
| BAUMI2-15 | 2026-09-03 00:23:42 | 47.75787 | 12.42025 | 104° | 15km/h | 30035m | 5.1m/s | -43.8°C | 2.7% | 12.3hPa | 2.5V | 00:00:00 | 01:54:22 | 00:00:00 | |
| DF3TZ-5 | 2026-09-03 00:23:41 | 47.75795 | 12.42011 | 146° | 15km/h | 30017m | 4.7m/s | 0°C | -1.0% | -1.0hPa | 2.5V | 00:00:00 | 00:00:00 | 00:00:00 | |
| BAUMI2-15 | 2026-09-03 00:23:37 | 47.75799 | 12.42006 | 119° | 13km/h | 30007m | 6.4m/s | -44.0°C | 2.8% | 12.3hPa | 2.5V | 00:00:00 | 01:54:17 | 00:00:00 | |
| IN3HCDX | 2026-09-03 00:23:34 | 47.75796 | 12.41994 | 57° | 16km/h | 29989m | 5.6m/s | -44.1°C | 0.7% | 12.4hPa | 2.5V | 00:00:00 | 00:00:00 | 00:00:00 | |
| BAUMI2-15 | 2026-09-03 00:23:32 | 47.75792 | 12.41983 | 75° | 11km/h | 29977m | 5.4m/s | -44.1°C | 2.8% | 12.4hPa | 2.5V | 00:00:00 | 01:54:12 | 00:00:00 | |
| OE5DRO-10 | 2026-09-03 00:23:30 | 47.75792 | 12.41966 | 93° | 13km/h | 29956m | 6.1m/s | -44.1°C | 2.8% | 12.4hPa | 2.5V | 00:00:00 | 00:00:00 | 00:00:00 | |
| OE5WHR-10 | 2026-09-03 00:23:28 | 47.75792 | 12.41966 | 93° | 13km/h | 29956m | 6.1m/s | -44.1°C | 2.8% | 12.4hPa | 2.5V | 00:00:00 | 01:54:08 | 00:00:00 | |
| BAUMI2-15 | 2026-09-03 00:23:27 | 47.75792 | 12.41964 | 103° | 13km/h | 29950m | 5.2m/s | -44.1°C | 2.7% | 12.5hPa | 2.5V | 00:00:00 | 01:54:07 | 00:00:00 | |
| OE8JPQ-2 | 2026-09-03 00:23:25 | 47.75795 | 12.41959 | 145° | 13km/h | 29940m | 5.4m/s | -44.2°C | 2.8% | 12.5hPa | 2.5V | 00:00:00 | 01:54:05 | 00:00:00 | |
| OE5DXL-15 | 2026-09-03 00:23:24 | 47.75797 | 12.41956 | 151° | 13km/h | 29934m | 6.9m/s | -44.2°C | 2.8% | 12.5hPa | 2.5V | 00:00:00 | 00:00:00 | 00:00:00 | |
| BAUMI2-15 | 2026-09-03 00:23:22 | 47.75806 | 12.41949 | 145° | 13km/h | 29923m | 4.3m/s | -44.2°C | 2.8% | 12.5hPa | 2.5V | 00:00:00 | 01:54:02 | 00:00:00 | |
| BAUMI2-15 | 2026-09-03 00:23:17 | 47.75810 | 12.41932 | 38° | 9km/h | 29896m | 5.0m/s | -44.2°C | 2.7% | 12.6hPa | 2.5V | 00:00:00 | 01:53:57 | 00:00:00 | |
| BAUMI2-15 | 2026-09-03 00:23:12 | 47.75815 | 12.41917 | 124° | 16km/h | 29868m | 5.7m/s | -44.2°C | 2.7% | 12.6hPa | 2.5V | 00:00:00 | 01:53:52 | 00:00:00 | |
| DF3TZ-5 | 2026-09-03 00:23:10 | 47.75822 | 12.41893 | 116° | 13km/h | 29845m | 6.2m/s | 0°C | -1.0% | -1.0hPa | 2.5V | 00:00:00 | 00:00:00 | 00:00:00 | |
| OE5WHR-10 | 2026-09-03 00:23:07 | 47.75824 | 12.41889 | 136° | 11km/h | 29839m | 6.0m/s | -44.4°C | 2.7% | 12.7hPa | 2.5V | 00:00:00 | 00:00:00 | 08:30:00 | |
| OE8JPQ-2 | 2026-09-03 00:23:05 | 47.75826 | 12.41888 | 195° | 11km/h | 29828m | 4.8m/s | -44.4°C | 2.8% | 12.7hPa | 2.6V | 00:00:00 | 00:00:00 | 08:30:00 | |
| OE5DXL-15 | 2026-09-03 00:22:55 | 47.75844 | 12.41863 | 181° | 16km/h | 29775m | 5.2m/s | -44.7°C | 2.8% | 12.8hPa | 2.5V | 00:00:00 | 00:00:00 | 00:00:00 | |
| IN3HCDX | 2026-09-03 00:22:51 | 47.75851 | 12.41862 | 87° | 4km/h | 29759m | 5.8m/s | -44.7°C | 0.7% | 12.9hPa | 2.5V | 00:00:00 | 00:00:00 | 00:00:00 | |
| DG1MFX-10 | 2026-09-03 00:22:50 | 47.75851 | 12.41860 | 70° | 9km/h | 29753m | 6.0m/s | -44.7°C | 0.8% | 12.9hPa | 2.5V | 00:00:00 | 00:00:00 | 00:00:00 | |
| OE5WHR-10 | 2026-09-03 00:22:46 | 47.75848 | 12.41842 | 111° | 20km/h | 29725m | 5.0m/s | -44.7°C | 2.8% | 12.9hPa | 2.5V | 00:00:00 | 00:00:00 | 00:00:00 | |
| OE8JPQ-2 | 2026-09-03 00:22:45 | 47.75849 | 12.41840 | 126° | 20km/h | 29720m | 5.0m/s | -44.7°C | 2.8% | 12.9hPa | 2.5V | 00:00:00 | 00:00:00 | 00:00:00 | |
| IN3HCDX | 2026-09-03 00:22:31 | 47.75883 | 12.41766 | 97° | 22km/h | 29645m | 6.0m/s | -45.1°C | 0.8% | 13.1hPa | 2.5V | 00:00:00 | 00:00:00 | 00:00:00 | |
| DG1MFX-10 | 2026-09-03 00:22:30 | 47.75884 | 12.41759 | 111° | 20km/h | 29639m | 6.1m/s | -45.1°C | 0.8% | 13.1hPa | 2.5V | 00:00:00 | 00:00:00 | 00:00:00 | |
| OE5DRO-10 | 2026-09-03 00:22:26 | 47.75904 | 12.41723 | 125° | 18km/h | 29612m | 5.8m/s | -45.1°C | 2.8% | 13.1hPa | 2.5V | 00:00:00 | 00:00:00 | 00:00:00 | |
| OE5WHR-10 | 2026-09-03 00:22:25 | 47.75908 | 12.41714 | 119° | 16km/h | 29606m | 5.0m/s | -45.1°C | 2.9% | 13.1hPa | 2.5V | 00:00:00 | 01:53:05 | 00:00:00 | |
| IN3HCDX | 2026-09-03 00:22:11 | 47.75931 | 12.41638 | 150° | 22km/h | 29527m | 6.2m/s | -45.7°C | 0.7% | 13.4hPa | 2.5V | 00:00:00 | 00:00:00 | 00:00:00 | |
| DG1MFX-10 | 2026-09-03 00:22:09 | 47.75935 | 12.41634 | 144° | 20km/h | 29520m | 5.9m/s | -45.7°C | 0.8% | 13.4hPa | 2.5V | 00:00:00 | 00:00:00 | 00:00:00 | |
| OE5DRO-10 | 2026-09-03 00:22:07 | 47.75943 | 12.41622 | 128° | 15km/h | 29504m | 6.4m/s | -45.7°C | 3.0% | 13.4hPa | 2.5V | 00:00:00 | 00:00:00 | 00:00:00 | |
| OE8JPQ-2 | 2026-09-03 00:22:05 | 47.75944 | 12.41619 | 50° | 18km/h | 29492m | 4.9m/s | -45.7°C | 2.9% | 13.4hPa | 2.5V | 00:00:00 | 00:00:00 | 00:00:00 | |
| OE5WHR-10 | 2026-09-03 00:22:04 | 47.75943 | 12.41618 | 51° | 20km/h | 29487m | 5.1m/s | -45.7°C | 2.9% | 13.4hPa | 2.5V | 00:00:00 | 00:00:00 | 00:00:00 | |
| OE5FHM-15 | 2026-09-03 00:21:58 | 47.75940 | 12.41585 | 126° | 16km/h | 29453m | 5.9m/s | -45.8°C | 3.0% | 13.4hPa | 2.6V | 00:00:00 | 01:52:38 | 00:00:00 | |
| OE5DXL-15 | 2026-09-03 00:21:54 | 47.75953 | 12.41565 | 122° | 22km/h | 29430m | 5.8m/s | -46.1°C | 3.0% | 13.5hPa | 2.5V | 00:00:00 | 00:00:00 | 08:30:00 | |
| OE5DRO-10 | 2026-09-03 00:21:48 | 47.75954 | 12.41525 | 76° | 24km/h | 29396m | 4.8m/s | -46.1°C | 3.0% | 13.6hPa | 2.6V | 00:00:00 | 00:00:00 | 00:00:00 | |
| OE8JPQ-2 | 2026-09-03 00:21:45 | 47.75951 | 12.41494 | 91° | 24km/h | 29379m | 4.9m/s | -46.1°C | 3.0% | 13.6hPa | 2.6V | 00:00:00 | 00:00:00 | 00:00:00 | |
| IN3HCDX | 2026-09-03 00:21:44 | 47.75952 | 12.41481 | 98° | 33km/h | 29374m | 5.2m/s | -46.2°C | 0.8% | 13.7hPa | 2.6V | 00:00:00 | 00:00:00 | 00:00:00 | |
| OE5WHR-10 | 2026-09-03 00:21:43 | 47.75953 | 12.41469 | 104° | 20km/h | 29368m | 6.5m/s | -46.2°C | 3.0% | 13.6hPa | 2.6V | 00:00:00 | 00:00:00 | 00:00:00 | |
| DF3TZ-5 | 2026-09-03 00:21:37 | 47.75960 | 12.41399 | 56° | 15km/h | 29323m | 6.8m/s | 0°C | -1.0% | -1.0hPa | 2.6V | 00:00:00 | 00:00:00 | 00:00:00 | |
| OE5DRO-10 | 2026-09-03 00:21:29 | 47.75954 | 12.41364 | 98° | 18km/h | 29289m | 5.3m/s | -46.1°C | 3.1% | 13.8hPa | 2.6V | 00:00:00 | 00:00:00 | 00:00:00 | |
| DG1MFX-10 | 2026-09-03 00:21:27 | 47.75955 | 12.41355 | 104° | 26km/h | 29284m | 5.4m/s | -46.2°C | 0.8% | 13.9hPa | 2.6V | 00:00:00 | 00:00:00 | 00:00:00 | |
| OE8JPQ-2 | 2026-09-03 00:21:25 | 47.75960 | 12.41332 | 105° | 16km/h | 29267m | 4.6m/s | -46.1°C | 3.0% | 13.8hPa | 2.6V | 00:00:00 | 01:52:05 | 00:00:00 | |
| OE5DXL-15 | 2026-09-03 00:21:23 | 47.75960 | 12.41322 | 84° | 16km/h | 29256m | 6.4m/s | -46.1°C | 3.0% | 13.9hPa | 2.6V | 00:00:00 | 00:00:00 | 00:00:00 | |
| OE5WHR-10 | 2026-09-03 00:21:22 | 47.75959 | 12.41316 | 72° | 18km/h | 29250m | 6.0m/s | -46.1°C | 3.0% | 13.9hPa | 2.6V | 00:00:00 | 01:52:02 | 00:00:00 | |
| OE5DRO-10 | 2026-09-03 00:21:10 | 47.75946 | 12.41247 | 102° | 15km/h | 29182m | 5.7m/s | -46.0°C | 3.0% | 14.0hPa | 2.6V | 00:00:00 | 00:00:00 | 00:00:00 | |
| DG1MFX-10 | 2026-09-03 00:21:06 | 47.75948 | 12.41228 | 82° | 16km/h | 29167m | 5.3m/s | -46.0°C | 0.8% | 14.1hPa | 2.6V | 00:00:00 | 00:00:00 | 00:00:00 | |
| OE8JPQ-2 | 2026-09-03 00:21:05 | 47.75944 | 12.41216 | 50° | 16km/h | 29154m | 6.0m/s | -46.0°C | 3.0% | 14.1hPa | 2.6V | 00:00:00 | 00:00:00 | 00:00:00 | |
| OE5WHR-10 | 2026-09-03 00:21:01 | 47.75927 | 12.41198 | 23° | 13km/h | 29131m | 5.9m/s | -46.1°C | 3.0% | 14.1hPa | 2.5V | 00:00:00 | 00:00:00 | 00:00:00 | |
| BAUMI2-15 | 2026-09-03 00:20:58 | 47.75920 | 12.41192 | 56° | 11km/h | 29114m | 5.4m/s | -46.1°C | 3.0% | 14.2hPa | 2.5V | 00:00:00 | 01:51:38 | 00:00:00 | |
| OE5HKT-10 | 2026-09-03 00:20:57 | 47.75919 | 12.41188 | 79° | 13km/h | 29108m | 4.5m/s | -46.1°C | 3.0% | 14.2hPa | 2.5V | 00:00:00 | 01:51:37 | 00:00:00 | |
| BAUMI2-15 | 2026-09-03 00:20:53 | 47.75921 | 12.41173 | 89° | 18km/h | 29086m | 4.7m/s | -46.3°C | 3.0% | 14.3hPa | 2.5V | 00:00:00 | 01:51:33 | 00:00:00 | |
| OE5DRO-10 | 2026-09-03 00:20:51 | 47.75918 | 12.41163 | 53° | 13km/h | 29074m | 6.6m/s | -46.3°C | 3.0% | 14.3hPa | 2.5V | 00:00:00 | 00:00:00 | 08:30:00 | |
| BAUMI2-15 | 2026-09-03 00:20:48 | 47.75905 | 12.41147 | 30° | 13km/h | 29057m | 6.4m/s | -46.2°C | 3.0% | 14.3hPa | 2.6V | 00:00:00 | 01:51:28 | 00:00:00 | |
| DG1MFX-10 | 2026-09-03 00:20:46 | 47.75901 | 12.41144 | 22° | 15km/h | 29051m | 5.5m/s | -46.2°C | 0.8% | 14.4hPa | 2.5V | 00:00:00 | 00:00:00 | 00:00:00 | |
| OE8JPQ-2 | 2026-09-03 00:20:45 | 47.75895 | 12.41142 | 16° | 7km/h | 29040m | 5.3m/s | -46.2°C | 3.0% | 14.3hPa | 2.5V | 00:00:00 | 00:00:00 | 00:00:00 | |
| BAUMI2-15 | 2026-09-03 00:20:43 | 47.75891 | 12.41139 | 32° | 7km/h | 29028m | 5.9m/s | -46.2°C | 3.1% | 14.4hPa | 2.5V | 00:00:00 | 01:51:23 | 00:00:00 | |
| OE5WHR-10 | 2026-09-03 00:20:40 | 47.75886 | 12.41132 | 61° | 9km/h | 29012m | 5.9m/s | -46.2°C | 3.0% | 14.4hPa | 2.5V | 00:00:00 | 00:00:00 | 00:00:00 | |
| BAUMI2-15 | 2026-09-03 00:20:38 | 47.75886 | 12.41130 | 107° | 9km/h | 29000m | 5.0m/s | -46.2°C | 3.0% | 14.4hPa | 2.5V | 00:00:00 | 01:51:18 | 00:00:00 | |
| BAUMI2-15 | 2026-09-03 00:20:33 | 47.75874 | 12.41120 | 30° | 11km/h | 28973m | 4.8m/s | -46.2°C | 3.1% | 14.5hPa | 2.5V | 00:00:00 | 01:51:13 | 00:00:00 | |
| OE5DRO-10 | 2026-09-03 00:20:32 | 47.75869 | 12.41116 | 31° | 9km/h | 28968m | 5.0m/s | -46.3°C | 3.1% | 14.5hPa | 2.5V | 00:00:00 | 00:00:00 | 00:00:00 | |
| BAUMI2-15 | 2026-09-03 00:20:28 | 47.75864 | 12.41111 | 186° | 4km/h | 28944m | 5.3m/s | -46.2°C | 3.1% | 14.6hPa | 2.5V | 00:00:00 | 01:51:08 | 00:00:00 | |
| OE8JPQ-2 | 2026-09-03 00:20:25 | 47.75863 | 12.41110 | 21° | 13km/h | 28926m | 5.3m/s | -46.2°C | 3.1% | 14.6hPa | 2.5V | 00:00:00 | 01:51:05 | 00:00:00 | |
| BAUMI2-15 | 2026-09-03 00:20:23 | 47.75860 | 12.41108 | 4° | 13km/h | 28915m | 6.7m/s | -46.2°C | 3.1% | 14.6hPa | 2.5V | 00:00:00 | 01:51:03 | 00:00:00 | |
| IN3HCDX | 2026-09-03 00:20:20 | 47.75851 | 12.41108 | 14° | 15km/h | 28897m | 6.2m/s | -46.3°C | 0.8% | 14.7hPa | 2.5V | 00:00:00 | 00:00:00 | 00:00:00 | |
| OE5WHR-10 | 2026-09-03 00:20:19 | 47.75847 | 12.41106 | 22° | 13km/h | 28891m | 6.2m/s | -46.2°C | 3.1% | 14.7hPa | 2.5V | 00:00:00 | 01:50:59 | 00:00:00 | |
| BAUMI2-15 | 2026-09-03 00:20:18 | 47.75844 | 12.41103 | 31° | 9km/h | 28886m | 4.3m/s | -46.2°C | 3.1% | 14.7hPa | 2.5V | 00:00:00 | 01:50:58 | 08:30:00 | |
| BAUMI2-15 | 2026-09-03 00:20:13 | 47.75844 | 12.41097 | 195° | 9km/h | 28858m | 4.5m/s | -46.2°C | 3.0% | 14.7hPa | 2.5V | 00:00:00 | 01:50:53 | 00:00:00 | |
| BAUMI2-15 | 2026-09-03 00:20:08 | 47.75837 | 12.41096 | 3° | 20km/h | 28831m | 5.2m/s | -46.1°C | 3.0% | 14.8hPa | 2.5V | 00:00:00 | 01:50:48 | 00:00:00 | |
| OE8JPQ-2 | 2026-09-03 00:20:05 | 47.75819 | 12.41101 | 331° | 13km/h | 28816m | 4.9m/s | -46.1°C | 3.1% | 14.9hPa | 2.5V | 00:00:00 | 00:00:00 | 08:30:00 | |
| BAUMI2-15 | 2026-09-03 00:20:03 | 47.75817 | 12.41106 | 217° | 13km/h | 28805m | 6.3m/s | -46.1°C | 3.1% | 14.8hPa | 2.6V | 00:00:00 | 01:50:43 | 00:00:00 | |
| OE5WHR-10 | 2026-09-03 00:19:58 | 47.75828 | 12.41097 | 75° | 13km/h | 28777m | 5.1m/s | -46.1°C | 3.1% | 14.9hPa | 2.6V | 00:00:00 | 00:00:00 | 08:30:00 | |
| OE5DRO-10 | 2026-09-03 00:19:54 | 47.75817 | 12.41105 | 326° | 13km/h | 28753m | 6.0m/s | -46.1°C | 3.1% | 15.0hPa | 2.5V | 00:00:00 | 00:00:00 | 00:00:00 | |
| BAUMI2-15 | 2026-09-03 00:19:53 | 47.75812 | 12.41110 | 330° | 15km/h | 28747m | 6.3m/s | -46.1°C | 3.1% | 15.0hPa | 2.5V | 00:00:00 | 01:50:33 | 00:00:00 | |
| BAUMI2-15 | 2026-09-03 00:19:48 | 47.75800 | 12.41123 | 227° | 13km/h | 28717m | 6.6m/s | -46.0°C | 3.0% | 15.1hPa | 2.5V | 00:00:00 | 01:50:28 | 00:00:00 | |
| OE8JPQ-2 | 2026-09-03 00:19:45 | 47.75810 | 12.41126 | 167° | 11km/h | 28700m | 6.6m/s | -45.9°C | 3.1% | 15.1hPa | 2.5V | 00:00:00 | 00:00:00 | 00:00:00 | |
| DG1MFX-10 | 2026-09-03 00:19:44 | 47.75810 | 12.41126 | 167° | 15km/h | 28700m | 6.6m/s | -46.0°C | 0.8% | 15.2hPa | 2.5V | 00:00:00 | 00:00:00 | 00:00:00 | |
| BAUMI2-15 | 2026-09-03 00:19:43 | 47.75816 | 12.41121 | 129° | 9km/h | 28688m | 5.0m/s | -45.9°C | 3.1% | 15.1hPa | 2.5V | 00:00:00 | 01:50:23 | 00:00:00 | |
| BAUMI2-15 | 2026-09-03 00:19:38 | 47.75808 | 12.41126 | 332° | 11km/h | 28658m | 6.5m/s | -45.7°C | 3.1% | 15.2hPa | 2.5V | 00:00:00 | 01:50:18 | 00:00:00 | |
| OE5WHR-10 | 2026-09-03 00:19:37 | 47.75804 | 12.41128 | 336° | 11km/h | 28652m | 5.6m/s | -45.7°C | 3.0% | 15.2hPa | 2.5V | 00:00:00 | 00:00:00 | 00:00:00 | |
| OE5DRO-10 | 2026-09-03 00:19:35 | 47.75800 | 12.41132 | 304° | 11km/h | 28641m | 5.3m/s | -45.6°C | 3.0% | 15.2hPa | 2.5V | 00:00:00 | 00:00:00 | 00:00:00 | |
| BAUMI2-15 | 2026-09-03 00:19:33 | 47.75801 | 12.41136 | 215° | 15km/h | 28628m | 6.6m/s | -45.5°C | 3.0% | 15.3hPa | 2.5V | 00:00:00 | 01:50:13 | 08:30:00 | |
| OE8JPQ-2 | 2026-09-03 00:19:25 | 47.75814 | 12.41129 | 333° | 13km/h | 28580m | 6.0m/s | -45.3°C | 2.9% | 15.4hPa | 2.6V | 00:00:00 | 01:50:05 | 00:00:00 | |
| BAUMI2-15 | 2026-09-03 00:19:23 | 47.75808 | 12.41135 | 332° | 11km/h | 28569m | 5.7m/s | -45.3°C | 2.9% | 15.4hPa | 2.6V | 00:00:00 | 01:50:03 | 00:00:00 | |
| BAUMI2-15 | 2026-09-03 00:19:18 | 47.75799 | 12.41139 | 185° | 15km/h | 28540m | 7.1m/s | -45.5°C | 2.9% | 15.5hPa | 2.6V | 00:00:00 | 01:49:58 | 00:00:00 | |
| IN3HCDX | 2026-09-03 00:19:17 | 47.75799 | 12.41140 | 186° | 7km/h | 28540m | 7.1m/s | -45.5°C | 0.8% | 15.5hPa | 2.6V | 00:00:00 | 00:00:00 | 00:00:00 | |
| OE5DRO-10 | 2026-09-03 00:19:16 | 47.75805 | 12.41140 | 185° | 9km/h | 28527m | 5.7m/s | -45.6°C | 2.9% | 15.5hPa | 2.6V | 00:00:00 | 00:00:00 | 00:00:00 | |
| BAUMI2-15 | 2026-09-03 00:19:13 | 47.75818 | 12.41136 | 148° | 9km/h | 28510m | 5.4m/s | -45.6°C | 3.0% | 15.6hPa | 2.6V | 00:00:00 | 01:49:53 | 00:00:00 | |
| BAUMI2-15 | 2026-09-03 00:19:08 | 47.75817 | 12.41133 | 335° | 11km/h | 28481m | 5.0m/s | -45.7°C | 3.0% | 15.7hPa | 2.6V | 00:00:00 | 01:49:48 | 00:00:00 | |
| OE8JPQ-2 | 2026-09-03 00:19:05 | 47.75808 | 12.41137 | 360° | 9km/h | 28464m | 5.1m/s | -45.7°C | 2.9% | 15.7hPa | 2.6V | 00:00:00 | 00:00:00 | 00:00:00 | |
| DG1MFX-10 | 2026-09-03 00:19:03 | 47.75807 | 12.41137 | 0° | 0km/h | 28459m | 5.5m/s | -45.8°C | 0.8% | 15.7hPa | 2.6V | 00:00:00 | 00:00:00 | 00:00:00 | |
| IN3HCDX | 2026-09-03 00:18:56 | 47.75822 | 12.41142 | 32° | 5km/h | 28417m | 5.3m/s | -45.7°C | 0.8% | 15.9hPa | 2.6V | 00:00:00 | 00:00:00 | 00:00:00 | |
| OE5WHR-10 | 2026-09-03 00:18:55 | 47.75817 | 12.41140 | 10° | 9km/h | 28407m | 5.5m/s | -45.7°C | 2.9% | 15.8hPa | 2.6V | 00:00:00 | 00:00:00 | 00:00:00 | |
| OE5DXL-15 | 2026-09-03 00:18:52 | 47.75813 | 12.41143 | 255° | 9km/h | 28389m | 5.6m/s | -45.7°C | 2.9% | 15.9hPa | 2.5V | 00:00:00 | 00:00:00 | 00:00:00 | |
| OE8JPQ-2 | 2026-09-03 00:18:45 | 47.75827 | 12.41143 | 178° | 9km/h | 28349m | 6.4m/s | -45.9°C | 2.9% | 15.9hPa | 2.5V | 00:00:00 | 00:00:00 | 00:00:00 | |
| DG1MFX-10 | 2026-09-03 00:18:43 | 47.75830 | 12.41143 | 203° | 9km/h | 28343m | 5.6m/s | -46.0°C | 0.8% | 16.0hPa | 2.5V | 00:00:00 | 00:00:00 | 00:00:00 | |
| IN3HCDX | 2026-09-03 00:18:36 | 47.75824 | 12.41166 | 239° | 9km/h | 28297m | 5.7m/s | -46.1°C | 0.8% | 16.1hPa | 2.5V | 00:00:00 | 00:00:00 | 00:00:00 | |
| OE5WHR-10 | 2026-09-03 00:18:34 | 47.75829 | 12.41170 | 196° | 9km/h | 28285m | 6.2m/s | -46.0°C | 3.0% | 16.1hPa | 2.5V | 00:00:00 | 00:00:00 | 00:00:00 | |
| OE8JPQ-2 | 2026-09-03 00:18:25 | 47.75843 | 12.41183 | 328° | 9km/h | 28232m | 5.4m/s | -46.1°C | 3.0% | 16.3hPa | 2.5V | 00:00:00 | 01:49:05 | 00:00:00 | |
| OE5DXL-15 | 2026-09-03 00:18:22 | 47.75844 | 12.41185 | 194° | 11km/h | 28214m | 5.5m/s | -46.2°C | 3.0% | 16.3hPa | 2.5V | 00:00:00 | 00:00:00 | 00:00:00 | |
| IN3IJJ | 2026-09-03 00:18:20 | 47.75849 | 12.41186 | 178° | 13km/h | 28204m | 5.5m/s | 0°C | 0% | 0hPa | 2.5V | 00:00:00 | 00:00:00 | 00:00:00 | |
| OE5DRO-10 | 2026-09-03 00:18:17 | 47.75858 | 12.41183 | 166° | 11km/h | 28186m | 5.2m/s | -46.3°C | 3.0% | 16.4hPa | 2.5V | 00:00:00 | 00:00:00 | 00:00:00 | |
| IN3HCDX | 2026-09-03 00:18:14 | 47.75862 | 12.41184 | 207° | 11km/h | 28175m | 6.5m/s | -46.4°C | 0.8% | 16.4hPa | 2.5V | 00:00:00 | 00:00:00 | 00:00:00 | |
| OE5WHR-10 | 2026-09-03 00:18:13 | 47.75868 | 12.41190 | 226° | 11km/h | 28164m | 5.0m/s | -46.4°C | 3.0% | 16.4hPa | 2.5V | 00:00:00 | 01:48:53 | 00:00:00 | |
| OE8JPQ-2 | 2026-09-03 00:18:05 | 47.75886 | 12.41190 | 165° | 11km/h | 28117m | 5.1m/s | -46.5°C | 3.1% | 16.5hPa | 2.5V | 00:00:00 | 00:00:00 | 00:00:00 | |
| DG1MFX-10 | 2026-09-03 00:18:01 | 47.75897 | 12.41184 | 151° | 11km/h | 28100m | 5.5m/s | -46.6°C | 0.9% | 16.6hPa | 2.5V | 00:00:00 | 00:00:00 | 00:00:00 | |
| OE5DRO-10 | 2026-09-03 00:17:58 | 47.75905 | 12.41184 | 225° | 11km/h | 28078m | 5.8m/s | -46.6°C | 3.1% | 16.6hPa | 2.5V | 00:00:00 | 00:00:00 | 08:30:00 | |
| IN3HCDX | 2026-09-03 00:17:53 | 47.75911 | 12.41195 | 220° | 4km/h | 28057m | 5.8m/s | -46.6°C | 0.8% | 16.7hPa | 2.5V | 00:00:00 | 00:00:00 | 00:00:00 | |
| OE5WHR-10 | 2026-09-03 00:17:52 | 47.75912 | 12.41195 | 137° | 11km/h | 28047m | 4.2m/s | -46.6°C | 3.1% | 16.7hPa | 2.5V | 00:00:00 | 00:00:00 | 00:00:00 | |
| OE8JPQ-2 | 2026-09-03 00:17:45 | 47.75935 | 12.41202 | 184° | 13km/h | 28008m | 5.6m/s | -46.5°C | 3.1% | 16.8hPa | 2.5V | 00:00:00 | 00:00:00 | 00:00:00 | |
| DG1MFX-10 | 2026-09-03 00:17:41 | 47.75943 | 12.41201 | 180° | 11km/h | 27992m | 6.3m/s | -46.5°C | 0.8% | 16.9hPa | 2.5V | 00:00:00 | 00:00:00 | 00:00:00 | |
| OE5DRO-10 | 2026-09-03 00:17:39 | 47.75954 | 12.41203 | 177° | 13km/h | 27970m | 6.3m/s | -46.4°C | 3.0% | 16.9hPa | 2.5V | 00:00:00 | 00:00:00 | 00:00:00 | |
| IN3HCDX | 2026-09-03 00:17:32 | 47.75965 | 12.41208 | 199° | 13km/h | 27942m | 5.1m/s | -46.5°C | 0.8% | 17.0hPa | 2.5V | 00:00:00 | 00:00:00 | 00:00:00 | |
| OE5WHR-10 | 2026-09-03 00:17:31 | 47.75970 | 12.41208 | 161° | 13km/h | 27930m | 5.7m/s | -46.5°C | 3.1% | 17.0hPa | 2.5V | 00:00:00 | 00:00:00 | 00:00:00 | |
| OE8JPQ-2 | 2026-09-03 00:17:25 | 47.75991 | 12.41188 | 136° | 13km/h | 27897m | 6.3m/s | -46.5°C | 3.1% | 17.1hPa | 2.5V | 00:00:00 | 01:48:05 | 00:00:00 | |
| OE5DXL-15 | 2026-09-03 00:17:22 | 47.75997 | 12.41177 | 133° | 13km/h | 27880m | 5.6m/s | -46.4°C | 3.0% | 17.2hPa | 2.5V | 00:00:00 | 00:00:00 | 08:30:00 | |
| DG1MFX-10 | 2026-09-03 00:17:20 | 47.75998 | 12.41175 | 165° | 7km/h | 27875m | 6.0m/s | -46.5°C | 0.9% | 17.2hPa | 2.5V | 00:00:00 | 00:00:00 | 00:00:00 | |
| IN3HCDX | 2026-09-03 00:17:11 | 47.76013 | 12.41160 | 135° | 15km/h | 27828m | 4.8m/s | -46.6°C | 0.8% | 17.3hPa | 2.5V | 00:00:00 | 00:00:00 | 00:00:00 | |
| OE5WHR-10 | 2026-09-03 00:17:10 | 47.76018 | 12.41150 | 121° | 15km/h | 27818m | 6.1m/s | -46.6°C | 3.1% | 17.3hPa | 2.5V | 00:00:00 | 01:47:50 | 00:00:00 | |
| OE8JPQ-2 | 2026-09-03 00:17:05 | 47.76027 | 12.41119 | 126° | 15km/h | 27790m | 4.7m/s | -46.7°C | 3.1% | 17.4hPa | 2.5V | 00:00:00 | 00:00:00 | 08:30:00 | |
| BAUMI2-15 | 2026-09-03 00:17:01 | 47.76028 | 12.41107 | 61° | 7km/h | 27769m | 5.1m/s | -46.8°C | 3.1% | 17.5hPa | 2.6V | 00:00:00 | 01:47:41 | 00:00:00 | |
| DG1MFX-10 | 2026-09-03 00:17:00 | 47.76028 | 12.41107 | 62° | 11km/h | 27769m | 5.2m/s | -46.8°C | 0.9% | 17.5hPa | 2.6V | 00:00:00 | 00:00:00 | 00:00:00 | |
| BAUMI2-15 | 2026-09-03 00:16:56 | 47.76027 | 12.41095 | 120° | 20km/h | 27743m | 5.2m/s | -46.8°C | 3.1% | 17.5hPa | 2.6V | 00:00:00 | 01:47:36 | 00:00:00 | |
| OE5DXL-15 | 2026-09-03 00:16:52 | 47.76034 | 12.41066 | 109° | 13km/h | 27722m | 5.7m/s | -46.9°C | 3.0% | 17.6hPa | 2.6V | 00:00:00 | 00:00:00 | 00:00:00 | |
| IN3HCDX | 2026-09-03 00:16:51 | 47.76036 | 12.41058 | 110° | 22km/h | 27716m | 5.3m/s | -46.9°C | 0.8% | 17.6hPa | 2.6V | 00:00:00 | 00:00:00 | 00:00:00 | |
| OE5WHR-10 | 2026-09-03 00:16:49 | 47.76038 | 12.41044 | 90° | 13km/h | 27707m | 4.0m/s | -47.0°C | 3.1% | 17.6hPa | 2.6V | 00:00:00 | 00:00:00 | 08:30:00 | |
| BAUMI2-15 | 2026-09-03 00:16:46 | 47.76034 | 12.41027 | 53° | 9km/h | 27691m | 4.8m/s | -47.1°C | 3.1% | 17.7hPa | 2.5V | 00:00:00 | 01:47:26 | 08:30:00 | |
| OE8JPQ-2 | 2026-09-03 00:16:45 | 47.76031 | 12.41023 | 48° | 11km/h | 27686m | 4.6m/s | -47.1°C | 3.1% | 17.7hPa | 2.5V | 00:00:00 | 00:00:00 | 00:00:00 | |
| BAUMI2-15 | 2026-09-03 00:16:41 | 47.76031 | 12.41013 | 123° | 18km/h | 27664m | 5.4m/s | -47.4°C | 3.1% | 17.7hPa | 2.5V | 00:00:00 | 01:47:21 | 00:00:00 | |
| DG1MFX-10 | 2026-09-03 00:16:39 | 47.76033 | 12.41008 | 113° | 16km/h | 27659m | 5.9m/s | -47.5°C | 0.9% | 17.8hPa | 2.5V | 00:00:00 | 00:00:00 | 00:00:00 | |
| BAUMI2-15 | 2026-09-03 00:16:36 | 47.76036 | 12.40980 | 91° | 11km/h | 27639m | 5.8m/s | -47.7°C | 3.2% | 17.8hPa | 2.5V | 00:00:00 | 01:47:16 | 00:00:00 | |
| OE5WHR-10 | 2026-09-03 00:16:28 | 47.76021 | 12.40969 | 41° | 9km/h | 27596m | 6.0m/s | -47.9°C | 3.2% | 17.9hPa | 2.5V | 00:00:00 | 00:00:00 | 00:00:00 | |
| OE5DRO-10 | 2026-09-03 00:16:27 | 47.76022 | 12.40966 | 138° | 11km/h | 27586m | 4.8m/s | -47.9°C | 3.2% | 17.9hPa | 2.5V | 00:00:00 | 00:00:00 | 00:00:00 | |
| BAUMI2-15 | 2026-09-03 00:16:26 | 47.76022 | 12.40966 | 138° | 13km/h | 27586m | 4.8m/s | -47.9°C | 3.2% | 17.9hPa | 2.5V | 00:00:00 | 01:47:06 | 00:00:00 | |
| OE8JPQ-2 | 2026-09-03 00:16:25 | 47.76024 | 12.40964 | 122° | 11km/h | 27580m | 6.1m/s | -47.9°C | 3.2% | 18.0hPa | 2.5V | 00:00:00 | 01:47:05 | 00:00:00 | |
| BAUMI2-15 | 2026-09-03 00:16:21 | 47.76024 | 12.40944 | 68° | 13km/h | 27560m | 5.7m/s | -47.8°C | 3.2% | 18.0hPa | 2.5V | 00:00:00 | 01:47:01 | 00:00:00 | |
| DG1MFX-10 | 2026-09-03 00:16:18 | 47.76020 | 12.40938 | 32° | 11km/h | 27549m | 4.7m/s | -47.9°C | 0.9% | 18.1hPa | 2.5V | 00:00:00 | 00:00:00 | 00:00:00 | |
| BAUMI2-15 | 2026-09-03 00:16:16 | 47.76011 | 12.40933 | 12° | 9km/h | 27533m | 4.5m/s | -48.0°C | 3.2% | 18.1hPa | 2.5V | 00:00:00 | 01:46:56 | 00:00:00 | |
| BAUMI2-15 | 2026-09-03 00:16:11 | 47.76002 | 12.40936 | 31° | 9km/h | 27507m | 5.6m/s | -48.3°C | 3.3% | 18.2hPa | 2.5V | 00:00:00 | 01:46:51 | 00:00:00 | |
| IN3HCDX | 2026-09-03 00:16:09 | 47.76001 | 12.40934 | 57° | 7km/h | 27501m | 5.7m/s | -48.4°C | 0.9% | 18.2hPa | 2.5V | 00:00:00 | 00:00:00 | 00:00:00 | |
| OE5WHR-10 | 2026-09-03 00:16:07 | 47.75997 | 12.40924 | 59° | 7km/h | 27486m | 5.8m/s | -48.5°C | 3.3% | 18.2hPa | 2.5V | 00:00:00 | 01:46:47 | 00:00:00 | |
| OE8JPQ-2 | 2026-09-03 00:16:05 | 47.75995 | 12.40921 | 3° | 7km/h | 27475m | 4.7m/s | -48.5°C | 3.3% | 18.3hPa | 2.5V | 00:00:00 | 00:00:00 | 00:00:00 | |
| DF3TZ-5 | 2026-09-03 00:15:56 | 47.75988 | 12.40946 | 15° | 2km/h | 27411m | 5.8m/s | 0°C | -1.0% | 18.5hPa | 2.5V | 00:00:00 | 00:00:00 | 00:00:00 | |
| OE5DXL-15 | 2026-09-03 00:15:52 | 47.75987 | 12.40945 | 16° | 7km/h | 27405m | 5.8m/s | -48.8°C | 3.4% | 18.5hPa | 2.5V | 00:00:00 | 00:00:00 | 00:00:00 | |
| BAUMI2-15 | 2026-09-03 00:15:51 | 47.75987 | 12.40945 | 357° | 5km/h | 27400m | 4.7m/s | -48.9°C | 3.4% | 18.5hPa | 2.5V | 00:00:00 | 01:46:31 | 00:00:00 | |
| IN3HCDX | 2026-09-03 00:15:48 | 47.75985 | 12.40945 | 352° | 5km/h | 27389m | 6.2m/s | -49.0°C | 0.9% | 18.5hPa | 2.5V | 00:00:00 | 00:00:00 | 00:00:00 | |
| OE5WHR-10 | 2026-09-03 00:15:46 | 47.75981 | 12.40950 | 277° | 9km/h | 27373m | 6.1m/s | -49.0°C | 3.4% | 18.6hPa | 2.5V | 00:00:00 | 00:00:00 | 00:00:00 | |
| OE8JPQ-2 | 2026-09-03 00:15:45 | 47.75982 | 12.40953 | 251° | 9km/h | 27367m | 6.1m/s | -49.0°C | 3.4% | 18.6hPa | 2.6V | 00:00:00 | 00:00:00 | 00:00:00 | |
| OE5FHM-15 | 2026-09-03 00:15:43 | 47.75985 | 12.40962 | 233° | 9km/h | 27357m | 4.3m/s | -49.0°C | 3.4% | 18.6hPa | 2.6V | 00:00:00 | 01:46:23 | 00:00:00 | |
| BAUMI2-15 | 2026-09-03 00:15:41 | 47.75988 | 12.40967 | 235° | 5km/h | 27346m | 5.7m/s | -49.0°C | 3.4% | 18.6hPa | 2.6V | 00:00:00 | 01:46:21 | 00:00:00 | |
| DG1MFX-10 | 2026-09-03 00:15:37 | 47.75987 | 12.40962 | 80° | 9km/h | 27329m | 6.1m/s | -49.1°C | 1.0% | 18.7hPa | 2.6V | 00:00:00 | 00:00:00 | 00:00:00 | |
| BAUMI2-15 | 2026-09-03 00:15:36 | 47.75986 | 12.40955 | 66° | 9km/h | 27318m | 5.5m/s | -49.0°C | 3.4% | 18.7hPa | 2.6V | 00:00:00 | 01:46:16 | 00:00:00 | |
| IN3IJJ | 2026-09-03 00:15:32 | 47.75980 | 12.40946 | 39° | 7km/h | 27302m | 4.1m/s | 0°C | 0% | 0hPa | 2.6V | 00:00:00 | 00:00:00 | 00:00:00 | |
| BAUMI2-15 | 2026-09-03 00:15:31 | 47.75980 | 12.40945 | 192° | 7km/h | 27291m | 6.7m/s | -49.1°C | 3.5% | 18.8hPa | 2.6V | 00:00:00 | 01:46:11 | 00:00:00 | |
| DH7VM-15 | 2026-09-03 00:15:30 | 47.75980 | 12.40945 | 192° | 5km/h | 27291m | 6.7m/s | 0°C | 0% | 0hPa | 2.5V | 00:00:00 | 00:00:00 | 00:00:00 | |
| IN3HCDX | 2026-09-03 00:15:28 | 47.75987 | 12.40947 | 191° | 9km/h | 27274m | 6.0m/s | -49.2°C | 0.9% | 18.9hPa | 2.5V | 00:00:00 | 00:00:00 | 00:00:00 | |
| BAUMI2-15 | 2026-09-03 00:15:26 | 47.75990 | 12.40946 | 112° | 7km/h | 27264m | 4.5m/s | -49.1°C | 3.5% | 18.9hPa | 2.5V | 00:00:00 | 01:46:06 | 00:00:00 | |
| OE5WHR-10 | 2026-09-03 00:15:25 | 47.75990 | 12.40944 | 97° | 9km/h | 27259m | 5.5m/s | -49.1°C | 3.5% | 18.9hPa | 2.5V | 00:00:00 | 00:00:00 | 00:00:00 | |
| DF3TZ-5 | 2026-09-03 00:15:24 | 47.75990 | 12.40941 | 89° | 7km/h | 27253m | 5.8m/s | 0°C | -1.0% | 18.9hPa | 2.5V | 00:00:00 | 00:00:00 | 00:00:00 | |
| PG1ADW-2 | 2026-09-03 00:15:22 | 47.75989 | 12.40936 | 51° | 13km/h | 27243m | 4.9m/s | -49.1°C | 3.4% | 18.9hPa | 2.5V | 00:00:00 | 00:00:00 | 00:00:00 | |
| BAUMI2-15 | 2026-09-03 00:15:21 | 47.75987 | 12.40934 | 33° | 9km/h | 27237m | 6.5m/s | -49.1°C | 3.4% | 18.9hPa | 2.5V | 00:00:00 | 01:46:01 | 00:00:00 | |
| BAUMI2-15 | 2026-09-03 00:15:17 | 47.75980 | 12.40925 | 137° | 11km/h | 27209m | 5.0m/s | -49.1°C | 3.5% | 19.0hPa | 2.5V | 00:00:00 | 01:45:56 | 08:30:00 | |
| OE5FHM-15 | 2026-09-03 00:15:13 | 47.75986 | 12.40914 | 113° | 13km/h | 27194m | 5.9m/s | -49.1°C | 3.4% | 19.1hPa | 2.5V | 00:00:00 | 01:45:53 | 00:00:00 | |
| BAUMI2-15 | 2026-09-03 00:15:11 | 47.75986 | 12.40906 | 64° | 11km/h | 27183m | 5.4m/s | -49.1°C | 3.4% | 19.1hPa | 2.5V | 00:00:00 | 01:45:51 | 00:00:00 | |
| BAUMI2-15 | 2026-09-03 00:15:06 | 47.75979 | 12.40889 | 65° | 7km/h | 27155m | 5.4m/s | -49.2°C | 3.5% | 19.2hPa | 2.5V | 00:00:00 | 01:45:46 | 00:00:00 | |
| OE8JPQ-2 | 2026-09-03 00:15:05 | 47.75978 | 12.40887 | 57° | 13km/h | 27149m | 6.2m/s | -49.2°C | 3.5% | 19.2hPa | 2.5V | 00:00:00 | 00:00:00 | 00:00:00 | |
| OE5WHR-10 | 2026-09-03 00:15:04 | 47.75977 | 12.40884 | 67° | 13km/h | 27144m | 4.8m/s | -49.2°C | 3.5% | 19.2hPa | 2.6V | 00:00:00 | 01:45:44 | 00:00:00 | |
| DF3TZ-5 | 2026-09-03 00:14:53 | 47.75980 | 12.40836 | 45° | 13km/h | 27064m | 5.4m/s | 0°C | -1.0% | -1.0hPa | 2.6V | 00:00:00 | 00:00:00 | 00:00:00 | |
| OE5DXL-15 | 2026-09-03 00:14:52 | 47.75984 | 12.40841 | 39° | 13km/h | 27076m | 5.3m/s | -49.3°C | 3.5% | 19.4hPa | 2.6V | 00:00:00 | 00:00:00 | 00:00:00 | |
| OE8JPQ-2 | 2026-09-03 00:14:45 | 47.75979 | 12.40806 | 118° | 13km/h | 27036m | 4.5m/s | -49.4°C | 3.5% | 19.5hPa | 2.6V | 00:00:00 | 00:00:00 | 00:00:00 | |
| OE5WHR-10 | 2026-09-03 00:14:44 | 47.75982 | 12.40798 | 91° | 13km/h | 27026m | 6.1m/s | -49.4°C | 3.5% | 19.6hPa | 2.6V | 00:00:00 | 00:00:00 | 00:00:00 | |
| OE5FHM-15 | 2026-09-03 00:14:43 | 47.75982 | 12.40798 | 91° | 9km/h | 27026m | 6.1m/s | -49.4°C | 3.5% | 19.6hPa | 2.6V | 00:00:00 | 01:45:23 | 08:30:00 | |
| DG1MFX-10 | 2026-09-03 00:14:35 | 47.75967 | 12.40793 | 343° | 7km/h | 26986m | 6.2m/s | -49.5°C | 1.0% | 19.7hPa | 2.5V | 00:00:00 | 00:00:00 | 00:00:00 | |
| OE8JPQ-2 | 2026-09-03 00:14:25 | 47.75941 | 12.40766 | 6° | 16km/h | 26924m | 6.0m/s | -49.3°C | 3.5% | 19.9hPa | 2.5V | 00:00:00 | 01:45:05 | 00:00:00 | |
| IN3HCDX | 2026-09-03 00:14:24 | 47.75941 | 12.40766 | 6° | 20km/h | 26924m | 6.1m/s | -49.3°C | 1.0% | 19.9hPa | 2.5V | 00:00:00 | 00:00:00 | 00:00:00 | |
| OE5WHR-10 | 2026-09-03 00:14:22 | 47.75927 | 12.40763 | 9° | 16km/h | 26908m | 5.6m/s | -49.3°C | 3.5% | 19.9hPa | 2.5V | 00:00:00 | 00:00:00 | 00:00:00 | |
| OE5MMP-10 | 2026-09-03 00:14:20 | 47.75919 | 12.40763 | 356° | 16km/h | 26895m | 5.6m/s | -49.2°C | 3.5% | 20.0hPa | 2.5V | 00:00:00 | 01:45:00 | 08:30:00 | |
| DG1MFX-10 | 2026-09-03 00:14:15 | 47.75908 | 12.40762 | 32° | 9km/h | 26873m | 5.4m/s | -49.2°C | 1.0% | 20.1hPa | 2.5V | 00:00:00 | 00:00:00 | 00:00:00 | |
| OE5FHM-15 | 2026-09-03 00:14:13 | 47.75899 | 12.40758 | 1° | 15km/h | 26857m | 6.4m/s | -49.0°C | 3.5% | 20.1hPa | 2.5V | 00:00:00 | 01:44:53 | 00:00:00 | |
| PG1ADW-2 | 2026-09-03 00:14:07 | 47.75860 | 12.40768 | 333° | 13km/h | 26818m | 6.7m/s | -48.8°C | 3.5% | 20.2hPa | 2.5V | 00:00:00 | 00:00:00 | 08:30:00 | |
| OE5MMP-10 | 2026-09-03 00:14:03 | 47.75849 | 12.40777 | 333° | 13km/h | 26800m | 6.6m/s | -48.8°C | 3.5% | 20.3hPa | 2.5V | 00:00:00 | 01:44:43 | 00:00:00 | |
| DF3TZ-5 | 2026-09-03 00:13:51 | 47.75809 | 12.40800 | 353° | 5km/h | 26718m | 6.6m/s | 0°C | -1.0% | -1.0hPa | 2.5V | 00:00:00 | 00:00:00 | 00:00:00 | |
| PG1ADW-2 | 2026-09-03 00:13:46 | 47.75803 | 12.40799 | 356° | 11km/h | 26701m | 6.6m/s | -48.5°C | 3.4% | 20.6hPa | 2.5V | 00:00:00 | 00:00:00 | 00:00:00 | |
| OE8JPQ-2 | 2026-09-03 00:13:45 | 47.75800 | 12.40800 | 341° | 11km/h | 26695m | 5.6m/s | -48.5°C | 3.4% | 20.6hPa | 2.5V | 00:00:00 | 00:00:00 | 00:00:00 | |
| IN3HCDX | 2026-09-03 00:13:43 | 47.75797 | 12.40802 | 331° | 15km/h | 26690m | 4.7m/s | -48.6°C | 0.9% | 20.7hPa | 2.5V | 00:00:00 | 00:00:00 | 00:00:00 | |
| OE5MMP-10 | 2026-09-03 00:13:42 | 47.75791 | 12.40808 | 316° | 11km/h | 26679m | 6.2m/s | -48.5°C | 3.4% | 20.7hPa | 2.5V | 00:00:00 | 01:44:22 | 00:00:00 | |
| OE5WHR-10 | 2026-09-03 00:13:40 | 47.75788 | 12.40814 | 300° | 11km/h | 26667m | 5.1m/s | -48.5°C | 3.4% | 20.7hPa | 2.6V | 00:00:00 | 00:00:00 | 08:30:00 | |
| OE5DRO-10 | 2026-09-03 00:13:36 | 47.75782 | 12.40830 | 301° | 9km/h | 26644m | 5.5m/s | -48.5°C | 3.4% | 20.7hPa | 2.5V | 00:00:00 | 00:00:00 | 00:00:00 | |
| OE5FHM-15 | 2026-09-03 00:13:34 | 47.75779 | 12.40838 | 295° | 9km/h | 26632m | 5.6m/s | -48.4°C | 3.4% | 20.8hPa | 2.6V | 00:00:00 | 01:44:14 | 00:00:00 | |
| OE5HKT-10 | 2026-09-03 00:13:32 | 47.75777 | 12.40843 | 308° | 11km/h | 26620m | 6.6m/s | -48.4°C | 3.4% | 20.9hPa | 2.6V | 00:00:00 | 00:00:00 | 08:30:00 | |
| PG1ADW-2 | 2026-09-03 00:13:26 | 47.75766 | 12.40860 | 311° | 9km/h | 26586m | 5.8m/s | -48.3°C | 3.3% | 21.0hPa | 2.5V | 00:00:00 | 01:44:06 | 00:00:00 | |
| OE8JPQ-2 | 2026-09-03 00:13:25 | 47.75764 | 12.40862 | 307° | 9km/h | 26579m | 6.2m/s | -48.3°C | 3.3% | 21.0hPa | 2.5V | 00:00:00 | 01:44:05 | 00:00:00 | |
| OE5DXL-15 | 2026-09-03 00:13:22 | 47.75763 | 12.40875 | 240° | 7km/h | 26557m | 5.9m/s | -48.4°C | 3.3% | 21.0hPa | 2.5V | 00:00:00 | 00:00:00 | 00:00:00 | |
| OE5MMP-10 | 2026-09-03 00:13:21 | 47.75763 | 12.40875 | 240° | 7km/h | 26557m | 5.9m/s | -48.4°C | 3.3% | 21.0hPa | 2.5V | 00:00:00 | 01:44:01 | 00:00:00 | |
| OE5WHR-10 | 2026-09-03 00:13:19 | 47.75765 | 12.40881 | 256° | 7km/h | 26545m | 6.3m/s | -48.4°C | 3.3% | 21.1hPa | 2.5V | 00:00:00 | 00:00:00 | 00:00:00 | |
| OE5DRO-10 | 2026-09-03 00:13:17 | 47.75764 | 12.40888 | 309° | 7km/h | 26533m | 4.8m/s | -48.4°C | 3.3% | 21.1hPa | 2.5V | 00:00:00 | 00:00:00 | 00:00:00 | |
| DG1MFX-10 | 2026-09-03 00:13:14 | 47.75758 | 12.40892 | 3° | 9km/h | 26516m | 5.8m/s | -48.4°C | 0.9% | 21.2hPa | 2.5V | 00:00:00 | 00:00:00 | 00:00:00 | |
| OE5HKT-10 | 2026-09-03 00:13:09 | 47.75745 | 12.40893 | 341° | 4km/h | 26489m | 4.3m/s | -48.5°C | 3.4% | 21.3hPa | 2.5V | 00:00:00 | 00:00:00 | 00:00:00 | |
| OE8JPQ-2 | 2026-09-03 00:13:05 | 47.75745 | 12.40895 | 191° | 4km/h | 26466m | 5.0m/s | -48.4°C | 3.4% | 21.3hPa | 2.5V | 00:00:00 | 00:00:00 | 00:00:00 | |
| OE5MMP-10 | 2026-09-03 00:13:02 | 47.75748 | 12.40898 | 231° | 4km/h | 26450m | 4.5m/s | -48.4°C | 3.4% | 21.4hPa | 2.5V | 00:00:00 | 01:43:42 | 00:00:00 | |
| BAUMI2-15 | 2026-09-03 00:13:01 | 47.75748 | 12.40898 | 176° | 2km/h | 26445m | 5.9m/s | -48.4°C | 3.3% | 21.4hPa | 2.6V | 00:00:00 | 01:43:41 | 00:00:00 | |
| OE5WHR-10 | 2026-09-03 00:12:58 | 47.75749 | 12.40896 | 106° | 2km/h | 26428m | 5.0m/s | -48.3°C | 3.4% | 21.5hPa | 2.6V | 00:00:00 | 01:43:38 | 00:00:00 | |
| BAUMI2-15 | 2026-09-03 00:12:56 | 47.75749 | 12.40897 | 309° | 4km/h | 26416m | 5.3m/s | -48.3°C | 3.4% | 21.5hPa | 2.6V | 00:00:00 | 01:43:36 | 00:00:00 | |
| OE5MMP-10 | 2026-09-03 00:12:52 | 47.75747 | 12.40902 | 149° | 2km/h | 26394m | 5.0m/s | -48.4°C | 3.4% | 21.6hPa | 2.6V | 00:00:00 | 01:43:32 | 00:00:00 | |
| BAUMI2-15 | 2026-09-03 00:12:51 | 47.75747 | 12.40901 | 148° | 2km/h | 26389m | 5.4m/s | -48.4°C | 3.4% | 21.6hPa | 2.6V | 00:00:00 | 01:43:31 | 00:00:00 | |
| BAUMI2-15 | 2026-09-03 00:12:46 | 47.75746 | 12.40904 | 313° | 2km/h | 26362m | 6.2m/s | -48.3°C | 3.4% | 21.7hPa | 2.6V | 00:00:00 | 01:43:26 | 00:00:00 | |
| OE8JPQ-2 | 2026-09-03 00:12:45 | 47.75746 | 12.40903 | 128° | 4km/h | 26356m | 5.6m/s | -48.3°C | 3.3% | 21.7hPa | 2.5V | 00:00:00 | 00:00:00 | 00:00:00 | |
| OE5HKT-10 | 2026-09-03 00:12:44 | 47.75747 | 12.40903 | 154° | 4km/h | 26351m | 4.9m/s | -48.3°C | 3.3% | 21.7hPa | 2.5V | 00:00:00 | 01:43:24 | 00:00:00 | |
| BAUMI2-15 | 2026-09-03 00:12:41 | 47.75747 | 12.40906 | 277° | 4km/h | 26334m | 4.6m/s | -48.3°C | 3.3% | 21.8hPa | 2.5V | 00:00:00 | 01:43:21 | 00:00:00 | |
| IN3HCDX | 2026-09-03 00:12:40 | 47.75747 | 12.40906 | 277° | 4km/h | 26334m | 4.6m/s | -48.4°C | 0.9% | 21.8hPa | 2.5V | 00:00:00 | 00:00:00 | 00:00:00 | |
| OE5WHR-10 | 2026-09-03 00:12:37 | 47.75748 | 12.40903 | 110° | 5km/h | 26311m | 5.8m/s | -48.4°C | 3.4% | 21.9hPa | 2.5V | 00:00:00 | 00:00:00 | 00:00:00 | |
| BAUMI2-15 | 2026-09-03 00:12:36 | 47.75748 | 12.40901 | 92° | 5km/h | 26305m | 5.8m/s | -48.4°C | 3.3% | 21.9hPa | 2.5V | 00:00:00 | 01:43:16 | 00:00:00 | |
| OE5MMP-10 | 2026-09-03 00:12:32 | 47.75748 | 12.40893 | 92° | 7km/h | 26283m | 4.9m/s | -48.4°C | 3.4% | 22.0hPa | 2.5V | 00:00:00 | 01:43:12 | 08:30:00 | |
| BAUMI2-15 | 2026-09-03 00:12:31 | 47.75748 | 12.40890 | 93° | 4km/h | 26278m | 4.4m/s | -48.4°C | 3.3% | 22.0hPa | 2.5V | 00:00:00 | 01:43:11 | 08:30:00 | |
| BAUMI2-15 | 2026-09-03 00:12:26 | 47.75745 | 12.40886 | 87° | 9km/h | 26252m | 6.2m/s | -48.4°C | 3.4% | 22.0hPa | 2.5V | 00:00:00 | 01:43:06 | 00:00:00 | |
| OE8JPQ-2 | 2026-09-03 00:12:25 | 47.75746 | 12.40884 | 111° | 9km/h | 26246m | 5.3m/s | -48.4°C | 3.3% | 22.1hPa | 2.5V | 00:00:00 | 01:43:05 | 00:00:00 | |
| OE5HKT-10 | 2026-09-03 00:12:23 | 47.75748 | 12.40876 | 127° | 9km/h | 26235m | 5.2m/s | -48.4°C | 3.3% | 22.1hPa | 2.5V | 00:00:00 | 00:00:00 | 00:00:00 | |
| OE5MMP-10 | 2026-09-03 00:12:22 | 47.75750 | 12.40873 | 136° | 7km/h | 26230m | 6.3m/s | -48.4°C | 3.3% | 22.1hPa | 2.5V | 00:00:00 | 01:43:02 | 00:00:00 | |
| BAUMI2-15 | 2026-09-03 00:12:21 | 47.75751 | 12.40871 | 145° | 5km/h | 26224m | 5.2m/s | -48.4°C | 3.3% | 22.2hPa | 2.5V | 00:00:00 | 01:43:01 | 00:00:00 | |
| IN3HCDX | 2026-09-03 00:12:19 | 47.75753 | 12.40870 | 135° | 5km/h | 26219m | 4.7m/s | -48.5°C | 0.9% | 22.2hPa | 2.5V | 00:00:00 | 00:00:00 | 00:00:00 | |
| BAUMI2-15 | 2026-09-03 00:12:16 | 47.75751 | 12.40863 | 19° | 9km/h | 26196m | 5.7m/s | -48.4°C | 3.3% | 22.2hPa | 2.5V | 00:00:00 | 01:42:56 | 00:00:00 | |
| OE5MMP-10 | 2026-09-03 00:12:12 | 47.75743 | 12.40864 | 29° | 11km/h | 26174m | 6.2m/s | -48.5°C | 3.3% | 22.3hPa | 2.5V | 00:00:00 | 01:42:52 | 00:00:00 | |
| BAUMI2-15 | 2026-09-03 00:12:11 | 47.75741 | 12.40861 | 69° | 13km/h | 26169m | 5.5m/s | -48.5°C | 3.3% | 22.3hPa | 2.5V | 00:00:00 | 01:42:51 | 00:00:00 | |
| BAUMI2-15 | 2026-09-03 00:12:06 | 47.75747 | 12.40839 | 134° | 9km/h | 26142m | 5.2m/s | -48.6°C | 3.3% | 22.4hPa | 2.5V | 00:00:00 | 01:42:46 | 00:00:00 | |
| OE8JPQ-2 | 2026-09-03 00:12:05 | 47.75749 | 12.40836 | 125° | 9km/h | 26136m | 6.2m/s | -48.7°C | 3.3% | 22.4hPa | 2.5V | 00:00:00 | 00:00:00 | 00:00:00 | |
| OE5MMP-10 | 2026-09-03 00:12:02 | 47.75749 | 12.40826 | 53° | 9km/h | 26120m | 5.1m/s | -48.9°C | 3.4% | 22.5hPa | 2.5V | 00:00:00 | 01:42:42 | 00:00:00 | |
| BAUMI2-15 | 2026-09-03 00:12:01 | 47.75748 | 12.40825 | 28° | 7km/h | 26114m | 6.4m/s | -48.9°C | 3.4% | 22.5hPa | 2.6V | 00:00:00 | 01:42:41 | 00:00:00 | |
| IN3HCDX | 2026-09-03 00:11:58 | 47.75745 | 12.40823 | 30° | 7km/h | 26103m | 4.6m/s | -49.0°C | 0.9% | 22.6hPa | 2.6V | 00:00:00 | 00:00:00 | 00:00:00 | |
| BAUMI2-15 | 2026-09-03 00:11:56 | 47.75742 | 12.40813 | 86° | 9km/h | 26087m | 4.8m/s | -49.0°C | 3.4% | 22.6hPa | 2.6V | 00:00:00 | 01:42:36 | 00:00:00 | |
| OE5WHR-10 | 2026-09-03 00:11:55 | 47.75742 | 12.40808 | 96° | 7km/h | 26082m | 5.7m/s | -49.1°C | 3.4% | 22.7hPa | 2.6V | 00:00:00 | 01:42:35 | 00:00:00 | |
| OE5MMP-10 | 2026-09-03 00:11:52 | 47.75743 | 12.40800 | 108° | 9km/h | 26066m | 4.9m/s | -49.3°C | 3.5% | 22.7hPa | 2.6V | 00:00:00 | 01:42:32 | 00:00:00 | |
| BAUMI2-15 | 2026-09-03 00:11:51 | 47.75744 | 12.40798 | 84° | 9km/h | 26060m | 5.9m/s | -49.3°C | 3.5% | 22.7hPa | 2.6V | 00:00:00 | 01:42:31 | 00:00:00 | |
| DG1MFX-10 | 2026-09-03 00:11:50 | 47.75744 | 12.40798 | 85° | 5km/h | 26060m | 6.0m/s | -49.4°C | 1.0% | 22.8hPa | 2.6V | 00:00:00 | 00:00:00 | 00:00:00 | |
| BAUMI2-15 | 2026-09-03 00:11:46 | 47.75734 | 12.40792 | 340° | 11km/h | 26033m | 5.0m/s | -49.4°C | 3.5% | 22.8hPa | 2.6V | 00:00:00 | 01:42:26 | 08:30:00 | |
| OE8JPQ-2 | 2026-09-03 00:11:45 | 47.75731 | 12.40794 | 345° | 7km/h | 26029m | 4.3m/s | -49.4°C | 3.5% | 22.8hPa | 2.5V | 00:00:00 | 00:00:00 | 00:00:00 | |
| OE5MMP-10 | 2026-09-03 00:11:42 | 47.75724 | 12.40791 | 49° | 5km/h | 26012m | 5.0m/s | -49.3°C | 3.5% | 22.9hPa | 2.5V | 00:00:00 | 01:42:22 | 00:00:00 | |
| OE5DRO-10 | 2026-09-03 00:11:41 | 47.75722 | 12.40782 | 128° | 7km/h | 25991m | 4.7m/s | -49.3°C | 3.4% | 23.0hPa | 2.5V | 00:00:00 | 00:00:00 | 08:30:00 | |
| IN3HCDX | 2026-09-03 00:11:38 | 47.75723 | 12.40782 | 129° | 5km/h | 25991m | 4.7m/s | -49.4°C | 0.9% | 23.0hPa | 2.6V | 00:00:00 | 00:00:00 | 00:00:00 | |
| BAUMI2-15 | 2026-09-03 00:11:36 | 47.75724 | 12.40778 | 115° | 5km/h | 25980m | 5.4m/s | -49.3°C | 3.5% | 23.0hPa | 2.6V | 00:00:00 | 01:42:16 | 00:00:00 | |
| OE5WHR-10 | 2026-09-03 00:11:34 | 47.75724 | 12.40776 | 329° | 7km/h | 25970m | 5.2m/s | -49.3°C | 3.5% | 23.1hPa | 2.6V | 00:00:00 | 00:00:00 | 00:00:00 | |
| OE5MMP-10 | 2026-09-03 00:11:32 | 47.75723 | 12.40780 | 303° | 7km/h | 25958m | 5.3m/s | -49.4°C | 3.5% | 23.1hPa | 2.5V | 00:00:00 | 01:42:12 | 00:00:00 | |
| BAUMI2-15 | 2026-09-03 00:11:31 | 47.75721 | 12.40783 | 312° | 7km/h | 25953m | 4.8m/s | -49.4°C | 3.5% | 23.1hPa | 2.5V | 00:00:00 | 01:42:11 | 00:00:00 | |
| DG1MFX-10 | 2026-09-03 00:11:29 | 47.75719 | 12.40786 | 325° | 11km/h | 25947m | 6.2m/s | -49.4°C | 1.0% | 23.2hPa | 2.6V | 00:00:00 | 00:00:00 | 00:00:00 | |
| BAUMI2-15 | 2026-09-03 00:11:26 | 47.75714 | 12.40788 | 107° | 7km/h | 25926m | 5.3m/s | -49.4°C | 3.4% | 23.2hPa | 2.6V | 00:00:00 | 01:42:06 | 00:00:00 | |
| OE8JPQ-2 | 2026-09-03 00:11:25 | 47.75714 | 12.40787 | 134° | 9km/h | 25920m | 4.8m/s | -49.4°C | 3.4% | 23.2hPa | 2.6V | 00:00:00 | 01:42:05 | 00:00:00 | |
| OE5MMP-10 | 2026-09-03 00:11:22 | 47.75717 | 12.40777 | 107° | 9km/h | 25904m | 4.5m/s | -49.3°C | 3.4% | 23.3hPa | 2.6V | 00:00:00 | 01:42:02 | 00:00:00 | |
| BAUMI2-15 | 2026-09-03 00:11:21 | 47.75718 | 12.40773 | 98° | 7km/h | 25899m | 4.5m/s | -49.4°C | 3.4% | 23.3hPa | 2.6V | 00:00:00 | 01:42:01 | 00:00:00 | |
| OE5HKT-10 | 2026-09-03 00:11:20 | 47.75718 | 12.40771 | 72° | 11km/h | 25894m | 6.2m/s | -49.4°C | 3.4% | 23.3hPa | 2.6V | 00:00:00 | 00:00:00 | 00:00:00 | |
| BAUMI2-15 | 2026-09-03 00:11:16 | 47.75710 | 12.40778 | 335° | 9km/h | 25870m | 5.3m/s | -49.9°C | 3.5% | 23.4hPa | 2.5V | 00:00:00 | 01:41:56 | 00:00:00 | |
| IN3HCDX | 2026-09-03 00:11:14 | 47.75708 | 12.40780 | 338° | 13km/h | 25865m | 4.4m/s | -50.0°C | 0.9% | 23.5hPa | 2.5V | 00:00:00 | 00:00:00 | 00:00:00 | |
| OE5WHR-10 | 2026-09-03 00:11:13 | 47.75703 | 12.40784 | 312° | 11km/h | 25855m | 5.9m/s | -50.0°C | 3.5% | 23.5hPa | 2.5V | 00:00:00 | 00:00:00 | 00:00:00 | |
| OE5MMP-10 | 2026-09-03 00:11:12 | 47.75703 | 12.40786 | 281° | 9km/h | 25849m | 5.1m/s | -50.0°C | 3.5% | 23.5hPa | 2.5V | 00:00:00 | 01:41:52 | 00:00:00 | |
| BAUMI2-15 | 2026-09-03 00:11:11 | 47.75703 | 12.40787 | 210° | 7km/h | 25844m | 5.6m/s | -50.0°C | 3.5% | 23.5hPa | 2.5V | 00:00:00 | 01:41:51 | 00:00:00 | |
| DG1MFX-10 | 2026-09-03 00:11:09 | 47.75704 | 12.40787 | 153° | 5km/h | 25838m | 6.5m/s | -50.1°C | 1.0% | 23.6hPa | 2.5V | 00:00:00 | 00:00:00 | 00:00:00 | |
| BAUMI2-15 | 2026-09-03 00:11:06 | 47.75711 | 12.40784 | 215° | 11km/h | 25817m | 5.7m/s | -50.2°C | 3.6% | 23.6hPa | 2.5V | 00:00:00 | 01:41:46 | 00:00:00 | |
| OE8JPQ-2 | 2026-09-03 00:11:05 | 47.75712 | 12.40787 | 246° | 13km/h | 25812m | 5.0m/s | -50.3°C | 3.7% | 23.6hPa | 2.5V | 00:00:00 | 00:00:00 | 08:30:00 | |
| OE5MMP-10 | 2026-09-03 00:11:02 | 47.75712 | 12.40803 | 295° | 13km/h | 25795m | 5.7m/s | -50.2°C | 3.6% | 23.7hPa | 2.5V | 00:00:00 | 01:41:42 | 08:30:00 | |
| OE5HKT-10 | 2026-09-03 00:10:59 | 47.75707 | 12.40819 | 284° | 11km/h | 25778m | 5.3m/s | -50.2°C | 3.6% | 23.7hPa | 2.5V | 00:00:00 | 00:00:00 | 00:00:00 | |
| DO3MHA-11 | 2026-09-03 00:10:55 | 47.75709 | 12.40832 | 194° | 9km/h | 25757m | 5.0m/s | -50.2°C | 3.6% | 23.8hPa | 2.5V | 00:00:00 | 01:41:35 | 00:00:00 | |
| IN3HCDX | 2026-09-03 00:10:54 | 47.75709 | 12.40832 | 194° | 7km/h | 25757m | 5.0m/s | -50.3°C | 1.0% | 23.9hPa | 2.5V | 00:00:00 | 00:00:00 | 00:00:00 | |
| OE5MMP-10 | 2026-09-03 00:10:52 | 47.75717 | 12.40838 | 223° | 13km/h | 25740m | 4.9m/s | -50.2°C | 3.6% | 23.9hPa | 2.5V | 00:00:00 | 01:41:32 | 00:00:00 | |
| IN3IJJ | 2026-09-03 00:10:50 | 47.75720 | 12.40842 | 235° | 18km/h | 25736m | 4.1m/s | 0°C | 0% | 0hPa | 2.5V | 00:00:00 | 00:00:00 | 00:00:00 | |
| DG1MFX-10 | 2026-09-03 00:10:48 | 47.75723 | 12.40853 | 260° | 15km/h | 25725m | 6.3m/s | -50.2°C | 1.0% | 24.0hPa | 2.5V | 00:00:00 | 00:00:00 | 00:00:00 | |
| OE8JPQ-2 | 2026-09-03 00:10:45 | 47.75723 | 12.40868 | 263° | 9km/h | 25703m | 5.7m/s | -50.3°C | 3.6% | 24.0hPa | 2.5V | 00:00:00 | 00:00:00 | 00:00:00 | |
| OE5MMP-10 | 2026-09-03 00:10:42 | 47.75727 | 12.40879 | 227° | 7km/h | 25689m | 5.1m/s | -50.3°C | 3.6% | 24.1hPa | 2.5V | 00:00:00 | 01:41:22 | 00:00:00 | |
| OE5HKT-10 | 2026-09-03 00:10:38 | 47.75731 | 12.40883 | 215° | 7km/h | 25667m | 5.6m/s | -50.3°C | 3.7% | 24.2hPa | 2.5V | 00:00:00 | 01:41:18 | 00:00:00 | |
| IN3HCDX | 2026-09-03 00:10:33 | 47.75739 | 12.40891 | 197° | 9km/h | 25646m | 6.4m/s | -50.4°C | 1.0% | 24.3hPa | 2.5V | 00:00:00 | 00:00:00 | 00:00:00 | |
| DO3MHA-11 | 2026-09-03 00:10:28 | 47.75749 | 12.40882 | 149° | 7km/h | 25613m | 4.2m/s | -50.2°C | 3.6% | 24.4hPa | 2.5V | 00:00:00 | 01:41:08 | 00:00:00 | |
| DG1MFX-10 | 2026-09-03 00:10:27 | 47.75749 | 12.40882 | 149° | 9km/h | 25613m | 4.2m/s | -50.3°C | 1.0% | 24.4hPa | 2.5V | 00:00:00 | 00:00:00 | 00:00:00 | |
| OE8JPQ-2 | 2026-09-03 00:10:25 | 47.75753 | 12.40874 | 97° | 9km/h | 25596m | 5.1m/s | -50.2°C | 3.6% | 24.4hPa | 2.5V | 00:00:00 | 01:41:05 | 00:00:00 | |
| OE5DXL-15 | 2026-09-03 00:10:22 | 47.75753 | 12.40868 | 109° | 9km/h | 25580m | 4.7m/s | -50.2°C | 3.6% | 24.5hPa | 2.5V | 00:00:00 | 00:00:00 | 00:00:00 | |
| OE5MMP-10 | 2026-09-03 00:10:19 | 47.75754 | 12.40862 | 96° | 11km/h | 25564m | 5.0m/s | -50.1°C | 3.6% | 24.5hPa | 2.5V | 00:00:00 | 01:40:59 | 00:00:00 | |
| DO3MHA-11 | 2026-09-03 00:10:18 | 47.75754 | 12.40859 | 113° | 11km/h | 25559m | 4.6m/s | -50.1°C | 3.6% | 24.5hPa | 2.5V | 00:00:00 | 01:40:58 | 08:30:00 | |
| OE5HKT-10 | 2026-09-03 00:10:17 | 47.75755 | 12.40856 | 129° | 11km/h | 25553m | 6.4m/s | -50.1°C | 3.6% | 24.6hPa | 2.5V | 00:00:00 | 00:00:00 | 08:30:00 | |
| IN3HCDX | 2026-09-03 00:10:12 | 47.75762 | 12.40845 | 109° | 13km/h | 25531m | 6.1m/s | -50.1°C | 1.0% | 24.7hPa | 2.6V | 00:00:00 | 00:00:00 | 00:00:00 | |
| OE5WHR-10 | 2026-09-03 00:10:10 | 47.75763 | 12.40831 | 86° | 9km/h | 25514m | 6.5m/s | -50.0°C | 3.6% | 24.7hPa | 2.6V | 00:00:00 | 00:00:00 | 00:00:00 | |
| OE5MMP-10 | 2026-09-03 00:10:09 | 47.75763 | 12.40829 | 90° | 11km/h | 25508m | 4.9m/s | -50.0°C | 3.6% | 24.8hPa | 2.6V | 00:00:00 | 01:40:49 | 00:00:00 | |
| DO3MHA-11 | 2026-09-03 00:10:08 | 47.75763 | 12.40826 | 94° | 7km/h | 25504m | 4.8m/s | -50.0°C | 3.6% | 24.8hPa | 2.6V | 00:00:00 | 01:40:48 | 00:00:00 | |
| DG1MFX-10 | 2026-09-03 00:10:06 | 47.75763 | 12.40823 | 94° | 7km/h | 25498m | 6.0m/s | -50.0°C | 1.0% | 24.8hPa | 2.6V | 00:00:00 | 00:00:00 | 00:00:00 | |
| OE8JPQ-2 | 2026-09-03 00:10:05 | 47.75763 | 12.40816 | 100° | 11km/h | 25486m | 4.8m/s | -49.9°C | 3.6% | 24.8hPa | 2.6V | 00:00:00 | 00:00:00 | 00:00:00 | |
| IN3IJJ | 2026-09-03 00:10:04 | 47.75763 | 12.40816 | 101° | 11km/h | 25486m | 4.9m/s | 0°C | 0% | 0hPa | 2.6V | 00:00:00 | 00:00:00 | 00:00:00 | |
| OE5DRO-10 | 2026-09-03 00:10:00 | 47.75777 | 12.40800 | 148° | 9km/h | 25453m | 6.0m/s | -49.9°C | 3.6% | 25.0hPa | 2.6V | 00:00:00 | 00:00:00 | 00:00:00 | |
| OE5MMP-10 | 2026-09-03 00:09:59 | 47.75777 | 12.40800 | 148° | 7km/h | 25453m | 6.0m/s | -49.9°C | 3.6% | 25.0hPa | 2.6V | 00:00:00 | 01:40:39 | 00:00:00 | |
| OE5HKT-10 | 2026-09-03 00:09:56 | 47.75782 | 12.40792 | 135° | 9km/h | 25439m | 5.8m/s | -49.8°C | 3.6% | 25.0hPa | 2.5V | 00:00:00 | 00:00:00 | 00:00:00 | |
| IN3HCDX | 2026-09-03 00:09:51 | 47.75785 | 12.40788 | 100° | 5km/h | 25417m | 6.3m/s | -49.8°C | 1.0% | 25.1hPa | 2.5V | 00:00:00 | 00:00:00 | 00:00:00 | |
| OE5MMP-10 | 2026-09-03 00:09:50 | 47.75787 | 12.40777 | 121° | 11km/h | 25401m | 5.8m/s | -49.8°C | 3.5% | 25.2hPa | 2.5V | 00:00:00 | 01:40:29 | 00:00:00 | |
| OE5WHR-10 | 2026-09-03 00:09:49 | 47.75787 | 12.40777 | 121° | 9km/h | 25401m | 5.8m/s | -49.8°C | 3.5% | 25.2hPa | 2.5V | 00:00:00 | 01:40:29 | 00:00:00 | |
| OE8JPQ-2 | 2026-09-03 00:09:45 | 47.75797 | 12.40765 | 138° | 7km/h | 25379m | 6.1m/s | -49.8°C | 3.5% | 25.2hPa | 2.5V | 00:00:00 | 00:00:00 | 00:00:00 | |
| OE5DRO-10 | 2026-09-03 00:09:41 | 47.75804 | 12.40753 | 130° | 7km/h | 25358m | 4.5m/s | -49.8°C | 3.5% | 25.3hPa | 2.5V | 00:00:00 | 00:00:00 | 00:00:00 | |
| OE5MMP-10 | 2026-09-03 00:09:39 | 47.75805 | 12.40749 | 80° | 9km/h | 25347m | 6.5m/s | -49.8°C | 3.4% | 25.4hPa | 2.5V | 00:00:00 | 01:40:19 | 00:00:00 | |
| OE5HKT-10 | 2026-09-03 00:09:35 | 47.75801 | 12.40733 | 74° | 5km/h | 25324m | 5.9m/s | -49.8°C | 3.4% | 25.5hPa | 2.5V | 00:00:00 | 01:40:15 | 00:00:00 | |
| IN3IJJ | 2026-09-03 00:09:33 | 47.75801 | 12.40730 | 91° | 5km/h | 25319m | 5.0m/s | 0°C | 0% | 0hPa | 2.5V | 00:00:00 | 00:00:00 | 00:00:00 | |
| IN3HCDX | 2026-09-03 00:09:30 | 47.75801 | 12.40723 | 101° | 9km/h | 25303m | 5.4m/s | -50.0°C | 0.9% | 25.6hPa | 2.5V | 00:00:00 | 00:00:00 | 00:00:00 | |
| OE5MMP-10 | 2026-09-03 00:09:29 | 47.75802 | 12.40717 | 102° | 4km/h | 25293m | 5.8m/s | -50.0°C | 3.5% | 25.6hPa | 2.5V | 00:00:00 | 01:40:09 | 08:30:00 | |
| OE5WHR-10 | 2026-09-03 00:09:28 | 47.75803 | 12.40715 | 117° | 5km/h | 25287m | 5.9m/s | -50.1°C | 3.6% | 25.6hPa | 2.5V | 00:00:00 | 00:00:00 | 00:00:00 | |
| DO3MHA-11 | 2026-09-03 00:09:27 | 47.75803 | 12.40715 | 236° | 4km/h | 25282m | 4.6m/s | -50.1°C | 3.6% | 25.6hPa | 2.5V | 00:00:00 | 01:40:07 | 00:00:00 | |
| OE8JPQ-2 | 2026-09-03 00:09:25 | 47.75802 | 12.40714 | 42° | 5km/h | 25271m | 6.3m/s | -50.3°C | 3.6% | 25.7hPa | 2.5V | 00:00:00 | 01:40:05 | 00:00:00 | |
| DG1MFX-10 | 2026-09-03 00:09:24 | 47.75802 | 12.40714 | 42° | 2km/h | 25271m | 6.3m/s | -50.3°C | 1.0% | 25.7hPa | 2.5V | 00:00:00 | 00:00:00 | 00:00:00 | |
| OE5DXL-15 | 2026-09-03 00:09:22 | 47.75801 | 12.40712 | 94° | 7km/h | 25255m | 5.8m/s | -50.4°C | 3.6% | 25.7hPa | 2.5V | 00:00:00 | 00:00:00 | 00:00:00 | |
| DK5PH-5 | 2026-09-03 00:09:21 | 47.75801 | 12.40712 | 217° | 15km/h | 25249m | 5.7m/s | 0°C | 0% | 0hPa | 2.5V | 00:00:00 | 01:40:01 | 00:00:00 | |
| OE5MMP-10 | 2026-09-03 00:09:19 | 47.75803 | 12.40713 | 215° | 7km/h | 25239m | 4.3m/s | -50.4°C | 3.6% | 25.8hPa | 2.5V | 00:00:00 | 01:39:59 | 00:00:00 | |
| DO3MHA-11 | 2026-09-03 00:09:15 | 47.75802 | 12.40708 | 47° | 9km/h | 25219m | 4.5m/s | -50.3°C | 3.6% | 25.9hPa | 2.5V | 00:00:00 | 01:39:55 | 00:00:00 | |
| OE5HKT-10 | 2026-09-03 00:09:14 | 47.75801 | 12.40707 | 12° | 9km/h | 25213m | 5.8m/s | -50.3°C | 3.6% | 25.9hPa | 2.5V | 00:00:00 | 00:00:00 | 00:00:00 | |
| OE5MMP-10 | 2026-09-03 00:09:09 | 47.75792 | 12.40717 | 323° | 7km/h | 25186m | 4.8m/s | -50.4°C | 3.6% | 26.0hPa | 2.5V | 00:00:00 | 01:39:49 | 00:00:00 | |
| IN3IJJ | 2026-09-03 00:09:08 | 47.75792 | 12.40717 | 324° | 7km/h | 25186m | 4.9m/s | 0°C | 0% | 0hPa | 2.5V | 00:00:00 | 00:00:00 | 00:00:00 | |
| OE5WHR-10 | 2026-09-03 00:09:07 | 47.75790 | 12.40721 | 271° | 9km/h | 25176m | 5.6m/s | -50.4°C | 3.5% | 26.1hPa | 2.5V | 00:00:00 | 00:00:00 | 00:00:00 | |
| OE8JPQ-2 | 2026-09-03 00:09:05 | 47.75792 | 12.40728 | 237° | 9km/h | 25165m | 4.7m/s | -50.4°C | 3.5% | 26.1hPa | 2.5V | 00:00:00 | 00:00:00 | 00:00:00 | |
| OE5DRO-10 | 2026-09-03 00:09:03 | 47.75795 | 12.40733 | 213° | 11km/h | 25155m | 5.9m/s | -50.4°C | 3.5% | 26.1hPa | 2.6V | 00:00:00 | 00:00:00 | 00:00:00 | |
| BAUMI2-15 | 2026-09-03 00:09:01 | 47.75797 | 12.40734 | 50° | 7km/h | 25144m | 4.4m/s | -50.5°C | 3.6% | 26.2hPa | 2.6V | 00:00:00 | 01:39:41 | 08:30:00 | |
| OE5MMP-10 | 2026-09-03 00:08:59 | 47.75795 | 12.40736 | 319° | 11km/h | 25134m | 6.1m/s | -50.6°C | 3.6% | 26.2hPa | 2.5V | 00:00:00 | 01:39:39 | 00:00:00 | |
| BAUMI2-15 | 2026-09-03 00:08:56 | 47.75788 | 12.40746 | 317° | 11km/h | 25119m | 4.9m/s | -50.7°C | 3.6% | 26.3hPa | 2.6V | 00:00:00 | 01:39:36 | 00:00:00 | |
| OE5DXL-15 | 2026-09-03 00:08:52 | 47.75786 | 12.40758 | 228° | 11km/h | 25098m | 5.9m/s | -50.9°C | 3.7% | 26.4hPa | 2.6V | 00:00:00 | 00:00:00 | 00:00:00 | |
| BAUMI2-15 | 2026-09-03 00:08:51 | 47.75789 | 12.40761 | 223° | 11km/h | 25093m | 4.2m/s | -51.0°C | 3.7% | 26.4hPa | 2.6V | 00:00:00 | 01:39:31 | 00:00:00 | |
| OE5MMP-10 | 2026-09-03 00:08:49 | 47.75793 | 12.40769 | 237° | 13km/h | 25084m | 5.8m/s | -51.1°C | 3.8% | 26.4hPa | 2.6V | 00:00:00 | 01:39:29 | 00:00:00 | |
| IN3HCDX | 2026-09-03 00:08:48 | 47.75793 | 12.40769 | 237° | 11km/h | 25084m | 5.9m/s | -51.1°C | 1.1% | 26.5hPa | 2.6V | 00:00:00 | 00:00:00 | 00:00:00 | |
| OE5WHR-10 | 2026-09-03 00:08:46 | 47.75791 | 12.40779 | 308° | 11km/h | 25069m | 5.3m/s | -51.1°C | 3.7% | 26.5hPa | 2.6V | 00:00:00 | 01:39:26 | 00:00:00 | |
| OE8JPQ-2 | 2026-09-03 00:08:45 | 47.75789 | 12.40784 | 303° | 9km/h | 25063m | 5.5m/s | -51.1°C | 3.7% | 26.5hPa | 2.6V | 00:00:00 | 00:00:00 | 00:00:00 | |
| OE5DRO-10 | 2026-09-03 00:08:44 | 47.75787 | 12.40790 | 294° | 9km/h | 25058m | 4.6m/s | -51.1°C | 3.7% | 26.5hPa | 2.6V | 00:00:00 | 00:00:00 | 08:30:00 | |
| DO3MHA-11 | 2026-09-03 00:08:43 | 47.75785 | 12.40796 | 287° | 13km/h | 25054m | 4.0m/s | -51.1°C | 3.7% | 26.5hPa | 2.5V | 00:00:00 | 01:39:23 | 00:00:00 | |
| OE5MMP-10 | 2026-09-03 00:08:39 | 47.75786 | 12.40809 | 209° | 9km/h | 25033m | 5.0m/s | -51.0°C | 3.8% | 26.6hPa | 2.5V | 00:00:00 | 01:39:19 | 00:00:00 | |
| BAUMI2-15 | 2026-09-03 00:08:36 | 47.75795 | 12.40815 | 208° | 11km/h | 25017m | 4.9m/s | -51.0°C | 3.7% | 26.7hPa | 2.5V | 00:00:00 | 01:39:16 | 00:00:00 | |
| DO3MHA-11 | 2026-09-03 00:08:33 | 47.75804 | 12.40821 | 189° | 9km/h | 25002m | 5.7m/s | -51.1°C | 3.7% | 26.8hPa | 2.5V | 00:00:00 | 01:39:13 | 00:00:00 | |
| OE5MMP-10 | 2026-09-03 00:08:29 | 47.75808 | 12.40824 | 235° | 11km/h | 24980m | 4.2m/s | -51.2°C | 3.8% | 26.9hPa | 2.6V | 00:00:00 | 01:39:09 | 00:00:00 | |
| IN3HCDX | 2026-09-03 00:08:27 | 47.75809 | 12.40825 | 222° | 5km/h | 24976m | 3.9m/s | -51.3°C | 1.1% | 26.9hPa | 2.5V | 00:00:00 | 00:00:00 | 00:00:00 | |
| BAUMI2-15 | 2026-09-03 00:08:26 | 47.75811 | 12.40827 | 177° | 13km/h | 24965m | 5.3m/s | -51.2°C | 3.8% | 26.9hPa | 2.5V | 00:00:00 | 01:39:06 | 00:00:00 | |
| OE5WHR-10 | 2026-09-03 00:08:25 | 47.75813 | 12.40826 | 177° | 11km/h | 24960m | 4.3m/s | -51.2°C | 3.7% | 26.9hPa | 2.5V | 00:00:00 | 00:00:00 | 00:00:00 | |
| DG1MFX-10 | 2026-09-03 00:08:23 | 47.75816 | 12.40827 | 186° | 13km/h | 24956m | 5.3m/s | -51.3°C | 1.1% | 27.0hPa | 2.6V | 00:00:00 | 00:00:00 | 00:00:00 | |
| OE5DXL-15 | 2026-09-03 00:08:22 | 47.75823 | 12.40829 | 201° | 9km/h | 24945m | 4.8m/s | -51.4°C | 3.8% | 27.0hPa | 2.6V | 00:00:00 | 00:00:00 | 08:30:00 | |
| BAUMI2-15 | 2026-09-03 00:08:21 | 47.75827 | 12.40831 | 197° | 11km/h | 24940m | 4.3m/s | -51.4°C | 3.8% | 27.0hPa | 2.5V | 00:00:00 | 01:39:01 | 00:00:00 | |
| DB0UT-7 | 2026-09-03 00:08:20 | 47.75831 | 12.40832 | 186° | 9km/h | 24935m | 5.9m/s | -51.4°C | 3.8% | 27.0hPa | 2.5V | 00:00:00 | 00:00:00 | 00:00:00 | |
| OE5MMP-10 | 2026-09-03 00:08:19 | 47.75834 | 12.40832 | 167° | 7km/h | 24929m | 5.3m/s | -51.4°C | 3.8% | 27.1hPa | 2.5V | 00:00:00 | 01:38:59 | 00:00:00 | |
| BAUMI2-15 | 2026-09-03 00:08:16 | 47.75839 | 12.40827 | 144° | 7km/h | 24914m | 5.1m/s | -51.4°C | 3.8% | 27.1hPa | 2.5V | 00:00:00 | 01:38:56 | 08:30:00 | |
| IN3IJJ | 2026-09-03 00:08:13 | 47.75841 | 12.40824 | 123° | 5km/h | 24904m | 5.3m/s | 0°C | 0% | 0hPa | 2.5V | 00:00:00 | 00:00:00 | 00:00:00 | |
| OE5HKT-10 | 2026-09-03 00:08:11 | 47.75845 | 12.40817 | 151° | 9km/h | 24888m | 4.7m/s | -51.3°C | 3.8% | 27.2hPa | 2.5V | 00:00:00 | 00:00:00 | 00:00:00 | |
| OE5MMP-10 | 2026-09-03 00:08:09 | 47.75850 | 12.40816 | 193° | 11km/h | 24877m | 5.1m/s | -51.4°C | 3.8% | 27.3hPa | 2.5V | 00:00:00 | 01:38:49 | 00:00:00 | |
| IN3HCDX | 2026-09-03 00:08:07 | 47.75853 | 12.40818 | 200° | 13km/h | 24872m | 4.5m/s | -51.5°C | 1.1% | 27.4hPa | 2.5V | 00:00:00 | 00:00:00 | 00:00:00 | |
| BAUMI2-15 | 2026-09-03 00:08:06 | 47.75859 | 12.40819 | 182° | 11km/h | 24862m | 5.1m/s | -51.4°C | 3.8% | 27.4hPa | 2.5V | 00:00:00 | 01:38:46 | 00:00:00 | |
| OE8JPQ-2 | 2026-09-03 00:08:05 | 47.75862 | 12.40819 | 173° | 11km/h | 24857m | 4.6m/s | -51.4°C | 3.8% | 27.4hPa | 2.5V | 00:00:00 | 00:00:00 | 08:30:00 | |
| OE5WHR-10 | 2026-09-03 00:08:04 | 47.75864 | 12.40819 | 173° | 13km/h | 24852m | 5.5m/s | -51.4°C | 3.8% | 27.4hPa | 2.5V | 00:00:00 | 00:00:00 | 00:00:00 | |
| DG1MFX-10 | 2026-09-03 00:08:02 | 47.75866 | 12.40818 | 176° | 11km/h | 24846m | 5.7m/s | -51.5°C | 1.1% | 27.5hPa | 2.5V | 00:00:00 | 00:00:00 | 00:00:00 | |
| BAUMI2-15 | 2026-09-03 00:08:01 | 47.75871 | 12.40817 | 154° | 9km/h | 24836m | 5.7m/s | -51.4°C | 3.8% | 27.5hPa | 2.5V | 00:00:00 | 01:38:41 | 00:00:00 | |
| OE5MMP-10 | 2026-09-03 00:07:59 | 47.75875 | 12.40812 | 128° | 9km/h | 24825m | 4.2m/s | -51.4°C | 3.8% | 27.5hPa | 2.5V | 00:00:00 | 01:38:39 | 08:30:00 | |
| BAUMI2-15 | 2026-09-03 00:07:56 | 47.75880 | 12.40808 | 192° | 9km/h | 24810m | 4.9m/s | -51.5°C | 3.8% | 27.6hPa | 2.5V | 00:00:00 | 01:38:36 | 00:00:00 | |
| OE5DXL-15 | 2026-09-03 00:07:52 | 47.75888 | 12.40807 | 136° | 13km/h | 24789m | 5.0m/s | -51.6°C | 3.9% | 27.7hPa | 2.5V | 00:00:00 | 00:00:00 | 00:00:00 | |
| BAUMI2-15 | 2026-09-03 00:07:51 | 47.75890 | 12.40804 | 134° | 15km/h | 24784m | 5.7m/s | -51.6°C | 3.8% | 27.7hPa | 2.5V | 00:00:00 | 01:38:31 | 00:00:00 | |
| DB0UT-7 | 2026-09-03 00:07:50 | 47.75892 | 12.40801 | 137° | 16km/h | 24778m | 5.4m/s | -51.5°C | 3.9% | 27.7hPa | 2.5V | 00:00:00 | 01:38:30 | 00:00:00 | |
| OE5MMP-10 | 2026-09-03 00:07:49 | 47.75894 | 12.40798 | 129° | 15km/h | 24773m | 4.0m/s | -51.5°C | 3.8% | 27.7hPa | 2.6V | 00:00:00 | 01:38:29 | 00:00:00 | |
| OE5DRO-10 | 2026-09-03 00:07:47 | 47.75899 | 12.40786 | 117° | 13km/h | 24763m | 5.6m/s | -51.5°C | 3.8% | 27.8hPa | 2.6V | 00:00:00 | 00:00:00 | 00:00:00 | |
| BAUMI2-15 | 2026-09-03 00:07:46 | 47.75901 | 12.40780 | 120° | 16km/h | 24758m | 4.5m/s | -51.5°C | 3.8% | 27.8hPa | 2.6V | 00:00:00 | 01:38:26 | 00:00:00 | |
| OE8JPQ-2 | 2026-09-03 00:07:45 | 47.75904 | 12.40773 | 127° | 13km/h | 24753m | 5.2m/s | -51.4°C | 3.8% | 27.8hPa | 2.6V | 00:00:00 | 00:00:00 | 00:00:00 | |
| OE5WHR-10 | 2026-09-03 00:07:43 | 47.75910 | 12.40766 | 157° | 11km/h | 24742m | 4.6m/s | -51.4°C | 3.8% | 27.9hPa | 2.6V | 00:00:00 | 01:38:23 | 00:00:00 | |
| BAUMI2-15 | 2026-09-03 00:07:41 | 47.75914 | 12.40763 | 164° | 4km/h | 24732m | 5.8m/s | -51.4°C | 3.7% | 27.9hPa | 2.6V | 00:00:00 | 01:38:21 | 00:00:00 | |
| OE5MMP-10 | 2026-09-03 00:07:39 | 47.75917 | 12.40761 | 118° | 13km/h | 24722m | 4.7m/s | -51.5°C | 3.8% | 28.0hPa | 2.6V | 00:00:00 | 01:38:19 | 00:00:00 | |
| BAUMI2-15 | 2026-09-03 00:07:36 | 47.75918 | 12.40758 | 117° | 15km/h | 24706m | 4.5m/s | -51.5°C | 3.8% | 28.0hPa | 2.6V | 00:00:00 | 01:38:16 | 00:00:00 | |
| BAUMI2-15 | 2026-09-03 00:07:31 | 47.75927 | 12.40732 | 134° | 16km/h | 24681m | 5.9m/s | -51.6°C | 3.8% | 28.2hPa | 2.6V | 00:00:00 | 01:38:11 | 08:30:00 | |
| OE5FHM-15 | 2026-09-03 00:07:29 | 47.75935 | 12.40723 | 147° | 13km/h | 24671m | 4.4m/s | -51.6°C | 3.9% | 28.2hPa | 2.5V | 00:00:00 | 01:38:09 | 00:00:00 | |
| OE5DRO-10 | 2026-09-03 00:07:28 | 47.75938 | 12.40720 | 142° | 11km/h | 24665m | 5.4m/s | -51.6°C | 3.9% | 28.2hPa | 2.5V | 00:00:00 | 00:00:00 | 00:00:00 | |
| BAUMI2-15 | 2026-09-03 00:07:26 | 47.75942 | 12.40714 | 107° | 4km/h | 24655m | 4.7m/s | -51.6°C | 3.8% | 28.3hPa | 2.5V | 00:00:00 | 01:38:06 | 00:00:00 | |
| OE8JPQ-2 | 2026-09-03 00:07:25 | 47.75942 | 12.40712 | 75° | 9km/h | 24649m | 5.4m/s | -51.6°C | 3.9% | 28.3hPa | 2.5V | 00:00:00 | 01:38:05 | 00:00:00 | |
| OE5WHR-10 | 2026-09-03 00:07:22 | 47.75939 | 12.40711 | 10° | 9km/h | 24634m | 3.8m/s | -51.6°C | 3.8% | 28.4hPa | 2.5V | 00:00:00 | 00:00:00 | 08:30:00 | |
| BAUMI2-15 | 2026-09-03 00:07:21 | 47.75938 | 12.40710 | 70° | 15km/h | 24629m | 5.6m/s | -51.6°C | 3.8% | 28.4hPa | 2.5V | 00:00:00 | 01:38:01 | 00:00:00 | |
| OE5MMP-10 | 2026-09-03 00:07:19 | 47.75939 | 12.40703 | 103° | 15km/h | 24618m | 4.6m/s | -51.6°C | 3.8% | 28.4hPa | 2.5V | 00:00:00 | 01:37:59 | 00:00:00 | |
| BAUMI2-15 | 2026-09-03 00:07:16 | 47.75945 | 12.40685 | 137° | 15km/h | 24603m | 5.2m/s | -51.5°C | 3.9% | 28.5hPa | 2.5V | 00:00:00 | 01:37:56 | 00:00:00 | |
| PG1ADW-2 | 2026-09-03 00:07:14 | 47.75951 | 12.40679 | 152° | 13km/h | 24594m | 4.4m/s | -51.6°C | 3.9% | 28.5hPa | 2.6V | 00:00:00 | 00:00:00 | 00:00:00 | |
| BAUMI2-15 | 2026-09-03 00:07:11 | 47.75959 | 12.40671 | 140° | 5km/h | 24579m | 4.2m/s | -51.5°C | 3.9% | 28.6hPa | 2.5V | 00:00:00 | 01:37:51 | 00:00:00 | |
| OE5DRO-10 | 2026-09-03 00:07:09 | 47.75963 | 12.40668 | 208° | 7km/h | 24563m | 5.6m/s | -51.5°C | 3.8% | 28.6hPa | 2.5V | 00:00:00 | 00:00:00 | 00:00:00 | |
| OE5HKT-10 | 2026-09-03 00:07:08 | 47.75963 | 12.40668 | 208° | 7km/h | 24563m | 5.6m/s | -51.5°C | 3.8% | 28.6hPa | 2.5V | 00:00:00 | 00:00:00 | 08:30:00 | |
| BAUMI2-15 | 2026-09-03 00:07:06 | 47.75964 | 12.40669 | 75° | 11km/h | 24553m | 5.2m/s | -51.5°C | 3.8% | 28.7hPa | 2.5V | 00:00:00 | 01:37:46 | 00:00:00 | |
| OE8JPQ-2 | 2026-09-03 00:07:05 | 47.75964 | 12.40668 | 68° | 7km/h | 24547m | 5.9m/s | -51.5°C | 3.8% | 28.7hPa | 2.5V | 00:00:00 | 00:00:00 | 00:00:00 | |
| IN3HCDX | 2026-09-03 00:07:04 | 47.75964 | 12.40668 | 68° | 5km/h | 24547m | 6.0m/s | -51.6°C | 1.1% | 28.8hPa | 2.6V | 00:00:00 | 00:00:00 | 00:00:00 | |
| OE5WHR-10 | 2026-09-03 00:07:01 | 47.75964 | 12.40657 | 135° | 5km/h | 24527m | 4.9m/s | -51.4°C | 3.8% | 28.8hPa | 2.6V | 00:00:00 | 00:00:00 | 00:00:00 | |
| OE5MMP-10 | 2026-09-03 00:06:59 | 47.75967 | 12.40654 | 159° | 7km/h | 24518m | 4.7m/s | -51.4°C | 3.8% | 28.9hPa | 2.6V | 00:00:00 | 01:37:39 | 00:00:00 | |
| IN3IJJ | 2026-09-03 00:06:56 | 47.75971 | 12.40651 | 146° | 7km/h | 24507m | 5.0m/s | 0°C | 0% | 0hPa | 2.5V | 00:00:00 | 00:00:00 | 00:00:00 | |
| OE5DXL-15 | 2026-09-03 00:06:52 | 47.75980 | 12.40656 | 224° | 7km/h | 24483m | 4.3m/s | -51.6°C | 3.8% | 29.0hPa | 2.5V | 00:00:00 | 00:00:00 | 00:00:00 | |
| OE5MMP-10 | 2026-09-03 00:06:49 | 47.75984 | 12.40659 | 121° | 4km/h | 24467m | 4.4m/s | -51.7°C | 3.9% | 29.1hPa | 2.5V | 00:00:00 | 01:37:29 | 00:00:00 | |
| OE5HKT-10 | 2026-09-03 00:06:48 | 47.75985 | 12.40655 | 123° | 7km/h | 24458m | 5.6m/s | -51.6°C | 3.9% | 29.1hPa | 2.5V | 00:00:00 | 00:00:00 | 00:00:00 | |
| DB0UT-7 | 2026-09-03 00:06:44 | 47.75987 | 12.40655 | 238° | 11km/h | 24443m | 5.3m/s | -51.6°C | 3.8% | 29.2hPa | 2.5V | 00:00:00 | 00:00:00 | 00:00:00 | |
| IN3HCDX | 2026-09-03 00:06:43 | 47.75987 | 12.40655 | 238° | 2km/h | 24443m | 5.3m/s | -51.7°C | 1.1% | 29.3hPa | 2.5V | 00:00:00 | 00:00:00 | 00:00:00 | |
| OE5WHR-10 | 2026-09-03 00:06:40 | 47.75986 | 12.40658 | 264° | 7km/h | 24421m | 6.0m/s | -51.6°C | 3.8% | 29.3hPa | 2.5V | 00:00:00 | 01:37:20 | 00:00:00 | |
| OE5MMP-10 | 2026-09-03 00:06:39 | 47.75986 | 12.40660 | 228° | 7km/h | 24416m | 4.7m/s | -51.6°C | 3.8% | 29.3hPa | 2.5V | 00:00:00 | 01:37:19 | 00:00:00 | |
| DF3TZ-5 | 2026-09-03 00:06:36 | 47.75995 | 12.40649 | 155° | 11km/h | 24383m | 5.0m/s | -51.6°C | -1.0% | -1.0hPa | 2.5V | 00:00:00 | 00:00:00 | 00:00:00 | |
| OE5DRO-10 | 2026-09-03 00:06:31 | 47.76000 | 12.40648 | 258° | 7km/h | 24368m | 5.9m/s | -51.5°C | 3.8% | 29.5hPa | 2.5V | 00:00:00 | 00:00:00 | 00:00:00 | |
| OE5MMP-10 | 2026-09-03 00:06:29 | 47.76000 | 12.40651 | 293° | 9km/h | 24362m | 4.9m/s | -51.5°C | 3.8% | 29.6hPa | 2.5V | 00:00:00 | 01:37:09 | 08:30:00 | |
| OE5HKT-10 | 2026-09-03 00:06:26 | 47.75997 | 12.40664 | 275° | 7km/h | 24347m | 4.5m/s | -51.6°C | 3.8% | 29.7hPa | 2.5V | 00:00:00 | 01:37:06 | 00:00:00 | |
| OE8JPQ-2 | 2026-09-03 00:06:25 | 47.75997 | 12.40670 | 273° | 7km/h | 24342m | 4.3m/s | -51.6°C | 3.8% | 29.6hPa | 2.5V | 00:00:00 | 01:37:05 | 00:00:00 | |
| IN3IJJ | 2026-09-03 00:06:24 | 47.75997 | 12.40670 | 274° | 13km/h | 24342m | 4.3m/s | 0°C | 0% | 0hPa | 2.5V | 00:00:00 | 00:00:00 | 00:00:00 | |
| OE5DXL-15 | 2026-09-03 00:06:22 | 47.75997 | 12.40676 | 152° | 5km/h | 24326m | 4.8m/s | -51.7°C | 3.8% | 29.8hPa | 2.5V | 00:00:00 | 00:00:00 | 00:00:00 | |
| OE5WHR-10 | 2026-09-03 00:06:19 | 47.76001 | 12.40674 | 170° | 7km/h | 24311m | 4.5m/s | -51.7°C | 3.8% | 29.8hPa | 2.5V | 00:00:00 | 00:00:00 | 00:00:00 | |
| OE5DRO-10 | 2026-09-03 00:06:12 | 47.76002 | 12.40688 | 258° | 7km/h | 24274m | 4.5m/s | -51.8°C | 3.8% | 30.0hPa | 2.6V | 00:00:00 | 00:00:00 | 00:00:00 | |
| OE5MMP-10 | 2026-09-03 00:06:09 | 47.76003 | 12.40699 | 283° | 5km/h | 24258m | 5.4m/s | -51.9°C | 3.8% | 30.1hPa | 2.6V | 00:00:00 | 01:36:49 | 00:00:00 | |
| OE5HKT-10 | 2026-09-03 00:06:05 | 47.76005 | 12.40696 | 136° | 5km/h | 24237m | 4.7m/s | -51.8°C | 3.8% | 30.2hPa | 2.6V | 00:00:00 | 00:00:00 | 00:00:00 | |
| IN3HCDX | 2026-09-03 00:06:02 | 47.76006 | 12.40692 | 87° | 5km/h | 24226m | 5.9m/s | -51.9°C | 1.1% | 30.3hPa | 2.5V | 00:00:00 | 00:00:00 | 00:00:00 | |
| OE5WHR-10 | 2026-09-03 00:05:58 | 47.76001 | 12.40694 | 313° | 7km/h | 24200m | 4.9m/s | -52.0°C | 3.8% | 30.3hPa | 2.5V | 00:00:00 | 00:00:00 | 00:00:00 | |
| OE5DRO-10 | 2026-09-03 00:05:53 | 47.75995 | 12.40699 | 127° | 7km/h | 24173m | 4.6m/s | -52.2°C | 3.8% | 30.4hPa | 2.5V | 00:00:00 | 00:00:00 | 08:30:00 | |
| OE5DXL-15 | 2026-09-03 00:05:52 | 47.75996 | 12.40697 | 116° | 9km/h | 24168m | 5.3m/s | -52.2°C | 3.8% | 30.5hPa | 2.6V | 00:00:00 | 00:00:00 | 00:00:00 | |
| OE8JPQ-2 | 2026-09-03 00:05:45 | 47.75998 | 12.40686 | 330° | 11km/h | 24132m | 6.0m/s | -52.4°C | 3.9% | 30.6hPa | 2.6V | 00:00:00 | 00:00:00 | 00:00:00 | |
| IN3HCDX | 2026-09-03 00:05:41 | 47.75990 | 12.40691 | 340° | 13km/h | 24117m | 4.7m/s | -52.6°C | 1.1% | 30.8hPa | 2.6V | 00:00:00 | 00:00:00 | 00:00:00 | |
| OE5MMP-10 | 2026-09-03 00:05:39 | 47.75984 | 12.40695 | 330° | 13km/h | 24101m | 4.0m/s | -52.7°C | 3.9% | 30.8hPa | 2.6V | 00:00:00 | 01:36:19 | 00:00:00 | |
| DG1MFX-10 | 2026-09-03 00:05:38 | 47.75984 | 12.40695 | 330° | 4km/h | 24101m | 4.0m/s | -52.8°C | 1.1% | 30.8hPa | 2.6V | 00:00:00 | 00:00:00 | 00:00:00 | |
| OE5WHR-10 | 2026-09-03 00:05:37 | 47.75982 | 12.40695 | 35° | 15km/h | 24091m | 5.8m/s | -52.8°C | 3.9% | 30.8hPa | 2.6V | 00:00:00 | 01:36:17 | 00:00:00 | |
| OE5DRO-10 | 2026-09-03 00:05:34 | 47.75975 | 12.40691 | 5° | 15km/h | 24077m | 5.8m/s | -52.9°C | 4.0% | 30.9hPa | 2.6V | 00:00:00 | 00:00:00 | 00:00:00 | |
| OE5MMP-10 | 2026-09-03 00:05:27 | 47.75952 | 12.40697 | 9° | 15km/h | 24040m | 5.9m/s | -53.0°C | 4.0% | 31.1hPa | 2.6V | 00:00:00 | 01:36:07 | 00:00:00 | |
| OE8JPQ-2 | 2026-09-03 00:05:25 | 47.75947 | 12.40694 | 30° | 15km/h | 24030m | 4.8m/s | -53.2°C | 4.1% | 31.1hPa | 2.6V | 00:00:00 | 01:36:05 | 00:00:00 | |
| OE5HKT-10 | 2026-09-03 00:05:23 | 47.75940 | 12.40688 | 28° | 15km/h | 24019m | 5.0m/s | -53.4°C | 4.2% | 31.2hPa | 2.6V | 00:00:00 | 01:36:03 | 00:00:00 | |
| OE5DXL-15 | 2026-09-03 00:05:22 | 47.75936 | 12.40686 | 21° | 15km/h | 24013m | 5.0m/s | -53.4°C | 4.2% | 31.2hPa | 2.6V | 00:00:00 | 00:00:00 | 00:00:00 | |
| IN3HCDX | 2026-09-03 00:05:20 | 47.75933 | 12.40684 | 10° | 15km/h | 24008m | 6.1m/s | -53.4°C | 1.2% | 31.3hPa | 2.6V | 00:00:00 | 00:00:00 | 00:00:00 | |
| DG1MFX-10 | 2026-09-03 00:05:18 | 47.75926 | 12.40686 | 343° | 16km/h | 23998m | 4.6m/s | -53.4°C | 1.2% | 31.3hPa | 2.6V | 00:00:00 | 00:00:00 | 00:00:00 | |
| OE5MMP-10 | 2026-09-03 00:05:17 | 47.75917 | 12.40690 | 340° | 16km/h | 23986m | 5.4m/s | -53.4°C | 4.2% | 31.3hPa | 2.6V | 00:00:00 | 01:35:57 | 00:00:00 | |
| OE5WHR-10 | 2026-09-03 00:05:16 | 47.75912 | 12.40693 | 337° | 15km/h | 23981m | 4.5m/s | -53.3°C | 4.2% | 31.4hPa | 2.5V | 00:00:00 | 00:00:00 | 00:00:00 | |
| OE5DRO-10 | 2026-09-03 00:05:15 | 47.75907 | 12.40697 | 330° | 15km/h | 23976m | 5.0m/s | -53.3°C | 4.2% | 31.4hPa | 2.5V | 00:00:00 | 00:00:00 | 00:00:00 | |
| OE5MMP-10 | 2026-09-03 00:05:07 | 47.75885 | 12.40714 | 6° | 13km/h | 23934m | 5.8m/s | -53.1°C | 4.1% | 31.6hPa | 2.5V | 00:00:00 | 01:35:47 | 00:00:00 | |
| OE8JPQ-2 | 2026-09-03 00:05:05 | 47.75880 | 12.40714 | 355° | 15km/h | 23924m | 4.7m/s | -53.1°C | 4.1% | 31.7hPa | 2.5V | 00:00:00 | 00:00:00 | 08:30:00 | |
| OE5HKT-10 | 2026-09-03 00:05:02 | 47.75869 | 12.40719 | 331° | 15km/h | 23909m | 3.9m/s | -53.1°C | 4.2% | 31.7hPa | 2.6V | 00:00:00 | 00:00:00 | 00:00:00 | |
| IN3HCDX | 2026-09-03 00:04:59 | 47.75863 | 12.40727 | 304° | 15km/h | 23898m | 6.1m/s | -53.1°C | 1.2% | 31.8hPa | 2.5V | 00:00:00 | 00:00:00 | 00:00:00 | |
| OE5MMP-10 | 2026-09-03 00:04:57 | 47.75859 | 12.40742 | 292° | 13km/h | 23883m | 5.5m/s | -53.1°C | 4.2% | 31.9hPa | 2.5V | 00:00:00 | 01:35:37 | 00:00:00 | |
| DB0UT-7 | 2026-09-03 00:04:56 | 47.75857 | 12.40747 | 306° | 13km/h | 23877m | 5.6m/s | -53.1°C | 4.2% | 31.9hPa | 2.5V | 00:00:00 | 01:35:36 | 00:00:00 | |
| OE5WHR-10 | 2026-09-03 00:04:55 | 47.75855 | 12.40751 | 320° | 13km/h | 23872m | 4.9m/s | -53.1°C | 4.2% | 31.9hPa | 2.5V | 00:00:00 | 00:00:00 | 00:00:00 | |
| OE5DXL-15 | 2026-09-03 00:04:52 | 47.75847 | 12.40758 | 334° | 13km/h | 23856m | 4.4m/s | -53.0°C | 4.1% | 32.0hPa | 2.5V | 00:00:00 | 00:00:00 | 00:00:00 | |
| OE5MMP-10 | 2026-09-03 00:04:48 | 47.75837 | 12.40773 | 291° | 15km/h | 23831m | 5.8m/s | -52.9°C | 4.1% | 32.1hPa | 2.5V | 00:00:00 | 01:35:27 | 08:30:00 | |
| OE8JPQ-2 | 2026-09-03 00:04:46 | 47.75836 | 12.40784 | 263° | 13km/h | 23819m | 4.9m/s | -52.8°C | 4.1% | 32.2hPa | 2.5V | 00:00:00 | 00:00:00 | 00:00:00 | |
| BAUMI2-15 | 2026-09-03 00:04:43 | 47.75836 | 12.40802 | 280° | 11km/h | 23803m | 4.9m/s | -52.7°C | 4.1% | 32.3hPa | 2.5V | 00:00:00 | 01:35:22 | 08:30:00 | |
| OE5HKT-10 | 2026-09-03 00:04:42 | 47.75836 | 12.40808 | 284° | 13km/h | 23798m | 5.4m/s | -52.7°C | 4.1% | 32.3hPa | 2.5V | 00:00:00 | 00:00:00 | 00:00:00 | |
| IN3HCDX | 2026-09-03 00:04:39 | 47.75834 | 12.40817 | 287° | 11km/h | 23787m | 4.8m/s | -52.7°C | 1.2% | 32.4hPa | 2.5V | 00:00:00 | 00:00:00 | 00:00:00 | |
| OE5MMP-10 | 2026-09-03 00:04:38 | 47.75831 | 12.40823 | 323° | 11km/h | 23777m | 5.7m/s | -52.7°C | 4.1% | 32.4hPa | 2.5V | 00:00:00 | 01:35:17 | 00:00:00 | |
| DG1MFX-10 | 2026-09-03 00:04:37 | 47.75832 | 12.40823 | 324° | 11km/h | 23777m | 5.7m/s | -52.7°C | 1.2% | 32.4hPa | 2.5V | 00:00:00 | 00:00:00 | 00:00:00 | |
| BAUMI2-15 | 2026-09-03 00:04:36 | 47.75829 | 12.40825 | 340° | 9km/h | 23772m | 6.0m/s | -52.7°C | 4.1% | 32.4hPa | 2.5V | 00:00:00 | 01:35:16 | 00:00:00 | |
| OE5WHR-10 | 2026-09-03 00:04:34 | 47.75823 | 12.40827 | 356° | 11km/h | 23761m | 4.5m/s | -52.7°C | 4.0% | 32.5hPa | 2.5V | 00:00:00 | 01:35:14 | 00:00:00 | |
| BAUMI2-15 | 2026-09-03 00:04:32 | 47.75819 | 12.40828 | 266° | 11km/h | 23746m | 4.4m/s | -52.6°C | 4.1% | 32.6hPa | 2.5V | 00:00:00 | 01:35:11 | 00:00:00 | |
| DB0UT-7 | 2026-09-03 00:04:26 | 47.75819 | 12.40851 | 262° | 16km/h | 23719m | 6.5m/s | -52.5°C | 4.0% | 32.7hPa | 2.5V | 00:00:00 | 00:00:00 | 00:00:00 | |
| OE5MMP-10 | 2026-09-03 00:04:25 | 47.75820 | 12.40859 | 259° | 11km/h | 23713m | 5.0m/s | -52.4°C | 4.0% | 32.7hPa | 2.5V | 00:00:00 | 01:35:05 | 00:00:00 | |
| OE5DXL-15 | 2026-09-03 00:04:22 | 47.75820 | 12.40879 | 296° | 9km/h | 23698m | 5.0m/s | -52.3°C | 3.9% | 32.8hPa | 2.5V | 00:00:00 | 00:00:00 | 00:00:00 | |
| BAUMI2-15 | 2026-09-03 00:04:21 | 47.75819 | 12.40883 | 313° | 7km/h | 23693m | 4.2m/s | -52.3°C | 4.0% | 32.8hPa | 2.5V | 00:00:00 | 01:35:01 | 00:00:00 | |
| OE5HKT-10 | 2026-09-03 00:04:20 | 47.75817 | 12.40885 | 322° | 9km/h | 23688m | 5.7m/s | -52.2°C | 3.9% | 32.9hPa | 2.5V | 00:00:00 | 01:35:00 | 00:00:00 | |
| IN3HCDX | 2026-09-03 00:04:18 | 47.75815 | 12.40888 | 297° | 4km/h | 23677m | 4.8m/s | -52.2°C | 1.1% | 33.0hPa | 2.5V | 00:00:00 | 00:00:00 | 00:00:00 | |
| DG1MFX-10 | 2026-09-03 00:04:17 | 47.75814 | 12.40892 | 286° | 7km/h | 23667m | 6.2m/s | -52.3°C | 1.1% | 33.0hPa | 2.5V | 00:00:00 | 00:00:00 | 00:00:00 | |
| OE5MMP-10 | 2026-09-03 00:04:16 | 47.75813 | 12.40895 | 286° | 11km/h | 23661m | 5.3m/s | -52.3°C | 3.8% | 33.0hPa | 2.5V | 00:00:00 | 01:34:55 | 00:00:00 | |
| OE5WHR-10 | 2026-09-03 00:04:13 | 47.75812 | 12.40906 | 268° | 11km/h | 23651m | 6.0m/s | -52.5°C | 3.8% | 33.0hPa | 2.6V | 00:00:00 | 00:00:00 | 08:30:00 | |
| BAUMI2-15 | 2026-09-03 00:04:12 | 47.75814 | 12.40917 | 257° | 9km/h | 23640m | 4.2m/s | -52.6°C | 3.9% | 33.1hPa | 2.5V | 00:00:00 | 01:34:51 | 00:00:00 | |
| BAUMI2-15 | 2026-09-03 00:04:07 | 47.75811 | 12.40929 | 49° | 11km/h | 23613m | 5.7m/s | -52.6°C | 3.9% | 33.2hPa | 2.5V | 00:00:00 | 01:34:46 | 00:00:00 | |
| OE5MMP-10 | 2026-09-03 00:04:05 | 47.75810 | 12.40927 | 59° | 9km/h | 23608m | 5.0m/s | -52.6°C | 3.9% | 33.3hPa | 2.5V | 00:00:00 | 01:34:45 | 00:00:00 | |
| IN3IJJ | 2026-09-03 00:04:02 | 47.75807 | 12.40921 | 41° | 13km/h | 23598m | 6.0m/s | 0°C | 0% | 0hPa | 2.5V | 00:00:00 | 00:00:00 | 00:00:00 | |
| BAUMI2-15 | 2026-09-03 00:04:01 | 47.75801 | 12.40917 | 11° | 7km/h | 23588m | 4.2m/s | -52.7°C | 3.9% | 33.4hPa | 2.5V | 00:00:00 | 01:34:41 | 00:00:00 | |
| OE5HKT-10 | 2026-09-03 00:03:59 | 47.75799 | 12.40918 | 284° | 7km/h | 23577m | 5.4m/s | -52.8°C | 3.9% | 33.4hPa | 2.5V | 00:00:00 | 00:00:00 | 08:30:00 | |
| BAUMI2-15 | 2026-09-03 00:03:56 | 47.75799 | 12.40929 | 269° | 9km/h | 23561m | 4.9m/s | -53.0°C | 4.0% | 33.5hPa | 2.5V | 00:00:00 | 01:34:36 | 08:30:00 | |
| OE5MMP-10 | 2026-09-03 00:03:55 | 47.75799 | 12.40933 | 265° | 7km/h | 23556m | 4.2m/s | -53.1°C | 4.0% | 33.5hPa | 2.5V | 00:00:00 | 01:34:35 | 00:00:00 | |
| OE5WHR-10 | 2026-09-03 00:03:52 | 47.75801 | 12.40941 | 254° | 7km/h | 23540m | 5.1m/s | -53.3°C | 4.0% | 33.6hPa | 2.5V | 00:00:00 | 00:00:00 | 00:00:00 | |
| BAUMI2-15 | 2026-09-03 00:03:51 | 47.75801 | 12.40942 | 326° | 7km/h | 23535m | 6.1m/s | -53.5°C | 4.0% | 33.7hPa | 2.5V | 00:00:00 | 01:34:31 | 00:00:00 | |
| BAUMI2-15 | 2026-09-03 00:03:46 | 47.75791 | 12.40942 | 350° | 7km/h | 23508m | 4.1m/s | -54.0°C | 4.2% | 33.8hPa | 2.5V | 00:00:00 | 01:34:26 | 00:00:00 | |
| OE5MMP-10 | 2026-09-03 00:03:45 | 47.75790 | 12.40943 | 334° | 5km/h | 23504m | 4.5m/s | -54.0°C | 4.2% | 33.8hPa | 2.5V | 00:00:00 | 01:34:25 | 00:00:00 | |
| BAUMI2-15 | 2026-09-03 00:03:41 | 47.75784 | 12.40951 | 294° | 4km/h | 23484m | 5.9m/s | -54.1°C | 4.3% | 33.9hPa | 2.6V | 00:00:00 | 01:34:21 | 00:00:00 | |
| OE5DRO-10 | 2026-09-03 00:03:40 | 47.75784 | 12.40953 | 238° | 11km/h | 23478m | 5.2m/s | -54.0°C | 4.3% | 33.9hPa | 2.6V | 00:00:00 | 00:00:00 | 00:00:00 | |
| IN3HCDX | 2026-09-03 00:03:39 | 47.75785 | 12.40956 | 243° | 7km/h | 23462m | 5.1m/s | -54.0°C | 1.2% | 34.1hPa | 2.6V | 00:00:00 | 00:00:00 | 00:00:00 | |
| BAUMI2-15 | 2026-09-03 00:03:38 | 47.75786 | 12.40959 | 235° | 13km/h | 23457m | 4.8m/s | -53.9°C | 4.3% | 34.1hPa | 2.6V | 00:00:00 | 01:34:16 | 00:00:00 | |
| DG1MFX-10 | 2026-09-03 00:03:37 | 47.75786 | 12.40959 | 235° | 9km/h | 23457m | 4.8m/s | -53.9°C | 1.3% | 34.1hPa | 2.6V | 00:00:00 | 00:00:00 | 00:00:00 | |
| OE5MMP-10 | 2026-09-03 00:03:36 | 47.75788 | 12.40962 | 226° | 15km/h | 23452m | 6.3m/s | -53.9°C | 4.3% | 34.1hPa | 2.6V | 00:00:00 | 01:34:15 | 00:00:00 | |
| OE5WHR-10 | 2026-09-03 00:03:31 | 47.75796 | 12.40979 | 256° | 16km/h | 23430m | 5.3m/s | -53.8°C | 4.2% | 34.2hPa | 2.6V | 00:00:00 | 01:34:11 | 00:00:00 | |
| BAUMI2-15 | 2026-09-03 00:03:26 | 47.75802 | 12.41003 | 244° | 11km/h | 23404m | 5.2m/s | -53.7°C | 4.2% | 34.4hPa | 2.6V | 00:00:00 | 01:34:06 | 00:00:00 | |
| OE5MMP-10 | 2026-09-03 00:03:25 | 47.75803 | 12.41007 | 251° | 16km/h | 23398m | 5.7m/s | -53.7°C | 4.3% | 34.4hPa | 2.6V | 00:00:00 | 01:34:05 | 00:00:00 | |
| BAUMI2-15 | 2026-09-03 00:03:22 | 47.75811 | 12.41020 | 205° | 18km/h | 23377m | 4.7m/s | -53.6°C | 4.3% | 34.5hPa | 2.6V | 00:00:00 | 01:34:01 | 00:00:00 | |
| IN3HCDX | 2026-09-03 00:03:17 | 47.75829 | 12.41042 | 229° | 18km/h | 23352m | 5.2m/s | -53.7°C | 1.2% | 34.7hPa | 2.6V | 00:00:00 | 00:00:00 | 00:00:00 | |
| OE5MMP-10 | 2026-09-03 00:03:15 | 47.75832 | 12.41047 | 222° | 16km/h | 23347m | 5.6m/s | -53.6°C | 4.2% | 34.7hPa | 2.6V | 00:00:00 | 01:33:55 | 08:30:00 | |
| DG1MFX-10 | 2026-09-03 00:03:14 | 47.75832 | 12.41047 | 222° | 18km/h | 23347m | 5.6m/s | -53.6°C | 1.2% | 34.7hPa | 2.5V | 00:00:00 | 00:00:00 | 00:00:00 | |
| DB0UT-7 | 2026-09-03 00:03:12 | 47.75843 | 12.41060 | 226° | 20km/h | 23331m | 6.0m/s | -53.6°C | 4.2% | 34.7hPa | 2.5V | 00:00:00 | 01:33:52 | 00:00:00 | |
| BAUMI2-15 | 2026-09-03 00:03:11 | 47.75846 | 12.41065 | 228° | 16km/h | 23326m | 4.6m/s | -53.6°C | 4.2% | 34.8hPa | 2.5V | 00:00:00 | 01:33:51 | 08:30:00 | |
| OE5WHR-10 | 2026-09-03 00:03:10 | 47.75849 | 12.41069 | 223° | 22km/h | 23321m | 4.6m/s | -53.7°C | 4.2% | 34.8hPa | 2.6V | 00:00:00 | 00:00:00 | 00:00:00 | |
| BAUMI2-15 | 2026-09-03 00:03:06 | 47.75862 | 12.41079 | 208° | 20km/h | 23300m | 6.0m/s | -53.7°C | 4.2% | 34.9hPa | 2.6V | 00:00:00 | 01:33:46 | 00:00:00 | |
| OE5MMP-10 | 2026-09-03 00:03:05 | 47.75866 | 12.41083 | 215° | 24km/h | 23295m | 5.3m/s | -53.6°C | 4.2% | 35.0hPa | 2.6V | 00:00:00 | 01:33:45 | 00:00:00 | |
| IN3HCDX | 2026-09-03 00:03:02 | 47.76046 | 12.41157 | 186° | 29km/h | 23137m | 5.5m/s | -53.2°C | 1.2% | 35.9hPa | 2.6V | 00:00:00 | 00:00:00 | 00:00:00 | |
| DG1MFX-10 | 2026-09-03 00:03:01 | 47.76046 | 12.41157 | 186° | 29km/h | 23137m | 5.5m/s | -53.2°C | 1.2% | 35.9hPa | 2.6V | 00:00:00 | 00:00:00 | 00:00:00 | |
| OE5WHR-10 | 2026-09-03 00:02:57 | 47.76088 | 12.41172 | 194° | 26km/h | 23105m | 4.8m/s | -53.1°C | 4.2% | 36.0hPa | 2.6V | 00:00:00 | 01:33:08 | 00:00:00 | |
| OE5MMP-10 | 2026-09-03 00:02:53 | 47.76108 | 12.41178 | 186° | 26km/h | 23090m | 4.7m/s | -53.0°C | 4.2% | 36.1hPa | 2.6V | 00:00:00 | 01:33:05 | 00:00:00 | |
| OE5DRO-10 | 2026-09-03 00:02:52 | 47.76115 | 12.41178 | 182° | 24km/h | 23084m | 6.0m/s | -53.0°C | 4.1% | 36.1hPa | 2.6V | 00:00:00 | 00:00:00 | 00:00:00 | |
| OE5DXL-15 | 2026-09-03 00:02:49 | 47.76128 | 12.41178 | 182° | 22km/h | 23073m | 5.2m/s | -52.9°C | 4.1% | 36.2hPa | 2.6V | 00:00:00 | 00:00:00 | 00:00:00 | |
| OE5MMP-10 | 2026-09-03 00:02:38 | 47.76172 | 12.41197 | 202° | 22km/h | 23036m | 5.7m/s | -52.8°C | 4.1% | 36.4hPa | 2.5V | 00:00:00 | 01:32:55 | 00:00:00 | |
| OE5HKT-10 | 2026-09-03 00:02:36 | 47.76178 | 12.41201 | 203° | 20km/h | 23031m | 5.5m/s | 0°C | 0% | 0hPa | 2.5V | 00:00:00 | 01:32:54 | 00:00:00 | |
| DG1MFX-10 | 2026-09-03 00:02:34 | 47.76184 | 12.41203 | 197° | 22km/h | 23026m | 4.4m/s | -52.8°C | 1.2% | 36.5hPa | 2.5V | 00:00:00 | 00:00:00 | 00:00:00 | |
| OE5FHM-15 | 2026-09-03 00:02:32 | 47.76194 | 12.41205 | 175° | 16km/h | 23015m | 5.7m/s | -52.7°C | 4.1% | 36.5hPa | 2.5V | 00:00:00 | 01:32:51 | 00:00:00 | |
| OE5WHR-10 | 2026-09-03 00:02:28 | 47.76214 | 12.41201 | 183° | 18km/h | 22995m | 4.7m/s | -52.5°C | 4.0% | 36.6hPa | 2.5V | 00:00:00 | 00:00:00 | 00:00:00 | |
| OE5DRO-10 | 2026-09-03 00:02:26 | 47.76224 | 12.41203 | 186° | 18km/h | 22985m | 5.8m/s | -52.5°C | 4.0% | 36.7hPa | 2.6V | 00:00:00 | 00:00:00 | 00:00:00 | |
| OE8JPQ-2 | 2026-09-03 00:02:25 | 47.76224 | 12.41203 | 186° | 18km/h | 22985m | 5.8m/s | -52.5°C | 4.0% | 36.7hPa | 2.6V | 00:00:00 | 00:00:00 | 08:30:00 | |
| OE5MMP-10 | 2026-09-03 00:02:24 | 47.76224 | 12.41203 | 186° | 20km/h | 22985m | 5.8m/s | -52.5°C | 4.0% | 36.7hPa | 2.5V | 00:00:00 | 01:32:45 | 00:00:00 | |
| OE5MMP-10 | 2026-09-03 00:02:11 | 47.76274 | 12.41211 | 168° | 16km/h | 22934m | 5.2m/s | -52.2°C | 4.0% | 37.0hPa | 2.5V | 00:00:00 | 01:32:35 | 00:00:00 | |
| IN3HCDX | 2026-09-03 00:02:09 | 47.76286 | 12.41208 | 167° | 18km/h | 22919m | 5.9m/s | -52.2°C | 1.1% | 37.1hPa | 2.5V | 00:00:00 | 00:00:00 | 00:00:00 | |
| OE5DRO-10 | 2026-09-03 00:02:00 | 47.76311 | 12.41206 | 178° | 15km/h | 22887m | 5.3m/s | -52.1°C | 3.9% | 37.2hPa | 2.5V | 00:00:00 | 00:00:00 | 00:00:00 | |
| OE8JPQ-2 | 2026-09-03 00:01:59 | 47.76315 | 12.41206 | 173° | 15km/h | 22882m | 3.9m/s | -52.1°C | 3.9% | 37.3hPa | 2.5V | 00:00:00 | 00:00:00 | 00:00:00 | |
| OE5MMP-10 | 2026-09-03 00:01:58 | 47.76315 | 12.41206 | 173° | 18km/h | 22882m | 3.9m/s | -52.1°C | 3.9% | 37.3hPa | 2.5V | 00:00:00 | 01:32:25 | 08:30:00 | |
| DO3MHA-11 | 2026-09-03 00:01:48 | 47.76355 | 12.41191 | 162° | 15km/h | 22832m | 4.3m/s | -52.3°C | 3.9% | 37.6hPa | 2.5V | 00:00:00 | 01:32:15 | 00:00:00 | |
| OE5MMP-10 | 2026-09-03 00:01:46 | 47.76362 | 12.41186 | 151° | 16km/h | 22822m | 5.4m/s | -52.4°C | 3.9% | 37.6hPa | 2.5V | 00:00:00 | 01:32:13 | 00:00:00 | |
| DG1MFX-10 | 2026-09-03 00:01:45 | 47.76366 | 12.41183 | 145° | 15km/h | 22817m | 3.9m/s | -52.6°C | 1.2% | 37.7hPa | 2.5V | 00:00:00 | 00:00:00 | 00:00:00 | |
| IN3HCDX | 2026-09-03 00:01:43 | 47.76369 | 12.41180 | 146° | 13km/h | 22813m | 3.9m/s | -52.7°C | 1.1% | 37.7hPa | 2.5V | 00:00:00 | 00:00:00 | 00:00:00 | |
| DB0UT-7 | 2026-09-03 00:01:42 | 47.76371 | 12.41178 | 151° | 13km/h | 22808m | 5.9m/s | -52.7°C | 4.0% | 37.7hPa | 2.5V | 00:00:00 | 01:32:10 | 08:30:00 | |
| OE5DRO-10 | 2026-09-03 00:01:40 | 47.76376 | 12.41177 | 182° | 15km/h | 22793m | 4.4m/s | -52.9°C | 4.0% | 37.8hPa | 2.6V | 00:00:00 | 00:00:00 | 00:00:00 | |
| OE5WHR-10 | 2026-09-03 00:01:36 | 47.76384 | 12.41176 | 171° | 15km/h | 22782m | 4.8m/s | -52.9°C | 4.0% | 37.9hPa | 2.6V | 00:00:00 | 01:32:05 | 00:00:00 | |
| OE5DXL-15 | 2026-09-03 00:01:34 | 47.76399 | 12.41173 | 181° | 11km/h | 22768m | 5.1m/s | -53.0°C | 4.0% | 37.9hPa | 2.6V | 00:00:00 | 00:00:00 | 00:00:00 | |
| OE5MMP-10 | 2026-09-03 00:01:22 | 47.76421 | 12.41164 | 96° | 13km/h | 22723m | 4.2m/s | -53.3°C | 4.0% | 38.2hPa | 2.6V | 00:00:00 | 01:31:53 | 00:00:00 | |
| DG1MFX-10 | 2026-09-03 00:01:21 | 47.76422 | 12.41160 | 105° | 11km/h | 22719m | 5.8m/s | -53.4°C | 1.2% | 38.3hPa | 2.5V | 00:00:00 | 00:00:00 | 00:00:00 | |
| IN3HCDX | 2026-09-03 00:01:18 | 47.76425 | 12.41150 | 126° | 16km/h | 22709m | 3.9m/s | -53.4°C | 1.2% | 38.3hPa | 2.5V | 00:00:00 | 00:00:00 | 00:00:00 | |
| OE5DRO-10 | 2026-09-03 00:01:15 | 47.76431 | 12.41142 | 147° | 11km/h | 22700m | 5.5m/s | -53.4°C | 4.2% | 38.4hPa | 2.5V | 00:00:00 | 00:00:00 | 00:00:00 | |
| OE8JPQ-2 | 2026-09-03 00:01:10 | 47.76439 | 12.41140 | 183° | 11km/h | 22685m | 5.0m/s | -53.5°C | 4.2% | 38.4hPa | 2.6V | 00:00:00 | 00:00:00 | 00:00:00 | |
| OE5WHR-10 | 2026-09-03 00:01:09 | 47.76441 | 12.41139 | 173° | 11km/h | 22680m | 5.3m/s | -53.6°C | 4.3% | 38.5hPa | 2.5V | 00:00:00 | 00:00:00 | 08:30:00 | |
| OE5MMP-10 | 2026-09-03 00:01:07 | 47.76443 | 12.41139 | 162° | 13km/h | 22675m | 4.3m/s | -53.6°C | 4.2% | 38.5hPa | 2.5V | 00:00:00 | 01:31:43 | 00:00:00 | |
| BAUMI2-15 | 2026-09-03 00:01:05 | 47.76447 | 12.41136 | 160° | 7km/h | 22665m | 5.8m/s | -53.6°C | 4.2% | 38.6hPa | 2.5V | 00:00:00 | 01:31:41 | 00:00:00 | |
| DB0UT-7 | 2026-09-03 00:01:04 | 47.76449 | 12.41136 | 169° | 20km/h | 22660m | 4.9m/s | -53.5°C | 4.2% | 38.6hPa | 2.5V | 00:00:00 | 00:00:00 | 00:00:00 | |
| BAUMI2-15 | 2026-09-03 00:00:56 | 47.76458 | 12.41131 | 161° | 13km/h | 22640m | 4.7m/s | -53.5°C | 4.1% | 38.7hPa | 2.5V | 00:00:00 | 01:31:36 | 00:00:00 | |
| OE5MMP-10 | 2026-09-03 00:00:53 | 47.76468 | 12.41130 | 188° | 16km/h | 22624m | 4.7m/s | -53.5°C | 4.1% | 38.8hPa | 2.6V | 00:00:00 | 01:31:33 | 00:00:00 | |
| OE5DXL-15 | 2026-09-03 00:00:52 | 47.76471 | 12.41130 | 184° | 22km/h | 22619m | 5.4m/s | -53.5°C | 4.0% | 38.8hPa | 2.6V | 00:00:00 | 00:00:00 | 00:00:00 | |
| DG1MFX-10 | 2026-09-03 00:00:51 | 47.76474 | 12.41130 | 173° | 11km/h | 22613m | 5.6m/s | -53.5°C | 1.2% | 38.9hPa | 2.5V | 00:00:00 | 00:00:00 | 00:00:00 | |
| OE5DRO-10 | 2026-09-03 00:00:50 | 47.76479 | 12.41128 | 169° | 20km/h | 22603m | 5.1m/s | -53.5°C | 4.0% | 38.9hPa | 2.5V | 00:00:00 | 00:00:00 | 00:00:00 | |
| OE8JPQ-2 | 2026-09-03 00:00:49 | 47.76490 | 12.41123 | 152° | 24km/h | 22584m | 6.2m/s | -53.6°C | 4.2% | 39.1hPa | 2.5V | 00:00:00 | 00:00:00 | 00:00:00 | |
| OE5MMP-10 | 2026-09-03 00:00:47 | 47.76506 | 12.41111 | 158° | 22km/h | 22568m | 5.7m/s | -53.7°C | 4.2% | 39.2hPa | 2.5V | 00:00:00 | 01:31:22 | 00:00:00 | |
| BAUMI2-15 | 2026-09-03 00:00:46 | 47.76511 | 12.41108 | 165° | 22km/h | 22563m | 5.0m/s | -53.7°C | 4.3% | 39.2hPa | 2.5V | 00:00:00 | 01:31:21 | 00:00:00 | |
| BAUMI2-15 | 2026-09-03 00:00:43 | 47.76537 | 12.41095 | 157° | 20km/h | 22538m | 5.0m/s | -53.8°C | 4.3% | 39.4hPa | 2.5V | 00:00:00 | 01:31:16 | 00:00:00 | |
| OE5MMP-10 | 2026-09-03 00:00:36 | 47.76556 | 12.41084 | 151° | 22km/h | 22518m | 4.7m/s | -53.7°C | 4.2% | 39.4hPa | 2.5V | 00:00:00 | 01:31:12 | 00:00:00 | |
| OE5DRO-10 | 2026-09-03 00:00:35 | 47.76565 | 12.41073 | 133° | 24km/h | 22507m | 4.9m/s | -53.6°C | 4.2% | 39.5hPa | 2.5V | 00:00:00 | 00:00:00 | 00:00:00 | |
| IN3HCDX | 2026-09-03 00:00:32 | 47.76575 | 12.41058 | 137° | 29km/h | 22497m | 5.8m/s | -53.7°C | 1.2% | 39.6hPa | 2.5V | 00:00:00 | 00:00:00 | 00:00:00 | |
| OE8JPQ-2 | 2026-09-03 00:00:30 | 47.76592 | 12.41036 | 140° | 24km/h | 22483m | 5.3m/s | -53.7°C | 4.2% | 39.7hPa | 2.5V | 00:00:00 | 01:31:05 | 00:00:00 | |
| OE5WHR-10 | 2026-09-03 00:00:26 | 47.76608 | 12.41015 | 143° | 24km/h | 22468m | 5.0m/s | -53.6°C | 4.2% | 39.8hPa | 2.5V | 00:00:00 | 01:31:02 | 00:00:00 | |
| BAUMI2-15 | 2026-09-03 00:00:24 | 47.76613 | 12.41010 | 150° | 16km/h | 22462m | 6.0m/s | -53.6°C | 4.2% | 39.8hPa | 2.5V | 00:00:00 | 01:31:01 | 00:00:00 | |
| BAUMI2-15 | 2026-09-03 00:00:18 | 47.76629 | 12.40991 | 128° | 24km/h | 22437m | 5.0m/s | -53.6°C | 4.2% | 39.9hPa | 2.5V | 00:00:00 | 01:30:56 | 00:00:00 | |
| OE5MMP-10 | 2026-09-03 00:00:13 | 47.76641 | 12.40974 | 141° | 26km/h | 22421m | 3.9m/s | -53.7°C | 4.2% | 40.1hPa | 2.5V | 00:00:00 | 01:30:53 | 00:00:00 | |
| BAUMI2-15 | 2026-09-03 00:00:12 | 47.76651 | 12.40961 | 135° | 27km/h | 22411m | 6.1m/s | -53.7°C | 4.3% | 40.1hPa | 2.5V | 00:00:00 | 01:30:51 | 00:00:00 | |
| DG1MFX-10 | 2026-09-03 00:00:10 | 47.76656 | 12.40953 | 132° | 29km/h | 22405m | 5.3m/s | -53.7°C | 1.3% | 40.2hPa | 2.5V | 00:00:00 | 00:00:00 | 00:00:00 | |
| BAUMI2-15 | 2026-09-03 00:00:08 | 47.76673 | 12.40923 | 126° | 27km/h | 22385m | 4.3m/s | -53.6°C | 4.2% | 40.3hPa | 2.5V | 00:00:00 | 01:30:46 | 00:00:00 | |
| OE8JPQ-2 | 2026-09-03 00:00:06 | 47.76677 | 12.40915 | 120° | 24km/h | 22380m | 5.8m/s | -53.6°C | 4.2% | 40.3hPa | 2.5V | 00:00:00 | 00:00:00 | 00:00:00 | |
| OE5WHR-10 | 2026-09-03 00:00:01 | 47.76689 | 12.40878 | 122° | 22km/h | 22359m | 5.5m/s | -53.4°C | 4.2% | 40.4hPa | 2.5V | 00:00:00 | 00:00:00 | 00:00:00 | |
| OE5MMP-10 | 2026-09-03 00:00:00 | 47.76692 | 12.40870 | 125° | 22km/h | 22354m | 4.4m/s | -53.4°C | 4.2% | 40.5hPa | 2.5V | 00:00:00 | 01:30:40 | 08:30:00 | |
| DO3MHA-11 | 2026-09-02 23:59:57 | 47.76703 | 12.40843 | 117° | 22km/h | 22339m | 4.5m/s | -53.3°C | 4.1% | 40.6hPa | 2.6V | 00:00:00 | 01:30:37 | 00:00:00 | |
| BAUMI2-15 | 2026-09-02 23:59:56 | 47.76706 | 12.40834 | 116° | 20km/h | 22334m | 5.3m/s | -53.2°C | 4.0% | 40.6hPa | 2.6V | 00:00:00 | 01:30:36 | 00:00:00 | |
| OE5DXL-15 | 2026-09-02 23:59:52 | 47.76714 | 12.40808 | 111° | 16km/h | 22313m | 5.7m/s | -53.2°C | 4.0% | 40.7hPa | 2.5V | 00:00:00 | 00:00:00 | 00:00:00 | |
| BAUMI2-15 | 2026-09-02 23:59:51 | 47.76715 | 12.40802 | 109° | 20km/h | 22308m | 4.6m/s | -53.2°C | 4.0% | 40.8hPa | 2.5V | 00:00:00 | 01:30:31 | 00:00:00 | |
| OE5MMP-10 | 2026-09-02 23:59:50 | 47.76717 | 12.40795 | 112° | 22km/h | 22303m | 4.7m/s | -53.2°C | 4.0% | 40.8hPa | 2.5V | 00:00:00 | 01:30:30 | 00:00:00 | |
| DG1MFX-10 | 2026-09-02 23:59:48 | 47.76719 | 12.40788 | 119° | 20km/h | 22298m | 6.2m/s | -53.3°C | 1.2% | 40.9hPa | 2.5V | 00:00:00 | 00:00:00 | 00:00:00 | |
| DB0UT-7 | 2026-09-02 23:59:47 | 47.76725 | 12.40776 | 130° | 15km/h | 22288m | 4.1m/s | -53.3°C | 4.1% | 40.9hPa | 2.5V | 00:00:00 | 01:30:27 | 00:00:00 | |
| DO3MHA-11 | 2026-09-02 23:59:46 | 47.76728 | 12.40769 | 130° | 24km/h | 22283m | 5.9m/s | -53.4°C | 4.1% | 40.9hPa | 2.5V | 00:00:00 | 01:30:26 | 08:30:00 | |
| OE8JPQ-2 | 2026-09-02 23:59:45 | 47.76732 | 12.40762 | 129° | 16km/h | 22278m | 4.5m/s | -53.4°C | 4.1% | 41.0hPa | 2.6V | 00:00:00 | 00:00:00 | 00:00:00 | |
| BAUMI2-15 | 2026-09-02 23:59:41 | 47.76747 | 12.40736 | 134° | 15km/h | 22258m | 5.1m/s | -53.4°C | 4.1% | 41.1hPa | 2.6V | 00:00:00 | 01:30:21 | 08:30:00 | |
| OE5WHR-10 | 2026-09-02 23:59:40 | 47.76749 | 12.40732 | 130° | 13km/h | 22253m | 4.7m/s | -53.4°C | 4.1% | 41.1hPa | 2.5V | 00:00:00 | 00:00:00 | 00:00:00 | |
| BAUMI2-15 | 2026-09-02 23:59:36 | 47.76757 | 12.40713 | 118° | 16km/h | 22233m | 5.7m/s | -53.7°C | 4.2% | 41.3hPa | 2.5V | 00:00:00 | 01:30:16 | 00:00:00 | |
| OE5DRO-10 | 2026-09-02 23:59:33 | 47.76763 | 12.40697 | 123° | 11km/h | 22217m | 6.0m/s | -53.8°C | 4.2% | 41.3hPa | 2.5V | 00:00:00 | 00:00:00 | 00:00:00 | |
| BAUMI2-15 | 2026-09-02 23:59:31 | 47.76768 | 12.40685 | 122° | 13km/h | 22207m | 4.1m/s | -53.7°C | 4.3% | 41.4hPa | 2.5V | 00:00:00 | 01:30:11 | 00:00:00 | |
| OE5MMP-10 | 2026-09-02 23:59:30 | 47.76771 | 12.40679 | 121° | 11km/h | 22202m | 5.5m/s | -53.7°C | 4.2% | 41.5hPa | 2.5V | 00:00:00 | 01:30:10 | 00:00:00 | |
| DG1MFX-10 | 2026-09-02 23:59:27 | 47.76774 | 12.40671 | 120° | 9km/h | 22191m | 4.7m/s | -53.7°C | 1.2% | 41.6hPa | 2.5V | 00:00:00 | 00:00:00 | 00:00:00 | |
| IN3HCDX | 2026-09-02 23:59:26 | 47.76777 | 12.40664 | 124° | 11km/h | 22180m | 5.2m/s | -53.8°C | 1.2% | 41.7hPa | 2.5V | 00:00:00 | 00:00:00 | 00:00:00 | |
| OE8JPQ-2 | 2026-09-02 23:59:25 | 47.76778 | 12.40661 | 125° | 7km/h | 22175m | 4.5m/s | -53.8°C | 4.2% | 41.6hPa | 2.5V | 00:00:00 | 01:30:05 | 00:00:00 | |
| BAUMI2-15 | 2026-09-02 23:59:21 | 47.76782 | 12.40651 | 115° | 11km/h | 22154m | 6.0m/s | -53.8°C | 4.3% | 41.8hPa | 2.5V | 00:00:00 | 01:30:01 | 00:00:00 | |
| OE5MMP-10 | 2026-09-02 23:59:20 | 47.76783 | 12.40648 | 111° | 7km/h | 22148m | 4.6m/s | -53.8°C | 4.3% | 41.8hPa | 2.5V | 00:00:00 | 01:30:00 | 00:00:00 | |
| OE5WHR-10 | 2026-09-02 23:59:19 | 47.76784 | 12.40643 | 109° | 9km/h | 22144m | 4.2m/s | -53.8°C | 4.2% | 41.8hPa | 2.5V | 00:00:00 | 01:29:59 | 00:00:00 | |
| DB0UT-7 | 2026-09-02 23:59:18 | 47.76786 | 12.40636 | 110° | 15km/h | 22133m | 5.0m/s | -53.8°C | 4.3% | 41.9hPa | 2.5V | 00:00:00 | 00:00:00 | 00:00:00 | |
| BAUMI2-15 | 2026-09-02 23:59:16 | 47.76786 | 12.40634 | 123° | 5km/h | 22128m | 4.4m/s | -53.8°C | 4.3% | 42.0hPa | 2.6V | 00:00:00 | 01:29:56 | 00:00:00 | |
| OE5DRO-10 | 2026-09-02 23:59:14 | 47.76788 | 12.40630 | 127° | 9km/h | 22118m | 5.3m/s | -53.8°C | 4.3% | 42.0hPa | 2.6V | 00:00:00 | 00:00:00 | 00:00:00 | |
| BAUMI2-15 | 2026-09-02 23:59:11 | 47.76791 | 12.40626 | 167° | 5km/h | 22103m | 5.6m/s | -53.8°C | 4.3% | 42.1hPa | 2.5V | 00:00:00 | 01:29:51 | 00:00:00 | |
| OE5MMP-10 | 2026-09-02 23:59:10 | 47.76791 | 12.40626 | 179° | 9km/h | 22098m | 4.7m/s | -53.8°C | 4.3% | 42.1hPa | 2.5V | 00:00:00 | 01:29:50 | 00:00:00 | |
| BAUMI2-15 | 2026-09-02 23:59:06 | 47.76796 | 12.40620 | 140° | 13km/h | 22079m | 4.1m/s | -53.7°C | 4.3% | 42.2hPa | 2.5V | 00:00:00 | 01:29:46 | 00:00:00 | |
| OE8JPQ-2 | 2026-09-02 23:59:05 | 47.76799 | 12.40617 | 145° | 15km/h | 22074m | 5.7m/s | -53.7°C | 4.2% | 42.3hPa | 2.5V | 00:00:00 | 00:00:00 | 08:30:00 | |
| IN3HCDX | 2026-09-02 23:59:04 | 47.76799 | 12.40617 | 146° | 11km/h | 22074m | 5.7m/s | -53.7°C | 1.2% | 42.3hPa | 2.6V | 00:00:00 | 00:00:00 | 00:00:00 | |
| OE5MMP-10 | 2026-09-02 23:59:00 | 47.76811 | 12.40605 | 138° | 15km/h | 22048m | 4.5m/s | -53.6°C | 4.3% | 42.5hPa | 2.6V | 00:00:00 | 01:29:40 | 00:00:00 | |
| OE5WHR-10 | 2026-09-02 23:58:58 | 47.76817 | 12.40598 | 145° | 15km/h | 22039m | 5.5m/s | -53.6°C | 4.2% | 42.5hPa | 2.5V | 00:00:00 | 00:00:00 | 00:00:00 | |
| OE5DRO-10 | 2026-09-02 23:58:55 | 47.76825 | 12.40592 | 159° | 16km/h | 22024m | 5.8m/s | -53.5°C | 4.2% | 42.6hPa | 2.6V | 00:00:00 | 00:00:00 | 00:00:00 | |
| OE5DXL-15 | 2026-09-02 23:58:51 | 47.76840 | 12.40581 | 158° | 18km/h | 22004m | 5.6m/s | -53.5°C | 4.2% | 42.8hPa | 2.6V | 00:00:00 | 00:00:00 | 00:00:00 | |
| OE5MMP-10 | 2026-09-02 23:58:50 | 47.76844 | 12.40579 | 158° | 15km/h | 21998m | 5.1m/s | -53.5°C | 4.2% | 42.8hPa | 2.6V | 00:00:00 | 01:29:30 | 00:00:00 | |
| DG1MFX-10 | 2026-09-02 23:58:46 | 47.76857 | 12.40570 | 153° | 20km/h | 21983m | 3.5m/s | -53.6°C | 1.2% | 42.9hPa | 2.6V | 00:00:00 | 00:00:00 | 00:00:00 | |
| OE8JPQ-2 | 2026-09-02 23:58:45 | 47.76864 | 12.40564 | 155° | 18km/h | 21974m | 5.6m/s | -53.6°C | 4.2% | 43.0hPa | 2.6V | 00:00:00 | 00:00:00 | 00:00:00 | |
| IN3HCDX | 2026-09-02 23:58:43 | 47.76867 | 12.40562 | 161° | 11km/h | 21968m | 5.0m/s | -53.7°C | 1.2% | 43.0hPa | 2.6V | 00:00:00 | 00:00:00 | 00:00:00 | |
| OE5MMP-10 | 2026-09-02 23:58:40 | 47.76879 | 12.40554 | 147° | 18km/h | 21949m | 4.1m/s | -53.8°C | 4.2% | 43.1hPa | 2.6V | 00:00:00 | 01:29:20 | 00:00:00 | |
| OE5WHR-10 | 2026-09-02 23:58:37 | 47.76888 | 12.40542 | 134° | 18km/h | 21934m | 4.2m/s | -53.8°C | 4.3% | 43.2hPa | 2.6V | 00:00:00 | 00:00:00 | 00:00:00 | |
| OE5MMP-10 | 2026-09-02 23:58:30 | 47.76913 | 12.40507 | 125° | 18km/h | 21900m | 4.5m/s | -53.7°C | 4.2% | 43.5hPa | 2.6V | 00:00:00 | 01:29:10 | 08:30:00 | |
| OE8JPQ-2 | 2026-09-02 23:58:25 | 47.76927 | 12.40475 | 124° | 16km/h | 21874m | 5.1m/s | -53.6°C | 4.2% | 43.6hPa | 2.6V | 00:00:00 | 01:29:05 | 00:00:00 | |
| IN3HCDX | 2026-09-02 23:58:23 | 47.76932 | 12.40466 | 129° | 15km/h | 21864m | 6.0m/s | -53.6°C | 1.2% | 43.7hPa | 2.6V | 00:00:00 | 00:00:00 | 00:00:00 | |
| OE5DXL-15 | 2026-09-02 23:58:22 | 47.76934 | 12.40461 | 130° | 16km/h | 21858m | 4.8m/s | -53.5°C | 4.2% | 43.7hPa | 2.6V | 00:00:00 | 01:29:02 | 00:00:00 | |
| OE5MMP-10 | 2026-09-02 23:58:20 | 47.76939 | 12.40453 | 128° | 16km/h | 21849m | 6.0m/s | -53.5°C | 4.2% | 43.8hPa | 2.6V | 00:00:00 | 01:29:00 | 00:00:00 | |
| OE5DRO-10 | 2026-09-02 23:58:17 | 47.76944 | 12.40441 | 120° | 15km/h | 21833m | 5.7m/s | -53.5°C | 4.1% | 43.9hPa | 2.6V | 00:00:00 | 00:00:00 | 00:00:00 | |
| OE5WHR-10 | 2026-09-02 23:58:16 | 47.76946 | 12.40436 | 122° | 16km/h | 21827m | 4.8m/s | -53.5°C | 4.1% | 43.9hPa | 2.6V | 00:00:00 | 01:28:56 | 00:00:00 | |
| OE5MMP-10 | 2026-09-02 23:58:10 | 47.76960 | 12.40399 | 115° | 13km/h | 21798m | 5.6m/s | -53.5°C | 4.1% | 44.2hPa | 2.6V | 00:00:00 | 01:28:50 | 00:00:00 | |
| OE8JPQ-2 | 2026-09-02 23:58:05 | 47.76964 | 12.40374 | 96° | 15km/h | 21773m | 4.6m/s | -53.7°C | 4.2% | 44.3hPa | 2.6V | 00:00:00 | 00:00:00 | 00:00:00 | |
| IN3HCDX | 2026-09-02 23:58:01 | 47.76967 | 12.40365 | 123° | 11km/h | 21758m | 4.4m/s | -54.0°C | 1.3% | 44.5hPa | 2.5V | 00:00:00 | 00:00:00 | 00:00:00 | |
| OE5MMP-10 | 2026-09-02 23:58:00 | 47.76970 | 12.40357 | 109° | 18km/h | 21748m | 5.2m/s | -54.1°C | 4.3% | 44.5hPa | 2.5V | 00:00:00 | 01:28:40 | 00:00:00 | |
| OE5DRO-10 | 2026-09-02 23:57:58 | 47.76972 | 12.40346 | 106° | 18km/h | 21738m | 4.5m/s | -54.2°C | 4.4% | 44.6hPa | 2.5V | 00:00:00 | 00:00:00 | 00:00:00 | |
| OE5WHR-10 | 2026-09-02 23:57:55 | 47.76977 | 12.40321 | 111° | 16km/h | 21723m | 4.2m/s | -54.2°C | 4.4% | 44.7hPa | 2.5V | 00:00:00 | 00:00:00 | 08:30:00 | |
| OE5DXL-15 | 2026-09-02 23:57:52 | 47.76982 | 12.40300 | 108° | 16km/h | 21708m | 4.9m/s | -54.1°C | 4.3% | 44.8hPa | 2.6V | 00:00:00 | 00:00:00 | 00:00:00 | |
| OE5MMP-10 | 2026-09-02 23:57:50 | 47.76985 | 12.40289 | 116° | 16km/h | 21697m | 4.7m/s | -54.1°C | 4.3% | 44.9hPa | 2.5V | 00:00:00 | 01:28:30 | 00:00:00 | |
| DO3MHA-11 | 2026-09-02 23:57:46 | 47.76993 | 12.40272 | 130° | 15km/h | 21677m | 5.3m/s | -53.9°C | 4.3% | 45.0hPa | 2.5V | 00:00:00 | 01:28:26 | 00:00:00 | |
| OE8JPQ-2 | 2026-09-02 23:57:45 | 47.76995 | 12.40267 | 124° | 16km/h | 21672m | 5.8m/s | -53.9°C | 4.2% | 45.0hPa | 2.5V | 00:00:00 | 00:00:00 | 00:00:00 | |
| DG1MFX-10 | 2026-09-02 23:57:44 | 47.76995 | 12.40267 | 124° | 16km/h | 21672m | 5.8m/s | -53.9°C | 1.3% | 45.1hPa | 2.5V | 00:00:00 | 00:00:00 | 00:00:00 | |
| IN3HCDX | 2026-09-02 23:57:41 | 47.77001 | 12.40247 | 111° | 20km/h | 21658m | 5.1m/s | -53.9°C | 1.3% | 45.2hPa | 2.5V | 00:00:00 | 00:00:00 | 00:00:00 | |
| OE5MMP-10 | 2026-09-02 23:57:40 | 47.77005 | 12.40234 | 117° | 13km/h | 21647m | 4.7m/s | -53.8°C | 4.2% | 45.2hPa | 2.5V | 00:00:00 | 01:28:20 | 00:00:00 | |
| OE5DRO-10 | 2026-09-02 23:57:39 | 47.77007 | 12.40230 | 126° | 16km/h | 21643m | 4.6m/s | -53.8°C | 4.2% | 45.2hPa | 2.5V | 00:00:00 | 00:00:00 | 00:00:00 | |
| DB0UT-7 | 2026-09-02 23:57:35 | 47.77018 | 12.40215 | 149° | 11km/h | 21623m | 4.8m/s | -53.8°C | 4.2% | 45.4hPa | 2.5V | 00:00:00 | 00:00:00 | 00:00:00 | |
| OE5WHR-10 | 2026-09-02 23:57:34 | 47.77020 | 12.40213 | 154° | 20km/h | 21618m | 5.8m/s | -53.8°C | 4.2% | 45.4hPa | 2.5V | 00:00:00 | 00:00:00 | 00:00:00 | |
| OE5MMP-10 | 2026-09-02 23:57:30 | 47.77029 | 12.40201 | 121° | 22km/h | 21597m | 4.8m/s | -53.9°C | 4.2% | 45.6hPa | 2.5V | 00:00:00 | 01:28:10 | 00:00:00 | |
| OE5FHM-15 | 2026-09-02 23:57:25 | 47.77040 | 12.40167 | 130° | 22km/h | 21573m | 4.0m/s | -54.0°C | 4.2% | 45.7hPa | 2.5V | 00:00:00 | 01:28:05 | 00:00:00 | |
| DO3MHA-11 | 2026-09-02 23:57:24 | 47.77044 | 12.40162 | 138° | 22km/h | 21569m | 5.7m/s | -54.0°C | 4.2% | 45.8hPa | 2.5V | 00:00:00 | 01:28:04 | 00:00:00 | |
| OE5DXL-15 | 2026-09-02 23:57:22 | 47.77053 | 12.40153 | 154° | 22km/h | 21558m | 4.5m/s | -53.9°C | 4.2% | 45.8hPa | 2.5V | 00:00:00 | 00:00:00 | 00:00:00 | |
| OE5MMP-10 | 2026-09-02 23:57:20 | 47.77064 | 12.40147 | 165° | 22km/h | 21548m | 4.8m/s | -53.9°C | 4.2% | 45.9hPa | 2.5V | 00:00:00 | 01:28:00 | 00:00:00 | |
| OE5WHR-10 | 2026-09-02 23:57:13 | 47.77097 | 12.40119 | 138° | 20km/h | 21514m | 3.9m/s | -54.2°C | 4.2% | 46.2hPa | 2.5V | 00:00:00 | 01:27:53 | 00:00:00 | |
| PETON7-10 | 2026-09-02 23:57:12 | 47.77100 | 12.40114 | 141° | 22km/h | 21509m | 5.7m/s | -54.3°C | 4.2% | 46.2hPa | 2.5V | 00:00:00 | 01:27:52 | 00:00:00 | |
| OE5MMP-10 | 2026-09-02 23:57:10 | 47.77109 | 12.40106 | 155° | 24km/h | 21499m | 4.5m/s | -54.4°C | 4.2% | 46.3hPa | 2.5V | 00:00:00 | 01:27:50 | 00:00:00 | |
| OE8JPQ-2 | 2026-09-02 23:57:05 | 47.77137 | 12.40097 | 164° | 20km/h | 21472m | 5.0m/s | -54.6°C | 4.3% | 46.5hPa | 2.5V | 00:00:00 | 00:00:00 | 00:00:00 | |
| DG1MFX-10 | 2026-09-02 23:57:03 | 47.77143 | 12.40093 | 163° | 27km/h | 21468m | 4.0m/s | -54.7°C | 1.3% | 46.5hPa | 2.5V | 00:00:00 | 00:00:00 | 00:00:00 | |
| OE5DRO-10 | 2026-09-02 23:57:01 | 47.77161 | 12.40086 | 167° | 18km/h | 21453m | 5.0m/s | -54.7°C | 4.4% | 46.6hPa | 2.5V | 00:00:00 | 00:00:00 | 00:00:00 | |
| OE5MMP-10 | 2026-09-02 23:57:00 | 47.77166 | 12.40084 | 165° | 18km/h | 21448m | 5.7m/s | -54.8°C | 4.4% | 46.6hPa | 2.5V | 00:00:00 | 01:27:40 | 08:30:00 | |
| IN3HCDX | 2026-09-02 23:56:59 | 47.77166 | 12.40084 | 166° | 20km/h | 21448m | 5.8m/s | -54.8°C | 1.3% | 46.7hPa | 2.5V | 00:00:00 | 00:00:00 | 00:00:00 | |
| OE5FHM-15 | 2026-09-02 23:56:55 | 47.77189 | 12.40074 | 163° | 15km/h | 21422m | 4.0m/s | -54.7°C | 4.4% | 46.8hPa | 2.5V | 00:00:00 | 01:27:35 | 00:00:00 | |
| PETON7-10 | 2026-09-02 23:56:54 | 47.77192 | 12.40071 | 156° | 18km/h | 21418m | 5.1m/s | 0°C | 0% | 0hPa | 2.5V | 00:00:00 | 00:00:00 | 08:30:00 | |
| OE5WHR-10 | 2026-09-02 23:56:52 | 47.77200 | 12.40064 | 143° | 15km/h | 21407m | 5.2m/s | -54.7°C | 4.4% | 46.9hPa | 2.5V | 00:00:00 | 00:00:00 | 00:00:00 | |
| OE5DXL-15 | 2026-09-02 23:56:51 | 47.77204 | 12.40060 | 142° | 13km/h | 21402m | 5.8m/s | -54.7°C | 4.3% | 47.0hPa | 2.5V | 00:00:00 | 00:00:00 | 00:00:00 | |
| BAUMI2-15 | 2026-09-02 23:56:50 | 47.77207 | 12.40056 | 142° | 20km/h | 21396m | 5.1m/s | -54.7°C | 4.4% | 47.0hPa | 2.5V | 00:00:00 | 01:27:30 | 00:00:00 | |
| BAUMI2-15 | 2026-09-02 23:56:45 | 47.77227 | 12.40035 | 158° | 18km/h | 21372m | 5.5m/s | -54.6°C | 4.3% | 47.2hPa | 2.5V | 00:00:00 | 01:27:25 | 00:00:00 | |
| OE5DRO-10 | 2026-09-02 23:56:42 | 47.77241 | 12.40032 | 178° | 11km/h | 21357m | 5.2m/s | -54.6°C | 4.3% | 47.3hPa | 2.5V | 00:00:00 | 00:00:00 | 00:00:00 | |
| BAUMI2-15 | 2026-09-02 23:56:40 | 47.77249 | 12.40030 | 170° | 13km/h | 21347m | 4.3m/s | -54.6°C | 4.4% | 47.4hPa | 2.5V | 00:00:00 | 01:27:20 | 00:00:00 | |
| PETON7-10 | 2026-09-02 23:56:39 | 47.77253 | 12.40029 | 171° | 11km/h | 21343m | 4.3m/s | 0°C | 0% | 0hPa | 2.7V | 00:00:00 | 00:00:00 | 00:00:00 | |
| IN3HCDX | 2026-09-02 23:56:38 | 47.77253 | 12.40029 | 172° | 15km/h | 21343m | 4.3m/s | -54.7°C | 1.3% | 47.5hPa | 2.7V | 00:00:00 | 00:00:00 | 00:00:00 | |
| BAUMI2-15 | 2026-09-02 23:56:35 | 47.77263 | 12.40026 | 141° | 9km/h | 21322m | 5.7m/s | -54.7°C | 4.4% | 47.6hPa | 2.7V | 00:00:00 | 01:27:15 | 00:00:00 | |
| OE5WHR-10 | 2026-09-02 23:56:31 | 47.77269 | 12.40017 | 157° | 11km/h | 21302m | 5.0m/s | -54.6°C | 4.4% | 47.7hPa | 2.7V | 00:00:00 | 00:00:00 | 00:00:00 | |
| OE5MMP-10 | 2026-09-02 23:56:30 | 47.77271 | 12.40016 | 170° | 11km/h | 21298m | 4.2m/s | -54.6°C | 4.4% | 47.8hPa | 2.7V | 00:00:00 | 01:27:10 | 00:00:00 | |
| OE5FHM-15 | 2026-09-02 23:56:25 | 47.77285 | 12.40010 | 169° | 15km/h | 21273m | 4.7m/s | -54.6°C | 4.3% | 48.0hPa | 2.5V | 00:00:00 | 01:27:05 | 00:00:00 | |
| PETON7-10 | 2026-09-02 23:56:24 | 47.77288 | 12.40009 | 159° | 11km/h | 21268m | 3.8m/s | 0°C | 0% | 0hPa | 2.5V | 00:00:00 | 01:27:04 | 00:00:00 | |
| OE5DRO-10 | 2026-09-02 23:56:23 | 47.77290 | 12.40007 | 138° | 13km/h | 21264m | 4.9m/s | -54.5°C | 4.3% | 48.0hPa | 2.5V | 00:00:00 | 00:00:00 | 00:00:00 | |
| DB0UT-7 | 2026-09-02 23:56:22 | 47.77292 | 12.40004 | 120° | 15km/h | 21259m | 5.6m/s | -54.5°C | 4.3% | 48.0hPa | 2.5V | 00:00:00 | 01:27:02 | 00:00:00 | |
| OE5DXL-15 | 2026-09-02 23:56:21 | 47.77293 | 12.39999 | 110° | 15km/h | 21253m | 4.5m/s | -54.5°C | 4.3% | 48.1hPa | 2.5V | 00:00:00 | 00:00:00 | 00:00:00 | |
| OE5MMP-10 | 2026-09-02 23:56:20 | 47.77294 | 12.39995 | 104° | 11km/h | 21249m | 5.0m/s | -54.5°C | 4.3% | 48.1hPa | 2.5V | 00:00:00 | 01:27:00 | 00:00:00 | |
| IN3HCDX | 2026-09-02 23:56:18 | 47.77295 | 12.39986 | 104° | 9km/h | 21238m | 4.9m/s | -54.6°C | 1.3% | 48.3hPa | 2.5V | 00:00:00 | 00:00:00 | 00:00:00 | |
| PG1ADW-2 | 2026-09-02 23:56:15 | 47.77299 | 12.39975 | 133° | 15km/h | 21223m | 4.1m/s | -54.7°C | 4.3% | 48.3hPa | 2.5V | 00:00:00 | 00:00:00 | 00:00:00 | |
| DO3MHA-11 | 2026-09-02 23:56:14 | 47.77301 | 12.39972 | 147° | 15km/h | 21218m | 5.7m/s | -54.7°C | 4.3% | 48.3hPa | 2.5V | 00:00:00 | 01:26:54 | 00:00:00 | |
| OE5WHR-10 | 2026-09-02 23:56:10 | 47.77312 | 12.39964 | 136° | 16km/h | 21197m | 4.5m/s | -54.9°C | 4.5% | 48.5hPa | 2.5V | 00:00:00 | 01:26:50 | 00:00:00 | |
| PETON7-10 | 2026-09-02 23:56:09 | 47.77314 | 12.39960 | 121° | 16km/h | 21193m | 4.1m/s | 0°C | 0% | 0hPa | 2.5V | 00:00:00 | 00:00:00 | 00:00:00 | |
| OE8JPQ-2 | 2026-09-02 23:56:05 | 47.77319 | 12.39938 | 101° | 16km/h | 21174m | 5.6m/s | -55.0°C | 4.5% | 48.7hPa | 2.5V | 00:00:00 | 00:00:00 | 08:30:00 | |
| OE5DRO-10 | 2026-09-02 23:56:04 | 47.77319 | 12.39930 | 101° | 16km/h | 21168m | 4.8m/s | -55.0°C | 4.5% | 48.7hPa | 2.5V | 00:00:00 | 00:00:00 | 00:00:00 | |
| DG1MFX-10 | 2026-09-02 23:56:02 | 47.77321 | 12.39921 | 100° | 24km/h | 21164m | 4.1m/s | -55.0°C | 1.4% | 48.8hPa | 2.5V | 00:00:00 | 00:00:00 | 00:00:00 | |
| OE5MMP-10 | 2026-09-02 23:56:00 | 47.77322 | 12.39901 | 95° | 15km/h | 21150m | 4.2m/s | -54.9°C | 4.6% | 48.9hPa | 2.5V | 00:00:00 | 01:26:40 | 00:00:00 | |
| IN3HCDX | 2026-09-02 23:55:57 | 47.77325 | 12.39886 | 129° | 13km/h | 21135m | 4.7m/s | -55.0°C | 1.3% | 49.1hPa | 2.6V | 00:00:00 | 00:00:00 | 00:00:00 | |
| OE5FHM-15 | 2026-09-02 23:55:55 | 47.77330 | 12.39880 | 145° | 11km/h | 21124m | 5.0m/s | -54.9°C | 4.6% | 49.1hPa | 2.6V | 00:00:00 | 01:26:35 | 08:30:00 | |
| PETON7-10 | 2026-09-02 23:55:54 | 47.77334 | 12.39876 | 137° | 13km/h | 21119m | 4.9m/s | 0°C | 0% | 0hPa | 2.6V | 00:00:00 | 00:00:00 | 00:00:00 | |
| DB0UT-7 | 2026-09-02 23:55:52 | 47.77338 | 12.39865 | 105° | 26km/h | 21110m | 3.7m/s | -54.8°C | 4.5% | 49.2hPa | 2.6V | 00:00:00 | 00:00:00 | 00:00:00 | |
| OE5DXL-15 | 2026-09-02 23:55:51 | 47.77338 | 12.39859 | 92° | 11km/h | 21106m | 4.7m/s | -54.8°C | 4.5% | 49.2hPa | 2.6V | 00:00:00 | 00:00:00 | 00:00:00 | |
| OE5MMP-10 | 2026-09-02 23:55:50 | 47.77338 | 12.39853 | 78° | 13km/h | 21101m | 5.6m/s | -54.8°C | 4.5% | 49.2hPa | 2.6V | 00:00:00 | 01:26:30 | 00:00:00 | |
| OE5WHR-10 | 2026-09-02 23:55:49 | 47.77337 | 12.39848 | 59° | 11km/h | 21095m | 4.9m/s | -54.7°C | 4.4% | 49.3hPa | 2.6V | 00:00:00 | 00:00:00 | 00:00:00 | |
| OE8JPQ-2 | 2026-09-02 23:55:45 | 47.77328 | 12.39830 | 67° | 9km/h | 21076m | 4.1m/s | -54.6°C | 4.4% | 49.5hPa | 2.5V | 00:00:00 | 00:00:00 | 00:00:00 | |
| DO3MHA-11 | 2026-09-02 23:55:44 | 47.77327 | 12.39825 | 68° | 9km/h | 21072m | 4.7m/s | -54.5°C | 4.5% | 49.5hPa | 2.5V | 00:00:00 | 01:26:24 | 00:00:00 | |
| DG1MFX-10 | 2026-09-02 23:55:41 | 47.77325 | 12.39818 | 74° | 7km/h | 21061m | 4.6m/s | -54.5°C | 1.4% | 49.6hPa | 2.5V | 00:00:00 | 00:00:00 | 00:00:00 | |
| OE5MMP-10 | 2026-09-02 23:55:40 | 47.77324 | 12.39812 | 92° | 11km/h | 21052m | 5.8m/s | -54.4°C | 4.5% | 49.6hPa | 2.5V | 00:00:00 | 01:26:20 | 00:00:00 | |
| PETON7-10 | 2026-09-02 23:55:38 | 47.77325 | 12.39804 | 102° | 11km/h | 21042m | 4.6m/s | 0°C | 0% | 0hPa | 2.5V | 00:00:00 | 01:26:18 | 00:00:00 | |
| BAUMI2-15 | 2026-09-02 23:55:35 | 47.77325 | 12.39795 | 77° | 11km/h | 21027m | 4.7m/s | -54.2°C | 4.4% | 49.8hPa | 2.5V | 00:00:00 | 01:26:15 | 00:00:00 | |
| DO3MHA-11 | 2026-09-02 23:55:34 | 47.77325 | 12.39791 | 77° | 11km/h | 21022m | 5.8m/s | -54.2°C | 4.4% | 49.9hPa | 2.5V | 00:00:00 | 01:26:14 | 00:00:00 | |
| BAUMI2-15 | 2026-09-02 23:55:30 | 47.77321 | 12.39775 | 72° | 9km/h | 21002m | 4.5m/s | -54.0°C | 4.4% | 50.0hPa | 2.5V | 00:00:00 | 01:26:10 | 00:00:00 | |
| OE5DRO-10 | 2026-09-02 23:55:26 | 47.77324 | 12.39765 | 121° | 9km/h | 20983m | 4.7m/s | -53.9°C | 4.4% | 50.2hPa | 2.5V | 00:00:00 | 00:00:00 | 00:00:00 | |
| OE5FHM-15 | 2026-09-02 23:55:25 | 47.77326 | 12.39761 | 125° | 11km/h | 20979m | 4.1m/s | -53.8°C | 4.3% | 50.2hPa | 2.7V | 00:00:00 | 01:26:05 | 00:00:00 | |
| DO3MHA-11 | 2026-09-02 23:55:24 | 47.77328 | 12.39757 | 130° | 7km/h | 20974m | 5.5m/s | -53.8°C | 4.3% | 50.2hPa | 2.7V | 00:00:00 | 01:26:04 | 08:30:00 | |
| PETON7-10 | 2026-09-02 23:55:23 | 47.77330 | 12.39755 | 142° | 9km/h | 20968m | 5.2m/s | 0°C | 0% | 0hPa | 2.5V | 00:00:00 | 00:00:00 | 00:00:00 | |
| OE5DXL-15 | 2026-09-02 23:55:21 | 47.77332 | 12.39752 | 134° | 11km/h | 20959m | 5.0m/s | -53.7°C | 4.3% | 50.4hPa | 2.5V | 00:00:00 | 00:00:00 | 00:00:00 | |
| OE5MMP-10 | 2026-09-02 23:55:20 | 47.77333 | 12.39750 | 117° | 9km/h | 20954m | 5.4m/s | -53.7°C | 4.3% | 50.4hPa | 2.5V | 00:00:00 | 01:26:00 | 00:00:00 | |
| PG1ADW-2 | 2026-09-02 23:55:16 | 47.77336 | 12.39742 | 150° | 15km/h | 20934m | 4.5m/s | -53.7°C | 4.3% | 50.6hPa | 2.5V | 00:00:00 | 00:00:00 | 00:00:00 | |
| BAUMI2-15 | 2026-09-02 23:55:15 | 47.77337 | 12.39740 | 148° | 13km/h | 20930m | 4.2m/s | -53.6°C | 4.3% | 50.6hPa | 2.5V | 00:00:00 | 01:25:55 | 00:00:00 | |
| DO3MHA-11 | 2026-09-02 23:55:14 | 47.77339 | 12.39738 | 138° | 11km/h | 20925m | 5.9m/s | -53.6°C | 4.3% | 50.6hPa | 2.5V | 00:00:00 | 01:25:54 | 00:00:00 | |
| OE5MMP-10 | 2026-09-02 23:55:10 | 47.77348 | 12.39723 | 137° | 13km/h | 20905m | 5.4m/s | -53.5°C | 4.2% | 50.8hPa | 2.5V | 00:00:00 | 01:25:50 | 00:00:00 | |
| PETON7-10 | 2026-09-02 23:55:08 | 47.77352 | 12.39719 | 147° | 15km/h | 20895m | 4.3m/s | 0°C | 0% | 0hPa | 2.5V | 00:00:00 | 00:00:00 | 00:00:00 | |
| OE5WHR-10 | 2026-09-02 23:55:07 | 47.77353 | 12.39717 | 139° | 15km/h | 20890m | 5.6m/s | -53.4°C | 4.2% | 50.9hPa | 2.5V | 00:00:00 | 01:25:47 | 00:00:00 | |
| OE8JPQ-2 | 2026-09-02 23:55:05 | 47.77358 | 12.39711 | 143° | 15km/h | 20880m | 4.4m/s | -53.4°C | 4.2% | 51.0hPa | 2.5V | 00:00:00 | 00:00:00 | 00:00:00 | |
| DO3MHA-11 | 2026-09-02 23:55:04 | 47.77360 | 12.39708 | 151° | 29km/h | 20875m | 5.9m/s | -53.3°C | 4.1% | 51.0hPa | 2.5V | 00:00:00 | 01:25:44 | 00:00:00 | |
| OE5MMP-10 | 2026-09-02 23:55:00 | 47.77377 | 12.39694 | 142° | 13km/h | 20855m | 4.1m/s | -53.2°C | 4.1% | 51.2hPa | 2.5V | 00:00:00 | 01:25:40 | 00:00:00 | |
| OE5FHM-15 | 2026-09-02 23:54:55 | 47.77393 | 12.39676 | 128° | 18km/h | 20831m | 5.8m/s | -53.2°C | 4.0% | 51.4hPa | 2.5V | 00:00:00 | 01:25:35 | 00:00:00 | |
| IN3HCDX | 2026-09-02 23:54:54 | 47.77393 | 12.39676 | 129° | 11km/h | 20831m | 5.9m/s | -53.3°C | 1.2% | 51.4hPa | 2.5V | 00:00:00 | 00:00:00 | 00:00:00 | |
| PETON7-10 | 2026-09-02 23:54:53 | 47.77395 | 12.39669 | 100° | 18km/h | 20821m | 4.8m/s | 0°C | 0% | 0hPa | 2.5V | 00:00:00 | 01:25:33 | 00:00:00 | |
| PG1ADW-2 | 2026-09-02 23:54:52 | 47.77395 | 12.39666 | 101° | 33km/h | 20816m | 5.5m/s | -53.3°C | 4.1% | 51.5hPa | 2.5V | 00:00:00 | 01:25:32 | 08:30:00 | |
| OE5MMP-10 | 2026-09-02 23:54:50 | 47.77396 | 12.39660 | 109° | 18km/h | 20806m | 5.4m/s | -53.4°C | 4.1% | 51.6hPa | 2.5V | 00:00:00 | 01:25:30 | 00:00:00 | |
| OE5DRO-10 | 2026-09-02 23:54:48 | 47.77399 | 12.39648 | 114° | 20km/h | 20796m | 4.0m/s | -53.5°C | 4.2% | 51.7hPa | 2.5V | 00:00:00 | 00:00:00 | 00:00:00 | |
| OE5WHR-10 | 2026-09-02 23:54:46 | 47.77404 | 12.39634 | 125° | 20km/h | 20787m | 5.3m/s | -53.5°C | 4.2% | 51.7hPa | 2.5V | 00:00:00 | 00:00:00 | 08:30:00 | |
| OE8JPQ-2 | 2026-09-02 23:54:45 | 47.77407 | 12.39628 | 127° | 20km/h | 20782m | 4.2m/s | -53.5°C | 4.3% | 51.7hPa | 2.7V | 00:00:00 | 00:00:00 | 00:00:00 | |
| OE5MMP-10 | 2026-09-02 23:54:40 | 47.77415 | 12.39597 | 94° | 22km/h | 20757m | 5.5m/s | -53.4°C | 4.2% | 52.0hPa | 2.7V | 00:00:00 | 01:25:20 | 00:00:00 | |
| PETON7-10 | 2026-09-02 23:54:35 | 47.77417 | 12.39559 | 108° | 24km/h | 20734m | 4.9m/s | 0°C | 0% | 0hPa | 2.7V | 00:00:00 | 00:00:00 | 00:00:00 | |
| IN3HCDX | 2026-09-02 23:54:33 | 47.77419 | 12.39551 | 116° | 24km/h | 20729m | 5.4m/s | -53.4°C | 1.2% | 52.3hPa | 2.7V | 00:00:00 | 00:00:00 | 00:00:00 | |
| OE5MMP-10 | 2026-09-02 23:54:30 | 47.77430 | 12.39520 | 117° | 22km/h | 20709m | 4.4m/s | -53.3°C | 4.1% | 52.4hPa | 2.7V | 00:00:00 | 01:25:10 | 00:00:00 | |
| OE5DRO-10 | 2026-09-02 23:54:29 | 47.77433 | 12.39513 | 116° | 24km/h | 20704m | 5.2m/s | -53.3°C | 4.1% | 52.4hPa | 2.6V | 00:00:00 | 00:00:00 | 08:30:00 | |
| OE5WHR-10 | 2026-09-02 23:54:25 | 47.77440 | 12.39488 | 107° | 29km/h | 20686m | 5.0m/s | -53.3°C | 3.9% | 52.6hPa | 2.5V | 00:00:00 | 00:00:00 | 00:00:00 | |
| OE5DXL-15 | 2026-09-02 23:54:21 | 47.77450 | 12.39453 | 123° | 31km/h | 20668m | 4.2m/s | -53.4°C | 3.9% | 52.7hPa | 2.5V | 00:00:00 | 00:00:00 | 00:00:00 | |
| OE5MMP-10 | 2026-09-02 23:54:20 | 47.77453 | 12.39445 | 121° | 26km/h | 20664m | 4.0m/s | -53.5°C | 4.0% | 52.8hPa | 2.5V | 00:00:00 | 01:25:00 | 00:00:00 | |
| DG1MFX-10 | 2026-09-02 23:54:19 | 47.77453 | 12.39445 | 122° | 26km/h | 20664m | 4.1m/s | -53.6°C | 1.2% | 52.8hPa | 2.5V | 00:00:00 | 00:00:00 | 00:00:00 | |
| IN3HCDX | 2026-09-02 23:54:13 | 47.77477 | 12.39392 | 126° | 24km/h | 20632m | 5.3m/s | -54.1°C | 1.3% | 53.0hPa | 2.5V | 00:00:00 | 00:00:00 | 00:00:00 | |
| OE5MMP-10 | 2026-09-02 23:54:10 | 47.77488 | 12.39364 | 121° | 37km/h | 20618m | 5.0m/s | -54.3°C | 4.3% | 53.1hPa | 2.5V | 00:00:00 | 01:24:50 | 00:00:00 | |
| OE8JPQ-2 | 2026-09-02 23:54:05 | 47.77514 | 12.39306 | 120° | 35km/h | 20594m | 4.6m/s | -54.4°C | 4.3% | 53.3hPa | 2.5V | 00:00:00 | 00:00:00 | 00:00:00 | |
| OE5WHR-10 | 2026-09-02 23:54:04 | 47.77519 | 12.39293 | 121° | 33km/h | 20590m | 4.9m/s | -54.4°C | 4.3% | 53.3hPa | 2.5V | 00:00:00 | 01:24:44 | 00:00:00 | |
| OE5MMP-10 | 2026-09-02 23:54:00 | 47.77534 | 12.39250 | 109° | 33km/h | 20571m | 5.1m/s | -54.5°C | 4.4% | 53.5hPa | 2.5V | 00:00:00 | 01:24:40 | 08:30:00 | |
| DG1MFX-10 | 2026-09-02 23:53:59 | 47.77534 | 12.39250 | 110° | 29km/h | 20571m | 5.1m/s | -54.5°C | 1.3% | 53.6hPa | 2.5V | 00:00:00 | 00:00:00 | 00:00:00 | |
| OE5FHM-15 | 2026-09-02 23:53:55 | 47.77545 | 12.39199 | 108° | 33km/h | 20548m | 4.6m/s | -54.4°C | 4.3% | 53.7hPa | 2.5V | 00:00:00 | 01:24:35 | 00:00:00 | |
| OE5DRO-10 | 2026-09-02 23:53:51 | 47.77556 | 12.39146 | 111° | 35km/h | 20529m | 4.5m/s | -54.5°C | 4.4% | 53.9hPa | 2.5V | 00:00:00 | 00:00:00 | 00:00:00 | |
| OE5MMP-10 | 2026-09-02 23:53:50 | 47.77559 | 12.39132 | 111° | 33km/h | 20525m | 3.8m/s | -54.5°C | 4.4% | 53.9hPa | 2.5V | 00:00:00 | 01:24:30 | 00:00:00 | |
| OE8JPQ-2 | 2026-09-02 23:53:45 | 47.77571 | 12.39069 | 105° | 33km/h | 20502m | 4.0m/s | -54.4°C | 4.4% | 54.1hPa | 2.5V | 00:00:00 | 00:00:00 | 00:00:00 | |
| OE5WHR-10 | 2026-09-02 23:53:43 | 47.77574 | 12.39048 | 96° | 33km/h | 20494m | 5.0m/s | -54.4°C | 4.3% | 54.2hPa | 2.5V | 00:00:00 | 00:00:00 | 00:00:00 | |
| OE5MMP-10 | 2026-09-02 23:53:40 | 47.77574 | 12.39011 | 93° | 33km/h | 20481m | 4.8m/s | -54.4°C | 4.3% | 54.3hPa | 2.7V | 00:00:00 | 01:24:20 | 00:00:00 | |
| DG1MFX-10 | 2026-09-02 23:53:39 | 47.77574 | 12.39011 | 94° | 35km/h | 20481m | 4.9m/s | -54.4°C | 1.3% | 54.3hPa | 2.7V | 00:00:00 | 00:00:00 | 00:00:00 | |
| OE5DRO-10 | 2026-09-02 23:53:32 | 47.77583 | 12.38908 | 96° | 29km/h | 20446m | 3.6m/s | -54.6°C | 4.4% | 54.6hPa | 2.7V | 00:00:00 | 00:00:00 | 00:00:00 | |
| DO3MHA-11 | 2026-09-02 23:53:31 | 47.77583 | 12.38898 | 89° | 33km/h | 20442m | 4.6m/s | -54.7°C | 4.3% | 54.6hPa | 2.5V | 00:00:00 | 01:24:11 | 00:00:00 | |
| OE5MMP-10 | 2026-09-02 23:53:30 | 47.77583 | 12.38888 | 81° | 35km/h | 20437m | 5.0m/s | -54.9°C | 4.5% | 54.7hPa | 2.5V | 00:00:00 | 01:24:10 | 00:00:00 | |
| OE5FHM-15 | 2026-09-02 23:53:25 | 47.77573 | 12.38830 | 78° | 26km/h | 20416m | 5.1m/s | -54.8°C | 4.4% | 54.9hPa | 2.5V | 00:00:00 | 01:24:05 | 00:00:00 | |
| OE5WHR-10 | 2026-09-02 23:53:22 | 47.77568 | 12.38784 | 81° | 26km/h | 20402m | 1.9m/s | -54.8°C | 4.5% | 55.0hPa | 2.5V | 00:00:00 | 00:00:00 | 00:00:00 | |
| DO3MHA-11 | 2026-09-02 23:53:21 | 47.77566 | 12.38770 | 85° | 22km/h | 20400m | 2.5m/s | -54.8°C | 4.4% | 55.0hPa | 2.5V | 00:00:00 | 01:24:01 | 00:00:00 | |
| OE5MMP-10 | 2026-09-02 23:53:20 | 47.77566 | 12.38757 | 89° | 22km/h | 20396m | 5.7m/s | -54.7°C | 4.4% | 55.0hPa | 2.5V | 00:00:00 | 01:24:00 | 00:00:00 | |
| DG1MFX-10 | 2026-09-02 23:53:18 | 47.77566 | 12.38747 | 94° | 24km/h | 20390m | 6.6m/s | -54.7°C | 1.4% | 55.1hPa | 2.5V | 00:00:00 | 00:00:00 | 00:00:00 | |
| OE5DRO-10 | 2026-09-02 23:53:13 | 47.77564 | 12.38708 | 76° | 26km/h | 20358m | 6.3m/s | -54.8°C | 4.3% | 55.3hPa | 2.5V | 00:00:00 | 00:00:00 | 00:00:00 | |
| IN3HCDX | 2026-09-02 23:53:10 | 47.77558 | 12.38674 | 76° | 31km/h | 20340m | 5.9m/s | -54.9°C | 1.3% | 55.5hPa | 2.5V | 00:00:00 | 00:00:00 | 00:00:00 | |
| OE8JPQ-2 | 2026-09-02 23:53:05 | 47.77546 | 12.38623 | 65° | 20km/h | 20310m | 5.5m/s | -54.9°C | 4.4% | 55.8hPa | 2.5V | 00:00:00 | 00:00:00 | 08:30:00 | |
| OE5WHR-10 | 2026-09-02 23:53:01 | 47.77534 | 12.38590 | 63° | 16km/h | 20290m | 4.4m/s | -54.8°C | 4.5% | 55.9hPa | 2.5V | 00:00:00 | 01:23:41 | 00:00:00 | |
| OE5MMP-10 | 2026-09-02 23:53:00 | 47.77532 | 12.38585 | 60° | 20km/h | 20285m | 4.6m/s | -54.8°C | 4.5% | 56.0hPa | 2.5V | 00:00:00 | 01:23:40 | 00:00:00 | |
| DG1MFX-10 | 2026-09-02 23:52:58 | 47.77530 | 12.38579 | 58° | 18km/h | 20280m | 5.6m/s | -54.8°C | 1.4% | 56.1hPa | 2.6V | 00:00:00 | 00:00:00 | 00:00:00 | |
| BAUMI2-15 | 2026-09-02 23:52:56 | 47.77522 | 12.38560 | 62° | 22km/h | 20265m | 5.5m/s | -54.8°C | 4.5% | 56.2hPa | 2.6V | 00:00:00 | 01:23:36 | 00:00:00 | |
| OE5FHM-15 | 2026-09-02 23:52:55 | 47.77520 | 12.38554 | 65° | 15km/h | 20260m | 4.4m/s | -54.9°C | 4.6% | 56.2hPa | 2.5V | 00:00:00 | 01:23:35 | 00:00:00 | |
| OE5DRO-10 | 2026-09-02 23:52:54 | 47.77518 | 12.38547 | 63° | 16km/h | 20256m | 4.7m/s | -54.9°C | 4.6% | 56.2hPa | 2.5V | 00:00:00 | 00:00:00 | 00:00:00 | |
| BAUMI2-15 | 2026-09-02 23:52:51 | 47.77508 | 12.38525 | 53° | 18km/h | 20241m | 3.4m/s | -54.8°C | 4.5% | 56.4hPa | 2.5V | 00:00:00 | 01:23:31 | 00:00:00 | |
| OE5MMP-10 | 2026-09-02 23:52:50 | 47.77504 | 12.38518 | 52° | 15km/h | 20236m | 5.6m/s | -54.8°C | 4.5% | 56.4hPa | 2.5V | 00:00:00 | 01:23:30 | 00:00:00 | |
| IN3HCDX | 2026-09-02 23:52:48 | 47.77501 | 12.38512 | 54° | 18km/h | 20230m | 5.4m/s | -54.8°C | 1.4% | 56.5hPa | 2.5V | 00:00:00 | 00:00:00 | 00:00:00 | |
| BAUMI2-15 | 2026-09-02 23:52:46 | 47.77495 | 12.38498 | 65° | 11km/h | 20214m | 5.4m/s | -54.6°C | 4.6% | 56.6hPa | 2.5V | 00:00:00 | 01:23:26 | 00:00:00 | |
| OE8JPQ-2 | 2026-09-02 23:52:45 | 47.77494 | 12.38493 | 75° | 13km/h | 20209m | 5.2m/s | -54.6°C | 4.5% | 56.6hPa | 2.5V | 00:00:00 | 00:00:00 | 00:00:00 | |
| BAUMI2-15 | 2026-09-02 23:52:41 | 47.77495 | 12.38477 | 103° | 16km/h | 20188m | 5.1m/s | -54.4°C | 4.4% | 56.8hPa | 2.5V | 00:00:00 | 01:23:21 | 08:30:00 | |
| OE5WHR-10 | 2026-09-02 23:52:40 | 47.77496 | 12.38472 | 89° | 13km/h | 20183m | 5.6m/s | -54.3°C | 4.4% | 56.9hPa | 2.6V | 00:00:00 | 00:00:00 | 00:00:00 | |
| DG1MFX-10 | 2026-09-02 23:52:37 | 47.77494 | 12.38460 | 73° | 18km/h | 20173m | 4.7m/s | -54.3°C | 1.4% | 57.0hPa | 2.5V | 00:00:00 | 00:00:00 | 00:00:00 | |
| BAUMI2-15 | 2026-09-02 23:52:36 | 47.77491 | 12.38449 | 59° | 9km/h | 20163m | 5.0m/s | -54.2°C | 4.4% | 57.1hPa | 2.5V | 00:00:00 | 01:23:16 | 00:00:00 | |
| OE5DRO-10 | 2026-09-02 23:52:35 | 47.77490 | 12.38445 | 53° | 13km/h | 20158m | 4.1m/s | -54.1°C | 4.3% | 57.1hPa | 2.5V | 00:00:00 | 00:00:00 | 00:00:00 | |
| BAUMI2-15 | 2026-09-02 23:52:31 | 47.77487 | 12.38434 | 115° | 11km/h | 20137m | 5.9m/s | -53.9°C | 4.3% | 57.3hPa | 2.7V | 00:00:00 | 01:23:11 | 00:00:00 | |
| OE5MMP-10 | 2026-09-02 23:52:30 | 47.77488 | 12.38432 | 140° | 13km/h | 20131m | 5.1m/s | -53.9°C | 4.3% | 57.3hPa | 2.7V | 00:00:00 | 01:23:10 | 08:30:00 | |
| IN3HCDX | 2026-09-02 23:52:27 | 47.77492 | 12.38426 | 126° | 15km/h | 20122m | 5.4m/s | -53.9°C | 1.3% | 57.5hPa | 2.6V | 00:00:00 | 00:00:00 | 00:00:00 | |
| BAUMI2-15 | 2026-09-02 23:52:26 | 47.77495 | 12.38414 | 95° | 15km/h | 20112m | 3.8m/s | -53.7°C | 4.2% | 57.5hPa | 2.6V | 00:00:00 | 01:23:06 | 00:00:00 | |
| OE5FHM-15 | 2026-09-02 23:52:25 | 47.77495 | 12.38408 | 83° | 16km/h | 20107m | 5.6m/s | -53.7°C | 4.2% | 57.5hPa | 2.7V | 00:00:00 | 01:23:05 | 00:00:00 | |
| BAUMI2-15 | 2026-09-02 23:52:21 | 47.77489 | 12.38392 | 67° | 13km/h | 20088m | 5.3m/s | -53.6°C | 4.2% | 57.7hPa | 2.7V | 00:00:00 | 01:23:01 | 00:00:00 | |
| OE5MMP-10 | 2026-09-02 23:52:20 | 47.77488 | 12.38388 | 88° | 16km/h | 20082m | 5.5m/s | -53.6°C | 4.1% | 57.8hPa | 2.7V | 00:00:00 | 01:23:00 | 00:00:00 | |
| OE5WHR-10 | 2026-09-02 23:52:19 | 47.77489 | 12.38384 | 105° | 18km/h | 20077m | 5.1m/s | -53.6°C | 4.2% | 57.8hPa | 2.7V | 00:00:00 | 00:00:00 | 00:00:00 | |
| DG1MFX-10 | 2026-09-02 23:52:17 | 47.77490 | 12.38379 | 112° | 15km/h | 20072m | 4.9m/s | -53.6°C | 1.3% | 57.9hPa | 2.7V | 00:00:00 | 00:00:00 | 00:00:00 | |
| BAUMI2-15 | 2026-09-02 23:52:16 | 47.77493 | 12.38369 | 117° | 20km/h | 20062m | 4.6m/s | -53.6°C | 4.2% | 58.0hPa | 2.7V | 00:00:00 | 01:22:56 | 00:00:00 | |
| OE5MMP-10 | 2026-09-02 23:52:10 | 47.77506 | 12.38333 | 87° | 18km/h | 20033m | 4.2m/s | -53.9°C | 4.4% | 58.2hPa | 2.7V | 00:00:00 | 01:22:50 | 00:00:00 | |
| IN3HCDX | 2026-09-02 23:52:08 | 47.77504 | 12.38323 | 79° | 16km/h | 20024m | 5.3m/s | -54.0°C | 1.3% | 58.3hPa | 2.7V | 00:00:00 | 00:00:00 | 00:00:00 | |
| BAUMI2-15 | 2026-09-02 23:52:06 | 47.77504 | 12.38310 | 105° | 18km/h | 20014m | 4.2m/s | -53.9°C | 4.4% | 58.4hPa | 2.7V | 00:00:00 | 01:22:46 | 00:00:00 | |
| OE8JPQ-2 | 2026-09-02 23:52:05 | 47.77506 | 12.38303 | 118° | 20km/h | 20010m | 4.4m/s | -53.8°C | 4.4% | 58.4hPa | 2.7V | 00:00:00 | 00:00:00 | 00:00:00 | |
| BAUMI2-15 | 2026-09-02 23:52:01 | 47.77520 | 12.38284 | 140° | 24km/h | 19992m | 5.5m/s | -53.7°C | 4.3% | 58.6hPa | 2.7V | 00:00:00 | 01:22:41 | 00:00:00 | |
| OE5MMP-10 | 2026-09-02 23:52:00 | 47.77525 | 12.38277 | 134° | 20km/h | 19986m | 5.0m/s | -53.6°C | 4.3% | 58.6hPa | 2.7V | 00:00:00 | 01:22:40 | 00:00:00 | |
| OE5WHR-10 | 2026-09-02 23:51:58 | 47.77532 | 12.38262 | 123° | 18km/h | 19976m | 5.8m/s | -53.5°C | 4.3% | 58.8hPa | 2.6V | 00:00:00 | 01:22:38 | 00:00:00 | |
| OE5DRO-10 | 2026-09-02 23:51:57 | 47.77535 | 12.38255 | 115° | 18km/h | 19971m | 4.8m/s | -53.5°C | 4.3% | 58.8hPa | 2.6V | 00:00:00 | 00:00:00 | 00:00:00 | |
| BAUMI2-15 | 2026-09-02 23:51:56 | 47.77537 | 12.38249 | 108° | 18km/h | 19967m | 4.1m/s | -53.4°C | 4.3% | 58.8hPa | 2.6V | 00:00:00 | 01:22:36 | 08:30:00 | |
| OE5FHM-15 | 2026-09-02 23:51:55 | 47.77538 | 12.38242 | 105° | 18km/h | 19962m | 5.4m/s | -53.4°C | 4.2% | 58.9hPa | 2.6V | 00:00:00 | 01:22:35 | 00:00:00 | |
| BAUMI2-15 | 2026-09-02 23:51:51 | 47.77545 | 12.38216 | 121° | 16km/h | 19943m | 5.6m/s | -53.2°C | 4.2% | 59.0hPa | 2.6V | 00:00:00 | 01:22:31 | 00:00:00 | |
| OE5MMP-10 | 2026-09-02 23:51:50 | 47.77547 | 12.38211 | 128° | 18km/h | 19938m | 4.7m/s | -53.2°C | 4.2% | 59.1hPa | 2.6V | 00:00:00 | 01:22:30 | 00:00:00 | |
| BAUMI2-15 | 2026-09-02 23:51:46 | 47.77557 | 12.38192 | 124° | 20km/h | 19918m | 5.5m/s | -53.0°C | 4.1% | 59.3hPa | 2.6V | 00:00:00 | 01:22:26 | 00:00:00 | |
| OE8JPQ-2 | 2026-09-02 23:51:45 | 47.77559 | 12.38186 | 118° | 18km/h | 19913m | 4.7m/s | -53.0°C | 4.1% | 59.3hPa | 2.6V | 00:00:00 | 00:00:00 | 00:00:00 | |
| OE5MMP-10 | 2026-09-02 23:51:40 | 47.77568 | 12.38147 | 108° | 15km/h | 19888m | 5.6m/s | -52.9°C | 4.0% | 59.6hPa | 2.6V | 00:00:00 | 01:22:20 | 00:00:00 | |
| OE5DRO-10 | 2026-09-02 23:51:38 | 47.77571 | 12.38136 | 124° | 16km/h | 19878m | 4.3m/s | -53.1°C | 4.1% | 59.6hPa | 2.6V | 00:00:00 | 00:00:00 | 08:30:00 | |
| DG1MFX-10 | 2026-09-02 23:51:37 | 47.77573 | 12.38132 | 134° | 15km/h | 19874m | 5.5m/s | -53.1°C | 1.3% | 59.7hPa | 2.7V | 00:00:00 | 00:00:00 | 00:00:00 | |
| BAUMI2-15 | 2026-09-02 23:51:36 | 47.77576 | 12.38128 | 142° | 15km/h | 19868m | 4.6m/s | -53.0°C | 4.0% | 59.7hPa | 2.7V | 00:00:00 | 01:22:16 | 00:00:00 | |
| BAUMI2-15 | 2026-09-02 23:51:31 | 47.77590 | 12.38111 | 118° | 22km/h | 19845m | 5.7m/s | -52.8°C | 4.1% | 60.0hPa | 2.7V | 00:00:00 | 01:22:11 | 00:00:00 | |
| OE5MMP-10 | 2026-09-02 23:51:30 | 47.77592 | 12.38103 | 108° | 16km/h | 19840m | 4.3m/s | -52.8°C | 4.0% | 60.0hPa | 2.7V | 00:00:00 | 01:22:10 | 00:00:00 | |
| DO3MHA-11 | 2026-09-02 23:51:28 | 47.77594 | 12.38086 | 99° | 18km/h | 19831m | 5.0m/s | -52.9°C | 4.0% | 60.1hPa | 2.5V | 00:00:00 | 01:22:08 | 00:00:00 | |
| BAUMI2-15 | 2026-09-02 23:51:26 | 47.77596 | 12.38070 | 103° | 15km/h | 19821m | 5.2m/s | -53.1°C | 4.0% | 60.2hPa | 2.5V | 00:00:00 | 01:22:06 | 00:00:00 | |
| OE5FHM-15 | 2026-09-02 23:51:25 | 47.77597 | 12.38064 | 110° | 26km/h | 19816m | 5.6m/s | -53.2°C | 4.0% | 60.2hPa | 2.6V | 00:00:00 | 01:22:05 | 08:30:00 | |
| BAUMI2-15 | 2026-09-02 23:51:21 | 47.77603 | 12.38048 | 126° | 18km/h | 19797m | 3.5m/s | -53.3°C | 4.0% | 60.4hPa | 2.5V | 00:00:00 | 01:22:01 | 00:00:00 | |
| OE5MMP-10 | 2026-09-02 23:51:20 | 47.77605 | 12.38045 | 132° | 26km/h | 19793m | 4.6m/s | -53.4°C | 4.0% | 60.5hPa | 2.5V | 00:00:00 | 01:22:00 | 00:00:00 | |
| OE5DRO-10 | 2026-09-02 23:51:19 | 47.77607 | 12.38041 | 133° | 29km/h | 19788m | 5.3m/s | -53.5°C | 4.1% | 60.5hPa | 2.5V | 00:00:00 | 00:00:00 | 00:00:00 | |
| OE5WHR-10 | 2026-09-02 23:51:16 | 47.77619 | 12.38018 | 121° | 29km/h | 19773m | 5.4m/s | -53.6°C | 4.1% | 60.6hPa | 2.5V | 00:00:00 | 00:00:00 | 00:00:00 | |
| DO3MHA-11 | 2026-09-02 23:51:15 | 47.77622 | 12.38008 | 115° | 27km/h | 19768m | 4.2m/s | -53.7°C | 4.2% | 60.7hPa | 2.5V | 00:00:00 | 01:21:55 | 00:00:00 | |
| BAUMI2-15 | 2026-09-02 23:51:11 | 47.77633 | 12.37966 | 111° | 26km/h | 19749m | 4.8m/s | -53.6°C | 4.2% | 60.9hPa | 2.7V | 00:00:00 | 01:21:51 | 08:30:00 | |
| OE5MMP-10 | 2026-09-02 23:51:10 | 47.77636 | 12.37957 | 108° | 29km/h | 19744m | 5.3m/s | -53.6°C | 4.2% | 60.9hPa | 2.7V | 00:00:00 | 01:21:50 | 00:00:00 | |
| BAUMI2-15 | 2026-09-02 23:51:06 | 47.77645 | 12.37922 | 117° | 33km/h | 19725m | 3.7m/s | -53.7°C | 4.2% | 61.1hPa | 2.7V | 00:00:00 | 01:21:46 | 00:00:00 | |
| IN3HCDX | 2026-09-02 23:51:05 | 47.77649 | 12.37911 | 115° | 33km/h | 19721m | 4.6m/s | -53.7°C | 1.3% | 61.2hPa | 2.7V | 00:00:00 | 00:00:00 | 00:00:00 | |
| OE5MMP-10 | 2026-09-02 23:51:00 | 47.77663 | 12.37856 | 113° | 27km/h | 19697m | 4.3m/s | -53.7°C | 4.2% | 61.3hPa | 2.7V | 00:00:00 | 01:21:40 | 08:30:00 | |
| OE5FHM-15 | 2026-09-02 23:50:55 | 47.77670 | 12.37807 | 102° | 29km/h | 19673m | 5.3m/s | -53.6°C | 4.2% | 61.6hPa | 2.7V | 00:00:00 | 01:21:35 | 00:00:00 | |
| OE5MMP-10 | 2026-09-02 23:50:50 | 47.77677 | 12.37758 | 103° | 29km/h | 19650m | 4.6m/s | -53.8°C | 4.2% | 61.8hPa | 2.7V | 00:00:00 | 01:21:30 | 00:00:00 | |
| DB0UT-7 | 2026-09-02 23:50:45 | 47.77684 | 12.37706 | 90° | 40km/h | 19625m | 4.2m/s | -54.0°C | 4.3% | 62.0hPa | 2.7V | 00:00:00 | 01:21:25 | 00:00:00 | |
| IN3HCDX | 2026-09-02 23:50:44 | 47.77684 | 12.37693 | 90° | 33km/h | 19620m | 5.4m/s | -54.1°C | 1.3% | 62.2hPa | 2.7V | 00:00:00 | 00:00:00 | 00:00:00 | |
| OE5DRO-10 | 2026-09-02 23:50:41 | 47.77682 | 12.37658 | 83° | 29km/h | 19607m | 5.1m/s | -54.0°C | 4.3% | 62.2hPa | 2.7V | 00:00:00 | 00:00:00 | 00:00:00 | |
| OE5MMP-10 | 2026-09-02 23:50:40 | 47.77681 | 12.37646 | 78° | 27km/h | 19601m | 5.3m/s | -54.0°C | 4.3% | 62.3hPa | 2.7V | 00:00:00 | 01:21:20 | 00:00:00 | |
| OE5WHR-10 | 2026-09-02 23:50:34 | 47.77678 | 12.37584 | 94° | 27km/h | 19572m | 5.0m/s | -53.7°C | 4.2% | 62.5hPa | 2.7V | 00:00:00 | 00:00:00 | 00:00:00 | |
| OE5MMP-10 | 2026-09-02 23:50:30 | 47.77683 | 12.37546 | 103° | 29km/h | 19552m | 4.2m/s | -53.6°C | 4.2% | 62.8hPa | 2.7V | 00:00:00 | 01:21:10 | 00:00:00 | |
| OE8JPQ-2 | 2026-09-02 23:50:25 | 47.77689 | 12.37486 | 104° | 29km/h | 19527m | 4.5m/s | -53.5°C | 4.1% | 63.0hPa | 2.6V | 00:00:00 | 01:21:05 | 00:00:00 | |
| OE5DRO-10 | 2026-09-02 23:50:22 | 47.77694 | 12.37457 | 103° | 27km/h | 19512m | 4.8m/s | -53.6°C | 4.1% | 63.1hPa | 2.6V | 00:00:00 | 00:00:00 | 00:00:00 | |
| OE5DXL-15 | 2026-09-02 23:50:21 | 47.77695 | 12.37450 | 107° | 31km/h | 19508m | 4.2m/s | -53.7°C | 4.1% | 63.2hPa | 2.6V | 00:00:00 | 00:00:00 | 08:30:00 | |
| OE5MMP-10 | 2026-09-02 23:50:20 | 47.77697 | 12.37443 | 114° | 27km/h | 19503m | 5.8m/s | -53.7°C | 4.1% | 63.3hPa | 2.7V | 00:00:00 | 01:21:00 | 00:00:00 | |
| OE5WHR-10 | 2026-09-02 23:50:13 | 47.77710 | 12.37380 | 107° | 33km/h | 19468m | 4.0m/s | -53.7°C | 4.1% | 63.6hPa | 2.7V | 00:00:00 | 00:00:00 | 00:00:00 | |
| OE5MMP-10 | 2026-09-02 23:50:10 | 47.77716 | 12.37339 | 103° | 29km/h | 19454m | 4.5m/s | -53.9°C | 4.1% | 63.7hPa | 2.7V | 00:00:00 | 01:20:50 | 00:00:00 | |
| OE8JPQ-2 | 2026-09-02 23:50:05 | 47.77729 | 12.37283 | 113° | 33km/h | 19429m | 5.3m/s | -54.5°C | 4.3% | 64.0hPa | 2.7V | 00:00:00 | 00:00:00 | 08:30:00 | |
| OE5DRO-10 | 2026-09-02 23:50:03 | 47.77735 | 12.37265 | 121° | 35km/h | 19419m | 5.7m/s | -54.5°C | 4.3% | 64.1hPa | 2.6V | 00:00:00 | 00:00:00 | 00:00:00 | |
| OE5MMP-10 | 2026-09-02 23:50:00 | 47.77746 | 12.37238 | 119° | 35km/h | 19404m | 5.3m/s | -54.5°C | 4.3% | 64.2hPa | 2.6V | 00:00:00 | 01:20:40 | 00:00:00 | |
| OE5FHM-15 | 2026-09-02 23:49:55 | 47.77764 | 12.37181 | 112° | 40km/h | 19379m | 5.5m/s | -54.4°C | 4.3% | 64.5hPa | 2.6V | 00:00:00 | 01:20:35 | 00:00:00 | |
| DG1MFX-10 | 2026-09-02 23:49:53 | 47.77767 | 12.37169 | 112° | 35km/h | 19374m | 4.9m/s | -54.5°C | 1.4% | 64.6hPa | 2.6V | 00:00:00 | 00:00:00 | 00:00:00 | |
| OE5WHR-10 | 2026-09-02 23:49:52 | 47.77774 | 12.37144 | 115° | 40km/h | 19365m | 5.8m/s | -54.5°C | 4.3% | 64.6hPa | 2.6V | 00:00:00 | 01:20:32 | 00:00:00 | |
| OE5MMP-10 | 2026-09-02 23:49:50 | 47.77782 | 12.37119 | 117° | 38km/h | 19355m | 4.1m/s | -54.6°C | 4.3% | 64.7hPa | 2.6V | 00:00:00 | 01:20:30 | 00:00:00 | |
| OE8JPQ-2 | 2026-09-02 23:49:45 | 47.77801 | 12.37056 | 112° | 44km/h | 19332m | 4.5m/s | -54.8°C | 4.5% | 65.0hPa | 2.6V | 00:00:00 | 00:00:00 | 00:00:00 | |
| OE5DRO-10 | 2026-09-02 23:49:44 | 47.77804 | 12.37041 | 109° | 44km/h | 19328m | 4.1m/s | -54.8°C | 4.5% | 65.0hPa | 2.6V | 00:00:00 | 00:00:00 | 00:00:00 | |
| OE5MMP-10 | 2026-09-02 23:49:40 | 47.77815 | 12.36980 | 106° | 44km/h | 19308m | 5.2m/s | -54.8°C | 4.5% | 65.2hPa | 2.7V | 00:00:00 | 01:20:20 | 00:00:00 | |
| IN3HCDX | 2026-09-02 23:49:39 | 47.77815 | 12.36980 | 107° | 44km/h | 19308m | 5.2m/s | -54.8°C | 1.4% | 65.2hPa | 2.7V | 00:00:00 | 00:00:00 | 00:00:00 | |
| DO3MHA-11 | 2026-09-02 23:49:34 | 47.77835 | 12.36888 | 109° | 44km/h | 19278m | 4.4m/s | -54.6°C | 4.5% | 65.5hPa | 2.7V | 00:00:00 | 01:20:14 | 00:00:00 | |
| DG1MFX-10 | 2026-09-02 23:49:32 | 47.77838 | 12.36872 | 108° | 46km/h | 19274m | 3.7m/s | -54.6°C | 1.4% | 65.6hPa | 2.7V | 00:00:00 | 00:00:00 | 00:00:00 | |
| OE5WHR-10 | 2026-09-02 23:49:31 | 47.77844 | 12.36839 | 100° | 42km/h | 19265m | 4.9m/s | -54.5°C | 4.4% | 65.6hPa | 2.7V | 00:00:00 | 00:00:00 | 00:00:00 | |
| OE5MMP-10 | 2026-09-02 23:49:30 | 47.77845 | 12.36823 | 98° | 44km/h | 19260m | 4.5m/s | -54.5°C | 4.4% | 65.7hPa | 2.7V | 00:00:00 | 01:20:10 | 08:30:00 | |
| OE5FHM-15 | 2026-09-02 23:49:25 | 47.77853 | 12.36743 | 98° | 38km/h | 19236m | 4.5m/s | -54.3°C | 4.4% | 65.9hPa | 2.7V | 00:00:00 | 01:20:05 | 00:00:00 | |
| DO3MHA-11 | 2026-09-02 23:49:24 | 47.77855 | 12.36727 | 99° | 42km/h | 19232m | 4.2m/s | -54.3°C | 4.4% | 66.0hPa | 2.7V | 00:00:00 | 01:20:04 | 08:30:00 | |
| OE5DXL-15 | 2026-09-02 23:49:21 | 47.77861 | 12.36680 | 103° | 37km/h | 19217m | 4.7m/s | -54.2°C | 4.4% | 66.1hPa | 2.6V | 00:00:00 | 00:00:00 | 00:00:00 | |
| OE5MMP-10 | 2026-09-02 23:49:20 | 47.77864 | 12.36664 | 101° | 42km/h | 19212m | 5.4m/s | -54.2°C | 4.3% | 66.2hPa | 2.6V | 00:00:00 | 01:20:00 | 00:00:00 | |
| DB0UT-7 | 2026-09-02 23:49:19 | 47.77865 | 12.36648 | 100° | 38km/h | 19207m | 4.5m/s | -54.2°C | 4.4% | 66.2hPa | 2.6V | 00:00:00 | 00:00:00 | 08:30:00 | |
| IN3HCDX | 2026-09-02 23:49:18 | 47.77866 | 12.36648 | 101° | 40km/h | 19207m | 4.6m/s | -54.3°C | 1.4% | 66.3hPa | 2.7V | 00:00:00 | 00:00:00 | 00:00:00 | |
| DO3MHA-11 | 2026-09-02 23:49:14 | 47.77876 | 12.36572 | 98° | 40km/h | 19183m | 4.9m/s | -54.3°C | 4.4% | 66.5hPa | 2.7V | 00:00:00 | 01:19:54 | 00:00:00 | |
| DG1MFX-10 | 2026-09-02 23:49:12 | 47.77877 | 12.36557 | 97° | 40km/h | 19179m | 3.7m/s | -54.3°C | 1.4% | 66.6hPa | 2.7V | 00:00:00 | 00:00:00 | 00:00:00 | |
| OE5WHR-10 | 2026-09-02 23:49:10 | 47.77881 | 12.36512 | 100° | 35km/h | 19166m | 4.0m/s | -54.2°C | 4.2% | 66.6hPa | 2.7V | 00:00:00 | 00:00:00 | 00:00:00 | |
| OE5DRO-10 | 2026-09-02 23:49:06 | 47.77884 | 12.36451 | 91° | 33km/h | 19148m | 4.5m/s | -54.1°C | 4.2% | 66.9hPa | 2.7V | 00:00:00 | 00:00:00 | 00:00:00 | |
| OE8JPQ-2 | 2026-09-02 23:49:05 | 47.77885 | 12.36436 | 94° | 33km/h | 19142m | 5.5m/s | -54.1°C | 4.2% | 66.9hPa | 2.7V | 00:00:00 | 00:00:00 | 00:00:00 | |
| BAUMI2-15 | 2026-09-02 23:49:01 | 47.77890 | 12.36382 | 97° | 33km/h | 19123m | 4.9m/s | -54.1°C | 4.2% | 67.1hPa | 2.7V | 00:00:00 | 01:19:41 | 00:00:00 | |
| OE5MMP-10 | 2026-09-02 23:49:00 | 47.77891 | 12.36370 | 98° | 31km/h | 19119m | 4.2m/s | -54.2°C | 4.2% | 67.1hPa | 2.7V | 00:00:00 | 01:19:40 | 00:00:00 | |
| IN3HCDX | 2026-09-02 23:48:57 | 47.77893 | 12.36345 | 100° | 35km/h | 19109m | 4.0m/s | -54.3°C | 1.3% | 67.3hPa | 2.6V | 00:00:00 | 00:00:00 | 00:00:00 | |
| BAUMI2-15 | 2026-09-02 23:48:56 | 47.77896 | 12.36321 | 99° | 29km/h | 19100m | 5.6m/s | -54.4°C | 4.3% | 67.4hPa | 2.6V | 00:00:00 | 01:19:36 | 00:00:00 | |
| OE5FHM-15 | 2026-09-02 23:48:55 | 47.77897 | 12.36310 | 99° | 27km/h | 19095m | 4.5m/s | -54.5°C | 4.3% | 67.4hPa | 2.7V | 00:00:00 | 01:19:35 | 00:00:00 | |
| BAUMI2-15 | 2026-09-02 23:48:51 | 47.77903 | 12.36267 | 104° | 29km/h | 19077m | 4.4m/s | -54.8°C | 4.5% | 67.6hPa | 2.7V | 00:00:00 | 01:19:31 | 00:00:00 | |
| OE5MMP-10 | 2026-09-02 23:48:50 | 47.77905 | 12.36256 | 101° | 31km/h | 19072m | 5.6m/s | -54.9°C | 4.5% | 67.7hPa | 2.7V | 00:00:00 | 01:19:30 | 00:00:00 | |
| OE5WHR-10 | 2026-09-02 23:48:49 | 47.77906 | 12.36245 | 96° | 27km/h | 19067m | 4.4m/s | -54.9°C | 4.5% | 67.7hPa | 2.7V | 00:00:00 | 01:19:29 | 00:00:00 | |
| OE5DRO-10 | 2026-09-02 23:48:47 | 47.77907 | 12.36223 | 94° | 27km/h | 19058m | 5.3m/s | -54.9°C | 4.5% | 67.8hPa | 2.7V | 00:00:00 | 00:00:00 | 08:30:00 | |
| BAUMI2-15 | 2026-09-02 23:48:46 | 47.77907 | 12.36211 | 93° | 33km/h | 19053m | 3.7m/s | -54.8°C | 4.5% | 67.9hPa | 2.7V | 00:00:00 | 01:19:26 | 00:00:00 | |
| OE8JPQ-2 | 2026-09-02 23:48:45 | 47.77907 | 12.36198 | 89° | 26km/h | 19050m | 2.7m/s | -54.8°C | 4.5% | 67.9hPa | 2.7V | 00:00:00 | 00:00:00 | 00:00:00 | |
| BAUMI2-15 | 2026-09-02 23:48:41 | 47.77900 | 12.36153 | 69° | 29km/h | 19031m | 3.8m/s | -54.7°C | 4.5% | 68.1hPa | 2.7V | 00:00:00 | 01:19:21 | 00:00:00 | |
| OE5MMP-10 | 2026-09-02 23:48:40 | 47.77898 | 12.36143 | 73° | 27km/h | 19027m | 4.3m/s | -54.7°C | 4.5% | 68.1hPa | 2.7V | 00:00:00 | 01:19:20 | 00:00:00 | |
| BAUMI2-15 | 2026-09-02 23:48:36 | 47.77897 | 12.36101 | 105° | 27km/h | 19008m | 5.1m/s | -54.5°C | 4.4% | 68.3hPa | 2.7V | 00:00:00 | 01:19:16 | 00:00:00 | |
| BAUMI2-15 | 2026-09-02 23:48:31 | 47.77910 | 12.36053 | 116° | 18km/h | 18984m | 5.1m/s | -54.3°C | 4.3% | 68.6hPa | 2.7V | 00:00:00 | 01:19:11 | 00:00:00 | |
| OE5MMP-10 | 2026-09-02 23:48:30 | 47.77912 | 12.36046 | 121° | 22km/h | 18978m | 6.0m/s | -54.3°C | 4.2% | 68.7hPa | 2.7V | 00:00:00 | 01:19:10 | 00:00:00 | |
| PG1ADW-2 | 2026-09-02 23:48:29 | 47.77914 | 12.36040 | 119° | 24km/h | 18973m | 4.2m/s | -54.2°C | 4.2% | 68.7hPa | 2.7V | 00:00:00 | 00:00:00 | 00:00:00 | |
| OE5WHR-10 | 2026-09-02 23:48:28 | 47.77916 | 12.36034 | 106° | 24km/h | 18968m | 5.1m/s | -54.2°C | 4.2% | 68.8hPa | 2.6V | 00:00:00 | 00:00:00 | 08:30:00 | |
| BAUMI2-15 | 2026-09-02 23:48:26 | 47.77917 | 12.36021 | 83° | 24km/h | 18956m | 4.9m/s | -54.4°C | 4.3% | 68.9hPa | 2.6V | 00:00:00 | 01:19:06 | 08:30:00 | |
| OE5FHM-15 | 2026-09-02 23:48:25 | 47.77916 | 12.36012 | 83° | 27km/h | 18952m | 4.4m/s | -54.4°C | 4.3% | 68.9hPa | 2.6V | 00:00:00 | 01:19:05 | 00:00:00 | |
| BAUMI2-15 | 2026-09-02 23:48:21 | 47.77919 | 12.35977 | 110° | 26km/h | 18933m | 4.4m/s | -54.4°C | 4.3% | 69.1hPa | 2.7V | 00:00:00 | 01:19:01 | 00:00:00 | |
| OE5MMP-10 | 2026-09-02 23:48:20 | 47.77921 | 12.35969 | 110° | 26km/h | 18928m | 5.5m/s | -54.4°C | 4.3% | 69.2hPa | 2.7V | 00:00:00 | 01:19:00 | 00:00:00 | |
| BAUMI2-15 | 2026-09-02 23:48:16 | 47.77932 | 12.35932 | 125° | 26km/h | 18908m | 5.6m/s | -54.3°C | 4.3% | 69.4hPa | 2.7V | 00:00:00 | 01:18:56 | 00:00:00 | |
| IN3HCDX | 2026-09-02 23:48:15 | 47.77932 | 12.35932 | 125° | 27km/h | 18908m | 5.7m/s | -54.4°C | 1.3% | 69.4hPa | 2.7V | 00:00:00 | 00:00:00 | 00:00:00 | |
| BAUMI2-15 | 2026-09-02 23:48:11 | 47.77951 | 12.35894 | 110° | 27km/h | 18884m | 4.5m/s | -54.5°C | 4.3% | 69.7hPa | 2.7V | 00:00:00 | 01:18:51 | 00:00:00 | |
| OE5MMP-10 | 2026-09-02 23:48:10 | 47.77953 | 12.35886 | 107° | 31km/h | 18880m | 3.3m/s | -54.5°C | 4.3% | 69.7hPa | 2.7V | 00:00:00 | 01:18:50 | 00:00:00 | |
| PG1ADW-2 | 2026-09-02 23:48:09 | 47.77955 | 12.35877 | 110° | 33km/h | 18875m | 5.2m/s | -54.5°C | 4.3% | 69.7hPa | 2.7V | 00:00:00 | 01:18:49 | 00:00:00 | |
| OE5WHR-10 | 2026-09-02 23:48:07 | 47.77961 | 12.35857 | 122° | 33km/h | 18864m | 5.8m/s | -54.5°C | 4.3% | 69.9hPa | 2.7V | 00:00:00 | 00:00:00 | 00:00:00 | |
| BAUMI2-15 | 2026-09-02 23:48:06 | 47.77966 | 12.35846 | 125° | 33km/h | 18859m | 4.3m/s | -54.4°C | 4.3% | 69.9hPa | 2.7V | 00:00:00 | 01:18:46 | 00:00:00 | |
| OE8JPQ-2 | 2026-09-02 23:48:05 | 47.77971 | 12.35835 | 126° | 33km/h | 18854m | 5.2m/s | -54.4°C | 4.3% | 70.0hPa | 2.7V | 00:00:00 | 00:00:00 | 00:00:00 | |
| BAUMI2-15 | 2026-09-02 23:48:01 | 47.77991 | 12.35797 | 135° | 27km/h | 18832m | 5.1m/s | -54.6°C | 4.3% | 70.2hPa | 2.7V | 00:00:00 | 01:18:41 | 00:00:00 | |
| DB0UT-7 | 2026-09-02 23:48:00 | 47.77996 | 12.35789 | 138° | 29km/h | 18827m | 4.1m/s | -54.5°C | 4.3% | 70.3hPa | 2.7V | 00:00:00 | 01:18:40 | 00:00:00 | |
| BAUMI2-15 | 2026-09-02 23:47:56 | 47.78014 | 12.35760 | 129° | 37km/h | 18810m | 5.3m/s | -54.6°C | 4.4% | 70.5hPa | 2.7V | 00:00:00 | 01:18:36 | 00:00:00 | |
| OE5FHM-15 | 2026-09-02 23:47:55 | 47.78019 | 12.35751 | 129° | 35km/h | 18804m | 5.0m/s | -54.6°C | 4.4% | 70.6hPa | 2.6V | 00:00:00 | 01:18:35 | 00:00:00 | |
| IN3HCDX | 2026-09-02 23:47:54 | 47.78019 | 12.35751 | 129° | 35km/h | 18804m | 5.0m/s | -54.7°C | 1.4% | 70.6hPa | 2.6V | 00:00:00 | 00:00:00 | 00:00:00 | |
| BAUMI2-15 | 2026-09-02 23:47:51 | 47.78041 | 12.35703 | 121° | 37km/h | 18785m | 4.4m/s | -54.6°C | 4.4% | 70.8hPa | 2.6V | 00:00:00 | 01:18:31 | 00:00:00 | |
| OE5MMP-10 | 2026-09-02 23:47:50 | 47.78046 | 12.35691 | 122° | 37km/h | 18781m | 4.2m/s | -54.6°C | 4.4% | 70.8hPa | 2.6V | 00:00:00 | 01:18:30 | 00:00:00 | |
| PG1ADW-2 | 2026-09-02 23:47:49 | 47.78051 | 12.35680 | 124° | 37km/h | 18776m | 5.5m/s | -54.6°C | 4.4% | 70.9hPa | 2.6V | 00:00:00 | 00:00:00 | 00:00:00 | |
| OE5WHR-10 | 2026-09-02 23:47:46 | 47.78066 | 12.35645 | 121° | 35km/h | 18761m | 5.5m/s | -54.5°C | 4.4% | 71.0hPa | 2.6V | 00:00:00 | 01:18:26 | 00:00:00 | |
| OE8JPQ-2 | 2026-09-02 23:47:45 | 47.78071 | 12.35634 | 119° | 35km/h | 18756m | 4.2m/s | -54.5°C | 4.4% | 71.1hPa | 2.6V | 00:00:00 | 00:00:00 | 00:00:00 | |
| BAUMI2-15 | 2026-09-02 23:47:41 | 47.78090 | 12.35589 | 124° | 35km/h | 18737m | 4.9m/s | -54.7°C | 4.5% | 71.3hPa | 2.6V | 00:00:00 | 01:18:21 | 08:30:00 | |
| OE5MMP-10 | 2026-09-02 23:47:40 | 47.78094 | 12.35578 | 122° | 37km/h | 18732m | 5.0m/s | -54.7°C | 4.5% | 71.3hPa | 2.6V | 00:00:00 | 01:18:20 | 00:00:00 | |
| BAUMI2-15 | 2026-09-02 23:47:36 | 47.78114 | 12.35533 | 129° | 37km/h | 18713m | 4.5m/s | -54.7°C | 4.4% | 71.6hPa | 2.6V | 00:00:00 | 01:18:16 | 00:00:00 | |
| IN3HCDX | 2026-09-02 23:47:33 | 47.78126 | 12.35511 | 129° | 37km/h | 18703m | 5.1m/s | -54.7°C | 1.4% | 71.7hPa | 2.6V | 00:00:00 | 00:00:00 | 00:00:00 | |
| BAUMI2-15 | 2026-09-02 23:47:31 | 47.78143 | 12.35480 | 132° | 31km/h | 18688m | 5.0m/s | -54.6°C | 4.4% | 71.8hPa | 2.6V | 00:00:00 | 01:18:11 | 00:00:00 | |
| OE5MMP-10 | 2026-09-02 23:47:30 | 47.78148 | 12.35470 | 129° | 33km/h | 18683m | 3.7m/s | -54.6°C | 4.4% | 71.9hPa | 2.6V | 00:00:00 | 01:18:10 | 00:00:00 | |
| PG1ADW-2 | 2026-09-02 23:47:29 | 47.78153 | 12.35461 | 124° | 35km/h | 18679m | 5.4m/s | -54.6°C | 4.3% | 72.0hPa | 2.6V | 00:00:00 | 00:00:00 | 00:00:00 | |
| BAUMI2-15 | 2026-09-02 23:47:26 | 47.78163 | 12.35432 | 117° | 33km/h | 18664m | 5.4m/s | -54.5°C | 4.3% | 72.1hPa | 2.6V | 00:00:00 | 01:18:06 | 00:00:00 | |
| OE5FHM-15 | 2026-09-02 23:47:25 | 47.78167 | 12.35422 | 121° | 37km/h | 18659m | 4.3m/s | -54.5°C | 4.3% | 72.2hPa | 2.6V | 00:00:00 | 01:18:05 | 00:00:00 | |
| BAUMI2-15 | 2026-09-02 23:47:21 | 47.78183 | 12.35376 | 116° | 37km/h | 18640m | 4.5m/s | -54.5°C | 4.3% | 72.4hPa | 2.6V | 00:00:00 | 01:18:01 | 00:00:00 | |
| OE5MMP-10 | 2026-09-02 23:47:20 | 47.78187 | 12.35364 | 119° | 35km/h | 18635m | 5.0m/s | -54.5°C | 4.3% | 72.4hPa | 2.6V | 00:00:00 | 01:18:00 | 00:00:00 | |
| BAUMI2-15 | 2026-09-02 23:47:16 | 47.78207 | 12.35319 | 124° | 35km/h | 18617m | 4.8m/s | -54.6°C | 4.3% | 72.6hPa | 2.6V | 00:00:00 | 01:17:56 | 00:00:00 | |
| OE5DRO-10 | 2026-09-02 23:47:12 | 47.78227 | 12.35277 | 122° | 38km/h | 18599m | 4.1m/s | -54.6°C | 4.3% | 72.9hPa | 2.6V | 00:00:00 | 00:00:00 | 00:00:00 | |
| BAUMI2-15 | 2026-09-02 23:47:11 | 47.78231 | 12.35264 | 116° | 40km/h | 18594m | 5.4m/s | -54.6°C | 4.3% | 72.9hPa | 2.6V | 00:00:00 | 01:17:51 | 00:00:00 | |
| OE5MMP-10 | 2026-09-02 23:47:10 | 47.78235 | 12.35251 | 111° | 40km/h | 18589m | 4.3m/s | -54.6°C | 4.3% | 72.9hPa | 2.7V | 00:00:00 | 01:17:50 | 00:00:00 | |
| PG1ADW-2 | 2026-09-02 23:47:09 | 47.78238 | 12.35237 | 109° | 38km/h | 18585m | 3.7m/s | -54.7°C | 4.4% | 73.0hPa | 2.7V | 00:00:00 | 00:00:00 | 00:00:00 | |
| BAUMI2-15 | 2026-09-02 23:47:06 | 47.78250 | 12.35194 | 115° | 40km/h | 18571m | 4.1m/s | -54.7°C | 4.3% | 73.2hPa | 2.7V | 00:00:00 | 01:17:46 | 00:00:00 | |
| OE8JPQ-2 | 2026-09-02 23:47:05 | 47.78254 | 12.35180 | 114° | 38km/h | 18567m | 4.9m/s | -54.8°C | 4.3% | 73.2hPa | 2.7V | 00:00:00 | 00:00:00 | 08:30:00 | |
| OE5WHR-10 | 2026-09-02 23:47:04 | 47.78258 | 12.35167 | 112° | 38km/h | 18562m | 5.0m/s | -54.8°C | 4.4% | 73.3hPa | 2.6V | 00:00:00 | 00:00:00 | 00:00:00 | |
| OE5MMP-10 | 2026-09-02 23:47:00 | 47.78271 | 12.35114 | 112° | 37km/h | 18543m | 3.7m/s | -55.1°C | 4.4% | 73.5hPa | 2.6V | 00:00:00 | 01:17:40 | 00:00:00 | |
| OE5FHM-15 | 2026-09-02 23:46:55 | 47.78283 | 12.35051 | 105° | 38km/h | 18518m | 4.4m/s | -55.3°C | 4.6% | 73.8hPa | 2.6V | 00:00:00 | 01:17:35 | 08:30:00 | |
| DO3MHA-11 | 2026-09-02 23:46:53 | 47.78287 | 12.35023 | 101° | 40km/h | 18510m | 5.1m/s | -55.3°C | 4.6% | 73.9hPa | 2.6V | 00:00:00 | 01:17:33 | 00:00:00 | |
| IN3HCDX | 2026-09-02 23:46:51 | 47.78289 | 12.35008 | 100° | 38km/h | 18504m | 5.1m/s | -55.3°C | 1.5% | 74.0hPa | 2.6V | 00:00:00 | 00:00:00 | 00:00:00 | |
| OE5MMP-10 | 2026-09-02 23:46:50 | 47.78293 | 12.34979 | 104° | 42km/h | 18494m | 5.8m/s | -55.2°C | 4.7% | 74.1hPa | 2.6V | 00:00:00 | 01:17:30 | 00:00:00 | |
| PG1ADW-2 | 2026-09-02 23:46:49 | 47.78295 | 12.34965 | 108° | 40km/h | 18489m | 4.5m/s | -55.1°C | 4.6% | 74.1hPa | 2.6V | 00:00:00 | 01:17:29 | 00:00:00 | |
| OE8JPQ-2 | 2026-09-02 23:46:45 | 47.78306 | 12.34907 | 103° | 38km/h | 18470m | 4.1m/s | -55.1°C | 4.6% | 74.4hPa | 2.6V | 00:00:00 | 00:00:00 | 00:00:00 | |
| OE5WHR-10 | 2026-09-02 23:46:43 | 47.78311 | 12.34876 | 105° | 38km/h | 18460m | 4.5m/s | -55.0°C | 4.5% | 74.4hPa | 2.6V | 00:00:00 | 01:17:23 | 00:00:00 | |
| OE5MMP-10 | 2026-09-02 23:46:40 | 47.78318 | 12.34826 | 97° | 40km/h | 18445m | 4.6m/s | -54.9°C | 4.5% | 74.6hPa | 2.6V | 00:00:00 | 01:17:20 | 00:00:00 | |
| OE5DRO-10 | 2026-09-02 23:46:34 | 47.78328 | 12.34731 | 102° | 35km/h | 18416m | 4.4m/s | -54.7°C | 4.5% | 75.0hPa | 2.6V | 00:00:00 | 00:00:00 | 00:00:00 | |
| DO3MHA-11 | 2026-09-02 23:46:33 | 47.78330 | 12.34719 | 106° | 33km/h | 18411m | 5.8m/s | -54.7°C | 4.4% | 75.0hPa | 2.6V | 00:00:00 | 01:17:13 | 00:00:00 | |
| IN3HCDX | 2026-09-02 23:46:31 | 47.78333 | 12.34706 | 110° | 33km/h | 18406m | 4.8m/s | -54.7°C | 1.4% | 75.2hPa | 2.6V | 00:00:00 | 00:00:00 | 00:00:00 | |
| OE5MMP-10 | 2026-09-02 23:46:30 | 47.78338 | 12.34683 | 106° | 35km/h | 18397m | 5.5m/s | -54.6°C | 4.4% | 75.2hPa | 2.6V | 00:00:00 | 01:17:10 | 08:30:00 | |
| PG1ADW-2 | 2026-09-02 23:46:29 | 47.78340 | 12.34672 | 103° | 37km/h | 18392m | 4.1m/s | -54.5°C | 4.4% | 75.3hPa | 2.7V | 00:00:00 | 00:00:00 | 08:30:00 | |
| DG1MFX-10 | 2026-09-02 23:46:28 | 47.78340 | 12.34672 | 103° | 31km/h | 18392m | 4.2m/s | -54.6°C | 1.4% | 75.3hPa | 2.6V | 00:00:00 | 00:00:00 | 00:00:00 | |
| OE5FHM-15 | 2026-09-02 23:46:25 | 47.78348 | 12.34623 | 108° | 37km/h | 18374m | 4.2m/s | -54.4°C | 4.4% | 75.5hPa | 2.6V | 00:00:00 | 01:17:05 | 00:00:00 | |
| DO3MHA-11 | 2026-09-02 23:46:23 | 47.78353 | 12.34598 | 101° | 38km/h | 18364m | 4.3m/s | -54.4°C | 4.4% | 75.6hPa | 2.6V | 00:00:00 | 01:17:03 | 00:00:00 | |
| OE5WHR-10 | 2026-09-02 23:46:22 | 47.78354 | 12.34586 | 100° | 37km/h | 18360m | 3.7m/s | -54.5°C | 4.4% | 75.6hPa | 2.6V | 00:00:00 | 00:00:00 | 00:00:00 | |
| OE5MMP-10 | 2026-09-02 23:46:20 | 47.78358 | 12.34559 | 106° | 38km/h | 18350m | 4.9m/s | -54.5°C | 4.4% | 75.7hPa | 2.7V | 00:00:00 | 01:17:00 | 00:00:00 | |
| OE5DXL-15 | 2026-09-02 23:46:19 | 47.78360 | 12.34546 | 108° | 37km/h | 18346m | 4.1m/s | -54.4°C | 4.4% | 75.8hPa | 2.7V | 00:00:00 | 00:00:00 | 00:00:00 | |
| OE5DRO-10 | 2026-09-02 23:46:15 | 47.78369 | 12.34487 | 99° | 35km/h | 18328m | 3.4m/s | -54.4°C | 4.3% | 76.0hPa | 2.7V | 00:00:00 | 00:00:00 | 00:00:00 | |
| OE5MMP-10 | 2026-09-02 23:46:10 | 47.78382 | 12.34417 | 111° | 33km/h | 18305m | 5.4m/s | -54.4°C | 4.2% | 76.3hPa | 2.7V | 00:00:00 | 01:16:50 | 00:00:00 | |
| PG1ADW-2 | 2026-09-02 23:46:09 | 47.78385 | 12.34405 | 110° | 35km/h | 18300m | 4.5m/s | -54.4°C | 4.2% | 76.3hPa | 2.7V | 00:00:00 | 00:00:00 | 00:00:00 | |
| DG1MFX-10 | 2026-09-02 23:46:08 | 47.78385 | 12.34405 | 110° | 33km/h | 18300m | 4.6m/s | -54.5°C | 1.4% | 76.4hPa | 2.7V | 00:00:00 | 00:00:00 | 00:00:00 | |
| OE8JPQ-2 | 2026-09-02 23:46:05 | 47.78399 | 12.34359 | 116° | 33km/h | 18280m | 6.1m/s | -54.4°C | 4.2% | 76.6hPa | 2.7V | 00:00:00 | 00:00:00 | 00:00:00 | |
| OE5WHR-10 | 2026-09-02 23:46:01 | 47.78413 | 12.34315 | 117° | 35km/h | 18259m | 4.3m/s | -54.7°C | 4.3% | 76.8hPa | 2.7V | 00:00:00 | 00:00:00 | 00:00:00 | |
| OE5MMP-10 | 2026-09-02 23:46:00 | 47.78417 | 12.34303 | 115° | 35km/h | 18255m | 4.4m/s | -54.9°C | 4.4% | 76.9hPa | 2.7V | 00:00:00 | 01:16:40 | 00:00:00 | |
| OE5DRO-10 | 2026-09-02 23:45:56 | 47.78431 | 12.34258 | 122° | 35km/h | 18234m | 5.2m/s | -55.1°C | 4.6% | 77.1hPa | 2.7V | 00:00:00 | 00:00:00 | 08:30:00 | |
| OE5FHM-15 | 2026-09-02 23:45:55 | 47.78436 | 12.34247 | 127° | 37km/h | 18230m | 4.1m/s | -55.1°C | 4.5% | 77.2hPa | 2.6V | 00:00:00 | 01:16:35 | 00:00:00 | |
| OE5MMP-10 | 2026-09-02 23:45:50 | 47.78467 | 12.34200 | 142° | 35km/h | 18205m | 3.9m/s | -55.2°C | 4.5% | 77.5hPa | 2.6V | 00:00:00 | 01:16:30 | 00:00:00 | |
| PG1ADW-2 | 2026-09-02 23:45:49 | 47.78474 | 12.34192 | 140° | 37km/h | 18201m | 4.6m/s | -55.2°C | 4.5% | 77.5hPa | 2.6V | 00:00:00 | 00:00:00 | 00:00:00 | |
| DG1MFX-10 | 2026-09-02 23:45:48 | 47.78480 | 12.34184 | 136° | 31km/h | 18196m | 5.3m/s | -55.3°C | 1.5% | 77.6hPa | 2.6V | 00:00:00 | 00:00:00 | 00:00:00 | |
| OE8JPQ-2 | 2026-09-02 23:45:45 | 47.78492 | 12.34156 | 118° | 37km/h | 18182m | 5.9m/s | -55.3°C | 4.5% | 77.8hPa | 2.6V | 00:00:00 | 00:00:00 | 00:00:00 | |
| OE5WHR-10 | 2026-09-02 23:45:40 | 47.78509 | 12.34091 | 107° | 37km/h | 18155m | 4.5m/s | -55.2°C | 4.4% | 78.1hPa | 2.6V | 00:00:00 | 01:16:20 | 00:00:00 | |
| OE5DRO-10 | 2026-09-02 23:45:37 | 47.78520 | 12.34047 | 114° | 37km/h | 18140m | 4.6m/s | -55.2°C | 4.5% | 78.3hPa | 2.6V | 00:00:00 | 00:00:00 | 00:00:00 | |
| OE5MMP-10 | 2026-09-02 23:45:30 | 47.78547 | 12.33960 | 110° | 37km/h | 18106m | 4.5m/s | -55.2°C | 4.7% | 78.7hPa | 2.6V | 00:00:00 | 01:16:10 | 00:00:00 | |
| IN3HCDX | 2026-09-02 23:45:29 | 47.78550 | 12.33947 | 104° | 33km/h | 18101m | 5.4m/s | 0°C | 0% | 0hPa | 2.6V | 00:00:00 | 00:00:00 | 00:00:00 | |
| DG1MFX-10 | 2026-09-02 23:45:26 | 47.78553 | 12.33923 | 102° | 35km/h | 18092m | 5.0m/s | -55.2°C | 1.5% | 78.9hPa | 2.6V | 00:00:00 | 00:00:00 | 00:00:00 | |
| OE5FHM-15 | 2026-09-02 23:45:25 | 47.78558 | 12.33896 | 109° | 40km/h | 18082m | 4.1m/s | -55.1°C | 4.6% | 79.0hPa | 2.6V | 00:00:00 | 01:16:05 | 00:00:00 | |
| OE5DXL-15 | 2026-09-02 23:45:21 | 47.78574 | 12.33829 | 113° | 38km/h | 18059m | 5.5m/s | -55.0°C | 4.5% | 79.3hPa | 2.6V | 00:00:00 | 00:00:00 | 00:00:00 | |
| OE5MMP-10 | 2026-09-02 23:45:20 | 47.78574 | 12.33829 | 113° | 37km/h | 18059m | 5.5m/s | -55.0°C | 4.5% | 79.3hPa | 2.6V | 00:00:00 | 01:16:00 | 00:00:00 | |
| OE5WHR-10 | 2026-09-02 23:45:19 | 47.78578 | 12.33816 | 117° | 38km/h | 18054m | 5.0m/s | -55.0°C | 4.4% | 79.4hPa | 2.6V | 00:00:00 | 00:00:00 | 08:30:00 | |
| OE5DRO-10 | 2026-09-02 23:45:18 | 47.78582 | 12.33803 | 117° | 38km/h | 18049m | 4.2m/s | -55.0°C | 4.5% | 79.4hPa | 2.7V | 00:00:00 | 00:00:00 | 00:00:00 | |
| OE5MMP-10 | 2026-09-02 23:45:10 | 47.78604 | 12.33698 | 102° | 38km/h | 18010m | 4.2m/s | -54.8°C | 4.5% | 79.9hPa | 2.7V | 00:00:00 | 01:15:50 | 00:00:00 | |
| PG1ADW-2 | 2026-09-02 23:45:09 | 47.78606 | 12.33685 | 105° | 38km/h | 18005m | 4.1m/s | -54.9°C | 4.6% | 79.9hPa | 2.7V | 00:00:00 | 00:00:00 | 00:00:00 | |
| IN3HCDX | 2026-09-02 23:45:07 | 47.78609 | 12.33672 | 110° | 37km/h | 18001m | 5.6m/s | 0°C | 0% | 0hPa | 2.7V | 00:00:00 | 00:00:00 | 00:00:00 | |
| DG1MFX-10 | 2026-09-02 23:45:06 | 47.78612 | 12.33658 | 114° | 38km/h | 17996m | 4.3m/s | -54.9°C | 1.5% | 80.1hPa | 2.7V | 00:00:00 | 00:00:00 | 00:00:00 | |
| OE8JPQ-2 | 2026-09-02 23:45:05 | 47.78620 | 12.33632 | 116° | 40km/h | 17987m | 5.3m/s | -54.8°C | 4.5% | 80.2hPa | 2.7V | 00:00:00 | 00:00:00 | 00:00:00 | |
| OE5MMP-10 | 2026-09-02 23:45:00 | 47.78636 | 12.33564 | 103° | 40km/h | 17965m | 4.4m/s | -54.7°C | 4.5% | 80.5hPa | 2.7V | 00:00:00 | 01:15:40 | 08:30:00 | |
| OE5DRO-10 | 2026-09-02 23:44:59 | 47.78638 | 12.33549 | 100° | 40km/h | 17959m | 5.5m/s | -54.7°C | 4.4% | 80.5hPa | 2.7V | 00:00:00 | 00:00:00 | 00:00:00 | |
| OE5WHR-10 | 2026-09-02 23:44:58 | 47.78639 | 12.33534 | 96° | 40km/h | 17955m | 4.2m/s | -54.7°C | 4.4% | 80.6hPa | 2.6V | 00:00:00 | 00:00:00 | 00:00:00 | |
| BAUMI2-15 | 2026-09-02 23:44:53 | 47.78646 | 12.33459 | 107° | 38km/h | 17933m | 4.8m/s | -54.5°C | 4.4% | 80.9hPa | 2.6V | 00:00:00 | 01:15:33 | 08:30:00 | |
| OE5MMP-10 | 2026-09-02 23:44:50 | 47.78658 | 12.33419 | 118° | 40km/h | 17920m | 4.7m/s | -54.4°C | 4.4% | 81.0hPa | 2.6V | 00:00:00 | 01:15:30 | 00:00:00 | |
| PG1ADW-2 | 2026-09-02 23:44:49 | 47.78662 | 12.33406 | 117° | 40km/h | 17915m | 4.7m/s | -54.4°C | 4.4% | 81.1hPa | 2.6V | 00:00:00 | 00:00:00 | 00:00:00 | |
| DO3MHA-11 | 2026-09-02 23:44:48 | 47.78667 | 12.33391 | 115° | 40km/h | 17911m | 3.9m/s | -54.3°C | 4.4% | 81.2hPa | 2.6V | 00:00:00 | 01:15:28 | 00:00:00 | |
| IN3HCDX | 2026-09-02 23:44:46 | 47.78671 | 12.33376 | 114° | 42km/h | 17906m | 5.0m/s | 0°C | 0% | 0hPa | 2.6V | 00:00:00 | 00:00:00 | 00:00:00 | |
| OE8JPQ-2 | 2026-09-02 23:44:45 | 47.78679 | 12.33347 | 110° | 38km/h | 17897m | 4.2m/s | -54.3°C | 4.4% | 81.3hPa | 2.6V | 00:00:00 | 00:00:00 | 00:00:00 | |
| BAUMI2-15 | 2026-09-02 23:44:43 | 47.78686 | 12.33318 | 110° | 37km/h | 17888m | 4.2m/s | -54.2°C | 4.4% | 81.5hPa | 2.6V | 00:00:00 | 01:15:23 | 00:00:00 | |
| OE5MMP-10 | 2026-09-02 23:44:40 | 47.78695 | 12.33278 | 110° | 38km/h | 17874m | 4.6m/s | -54.3°C | 4.4% | 81.6hPa | 2.6V | 00:00:00 | 01:15:20 | 00:00:00 | |
| DO3MHA-11 | 2026-09-02 23:44:38 | 47.78702 | 12.33255 | 114° | 44km/h | 17865m | 5.0m/s | -54.3°C | 4.4% | 81.7hPa | 2.6V | 00:00:00 | 01:15:18 | 00:00:00 | |
| OE5WHR-10 | 2026-09-02 23:44:37 | 47.78705 | 12.33242 | 114° | 38km/h | 17861m | 3.4m/s | -54.3°C | 4.4% | 81.8hPa | 2.6V | 00:00:00 | 01:15:17 | 00:00:00 | |
| OE5MMP-10 | 2026-09-02 23:44:30 | 47.78726 | 12.33143 | 108° | 38km/h | 17830m | 4.1m/s | -54.1°C | 4.3% | 82.2hPa | 2.6V | 00:00:00 | 01:15:10 | 00:00:00 | |
| PG1ADW-2 | 2026-09-02 23:44:29 | 47.78729 | 12.33128 | 107° | 38km/h | 17825m | 5.1m/s | -54.1°C | 4.2% | 82.2hPa | 2.6V | 00:00:00 | 00:00:00 | 00:00:00 | |
| BAUMI2-15 | 2026-09-02 23:44:28 | 47.78732 | 12.33113 | 108° | 38km/h | 17820m | 4.0m/s | -54.1°C | 4.3% | 82.3hPa | 2.6V | 00:00:00 | 01:15:08 | 00:00:00 | |
| OE8JPQ-2 | 2026-09-02 23:44:25 | 47.78743 | 12.33074 | 119° | 40km/h | 17807m | 3.9m/s | -54.0°C | 4.3% | 82.5hPa | 2.6V | 00:00:00 | 01:15:05 | 00:00:00 | |
| BAUMI2-15 | 2026-09-02 23:44:23 | 47.78752 | 12.33050 | 118° | 38km/h | 17798m | 4.5m/s | -54.0°C | 4.3% | 82.6hPa | 2.6V | 00:00:00 | 01:15:03 | 00:00:00 | |
| OE5DRO-10 | 2026-09-02 23:44:21 | 47.78761 | 12.33026 | 120° | 42km/h | 17789m | 5.1m/s | -54.0°C | 4.2% | 82.7hPa | 2.7V | 00:00:00 | 00:00:00 | 00:00:00 | |
| OE5MMP-10 | 2026-09-02 23:44:20 | 47.78766 | 12.33013 | 121° | 40km/h | 17784m | 4.0m/s | -54.1°C | 4.2% | 82.8hPa | 2.7V | 00:00:00 | 01:15:00 | 00:00:00 | |
| BAUMI2-15 | 2026-09-02 23:44:18 | 47.78776 | 12.32987 | 118° | 38km/h | 17776m | 4.7m/s | -54.1°C | 4.2% | 82.9hPa | 2.7V | 00:00:00 | 01:14:58 | 00:00:00 | |
| OE5WHR-10 | 2026-09-02 23:44:16 | 47.78785 | 12.32961 | 119° | 44km/h | 17768m | 3.5m/s | -54.2°C | 4.3% | 83.0hPa | 2.7V | 00:00:00 | 00:00:00 | 00:00:00 | |
| BAUMI2-15 | 2026-09-02 23:44:13 | 47.78801 | 12.32923 | 124° | 42km/h | 17755m | 4.5m/s | -54.2°C | 4.2% | 83.1hPa | 2.6V | 00:00:00 | 01:14:53 | 00:00:00 | |
| OE5MMP-10 | 2026-09-02 23:44:10 | 47.78817 | 12.32885 | 123° | 44km/h | 17741m | 4.8m/s | -54.3°C | 4.3% | 83.3hPa | 2.6V | 00:00:00 | 01:14:50 | 00:00:00 | |
| BAUMI2-15 | 2026-09-02 23:44:08 | 47.78828 | 12.32857 | 120° | 44km/h | 17733m | 4.5m/s | -54.3°C | 4.2% | 83.4hPa | 2.6V | 00:00:00 | 01:14:48 | 08:30:00 | |
| DG1MFX-10 | 2026-09-02 23:44:05 | 47.78838 | 12.32827 | 116° | 44km/h | 17724m | 3.6m/s | -54.3°C | 1.5% | 83.6hPa | 2.6V | 00:00:00 | 00:00:00 | 00:00:00 | |
| OE8JPQ-2 | 2026-09-02 23:44:04 | 47.78849 | 12.32797 | 119° | 46km/h | 17716m | 4.3m/s | -54.3°C | 4.2% | 83.6hPa | 2.6V | 00:00:00 | 00:00:00 | 08:30:00 | |
| BAUMI2-15 | 2026-09-02 23:44:03 | 47.78854 | 12.32782 | 119° | 44km/h | 17712m | 3.1m/s | -54.4°C | 4.2% | 83.7hPa | 2.6V | 00:00:00 | 01:14:43 | 00:00:00 | |
| OE5DRO-10 | 2026-09-02 23:44:02 | 47.78859 | 12.32767 | 117° | 46km/h | 17708m | 4.9m/s | -54.4°C | 4.2% | 83.7hPa | 2.6V | 00:00:00 | 00:00:00 | 00:00:00 | |
| OE5MMP-10 | 2026-09-02 23:44:00 | 47.78869 | 12.32738 | 115° | 44km/h | 17699m | 4.1m/s | -54.6°C | 4.2% | 83.8hPa | 2.7V | 00:00:00 | 01:14:40 | 00:00:00 | |
| BAUMI2-15 | 2026-09-02 23:43:58 | 47.78878 | 12.32707 | 113° | 46km/h | 17691m | 3.4m/s | -54.8°C | 4.3% | 84.0hPa | 2.6V | 00:00:00 | 01:14:38 | 00:00:00 | |
| OE5FHM-15 | 2026-09-02 23:43:55 | 47.78888 | 12.32658 | 103° | 46km/h | 17679m | 3.6m/s | -54.8°C | 4.2% | 84.1hPa | 2.6V | 00:00:00 | 01:14:35 | 00:00:00 | |
| BAUMI2-15 | 2026-09-02 23:43:53 | 47.78893 | 12.32626 | 107° | 44km/h | 17670m | 4.6m/s | -54.9°C | 4.3% | 84.2hPa | 2.7V | 00:00:00 | 01:14:33 | 00:00:00 | |
| OE5DXL-15 | 2026-09-02 23:43:50 | 47.78904 | 12.32580 | 109° | 46km/h | 17658m | 4.2m/s | -55.1°C | 4.2% | 84.4hPa | 2.7V | 00:00:00 | 00:00:00 | 00:00:00 | |
| PG1ADW-2 | 2026-09-02 23:43:49 | 47.78907 | 12.32564 | 109° | 47km/h | 17654m | 3.3m/s | -55.2°C | 4.3% | 84.5hPa | 2.7V | 00:00:00 | 00:00:00 | 00:00:00 | |
| BAUMI2-15 | 2026-09-02 23:43:48 | 47.78911 | 12.32548 | 110° | 49km/h | 17650m | 4.0m/s | -55.4°C | 4.3% | 84.5hPa | 2.7V | 00:00:00 | 01:14:28 | 00:00:00 | |
| OE8JPQ-2 | 2026-09-02 23:43:44 | 47.78928 | 12.32477 | 104° | 46km/h | 17634m | 4.5m/s | -55.8°C | 4.6% | 84.7hPa | 2.7V | 00:00:00 | 00:00:00 | 00:00:00 | |
| OE5DRO-10 | 2026-09-02 23:43:43 | 47.78931 | 12.32458 | 102° | 46km/h | 17630m | 3.6m/s | -55.9°C | 4.6% | 84.8hPa | 2.7V | 00:00:00 | 00:00:00 | 00:00:00 | |
| OE5MMP-10 | 2026-09-02 23:43:40 | 47.78939 | 12.32403 | 104° | 44km/h | 17618m | 3.3m/s | -56.1°C | 4.8% | 84.9hPa | 2.7V | 00:00:00 | 01:14:20 | 00:00:00 | |
| BAUMI2-15 | 2026-09-02 23:43:38 | 47.78944 | 12.32371 | 102° | 42km/h | 17609m | 4.1m/s | -56.4°C | 4.9% | 85.0hPa | 2.7V | 00:00:00 | 01:14:18 | 00:00:00 | |
| OE5REO-15 | 2026-09-02 23:43:35 | 47.78949 | 12.32341 | 109° | 42km/h | 17601m | 4.8m/s | 0°C | 0% | 0hPa | 2.6V | 00:00:00 | 00:00:00 | 00:00:00 | |
| OE5WHR-10 | 2026-09-02 23:43:34 | 47.78956 | 12.32310 | 111° | 42km/h | 17593m | 4.2m/s | -56.4°C | 4.8% | 85.3hPa | 2.6V | 00:00:00 | 01:14:14 | 00:00:00 | |
| BAUMI2-15 | 2026-09-02 23:43:33 | 47.78960 | 12.32294 | 109° | 49km/h | 17588m | 4.9m/s | -56.5°C | 4.9% | 85.4hPa | 2.6V | 00:00:00 | 01:14:13 | 00:00:00 | |
| OE5MMP-10 | 2026-09-02 23:43:30 | 47.78971 | 12.32242 | 108° | 44km/h | 17575m | 4.5m/s | -56.5°C | 4.8% | 85.5hPa | 2.6V | 00:00:00 | 01:14:10 | 08:30:00 | |
| PG1ADW-2 | 2026-09-02 23:43:29 | 47.78975 | 12.32224 | 108° | 40km/h | 17571m | 3.2m/s | -56.4°C | 4.8% | 85.6hPa | 2.7V | 00:00:00 | 00:00:00 | 08:30:00 | |
| BAUMI2-15 | 2026-09-02 23:43:28 | 47.78978 | 12.32206 | 105° | 44km/h | 17567m | 4.2m/s | -56.4°C | 4.8% | 85.6hPa | 2.7V | 00:00:00 | 01:14:08 | 00:00:00 | |
| OE5FHM-15 | 2026-09-02 23:43:25 | 47.78984 | 12.32158 | 96° | 35km/h | 17554m | 4.2m/s | -56.3°C | 4.8% | 85.8hPa | 2.7V | 00:00:00 | 01:14:05 | 00:00:00 | |
| OE8JPQ-2 | 2026-09-02 23:43:24 | 47.78984 | 12.32143 | 97° | 37km/h | 17549m | 5.8m/s | -56.3°C | 4.8% | 85.9hPa | 2.7V | 00:00:00 | 01:14:04 | 00:00:00 | |
| BAUMI2-15 | 2026-09-02 23:43:23 | 47.78986 | 12.32128 | 98° | 40km/h | 17544m | 4.7m/s | -56.2°C | 4.8% | 85.9hPa | 2.7V | 00:00:00 | 01:14:03 | 08:30:00 | |
| OE5MMP-10 | 2026-09-02 23:43:20 | 47.78989 | 12.32084 | 95° | 37km/h | 17529m | 3.6m/s | -56.1°C | 4.9% | 86.1hPa | 2.7V | 00:00:00 | 01:14:00 | 00:00:00 | |
| BAUMI2-15 | 2026-09-02 23:43:18 | 47.78991 | 12.32055 | 100° | 37km/h | 17521m | 4.2m/s | -56.1°C | 4.9% | 86.3hPa | 2.7V | 00:00:00 | 01:13:58 | 00:00:00 | |
| OE5WHR-10 | 2026-09-02 23:43:13 | 47.78996 | 12.31988 | 96° | 31km/h | 17499m | 4.0m/s | -56.1°C | 4.8% | 86.5hPa | 2.7V | 00:00:00 | 00:00:00 | 00:00:00 | |
| OE5MMP-10 | 2026-09-02 23:43:10 | 47.78998 | 12.31947 | 91° | 31km/h | 17486m | 4.7m/s | -56.1°C | 4.8% | 86.7hPa | 2.7V | 00:00:00 | 01:13:50 | 00:00:00 | |
| PG1ADW-2 | 2026-09-02 23:43:09 | 47.78998 | 12.31934 | 92° | 31km/h | 17481m | 5.0m/s | -56.1°C | 4.8% | 86.8hPa | 2.7V | 00:00:00 | 00:00:00 | 00:00:00 | |
| BAUMI2-15 | 2026-09-02 23:43:08 | 47.78999 | 12.31921 | 94° | 33km/h | 17477m | 4.2m/s | -56.1°C | 4.8% | 86.9hPa | 2.7V | 00:00:00 | 01:13:48 | 00:00:00 | |
| OE5DRO-10 | 2026-09-02 23:43:05 | 47.79000 | 12.31884 | 95° | 29km/h | 17464m | 4.7m/s | -56.0°C | 4.8% | 87.1hPa | 2.6V | 00:00:00 | 00:00:00 | 08:30:00 | |
| OE8JPQ-2 | 2026-09-02 23:43:04 | 47.79001 | 12.31873 | 99° | 29km/h | 17459m | 5.4m/s | -56.0°C | 4.7% | 87.1hPa | 2.7V | 00:00:00 | 00:00:00 | 00:00:00 | |
| DG1MFX-10 | 2026-09-02 23:43:03 | 47.79001 | 12.31873 | 100° | 29km/h | 17459m | 5.5m/s | -56.0°C | 1.6% | 87.2hPa | 2.6V | 00:00:00 | 00:00:00 | 00:00:00 | |
| OE5MMP-10 | 2026-09-02 23:43:00 | 47.79007 | 12.31830 | 97° | 29km/h | 17441m | 5.1m/s | -56.0°C | 4.8% | 87.3hPa | 2.6V | 00:00:00 | 01:13:40 | 00:00:00 | |
| DB0UT-7 | 2026-09-02 23:42:57 | 47.79008 | 12.31795 | 94° | 33km/h | 17429m | 4.3m/s | -55.9°C | 4.7% | 87.5hPa | 2.6V | 00:00:00 | 00:00:00 | 00:00:00 | |
| OE5FHM-15 | 2026-09-02 23:42:55 | 47.79010 | 12.31773 | 101° | 29km/h | 17420m | 4.3m/s | -55.8°C | 4.7% | 87.6hPa | 2.6V | 00:00:00 | 01:13:35 | 00:00:00 | |
| OE5WHR-10 | 2026-09-02 23:42:52 | 47.79015 | 12.31740 | 106° | 29km/h | 17407m | 3.7m/s | -55.8°C | 4.7% | 87.8hPa | 2.6V | 00:00:00 | 00:00:00 | 00:00:00 | |
| OE5DXL-15 | 2026-09-02 23:42:50 | 47.79019 | 12.31721 | 112° | 31km/h | 17397m | 4.0m/s | -55.7°C | 4.7% | 88.0hPa | 2.6V | 00:00:00 | 00:00:00 | 00:00:00 | |
| PG1ADW-2 | 2026-09-02 23:42:49 | 47.79021 | 12.31712 | 109° | 29km/h | 17393m | 4.0m/s | -55.7°C | 4.8% | 88.0hPa | 2.6V | 00:00:00 | 01:13:29 | 00:00:00 | |
| OE5DRO-10 | 2026-09-02 23:42:46 | 47.79025 | 12.31684 | 98° | 31km/h | 17380m | 4.1m/s | -56.0°C | 4.8% | 88.2hPa | 2.6V | 00:00:00 | 00:00:00 | 00:00:00 | |
| OE8JPQ-2 | 2026-09-02 23:42:44 | 47.79027 | 12.31665 | 99° | 31km/h | 17371m | 3.7m/s | -56.0°C | 4.9% | 88.3hPa | 2.6V | 00:00:00 | 00:00:00 | 00:00:00 | |
| DG1MFX-10 | 2026-09-02 23:42:43 | 47.79027 | 12.31665 | 100° | 26km/h | 17371m | 3.7m/s | -56.0°C | 1.7% | 88.4hPa | 2.6V | 00:00:00 | 00:00:00 | 00:00:00 | |
| OE5MMP-10 | 2026-09-02 23:42:30 | 47.79064 | 12.31510 | 108° | 33km/h | 17306m | 3.2m/s | -55.6°C | 4.7% | 89.2hPa | 2.6V | 00:00:00 | 01:13:10 | 00:00:00 | |
| PG1ADW-2 | 2026-09-02 23:42:29 | 47.79066 | 12.31498 | 111° | 37km/h | 17302m | 5.2m/s | -55.6°C | 4.6% | 89.3hPa | 2.7V | 00:00:00 | 00:00:00 | 00:00:00 | |
| OE5DRO-10 | 2026-09-02 23:42:27 | 47.79073 | 12.31475 | 117° | 37km/h | 17292m | 4.5m/s | -55.6°C | 4.7% | 89.4hPa | 2.6V | 00:00:00 | 00:00:00 | 00:00:00 | |
| OE5FHM-15 | 2026-09-02 23:42:25 | 47.79081 | 12.31452 | 116° | 42km/h | 17282m | 4.9m/s | -55.5°C | 4.7% | 89.5hPa | 2.6V | 00:00:00 | 01:13:05 | 08:30:00 | |
| OE8JPQ-2 | 2026-09-02 23:42:24 | 47.79084 | 12.31441 | 117° | 40km/h | 17278m | 3.8m/s | -55.5°C | 4.6% | 89.6hPa | 2.6V | 00:00:00 | 01:13:04 | 00:00:00 | |
| DG1MFX-10 | 2026-09-02 23:42:22 | 47.79088 | 12.31431 | 123° | 31km/h | 17274m | 4.3m/s | -55.5°C | 1.7% | 89.7hPa | 2.6V | 00:00:00 | 00:00:00 | 00:00:00 | |
| OE5MMP-10 | 2026-09-02 23:42:20 | 47.79104 | 12.31401 | 128° | 38km/h | 17259m | 5.1m/s | -55.4°C | 4.7% | 89.9hPa | 2.6V | 00:00:00 | 01:13:00 | 00:00:00 | |
| DB0UT-7 | 2026-09-02 23:42:16 | 47.79125 | 12.31351 | 122° | 51km/h | 17241m | 5.3m/s | -55.4°C | 4.6% | 90.1hPa | 2.6V | 00:00:00 | 01:12:56 | 00:00:00 | |
| OE5MMP-10 | 2026-09-02 23:42:10 | 47.79154 | 12.31275 | 127° | 46km/h | 17213m | 5.3m/s | -55.6°C | 4.5% | 90.5hPa | 2.7V | 00:00:00 | 01:12:50 | 00:00:00 | |
| PG1ADW-2 | 2026-09-02 23:42:09 | 47.79161 | 12.31263 | 130° | 47km/h | 17208m | 4.2m/s | -55.6°C | 4.6% | 90.6hPa | 2.7V | 00:00:00 | 00:00:00 | 00:00:00 | |
| OE5DRO-10 | 2026-09-02 23:42:08 | 47.79168 | 12.31251 | 131° | 47km/h | 17204m | 4.7m/s | -55.7°C | 4.6% | 90.7hPa | 2.7V | 00:00:00 | 00:00:00 | 00:00:00 | |
| OE8JPQ-2 | 2026-09-02 23:42:03 | 47.79204 | 12.31181 | 127° | 47km/h | 17181m | 3.8m/s | -55.8°C | 4.7% | 91.0hPa | 2.7V | 00:00:00 | 00:00:00 | 00:00:00 | |
| DG1MFX-10 | 2026-09-02 23:42:02 | 47.79204 | 12.31181 | 128° | 51km/h | 17181m | 3.9m/s | -55.9°C | 1.7% | 91.0hPa | 2.6V | 00:00:00 | 00:00:00 | 00:00:00 | |
| OE5MMP-10 | 2026-09-02 23:42:00 | 47.79226 | 12.31135 | 122° | 47km/h | 17168m | 4.3m/s | -56.0°C | 4.8% | 91.2hPa | 2.6V | 00:00:00 | 01:12:40 | 08:30:00 | |
| OE5FHM-15 | 2026-09-02 23:41:55 | 47.79256 | 12.31060 | 121° | 44km/h | 17144m | 4.3m/s | -56.1°C | 4.8% | 91.5hPa | 2.6V | 00:00:00 | 01:12:35 | 00:00:00 | |
| OE5MMP-10 | 2026-09-02 23:41:50 | 47.79284 | 12.30983 | 114° | 46km/h | 17120m | 4.0m/s | -56.1°C | 4.9% | 91.9hPa | 2.6V | 00:00:00 | 01:12:30 | 00:00:00 | |
| OE5WHR-10 | 2026-09-02 23:41:49 | 47.79288 | 12.30966 | 112° | 44km/h | 17116m | 4.9m/s | -56.1°C | 4.9% | 91.9hPa | 2.6V | 00:00:00 | 00:00:00 | 00:00:00 | |
| OE8JPQ-2 | 2026-09-02 23:41:43 | 47.79312 | 12.30867 | 114° | 40km/h | 17086m | 5.4m/s | -56.1°C | 4.8% | 92.4hPa | 2.6V | 00:00:00 | 00:00:00 | 00:00:00 | |
| DG1MFX-10 | 2026-09-02 23:41:41 | 47.79317 | 12.30852 | 117° | 42km/h | 17082m | 3.9m/s | -56.1°C | 1.7% | 92.5hPa | 2.6V | 00:00:00 | 00:00:00 | 00:00:00 | |
| OE5MMP-10 | 2026-09-02 23:41:40 | 47.79326 | 12.30824 | 115° | 44km/h | 17072m | 5.1m/s | -56.0°C | 4.8% | 92.5hPa | 2.6V | 00:00:00 | 01:12:20 | 00:00:00 | |
| OE5MMP-10 | 2026-09-02 23:41:30 | 47.79342 | 12.30663 | 97° | 35km/h | 17025m | 4.7m/s | -56.0°C | 4.8% | 93.3hPa | 2.6V | 00:00:00 | 01:12:10 | 00:00:00 | |
| PG1ADW-2 | 2026-09-02 23:41:29 | 47.79343 | 12.30650 | 95° | 37km/h | 17020m | 4.8m/s | -56.0°C | 4.9% | 93.3hPa | 2.7V | 00:00:00 | 01:12:09 | 00:00:00 | |
| OE5WHR-10 | 2026-09-02 23:41:28 | 47.79343 | 12.30637 | 90° | 37km/h | 17015m | 5.2m/s | -56.0°C | 4.8% | 93.4hPa | 2.6V | 00:00:00 | 01:12:08 | 00:00:00 | |
| OE5FHM-15 | 2026-09-02 23:41:25 | 47.79340 | 12.30601 | 80° | 38km/h | 16999m | 4.4m/s | -55.9°C | 4.8% | 93.6hPa | 2.6V | 00:00:00 | 01:12:05 | 00:00:00 | |
| OE8JPQ-2 | 2026-09-02 23:41:23 | 47.79338 | 12.30577 | 91° | 40km/h | 16989m | 4.4m/s | -55.9°C | 4.9% | 93.8hPa | 2.6V | 00:00:00 | 01:12:03 | 00:00:00 | |
| OE5MMP-10 | 2026-09-02 23:41:20 | 47.79340 | 12.30532 | 91° | 37km/h | 16975m | 5.3m/s | -55.7°C | 4.8% | 94.0hPa | 2.6V | 00:00:00 | 01:12:00 | 00:00:00 | |
| OE5DRO-10 | 2026-09-02 23:41:11 | 47.79343 | 12.30408 | 101° | 40km/h | 16927m | 5.6m/s | -55.4°C | 4.7% | 94.7hPa | 2.6V | 00:00:00 | 00:00:00 | 00:00:00 | |
| OE5MMP-10 | 2026-09-02 23:41:10 | 47.79345 | 12.30394 | 105° | 42km/h | 16922m | 4.2m/s | -55.3°C | 4.7% | 94.7hPa | 2.6V | 00:00:00 | 01:11:50 | 00:00:00 | |
| PG1ADW-2 | 2026-09-02 23:41:09 | 47.79348 | 12.30380 | 107° | 40km/h | 16918m | 5.5m/s | -55.3°C | 4.7% | 94.8hPa | 2.6V | 00:00:00 | 00:00:00 | 00:00:00 | |
| OE5WHR-10 | 2026-09-02 23:41:07 | 47.79353 | 12.30352 | 104° | 40km/h | 16906m | 5.0m/s | -55.2°C | 4.6% | 95.0hPa | 2.6V | 00:00:00 | 00:00:00 | 00:00:00 | |
| OE8JPQ-2 | 2026-09-02 23:41:02 | 47.79362 | 12.30272 | 97° | 40km/h | 16880m | 5.2m/s | -55.1°C | 4.6% | 95.4hPa | 2.6V | 00:00:00 | 00:00:00 | 08:30:00 | |
| OE5MMP-10 | 2026-09-02 23:41:00 | 47.79366 | 12.30243 | 104° | 38km/h | 16872m | 4.3m/s | -55.2°C | 4.6% | 95.5hPa | 2.6V | 00:00:00 | 01:11:40 | 00:00:00 | |
| DG1MFX-10 | 2026-09-02 23:40:59 | 47.79366 | 12.30243 | 105° | 38km/h | 16872m | 4.3m/s | -55.2°C | 1.6% | 95.6hPa | 2.6V | 00:00:00 | 00:00:00 | 00:00:00 | |
| OE5FHM-15 | 2026-09-02 23:40:55 | 47.79383 | 12.30177 | 112° | 42km/h | 16844m | 4.9m/s | -55.1°C | 4.6% | 95.9hPa | 2.6V | 00:00:00 | 01:11:35 | 00:00:00 | |
| OE5DRO-10 | 2026-09-02 23:40:52 | 47.79394 | 12.30135 | 110° | 40km/h | 16829m | 4.5m/s | -55.0°C | 4.6% | 96.2hPa | 2.6V | 00:00:00 | 00:00:00 | 00:00:00 | |
| OE5MMP-10 | 2026-09-02 23:40:50 | 47.79400 | 12.30105 | 104° | 42km/h | 16819m | 5.2m/s | -55.0°C | 4.6% | 96.3hPa | 2.6V | 00:00:00 | 01:11:30 | 00:00:00 | |
| PG1ADW-2 | 2026-09-02 23:40:49 | 47.79402 | 12.30091 | 105° | 42km/h | 16814m | 4.0m/s | -55.0°C | 4.6% | 96.4hPa | 2.6V | 00:00:00 | 00:00:00 | 00:00:00 | |
| OE5WHR-10 | 2026-09-02 23:40:46 | 47.79412 | 12.30046 | 113° | 42km/h | 16800m | 4.4m/s | -54.9°C | 4.5% | 96.6hPa | 2.6V | 00:00:00 | 00:00:00 | 00:00:00 | |
| BAUMI2-15 | 2026-09-02 23:40:45 | 47.79417 | 12.30031 | 114° | 42km/h | 16796m | 3.8m/s | -54.9°C | 4.6% | 96.7hPa | 2.6V | 00:00:00 | 01:11:25 | 00:00:00 | |
| BAUMI2-15 | 2026-09-02 23:40:40 | 47.79435 | 12.29959 | 110° | 38km/h | 16770m | 5.0m/s | -54.8°C | 4.6% | 97.1hPa | 2.6V | 00:00:00 | 01:11:20 | 00:00:00 | |
| DG1MFX-10 | 2026-09-02 23:40:39 | 47.79438 | 12.29945 | 110° | 38km/h | 16766m | 4.0m/s | -54.8°C | 1.6% | 97.2hPa | 2.6V | 00:00:00 | 00:00:00 | 00:00:00 | |
| OE8JPQ-2 | 2026-09-02 23:40:38 | 47.79441 | 12.29932 | 108° | 42km/h | 16761m | 5.6m/s | -54.8°C | 4.6% | 97.2hPa | 2.6V | 00:00:00 | 00:00:00 | 00:00:00 | |
| BAUMI2-15 | 2026-09-02 23:40:35 | 47.79450 | 12.29890 | 110° | 46km/h | 16746m | 5.0m/s | -54.7°C | 4.6% | 97.4hPa | 2.6V | 00:00:00 | 01:11:15 | 08:30:00 | |
| OE5DRO-10 | 2026-09-02 23:40:33 | 47.79457 | 12.29858 | 108° | 46km/h | 16736m | 5.1m/s | -54.6°C | 4.6% | 97.6hPa | 2.7V | 00:00:00 | 00:00:00 | 00:00:00 | |
| BAUMI2-15 | 2026-09-02 23:40:30 | 47.79469 | 12.29808 | 113° | 42km/h | 16721m | 4.1m/s | -54.6°C | 4.5% | 97.8hPa | 2.7V | 00:00:00 | 01:11:10 | 00:00:00 | |
| PG1ADW-2 | 2026-09-02 23:40:29 | 47.79474 | 12.29792 | 112° | 46km/h | 16717m | 4.2m/s | -54.5°C | 4.5% | 97.9hPa | 2.7V | 00:00:00 | 00:00:00 | 08:30:00 | |
| OE5WHR-10 | 2026-09-02 23:40:25 | 47.79486 | 12.29737 | 109° | 46km/h | 16698m | 5.4m/s | -54.6°C | 4.6% | 98.2hPa | 2.7V | 00:00:00 | 01:11:05 | 00:00:00 | |
| OE5MMP-10 | 2026-09-02 23:40:20 | 47.79501 | 12.29664 | 105° | 51km/h | 16674m | 4.5m/s | -54.5°C | 4.5% | 98.5hPa | 2.7V | 00:00:00 | 01:11:00 | 00:00:00 | |
| OE8JPQ-2 | 2026-09-02 23:40:18 | 47.79509 | 12.29625 | 110° | 47km/h | 16663m | 5.0m/s | -54.4°C | 4.4% | 98.7hPa | 2.7V | 00:00:00 | 01:10:58 | 00:00:00 | |
| DG1MFX-10 | 2026-09-02 23:40:17 | 47.79509 | 12.29625 | 110° | 55km/h | 16663m | 5.1m/s | -54.5°C | 1.6% | 98.7hPa | 2.7V | 00:00:00 | 00:00:00 | 00:00:00 | |
| BAUMI2-15 | 2026-09-02 23:40:15 | 47.79523 | 12.29566 | 108° | 47km/h | 16649m | 4.7m/s | -54.3°C | 4.5% | 98.9hPa | 2.7V | 00:00:00 | 01:10:55 | 00:00:00 | |
| OE5DRO-10 | 2026-09-02 23:40:14 | 47.79527 | 12.29547 | 108° | 46km/h | 16645m | 3.6m/s | -54.3°C | 4.5% | 99.0hPa | 2.7V | 00:00:00 | 00:00:00 | 08:30:00 | |
| OE5MMP-10 | 2026-09-02 23:40:10 | 47.79543 | 12.29485 | 114° | 47km/h | 16625m | 5.2m/s | -54.1°C | 4.5% | 99.3hPa | 2.6V | 00:00:00 | 01:10:50 | 00:00:00 | |
| BAUMI2-15 | 2026-09-02 23:40:05 | 47.79567 | 12.29407 | 117° | 49km/h | 16600m | 4.9m/s | -54.1°C | 4.4% | 99.7hPa | 2.6V | 00:00:00 | 01:10:45 | 00:00:00 | |
| OE5WHR-10 | 2026-09-02 23:40:04 | 47.79572 | 12.29390 | 116° | 46km/h | 16595m | 5.4m/s | -54.2°C | 4.5% | 99.8hPa | 2.7V | 00:00:00 | 00:00:00 | 00:00:00 | |
| OE5MMP-10 | 2026-09-02 23:40:00 | 47.79592 | 12.29325 | 121° | 42km/h | 16575m | 5.9m/s | -54.2°C | 4.5% | 100.1hPa | 2.6V | 00:00:00 | 01:10:40 | 00:00:00 | |
| OE8JPQ-2 | 2026-09-02 23:39:58 | 47.79604 | 12.29299 | 126° | 46km/h | 16566m | 4.6m/s | 0°C | 0% | 0hPa | 2.6V | 00:00:00 | 00:00:00 | 00:00:00 | |
| DG1MFX-10 | 2026-09-02 23:39:56 | 47.79609 | 12.29287 | 125° | 38km/h | 16561m | 5.3m/s | -54.2°C | 1.6% | 100.3hPa | 2.6V | 00:00:00 | 00:00:00 | 00:00:00 | |
| OE5FHM-15 | 2026-09-02 23:39:55 | 47.79620 | 12.29262 | 123° | 49km/h | 16551m | 4.5m/s | -54.1°C | 4.4% | 100.4hPa | 2.6V | 00:00:00 | 01:10:35 | 00:00:00 | |
| OE5MMP-10 | 2026-09-02 23:39:50 | 47.79650 | 12.29191 | 121° | 49km/h | 16527m | 4.1m/s | -53.9°C | 4.3% | 100.8hPa | 2.6V | 00:00:00 | 01:10:30 | 00:00:00 | |
| PG1ADW-2 | 2026-09-02 23:39:49 | 47.79657 | 12.29175 | 123° | 51km/h | 16522m | 5.3m/s | -53.9°C | 4.4% | 100.9hPa | 2.6V | 00:00:00 | 00:00:00 | 00:00:00 | |
| BAUMI2-15 | 2026-09-02 23:39:45 | 47.79683 | 12.29109 | 120° | 47km/h | 16502m | 4.8m/s | -53.9°C | 4.3% | 101.2hPa | 2.6V | 00:00:00 | 01:10:25 | 00:00:00 | |
| OE5WHR-10 | 2026-09-02 23:39:43 | 47.79696 | 12.29077 | 122° | 51km/h | 16492m | 4.4m/s | -53.9°C | 4.3% | 101.3hPa | 2.6V | 00:00:00 | 00:00:00 | 00:00:00 | |
| OE5MMP-10 | 2026-09-02 23:39:40 | 47.79713 | 12.29033 | 122° | 51km/h | 16478m | 3.9m/s | -54.1°C | 4.4% | 101.6hPa | 2.6V | 00:00:00 | 01:10:20 | 00:00:00 | |
| OE8JPQ-2 | 2026-09-02 23:39:38 | 47.79726 | 12.29004 | 124° | 51km/h | 16469m | 4.6m/s | 0°C | 0% | 0hPa | 2.6V | 00:00:00 | 00:00:00 | 00:00:00 | |
| OE5DRO-10 | 2026-09-02 23:39:36 | 47.79738 | 12.28972 | 119° | 53km/h | 16460m | 4.6m/s | -54.1°C | 4.4% | 101.9hPa | 2.6V | 00:00:00 | 00:00:00 | 00:00:00 | |
| DG1MFX-10 | 2026-09-02 23:39:35 | 47.79738 | 12.28972 | 119° | 51km/h | 16460m | 4.6m/s | -54.1°C | 1.6% | 101.9hPa | 2.6V | 00:00:00 | 00:00:00 | 00:00:00 | |
| OE5MMP-10 | 2026-09-02 23:39:30 | 47.79775 | 12.28864 | 115° | 53km/h | 16431m | 4.6m/s | -54.2°C | 4.4% | 102.3hPa | 2.6V | 00:00:00 | 01:10:10 | 00:00:00 | |
| PG1ADW-2 | 2026-09-02 23:39:29 | 47.79780 | 12.28846 | 115° | 57km/h | 16427m | 3.6m/s | -54.2°C | 4.5% | 102.4hPa | 2.7V | 00:00:00 | 00:00:00 | 00:00:00 | |
| OE5FHM-15 | 2026-09-02 23:39:25 | 47.79804 | 12.28775 | 115° | 55km/h | 16407m | 5.1m/s | -54.2°C | 4.4% | 102.7hPa | 2.6V | 00:00:00 | 01:10:05 | 00:00:00 | |
| OE5WHR-10 | 2026-09-02 23:39:22 | 47.79821 | 12.28720 | 119° | 53km/h | 16394m | 4.8m/s | -54.2°C | 4.3% | 102.9hPa | 2.6V | 00:00:00 | 01:10:02 | 00:00:00 | |
| OE5MMP-10 | 2026-09-02 23:39:20 | 47.79834 | 12.28687 | 121° | 49km/h | 16385m | 4.0m/s | -54.2°C | 4.3% | 103.1hPa | 2.6V | 00:00:00 | 01:10:00 | 00:00:00 | |
| OE8JPQ-2 | 2026-09-02 23:39:18 | 47.79846 | 12.28656 | 116° | 55km/h | 16375m | 4.1m/s | 0°C | 0% | 0hPa | 2.6V | 00:00:00 | 01:09:58 | 00:00:00 | |
| OE5DRO-10 | 2026-09-02 23:39:17 | 47.79851 | 12.28640 | 116° | 55km/h | 16371m | 4.5m/s | -54.4°C | 4.3% | 103.3hPa | 2.6V | 00:00:00 | 00:00:00 | 00:00:00 | |
| BAUMI2-15 | 2026-09-02 23:39:15 | 47.79862 | 12.28608 | 118° | 51km/h | 16362m | 3.9m/s | -54.7°C | 4.4% | 103.5hPa | 2.6V | 00:00:00 | 01:09:55 | 00:00:00 | |
| OE5MMP-10 | 2026-09-02 23:39:10 | 47.79889 | 12.28520 | 118° | 58km/h | 16338m | 4.4m/s | -54.7°C | 4.5% | 103.8hPa | 2.6V | 00:00:00 | 01:09:50 | 00:00:00 | |
| BAUMI2-15 | 2026-09-02 23:39:05 | 47.79922 | 12.28424 | 117° | 62km/h | 16316m | 5.3m/s | -54.9°C | 4.5% | 104.2hPa | 2.6V | 00:00:00 | 01:09:45 | 08:30:00 | |
| OE5WHR-10 | 2026-09-02 23:39:01 | 47.79949 | 12.28342 | 117° | 53km/h | 16297m | 3.6m/s | -55.4°C | 4.6% | 104.5hPa | 2.6V | 00:00:00 | 00:00:00 | 08:30:00 | |
| OE5MMP-10 | 2026-09-02 23:39:00 | 47.79956 | 12.28322 | 119° | 57km/h | 16293m | 5.0m/s | -55.5°C | 4.7% | 104.6hPa | 2.6V | 00:00:00 | 01:09:40 | 08:30:00 | |
| OE5DRO-10 | 2026-09-02 23:38:58 | 47.79970 | 12.28283 | 120° | 51km/h | 16285m | 3.6m/s | -55.8°C | 4.8% | 104.7hPa | 2.6V | 00:00:00 | 00:00:00 | 00:00:00 | |
| OE8JPQ-2 | 2026-09-02 23:38:57 | 47.79977 | 12.28263 | 118° | 51km/h | 16281m | 5.0m/s | 0°C | 0% | 0hPa | 2.6V | 00:00:00 | 00:00:00 | 00:00:00 | |
| OE5FHM-15 | 2026-09-02 23:38:55 | 47.79990 | 12.28223 | 115° | 51km/h | 16272m | 3.6m/s | -55.8°C | 4.8% | 104.9hPa | 2.6V | 00:00:00 | 01:09:35 | 00:00:00 | |
| DG1MFX-10 | 2026-09-02 23:38:54 | 47.79990 | 12.28224 | 115° | 58km/h | 16272m | 3.7m/s | -55.9°C | 1.8% | 105.0hPa | 2.6V | 00:00:00 | 00:00:00 | 00:00:00 | |
| OE5MMP-10 | 2026-09-02 23:38:50 | 47.80020 | 12.28132 | 118° | 47km/h | 16251m | 3.8m/s | -55.9°C | 4.8% | 105.3hPa | 2.6V | 00:00:00 | 01:09:30 | 00:00:00 | |
| OE5WHR-10 | 2026-09-02 23:38:40 | 47.80085 | 12.27982 | 117° | 51km/h | 16205m | 3.7m/s | -55.9°C | 4.7% | 106.0hPa | 2.6V | 00:00:00 | 00:00:00 | 00:00:00 | |
| OE5DRO-10 | 2026-09-02 23:38:39 | 47.80090 | 12.27967 | 118° | 51km/h | 16201m | 4.8m/s | -56.0°C | 4.7% | 106.1hPa | 2.6V | 00:00:00 | 00:00:00 | 00:00:00 | |
| OE8JPQ-2 | 2026-09-02 23:38:37 | 47.80101 | 12.27938 | 121° | 53km/h | 16192m | 3.7m/s | 0°C | 0% | 0hPa | 2.6V | 00:00:00 | 00:00:00 | 00:00:00 | |
| DO3MHA-11 | 2026-09-02 23:38:35 | 47.80113 | 12.27908 | 121° | 53km/h | 16183m | 3.9m/s | -56.3°C | 5.0% | 106.4hPa | 2.6V | 00:00:00 | 01:09:15 | 00:00:00 | |
| DG1MFX-10 | 2026-09-02 23:38:34 | 47.80113 | 12.27908 | 121° | 47km/h | 16183m | 4.0m/s | -56.3°C | 1.9% | 106.4hPa | 2.6V | 00:00:00 | 00:00:00 | 00:00:00 | |
| OE5MMP-10 | 2026-09-02 23:38:30 | 47.80150 | 12.27827 | 123° | 53km/h | 16162m | 4.9m/s | -56.4°C | 5.0% | 106.7hPa | 2.6V | 00:00:00 | 01:09:10 | 00:00:00 | |
| OE5FHM-15 | 2026-09-02 23:38:25 | 47.80183 | 12.27736 | 117° | 49km/h | 16141m | 3.9m/s | -56.4°C | 5.1% | 107.1hPa | 2.6V | 00:00:00 | 01:09:05 | 00:00:00 | |
| OE5MMP-10 | 2026-09-02 23:38:20 | 47.80211 | 12.27650 | 121° | 53km/h | 16119m | 3.9m/s | -56.4°C | 5.0% | 107.5hPa | 2.6V | 00:00:00 | 01:09:00 | 00:00:00 | |
| OE5WHR-10 | 2026-09-02 23:38:19 | 47.80218 | 12.27634 | 123° | 49km/h | 16114m | 4.6m/s | -56.4°C | 5.1% | 107.5hPa | 2.6V | 00:00:00 | 01:08:59 | 00:00:00 | |
| OE8JPQ-2 | 2026-09-02 23:38:15 | 47.80251 | 12.27568 | 130° | 49km/h | 16097m | 3.8m/s | 0°C | 0% | 0hPa | 2.6V | 00:00:00 | 01:08:55 | 00:00:00 | |
| DO3MHA-11 | 2026-09-02 23:38:14 | 47.80259 | 12.27552 | 129° | 49km/h | 16094m | 3.9m/s | -56.3°C | 5.0% | 107.9hPa | 2.6V | 00:00:00 | 01:08:54 | 08:30:00 | |
| DG1MFX-10 | 2026-09-02 23:38:13 | 47.80259 | 12.27552 | 130° | 53km/h | 16094m | 3.9m/s | -56.4°C | 1.9% | 107.9hPa | 2.6V | 00:00:00 | 00:00:00 | 00:00:00 | |
| OE5MMP-10 | 2026-09-02 23:38:10 | 47.80290 | 12.27490 | 127° | 47km/h | 16076m | 4.3m/s | -56.3°C | 5.0% | 108.2hPa | 2.6V | 00:00:00 | 01:08:50 | 00:00:00 | |
| DO3MHA-11 | 2026-09-02 23:38:04 | 47.80335 | 12.27403 | 129° | 46km/h | 16050m | 4.0m/s | -56.2°C | 5.0% | 108.7hPa | 2.6V | 00:00:00 | 01:08:44 | 00:00:00 | |
| OE5DRO-10 | 2026-09-02 23:38:01 | 47.80356 | 12.27363 | 128° | 46km/h | 16036m | 4.4m/s | -56.2°C | 5.0% | 108.9hPa | 2.6V | 00:00:00 | 00:00:00 | 00:00:00 | |
| OE5MMP-10 | 2026-09-02 23:38:00 | 47.80363 | 12.27350 | 131° | 46km/h | 16032m | 5.1m/s | -56.2°C | 5.0% | 109.0hPa | 2.6V | 00:00:00 | 01:08:40 | 00:00:00 | |
| OE5WHR-10 | 2026-09-02 23:37:58 | 47.80377 | 12.27325 | 132° | 46km/h | 16023m | 5.0m/s | -56.1°C | 5.0% | 109.1hPa | 2.6V | 00:00:00 | 00:00:00 | 00:00:00 | |
| OE5FHM-15 | 2026-09-02 23:37:55 | 47.80401 | 12.27287 | 134° | 47km/h | 16010m | 4.7m/s | -56.0°C | 5.0% | 109.3hPa | 2.6V | 00:00:00 | 01:08:35 | 08:30:00 | |
| DO3MHA-11 | 2026-09-02 23:37:54 | 47.80409 | 12.27275 | 134° | 68km/h | 16005m | 3.5m/s | -56.0°C | 5.0% | 109.4hPa | 2.7V | 00:00:00 | 01:08:34 | 00:00:00 | |
| DG1MFX-10 | 2026-09-02 23:37:53 | 47.80409 | 12.27275 | 135° | 46km/h | 16005m | 3.6m/s | -56.1°C | 1.9% | 109.5hPa | 2.7V | 00:00:00 | 00:00:00 | 00:00:00 | |
| OE5DXL-15 | 2026-09-02 23:37:50 | 47.80441 | 12.27224 | 136° | 49km/h | 15987m | 4.7m/s | -56.0°C | 5.0% | 109.7hPa | 2.7V | 00:00:00 | 00:00:00 | 00:00:00 | |
| OE8JPQ-2 | 2026-09-02 23:37:45 | 47.80484 | 12.27169 | 139° | 44km/h | 15966m | 4.9m/s | 0°C | 0% | 0hPa | 2.7V | 00:00:00 | 00:00:00 | 00:00:00 | |
| OE5DRO-10 | 2026-09-02 23:37:42 | 47.80507 | 12.27137 | 137° | 51km/h | 15953m | 4.9m/s | -56.0°C | 5.0% | 110.3hPa | 2.7V | 00:00:00 | 00:00:00 | 00:00:00 | |
| OE5MMP-10 | 2026-09-02 23:37:40 | 47.80523 | 12.27113 | 134° | 49km/h | 15943m | 3.8m/s | -56.0°C | 5.0% | 110.4hPa | 2.7V | 00:00:00 | 01:08:20 | 00:00:00 | |
| OE5WHR-10 | 2026-09-02 23:37:37 | 47.80547 | 12.27075 | 134° | 55km/h | 15930m | 4.7m/s | -56.0°C | 5.0% | 110.7hPa | 2.7V | 00:00:00 | 00:00:00 | 00:00:00 | |
| S52SK | 2026-09-02 23:37:36 | 47.80547 | 12.27075 | 134° | 47km/h | 15930m | 4.8m/s | 0°C | 0% | 0hPa | 2.7V | 00:00:00 | 00:00:00 | 00:00:00 | |
| DG1MFX-10 | 2026-09-02 23:37:32 | 47.80585 | 12.27025 | 147° | 49km/h | 15911m | 5.3m/s | -55.9°C | 1.9% | 111.1hPa | 2.7V | 00:00:00 | 00:00:00 | 00:00:00 | |
| OE5MMP-10 | 2026-09-02 23:37:30 | 47.80618 | 12.26993 | 146° | 55km/h | 15896m | 5.2m/s | -55.8°C | 5.0% | 111.3hPa | 2.7V | 00:00:00 | 01:08:10 | 08:30:00 | |
| OE5FHM-15 | 2026-09-02 23:37:25 | 47.80669 | 12.26926 | 132° | 62km/h | 15872m | 5.3m/s | -55.6°C | 5.0% | 111.7hPa | 2.6V | 00:00:00 | 01:08:05 | 00:00:00 | |
| OE5DRO-10 | 2026-09-02 23:37:23 | 47.80688 | 12.26893 | 131° | 62km/h | 15862m | 4.3m/s | -55.7°C | 5.0% | 111.9hPa | 2.6V | 00:00:00 | 00:00:00 | 08:30:00 | |
| OE5MMP-10 | 2026-09-02 23:37:20 | 47.80716 | 12.26845 | 134° | 60km/h | 15847m | 4.5m/s | -55.7°C | 5.0% | 112.2hPa | 2.6V | 00:00:00 | 01:08:00 | 00:00:00 | |
| OE5WHR-10 | 2026-09-02 23:37:16 | 47.80763 | 12.26786 | 144° | 64km/h | 15829m | 4.8m/s | -55.7°C | 4.9% | 112.4hPa | 2.6V | 00:00:00 | 01:07:56 | 00:00:00 | |
| DB0UT-7 | 2026-09-02 23:37:13 | 47.80798 | 12.26743 | 136° | 66km/h | 15815m | 4.8m/s | -55.7°C | 5.0% | 112.7hPa | 2.6V | 00:00:00 | 00:00:00 | 00:00:00 | |
| PG1ADW-2 | 2026-09-02 23:37:11 | 47.80819 | 12.26708 | 130° | 68km/h | 15805m | 4.4m/s | -55.6°C | 5.0% | 112.9hPa | 2.6V | 00:00:00 | 00:00:00 | 00:00:00 | |
| OE5MMP-10 | 2026-09-02 23:37:10 | 47.80830 | 12.26690 | 129° | 64km/h | 15801m | 4.4m/s | -55.5°C | 4.9% | 113.0hPa | 2.6V | 00:00:00 | 01:07:50 | 00:00:00 | |
| OE5DRO-10 | 2026-09-02 23:37:04 | 47.80889 | 12.26574 | 129° | 69km/h | 15772m | 5.4m/s | -55.6°C | 4.9% | 113.4hPa | 2.6V | 00:00:00 | 00:00:00 | 00:00:00 | |
| OE5MMP-10 | 2026-09-02 23:37:00 | 47.80931 | 12.26500 | 129° | 69km/h | 15754m | 4.1m/s | -55.8°C | 5.0% | 113.8hPa | 2.6V | 00:00:00 | 01:07:40 | 00:00:00 | |
| OE5WHR-10 | 2026-09-02 23:36:55 | 47.80980 | 12.26396 | 124° | 71km/h | 15731m | 5.6m/s | -55.7°C | 5.0% | 114.2hPa | 2.6V | 00:00:00 | 00:00:00 | 00:00:00 | |
| PG1ADW-2 | 2026-09-02 23:36:51 | 47.81021 | 12.26307 | 127° | 71km/h | 15712m | 4.1m/s | -56.1°C | 5.1% | 114.6hPa | 2.7V | 00:00:00 | 01:07:31 | 00:00:00 | |
| OE5MMP-10 | 2026-09-02 23:36:50 | 47.81032 | 12.26285 | 128° | 71km/h | 15707m | 5.4m/s | -56.1°C | 5.2% | 114.6hPa | 2.7V | 00:00:00 | 01:07:30 | 00:00:00 | |
| BAUMI2-15 | 2026-09-02 23:36:45 | 47.81088 | 12.26179 | 128° | 71km/h | 15684m | 4.2m/s | -56.4°C | 5.3% | 115.1hPa | 2.7V | 00:00:00 | 01:07:25 | 00:00:00 | |
| OE5MMP-10 | 2026-09-02 23:36:40 | 47.81139 | 12.26067 | 124° | 71km/h | 15661m | 4.9m/s | -56.3°C | 5.3% | 115.5hPa | 2.7V | 00:00:00 | 01:07:20 | 00:00:00 | |
| BAUMI2-15 | 2026-09-02 23:36:35 | 47.81192 | 12.25959 | 129° | 71km/h | 15637m | 5.2m/s | -56.2°C | 5.2% | 115.9hPa | 2.7V | 00:00:00 | 01:07:15 | 00:00:00 | |
| PG1ADW-2 | 2026-09-02 23:36:31 | 47.81237 | 12.25876 | 128° | 75km/h | 15617m | 4.5m/s | -56.1°C | 5.1% | 116.2hPa | 2.6V | 00:00:00 | 00:00:00 | 00:00:00 | |
| BAUMI2-15 | 2026-09-02 23:36:30 | 47.81248 | 12.25855 | 129° | 71km/h | 15612m | 5.7m/s | -56.1°C | 5.2% | 116.4hPa | 2.6V | 00:00:00 | 01:07:10 | 00:00:00 | |
| OE5DRO-10 | 2026-09-02 23:36:26 | 47.81292 | 12.25770 | 128° | 77km/h | 15592m | 4.6m/s | -56.2°C | 5.2% | 116.7hPa | 2.6V | 00:00:00 | 00:00:00 | 00:00:00 | |
| OE5FHM-15 | 2026-09-02 23:36:25 | 47.81304 | 12.25748 | 129° | 82km/h | 15587m | 5.6m/s | -56.2°C | 5.2% | 116.8hPa | 2.6V | 00:00:00 | 01:07:05 | 00:00:00 | |
| OE5MMP-10 | 2026-09-02 23:36:20 | 47.81367 | 12.25637 | 132° | 77km/h | 15562m | 5.5m/s | -56.2°C | 5.2% | 117.3hPa | 2.7V | 00:00:00 | 01:07:00 | 00:00:00 | |
| S52SK | 2026-09-02 23:36:18 | 47.81380 | 12.25615 | 132° | 77km/h | 15557m | 4.0m/s | 0°C | 0% | 0hPa | 2.7V | 00:00:00 | 00:00:00 | 00:00:00 | |
| BAUMI2-15 | 2026-09-02 23:36:15 | 47.81427 | 12.25525 | 125° | 77km/h | 15539m | 3.5m/s | -56.4°C | 5.2% | 117.7hPa | 2.7V | 00:00:00 | 01:06:55 | 00:00:00 | |
| OE5WHR-10 | 2026-09-02 23:36:13 | 47.81449 | 12.25479 | 127° | 86km/h | 15529m | 5.0m/s | -56.5°C | 5.2% | 117.9hPa | 2.7V | 00:00:00 | 01:06:53 | 00:00:00 | |
| PG1ADW-2 | 2026-09-02 23:36:11 | 47.81471 | 12.25433 | 126° | 86km/h | 15519m | 5.2m/s | -56.7°C | 5.3% | 118.1hPa | 2.7V | 00:00:00 | 00:00:00 | 00:00:00 | |
| OE5MMP-10 | 2026-09-02 23:36:10 | 47.81483 | 12.25409 | 127° | 88km/h | 15514m | 4.5m/s | -56.8°C | 5.3% | 118.1hPa | 2.7V | 00:00:00 | 01:06:50 | 00:00:00 | |
| OE5DRO-10 | 2026-09-02 23:36:07 | 47.81521 | 12.25336 | 129° | 89km/h | 15499m | 4.0m/s | -57.1°C | 5.4% | 118.4hPa | 2.7V | 00:00:00 | 00:00:00 | 00:00:00 | |
| BAUMI2-15 | 2026-09-02 23:36:05 | 47.81548 | 12.25284 | 127° | 91km/h | 15489m | 5.1m/s | -57.4°C | 5.5% | 118.6hPa | 2.7V | 00:00:00 | 01:06:45 | 00:00:00 | |
| OE5MMP-10 | 2026-09-02 23:36:00 | 47.81616 | 12.25145 | 125° | 88km/h | 15465m | 5.7m/s | -57.8°C | 5.8% | 119.1hPa | 2.7V | 00:00:00 | 01:06:40 | 08:30:00 | |
| OE5FHM-15 | 2026-09-02 23:35:55 | 47.81673 | 12.25008 | 120° | 88km/h | 15440m | 5.3m/s | -58.2°C | 6.0% | 119.5hPa | 2.7V | 00:00:00 | 01:06:35 | 00:00:00 | |
| OE5WHR-10 | 2026-09-02 23:35:52 | 47.81706 | 12.24923 | 122° | 89km/h | 15424m | 4.2m/s | -58.3°C | 6.1% | 119.9hPa | 2.7V | 00:00:00 | 00:00:00 | 08:30:00 | |
| PG1ADW-2 | 2026-09-02 23:35:51 | 47.81719 | 12.24895 | 122° | 89km/h | 15420m | 4.4m/s | -58.4°C | 6.0% | 119.9hPa | 2.6V | 00:00:00 | 00:00:00 | 00:00:00 | |
| OE5DXL-15 | 2026-09-02 23:35:50 | 47.81731 | 12.24865 | 121° | 86km/h | 15415m | 5.5m/s | -58.4°C | 6.0% | 120.0hPa | 2.6V | 00:00:00 | 00:00:00 | 00:00:00 | |
| DG1MFX-10 | 2026-09-02 23:35:49 | 47.81730 | 12.24865 | 122° | 95km/h | 15415m | 5.5m/s | -58.4°C | 2.5% | 120.1hPa | 2.6V | 00:00:00 | 00:00:00 | 00:00:00 | |
| OE5DRO-10 | 2026-09-02 23:35:48 | 47.81755 | 12.24803 | 121° | 89km/h | 15405m | 5.5m/s | -58.4°C | 6.0% | 120.2hPa | 2.6V | 00:00:00 | 00:00:00 | 00:00:00 | |
| BAUMI2-15 | 2026-09-02 23:35:45 | 47.81790 | 12.24709 | 117° | 91km/h | 15390m | 5.5m/s | -58.4°C | 6.0% | 120.5hPa | 2.6V | 00:00:00 | 01:06:25 | 00:00:00 | |
| OE5MMP-10 | 2026-09-02 23:35:40 | 47.81840 | 12.24556 | 117° | 86km/h | 15366m | 5.3m/s | -58.3°C | 6.0% | 121.0hPa | 2.6V | 00:00:00 | 01:06:20 | 00:00:00 | |
| DO3MHA-11 | 2026-09-02 23:35:39 | 47.81849 | 12.24527 | 117° | 84km/h | 15361m | 4.5m/s | -58.2°C | 6.0% | 121.1hPa | 2.6V | 00:00:00 | 01:06:19 | 00:00:00 | |
| BAUMI2-15 | 2026-09-02 23:35:35 | 47.81888 | 12.24412 | 115° | 86km/h | 15341m | 5.2m/s | -58.2°C | 6.1% | 121.5hPa | 2.7V | 00:00:00 | 01:06:15 | 08:30:00 | |
| OE5WHR-10 | 2026-09-02 23:35:31 | 47.81919 | 12.24291 | 109° | 78km/h | 15321m | 4.2m/s | -58.1°C | 6.0% | 121.8hPa | 2.7V | 00:00:00 | 00:00:00 | 00:00:00 | |
| OE5MMP-10 | 2026-09-02 23:35:30 | 47.81926 | 12.24261 | 109° | 80km/h | 15317m | 3.7m/s | -58.1°C | 6.1% | 121.9hPa | 2.7V | 00:00:00 | 01:06:10 | 00:00:00 | |
| OE5DRO-10 | 2026-09-02 23:35:29 | 47.81933 | 12.24230 | 110° | 77km/h | 15313m | 5.3m/s | -58.1°C | 6.0% | 122.0hPa | 2.7V | 00:00:00 | 00:00:00 | 00:00:00 | |
| OE5FHM-15 | 2026-09-02 23:35:25 | 47.81963 | 12.24112 | 112° | 73km/h | 15293m | 5.7m/s | -58.0°C | 6.0% | 122.4hPa | 2.6V | 00:00:00 | 01:06:05 | 00:00:00 | |
| DO3MHA-11 | 2026-09-02 23:35:24 | 47.81970 | 12.24086 | 113° | 75km/h | 15288m | 3.9m/s | -58.0°C | 6.0% | 122.5hPa | 2.6V | 00:00:00 | 01:06:04 | 00:00:00 | |
| OE5MMP-10 | 2026-09-02 23:35:20 | 47.82001 | 12.23984 | 115° | 75km/h | 15270m | 4.0m/s | -57.9°C | 5.9% | 122.8hPa | 2.6V | 00:00:00 | 01:06:00 | 00:00:00 | |
| BAUMI2-15 | 2026-09-02 23:35:15 | 47.82037 | 12.23851 | 111° | 75km/h | 15245m | 4.1m/s | -57.8°C | 5.9% | 123.3hPa | 2.6V | 00:00:00 | 01:05:55 | 00:00:00 | |
| DO3MHA-11 | 2026-09-02 23:35:14 | 47.82043 | 12.23824 | 112° | 71km/h | 15241m | 5.3m/s | -57.7°C | 5.8% | 123.4hPa | 2.6V | 00:00:00 | 01:05:54 | 00:00:00 | |
| PG1ADW-2 | 2026-09-02 23:35:11 | 47.82064 | 12.23748 | 112° | 69km/h | 15226m | 5.0m/s | -57.7°C | 5.8% | 123.7hPa | 2.6V | 00:00:00 | 00:00:00 | 00:00:00 | |
| OE5WHR-10 | 2026-09-02 23:35:10 | 47.82071 | 12.23722 | 112° | 69km/h | 15221m | 3.9m/s | -57.7°C | 5.9% | 123.8hPa | 2.6V | 00:00:00 | 01:05:50 | 00:00:00 | |
| DG1MFX-10 | 2026-09-02 23:35:08 | 47.82077 | 12.23697 | 113° | 73km/h | 15217m | 3.9m/s | -57.7°C | 2.5% | 123.9hPa | 2.6V | 00:00:00 | 00:00:00 | 00:00:00 | |
| BAUMI2-15 | 2026-09-02 23:35:05 | 47.82104 | 12.23600 | 114° | 73km/h | 15199m | 4.9m/s | -57.7°C | 6.0% | 124.2hPa | 2.6V | 00:00:00 | 01:05:45 | 00:00:00 | |
| DO3MHA-11 | 2026-09-02 23:35:04 | 47.82111 | 12.23575 | 114° | 71km/h | 15195m | 3.8m/s | -57.8°C | 6.0% | 124.3hPa | 2.7V | 00:00:00 | 01:05:44 | 00:00:00 | |
| OE5MMP-10 | 2026-09-02 23:35:00 | 47.82138 | 12.23477 | 111° | 68km/h | 15178m | 5.1m/s | -57.7°C | 6.0% | 124.7hPa | 2.6V | 00:00:00 | 01:05:40 | 00:00:00 | |
| OE5FHM-15 | 2026-09-02 23:34:55 | 47.82169 | 12.23351 | 111° | 64km/h | 15156m | 4.4m/s | -57.6°C | 6.0% | 125.1hPa | 2.6V | 00:00:00 | 01:05:35 | 00:00:00 | |
| DO3MHA-11 | 2026-09-02 23:34:54 | 47.82174 | 12.23329 | 110° | 66km/h | 15152m | 4.4m/s | -57.6°C | 6.0% | 125.2hPa | 2.6V | 00:00:00 | 01:05:34 | 00:00:00 | |
| PG1ADW-2 | 2026-09-02 23:34:51 | 47.82190 | 12.23264 | 112° | 64km/h | 15139m | 4.8m/s | -57.6°C | 6.0% | 125.5hPa | 2.6V | 00:00:00 | 00:00:00 | 00:00:00 | |
| OE5MMP-10 | 2026-09-02 23:34:50 | 47.82196 | 12.23242 | 114° | 68km/h | 15133m | 5.0m/s | -57.6°C | 6.0% | 125.5hPa | 2.6V | 00:00:00 | 01:05:30 | 00:00:00 | |
| OE5WHR-10 | 2026-09-02 23:34:49 | 47.82203 | 12.23219 | 114° | 64km/h | 15129m | 4.3m/s | -57.6°C | 6.0% | 125.6hPa | 2.6V | 00:00:00 | 00:00:00 | 00:00:00 | |
| DG1MFX-10 | 2026-09-02 23:34:48 | 47.82203 | 12.23219 | 115° | 66km/h | 15129m | 4.3m/s | -57.6°C | 2.6% | 125.7hPa | 2.6V | 00:00:00 | 00:00:00 | 00:00:00 | |
| S52SK | 2026-09-02 23:34:45 | 47.82223 | 12.23147 | 114° | 71km/h | 15114m | 5.4m/s | 0°C | 0% | 0hPa | 2.6V | 00:00:00 | 00:00:00 | 00:00:00 | |
| DO3MHA-11 | 2026-09-02 23:34:44 | 47.82236 | 12.23099 | 112° | 62km/h | 15105m | 4.6m/s | -57.5°C | 5.9% | 126.1hPa | 2.6V | 00:00:00 | 01:05:24 | 00:00:00 | |
| OE5MMP-10 | 2026-09-02 23:34:40 | 47.82258 | 12.23008 | 113° | 60km/h | 15086m | 4.7m/s | -57.3°C | 5.8% | 126.5hPa | 2.6V | 00:00:00 | 01:05:20 | 00:00:00 | |
| S52SK | 2026-09-02 23:34:39 | 47.82258 | 12.23008 | 113° | 58km/h | 15086m | 4.8m/s | 0°C | 0% | 0hPa | 2.6V | 00:00:00 | 00:00:00 | 00:00:00 | |
| DO3MHA-11 | 2026-09-02 23:34:34 | 47.82296 | 12.22889 | 119° | 64km/h | 15058m | 4.2m/s | -57.1°C | 5.7% | 127.0hPa | 2.6V | 00:00:00 | 01:05:14 | 08:30:00 | |
| OE5DRO-10 | 2026-09-02 23:34:33 | 47.82311 | 12.22845 | 117° | 62km/h | 15049m | 4.7m/s | -57.1°C | 5.7% | 127.2hPa | 2.6V | 00:00:00 | 00:00:00 | 08:30:00 | |
| PG1ADW-2 | 2026-09-02 23:34:31 | 47.82319 | 12.22823 | 116° | 60km/h | 15045m | 3.9m/s | -57.0°C | 5.7% | 127.3hPa | 2.7V | 00:00:00 | 00:00:00 | 00:00:00 | |
| OE5MMP-10 | 2026-09-02 23:34:30 | 47.82326 | 12.22801 | 117° | 60km/h | 15040m | 4.4m/s | -57.0°C | 5.7% | 127.4hPa | 2.7V | 00:00:00 | 01:05:10 | 08:30:00 | |
| OE5WHR-10 | 2026-09-02 23:34:28 | 47.82341 | 12.22757 | 118° | 60km/h | 15031m | 3.9m/s | -57.1°C | 5.7% | 127.6hPa | 2.7V | 00:00:00 | 00:00:00 | 00:00:00 | |
| DG1MFX-10 | 2026-09-02 23:34:27 | 47.82341 | 12.22757 | 119° | 66km/h | 15031m | 3.9m/s | -57.1°C | 2.5% | 127.6hPa | 2.7V | 00:00:00 | 00:00:00 | 00:00:00 | |
| OE5FHM-15 | 2026-09-02 23:34:25 | 47.82361 | 12.22694 | 114° | 64km/h | 15019m | 4.0m/s | -57.3°C | 5.7% | 127.9hPa | 2.7V | 00:00:00 | 01:05:05 | 00:00:00 | |
| DO3MHA-11 | 2026-09-02 23:34:24 | 47.82367 | 12.22675 | 115° | 60km/h | 15014m | 4.5m/s | -57.4°C | 5.9% | 128.0hPa | 2.7V | 00:00:00 | 01:05:04 | 00:00:00 | |
| OE5MMP-10 | 2026-09-02 23:34:20 | 47.82394 | 12.22595 | 118° | 60km/h | 14996m | 4.9m/s | -57.4°C | 5.9% | 128.3hPa | 2.7V | 00:00:00 | 01:05:00 | 00:00:00 | |
| OE5DRO-10 | 2026-09-02 23:34:13 | 47.82451 | 12.22462 | 128° | 66km/h | 14962m | 5.4m/s | -57.8°C | 6.1% | 129.0hPa | 2.7V | 00:00:00 | 00:00:00 | 00:00:00 | |
| DO3MHA-11 | 2026-09-02 23:34:12 | 47.82460 | 12.22445 | 130° | 66km/h | 14957m | 4.4m/s | -57.8°C | 6.2% | 129.1hPa | 2.7V | 00:00:00 | 01:04:52 | 00:00:00 | |
| DB0UT-7 | 2026-09-02 23:34:11 | 47.82470 | 12.22428 | 130° | 66km/h | 14953m | 3.5m/s | -57.8°C | 6.1% | 129.2hPa | 2.7V | 00:00:00 | 01:04:51 | 00:00:00 | |
| OE5MMP-10 | 2026-09-02 23:34:10 | 47.82480 | 12.22410 | 128° | 68km/h | 14949m | 4.6m/s | -57.8°C | 6.1% | 129.3hPa | 2.7V | 00:00:00 | 01:04:50 | 00:00:00 | |
| OE5WHR-10 | 2026-09-02 23:34:07 | 47.82509 | 12.22347 | 124° | 66km/h | 14935m | 4.6m/s | -57.7°C | 6.1% | 129.5hPa | 2.7V | 00:00:00 | 01:04:47 | 00:00:00 | |
| DO3MHA-11 | 2026-09-02 23:34:02 | 47.82561 | 12.22241 | 128° | 66km/h | 14912m | 3.9m/s | -57.6°C | 6.1% | 130.0hPa | 2.7V | 00:00:00 | 01:04:42 | 00:00:00 | |
| OE5MMP-10 | 2026-09-02 23:34:00 | 47.82582 | 12.22204 | 131° | 66km/h | 14903m | 4.9m/s | -57.5°C | 6.1% | 130.2hPa | 2.6V | 00:00:00 | 01:04:40 | 00:00:00 | |
| OE5FHM-15 | 2026-09-02 23:33:55 | 47.82634 | 12.22109 | 129° | 62km/h | 14880m | 5.3m/s | -57.4°C | 6.0% | 130.7hPa | 2.6V | 00:00:00 | 01:04:35 | 00:00:00 | |
| OE5DRO-10 | 2026-09-02 23:33:54 | 47.82645 | 12.22090 | 130° | 62km/h | 14875m | 3.6m/s | -57.3°C | 6.0% | 130.8hPa | 2.6V | 00:00:00 | 00:00:00 | 00:00:00 | |
| PG1ADW-2 | 2026-09-02 23:33:51 | 47.82676 | 12.22034 | 131° | 62km/h | 14862m | 3.5m/s | -57.2°C | 6.0% | 131.1hPa | 2.6V | 00:00:00 | 00:00:00 | 00:00:00 | |
| OE5DXL-15 | 2026-09-02 23:33:50 | 47.82687 | 12.22017 | 132° | 62km/h | 14858m | 5.2m/s | -57.2°C | 6.0% | 131.1hPa | 2.6V | 00:00:00 | 00:00:00 | 00:00:00 | |
| OE5WHR-10 | 2026-09-02 23:33:46 | 47.82730 | 12.21947 | 134° | 62km/h | 14839m | 4.1m/s | -57.1°C | 6.0% | 131.5hPa | 2.6V | 00:00:00 | 00:00:00 | 00:00:00 | |
| DB0UT-7 | 2026-09-02 23:33:41 | 47.82788 | 12.21862 | 136° | 73km/h | 14817m | 4.0m/s | -56.9°C | 5.9% | 132.0hPa | 2.7V | 00:00:00 | 00:00:00 | 00:00:00 | |
| OE5MMP-10 | 2026-09-02 23:33:40 | 47.82799 | 12.21846 | 138° | 62km/h | 14812m | 4.4m/s | -56.8°C | 5.9% | 132.1hPa | 2.7V | 00:00:00 | 01:04:20 | 00:00:00 | |
| OE5DRO-10 | 2026-09-02 23:33:35 | 47.82856 | 12.21769 | 136° | 62km/h | 14790m | 4.5m/s | -56.6°C | 5.8% | 132.6hPa | 2.7V | 00:00:00 | 00:00:00 | 00:00:00 | |
| PG1ADW-2 | 2026-09-02 23:33:31 | 47.82901 | 12.21701 | 135° | 64km/h | 14771m | 3.3m/s | -56.5°C | 5.8% | 133.0hPa | 2.6V | 00:00:00 | 00:00:00 | 00:00:00 | |
| OE5MMP-10 | 2026-09-02 23:33:30 | 47.82912 | 12.21685 | 137° | 62km/h | 14767m | 4.6m/s | -56.4°C | 5.8% | 133.1hPa | 2.6V | 00:00:00 | 01:04:10 | 00:00:00 | |
| DG1MFX-10 | 2026-09-02 23:33:26 | 47.82946 | 12.21638 | 139° | 60km/h | 14753m | 4.9m/s | -56.4°C | 2.6% | 133.4hPa | 2.6V | 00:00:00 | 00:00:00 | 00:00:00 | |
| OE5FHM-15 | 2026-09-02 23:33:25 | 47.82969 | 12.21606 | 136° | 68km/h | 14743m | 4.3m/s | -56.3°C | 5.9% | 133.5hPa | 2.6V | 00:00:00 | 01:04:05 | 08:30:00 | |
| OE5MMP-10 | 2026-09-02 23:33:20 | 47.83028 | 12.21525 | 136° | 64km/h | 14721m | 5.2m/s | -56.2°C | 5.7% | 134.0hPa | 2.7V | 00:00:00 | 01:04:00 | 00:00:00 | |
| OE5DRO-10 | 2026-09-02 23:33:16 | 47.83071 | 12.21463 | 138° | 69km/h | 14702m | 3.5m/s | -56.1°C | 5.7% | 134.4hPa | 2.7V | 00:00:00 | 00:00:00 | 00:00:00 | |
| PG1ADW-2 | 2026-09-02 23:33:11 | 47.83133 | 12.21377 | 140° | 71km/h | 14675m | 4.8m/s | -56.0°C | 5.7% | 135.0hPa | 2.7V | 00:00:00 | 00:00:00 | 00:00:00 | |
| OE5MMP-10 | 2026-09-02 23:33:10 | 47.83146 | 12.21360 | 140° | 69km/h | 14671m | 3.9m/s | -56.0°C | 5.6% | 135.1hPa | 2.7V | 00:00:00 | 01:03:50 | 00:00:00 | |
| DG1MFX-10 | 2026-09-02 23:33:05 | 47.83195 | 12.21290 | 137° | 68km/h | 14653m | 5.2m/s | -55.9°C | 2.6% | 135.5hPa | 2.7V | 00:00:00 | 00:00:00 | 00:00:00 | |
| OE5WHR-10 | 2026-09-02 23:33:04 | 47.83222 | 12.21255 | 141° | 75km/h | 14644m | 4.0m/s | -55.8°C | 5.7% | 135.6hPa | 2.7V | 00:00:00 | 01:03:44 | 00:00:00 | |
| OE5MMP-10 | 2026-09-02 23:33:00 | 47.83278 | 12.21184 | 139° | 73km/h | 14624m | 4.3m/s | -55.7°C | 5.7% | 136.1hPa | 2.7V | 00:00:00 | 01:03:40 | 08:30:00 | |
| BAUMI2-15 | 2026-09-02 23:32:57 | 47.83321 | 12.21129 | 138° | 73km/h | 14609m | 5.2m/s | -55.7°C | 5.7% | 136.4hPa | 2.6V | 00:00:00 | 01:03:37 | 00:00:00 | |
| OE5FHM-15 | 2026-09-02 23:32:55 | 47.83348 | 12.21092 | 139° | 80km/h | 14601m | 4.0m/s | -55.7°C | 5.6% | 136.6hPa | 2.6V | 00:00:00 | 01:03:35 | 00:00:00 | |
| BAUMI2-15 | 2026-09-02 23:32:52 | 47.83390 | 12.21042 | 142° | 73km/h | 14589m | 4.0m/s | -55.7°C | 5.6% | 136.8hPa | 2.6V | 00:00:00 | 01:03:32 | 00:00:00 | |
| PG1ADW-2 | 2026-09-02 23:32:51 | 47.83405 | 12.21025 | 141° | 80km/h | 14585m | 4.7m/s | -55.8°C | 5.6% | 136.9hPa | 2.6V | 00:00:00 | 01:03:31 | 00:00:00 | |
| OE5MMP-10 | 2026-09-02 23:32:50 | 47.83418 | 12.21007 | 139° | 78km/h | 14581m | 3.6m/s | -55.8°C | 5.6% | 137.0hPa | 2.6V | 00:00:00 | 01:03:30 | 00:00:00 | |
| BAUMI2-15 | 2026-09-02 23:32:47 | 47.83461 | 12.20952 | 140° | 80km/h | 14568m | 3.4m/s | -55.8°C | 5.7% | 137.3hPa | 2.6V | 00:00:00 | 01:03:27 | 08:30:00 | |
| DG1MFX-10 | 2026-09-02 23:32:45 | 47.83476 | 12.20933 | 140° | 78km/h | 14564m | 3.9m/s | -55.8°C | 2.6% | 137.4hPa | 2.6V | 00:00:00 | 00:00:00 | 00:00:00 | |
| OE5WHR-10 | 2026-09-02 23:32:43 | 47.83521 | 12.20870 | 135° | 86km/h | 14551m | 4.2m/s | -55.8°C | 5.7% | 137.7hPa | 2.6V | 00:00:00 | 00:00:00 | 08:30:00 | |
| BAUMI2-15 | 2026-09-02 23:32:42 | 47.83535 | 12.20849 | 137° | 82km/h | 14546m | 5.5m/s | -55.8°C | 5.6% | 137.8hPa | 2.7V | 00:00:00 | 01:03:22 | 00:00:00 | |
| DO3MHA-11 | 2026-09-02 23:32:41 | 47.83551 | 12.20828 | 139° | 84km/h | 14541m | 3.8m/s | -55.8°C | 5.6% | 137.9hPa | 2.7V | 00:00:00 | 01:03:21 | 00:00:00 | |
| OE5MMP-10 | 2026-09-02 23:32:40 | 47.83566 | 12.20808 | 139° | 84km/h | 14537m | 3.5m/s | -55.8°C | 5.6% | 137.9hPa | 2.7V | 00:00:00 | 01:03:20 | 00:00:00 | |
| OE5DRO-10 | 2026-09-02 23:32:38 | 47.83596 | 12.20766 | 136° | 88km/h | 14528m | 5.2m/s | -55.9°C | 5.7% | 138.2hPa | 2.7V | 00:00:00 | 00:00:00 | 00:00:00 | |
| BAUMI2-15 | 2026-09-02 23:32:37 | 47.83611 | 12.20745 | 136° | 84km/h | 14523m | 4.1m/s | -55.9°C | 5.7% | 138.3hPa | 2.6V | 00:00:00 | 01:03:17 | 00:00:00 | |
| DB0UT-7 | 2026-09-02 23:32:32 | 47.83686 | 12.20632 | 134° | 93km/h | 14499m | 4.3m/s | -56.0°C | 5.8% | 138.8hPa | 2.6V | 00:00:00 | 01:03:12 | 00:00:00 | |
| DO3MHA-11 | 2026-09-02 23:32:31 | 47.83701 | 12.20608 | 134° | 88km/h | 14495m | 5.1m/s | -56.0°C | 5.8% | 138.9hPa | 2.6V | 00:00:00 | 01:03:11 | 00:00:00 | |
| OE5MMP-10 | 2026-09-02 23:32:30 | 47.83717 | 12.20584 | 134° | 88km/h | 14490m | 3.6m/s | -56.0°C | 5.8% | 139.0hPa | 2.6V | 00:00:00 | 01:03:10 | 00:00:00 | |
| BAUMI2-15 | 2026-09-02 23:32:26 | 47.83777 | 12.20486 | 133° | 88km/h | 14473m | 5.2m/s | -56.2°C | 5.8% | 139.4hPa | 2.6V | 00:00:00 | 01:03:06 | 00:00:00 | |
| OE5FHM-15 | 2026-09-02 23:32:25 | 47.83791 | 12.20462 | 134° | 93km/h | 14468m | 4.1m/s | -56.3°C | 5.8% | 139.5hPa | 2.6V | 00:00:00 | 01:03:05 | 00:00:00 | |
| DG1MFX-10 | 2026-09-02 23:32:24 | 47.83791 | 12.20462 | 135° | 86km/h | 14468m | 4.1m/s | -56.4°C | 2.7% | 139.5hPa | 2.6V | 00:00:00 | 00:00:00 | 00:00:00 | |
| OE5WHR-10 | 2026-09-02 23:32:22 | 47.83837 | 12.20390 | 134° | 89km/h | 14455m | 3.9m/s | -56.5°C | 6.0% | 139.8hPa | 2.6V | 00:00:00 | 00:00:00 | 00:00:00 | |
| BAUMI2-15 | 2026-09-02 23:32:21 | 47.83853 | 12.20366 | 135° | 93km/h | 14450m | 5.1m/s | -56.5°C | 6.0% | 139.9hPa | 2.6V | 00:00:00 | 01:03:01 | 00:00:00 | |
| OE5DXL-15 | 2026-09-02 23:32:20 | 47.83869 | 12.20341 | 135° | 93km/h | 14446m | 4.1m/s | -56.5°C | 6.0% | 139.9hPa | 2.6V | 00:00:00 | 00:00:00 | 08:30:00 | |
| OE5DRO-10 | 2026-09-02 23:32:19 | 47.83885 | 12.20317 | 134° | 95km/h | 14441m | 4.0m/s | -56.5°C | 6.0% | 140.0hPa | 2.7V | 00:00:00 | 00:00:00 | 00:00:00 | |
| BAUMI2-15 | 2026-09-02 23:32:16 | 47.83933 | 12.20238 | 131° | 97km/h | 14427m | 4.4m/s | -56.6°C | 6.1% | 140.4hPa | 2.7V | 00:00:00 | 01:02:56 | 00:00:00 | |
| BAUMI2-15 | 2026-09-02 23:32:11 | 47.84014 | 12.20103 | 133° | 95km/h | 14404m | 5.2m/s | -56.7°C | 6.2% | 140.9hPa | 2.6V | 00:00:00 | 01:02:51 | 00:00:00 | |
| OE5MMP-10 | 2026-09-02 23:32:10 | 47.84030 | 12.20077 | 134° | 93km/h | 14399m | 3.8m/s | -56.7°C | 6.2% | 141.0hPa | 2.6V | 00:00:00 | 01:02:50 | 00:00:00 | |
| BAUMI2-15 | 2026-09-02 23:32:06 | 47.84093 | 12.19972 | 132° | 93km/h | 14382m | 5.2m/s | -56.6°C | 6.3% | 141.4hPa | 2.6V | 00:00:00 | 01:02:46 | 00:00:00 | |
| DG1MFX-10 | 2026-09-02 23:32:03 | 47.84124 | 12.19920 | 133° | 93km/h | 14374m | 3.3m/s | -56.6°C | 3.0% | 141.6hPa | 2.6V | 00:00:00 | 00:00:00 | 00:00:00 | |
| BAUMI2-15 | 2026-09-02 23:32:01 | 47.84170 | 12.19840 | 130° | 95km/h | 14360m | 4.5m/s | -56.5°C | 6.2% | 141.9hPa | 2.6V | 00:00:00 | 01:02:41 | 08:30:00 | |
| OE5MMP-10 | 2026-09-02 23:32:00 | 47.84186 | 12.19812 | 131° | 89km/h | 14355m | 4.8m/s | -56.5°C | 6.2% | 142.0hPa | 2.6V | 00:00:00 | 01:02:40 | 00:00:00 | |
| DO3MHA-11 | 2026-09-02 23:31:59 | 47.84201 | 12.19786 | 131° | 89km/h | 14351m | 4.0m/s | -56.5°C | 6.3% | 142.1hPa | 2.6V | 00:00:00 | 01:02:39 | 00:00:00 | |
| DB0UT-7 | 2026-09-02 23:31:57 | 47.84232 | 12.19731 | 130° | 89km/h | 14341m | 3.7m/s | -56.6°C | 6.3% | 142.3hPa | 2.6V | 00:00:00 | 00:00:00 | 00:00:00 | |
| OE5FHM-15 | 2026-09-02 23:31:55 | 47.84262 | 12.19679 | 132° | 89km/h | 14333m | 3.9m/s | -56.6°C | 6.3% | 142.5hPa | 2.6V | 00:00:00 | 01:02:35 | 00:00:00 | |
| PG1ADW-2 | 2026-09-02 23:31:51 | 47.84318 | 12.19580 | 128° | 89km/h | 14316m | 3.4m/s | -56.5°C | 6.2% | 142.9hPa | 2.7V | 00:00:00 | 00:00:00 | 00:00:00 | |
| OE5DXL-15 | 2026-09-02 23:31:50 | 47.84331 | 12.19555 | 128° | 91km/h | 14311m | 5.0m/s | -56.5°C | 6.1% | 143.0hPa | 2.7V | 00:00:00 | 00:00:00 | 00:00:00 | |
| OE5WHR-10 | 2026-09-02 23:31:49 | 47.84344 | 12.19530 | 128° | 89km/h | 14307m | 3.9m/s | -56.5°C | 6.1% | 143.1hPa | 2.7V | 00:00:00 | 01:02:29 | 00:00:00 | |
| BAUMI2-15 | 2026-09-02 23:31:45 | 47.84396 | 12.19428 | 128° | 91km/h | 14290m | 4.8m/s | -56.4°C | 6.2% | 143.5hPa | 2.7V | 00:00:00 | 01:02:25 | 00:00:00 | |
| DG1MFX-10 | 2026-09-02 23:31:42 | 47.84425 | 12.19374 | 131° | 93km/h | 14280m | 4.0m/s | -56.5°C | 3.0% | 143.8hPa | 2.6V | 00:00:00 | 00:00:00 | 00:00:00 | |
| OE5DRO-10 | 2026-09-02 23:31:41 | 47.84455 | 12.19321 | 130° | 91km/h | 14271m | 3.8m/s | -56.4°C | 6.3% | 143.9hPa | 2.6V | 00:00:00 | 00:00:00 | 08:30:00 | |
| OE5MMP-10 | 2026-09-02 23:31:40 | 47.84470 | 12.19295 | 131° | 89km/h | 14267m | 4.5m/s | -56.4°C | 6.3% | 144.0hPa | 2.7V | 00:00:00 | 01:02:20 | 00:00:00 | |
| DO3MHA-11 | 2026-09-02 23:31:39 | 47.84485 | 12.19269 | 132° | 89km/h | 14263m | 4.5m/s | -56.3°C | 6.3% | 144.1hPa | 2.7V | 00:00:00 | 01:02:19 | 00:00:00 | |
| BAUMI2-15 | 2026-09-02 23:31:35 | 47.84543 | 12.19164 | 127° | 89km/h | 14246m | 3.7m/s | -56.3°C | 6.3% | 144.5hPa | 2.7V | 00:00:00 | 01:02:15 | 00:00:00 | |
| PG1ADW-2 | 2026-09-02 23:31:31 | 47.84598 | 12.19058 | 129° | 93km/h | 14230m | 3.8m/s | -56.2°C | 6.3% | 144.8hPa | 2.7V | 00:00:00 | 01:02:11 | 00:00:00 | |
| OE5MMP-10 | 2026-09-02 23:31:30 | 47.84612 | 12.19031 | 128° | 93km/h | 14226m | 5.2m/s | -56.2°C | 6.3% | 145.0hPa | 2.7V | 00:00:00 | 01:02:10 | 08:30:00 | |
| DO3MHA-11 | 2026-09-02 23:31:29 | 47.84627 | 12.19003 | 129° | 93km/h | 14221m | 3.9m/s | -56.3°C | 6.3% | 145.1hPa | 2.7V | 00:00:00 | 01:02:09 | 00:00:00 | |
| OE5WHR-10 | 2026-09-02 23:31:28 | 47.84642 | 12.18976 | 130° | 93km/h | 14216m | 5.3m/s | -56.3°C | 6.3% | 145.2hPa | 2.7V | 00:00:00 | 00:00:00 | 00:00:00 | |
| OE5FHM-15 | 2026-09-02 23:31:25 | 47.84688 | 12.18893 | 129° | 93km/h | 14203m | 4.7m/s | -56.3°C | 6.4% | 145.5hPa | 2.7V | 00:00:00 | 01:02:05 | 00:00:00 | |
| OE5DRO-10 | 2026-09-02 23:31:22 | 47.84731 | 12.18810 | 129° | 93km/h | 14190m | 4.2m/s | -56.3°C | 6.3% | 145.8hPa | 2.7V | 00:00:00 | 00:00:00 | 00:00:00 | |
| DG1MFX-10 | 2026-09-02 23:31:21 | 47.84731 | 12.18810 | 129° | 93km/h | 14190m | 4.2m/s | -56.4°C | 3.1% | 145.8hPa | 2.7V | 00:00:00 | 00:00:00 | 00:00:00 | |
| OE5DXL-15 | 2026-09-02 23:31:20 | 47.84760 | 12.18755 | 126° | 91km/h | 14182m | 5.1m/s | -56.3°C | 6.4% | 145.9hPa | 2.7V | 00:00:00 | 00:00:00 | 00:00:00 | |
| DO3MHA-11 | 2026-09-02 23:31:19 | 47.84773 | 12.18727 | 125° | 95km/h | 14177m | 4.5m/s | -56.3°C | 6.4% | 146.1hPa | 2.7V | 00:00:00 | 01:01:59 | 00:00:00 | |
| BAUMI2-15 | 2026-09-02 23:31:15 | 47.84828 | 12.18611 | 128° | 95km/h | 14159m | 3.2m/s | -56.3°C | 6.5% | 146.5hPa | 2.6V | 00:00:00 | 01:01:55 | 08:30:00 | |
| PG1ADW-2 | 2026-09-02 23:31:11 | 47.84883 | 12.18495 | 124° | 91km/h | 14142m | 4.0m/s | -56.4°C | 6.6% | 146.9hPa | 2.7V | 00:00:00 | 00:00:00 | 00:00:00 | |
| OE5MMP-10 | 2026-09-02 23:31:10 | 47.84896 | 12.18466 | 124° | 91km/h | 14138m | 4.7m/s | -56.3°C | 6.6% | 147.0hPa | 2.7V | 00:00:00 | 01:01:50 | 00:00:00 | |
| DO3MHA-11 | 2026-09-02 23:31:09 | 47.84909 | 12.18438 | 124° | 88km/h | 14133m | 4.0m/s | -56.3°C | 6.5% | 147.1hPa | 2.7V | 00:00:00 | 01:01:49 | 00:00:00 | |
| OE5WHR-10 | 2026-09-02 23:31:07 | 47.84934 | 12.18380 | 123° | 89km/h | 14124m | 4.1m/s | -56.2°C | 6.7% | 147.3hPa | 2.7V | 00:00:00 | 00:00:00 | 00:00:00 | |
| BAUMI2-15 | 2026-09-02 23:31:05 | 47.84959 | 12.18324 | 125° | 91km/h | 14115m | 4.6m/s | -56.2°C | 6.6% | 147.5hPa | 2.7V | 00:00:00 | 01:01:45 | 00:00:00 | |
| OE5DRO-10 | 2026-09-02 23:31:03 | 47.84985 | 12.18268 | 124° | 89km/h | 14107m | 4.9m/s | -56.1°C | 6.6% | 147.7hPa | 2.7V | 00:00:00 | 00:00:00 | 00:00:00 | |
| DG1MFX-10 | 2026-09-02 23:31:01 | 47.84997 | 12.18239 | 123° | 91km/h | 14103m | 4.2m/s | -56.2°C | 3.3% | 147.8hPa | 2.7V | 00:00:00 | 00:00:00 | 00:00:00 | |
| OE5MMP-10 | 2026-09-02 23:31:00 | 47.85021 | 12.18180 | 121° | 91km/h | 14094m | 4.5m/s | -56.1°C | 6.6% | 148.0hPa | 2.7V | 00:00:00 | 01:01:40 | 00:00:00 | |
| OE5FHM-15 | 2026-09-02 23:30:55 | 47.85081 | 12.18029 | 121° | 88km/h | 14073m | 4.8m/s | -56.0°C | 6.5% | 148.5hPa | 2.6V | 00:00:00 | 01:01:35 | 00:00:00 | |
| PG1ADW-2 | 2026-09-02 23:30:51 | 47.85128 | 12.17915 | 123° | 88km/h | 14055m | 4.2m/s | -56.0°C | 6.4% | 148.9hPa | 2.6V | 00:00:00 | 00:00:00 | 00:00:00 | |
| OE5MMP-10 | 2026-09-02 23:30:50 | 47.85140 | 12.17888 | 124° | 88km/h | 14051m | 5.0m/s | -56.0°C | 6.6% | 149.0hPa | 2.6V | 00:00:00 | 01:01:30 | 00:00:00 | |
| OE5WHR-10 | 2026-09-02 23:30:46 | 47.85189 | 12.17781 | 124° | 88km/h | 14034m | 3.4m/s | -55.9°C | 6.6% | 149.4hPa | 2.6V | 00:00:00 | 01:01:26 | 00:00:00 | |
| DB0UT-7 | 2026-09-02 23:30:44 | 47.85214 | 12.17724 | 123° | 86km/h | 14025m | 4.6m/s | -55.9°C | 6.6% | 149.6hPa | 2.6V | 00:00:00 | 01:01:24 | 08:30:00 | |
| DO3MHA-11 | 2026-09-02 23:30:42 | 47.85237 | 12.17667 | 121° | 86km/h | 14017m | 4.2m/s | -55.9°C | 6.7% | 149.8hPa | 2.7V | 00:00:00 | 01:01:22 | 00:00:00 | |
| OE5MMP-10 | 2026-09-02 23:30:40 | 47.85260 | 12.17610 | 121° | 86km/h | 14009m | 3.5m/s | -55.9°C | 6.7% | 150.0hPa | 2.7V | 00:00:00 | 01:01:20 | 00:00:00 | |
| DO3MHA-11 | 2026-09-02 23:30:32 | 47.85346 | 12.17388 | 125° | 82km/h | 13976m | 3.5m/s | -55.9°C | 6.7% | 150.8hPa | 2.7V | 00:00:00 | 01:01:12 | 00:00:00 | |
| PG1ADW-2 | 2026-09-02 23:30:31 | 47.85359 | 12.17361 | 125° | 86km/h | 13971m | 4.7m/s | -55.9°C | 6.7% | 150.9hPa | 2.7V | 00:00:00 | 00:00:00 | 00:00:00 | |
| OE5MMP-10 | 2026-09-02 23:30:30 | 47.85371 | 12.17334 | 124° | 82km/h | 13967m | 4.4m/s | -55.9°C | 6.8% | 151.0hPa | 2.7V | 00:00:00 | 01:01:10 | 00:00:00 | |
| OE5WHR-10 | 2026-09-02 23:30:25 | 47.85430 | 12.17203 | 123° | 88km/h | 13944m | 5.0m/s | -56.1°C | 6.9% | 151.5hPa | 2.7V | 00:00:00 | 00:00:00 | 00:00:00 | |
| DO3MHA-11 | 2026-09-02 23:30:22 | 47.85462 | 12.17127 | 123° | 88km/h | 13932m | 4.6m/s | -56.1°C | 6.9% | 151.8hPa | 2.7V | 00:00:00 | 01:01:02 | 00:00:00 | |
| OE5MMP-10 | 2026-09-02 23:30:20 | 47.85485 | 12.17075 | 124° | 88km/h | 13924m | 3.5m/s | -56.1°C | 6.9% | 152.0hPa | 2.7V | 00:00:00 | 01:01:00 | 00:00:00 | |
| DB0UT-7 | 2026-09-02 23:30:14 | 47.85559 | 12.16908 | 125° | 108km/h | 13898m | 4.7m/s | -56.2°C | 7.1% | 152.6hPa | 2.7V | 00:00:00 | 00:00:00 | 00:00:00 | |
| DO3MHA-11 | 2026-09-02 23:30:12 | 47.85583 | 12.16853 | 123° | 88km/h | 13890m | 3.3m/s | -56.2°C | 7.1% | 152.8hPa | 2.7V | 00:00:00 | 01:00:52 | 00:00:00 | |
| PG1ADW-2 | 2026-09-02 23:30:11 | 47.85595 | 12.16826 | 123° | 84km/h | 13886m | 4.5m/s | -56.1°C | 7.1% | 152.9hPa | 2.7V | 00:00:00 | 01:00:51 | 00:00:00 | |
| OE5MMP-10 | 2026-09-02 23:30:10 | 47.85606 | 12.16799 | 124° | 86km/h | 13882m | 3.7m/s | -56.1°C | 7.1% | 153.0hPa | 2.7V | 00:00:00 | 01:00:50 | 00:00:00 | |
| OE5DRO-10 | 2026-09-02 23:30:06 | 47.85656 | 12.16688 | 125° | 84km/h | 13866m | 3.8m/s | -56.1°C | 7.1% | 153.4hPa | 2.7V | 00:00:00 | 00:00:00 | 00:00:00 | |
| DO3MHA-11 | 2026-09-02 23:30:02 | 47.85706 | 12.16587 | 128° | 82km/h | 13850m | 3.9m/s | -56.0°C | 7.1% | 153.8hPa | 2.7V | 00:00:00 | 01:00:42 | 08:30:00 | |
| OE5MMP-10 | 2026-09-02 23:30:00 | 47.85730 | 12.16538 | 127° | 84km/h | 13841m | 3.7m/s | -55.9°C | 7.2% | 154.0hPa | 2.7V | 00:00:00 | 01:00:40 | 08:30:00 | |
| DG1MFX-10 | 2026-09-02 23:29:59 | 47.85730 | 12.16538 | 127° | 82km/h | 13841m | 3.7m/s | -56.0°C | 3.9% | 154.1hPa | 2.7V | 00:00:00 | 00:00:00 | 00:00:00 | |
| OE5FHM-15 | 2026-09-02 23:29:55 | 47.85797 | 12.16418 | 130° | 89km/h | 13819m | 4.8m/s | -55.8°C | 7.2% | 154.5hPa | 2.7V | 00:00:00 | 01:00:35 | 00:00:00 | |
| DO3MHA-11 | 2026-09-02 23:29:52 | 47.85839 | 12.16346 | 131° | 88km/h | 13807m | 4.1m/s | -55.7°C | 7.2% | 154.9hPa | 2.7V | 00:00:00 | 01:00:32 | 00:00:00 | |
| PG1ADW-2 | 2026-09-02 23:29:51 | 47.85852 | 12.16322 | 130° | 88km/h | 13802m | 5.1m/s | -55.7°C | 7.2% | 155.0hPa | 2.7V | 00:00:00 | 00:00:00 | 00:00:00 | |
| OE5DXL-15 | 2026-09-02 23:29:50 | 47.85866 | 12.16297 | 129° | 91km/h | 13797m | 4.3m/s | -55.6°C | 7.2% | 155.0hPa | 2.7V | 00:00:00 | 00:00:00 | 00:00:00 | |
| DO3MHA-11 | 2026-09-02 23:29:41 | 47.85996 | 12.16074 | 134° | 95km/h | 13759m | 3.9m/s | -55.5°C | 7.6% | 156.0hPa | 2.7V | 00:00:00 | 01:00:21 | 00:00:00 | |
| OE5MMP-10 | 2026-09-02 23:29:40 | 47.86012 | 12.16049 | 133° | 89km/h | 13755m | 5.2m/s | -55.5°C | 7.7% | 156.1hPa | 2.7V | 00:00:00 | 01:00:20 | 00:00:00 | |
| DG1MFX-10 | 2026-09-02 23:29:39 | 47.86012 | 12.16049 | 134° | 89km/h | 13755m | 5.2m/s | -55.6°C | 4.3% | 156.2hPa | 2.7V | 00:00:00 | 00:00:00 | 00:00:00 | |
| OE5HKT-10 | 2026-09-02 23:29:33 | 47.86119 | 12.15874 | 133° | 108km/h | 13723m | 4.0m/s | 0°C | 0% | 0hPa | 2.7V | 00:00:00 | 00:00:00 | 00:00:00 | |
| PG1ADW-2 | 2026-09-02 23:29:31 | 47.86150 | 12.15825 | 135° | 97km/h | 13715m | 4.4m/s | -55.3°C | 7.5% | 157.1hPa | 2.7V | 00:00:00 | 00:00:00 | 08:30:00 | |
| OE5MMP-10 | 2026-09-02 23:29:30 | 47.86166 | 12.15801 | 135° | 97km/h | 13711m | 4.0m/s | -55.3°C | 7.5% | 157.2hPa | 2.7V | 00:00:00 | 01:00:10 | 00:00:00 | |
| OE5DRO-10 | 2026-09-02 23:29:28 | 47.86197 | 12.15751 | 133° | 99km/h | 13702m | 4.6m/s | -55.3°C | 7.6% | 157.4hPa | 2.7V | 00:00:00 | 00:00:00 | 00:00:00 | |
| OE5WHR-10 | 2026-09-02 23:29:26 | 47.86230 | 12.15697 | 133° | 99km/h | 13694m | 4.5m/s | -55.2°C | 7.6% | 157.6hPa | 2.7V | 00:00:00 | 00:00:00 | 00:00:00 | |
| OE5FHM-15 | 2026-09-02 23:29:25 | 47.86247 | 12.15670 | 134° | 100km/h | 13690m | 4.1m/s | -55.2°C | 7.6% | 157.7hPa | 2.7V | 00:00:00 | 01:00:05 | 00:00:00 | |
| DG1MFX-10 | 2026-09-02 23:29:18 | 47.86352 | 12.15512 | 137° | 95km/h | 13664m | 4.9m/s | -55.1°C | 4.4% | 158.4hPa | 2.7V | 00:00:00 | 00:00:00 | 00:00:00 | |
| PG1ADW-2 | 2026-09-02 23:29:11 | 47.86489 | 12.15301 | 133° | 102km/h | 13630m | 4.7m/s | -55.0°C | 7.9% | 159.2hPa | 2.7V | 00:00:00 | 00:00:00 | 00:00:00 | |
| OE5MMP-10 | 2026-09-02 23:29:10 | 47.86507 | 12.15273 | 133° | 100km/h | 13625m | 4.0m/s | -55.0°C | 8.0% | 159.3hPa | 2.7V | 00:00:00 | 00:59:50 | 00:00:00 | |
| OE5DRO-10 | 2026-09-02 23:29:09 | 47.86525 | 12.15245 | 134° | 104km/h | 13621m | 4.8m/s | -55.1°C | 8.1% | 159.4hPa | 2.7V | 00:00:00 | 00:00:00 | 00:00:00 | |
| OE5WHR-10 | 2026-09-02 23:29:05 | 47.86595 | 12.15137 | 136° | 106km/h | 13605m | 4.4m/s | -55.2°C | 8.1% | 159.8hPa | 2.7V | 00:00:00 | 00:59:45 | 00:00:00 | |
| OE5MMP-10 | 2026-09-02 23:29:00 | 47.86683 | 12.15001 | 133° | 106km/h | 13585m | 4.4m/s | -55.1°C | 8.4% | 160.3hPa | 2.7V | 00:00:00 | 00:59:40 | 00:00:00 | |
| DG1MFX-10 | 2026-09-02 23:28:57 | 47.86718 | 12.14943 | 133° | 106km/h | 13577m | 3.0m/s | -55.2°C | 5.1% | 160.6hPa | 2.7V | 00:00:00 | 00:00:00 | 00:00:00 | |
| OE5FHM-15 | 2026-09-02 23:28:55 | 47.86771 | 12.14854 | 133° | 111km/h | 13565m | 3.7m/s | -55.1°C | 8.6% | 160.8hPa | 2.7V | 00:00:00 | 00:59:35 | 08:30:00 | |
| PG1ADW-2 | 2026-09-02 23:28:51 | 47.86847 | 12.14735 | 133° | 113km/h | 13550m | 4.1m/s | -55.2°C | 8.8% | 161.2hPa | 2.7V | 00:00:00 | 00:59:31 | 00:00:00 | |
| OE5DXL-15 | 2026-09-02 23:28:50 | 47.86865 | 12.14704 | 132° | 111km/h | 13546m | 2.4m/s | -55.2°C | 8.8% | 161.3hPa | 2.7V | 00:00:00 | 00:00:00 | 00:00:00 | |
| BAUMI2-15 | 2026-09-02 23:28:45 | 47.86957 | 12.14546 | 130° | 110km/h | 13526m | 3.3m/s | -55.2°C | 9.0% | 161.8hPa | 2.7V | 00:00:00 | 00:59:25 | 00:00:00 | |
| OE5WHR-10 | 2026-09-02 23:28:44 | 47.86975 | 12.14514 | 130° | 110km/h | 13522m | 3.5m/s | -55.2°C | 9.0% | 161.9hPa | 2.7V | 00:00:00 | 00:00:00 | 08:30:00 | |
| OE5MMP-10 | 2026-09-02 23:28:41 | 47.87047 | 12.14389 | 131° | 111km/h | 13507m | 4.6m/s | -55.4°C | 9.3% | 162.3hPa | 2.7V | 00:00:00 | 00:59:20 | 00:00:00 | |
| BAUMI2-15 | 2026-09-02 23:28:40 | 47.87047 | 12.14389 | 131° | 108km/h | 13507m | 4.6m/s | -55.4°C | 9.3% | 162.3hPa | 2.7V | 00:00:00 | 00:59:20 | 00:00:00 | |
| DG1MFX-10 | 2026-09-02 23:28:37 | 47.87081 | 12.14328 | 131° | 106km/h | 13500m | 3.9m/s | -55.5°C | 5.9% | 162.5hPa | 2.7V | 00:00:00 | 00:00:00 | 00:00:00 | |
| BAUMI2-15 | 2026-09-02 23:28:35 | 47.87135 | 12.14235 | 131° | 115km/h | 13489m | 4.2m/s | -55.5°C | 9.6% | 162.8hPa | 2.7V | 00:00:00 | 00:59:15 | 00:00:00 | |
| OE5DRO-10 | 2026-09-02 23:28:31 | 47.87209 | 12.14102 | 130° | 115km/h | 13474m | 2.9m/s | -55.7°C | 10.0% | 163.2hPa | 2.7V | 00:00:00 | 00:00:00 | 00:00:00 | |
| OE5MMP-10 | 2026-09-02 23:28:30 | 47.87228 | 12.14068 | 129° | 113km/h | 13470m | 4.4m/s | -55.8°C | 10.2% | 163.2hPa | 2.7V | 00:00:00 | 00:59:10 | 08:30:00 | |
| OE5HKT-10 | 2026-09-02 23:28:26 | 47.87297 | 12.13934 | 129° | 110km/h | 13455m | 4.0m/s | 0°C | 0% | 0hPa | 2.7V | 00:00:00 | 00:59:06 | 00:00:00 | |
| OE5FHM-15 | 2026-09-02 23:28:25 | 47.87314 | 12.13901 | 129° | 113km/h | 13451m | 2.9m/s | -55.8°C | 10.3% | 163.7hPa | 2.7V | 00:00:00 | 00:59:05 | 00:00:00 | |
| OE5MMP-10 | 2026-09-02 23:28:20 | 47.87402 | 12.13731 | 128° | 115km/h | 13432m | 3.4m/s | -56.1°C | 10.8% | 164.2hPa | 2.7V | 00:00:00 | 00:59:00 | 00:00:00 | |
| DG1MFX-10 | 2026-09-02 23:28:16 | 47.87455 | 12.13623 | 127° | 119km/h | 13420m | 4.6m/s | -56.3°C | 7.3% | 164.6hPa | 2.7V | 00:00:00 | 00:00:00 | 00:00:00 | |
| BAUMI2-15 | 2026-09-02 23:28:15 | 47.87489 | 12.13552 | 125° | 110km/h | 13412m | 3.1m/s | -56.4°C | 11.5% | 164.7hPa | 2.7V | 00:00:00 | 00:58:55 | 00:00:00 | |
| OE5DRO-10 | 2026-09-02 23:28:12 | 47.87536 | 12.13448 | 124° | 111km/h | 13400m | 4.6m/s | -56.4°C | 11.8% | 165.0hPa | 2.7V | 00:00:00 | 00:00:00 | 00:00:00 | |
| OE5MMP-10 | 2026-09-02 23:28:10 | 47.87567 | 12.13380 | 125° | 111km/h | 13393m | 2.9m/s | -56.4°C | 11.9% | 165.2hPa | 2.7V | 00:00:00 | 00:58:50 | 00:00:00 | |
| BAUMI2-15 | 2026-09-02 23:28:05 | 47.87647 | 12.13206 | 126° | 113km/h | 13374m | 3.2m/s | -56.5°C | 12.0% | 165.7hPa | 2.7V | 00:00:00 | 00:58:45 | 00:00:00 | |
| OE5MMP-10 | 2026-09-02 23:28:00 | 47.87727 | 12.13032 | 124° | 110km/h | 13354m | 3.2m/s | -56.7°C | 12.5% | 166.2hPa | 2.7V | 00:00:00 | 00:58:40 | 00:00:00 | |
| DG1MFX-10 | 2026-09-02 23:27:56 | 47.87770 | 12.12928 | 123° | 110km/h | 13342m | 4.2m/s | -56.9°C | 8.6% | 166.6hPa | 2.7V | 00:00:00 | 00:00:00 | 00:00:00 | |
| OE5FHM-15 | 2026-09-02 23:27:55 | 47.87800 | 12.12859 | 124° | 108km/h | 13335m | 2.5m/s | -56.8°C | 13.1% | 166.8hPa | 2.7V | 00:00:00 | 00:58:35 | 00:00:00 | |
| OE5DRO-10 | 2026-09-02 23:27:53 | 47.87831 | 12.12790 | 123° | 110km/h | 13328m | 4.4m/s | -56.8°C | 13.0% | 166.9hPa | 2.7V | 00:00:00 | 00:00:00 | 00:00:00 | |
| OE5MMP-10 | 2026-09-02 23:27:50 | 47.87877 | 12.12681 | 123° | 110km/h | 13316m | 4.5m/s | -56.7°C | 13.1% | 167.2hPa | 2.7V | 00:00:00 | 00:58:30 | 00:00:00 | |
| BAUMI2-15 | 2026-09-02 23:27:45 | 47.87953 | 12.12502 | 123° | 108km/h | 13297m | 4.3m/s | -56.8°C | 13.3% | 167.7hPa | 2.7V | 00:00:00 | 00:58:25 | 08:30:00 | |
| OE5MMP-10 | 2026-09-02 23:27:40 | 47.88026 | 12.12334 | 124° | 108km/h | 13277m | 4.3m/s | -57.0°C | 13.6% | 168.3hPa | 2.7V | 00:00:00 | 00:58:20 | 00:00:00 | |
| BAUMI2-15 | 2026-09-02 23:27:35 | 47.88101 | 12.12171 | 126° | 113km/h | 13258m | 4.5m/s | -57.0°C | 13.8% | 168.8hPa | 2.7V | 00:00:00 | 00:58:15 | 00:00:00 | |
| OE5DRO-10 | 2026-09-02 23:27:34 | 47.88118 | 12.12137 | 127° | 108km/h | 13255m | 3.6m/s | -57.0°C | 14.0% | 168.9hPa | 2.7V | 00:00:00 | 00:00:00 | 00:00:00 | |
| OE5WHR-10 | 2026-09-02 23:27:33 | 47.88135 | 12.12103 | 127° | 106km/h | 13251m | 4.3m/s | -57.1°C | 14.1% | 169.0hPa | 2.7V | 00:00:00 | 00:00:00 | 00:00:00 | |
| OE5MMP-10 | 2026-09-02 23:27:30 | 47.88186 | 12.12001 | 128° | 106km/h | 13239m | 4.1m/s | -57.0°C | 14.2% | 169.3hPa | 2.7V | 00:00:00 | 00:58:10 | 00:00:00 | |
| BAUMI2-15 | 2026-09-02 23:27:25 | 47.88267 | 12.11842 | 126° | 106km/h | 13219m | 4.7m/s | -56.9°C | 14.2% | 169.8hPa | 2.7V | 00:00:00 | 00:58:05 | 00:00:00 | |
| OE5MMP-10 | 2026-09-02 23:27:20 | 47.88345 | 12.11680 | 127° | 108km/h | 13199m | 4.9m/s | -56.8°C | 14.4% | 170.4hPa | 2.7V | 00:00:00 | 00:58:00 | 00:00:00 | |
| OE5FHM-15 | 2026-09-02 23:27:15 | 47.88428 | 12.11517 | 129° | 104km/h | 13180m | 4.7m/s | -56.6°C | 14.6% | 170.8hPa | 2.7V | 00:00:00 | 00:57:55 | 00:00:00 | |
| OE5WHR-10 | 2026-09-02 23:27:10 | 47.88507 | 12.11361 | 127° | 104km/h | 13161m | 3.9m/s | -56.6°C | 14.8% | 171.4hPa | 2.7V | 00:00:00 | 00:57:50 | 00:00:00 | |
| BAUMI2-15 | 2026-09-02 23:27:05 | 47.88586 | 12.11206 | 129° | 111km/h | 13141m | 3.8m/s | -56.8°C | 15.1% | 171.9hPa | 2.7V | 00:00:00 | 00:57:45 | 00:00:00 | |
| OE5DRO-10 | 2026-09-02 23:26:56 | 47.88745 | 12.10935 | 132° | 104km/h | 13107m | 3.6m/s | -56.7°C | 16.0% | 172.9hPa | 2.7V | 00:00:00 | 00:00:00 | 00:00:00 | |
| DG1MFX-10 | 2026-09-02 23:26:55 | 47.88745 | 12.10935 | 132° | 106km/h | 13107m | 3.6m/s | -56.8°C | 11.5% | 172.9hPa | 2.7V | 00:00:00 | 00:00:00 | 00:00:00 | |
| OE5DXL-15 | 2026-09-02 23:26:50 | 47.88846 | 12.10754 | 130° | 104km/h | 13083m | 4.8m/s | -56.6°C | 16.6% | 173.5hPa | 2.7V | 00:00:00 | 00:00:00 | 00:00:00 | |
| OE5WHR-10 | 2026-09-02 23:26:49 | 47.88862 | 12.10725 | 130° | 102km/h | 13079m | 3.5m/s | -56.6°C | 16.8% | 173.6hPa | 2.7V | 00:00:00 | 00:00:00 | 00:00:00 | |
| OE5FHM-15 | 2026-09-02 23:26:45 | 47.88931 | 12.10611 | 133° | 104km/h | 13063m | 4.6m/s | -56.8°C | 17.5% | 174.1hPa | 2.7V | 00:00:00 | 00:57:25 | 00:00:00 | |
| OE5MMP-10 | 2026-09-02 23:26:40 | 47.89019 | 12.10463 | 132° | 100km/h | 13042m | 4.8m/s | -56.9°C | 17.8% | 174.6hPa | 2.7V | 00:00:00 | 00:57:20 | 00:00:00 | |
| OE5DRO-10 | 2026-09-02 23:26:37 | 47.89072 | 12.10375 | 133° | 104km/h | 13030m | 3.8m/s | -57.1°C | 17.8% | 175.0hPa | 2.7V | 00:00:00 | 00:00:00 | 00:00:00 | |
| DG1MFX-10 | 2026-09-02 23:26:34 | 47.89107 | 12.10319 | 133° | 99km/h | 13022m | 4.7m/s | -57.1°C | 13.0% | 175.2hPa | 2.7V | 00:00:00 | 00:00:00 | 00:00:00 | |
| OE5MMP-10 | 2026-09-02 23:26:30 | 47.89193 | 12.10184 | 135° | 108km/h | 13003m | 4.6m/s | -56.9°C | 18.2% | 175.7hPa | 2.7V | 00:00:00 | 00:57:10 | 00:00:00 | |
| OE5WHR-10 | 2026-09-02 23:26:28 | 47.89230 | 12.10126 | 134° | 110km/h | 12995m | 3.3m/s | -56.9°C | 18.8% | 175.9hPa | 2.7V | 00:00:00 | 00:00:00 | 00:00:00 | |
| OE5MMP-10 | 2026-09-02 23:26:20 | 47.89383 | 12.09892 | 137° | 108km/h | 12961m | 4.9m/s | -57.1°C | 19.4% | 176.9hPa | 2.7V | 00:00:00 | 00:57:00 | 00:00:00 | |
| OE5DRO-10 | 2026-09-02 23:26:18 | 47.89423 | 12.09837 | 137° | 113km/h | 12952m | 4.5m/s | -57.5°C | 20.2% | 177.1hPa | 2.7V | 00:00:00 | 00:00:00 | 00:00:00 | |
| OE5HKT-10 | 2026-09-02 23:26:15 | 47.89480 | 12.09752 | 135° | 110km/h | 12938m | 3.8m/s | 0°C | 0% | 0hPa | 2.7V | 00:00:00 | 00:00:00 | 00:00:00 | |
| DG1MFX-10 | 2026-09-02 23:26:14 | 47.89479 | 12.09752 | 135° | 104km/h | 12938m | 3.9m/s | -57.7°C | 16.1% | 177.6hPa | 2.7V | 00:00:00 | 00:00:00 | 00:00:00 | |
| OE5MMP-10 | 2026-09-02 23:26:10 | 47.89581 | 12.09607 | 137° | 117km/h | 12917m | 3.8m/s | -57.7°C | 23.1% | 178.1hPa | 2.7V | 00:00:00 | 00:56:50 | 00:00:00 | |
| OE5WHR-10 | 2026-09-02 23:26:07 | 47.89647 | 12.09518 | 139° | 117km/h | 12904m | 3.5m/s | -57.8°C | 24.6% | 178.5hPa | 2.7V | 00:00:00 | 00:56:47 | 00:00:00 | |
| OE5MMP-10 | 2026-09-02 23:26:00 | 47.89794 | 12.09300 | 134° | 117km/h | 12876m | 4.9m/s | -58.2°C | 26.5% | 179.3hPa | 2.7V | 00:00:00 | 00:56:40 | 00:00:00 | |
| OE5DRO-10 | 2026-09-02 23:25:59 | 47.89814 | 12.09269 | 135° | 119km/h | 12871m | 3.3m/s | -58.2°C | 27.2% | 179.4hPa | 2.7V | 00:00:00 | 00:00:00 | 08:30:00 | |
| DG1MFX-10 | 2026-09-02 23:25:53 | 47.89922 | 12.09123 | 140° | 117km/h | 12851m | 4.4m/s | -58.4°C | 22.7% | 180.0hPa | 2.7V | 00:00:00 | 00:00:00 | 00:00:00 | |
| OE5MMP-10 | 2026-09-02 23:25:50 | 47.90015 | 12.09006 | 141° | 120km/h | 12836m | 3.7m/s | -58.6°C | 30.9% | 180.4hPa | 2.7V | 00:00:00 | 00:56:30 | 00:00:00 | |
| OE5WHR-10 | 2026-09-02 23:25:46 | 47.90106 | 12.08886 | 137° | 122km/h | 12819m | 3.6m/s | -58.8°C | 32.3% | 180.9hPa | 2.7V | 00:00:00 | 00:00:00 | 00:00:00 | |
| OE5FHM-15 | 2026-09-02 23:25:45 | 47.90128 | 12.08855 | 137° | 120km/h | 12815m | 3.8m/s | -58.9°C | 32.2% | 181.0hPa | 2.7V | 00:00:00 | 00:56:25 | 00:00:00 | |
| OE5MMP-10 | 2026-09-02 23:25:40 | 47.90237 | 12.08701 | 138° | 120km/h | 12794m | 4.6m/s | -59.1°C | 32.8% | 181.6hPa | 2.7V | 00:00:00 | 00:56:20 | 00:00:00 | |
| PG1ADW-2 | 2026-09-02 23:25:38 | 47.90281 | 12.08641 | 138° | 124km/h | 12786m | 4.0m/s | -59.2°C | 33.4% | 181.9hPa | 2.7V | 00:00:00 | 00:00:00 | 00:00:00 | |
| DG1MFX-10 | 2026-09-02 23:25:33 | 47.90372 | 12.08519 | 139° | 120km/h | 12769m | 4.3m/s | -59.2°C | 27.0% | 182.4hPa | 2.7V | 00:00:00 | 00:00:00 | 00:00:00 | |
| OE5MMP-10 | 2026-09-02 23:25:30 | 47.90465 | 12.08398 | 139° | 126km/h | 12752m | 4.2m/s | -59.1°C | 34.9% | 182.8hPa | 2.7V | 00:00:00 | 00:56:10 | 08:30:00 | |
| OE5WHR-10 | 2026-09-02 23:25:25 | 47.90582 | 12.08236 | 138° | 128km/h | 12732m | 3.9m/s | -59.3°C | 36.5% | 183.4hPa | 2.7V | 00:00:00 | 00:00:00 | 00:00:00 | |
| OE5DRO-10 | 2026-09-02 23:25:21 | 47.90677 | 12.08110 | 139° | 130km/h | 12716m | 4.3m/s | -59.4°C | 36.8% | 183.9hPa | 2.7V | 00:00:00 | 00:00:00 | 00:00:00 | |
| OE5DXL-15 | 2026-09-02 23:25:20 | 47.90701 | 12.08078 | 139° | 128km/h | 12711m | 4.5m/s | -59.4°C | 37.0% | 184.0hPa | 2.7V | 00:00:00 | 00:00:00 | 00:00:00 | |
| PG1ADW-2 | 2026-09-02 23:25:18 | 47.90749 | 12.08014 | 139° | 130km/h | 12703m | 4.7m/s | -59.3°C | 36.7% | 184.3hPa | 2.7V | 00:00:00 | 00:00:00 | 00:00:00 | |
| OE5FHM-15 | 2026-09-02 23:25:15 | 47.90824 | 12.07917 | 140° | 124km/h | 12690m | 4.4m/s | -59.3°C | 36.5% | 184.7hPa | 2.7V | 00:00:00 | 00:55:55 | 00:00:00 | |
| DG1MFX-10 | 2026-09-02 23:25:12 | 47.90875 | 12.07852 | 140° | 131km/h | 12682m | 4.8m/s | -59.3°C | 28.9% | 184.9hPa | 2.7V | 00:00:00 | 00:00:00 | 00:00:00 | |
| OE5MMP-10 | 2026-09-02 23:25:10 | 47.90951 | 12.07758 | 141° | 128km/h | 12668m | 3.7m/s | -59.2°C | 35.9% | 185.3hPa | 2.7V | 00:00:00 | 00:55:50 | 00:00:00 | |
| OE5WHR-10 | 2026-09-02 23:25:04 | 47.91097 | 12.07570 | 139° | 128km/h | 12643m | 3.9m/s | -59.1°C | 35.3% | 186.1hPa | 2.7V | 00:00:00 | 00:55:44 | 00:00:00 | |
| OE5MMP-10 | 2026-09-02 23:25:00 | 47.91192 | 12.07437 | 137° | 128km/h | 12626m | 3.9m/s | -59.0°C | 35.0% | 186.6hPa | 2.7V | 00:00:00 | 00:55:40 | 00:00:00 | |
| BAUMI2-15 | 2026-09-02 23:24:59 | 47.91216 | 12.07404 | 138° | 128km/h | 12622m | 4.1m/s | -58.9°C | 35.1% | 186.7hPa | 2.7V | 00:00:00 | 00:55:39 | 08:30:00 | |
| PG1ADW-2 | 2026-09-02 23:24:58 | 47.91240 | 12.07371 | 138° | 124km/h | 12618m | 4.4m/s | -58.9°C | 35.3% | 186.8hPa | 2.7V | 00:00:00 | 00:00:00 | 00:00:00 | |
| BAUMI2-15 | 2026-09-02 23:24:54 | 47.91335 | 12.07243 | 138° | 124km/h | 12600m | 4.5m/s | -58.9°C | 35.4% | 187.3hPa | 2.7V | 00:00:00 | 00:55:34 | 00:00:00 | |
| DG1MFX-10 | 2026-09-02 23:24:51 | 47.91381 | 12.07179 | 138° | 124km/h | 12592m | 4.2m/s | -59.0°C | 28.2% | 187.6hPa | 2.7V | 00:00:00 | 00:00:00 | 00:00:00 | |
| OE5MMP-10 | 2026-09-02 23:24:50 | 47.91428 | 12.07115 | 138° | 124km/h | 12583m | 4.6m/s | -59.0°C | 35.4% | 187.8hPa | 2.7V | 00:00:00 | 00:55:30 | 00:00:00 | |
| BAUMI2-15 | 2026-09-02 23:24:49 | 47.91451 | 12.07083 | 139° | 126km/h | 12579m | 3.2m/s | -59.1°C | 35.5% | 187.9hPa | 2.7V | 00:00:00 | 00:55:29 | 00:00:00 | |
| BAUMI2-15 | 2026-09-02 23:24:44 | 47.91571 | 12.06928 | 141° | 122km/h | 12559m | 3.7m/s | -59.2°C | 36.0% | 188.6hPa | 2.7V | 00:00:00 | 00:55:24 | 00:00:00 | |
| OE5WHR-10 | 2026-09-02 23:24:43 | 47.91595 | 12.06898 | 140° | 119km/h | 12555m | 4.4m/s | -59.2°C | 36.0% | 188.7hPa | 2.7V | 00:00:00 | 00:00:00 | 08:30:00 | |
| DO3MHA-11 | 2026-09-02 23:24:42 | 47.91619 | 12.06868 | 140° | 117km/h | 12550m | 3.8m/s | -59.2°C | 36.1% | 188.8hPa | 2.7V | 00:00:00 | 00:55:22 | 00:00:00 | |
| OE5MMP-10 | 2026-09-02 23:24:40 | 47.91665 | 12.06808 | 140° | 117km/h | 12543m | 5.0m/s | -59.2°C | 35.5% | 189.0hPa | 2.7V | 00:00:00 | 00:55:20 | 00:00:00 | |
| BAUMI2-15 | 2026-09-02 23:24:39 | 47.91688 | 12.06778 | 140° | 119km/h | 12538m | 4.2m/s | -59.2°C | 35.6% | 189.2hPa | 2.7V | 00:00:00 | 00:55:19 | 00:00:00 | |
| PG1ADW-2 | 2026-09-02 23:24:38 | 47.91711 | 12.06748 | 139° | 117km/h | 12533m | 4.5m/s | -59.2°C | 35.5% | 189.3hPa | 2.7V | 00:00:00 | 00:55:18 | 00:00:00 | |
| BAUMI2-15 | 2026-09-02 23:24:34 | 47.91800 | 12.06629 | 140° | 115km/h | 12517m | 4.1m/s | -59.1°C | 36.5% | 189.8hPa | 2.7V | 00:00:00 | 00:55:14 | 00:00:00 | |
| OE5FHM-15 | 2026-09-02 23:24:32 | 47.91844 | 12.06575 | 142° | 133km/h | 12509m | 4.8m/s | -59.1°C | 36.8% | 190.1hPa | 2.7V | 00:00:00 | 00:55:12 | 00:00:00 | |
| DG1MFX-10 | 2026-09-02 23:24:31 | 47.91844 | 12.06575 | 142° | 115km/h | 12509m | 4.8m/s | -59.2°C | 29.5% | 190.1hPa | 2.7V | 00:00:00 | 00:00:00 | 00:00:00 | |
| OE5MMP-10 | 2026-09-02 23:24:30 | 47.91890 | 12.06521 | 142° | 119km/h | 12501m | 3.3m/s | -59.1°C | 36.9% | 190.3hPa | 2.7V | 00:00:00 | 00:55:10 | 00:00:00 | |
| BAUMI2-15 | 2026-09-02 23:24:29 | 47.91914 | 12.06494 | 143° | 119km/h | 12497m | 4.9m/s | -59.1°C | 36.7% | 190.5hPa | 2.7V | 00:00:00 | 00:55:09 | 00:00:00 | |
| DO3MHA-11 | 2026-09-02 23:24:27 | 47.91960 | 12.06440 | 143° | 122km/h | 12488m | 5.1m/s | -59.1°C | 37.1% | 190.7hPa | 2.7V | 00:00:00 | 00:55:07 | 00:00:00 | |
| BAUMI2-15 | 2026-09-02 23:24:24 | 47.92032 | 12.06357 | 142° | 119km/h | 12475m | 4.8m/s | -59.1°C | 37.4% | 191.1hPa | 2.7V | 00:00:00 | 00:55:04 | 00:00:00 | |
| OE5DXL-15 | 2026-09-02 23:24:20 | 47.92127 | 12.06246 | 143° | 122km/h | 12459m | 4.2m/s | -59.0°C | 37.1% | 191.6hPa | 2.7V | 00:00:00 | 00:00:00 | 00:00:00 | |
| OE5WHR-10 | 2026-09-02 23:24:19 | 47.92151 | 12.06219 | 143° | 120km/h | 12454m | 4.8m/s | -59.0°C | 37.1% | 191.7hPa | 2.7V | 00:00:00 | 00:00:00 | 00:00:00 | |
| PG1ADW-2 | 2026-09-02 23:24:18 | 47.92175 | 12.06192 | 144° | 120km/h | 12450m | 4.3m/s | -58.9°C | 37.3% | 191.9hPa | 2.7V | 00:00:00 | 00:00:00 | 00:00:00 | |
| BAUMI2-15 | 2026-09-02 23:24:14 | 47.92272 | 12.06085 | 144° | 119km/h | 12432m | 3.9m/s | -58.8°C | 37.4% | 192.4hPa | 2.7V | 00:00:00 | 00:54:54 | 08:30:00 | |
| OE5MMP-10 | 2026-09-02 23:24:10 | 47.92366 | 12.05975 | 141° | 122km/h | 12416m | 4.0m/s | -58.6°C | 37.6% | 192.9hPa | 2.7V | 00:00:00 | 00:54:50 | 00:00:00 | |
| BAUMI2-15 | 2026-09-02 23:24:09 | 47.92390 | 12.05946 | 142° | 124km/h | 12411m | 4.4m/s | -58.6°C | 37.5% | 193.1hPa | 2.7V | 00:00:00 | 00:54:49 | 00:00:00 | |
| DO3MHA-11 | 2026-09-02 23:24:05 | 47.92491 | 12.05836 | 147° | 122km/h | 12393m | 3.8m/s | -58.5°C | 38.3% | 193.7hPa | 2.7V | 00:00:00 | 00:54:45 | 00:00:00 | |
| BAUMI2-15 | 2026-09-02 23:24:04 | 47.92518 | 12.05810 | 147° | 120km/h | 12389m | 3.6m/s | -58.5°C | 38.3% | 193.8hPa | 2.7V | 00:00:00 | 00:54:44 | 00:00:00 | |
| OE5MMP-10 | 2026-09-02 23:24:00 | 47.92618 | 12.05708 | 144° | 124km/h | 12374m | 4.4m/s | -58.5°C | 38.8% | 194.2hPa | 2.7V | 00:00:00 | 00:54:40 | 08:30:00 | |
| BAUMI2-15 | 2026-09-02 23:23:59 | 47.92643 | 12.05681 | 143° | 122km/h | 12369m | 4.5m/s | -58.6°C | 39.0% | 194.3hPa | 2.7V | 00:00:00 | 00:54:39 | 00:00:00 | |
| OE5WHR-10 | 2026-09-02 23:23:58 | 47.92667 | 12.05653 | 143° | 128km/h | 12365m | 4.5m/s | -58.6°C | 39.3% | 194.5hPa | 2.7V | 00:00:00 | 00:54:38 | 00:00:00 | |
| DO3MHA-11 | 2026-09-02 23:23:55 | 47.92740 | 12.05569 | 143° | 128km/h | 12351m | 3.1m/s | -58.5°C | 40.1% | 194.9hPa | 2.7V | 00:00:00 | 00:54:35 | 00:00:00 | |
| BAUMI2-15 | 2026-09-02 23:23:54 | 47.92766 | 12.05541 | 144° | 128km/h | 12347m | 5.9m/s | -58.5°C | 40.4% | 195.0hPa | 2.7V | 00:00:00 | 00:54:34 | 00:00:00 | |
| OE5DXL-15 | 2026-09-02 23:23:50 | 47.92871 | 12.05426 | 145° | 135km/h | 12327m | 4.7m/s | -58.4°C | 41.9% | 195.6hPa | 2.7V | 00:00:00 | 00:00:00 | 00:00:00 | |
| BAUMI2-15 | 2026-09-02 23:23:49 | 47.92898 | 12.05397 | 146° | 128km/h | 12322m | 4.7m/s | 0°C | 0% | 195.7hPa | 2.7V | 00:00:00 | 00:54:29 | 00:00:00 | |
| OE5DRO-10 | 2026-09-02 23:23:46 | 47.92979 | 12.05314 | 145° | 135km/h | 12310m | 3.2m/s | -58.4°C | 43.1% | 196.2hPa | 2.7V | 00:00:00 | 00:00:00 | 00:00:00 | |
| BAUMI2-15 | 2026-09-02 23:23:44 | 47.93031 | 12.05259 | 145° | 128km/h | 12301m | 4.5m/s | 0°C | 0% | 0hPa | 2.7V | 00:00:00 | 00:54:24 | 00:00:00 | |
| DO3MHA-11 | 2026-09-02 23:23:43 | 47.93057 | 12.05231 | 145° | 133km/h | 12297m | 3.5m/s | -58.5°C | 44.2% | 196.6hPa | 2.7V | 00:00:00 | 00:54:23 | 08:30:00 | |
| OE5MMP-10 | 2026-09-02 23:23:40 | 47.93134 | 12.05143 | 141° | 137km/h | 12285m | 3.8m/s | -58.5°C | 44.5% | 196.9hPa | 2.7V | 00:00:00 | 00:54:20 | 00:00:00 | |
| BAUMI2-15 | 2026-09-02 23:23:39 | 47.93160 | 12.05112 | 142° | 133km/h | 12281m | 4.4m/s | 0°C | 0% | 0hPa | 2.7V | 00:00:00 | 00:54:19 | 00:00:00 | |
| PG1ADW-2 | 2026-09-02 23:23:38 | 47.93186 | 12.05082 | 143° | 139km/h | 12277m | 4.0m/s | -58.5°C | 44.9% | 197.2hPa | 2.7V | 00:00:00 | 00:00:00 | 08:30:00 | |
| OE5WHR-10 | 2026-09-02 23:23:37 | 47.93212 | 12.05052 | 144° | 139km/h | 12273m | 3.4m/s | -58.5°C | 44.6% | 197.3hPa | 2.7V | 00:00:00 | 00:00:00 | 00:00:00 | |
| BAUMI2-15 | 2026-09-02 23:23:34 | 47.93296 | 12.04959 | 144° | 142km/h | 12260m | 4.6m/s | 0°C | 0% | 0hPa | 2.7V | 00:00:00 | 00:54:14 | 00:00:00 | |
| DO3MHA-11 | 2026-09-02 23:23:33 | 47.93325 | 12.04927 | 145° | 139km/h | 12255m | 4.9m/s | -58.4°C | 43.7% | 197.9hPa | 2.7V | 00:00:00 | 00:54:13 | 00:00:00 | |
| OE5MMP-10 | 2026-09-02 23:23:30 | 47.93412 | 12.04834 | 145° | 137km/h | 12242m | 5.3m/s | -58.3°C | 44.2% | 198.3hPa | 2.7V | 00:00:00 | 00:54:10 | 00:00:00 | |
| BAUMI2-15 | 2026-09-02 23:23:29 | 47.93441 | 12.04803 | 144° | 137km/h | 12237m | 3.8m/s | 0°C | 0% | 0hPa | 2.7V | 00:00:00 | 00:54:09 | 08:30:00 | |
| OE5DRO-10 | 2026-09-02 23:23:27 | 47.93497 | 12.04740 | 143° | 139km/h | 12228m | 3.9m/s | -58.3°C | 44.5% | 198.7hPa | 2.7V | 00:00:00 | 00:00:00 | 00:00:00 | |
| OE5FHM-15 | 2026-09-02 23:23:26 | 47.93523 | 12.04709 | 142° | 141km/h | 12225m | 3.4m/s | -58.2°C | 44.3% | 198.8hPa | 2.7V | 00:00:00 | 00:54:06 | 08:30:00 | |
| DB0UT-7 | 2026-09-02 23:23:25 | 47.93550 | 12.04677 | 141° | 137km/h | 12221m | 4.9m/s | -58.2°C | 44.3% | 198.9hPa | 2.7V | 00:00:00 | 00:00:00 | 00:00:00 | |
| BAUMI2-15 | 2026-09-02 23:23:24 | 47.93577 | 12.04645 | 141° | 139km/h | 12216m | 3.6m/s | 0°C | 0% | 0hPa | 2.7V | 00:00:00 | 00:54:04 | 00:00:00 | |
| DO3MHA-11 | 2026-09-02 23:23:23 | 47.93604 | 12.04612 | 142° | 139km/h | 12212m | 4.3m/s | -58.3°C | 44.8% | 199.2hPa | 2.7V | 00:00:00 | 00:54:03 | 00:00:00 | |
| OE5MMP-10 | 2026-09-02 23:23:20 | 47.93686 | 12.04516 | 143° | 141km/h | 12200m | 5.2m/s | -58.2°C | 44.6% | 199.6hPa | 2.7V | 00:00:00 | 00:54:00 | 00:00:00 | |
| BAUMI2-15 | 2026-09-02 23:23:19 | 47.93715 | 12.04483 | 143° | 141km/h | 12195m | 3.6m/s | 0°C | 0% | 0hPa | 2.7V | 00:00:00 | 00:53:59 | 00:00:00 | |
| PG1ADW-2 | 2026-09-02 23:23:18 | 47.93743 | 12.04451 | 144° | 141km/h | 12191m | 5.1m/s | -58.2°C | 44.5% | 199.9hPa | 2.7V | 00:00:00 | 00:53:58 | 00:00:00 | |
| OE5WHR-10 | 2026-09-02 23:23:16 | 47.93801 | 12.04388 | 145° | 141km/h | 12182m | 3.5m/s | -58.1°C | 45.0% | 200.2hPa | 2.7V | 00:00:00 | 00:00:00 | 00:00:00 | |
| BAUMI2-15 | 2026-09-02 23:23:14 | 47.93857 | 12.04326 | 143° | 139km/h | 12174m | 4.6m/s | 0°C | 0% | 0hPa | 2.7V | 00:00:00 | 00:53:54 | 00:00:00 | |
| DL6DJ-15 | 2026-09-02 23:23:13 | 47.93912 | 12.04261 | 141° | 139km/h | 12166m | 3.7m/s | -58.1°C | 37.0% | 200.8hPa | 2.7V | 00:00:00 | 00:00:00 | 00:00:00 | |
| OE5MMP-10 | 2026-09-02 23:23:10 | 47.93968 | 12.04196 | 144° | 141km/h | 12158m | 3.9m/s | -58.1°C | 45.1% | 201.0hPa | 2.7V | 00:00:00 | 00:53:50 | 00:00:00 | |
| BAUMI2-15 | 2026-09-02 23:23:09 | 47.93996 | 12.04164 | 144° | 139km/h | 12154m | 3.4m/s | 0°C | 0% | 0hPa | 2.7V | 00:00:00 | 00:53:49 | 00:00:00 | |
| OE5DRO-10 | 2026-09-02 23:23:08 | 47.94024 | 12.04133 | 144° | 141km/h | 12150m | 4.5m/s | -58.0°C | 45.0% | 201.2hPa | 2.7V | 00:00:00 | 00:00:00 | 08:30:00 | |
| BAUMI2-15 | 2026-09-02 23:23:04 | 47.94136 | 12.04006 | 144° | 144km/h | 12133m | 4.5m/s | 0°C | 0% | 0hPa | 2.7V | 00:00:00 | 00:53:44 | 00:00:00 | |
| DO3MHA-11 | 2026-09-02 23:23:03 | 47.94165 | 12.03974 | 144° | 142km/h | 12129m | 3.4m/s | -57.9°C | 45.5% | 201.9hPa | 2.7V | 00:00:00 | 00:53:43 | 00:00:00 | |
| OE5MMP-10 | 2026-09-02 23:23:00 | 47.94251 | 12.03877 | 142° | 142km/h | 12117m | 3.7m/s | -57.8°C | 45.7% | 202.3hPa | 2.7V | 00:00:00 | 00:53:40 | 00:00:00 | |
| PG1ADW-2 | 2026-09-02 23:22:58 | 47.94308 | 12.03812 | 144° | 141km/h | 12109m | 4.1m/s | -57.7°C | 46.0% | 202.5hPa | 2.7V | 00:00:00 | 00:00:00 | 00:00:00 | |
| OE5WHR-10 | 2026-09-02 23:22:55 | 47.94393 | 12.03714 | 142° | 141km/h | 12098m | 4.0m/s | -57.7°C | 46.5% | 202.9hPa | 2.7V | 00:00:00 | 00:53:35 | 00:00:00 | |
| DO3MHA-11 | 2026-09-02 23:22:53 | 47.94450 | 12.03648 | 142° | 141km/h | 12091m | 4.3m/s | -57.6°C | 46.2% | 203.1hPa | 2.7V | 00:00:00 | 00:53:33 | 00:00:00 | |
| OE5MMP-10 | 2026-09-02 23:22:50 | 47.94534 | 12.03551 | 142° | 141km/h | 12078m | 4.9m/s | -57.6°C | 46.7% | 203.5hPa | 2.7V | 00:00:00 | 00:53:30 | 00:00:00 | |
| OE5DRO-10 | 2026-09-02 23:22:49 | 47.94562 | 12.03518 | 142° | 141km/h | 12074m | 3.4m/s | -57.5°C | 47.2% | 203.7hPa | 2.7V | 00:00:00 | 00:00:00 | 00:00:00 | |
| DG1MFX-10 | 2026-09-02 23:22:47 | 47.94590 | 12.03485 | 142° | 141km/h | 12071m | 3.4m/s | -57.6°C | 39.1% | 203.8hPa | 2.7V | 00:00:00 | 00:00:00 | 00:00:00 | |
| DO3MHA-11 | 2026-09-02 23:22:43 | 47.94731 | 12.03322 | 143° | 139km/h | 12051m | 3.9m/s | -57.4°C | 47.8% | 204.4hPa | 2.7V | 00:00:00 | 00:53:23 | 00:00:00 | |
| OE5MMP-10 | 2026-09-02 23:22:40 | 47.94816 | 12.03227 | 143° | 141km/h | 12038m | 4.9m/s | -57.3°C | 49.0% | 204.8hPa | 2.7V | 00:00:00 | 00:53:20 | 00:00:00 | |
| PG1ADW-2 | 2026-09-02 23:22:38 | 47.94871 | 12.03162 | 142° | 139km/h | 12031m | 3.4m/s | -57.3°C | 49.1% | 205.0hPa | 2.7V | 00:00:00 | 00:00:00 | 00:00:00 | |
| OE5WHR-10 | 2026-09-02 23:22:34 | 47.94980 | 12.03033 | 142° | 141km/h | 12015m | 5.2m/s | -57.3°C | 49.9% | 205.6hPa | 2.7V | 00:00:00 | 00:00:00 | 00:00:00 | |
| DO3MHA-11 | 2026-09-02 23:22:33 | 47.95009 | 12.03000 | 142° | 137km/h | 12010m | 3.0m/s | -57.3°C | 50.6% | 205.7hPa | 2.7V | 00:00:00 | 00:53:13 | 00:00:00 | |
| OE5MMP-10 | 2026-09-02 23:22:30 | 47.95093 | 12.02901 | 142° | 137km/h | 11998m | 3.2m/s | -57.2°C | 51.1% | 206.1hPa | 2.7V | 00:00:00 | 00:53:10 | 08:30:00 | |
| DG1MFX-10 | 2026-09-02 23:22:26 | 47.95173 | 12.02803 | 141° | 135km/h | 11986m | 3.8m/s | -57.2°C | 43.8% | 206.6hPa | 2.7V | 00:00:00 | 00:00:00 | 00:00:00 | |
| OE5FHM-15 | 2026-09-02 23:22:25 | 47.95226 | 12.02740 | 143° | 141km/h | 11978m | 4.3m/s | -57.1°C | 0% | 206.8hPa | 2.7V | 00:00:00 | 00:53:05 | 00:00:00 | |
| DO3MHA-11 | 2026-09-02 23:22:23 | 47.95281 | 12.02680 | 145° | 142km/h | 11969m | 4.1m/s | -57.1°C | 54.4% | 207.0hPa | 2.7V | 00:00:00 | 00:53:03 | 00:00:00 | |
| OE5MMP-10 | 2026-09-02 23:22:20 | 47.95368 | 12.02588 | 146° | 142km/h | 11955m | 4.3m/s | -57.0°C | 56.3% | 207.5hPa | 2.7V | 00:00:00 | 00:53:00 | 00:00:00 | |
| PG1ADW-2 | 2026-09-02 23:22:18 | 47.95429 | 12.02526 | 146° | 142km/h | 11947m | 6.2m/s | -57.0°C | 56.6% | 207.8hPa | 2.7V | 00:00:00 | 00:00:00 | 00:00:00 | |
| OE5WHR-10 | 2026-09-02 23:22:13 | 47.95572 | 12.02362 | 140° | 142km/h | 11923m | 6.3m/s | -56.9°C | 56.0% | 208.6hPa | 2.7V | 00:00:00 | 00:00:00 | 00:00:00 | |
| DB0UT-7 | 2026-09-02 23:22:12 | 47.95599 | 12.02329 | 142° | 144km/h | 11916m | 5.6m/s | -56.9°C | 57.2% | 208.7hPa | 2.7V | 00:00:00 | 00:52:52 | 00:00:00 | |
| OE5DRO-10 | 2026-09-02 23:22:11 | 47.95627 | 12.02297 | 145° | 142km/h | 11911m | 5.3m/s | -56.9°C | 57.7% | 209.0hPa | 2.7V | 00:00:00 | 00:00:00 | 00:00:00 | |
| OE5MMP-10 | 2026-09-02 23:22:10 | 47.95656 | 12.02267 | 147° | 141km/h | 11906m | 4.1m/s | -56.9°C | 58.0% | 209.1hPa | 2.7V | 00:00:00 | 00:52:50 | 00:00:00 | |
| DG1MFX-10 | 2026-09-02 23:22:05 | 47.95777 | 12.02149 | 147° | 139km/h | 11888m | 4.1m/s | -56.7°C | 48.5% | 209.8hPa | 2.7V | 00:00:00 | 00:00:00 | 00:00:00 | |
| OE5MMP-10 | 2026-09-02 23:22:00 | 47.95953 | 12.01968 | 146° | 144km/h | 11861m | 3.8m/s | -56.4°C | 58.6% | 210.6hPa | 2.7V | 00:00:00 | 00:52:40 | 00:00:00 | |
| PG1ADW-2 | 2026-09-02 23:21:58 | 47.96012 | 12.01907 | 146° | 144km/h | 11852m | 3.3m/s | -56.4°C | 59.4% | 210.9hPa | 2.7V | 00:00:00 | 00:52:38 | 00:00:00 | |
| OE5FHM-15 | 2026-09-02 23:21:55 | 47.96102 | 12.01815 | 146° | 144km/h | 11841m | 3.0m/s | 0°C | 0% | 0hPa | 2.7V | 00:00:00 | 00:52:35 | 00:00:00 | |
| DO3MHA-11 | 2026-09-02 23:21:53 | 47.96162 | 12.01752 | 145° | 144km/h | 11833m | 3.8m/s | -56.3°C | 60.9% | 211.5hPa | 2.7V | 00:00:00 | 00:52:33 | 00:00:00 | |
| OE5WHR-10 | 2026-09-02 23:21:52 | 47.96191 | 12.01721 | 145° | 144km/h | 11829m | 3.4m/s | -56.3°C | 61.3% | 211.7hPa | 2.7V | 00:00:00 | 00:52:32 | 00:00:00 | |
| OE5DXL-15 | 2026-09-02 23:21:50 | 47.96251 | 12.01658 | 146° | 142km/h | 11821m | 3.4m/s | -56.3°C | 61.3% | 211.9hPa | 2.7V | 00:00:00 | 00:00:00 | 00:00:00 | |
| DG1MFX-10 | 2026-09-02 23:21:45 | 47.96371 | 12.01532 | 146° | 146km/h | 11806m | 4.4m/s | -56.3°C | 52.3% | 212.5hPa | 2.7V | 00:00:00 | 00:00:00 | 00:00:00 | |
| DO3MHA-11 | 2026-09-02 23:21:43 | 47.96462 | 12.01441 | 146° | 142km/h | 11794m | 3.9m/s | -56.2°C | 61.9% | 212.9hPa | 2.7V | 00:00:00 | 00:52:23 | 00:00:00 | |
| DB0UT-7 | 2026-09-02 23:21:42 | 47.96492 | 12.01412 | 146° | 137km/h | 11790m | 3.6m/s | -56.2°C | 62.1% | 213.0hPa | 2.7V | 00:00:00 | 00:00:00 | 00:00:00 | |
| OE5MMP-10 | 2026-09-02 23:21:40 | 47.96552 | 12.01351 | 146° | 142km/h | 11782m | 2.9m/s | -56.1°C | 62.5% | 213.2hPa | 2.7V | 00:00:00 | 00:52:20 | 00:00:00 | |
| DL6DJ-15 | 2026-09-02 23:21:39 | 47.96582 | 12.01320 | 144° | 144km/h | 11779m | 3.9m/s | -56.1°C | 53.4% | 213.4hPa | 2.7V | 00:00:00 | 00:00:00 | 00:00:00 | |
| PG1ADW-2 | 2026-09-02 23:21:38 | 47.96612 | 12.01288 | 145° | 142km/h | 11775m | 4.5m/s | -56.1°C | 62.2% | 213.5hPa | 2.7V | 00:00:00 | 00:00:00 | 00:00:00 | |
| OE5WHR-10 | 2026-09-02 23:21:31 | 47.96823 | 12.01081 | 148° | 142km/h | 11749m | 3.7m/s | -55.9°C | 63.0% | 214.4hPa | 2.7V | 00:00:00 | 00:00:00 | 08:30:00 | |
| OE5MMP-10 | 2026-09-02 23:21:30 | 47.96853 | 12.01053 | 148° | 141km/h | 11745m | 3.3m/s | -55.9°C | 63.7% | 214.5hPa | 2.7V | 00:00:00 | 00:52:10 | 00:00:00 | |
| DG1MFX-10 | 2026-09-02 23:21:25 | 47.96972 | 12.00933 | 146° | 141km/h | 11730m | 3.5m/s | -55.9°C | 55.4% | 215.0hPa | 2.7V | 00:00:00 | 00:00:00 | 00:00:00 | |
| DO3MHA-11 | 2026-09-02 23:21:23 | 47.97060 | 12.00842 | 145° | 142km/h | 11719m | 4.1m/s | -55.8°C | 63.6% | 215.4hPa | 2.7V | 00:00:00 | 00:52:03 | 00:00:00 | |
| OE5MMP-10 | 2026-09-02 23:21:20 | 47.97146 | 12.00750 | 145° | 144km/h | 11707m | 3.0m/s | -55.7°C | 62.8% | 215.8hPa | 2.7V | 00:00:00 | 00:52:00 | 00:00:00 | |
| PG1ADW-2 | 2026-09-02 23:21:18 | 47.97205 | 12.00689 | 147° | 144km/h | 11699m | 3.4m/s | -55.6°C | 62.4% | 216.1hPa | 2.7V | 00:00:00 | 00:00:00 | 00:00:00 | |
| OE5DRO-10 | 2026-09-02 23:21:14 | 47.97328 | 12.00572 | 148° | 144km/h | 11682m | 3.3m/s | -55.5°C | 62.8% | 216.5hPa | 2.7V | 00:00:00 | 00:00:00 | 00:00:00 | |
| DO3MHA-11 | 2026-09-02 23:21:13 | 47.97360 | 12.00542 | 147° | 142km/h | 11679m | 3.3m/s | -55.4°C | 62.4% | 216.7hPa | 2.7V | 00:00:00 | 00:51:53 | 00:00:00 | |
| OE5MMP-10 | 2026-09-02 23:21:10 | 47.97449 | 12.00451 | 144° | 142km/h | 11667m | 3.6m/s | -55.4°C | 62.5% | 217.1hPa | 2.7V | 00:00:00 | 00:51:50 | 00:00:00 | |
| DL6DJ-15 | 2026-09-02 23:21:08 | 47.97506 | 12.00387 | 143° | 141km/h | 11660m | 3.3m/s | -55.3°C | 54.1% | 217.4hPa | 2.7V | 00:00:00 | 00:00:00 | 00:00:00 | |
| OE5FHM-15 | 2026-09-02 23:21:04 | 47.97625 | 12.00266 | 148° | 142km/h | 11644m | 4.3m/s | 0°C | 0% | 0hPa | 2.7V | 00:00:00 | 00:51:44 | 00:00:00 | |
| DO3MHA-11 | 2026-09-02 23:21:03 | 47.97656 | 12.00236 | 148° | 146km/h | 11640m | 3.9m/s | -55.1°C | 62.4% | 218.0hPa | 2.7V | 00:00:00 | 00:51:43 | 00:00:00 | |
| OE5MMP-10 | 2026-09-02 23:21:00 | 47.97749 | 12.00148 | 148° | 146km/h | 11628m | 3.8m/s | -55.0°C | 61.9% | 218.4hPa | 2.7V | 00:00:00 | 00:51:40 | 08:30:00 | |
| PG1ADW-2 | 2026-09-02 23:20:58 | 47.97811 | 12.00087 | 147° | 144km/h | 11621m | 3.4m/s | -54.9°C | 61.4% | 218.7hPa | 2.7V | 00:00:00 | 00:00:00 | 00:00:00 | |
| BAUMI2-15 | 2026-09-02 23:20:55 | 47.97902 | 11.99994 | 145° | 144km/h | 11608m | 4.2m/s | 0°C | 0% | 0hPa | 2.7V | 00:00:00 | 00:51:35 | 00:00:00 | |
| DO3MHA-11 | 2026-09-02 23:20:53 | 47.97961 | 11.99930 | 144° | 142km/h | 11600m | 4.3m/s | -54.9°C | 60.5% | 219.4hPa | 2.7V | 00:00:00 | 00:51:33 | 00:00:00 | |
| OE5MMP-10 | 2026-09-02 23:20:50 | 47.98050 | 11.99836 | 146° | 142km/h | 11588m | 4.1m/s | -54.8°C | 60.8% | 219.8hPa | 2.7V | 00:00:00 | 00:51:30 | 00:00:00 | |
| OE5WHR-10 | 2026-09-02 23:20:49 | 47.98080 | 11.99806 | 146° | 142km/h | 11584m | 4.1m/s | -54.8°C | 61.0% | 220.0hPa | 2.7V | 00:00:00 | 00:51:29 | 00:00:00 | |
| DG1MFX-10 | 2026-09-02 23:20:44 | 47.98199 | 11.99686 | 147° | 142km/h | 11568m | 3.0m/s | -54.7°C | 52.8% | 220.6hPa | 2.7V | 00:00:00 | 00:00:00 | 00:00:00 | |
| DO3MHA-11 | 2026-09-02 23:20:43 | 47.98259 | 11.99625 | 146° | 142km/h | 11560m | 2.9m/s | -54.6°C | 61.2% | 220.8hPa | 2.7V | 00:00:00 | 00:51:23 | 08:30:00 | |
| BAUMI2-15 | 2026-09-02 23:20:42 | 47.98289 | 11.99594 | 145° | 144km/h | 11557m | 3.5m/s | 0°C | 0% | 0hPa | 2.7V | 00:00:00 | 00:51:22 | 00:00:00 | |
| OE5MMP-10 | 2026-09-02 23:20:40 | 47.98348 | 11.99530 | 144° | 142km/h | 11548m | 4.2m/s | -54.5°C | 61.0% | 221.2hPa | 2.7V | 00:00:00 | 00:51:20 | 00:00:00 | |
| PG1ADW-2 | 2026-09-02 23:20:38 | 47.98406 | 11.99466 | 144° | 141km/h | 11540m | 3.8m/s | -54.4°C | 61.5% | 221.5hPa | 2.7V | 00:00:00 | 00:51:18 | 08:30:00 | |
| BAUMI2-15 | 2026-09-02 23:20:37 | 47.98436 | 11.99434 | 144° | 141km/h | 11537m | 2.9m/s | 0°C | 0% | 0hPa | 2.7V | 00:00:00 | 00:51:17 | 00:00:00 | |
| OE5DRO-10 | 2026-09-02 23:20:36 | 47.98465 | 11.99403 | 145° | 141km/h | 11533m | 4.6m/s | -54.4°C | 61.1% | 221.7hPa | 2.7V | 00:00:00 | 00:00:00 | 00:00:00 | |
| DO3MHA-11 | 2026-09-02 23:20:33 | 47.98552 | 11.99313 | 147° | 141km/h | 11521m | 4.1m/s | -54.3°C | 61.5% | 222.1hPa | 2.7V | 00:00:00 | 00:51:13 | 00:00:00 | |
| BAUMI2-15 | 2026-09-02 23:20:32 | 47.98582 | 11.99283 | 147° | 141km/h | 11517m | 3.4m/s | 0°C | 0% | 0hPa | 2.7V | 00:00:00 | 00:51:12 | 08:30:00 | |
| OE5MMP-10 | 2026-09-02 23:20:30 | 47.98641 | 11.99225 | 147° | 141km/h | 11509m | 3.5m/s | -54.2°C | 61.1% | 222.6hPa | 2.7V | 00:00:00 | 00:51:10 | 00:00:00 | |
| OE5WHR-10 | 2026-09-02 23:20:28 | 47.98700 | 11.99166 | 146° | 141km/h | 11502m | 4.1m/s | -54.1°C | 61.0% | 222.8hPa | 2.7V | 00:00:00 | 00:00:00 | 00:00:00 | |
| BAUMI2-15 | 2026-09-02 23:20:27 | 47.98730 | 11.99135 | 145° | 142km/h | 11498m | 3.0m/s | 0°C | 0% | 0hPa | 2.7V | 00:00:00 | 00:51:07 | 00:00:00 | |
| DO3MHA-11 | 2026-09-02 23:20:23 | 47.98845 | 11.99010 | 145° | 141km/h | 11482m | 4.5m/s | -53.9°C | 60.3% | 223.5hPa | 2.7V | 00:00:00 | 00:51:03 | 00:00:00 | |
| BAUMI2-15 | 2026-09-02 23:20:22 | 47.98875 | 11.98979 | 145° | 141km/h | 11478m | 3.2m/s | 0°C | 0% | 0hPa | 2.7V | 00:00:00 | 00:51:02 | 00:00:00 | |
| OE5MMP-10 | 2026-09-02 23:20:20 | 47.98933 | 11.98918 | 146° | 141km/h | 11469m | 3.7m/s | -53.8°C | 60.3% | 223.9hPa | 2.7V | 00:00:00 | 00:51:00 | 00:00:00 | |
| PG1ADW-2 | 2026-09-02 23:20:18 | 47.98992 | 11.98860 | 148° | 141km/h | 11461m | 3.7m/s | -53.7°C | 60.5% | 224.2hPa | 2.7V | 00:00:00 | 00:00:00 | 00:00:00 | |
| BAUMI2-15 | 2026-09-02 23:20:17 | 47.99023 | 11.98830 | 148° | 141km/h | 11458m | 3.2m/s | 0°C | 0% | 0hPa | 2.7V | 00:00:00 | 00:50:57 | 00:00:00 | |
| OE5FHM-15 | 2026-09-02 23:20:13 | 47.99140 | 11.98711 | 145° | 137km/h | 11442m | 5.0m/s | 0°C | 0% | 0hPa | 2.7V | 00:00:00 | 00:50:53 | 00:00:00 | |
| OE5MMP-10 | 2026-09-02 23:20:10 | 47.99227 | 11.98615 | 143° | 141km/h | 11431m | 5.0m/s | -53.5°C | 60.2% | 225.3hPa | 2.7V | 00:00:00 | 00:50:50 | 00:00:00 | |
| OE5WHR-10 | 2026-09-02 23:20:07 | 47.99310 | 11.98519 | 143° | 141km/h | 11418m | 4.1m/s | -53.4°C | 59.7% | 225.7hPa | 2.7V | 00:00:00 | 00:00:00 | 00:00:00 | |
| DL6DJ-15 | 2026-09-02 23:20:06 | 47.99338 | 11.98487 | 143° | 141km/h | 11414m | 3.8m/s | -53.4°C | 51.9% | 225.9hPa | 2.7V | 00:00:00 | 00:00:00 | 00:00:00 | |
| DO3MHA-11 | 2026-09-02 23:20:03 | 47.99425 | 11.98393 | 144° | 139km/h | 11401m | 4.4m/s | -53.3°C | 58.8% | 226.3hPa | 2.7V | 00:00:00 | 00:50:43 | 00:00:00 | |
| OE5MMP-10 | 2026-09-02 23:20:00 | 47.99511 | 11.98300 | 145° | 139km/h | 11388m | 2.9m/s | -53.2°C | 59.3% | 226.8hPa | 2.7V | 00:00:00 | 00:50:40 | 00:00:00 | |
| BAUMI2-15 | 2026-09-02 23:19:58 | 47.99568 | 11.98240 | 145° | 137km/h | 11380m | 4.1m/s | 0°C | 0% | 0hPa | 2.7V | 00:00:00 | 00:50:38 | 00:00:00 | |
| DO3MHA-11 | 2026-09-02 23:19:53 | 47.99712 | 11.98091 | 146° | 141km/h | 11362m | 3.5m/s | -52.9°C | 59.4% | 227.7hPa | 2.7V | 00:00:00 | 00:50:33 | 00:00:00 | |
| OE5DXL-15 | 2026-09-02 23:19:50 | 47.99798 | 11.97997 | 143° | 137km/h | 11351m | 3.9m/s | -52.9°C | 59.6% | 228.1hPa | 2.7V | 00:00:00 | 00:00:00 | 00:00:00 | |
| OE5WHR-10 | 2026-09-02 23:19:46 | 47.99911 | 11.97871 | 143° | 137km/h | 11335m | 4.0m/s | -52.8°C | 60.6% | 228.6hPa | 2.7V | 00:00:00 | 00:50:26 | 00:00:00 | |
| BAUMI2-15 | 2026-09-02 23:19:44 | 47.99968 | 11.97806 | 144° | 141km/h | 11328m | 4.7m/s | 0°C | 0% | 0hPa | 2.7V | 00:00:00 | 00:50:24 | 00:00:00 | |
| DO3MHA-11 | 2026-09-02 23:19:43 | 47.99996 | 11.97775 | 145° | 137km/h | 11323m | 4.0m/s | -52.7°C | 61.3% | 229.1hPa | 2.7V | 00:00:00 | 00:50:23 | 00:00:00 | |
| DG1MFX-10 | 2026-09-02 23:19:42 | 47.99996 | 11.97775 | 145° | 139km/h | 11323m | 4.0m/s | -52.8°C | 53.6% | 229.1hPa | 2.7V | 00:00:00 | 00:00:00 | 00:00:00 | |
| OE5MMP-10 | 2026-09-02 23:19:40 | 48.00080 | 11.97685 | 144° | 135km/h | 11311m | 3.3m/s | -52.6°C | 61.7% | 229.5hPa | 2.7V | 00:00:00 | 00:50:20 | 00:00:00 | |
| OE5DRO-10 | 2026-09-02 23:19:39 | 48.00108 | 11.97654 | 144° | 135km/h | 11308m | 3.8m/s | -52.6°C | 61.5% | 229.7hPa | 2.7V | 00:00:00 | 00:00:00 | 00:00:00 | |
| PG1ADW-2 | 2026-09-02 23:19:38 | 48.00135 | 11.97624 | 144° | 135km/h | 11304m | 5.0m/s | -52.5°C | 61.5% | 229.8hPa | 2.7V | 00:00:00 | 00:00:00 | 00:00:00 | |
| DL6DJ-15 | 2026-09-02 23:19:35 | 48.00217 | 11.97533 | 142° | 135km/h | 11292m | 3.9m/s | -52.5°C | 55.0% | 230.3hPa | 2.7V | 00:00:00 | 00:00:00 | 00:00:00 | |
| DO3MHA-11 | 2026-09-02 23:19:33 | 48.00272 | 11.97470 | 143° | 135km/h | 11284m | 4.3m/s | -52.4°C | 62.8% | 230.5hPa | 2.7V | 00:00:00 | 00:50:13 | 00:00:00 | |
| OE5MMP-10 | 2026-09-02 23:19:30 | 48.00355 | 11.97375 | 143° | 135km/h | 11273m | 3.8m/s | -52.3°C | 63.2% | 231.0hPa | 2.7V | 00:00:00 | 00:50:10 | 08:30:00 | |
| BAUMI2-15 | 2026-09-02 23:19:28 | 48.00409 | 11.97313 | 143° | 133km/h | 11265m | 5.0m/s | 0°C | 0% | 0hPa | 2.7V | 00:00:00 | 00:50:08 | 00:00:00 | |
| OE5WHR-10 | 2026-09-02 23:19:25 | 48.00490 | 11.97224 | 144° | 135km/h | 11253m | 4.5m/s | -52.2°C | 63.3% | 231.6hPa | 2.7V | 00:00:00 | 00:00:00 | 00:00:00 | |
| OE5DXL-15 | 2026-09-02 23:19:20 | 48.00626 | 11.97066 | 142° | 135km/h | 11233m | 3.7m/s | -52.1°C | 64.4% | 232.3hPa | 2.7V | 00:00:00 | 00:00:00 | 00:00:00 | |
| PG1ADW-2 | 2026-09-02 23:19:18 | 48.00681 | 11.97002 | 143° | 133km/h | 11225m | 3.2m/s | -52.0°C | 64.9% | 232.6hPa | 2.7V | 00:00:00 | 00:49:58 | 00:00:00 | |
| DO3MHA-11 | 2026-09-02 23:19:13 | 48.00815 | 11.96847 | 143° | 135km/h | 11204m | 4.7m/s | -52.0°C | 64.8% | 233.3hPa | 2.7V | 00:00:00 | 00:49:53 | 08:30:00 | |
| OE5MMP-10 | 2026-09-02 23:19:10 | 48.00893 | 11.96758 | 143° | 137km/h | 11191m | 5.3m/s | -51.9°C | 65.9% | 233.7hPa | 2.7V | 00:00:00 | 00:49:50 | 00:00:00 | |
| OE5WHR-10 | 2026-09-02 23:19:04 | 48.01058 | 11.96569 | 144° | 133km/h | 11167m | 4.6m/s | -51.8°C | 67.1% | 234.7hPa | 2.7V | 00:00:00 | 00:00:00 | 00:00:00 | |
| DO3MHA-11 | 2026-09-02 23:19:03 | 48.01086 | 11.96539 | 144° | 133km/h | 11163m | 3.7m/s | -51.7°C | 67.6% | 234.8hPa | 2.7V | 00:00:00 | 00:49:43 | 00:00:00 | |
| OE5DRO-10 | 2026-09-02 23:19:01 | 48.01142 | 11.96479 | 145° | 133km/h | 11154m | 4.7m/s | -51.6°C | 67.9% | 235.1hPa | 2.7V | 00:00:00 | 00:00:00 | 00:00:00 | |
| OE5MMP-10 | 2026-09-02 23:19:00 | 48.01169 | 11.96450 | 145° | 133km/h | 11150m | 3.8m/s | -51.6°C | 68.6% | 235.3hPa | 2.7V | 00:00:00 | 00:49:40 | 00:00:00 | |
| PG1ADW-2 | 2026-09-02 23:18:58 | 48.01223 | 11.96393 | 145° | 133km/h | 11143m | 4.1m/s | -51.5°C | 69.0% | 235.6hPa | 2.7V | 00:00:00 | 00:00:00 | 00:00:00 | |
| DO3MHA-11 | 2026-09-02 23:18:53 | 48.01360 | 11.96247 | 146° | 135km/h | 11123m | 4.2m/s | -51.4°C | 68.9% | 236.2hPa | 2.7V | 00:00:00 | 00:49:33 | 00:00:00 | |
| OE5MMP-10 | 2026-09-02 23:18:50 | 48.01443 | 11.96159 | 144° | 133km/h | 11111m | 3.5m/s | -51.3°C | 69.2% | 236.7hPa | 2.7V | 00:00:00 | 00:49:30 | 00:00:00 | |
| DB0UT-7 | 2026-09-02 23:18:46 | 48.01553 | 11.96040 | 144° | 133km/h | 11095m | 5.2m/s | -51.2°C | 69.4% | 237.2hPa | 2.7V | 00:00:00 | 00:49:26 | 00:00:00 | |
| DO3MHA-11 | 2026-09-02 23:18:43 | 48.01634 | 11.95948 | 144° | 133km/h | 11083m | 4.7m/s | -51.1°C | 70.1% | 237.7hPa | 2.7V | 00:00:00 | 00:49:23 | 00:00:00 | |
| OE5DRO-10 | 2026-09-02 23:18:42 | 48.01661 | 11.95918 | 145° | 131km/h | 11079m | 3.2m/s | -51.1°C | 70.7% | 237.9hPa | 2.7V | 00:00:00 | 00:00:00 | 00:00:00 | |
| DG1MFX-10 | 2026-09-02 23:18:41 | 48.01661 | 11.95918 | 145° | 131km/h | 11079m | 3.2m/s | -51.1°C | 62.7% | 237.9hPa | 2.7V | 00:00:00 | 00:00:00 | 00:00:00 | |
| OE5MMP-10 | 2026-09-02 23:18:40 | 48.01715 | 11.95860 | 144° | 133km/h | 11071m | 4.8m/s | -51.0°C | 70.5% | 238.1hPa | 2.7V | 00:00:00 | 00:49:20 | 00:00:00 | |
| DO3MHA-11 | 2026-09-02 23:18:33 | 48.01903 | 11.95648 | 142° | 131km/h | 11044m | 3.3m/s | -50.8°C | 73.0% | 239.1hPa | 2.7V | 00:00:00 | 00:49:13 | 00:00:00 | |
| OE5MMP-10 | 2026-09-02 23:18:30 | 48.01982 | 11.95557 | 143° | 133km/h | 11033m | 4.0m/s | -50.7°C | 73.6% | 239.6hPa | 2.7V | 00:00:00 | 00:49:10 | 00:00:00 | |
| DO3MHA-11 | 2026-09-02 23:18:23 | 48.02169 | 11.95346 | 143° | 135km/h | 11004m | 3.5m/s | -50.5°C | 75.1% | 240.6hPa | 2.7V | 00:00:00 | 00:49:03 | 00:00:00 | |
| OE5WHR-10 | 2026-09-02 23:18:22 | 48.02196 | 11.95315 | 143° | 135km/h | 11001m | 4.0m/s | -50.4°C | 74.8% | 240.7hPa | 2.7V | 00:00:00 | 00:00:00 | 08:30:00 | |
| DG1MFX-10 | 2026-09-02 23:18:21 | 48.02196 | 11.95315 | 144° | 135km/h | 11001m | 4.0m/s | -50.5°C | 66.8% | 240.8hPa | 2.7V | 00:00:00 | 00:00:00 | 00:00:00 | |
| OE5MMP-10 | 2026-09-02 23:18:20 | 48.02250 | 11.95254 | 144° | 137km/h | 10993m | 3.0m/s | -50.4°C | 75.3% | 241.0hPa | 2.7V | 00:00:00 | 00:49:00 | 00:00:00 | |
| PG1ADW-2 | 2026-09-02 23:18:18 | 48.02303 | 11.95193 | 143° | 135km/h | 10986m | 4.3m/s | -50.3°C | 74.6% | 241.3hPa | 2.7V | 00:00:00 | 00:00:00 | 00:00:00 | |
| DB0UT-7 | 2026-09-02 23:18:16 | 48.02358 | 11.95131 | 143° | 139km/h | 10978m | 4.4m/s | -50.3°C | 74.5% | 241.6hPa | 2.7V | 00:00:00 | 00:00:00 | 00:00:00 | |
| OE5FHM-15 | 2026-09-02 23:18:14 | 48.02414 | 11.95068 | 144° | 139km/h | 10970m | 3.4m/s | 0°C | 0% | 0hPa | 2.7V | 00:00:00 | 00:48:54 | 00:00:00 | |
| DO3MHA-11 | 2026-09-02 23:18:13 | 48.02442 | 11.95037 | 143° | 135km/h | 10966m | 4.4m/s | -50.2°C | 74.8% | 242.0hPa | 2.7V | 00:00:00 | 00:48:53 | 00:00:00 | |
| OE5MMP-10 | 2026-09-02 23:18:10 | 48.02525 | 11.94942 | 144° | 133km/h | 10953m | 4.0m/s | -50.1°C | 74.7% | 242.5hPa | 2.7V | 00:00:00 | 00:48:50 | 00:00:00 | |
| OE5DRO-10 | 2026-09-02 23:18:04 | 48.02688 | 11.94760 | 144° | 135km/h | 10928m | 4.1m/s | -49.8°C | 72.9% | 243.4hPa | 2.7V | 00:00:00 | 00:00:00 | 00:00:00 | |
| DO3MHA-11 | 2026-09-02 23:18:03 | 48.02715 | 11.94731 | 143° | 135km/h | 10924m | 3.6m/s | -49.8°C | 73.4% | 243.6hPa | 2.7V | 00:00:00 | 00:48:43 | 00:00:00 | |
| DL6DJ-15 | 2026-09-02 23:18:02 | 48.02742 | 11.94701 | 142° | 131km/h | 10920m | 3.5m/s | -49.8°C | 65.3% | 243.7hPa | 2.7V | 00:00:00 | 00:00:00 | 00:00:00 | |
| OE5WHR-10 | 2026-09-02 23:18:01 | 48.02769 | 11.94671 | 144° | 135km/h | 10916m | 4.3m/s | -49.7°C | 73.1% | 243.8hPa | 2.7V | 00:00:00 | 00:00:00 | 00:00:00 | |
| OE5MMP-10 | 2026-09-02 23:18:00 | 48.02796 | 11.94640 | 144° | 135km/h | 10912m | 4.2m/s | -49.7°C | 73.6% | 244.0hPa | 2.7V | 00:00:00 | 00:48:40 | 08:30:00 | |
| PG1ADW-2 | 2026-09-02 23:17:58 | 48.02851 | 11.94580 | 144° | 135km/h | 10905m | 4.6m/s | -49.6°C | 73.9% | 244.3hPa | 2.7V | 00:00:00 | 00:48:38 | 00:00:00 | |
| DO3MHA-11 | 2026-09-02 23:17:53 | 48.02987 | 11.94425 | 143° | 135km/h | 10885m | 4.2m/s | -49.5°C | 74.7% | 245.0hPa | 2.7V | 00:00:00 | 00:48:33 | 00:00:00 | |
| OE5DXL-15 | 2026-09-02 23:17:50 | 48.03068 | 11.94331 | 143° | 133km/h | 10873m | 4.0m/s | -49.4°C | 75.4% | 245.5hPa | 2.7V | 00:00:00 | 00:00:00 | 00:00:00 | |
| OE5DRO-10 | 2026-09-02 23:17:45 | 48.03202 | 11.94175 | 144° | 133km/h | 10854m | 5.0m/s | -49.2°C | 75.4% | 246.2hPa | 2.7V | 00:00:00 | 00:00:00 | 00:00:00 | |
| DO3MHA-11 | 2026-09-02 23:17:43 | 48.03257 | 11.94116 | 145° | 135km/h | 10846m | 3.7m/s | -49.2°C | 75.8% | 246.5hPa | 2.7V | 00:00:00 | 00:48:23 | 08:30:00 | |
| OE5MMP-10 | 2026-09-02 23:17:40 | 48.03341 | 11.94027 | 146° | 133km/h | 10834m | 4.5m/s | -49.1°C | 75.2% | 246.9hPa | 2.7V | 00:00:00 | 00:48:20 | 00:00:00 | |
| DG1MFX-10 | 2026-09-02 23:17:39 | 48.03342 | 11.94027 | 146° | 137km/h | 10834m | 4.5m/s | -49.1°C | 67.5% | 247.0hPa | 2.7V | 00:00:00 | 00:00:00 | 00:00:00 | |
| DB0UT-7 | 2026-09-02 23:17:38 | 48.03398 | 11.93968 | 145° | 130km/h | 10826m | 3.8m/s | -49.0°C | 74.6% | 247.2hPa | 2.7V | 00:00:00 | 00:48:18 | 00:00:00 | |
| DO3MHA-11 | 2026-09-02 23:17:33 | 48.03532 | 11.93814 | 143° | 131km/h | 10806m | 4.1m/s | -48.8°C | 74.0% | 248.0hPa | 2.7V | 00:00:00 | 00:48:13 | 00:00:00 | |
| DL6DJ-15 | 2026-09-02 23:17:31 | 48.03584 | 11.93753 | 141° | 131km/h | 10798m | 3.8m/s | -48.8°C | 65.9% | 248.4hPa | 2.7V | 00:00:00 | 00:00:00 | 00:00:00 | |
| OE5MMP-10 | 2026-09-02 23:17:30 | 48.03611 | 11.93722 | 143° | 131km/h | 10794m | 4.3m/s | -48.7°C | 72.9% | 248.5hPa | 2.7V | 00:00:00 | 00:48:10 | 00:00:00 | |
| OE5DRO-10 | 2026-09-02 23:17:26 | 48.03718 | 11.93607 | 145° | 130km/h | 10777m | 4.3m/s | -48.6°C | 73.4% | 249.1hPa | 2.7V | 00:00:00 | 00:00:00 | 08:30:00 | |
| DO3MHA-11 | 2026-09-02 23:17:23 | 48.03799 | 11.93518 | 143° | 131km/h | 10766m | 4.4m/s | -48.5°C | 73.1% | 249.5hPa | 2.7V | 00:00:00 | 00:48:03 | 00:00:00 | |
| OE5DXL-15 | 2026-09-02 23:17:20 | 48.03877 | 11.93427 | 142° | 130km/h | 10753m | 4.0m/s | -48.4°C | 73.5% | 250.0hPa | 2.7V | 00:00:00 | 00:00:00 | 00:00:00 | |
| OE5WHR-10 | 2026-09-02 23:17:19 | 48.03903 | 11.93397 | 142° | 130km/h | 10749m | 3.3m/s | -48.4°C | 73.1% | 250.1hPa | 2.7V | 00:00:00 | 00:00:00 | 00:00:00 | |
| PG1ADW-2 | 2026-09-02 23:17:18 | 48.03929 | 11.93367 | 143° | 130km/h | 10745m | 4.3m/s | -48.4°C | 72.9% | 250.3hPa | 2.7V | 00:00:00 | 00:00:00 | 00:00:00 | |
| OE5FHM-15 | 2026-09-02 23:17:13 | 48.04063 | 11.93221 | 145° | 128km/h | 10726m | 4.0m/s | 0°C | 0% | 0hPa | 2.7V | 00:00:00 | 00:47:53 | 00:00:00 | |
| OE5MMP-10 | 2026-09-02 23:17:10 | 48.04142 | 11.93135 | 143° | 130km/h | 10713m | 5.1m/s | -48.1°C | 71.3% | 251.5hPa | 2.7V | 00:00:00 | 00:47:50 | 00:00:00 | |
| OE5DRO-10 | 2026-09-02 23:17:07 | 48.04218 | 11.93045 | 142° | 128km/h | 10701m | 4.7m/s | -48.0°C | 70.9% | 252.0hPa | 2.7V | 00:00:00 | 00:00:00 | 00:00:00 | |
| DB0UT-7 | 2026-09-02 23:17:04 | 48.04296 | 11.92958 | 144° | 128km/h | 10689m | 4.6m/s | -47.9°C | 70.0% | 252.4hPa | 2.7V | 00:00:00 | 00:00:00 | 08:30:00 | |
| DO3MHA-11 | 2026-09-02 23:17:03 | 48.04323 | 11.92928 | 144° | 128km/h | 10684m | 4.2m/s | -47.9°C | 70.4% | 252.6hPa | 2.7V | 00:00:00 | 00:47:43 | 00:00:00 | |
| DL6DJ-15 | 2026-09-02 23:17:00 | 48.04430 | 11.92808 | 143° | 130km/h | 10667m | 3.9m/s | -47.8°C | 63.3% | 253.3hPa | 2.7V | 00:00:00 | 00:00:00 | 00:00:00 | |
| OE5WHR-10 | 2026-09-02 23:16:58 | 48.04456 | 11.92779 | 143° | 126km/h | 10663m | 5.0m/s | -47.7°C | 70.5% | 253.5hPa | 2.7V | 00:00:00 | 00:00:00 | 00:00:00 | |
| DG1MFX-10 | 2026-09-02 23:16:57 | 48.04456 | 11.92779 | 143° | 128km/h | 10663m | 5.1m/s | -47.8°C | 63.4% | 253.5hPa | 2.7V | 00:00:00 | 00:00:00 | 00:00:00 | |
| DO3MHA-11 | 2026-09-02 23:16:53 | 48.04579 | 11.92635 | 143° | 130km/h | 10643m | 3.9m/s | -47.5°C | 71.2% | 254.2hPa | 2.7V | 00:00:00 | 00:47:33 | 00:00:00 | |
| OE5MMP-10 | 2026-09-02 23:16:50 | 48.04655 | 11.92545 | 142° | 130km/h | 10631m | 3.7m/s | -47.4°C | 71.3% | 254.7hPa | 2.7V | 00:00:00 | 00:47:30 | 00:00:00 | |
| OE5DRO-10 | 2026-09-02 23:16:48 | 48.04707 | 11.92483 | 142° | 126km/h | 10623m | 3.2m/s | -47.4°C | 71.6% | 255.0hPa | 2.7V | 00:00:00 | 00:00:00 | 00:00:00 | |
| OE5FHM-15 | 2026-09-02 23:16:43 | 48.04839 | 11.92335 | 146° | 126km/h | 10605m | 3.3m/s | 0°C | 0% | 0hPa | 2.7V | 00:00:00 | 00:47:23 | 00:00:00 | |
| OE5MMP-10 | 2026-09-02 23:16:40 | 48.04918 | 11.92250 | 144° | 124km/h | 10593m | 3.6m/s | -47.2°C | 72.4% | 256.1hPa | 2.7V | 00:00:00 | 00:47:20 | 00:00:00 | |
| PG1ADW-2 | 2026-09-02 23:16:38 | 48.04969 | 11.92193 | 143° | 126km/h | 10585m | 4.8m/s | -47.1°C | 71.9% | 256.4hPa | 2.7V | 00:00:00 | 00:47:18 | 00:00:00 | |
| DG1MFX-10 | 2026-09-02 23:16:36 | 48.04994 | 11.92164 | 143° | 124km/h | 10581m | 4.1m/s | -47.1°C | 65.2% | 256.6hPa | 2.7V | 00:00:00 | 00:00:00 | 00:00:00 | |
| DB0UT-7 | 2026-09-02 23:16:34 | 48.05067 | 11.92076 | 141° | 126km/h | 10569m | 4.3m/s | -47.0°C | 72.0% | 257.1hPa | 2.7V | 00:00:00 | 00:47:14 | 00:00:00 | |
| DO3MHA-11 | 2026-09-02 23:16:33 | 48.05091 | 11.92047 | 142° | 124km/h | 10565m | 4.6m/s | -47.0°C | 72.2% | 257.3hPa | 2.7V | 00:00:00 | 00:47:13 | 00:00:00 | |
| OE5MMP-10 | 2026-09-02 23:16:30 | 48.05164 | 11.91960 | 142° | 126km/h | 10553m | 4.2m/s | -46.9°C | 71.9% | 257.7hPa | 2.7V | 00:00:00 | 00:47:10 | 08:30:00 | |
| OE5DRO-10 | 2026-09-02 23:16:29 | 48.05189 | 11.91931 | 142° | 126km/h | 10549m | 3.5m/s | -46.8°C | 71.7% | 257.9hPa | 2.7V | 00:00:00 | 00:00:00 | 00:00:00 | |
| BAUMI2-15 | 2026-09-02 23:16:27 | 48.05238 | 11.91873 | 143° | 126km/h | 10541m | 3.7m/s | 0°C | 0% | 0hPa | 2.7V | 00:00:00 | 00:47:07 | 00:00:00 | |
| DO3MHA-11 | 2026-09-02 23:16:23 | 48.05341 | 11.91758 | 145° | 128km/h | 10523m | 4.8m/s | -46.6°C | 70.2% | 258.8hPa | 2.7V | 00:00:00 | 00:47:03 | 00:00:00 | |
| PG1ADW-2 | 2026-09-02 23:16:18 | 48.05470 | 11.91612 | 142° | 126km/h | 10502m | 4.2m/s | -46.5°C | 70.0% | 259.7hPa | 2.7V | 00:00:00 | 00:00:00 | 00:00:00 | |
| BAUMI2-15 | 2026-09-02 23:16:15 | 48.05544 | 11.91521 | 141° | 126km/h | 10490m | 3.2m/s | 0°C | 0% | 0hPa | 2.7V | 00:00:00 | 00:46:55 | 00:00:00 | |
| OE5FHM-15 | 2026-09-02 23:16:13 | 48.05593 | 11.91461 | 142° | 122km/h | 10482m | 4.5m/s | 0°C | 0% | 0hPa | 2.7V | 00:00:00 | 00:46:53 | 00:00:00 | |
| OE5MMP-10 | 2026-09-02 23:16:10 | 48.05666 | 11.91375 | 143° | 130km/h | 10468m | 3.8m/s | -46.2°C | 71.6% | 261.0hPa | 2.7V | 00:00:00 | 00:46:50 | 00:00:00 | |
| OE5WHR-10 | 2026-09-02 23:16:09 | 48.05691 | 11.91347 | 143° | 128km/h | 10463m | 5.2m/s | -46.1°C | 71.7% | 261.1hPa | 2.7V | 00:00:00 | 00:00:00 | 00:00:00 | |
| DL6DJ-15 | 2026-09-02 23:15:58 | 48.05987 | 11.90982 | 137° | 117km/h | 10394m | 6.4m/s | -45.5°C | 57.3% | 263.9hPa | 2.7V | 00:00:00 | 00:00:00 | 00:00:00 | |
| DO3MHA-11 | 2026-09-02 23:15:51 | 48.06131 | 11.90794 | 142° | 126km/h | 10359m | 4.9m/s | -45.2°C | 61.5% | 265.3hPa | 2.7V | 00:00:00 | 00:46:31 | 00:00:00 | |
| OE5MMP-10 | 2026-09-02 23:15:50 | 48.06156 | 11.90763 | 142° | 126km/h | 10355m | 3.6m/s | -45.1°C | 61.2% | 265.5hPa | 2.7V | 00:00:00 | 00:46:30 | 00:00:00 | |
| OE5WHR-10 | 2026-09-02 23:15:48 | 48.06207 | 11.90699 | 139° | 124km/h | 10345m | 4.4m/s | -45.0°C | 60.3% | 265.8hPa | 2.7V | 00:00:00 | 00:00:00 | 00:00:00 | |
| DO3MHA-11 | 2026-09-02 23:15:41 | 48.06366 | 11.90473 | 137° | 126km/h | 10313m | 3.1m/s | -44.7°C | 58.2% | 267.0hPa | 2.7V | 00:00:00 | 00:46:21 | 00:00:00 | |
| OE5MMP-10 | 2026-09-02 23:15:40 | 48.06389 | 11.90441 | 138° | 126km/h | 10309m | 4.6m/s | -44.7°C | 57.4% | 267.3hPa | 2.9V | 00:00:00 | 00:46:20 | 00:00:00 | |
| PG1ADW-2 | 2026-09-02 23:15:38 | 48.06435 | 11.90378 | 139° | 128km/h | 10301m | 3.2m/s | -44.6°C | 57.3% | 267.7hPa | 2.9V | 00:00:00 | 00:00:00 | 00:00:00 | |
| DG1MFX-10 | 2026-09-02 23:15:34 | 48.06505 | 11.90281 | 137° | 130km/h | 10288m | 3.5m/s | -44.5°C | 50.9% | 268.1hPa | 2.7V | 00:00:00 | 00:00:00 | 00:00:00 | |
| OE5DRO-10 | 2026-09-02 23:15:32 | 48.06576 | 11.90180 | 137° | 128km/h | 10275m | 4.2m/s | -44.4°C | 56.1% | 268.7hPa | 2.7V | 00:00:00 | 00:00:00 | 00:00:00 | |
| DO3MHA-11 | 2026-09-02 23:15:31 | 48.06599 | 11.90147 | 136° | 126km/h | 10271m | 4.7m/s | -44.3°C | 56.0% | 268.8hPa | 2.7V | 00:00:00 | 00:46:11 | 00:00:00 | |
| OE5MMP-10 | 2026-09-02 23:15:30 | 48.06622 | 11.90114 | 136° | 126km/h | 10266m | 4.3m/s | -44.3°C | 56.2% | 269.0hPa | 2.7V | 00:00:00 | 00:46:10 | 00:00:00 | |
| DL6DJ-15 | 2026-09-02 23:15:27 | 48.06714 | 11.89990 | 137° | 122km/h | 10249m | 5.2m/s | -44.1°C | 49.3% | 269.8hPa | 2.7V | 00:00:00 | 00:00:00 | 00:00:00 | |
| DO3MHA-11 | 2026-09-02 23:15:21 | 48.06833 | 11.89826 | 138° | 130km/h | 10223m | 3.4m/s | -43.8°C | 54.3% | 270.8hPa | 2.7V | 00:00:00 | 00:46:01 | 00:00:00 | |
| OE5MMP-10 | 2026-09-02 23:15:20 | 48.06858 | 11.89792 | 138° | 130km/h | 10218m | 6.6m/s | -43.8°C | 53.8% | 270.9hPa | 2.7V | 00:00:00 | 00:46:00 | 00:00:00 | |
| PG1ADW-2 | 2026-09-02 23:15:18 | 48.06905 | 11.89723 | 135° | 130km/h | 10207m | 3.8m/s | -43.7°C | 53.6% | 271.4hPa | 2.7V | 00:00:00 | 00:45:58 | 00:00:00 | |
| OE5DRO-10 | 2026-09-02 23:15:13 | 48.07021 | 11.89549 | 135° | 128km/h | 10183m | 4.9m/s | -43.5°C | 52.4% | 272.4hPa | 2.7V | 00:00:00 | 00:00:00 | 00:00:00 | |
| DO3MHA-11 | 2026-09-02 23:15:11 | 48.07067 | 11.89481 | 137° | 130km/h | 10174m | 4.8m/s | -43.4°C | 52.3% | 272.8hPa | 2.7V | 00:00:00 | 00:45:51 | 00:00:00 | |
| OE5MMP-10 | 2026-09-02 23:15:10 | 48.07090 | 11.89448 | 137° | 130km/h | 10170m | 3.4m/s | -43.3°C | 52.4% | 272.9hPa | 2.7V | 00:00:00 | 00:45:50 | 00:00:00 | |
| OE5WHR-10 | 2026-09-02 23:15:06 | 48.07186 | 11.89314 | 138° | 130km/h | 10154m | 4.2m/s | -43.2°C | 50.5% | 273.5hPa | 2.7V | 00:00:00 | 00:00:00 | 08:30:00 | |
| DL6DJ-15 | 2026-09-02 23:14:56 | 48.07446 | 11.88948 | 138° | 126km/h | 10107m | 4.3m/s | -42.8°C | 35.2% | 275.5hPa | 2.7V | 00:00:00 | 00:00:00 | 00:00:00 | |
| OE5DRO-10 | 2026-09-02 23:14:54 | 48.07471 | 11.88916 | 140° | 130km/h | 10103m | 3.4m/s | -42.7°C | 37.2% | 275.6hPa | 2.7V | 00:00:00 | 00:00:00 | 00:00:00 | |
| DG1MFX-10 | 2026-09-02 23:14:53 | 48.07471 | 11.88916 | 141° | 130km/h | 10103m | 3.4m/s | -42.8°C | 33.1% | 275.7hPa | 2.7V | 00:00:00 | 00:00:00 | 00:00:00 | |
| DO3MHA-11 | 2026-09-02 23:14:51 | 48.07546 | 11.88819 | 138° | 128km/h | 10092m | 3.1m/s | -42.7°C | 33.2% | 276.1hPa | 2.7V | 00:00:00 | 00:45:31 | 00:00:00 | |
| OE5MMP-10 | 2026-09-02 23:14:50 | 48.07571 | 11.88786 | 138° | 128km/h | 10088m | 4.6m/s | -42.7°C | 32.3% | 276.3hPa | 2.7V | 00:00:00 | 00:45:30 | 00:00:00 | |
| OE5WHR-10 | 2026-09-02 23:14:45 | 48.07687 | 11.88620 | 136° | 130km/h | 10066m | 3.1m/s | -42.6°C | 32.3% | 277.2hPa | 2.7V | 00:00:00 | 00:00:00 | 00:00:00 | |
| DO3MHA-11 | 2026-09-02 23:14:41 | 48.07780 | 11.88486 | 137° | 131km/h | 10050m | 5.2m/s | -42.5°C | 33.2% | 277.8hPa | 2.7V | 00:00:00 | 00:45:21 | 08:30:00 | |
| OE5MMP-10 | 2026-09-02 23:14:40 | 48.07804 | 11.88452 | 137° | 131km/h | 10046m | 4.1m/s | -42.5°C | 34.2% | 278.1hPa | 2.9V | 00:00:00 | 00:45:20 | 00:00:00 | |
| PG1ADW-2 | 2026-09-02 23:14:38 | 48.07853 | 11.88382 | 138° | 130km/h | 10038m | 4.6m/s | -42.6°C | 37.4% | 278.4hPa | 2.9V | 00:00:00 | 00:00:00 | 08:30:00 | |
| DH7VM-15 | 2026-09-02 23:14:37 | 48.07853 | 11.88382 | 138° | 135km/h | 10038m | 4.6m/s | 0°C | 0% | 0hPa | 2.7V | 00:00:00 | 00:00:00 | 00:00:00 | |
| OE5DRO-10 | 2026-09-02 23:14:35 | 48.07926 | 11.88280 | 136° | 128km/h | 10026m | 5.1m/s | -42.6°C | 40.5% | 278.9hPa | 2.7V | 00:00:00 | 00:00:00 | 08:30:00 | |
| DG1MFX-10 | 2026-09-02 23:14:33 | 48.07950 | 11.88246 | 137° | 130km/h | 10021m | 5.0m/s | -42.6°C | 36.3% | 279.1hPa | 2.9V | 00:00:00 | 00:00:00 | 00:00:00 | |
| DO3MHA-11 | 2026-09-02 23:14:31 | 48.08021 | 11.88146 | 138° | 128km/h | 10007m | 5.6m/s | -42.4°C | 41.6% | 279.7hPa | 2.9V | 00:00:00 | 00:45:11 | 00:00:00 | |
| OE5MMP-10 | 2026-09-02 23:14:30 | 48.08045 | 11.88113 | 138° | 128km/h | 10002m | 2.9m/s | -42.4°C | 42.2% | 279.9hPa | 2.9V | 00:00:00 | 00:45:10 | 00:00:00 | |
| DL6DJ-15 | 2026-09-02 23:14:25 | 48.08193 | 11.87926 | 137° | 126km/h | 9978m | 4.5m/s | -42.2°C | 40.8% | 280.9hPa | 2.7V | 00:00:00 | 00:00:00 | 00:00:00 | |
| OE5WHR-10 | 2026-09-02 23:14:23 | 48.08216 | 11.87893 | 137° | 131km/h | 9974m | 4.3m/s | -42.2°C | 46.5% | 281.0hPa | 2.7V | 00:00:00 | 00:45:03 | 00:00:00 | |
| DO3MHA-11 | 2026-09-02 23:14:21 | 48.08264 | 11.87825 | 137° | 130km/h | 9965m | 3.9m/s | -42.1°C | 50.4% | 281.4hPa | 2.7V | 00:00:00 | 00:45:01 | 00:00:00 | |
| OE5MMP-10 | 2026-09-02 23:14:20 | 48.08288 | 11.87791 | 137° | 130km/h | 9961m | 4.6m/s | -42.1°C | 52.5% | 281.5hPa | 2.7V | 00:00:00 | 00:45:00 | 00:00:00 | |
| PG1ADW-2 | 2026-09-02 23:14:18 | 48.08335 | 11.87725 | 138° | 131km/h | 9952m | 3.5m/s | -42.1°C | 60.5% | 281.9hPa | 2.7V | 00:00:00 | 00:00:00 | 00:00:00 | |
| OE5DRO-10 | 2026-09-02 23:14:16 | 48.08384 | 11.87663 | 141° | 131km/h | 9944m | 4.9m/s | -42.1°C | 67.0% | 282.2hPa | 2.7V | 00:00:00 | 00:00:00 | 00:00:00 | |
| DG1MFX-10 | 2026-09-02 23:14:12 | 48.08460 | 11.87570 | 141° | 133km/h | 9933m | 4.7m/s | -42.1°C | 70.7% | 282.8hPa | 2.7V | 00:00:00 | 00:00:00 | 00:00:00 | |
| DO3MHA-11 | 2026-09-02 23:14:11 | 48.08510 | 11.87500 | 134° | 131km/h | 9922m | 4.5m/s | -42.1°C | 83.7% | 283.2hPa | 2.7V | 00:00:00 | 00:44:51 | 00:00:00 | |
| OE5MMP-10 | 2026-09-02 23:14:10 | 48.08533 | 11.87462 | 132° | 131km/h | 9918m | 4.4m/s | -42.1°C | 84.1% | 283.3hPa | 2.7V | 00:00:00 | 00:44:50 | 00:00:00 | |
| DL6DJ-15 | 2026-09-02 23:13:54 | 48.08931 | 11.86871 | 137° | 128km/h | 9814m | 3.3m/s | -41.3°C | 66.1% | 287.7hPa | 2.7V | 00:00:00 | 00:00:00 | 00:00:00 | |
| DO3MHA-11 | 2026-09-02 23:13:51 | 48.08980 | 11.86804 | 137° | 131km/h | 9803m | 7.2m/s | -41.2°C | 70.9% | 288.1hPa | 2.7V | 00:00:00 | 00:44:31 | 00:00:00 | |
| OE5DXL-15 | 2026-09-02 23:13:50 | 48.09004 | 11.86769 | 135° | 128km/h | 9797m | 4.3m/s | -41.2°C | 71.9% | 288.4hPa | 2.7V | 00:00:00 | 00:00:00 | 00:00:00 | |
| OE5WHR-10 | 2026-09-02 23:13:41 | 48.09206 | 11.86442 | 137° | 126km/h | 9745m | 6.2m/s | -40.8°C | 73.7% | 290.6hPa | 2.7V | 00:00:00 | 00:00:00 | 00:00:00 | |
| OE5MMP-10 | 2026-09-02 23:13:40 | 48.09228 | 11.86410 | 136° | 124km/h | 9740m | 3.4m/s | -40.7°C | 74.8% | 290.8hPa | 2.7V | 00:00:00 | 00:44:20 | 00:00:00 | |
| DB0UT-7 | 2026-09-02 23:13:39 | 48.09249 | 11.86378 | 135° | 124km/h | 9736m | 6.5m/s | -40.7°C | 75.6% | 291.1hPa | 2.7V | 00:00:00 | 00:44:19 | 00:00:00 | |
| OE5DRO-10 | 2026-09-02 23:13:38 | 48.09271 | 11.86346 | 135° | 126km/h | 9730m | 6.0m/s | -40.7°C | 76.4% | 291.2hPa | 2.7V | 00:00:00 | 00:00:00 | 00:00:00 | |
| OE5MMP-10 | 2026-09-02 23:13:30 | 48.09449 | 11.86069 | 135° | 126km/h | 9680m | 5.4m/s | -40.3°C | 77.8% | 293.4hPa | 2.9V | 00:00:00 | 00:44:10 | 08:30:00 | |
| DL6DJ-15 | 2026-09-02 23:13:22 | 48.09627 | 11.85797 | 135° | 124km/h | 9639m | 5.8m/s | -40.0°C | 68.1% | 295.2hPa | 2.9V | 00:00:00 | 00:00:00 | 00:00:00 | |
| OE5MMP-10 | 2026-09-02 23:13:20 | 48.09672 | 11.85730 | 136° | 122km/h | 9628m | 6.0m/s | -39.9°C | 73.9% | 295.6hPa | 2.9V | 00:00:00 | 00:44:00 | 00:00:00 | |
| OE5DRO-10 | 2026-09-02 23:13:19 | 48.09695 | 11.85697 | 136° | 124km/h | 9623m | 4.3m/s | -39.8°C | 74.3% | 295.8hPa | 2.9V | 00:00:00 | 00:00:00 | 00:00:00 | |
| PG1ADW-2 | 2026-09-02 23:13:18 | 48.09718 | 11.85663 | 135° | 124km/h | 9618m | 5.0m/s | -39.8°C | 74.7% | 296.0hPa | 2.9V | 00:00:00 | 00:00:00 | 00:00:00 | |
| DO3MHA-11 | 2026-09-02 23:13:12 | 48.09847 | 11.85463 | 134° | 124km/h | 9592m | 4.8m/s | -39.6°C | 74.6% | 297.1hPa | 2.9V | 00:00:00 | 00:43:52 | 00:00:00 | |
| OE5MMP-10 | 2026-09-02 23:13:10 | 48.09890 | 11.85400 | 137° | 126km/h | 9584m | 4.7m/s | -39.5°C | 74.4% | 297.6hPa | 2.9V | 00:00:00 | 00:43:50 | 00:00:00 | |
| DB0UT-7 | 2026-09-02 23:13:09 | 48.09912 | 11.85368 | 138° | 113km/h | 9579m | 6.0m/s | -39.5°C | 73.8% | 297.8hPa | 2.9V | 00:00:00 | 00:00:00 | 00:00:00 | |
| DL6DJ-15 | 2026-09-02 23:12:51 | 48.10323 | 11.84774 | 136° | 126km/h | 9473m | 3.8m/s | -38.6°C | 72.0% | 302.4hPa | 2.9V | 00:00:00 | 00:00:00 | 00:00:00 | |
| OE5DXL-15 | 2026-09-02 23:12:50 | 48.10347 | 11.84742 | 137° | 124km/h | 9468m | 7.2m/s | -38.5°C | 76.8% | 302.6hPa | 2.9V | 00:00:00 | 00:00:00 | 00:00:00 | |
| DG1MFX-10 | 2026-09-02 23:12:49 | 48.10347 | 11.84742 | 138° | 126km/h | 9468m | 7.2m/s | -38.6°C | 71.4% | 302.7hPa | 2.9V | 00:00:00 | 00:00:00 | 00:00:00 | |
| DO3MHA-11 | 2026-09-02 23:12:42 | 48.10518 | 11.84475 | 137° | 128km/h | 9420m | 4.9m/s | -38.2°C | 74.5% | 304.7hPa | 2.9V | 00:00:00 | 00:43:22 | 00:00:00 | |
| OE5DRO-10 | 2026-09-02 23:12:41 | 48.10542 | 11.84442 | 137° | 124km/h | 9415m | 4.2m/s | -38.1°C | 73.8% | 305.0hPa | 2.9V | 00:00:00 | 00:00:00 | 00:00:00 | |
| OE5MMP-10 | 2026-09-02 23:12:40 | 48.10565 | 11.84408 | 137° | 126km/h | 9410m | 6.5m/s | -38.1°C | 73.2% | 305.2hPa | 2.9V | 00:00:00 | 00:43:20 | 00:00:00 | |
| OE5WHR-10 | 2026-09-02 23:12:38 | 48.10613 | 11.84339 | 136° | 122km/h | 9398m | 5.3m/s | -38.0°C | 73.0% | 305.6hPa | 2.9V | 00:00:00 | 00:00:00 | 00:00:00 | |
| DO3MHA-11 | 2026-09-02 23:12:32 | 48.10746 | 11.84138 | 134° | 122km/h | 9367m | 5.6m/s | -37.7°C | 73.8% | 307.1hPa | 2.9V | 00:00:00 | 00:43:12 | 00:00:00 | |
| OE5MMP-10 | 2026-09-02 23:12:30 | 48.10787 | 11.84073 | 133° | 122km/h | 9355m | 6.0m/s | -37.6°C | 73.0% | 307.5hPa | 2.7V | 00:00:00 | 00:43:10 | 00:00:00 | |
| DG1MFX-10 | 2026-09-02 23:12:29 | 48.10787 | 11.84072 | 133° | 120km/h | 9355m | 6.1m/s | -37.7°C | 67.9% | 307.6hPa | 2.9V | 00:00:00 | 00:00:00 | 00:00:00 | |
| DO3MHA-11 | 2026-09-02 23:12:22 | 48.10960 | 11.83800 | 139° | 119km/h | 9313m | 6.0m/s | -37.3°C | 74.0% | 309.4hPa | 2.9V | 00:00:00 | 00:43:02 | 00:00:00 | |
| OE5MMP-10 | 2026-09-02 23:12:20 | 48.11005 | 11.83741 | 139° | 119km/h | 9303m | 6.0m/s | -37.2°C | 73.8% | 309.9hPa | 2.9V | 00:00:00 | 00:43:00 | 00:00:00 | |
| PG1ADW-2 | 2026-09-02 23:12:18 | 48.11047 | 11.83679 | 133° | 117km/h | 9293m | 2.9m/s | -37.2°C | 76.0% | 310.4hPa | 2.9V | 00:00:00 | 00:00:00 | 00:00:00 | |
| OE5WHR-10 | 2026-09-02 23:12:17 | 48.11067 | 11.83647 | 133° | 117km/h | 9289m | 4.6m/s | -37.1°C | 76.2% | 310.5hPa | 2.9V | 00:00:00 | 00:42:57 | 00:00:00 | |
| DO3MHA-11 | 2026-09-02 23:12:12 | 48.11170 | 11.83480 | 135° | 119km/h | 9263m | 7.1m/s | -37.0°C | 77.1% | 311.7hPa | 2.9V | 00:00:00 | 00:42:52 | 00:00:00 | |
| OE5MMP-10 | 2026-09-02 23:12:10 | 48.11214 | 11.83418 | 140° | 117km/h | 9249m | 5.1m/s | -36.9°C | 75.9% | 312.2hPa | 2.9V | 00:00:00 | 00:42:50 | 00:00:00 | |
| DG1MFX-10 | 2026-09-02 23:12:08 | 48.11238 | 11.83389 | 141° | 119km/h | 9244m | 4.6m/s | -36.9°C | 70.6% | 312.5hPa | 2.9V | 00:00:00 | 00:00:00 | 00:00:00 | |
| OE5DRO-10 | 2026-09-02 23:12:03 | 48.11368 | 11.83207 | 134° | 113km/h | 9213m | 5.7m/s | -36.6°C | 75.7% | 313.9hPa | 2.9V | 00:00:00 | 00:00:00 | 00:00:00 | |
| DL6DJ-15 | 2026-09-02 23:11:49 | 48.11658 | 11.82792 | 132° | 111km/h | 9143m | 5.1m/s | -36.1°C | 69.8% | 317.2hPa | 2.9V | 00:00:00 | 00:00:00 | 00:00:00 | |
| DG1MFX-10 | 2026-09-02 23:11:47 | 48.11677 | 11.82760 | 134° | 113km/h | 9139m | 4.4m/s | -36.0°C | 69.9% | 317.4hPa | 2.9V | 00:00:00 | 00:00:00 | 00:00:00 | |
| OE5DRO-10 | 2026-09-02 23:11:44 | 48.11758 | 11.82637 | 136° | 115km/h | 9122m | 4.9m/s | -35.8°C | 72.8% | 318.2hPa | 2.9V | 00:00:00 | 00:00:00 | 08:30:00 | |
| DO3MHA-11 | 2026-09-02 23:11:42 | 48.11800 | 11.82575 | 136° | 113km/h | 9113m | 4.1m/s | -35.8°C | 72.0% | 318.6hPa | 2.9V | 00:00:00 | 00:42:22 | 00:00:00 | |
| OE5MMP-10 | 2026-09-02 23:11:40 | 48.11842 | 11.82514 | 138° | 113km/h | 9103m | 4.3m/s | -35.7°C | 71.5% | 318.9hPa | 2.9V | 00:00:00 | 00:42:20 | 00:00:00 | |
| PG1ADW-2 | 2026-09-02 23:11:38 | 48.11885 | 11.82454 | 136° | 111km/h | 9095m | 5.1m/s | -35.6°C | 70.6% | 319.4hPa | 2.9V | 00:00:00 | 00:00:00 | 08:30:00 | |
| OE5WHR-10 | 2026-09-02 23:11:35 | 48.11945 | 11.82363 | 135° | 110km/h | 9082m | 4.5m/s | -35.5°C | 69.9% | 320.0hPa | 2.9V | 00:00:00 | 00:00:00 | 00:00:00 | |
| DO3MHA-11 | 2026-09-02 23:11:32 | 48.12004 | 11.82272 | 134° | 113km/h | 9068m | 3.6m/s | -35.4°C | 69.6% | 320.6hPa | 2.9V | 00:00:00 | 00:42:12 | 08:30:00 | |
| OE5MMP-10 | 2026-09-02 23:11:30 | 48.12043 | 11.82211 | 135° | 111km/h | 9060m | 3.8m/s | -35.3°C | 69.6% | 320.9hPa | 2.9V | 00:00:00 | 00:42:10 | 00:00:00 | |
| DG1MFX-10 | 2026-09-02 23:11:26 | 48.12106 | 11.82118 | 137° | 119km/h | 9047m | 4.0m/s | -35.2°C | 64.9% | 321.6hPa | 2.9V | 00:00:00 | 00:00:00 | 00:00:00 | |
| OE5DRO-10 | 2026-09-02 23:11:25 | 48.12148 | 11.82058 | 138° | 110km/h | 9038m | 4.9m/s | -35.2°C | 70.5% | 322.0hPa | 2.9V | 00:00:00 | 00:00:00 | 00:00:00 | |
| DO3MHA-11 | 2026-09-02 23:11:22 | 48.12208 | 11.81978 | 139° | 110km/h | 9024m | 6.4m/s | -35.0°C | 69.1% | 322.6hPa | 2.9V | 00:00:00 | 00:42:02 | 00:00:00 | |
| OE5DXL-15 | 2026-09-02 23:11:20 | 48.12249 | 11.81923 | 139° | 110km/h | 9013m | 5.3m/s | -34.9°C | 68.7% | 323.1hPa | 2.9V | 00:00:00 | 00:00:00 | 00:00:00 | |
| PG1ADW-2 | 2026-09-02 23:11:18 | 48.12290 | 11.81868 | 139° | 110km/h | 9000m | 6.8m/s | -34.9°C | 69.2% | 323.6hPa | 2.7V | 00:00:00 | 00:41:58 | 00:00:00 | |
| OE5WHR-10 | 2026-09-02 23:11:14 | 48.12368 | 11.81756 | 135° | 111km/h | 8980m | 5.1m/s | -34.7°C | 68.5% | 324.6hPa | 2.7V | 00:00:00 | 00:41:54 | 00:00:00 | |
| DO3MHA-11 | 2026-09-02 23:11:12 | 48.12408 | 11.81694 | 135° | 110km/h | 8971m | 6.4m/s | -34.6°C | 67.7% | 325.0hPa | 2.7V | 00:00:00 | 00:41:52 | 00:00:00 | |
| OE5MMP-10 | 2026-09-02 23:11:10 | 48.12448 | 11.81634 | 136° | 110km/h | 8961m | 2.4m/s | -34.5°C | 68.2% | 325.5hPa | 2.7V | 00:00:00 | 00:41:50 | 00:00:00 | |
| DG1MFX-10 | 2026-09-02 23:11:06 | 48.12511 | 11.81548 | 140° | 111km/h | 8946m | 6.9m/s | -34.5°C | 63.0% | 326.3hPa | 2.7V | 00:00:00 | 00:00:00 | 00:00:00 | |
| DO3MHA-11 | 2026-09-02 23:11:02 | 48.12612 | 11.81414 | 137° | 113km/h | 8918m | 3.9m/s | -34.2°C | 68.1% | 327.6hPa | 2.7V | 00:00:00 | 00:41:42 | 00:00:00 | |
| OE5MMP-10 | 2026-09-02 23:11:00 | 48.12653 | 11.81356 | 138° | 111km/h | 8908m | 6.6m/s | -34.1°C | 67.0% | 328.0hPa | 2.9V | 00:00:00 | 00:41:40 | 00:00:00 | |
| PG1ADW-2 | 2026-09-02 23:10:58 | 48.12698 | 11.81297 | 139° | 108km/h | 8896m | 6.4m/s | -34.0°C | 66.2% | 328.5hPa | 2.9V | 00:00:00 | 00:00:00 | 00:00:00 | |
| OE5WHR-10 | 2026-09-02 23:10:53 | 48.12807 | 11.81157 | 141° | 108km/h | 8866m | 6.3m/s | -33.8°C | 64.7% | 329.9hPa | 2.9V | 00:00:00 | 00:00:00 | 00:00:00 | |
| DO3MHA-11 | 2026-09-02 23:10:52 | 48.12827 | 11.81133 | 141° | 106km/h | 8861m | 3.2m/s | -33.7°C | 65.0% | 330.2hPa | 2.7V | 00:00:00 | 00:41:32 | 00:00:00 | |
| OE5MMP-10 | 2026-09-02 23:10:50 | 48.12866 | 11.81085 | 140° | 106km/h | 8851m | 6.1m/s | -33.6°C | 65.6% | 330.7hPa | 2.7V | 00:00:00 | 00:41:30 | 00:00:00 | |
| OE5DRO-10 | 2026-09-02 23:10:47 | 48.12925 | 11.81006 | 138° | 110km/h | 8838m | 5.4m/s | -33.5°C | 64.7% | 331.2hPa | 2.7V | 00:00:00 | 00:00:00 | 00:00:00 | |
| DG1MFX-10 | 2026-09-02 23:10:45 | 48.12945 | 11.80978 | 138° | 110km/h | 8832m | 7.8m/s | -33.5°C | 60.1% | 331.6hPa | 2.9V | 00:00:00 | 00:00:00 | 00:00:00 | |
| DO3MHA-11 | 2026-09-02 23:10:42 | 48.13027 | 11.80869 | 139° | 110km/h | 8810m | 6.8m/s | -33.3°C | 63.9% | 332.7hPa | 2.9V | 00:00:00 | 00:41:22 | 00:00:00 | |
| OE5MMP-10 | 2026-09-02 23:10:40 | 48.13067 | 11.80814 | 136° | 111km/h | 8800m | 2.9m/s | -33.2°C | 64.6% | 333.1hPa | 2.9V | 00:00:00 | 00:41:20 | 00:00:00 | |
| PG1ADW-2 | 2026-09-02 23:10:38 | 48.13106 | 11.80757 | 136° | 110km/h | 8788m | 6.5m/s | -33.1°C | 64.2% | 333.6hPa | 2.9V | 00:00:00 | 00:00:00 | 00:00:00 | |
| OE5WHR-10 | 2026-09-02 23:10:32 | 48.13235 | 11.80590 | 142° | 108km/h | 8757m | 6.2m/s | -32.9°C | 63.6% | 335.1hPa | 2.9V | 00:00:00 | 00:00:00 | 00:00:00 | |
| OE5MMP-10 | 2026-09-02 23:10:30 | 48.13279 | 11.80537 | 141° | 110km/h | 8744m | 5.9m/s | -32.8°C | 63.6% | 335.7hPa | 2.9V | 00:00:00 | 00:41:10 | 08:30:00 | |
| OE5DRO-10 | 2026-09-02 23:10:28 | 48.13322 | 11.80480 | 138° | 106km/h | 8730m | 7.3m/s | -32.6°C | 63.7% | 336.3hPa | 2.9V | 00:00:00 | 00:00:00 | 00:00:00 | |
| DG1MFX-10 | 2026-09-02 23:10:25 | 48.13361 | 11.80423 | 136° | 106km/h | 8719m | 3.8m/s | -32.6°C | 60.3% | 337.0hPa | 2.9V | 00:00:00 | 00:00:00 | 00:00:00 | |
| DO3MHA-11 | 2026-09-02 23:10:22 | 48.13437 | 11.80310 | 138° | 108km/h | 8697m | 5.4m/s | -32.3°C | 63.3% | 338.1hPa | 2.9V | 00:00:00 | 00:41:02 | 00:00:00 | |
| OE5MMP-10 | 2026-09-02 23:10:20 | 48.13478 | 11.80254 | 139° | 106km/h | 8685m | 4.5m/s | -32.3°C | 63.5% | 338.6hPa | 2.9V | 00:00:00 | 00:41:00 | 00:00:00 | |
| PG1ADW-2 | 2026-09-02 23:10:18 | 48.13518 | 11.80199 | 138° | 106km/h | 8674m | 8.5m/s | -32.2°C | 63.7% | 339.1hPa | 2.9V | 00:00:00 | 00:00:00 | 00:00:00 | |
| DL6DJ-15 | 2026-09-02 23:10:16 | 48.13576 | 11.80117 | 135° | 104km/h | 8658m | 4.9m/s | -32.2°C | 60.6% | 339.9hPa | 2.9V | 00:00:00 | 00:00:00 | 00:00:00 | |
| DB0UT-7 | 2026-09-02 23:10:14 | 48.13595 | 11.80089 | 137° | 102km/h | 8653m | 6.0m/s | 0°C | 0% | 0hPa | 2.9V | 00:00:00 | 00:40:54 | 00:00:00 | |
| DO3MHA-11 | 2026-09-02 23:10:12 | 48.13633 | 11.80032 | 135° | 104km/h | 8641m | 6.1m/s | -32.0°C | 64.0% | 340.7hPa | 2.9V | 00:00:00 | 00:40:52 | 00:00:00 | |
| OE5WHR-10 | 2026-09-02 23:10:11 | 48.13651 | 11.80003 | 134° | 102km/h | 8636m | 4.8m/s | -32.0°C | 64.3% | 340.9hPa | 2.9V | 00:00:00 | 00:40:51 | 00:00:00 | |
| OE5DRO-10 | 2026-09-02 23:10:10 | 48.13686 | 11.79949 | 135° | 102km/h | 8623m | 5.4m/s | -31.9°C | 64.4% | 341.5hPa | 2.9V | 00:00:00 | 00:00:00 | 00:00:00 | |
| DG1MFX-10 | 2026-09-02 23:10:05 | 48.13742 | 11.79872 | 142° | 104km/h | 8611m | 3.7m/s | -31.8°C | 60.3% | 342.2hPa | 2.9V | 00:00:00 | 00:00:00 | 00:00:00 | |
| DO3MHA-11 | 2026-09-02 23:10:02 | 48.13830 | 11.79768 | 141° | 102km/h | 8589m | 4.5m/s | -31.6°C | 64.5% | 343.2hPa | 2.9V | 00:00:00 | 00:40:42 | 08:30:00 | |
| OE5MMP-10 | 2026-09-02 23:10:00 | 48.13873 | 11.79712 | 139° | 99km/h | 8580m | 5.9m/s | -31.6°C | 65.1% | 343.6hPa | 2.7V | 00:00:00 | 00:40:40 | 00:00:00 | |
| PG1ADW-2 | 2026-09-02 23:09:58 | 48.13913 | 11.79658 | 137° | 97km/h | 8568m | 5.8m/s | -31.5°C | 64.4% | 344.2hPa | 2.7V | 00:00:00 | 00:40:38 | 00:00:00 | |
| DO3MHA-11 | 2026-09-02 23:09:52 | 48.14018 | 11.79513 | 140° | 97km/h | 8529m | 6.9m/s | -31.3°C | 62.4% | 346.0hPa | 2.7V | 00:00:00 | 00:40:32 | 00:00:00 | |
| OE5WHR-10 | 2026-09-02 23:09:50 | 48.14055 | 11.79464 | 139° | 95km/h | 8519m | 3.5m/s | -31.2°C | 62.1% | 346.6hPa | 2.7V | 00:00:00 | 00:00:00 | 00:00:00 | |
| DL6DJ-15 | 2026-09-02 23:09:45 | 48.14170 | 11.79323 | 142° | 97km/h | 8483m | 6.0m/s | -31.0°C | 56.1% | 348.3hPa | 2.9V | 00:00:00 | 00:00:00 | 00:00:00 | |
| DB0UT-7 | 2026-09-02 23:09:44 | 48.14170 | 11.79323 | 143° | 97km/h | 8483m | 6.0m/s | 0°C | 0% | 0hPa | 2.9V | 00:00:00 | 00:00:00 | 00:00:00 | |
| DO3MHA-11 | 2026-09-02 23:09:42 | 48.14208 | 11.79278 | 140° | 93km/h | 8475m | 3.8m/s | -30.9°C | 60.7% | 348.8hPa | 2.9V | 00:00:00 | 00:40:22 | 00:00:00 | |
| OE5MMP-10 | 2026-09-02 23:09:40 | 48.14244 | 11.79229 | 137° | 93km/h | 8465m | 4.7m/s | 0°C | 0% | 0hPa | 2.9V | 00:00:00 | 00:40:20 | 00:00:00 | |
| PG1ADW-2 | 2026-09-02 23:09:38 | 48.14279 | 11.79178 | 135° | 93km/h | 8454m | 6.4m/s | -30.9°C | 62.0% | 349.7hPa | 2.9V | 00:00:00 | 00:00:00 | 00:00:00 | |
| DO3MHA-11 | 2026-09-02 23:09:32 | 48.14382 | 11.79042 | 138° | 95km/h | 8420m | 7.2m/s | -30.8°C | 63.8% | 351.4hPa | 2.9V | 00:00:00 | 00:40:12 | 00:00:00 | |
| OE5DRO-10 | 2026-09-02 23:09:31 | 48.14400 | 11.79017 | 135° | 95km/h | 8414m | 5.9m/s | -30.7°C | 64.1% | 351.7hPa | 2.9V | 00:00:00 | 00:00:00 | 00:00:00 | |
| OE5MMP-10 | 2026-09-02 23:09:30 | 48.14416 | 11.78990 | 132° | 95km/h | 8409m | 4.0m/s | 0°C | 0% | 0hPa | 2.9V | 00:00:00 | 00:40:10 | 00:00:00 | |
| OE5WHR-10 | 2026-09-02 23:09:29 | 48.14433 | 11.78962 | 131° | 95km/h | 8405m | 4.8m/s | -30.7°C | 65.0% | 352.3hPa | 2.9V | 00:00:00 | 00:00:00 | 00:00:00 | |
| DG1MFX-10 | 2026-09-02 23:09:24 | 48.14497 | 11.78852 | 133° | 93km/h | 8383m | 4.2m/s | -30.7°C | 64.7% | 353.3hPa | 2.9V | 00:00:00 | 00:00:00 | 00:00:00 | |
| DO3MHA-11 | 2026-09-02 23:09:22 | 48.14543 | 11.78776 | 135° | 95km/h | 8365m | 6.4m/s | -30.5°C | 69.0% | 354.0hPa | 2.9V | 00:00:00 | 00:40:02 | 00:00:00 | |
| OE5MMP-10 | 2026-09-02 23:09:20 | 48.14577 | 11.78727 | 137° | 97km/h | 8355m | 4.8m/s | 0°C | 0% | 0hPa | 2.9V | 00:00:00 | 00:40:00 | 00:00:00 | |
| PG1ADW-2 | 2026-09-02 23:09:18 | 48.14610 | 11.78678 | 135° | 97km/h | 8343m | 6.1m/s | -30.5°C | 68.6% | 355.3hPa | 2.9V | 00:00:00 | 00:00:00 | 00:00:00 | |
| DL6DJ-15 | 2026-09-02 23:09:14 | 48.14693 | 11.78544 | 132° | 99km/h | 8314m | 4.0m/s | -30.4°C | 63.3% | 356.8hPa | 2.9V | 00:00:00 | 00:00:00 | 00:00:00 | |
| DO3MHA-11 | 2026-09-02 23:09:12 | 48.14710 | 11.78516 | 134° | 99km/h | 8309m | 5.2m/s | 0°C | 0% | 0hPa | 2.9V | 00:00:00 | 00:39:52 | 00:00:00 | |
| OE5MMP-10 | 2026-09-02 23:09:10 | 48.14745 | 11.78461 | 134° | 99km/h | 8298m | 5.7m/s | 0°C | 0% | 0hPa | 2.9V | 00:00:00 | 00:39:50 | 00:00:00 | |
| OE5WHR-10 | 2026-09-02 23:09:08 | 48.14780 | 11.78405 | 134° | 97km/h | 8287m | 4.1m/s | -30.2°C | 65.3% | 358.1hPa | 2.9V | 00:00:00 | 00:39:48 | 00:00:00 | |
| DG1MFX-10 | 2026-09-02 23:09:03 | 48.14849 | 11.78297 | 136° | 97km/h | 8269m | 5.5m/s | -30.2°C | 60.1% | 359.1hPa | 2.9V | 00:00:00 | 00:00:00 | 00:00:00 | |
| DO3MHA-11 | 2026-09-02 23:09:02 | 48.14884 | 11.78246 | 136° | 97km/h | 8260m | 6.2m/s | -30.2°C | 61.1% | 359.4hPa | 2.9V | 00:00:00 | 00:39:42 | 00:00:00 | |
| OE5MMP-10 | 2026-09-02 23:09:00 | 48.14918 | 11.78192 | 133° | 99km/h | 8248m | 4.3m/s | 0°C | 0% | 0hPa | 2.7V | 00:00:00 | 00:39:40 | 08:30:00 | |
| PG1ADW-2 | 2026-09-02 23:08:57 | 48.14968 | 11.78111 | 134° | 99km/h | 8235m | 3.0m/s | -30.1°C | 55.2% | 360.8hPa | 2.7V | 00:00:00 | 00:00:00 | 00:00:00 | |
| OE5DRO-10 | 2026-09-02 23:08:53 | 48.15032 | 11.78003 | 130° | 97km/h | 8214m | 4.3m/s | -30.0°C | 53.5% | 361.8hPa | 2.7V | 00:00:00 | 00:00:00 | 08:30:00 | |
| DO3MHA-11 | 2026-09-02 23:08:52 | 48.15048 | 11.77975 | 130° | 99km/h | 8209m | 5.4m/s | -29.9°C | 52.8% | 362.0hPa | 2.9V | 00:00:00 | 00:39:32 | 00:00:00 | |
| OE5DXL-15 | 2026-09-02 23:08:50 | 48.15079 | 11.77920 | 133° | 97km/h | 8200m | 2.7m/s | -29.8°C | 52.7% | 362.6hPa | 2.9V | 00:00:00 | 00:00:00 | 00:00:00 | |
| OE5WHR-10 | 2026-09-02 23:08:47 | 48.15128 | 11.77836 | 130° | 97km/h | 8184m | 5.5m/s | -29.7°C | 50.9% | 363.3hPa | 2.9V | 00:00:00 | 00:00:00 | 08:30:00 | |
| DL6DJ-15 | 2026-09-02 23:08:43 | 48.15212 | 11.77696 | 131° | 95km/h | 8157m | 7.0m/s | -29.5°C | 45.7% | 364.7hPa | 2.9V | 00:00:00 | 00:00:00 | 00:00:00 | |
| DO3MHA-11 | 2026-09-02 23:08:42 | 48.15212 | 11.77696 | 132° | 95km/h | 8158m | 7.0m/s | -29.4°C | 48.6% | 364.7hPa | 2.9V | 00:00:00 | 00:39:22 | 00:00:00 | |
| PG1ADW-2 | 2026-09-02 23:08:36 | 48.15310 | 11.77530 | 137° | 95km/h | 8125m | 3.8m/s | -29.1°C | 47.4% | 366.3hPa | 2.9V | 00:00:00 | 00:39:16 | 08:30:00 | |
| OE5DRO-10 | 2026-09-02 23:08:34 | 48.15346 | 11.77482 | 139° | 95km/h | 8116m | 5.5m/s | -29.0°C | 46.8% | 366.7hPa | 2.9V | 00:00:00 | 00:00:00 | 00:00:00 | |
| OE3JTB-15 | 2026-09-02 23:08:33 | 48.15363 | 11.77458 | 137° | 97km/h | 8110m | 7.6m/s | -29.0°C | 46.5% | 367.1hPa | 2.9V | 00:00:00 | 00:39:13 | 00:00:00 | |
| OE5MMP-10 | 2026-09-02 23:08:28 | 48.15448 | 11.77321 | 131° | 95km/h | 8085m | 4.0m/s | 0°C | 0% | 0hPa | 2.9V | 00:00:00 | 00:39:08 | 00:00:00 | |
| OE5WHR-10 | 2026-09-02 23:08:26 | 48.15478 | 11.77267 | 129° | 99km/h | 8074m | 6.0m/s | -28.6°C | 42.7% | 368.9hPa | 2.9V | 00:00:00 | 00:00:00 | 00:00:00 | |
| DG1MFX-10 | 2026-09-02 23:08:23 | 48.15508 | 11.77212 | 131° | 95km/h | 8063m | 4.3m/s | -28.6°C | 39.4% | 369.5hPa | 2.9V | 00:00:00 | 00:00:00 | 00:00:00 | |
| OE5DXL-15 | 2026-09-02 23:08:20 | 48.15577 | 11.77108 | 138° | 99km/h | 8041m | 8.2m/s | -28.3°C | 37.6% | 370.6hPa | 2.9V | 00:00:00 | 00:00:00 | 00:00:00 | |
| OE5MMP-10 | 2026-09-02 23:08:18 | 48.15611 | 11.77062 | 139° | 99km/h | 8027m | 5.7m/s | 0°C | 0% | 0hPa | 2.7V | 00:00:00 | 00:38:58 | 00:00:00 | |
| PG1ADW-2 | 2026-09-02 23:08:16 | 48.15646 | 11.77016 | 138° | 99km/h | 8015m | 6.5m/s | -28.1°C | 34.8% | 372.0hPa | 2.7V | 00:00:00 | 00:00:00 | 00:00:00 | |
| OE5DRO-10 | 2026-09-02 23:08:15 | 48.15664 | 11.76991 | 138° | 99km/h | 8009m | 4.4m/s | -28.0°C | 34.9% | 372.3hPa | 2.7V | 00:00:00 | 00:00:00 | 00:00:00 | |
| DL6DJ-15 | 2026-09-02 23:08:12 | 48.15739 | 11.76882 | 134° | 102km/h | 7990m | 4.5m/s | -27.9°C | 35.0% | 373.5hPa | 2.7V | 00:00:00 | 00:00:00 | 00:00:00 | |
| OE5MMP-10 | 2026-09-02 23:08:08 | 48.15794 | 11.76800 | 137° | 97km/h | 7972m | 6.7m/s | 0°C | 0% | 0hPa | 2.7V | 00:00:00 | 00:38:48 | 00:00:00 | |
| OE3JTB-15 | 2026-09-02 23:08:04 | 48.15864 | 11.76700 | 135° | 99km/h | 7950m | 6.0m/s | -27.6°C | 39.2% | 375.5hPa | 2.7V | 00:00:00 | 00:00:00 | 00:00:00 | |
| DB0UT-7 | 2026-09-02 23:08:03 | 48.15880 | 11.76676 | 135° | 93km/h | 7945m | 4.2m/s | 0°C | 0% | 0hPa | 2.7V | 00:00:00 | 00:38:43 | 00:00:00 | |
| OE5DRO-10 | 2026-09-02 23:07:56 | 48.16013 | 11.76503 | 139° | 100km/h | 7909m | 4.6m/s | -27.3°C | 44.0% | 377.5hPa | 2.7V | 00:00:00 | 00:00:00 | 00:00:00 | |
| OE5DXL-15 | 2026-09-02 23:07:50 | 48.16123 | 11.76343 | 134° | 100km/h | 7872m | 7.4m/s | -26.9°C | 41.4% | 379.4hPa | 2.7V | 00:00:00 | 00:00:00 | 00:00:00 | |
| DO3MHA-11 | 2026-09-02 23:07:46 | 48.16187 | 11.76243 | 134° | 102km/h | 7850m | 6.9m/s | -26.7°C | 39.2% | 380.6hPa | 2.7V | 00:00:00 | 00:38:26 | 08:30:00 | |
| OE5MMP-10 | 2026-09-02 23:07:45 | 48.16203 | 11.76219 | 135° | 104km/h | 7844m | 5.8m/s | 0°C | 0% | 0hPa | 2.9V | 00:00:00 | 00:38:25 | 00:00:00 | |
| DG1MFX-10 | 2026-09-02 23:07:42 | 48.16239 | 11.76168 | 139° | 106km/h | 7834m | 5.0m/s | -26.7°C | 33.6% | 381.4hPa | 2.9V | 00:00:00 | 00:00:00 | 00:00:00 | |
| DL6DJ-15 | 2026-09-02 23:07:40 | 48.16302 | 11.76087 | 140° | 111km/h | 7816m | 6.6m/s | -26.5°C | 32.4% | 382.4hPa | 2.9V | 00:00:00 | 00:00:00 | 00:00:00 | |
| OE5DRO-10 | 2026-09-02 23:07:37 | 48.16364 | 11.76009 | 140° | 99km/h | 7799m | 5.5m/s | -26.3°C | 33.9% | 383.4hPa | 2.9V | 00:00:00 | 00:00:00 | 00:00:00 | |
| DO3MHA-11 | 2026-09-02 23:07:36 | 48.16383 | 11.75985 | 140° | 99km/h | 7793m | 5.7m/s | -26.2°C | 33.5% | 383.7hPa | 2.9V | 00:00:00 | 00:38:16 | 00:00:00 | |
| OE3JTB-15 | 2026-09-02 23:07:35 | 48.16401 | 11.75962 | 140° | 99km/h | 7787m | 5.9m/s | -26.1°C | 32.8% | 384.0hPa | 2.9V | 00:00:00 | 00:00:00 | 00:00:00 | |
| OE5WHR-10 | 2026-09-02 23:07:27 | 48.16555 | 11.75769 | 141° | 102km/h | 7735m | 6.0m/s | -25.7°C | 30.7% | 386.7hPa | 2.9V | 00:00:00 | 00:38:07 | 00:00:00 | |
| DO3MHA-11 | 2026-09-02 23:07:26 | 48.16575 | 11.75743 | 141° | 99km/h | 7729m | 5.8m/s | -25.6°C | 30.3% | 387.0hPa | 2.9V | 00:00:00 | 00:38:06 | 00:00:00 | |
| OE5MMP-10 | 2026-09-02 23:07:23 | 48.16636 | 11.75665 | 140° | 100km/h | 7715m | 5.4m/s | 0°C | 0% | 0hPa | 2.9V | 00:00:00 | 00:38:03 | 00:00:00 | |
| DG1MFX-10 | 2026-09-02 23:07:21 | 48.16655 | 11.75640 | 140° | 99km/h | 7709m | 5.5m/s | -25.5°C | 28.3% | 388.1hPa | 2.9V | 00:00:00 | 00:00:00 | 00:00:00 | |
| OE5DXL-15 | 2026-09-02 23:07:20 | 48.16692 | 11.75595 | 142° | 97km/h | 7701m | 4.7m/s | -25.3°C | 29.0% | 388.5hPa | 2.9V | 00:00:00 | 00:00:00 | 00:00:00 | |
| OE5DRO-10 | 2026-09-02 23:07:18 | 48.16729 | 11.75551 | 142° | 99km/h | 7691m | 4.3m/s | -25.2°C | 28.3% | 389.1hPa | 2.9V | 00:00:00 | 00:00:00 | 00:00:00 | |
| DO3MHA-11 | 2026-09-02 23:07:16 | 48.16766 | 11.75506 | 140° | 106km/h | 7681m | 6.2m/s | -25.1°C | 26.0% | 389.7hPa | 2.9V | 00:00:00 | 00:37:56 | 00:00:00 | |
| OE5MMP-10 | 2026-09-02 23:07:13 | 48.16821 | 11.75430 | 137° | 99km/h | 7665m | 5.9m/s | 0°C | 0% | 0hPa | 2.9V | 00:00:00 | 00:37:53 | 00:00:00 | |
| DL6DJ-15 | 2026-09-02 23:07:09 | 48.16908 | 11.75323 | 143° | 111km/h | 7647m | 3.6m/s | -24.9°C | 16.0% | 391.7hPa | 2.9V | 00:00:00 | 00:00:00 | 00:00:00 | |
| DO3MHA-11 | 2026-09-02 23:07:06 | 48.16970 | 11.75251 | 139° | 93km/h | 7631m | 6.3m/s | -24.7°C | 17.4% | 392.4hPa | 2.9V | 00:00:00 | 00:37:46 | 00:00:00 | |
| OE5MMP-10 | 2026-09-02 23:07:02 | 48.17031 | 11.75154 | 135° | 95km/h | 7612m | 2.8m/s | 0°C | 0% | 0hPa | 2.9V | 00:00:00 | 00:37:42 | 00:00:00 | |
| DG1MFX-10 | 2026-09-02 23:07:01 | 48.17031 | 11.75153 | 135° | 89km/h | 7612m | 2.8m/s | -24.5°C | 16.6% | 393.6hPa | 2.9V | 00:00:00 | 00:00:00 | 00:00:00 | |
| OE5DRO-10 | 2026-09-02 23:06:59 | 48.17085 | 11.75083 | 144° | 93km/h | 7597m | 6.5m/s | -24.3°C | 17.2% | 394.4hPa | 2.9V | 00:00:00 | 00:00:00 | 00:00:00 | |
| DO3MHA-11 | 2026-09-02 23:06:56 | 48.17147 | 11.75017 | 142° | 91km/h | 7573m | 7.7m/s | -24.1°C | 15.8% | 395.6hPa | 2.9V | 00:00:00 | 00:37:36 | 00:00:00 | |
| OE5DXL-15 | 2026-09-02 23:06:50 | 48.17254 | 11.74886 | 144° | 91km/h | 7522m | 7.7m/s | -23.7°C | 11.7% | 398.2hPa | 2.9V | 00:00:00 | 00:00:00 | 00:00:00 | |
| DO3MHA-11 | 2026-09-02 23:06:46 | 48.17326 | 11.74805 | 142° | 93km/h | 7497m | 5.7m/s | -23.5°C | 11.4% | 399.6hPa | 2.9V | 00:00:00 | 00:37:26 | 00:00:00 | |
| OE5WHR-10 | 2026-09-02 23:06:44 | 48.17362 | 11.74760 | 138° | 89km/h | 7485m | 8.0m/s | -23.4°C | 11.4% | 400.3hPa | 2.9V | 00:00:00 | 00:00:00 | 00:00:00 | |
| OE5DRO-10 | 2026-09-02 23:06:40 | 48.17430 | 11.74661 | 137° | 89km/h | 7463m | 5.2m/s | -23.2°C | 11.6% | 401.6hPa | 2.9V | 00:00:00 | 00:00:00 | 00:00:00 | |
| DL6DJ-15 | 2026-09-02 23:06:38 | 48.17466 | 11.74613 | 138° | 95km/h | 7451m | 7.4m/s | -23.2°C | 10.8% | 402.2hPa | 2.9V | 00:00:00 | 00:00:00 | 00:00:00 | |
| DO3MHA-11 | 2026-09-02 23:06:36 | 48.17503 | 11.74565 | 140° | 88km/h | 7439m | 4.1m/s | -23.1°C | 12.2% | 402.7hPa | 2.9V | 00:00:00 | 00:37:16 | 00:00:00 | |
| OE5MMP-10 | 2026-09-02 23:06:29 | 48.17617 | 11.74411 | 134° | 88km/h | 7400m | 5.9m/s | 0°C | 0% | 0hPa | 2.9V | 00:00:00 | 00:37:09 | 00:00:00 | |
| DO3MHA-11 | 2026-09-02 23:06:26 | 48.17661 | 11.74340 | 134° | 91km/h | 7381m | 6.8m/s | -22.8°C | 16.3% | 405.9hPa | 2.9V | 00:00:00 | 00:37:06 | 00:00:00 | |
| OE5WHR-10 | 2026-09-02 23:06:23 | 48.17710 | 11.74267 | 138° | 91km/h | 7363m | 9.0m/s | -22.6°C | 16.4% | 407.0hPa | 2.9V | 00:00:00 | 00:37:03 | 00:00:00 | |
| OE5DRO-10 | 2026-09-02 23:06:22 | 48.17745 | 11.74219 | 139° | 91km/h | 7349m | 4.3m/s | -22.6°C | 18.3% | 407.7hPa | 2.9V | 00:00:00 | 00:00:00 | 00:00:00 | |
| OE5DXL-15 | 2026-09-02 23:06:20 | 48.17762 | 11.74197 | 139° | 91km/h | 7345m | 4.4m/s | -22.5°C | 18.4% | 408.1hPa | 2.9V | 00:00:00 | 00:00:00 | 00:00:00 | |
| DO3MHA-11 | 2026-09-02 23:06:16 | 48.17829 | 11.74103 | 133° | 89km/h | 7317m | 4.8m/s | -22.3°C | 17.5% | 409.6hPa | 2.9V | 00:00:00 | 00:36:56 | 08:30:00 | |
| DL6DJ-15 | 2026-09-02 23:06:07 | 48.17977 | 11.73889 | 141° | 95km/h | 7264m | 7.3m/s | -22.0°C | 18.0% | 412.6hPa | 2.9V | 00:00:00 | 00:00:00 | 00:00:00 | |
| DO3MHA-11 | 2026-09-02 23:06:06 | 48.17996 | 11.73866 | 141° | 91km/h | 7258m | 5.9m/s | -21.9°C | 19.2% | 413.0hPa | 2.9V | 00:00:00 | 00:36:46 | 00:00:00 | |
| OE5WHR-10 | 2026-09-02 23:06:02 | 48.18070 | 11.73772 | 140° | 95km/h | 7234m | 9.6m/s | -21.8°C | 18.6% | 414.5hPa | 2.9V | 00:00:00 | 00:00:00 | 00:00:00 | |
| OE3JTB-15 | 2026-09-02 23:06:00 | 48.18106 | 11.73725 | 140° | 93km/h | 7217m | 7.9m/s | -21.7°C | 16.4% | 415.3hPa | 2.9V | 00:00:00 | 00:00:00 | 00:00:00 | |
| PG1ADW-2 | 2026-09-02 23:05:56 | 48.18173 | 11.73640 | 142° | 95km/h | 7194m | 5.6m/s | -21.5°C | 14.6% | 416.7hPa | 2.9V | 00:00:00 | 00:36:36 | 00:00:00 | |
| DO3MHA-11 | 2026-09-02 23:05:55 | 48.18190 | 11.73620 | 141° | 95km/h | 7188m | 7.0m/s | -21.5°C | 14.2% | 417.0hPa | 2.9V | 00:00:00 | 00:36:35 | 00:00:00 | |
| OE5DXL-15 | 2026-09-02 23:05:50 | 48.18284 | 11.73506 | 139° | 88km/h | 7162m | 3.2m/s | -21.3°C | 13.6% | 418.4hPa | 2.9V | 00:00:00 | 00:00:00 | 00:00:00 | |
| OE5DRO-10 | 2026-09-02 23:05:43 | 48.18409 | 11.73331 | 138° | 86km/h | 7122m | 6.6m/s | -21.2°C | 13.3% | 420.7hPa | 2.9V | 00:00:00 | 00:00:00 | 00:00:00 | |
| DG1MFX-10 | 2026-09-02 23:05:39 | 48.18466 | 11.73268 | 146° | 95km/h | 7104m | 4.4m/s | -21.1°C | 12.6% | 421.7hPa | 2.9V | 00:00:00 | 00:00:00 | 00:00:00 | |
| PG1ADW-2 | 2026-09-02 23:05:36 | 48.18546 | 11.73182 | 142° | 82km/h | 7084m | 5.6m/s | -20.9°C | 14.5% | 422.7hPa | 2.9V | 00:00:00 | 00:00:00 | 08:30:00 | |
| DO3MHA-11 | 2026-09-02 23:05:34 | 48.18582 | 11.73134 | 136° | 78km/h | 7075m | 4.8m/s | -20.8°C | 15.6% | 423.3hPa | 2.9V | 00:00:00 | 00:36:14 | 00:00:00 | |
| OE3JTB-15 | 2026-09-02 23:05:31 | 48.18628 | 11.73064 | 136° | 78km/h | 7057m | 7.0m/s | -20.7°C | 15.1% | 424.3hPa | 2.9V | 00:00:00 | 00:36:11 | 00:00:00 | |
| DO3MHA-11 | 2026-09-02 23:05:24 | 48.18725 | 11.72933 | 133° | 82km/h | 7018m | 6.2m/s | -20.4°C | 12.9% | 426.5hPa | 2.9V | 00:00:00 | 00:36:04 | 00:00:00 | |
| OE5WHR-10 | 2026-09-02 23:05:20 | 48.18784 | 11.72850 | 141° | 82km/h | 6996m | 6.5m/s | -20.3°C | 11.6% | 427.9hPa | 2.9V | 00:00:00 | 00:36:00 | 00:00:00 | |
| DG1MFX-10 | 2026-09-02 23:05:18 | 48.18800 | 11.72830 | 144° | 84km/h | 6989m | 7.7m/s | -20.3°C | 10.5% | 428.3hPa | 2.9V | 00:00:00 | 00:00:00 | 00:00:00 | |
| PG1ADW-2 | 2026-09-02 23:05:16 | 48.18851 | 11.72772 | 143° | 78km/h | 6968m | 7.0m/s | -20.2°C | 11.3% | 429.5hPa | 2.9V | 00:00:00 | 00:00:00 | 00:00:00 | |
| DO3MHA-11 | 2026-09-02 23:05:14 | 48.18882 | 11.72732 | 137° | 78km/h | 6954m | 7.0m/s | -20.1°C | 11.6% | 430.3hPa | 2.9V | 00:00:00 | 00:35:54 | 00:00:00 | |
| OE5DRO-10 | 2026-09-02 23:05:05 | 48.19012 | 11.72545 | 139° | 78km/h | 6906m | 5.4m/s | -19.7°C | 11.5% | 433.1hPa | 2.9V | 00:00:00 | 00:00:00 | 00:00:00 | |
| DO3MHA-11 | 2026-09-02 23:05:04 | 48.19025 | 11.72525 | 137° | 75km/h | 6899m | 8.3m/s | -19.7°C | 11.4% | 433.4hPa | 2.9V | 00:00:00 | 00:35:44 | 00:00:00 | |
| OE3JTB-15 | 2026-09-02 23:05:02 | 48.19051 | 11.72483 | 130° | 71km/h | 6887m | 3.6m/s | -19.6°C | 11.4% | 434.2hPa | 2.7V | 00:00:00 | 00:00:00 | 08:30:00 | |
| OE5WHR-10 | 2026-09-02 23:04:59 | 48.19089 | 11.72416 | 131° | 82km/h | 6868m | 5.5m/s | -19.5°C | 11.2% | 435.2hPa | 2.9V | 00:00:00 | 00:00:00 | 08:30:00 | |
| DG1MFX-10 | 2026-09-02 23:04:57 | 48.19102 | 11.72394 | 131° | 77km/h | 6863m | 5.2m/s | -19.5°C | 10.3% | 435.5hPa | 2.9V | 00:00:00 | 00:00:00 | 00:00:00 | |
| PG1ADW-2 | 2026-09-02 23:04:56 | 48.19126 | 11.72351 | 130° | 82km/h | 6849m | 9.3m/s | -19.3°C | 10.8% | 436.2hPa | 2.9V | 00:00:00 | 00:00:00 | 00:00:00 | |
| DO3MHA-11 | 2026-09-02 23:04:54 | 48.19151 | 11.72310 | 133° | 84km/h | 6834m | 5.8m/s | -19.2°C | 10.3% | 437.1hPa | 2.9V | 00:00:00 | 00:35:34 | 00:00:00 | |
| OE5DXL-15 | 2026-09-02 23:04:50 | 48.19208 | 11.72226 | 139° | 78km/h | 6808m | 7.2m/s | -19.0°C | 7.9% | 438.5hPa | 2.9V | 00:00:00 | 00:00:00 | 00:00:00 | |
| OE5DRO-10 | 2026-09-02 23:04:46 | 48.19274 | 11.72140 | 138° | 80km/h | 6790m | 5.3m/s | -18.9°C | 6.9% | 439.7hPa | 2.9V | 00:00:00 | 00:00:00 | 00:00:00 | |
| DO3MHA-11 | 2026-09-02 23:04:44 | 48.19306 | 11.72093 | 134° | 80km/h | 6777m | 5.9m/s | -18.9°C | 7.0% | 440.5hPa | 2.9V | 00:00:00 | 00:35:24 | 00:00:00 | |
| OE5WHR-10 | 2026-09-02 23:04:37 | 48.19401 | 11.71931 | 137° | 73km/h | 6727m | 6.9m/s | -18.8°C | 6.5% | 443.6hPa | 2.9V | 00:00:00 | 00:00:00 | 00:00:00 | |
| PG1ADW-2 | 2026-09-02 23:04:36 | 48.19414 | 11.71913 | 138° | 73km/h | 6721m | 6.6m/s | -18.7°C | 6.4% | 444.1hPa | 2.9V | 00:00:00 | 00:35:16 | 00:00:00 | |
| DO3MHA-11 | 2026-09-02 23:04:34 | 48.19443 | 11.71875 | 139° | 77km/h | 6708m | 7.6m/s | -18.6°C | 6.5% | 444.8hPa | 2.9V | 00:00:00 | 00:35:14 | 08:30:00 | |
| DF3TZ-5 | 2026-09-02 23:04:30 | 48.19496 | 11.71789 | 129° | 77km/h | 6684m | 4.7m/s | 0°C | -1.0% | -1.0hPa | 2.9V | 00:00:00 | 00:00:00 | 00:00:00 | |
| OE5DRO-10 | 2026-09-02 23:04:27 | 48.19534 | 11.71723 | 132° | 71km/h | 6666m | 7.8m/s | -18.4°C | 6.3% | 447.3hPa | 2.9V | 00:00:00 | 00:00:00 | 00:00:00 | |
| DO3MHA-11 | 2026-09-02 23:04:24 | 48.19573 | 11.71660 | 133° | 71km/h | 6647m | 5.2m/s | -18.3°C | 6.3% | 448.6hPa | 2.9V | 00:00:00 | 00:35:04 | 00:00:00 | |
| OE5DXL-15 | 2026-09-02 23:04:20 | 48.19622 | 11.71581 | 133° | 69km/h | 6620m | 7.8m/s | -18.1°C | 6.3% | 450.1hPa | 2.9V | 00:00:00 | 00:00:00 | 00:00:00 | |
| DG1MFX-10 | 2026-09-02 23:04:17 | 48.19645 | 11.71542 | 132° | 68km/h | 6606m | 5.9m/s | -18.1°C | 5.8% | 450.9hPa | 2.9V | 00:00:00 | 00:00:00 | 00:00:00 | |
| OE5WHR-10 | 2026-09-02 23:04:16 | 48.19668 | 11.71503 | 134° | 71km/h | 6596m | 5.7m/s | -18.0°C | 6.3% | 451.4hPa | 2.9V | 00:00:00 | 00:34:56 | 00:00:00 | |
| OE5DRO-10 | 2026-09-02 23:04:08 | 48.19772 | 11.71354 | 139° | 68km/h | 6553m | 4.2m/s | -17.7°C | 6.7% | 454.0hPa | 2.9V | 00:00:00 | 00:00:00 | 00:00:00 | |
| DL6DJ-15 | 2026-09-02 23:04:03 | 48.19829 | 11.71264 | 130° | 66km/h | 6525m | 6.1m/s | -17.5°C | 6.5% | 455.6hPa | 2.9V | 00:00:00 | 00:00:00 | 00:00:00 | |
| PG1ADW-2 | 2026-09-02 23:03:56 | 48.19912 | 11.71116 | 130° | 64km/h | 6489m | 6.1m/s | -17.3°C | 10.5% | 458.0hPa | 2.9V | 00:00:00 | 00:00:00 | 00:00:00 | |
| OE5WHR-10 | 2026-09-02 23:03:55 | 48.19923 | 11.71095 | 131° | 64km/h | 6483m | 6.2m/s | 0°C | 0% | 0hPa | 2.9V | 00:00:00 | 00:00:00 | 00:00:00 | |
| OE5DXL-15 | 2026-09-02 23:03:50 | 48.19972 | 11.71002 | 132° | 62km/h | 6455m | 5.1m/s | -17.2°C | 12.6% | 460.2hPa | 2.9V | 00:00:00 | 00:00:00 | 00:00:00 | |
| OE5DRO-10 | 2026-09-02 23:03:49 | 48.19983 | 11.70985 | 135° | 66km/h | 6449m | 7.9m/s | -17.2°C | 15.3% | 460.5hPa | 2.9V | 00:00:00 | 00:00:00 | 00:00:00 | |
| DO3MHA-11 | 2026-09-02 23:03:47 | 48.20006 | 11.70952 | 137° | 66km/h | 6434m | 6.7m/s | -17.2°C | 20.2% | 461.3hPa | 2.9V | 00:00:00 | 00:34:27 | 00:00:00 | |
| PG1ADW-2 | 2026-09-02 23:03:36 | 48.20127 | 11.70752 | 124° | 58km/h | 6376m | 3.7m/s | 0°C | 0% | 0hPa | 2.9V | 00:00:00 | 00:00:00 | 00:00:00 | |
| DO3MHA-11 | 2026-09-02 23:03:35 | 48.20136 | 11.70731 | 122° | 60km/h | 6372m | 4.0m/s | -17.2°C | 38.0% | 465.4hPa | 2.9V | 00:00:00 | 00:34:15 | 00:00:00 | |
| OE5WHR-10 | 2026-09-02 23:03:34 | 48.20144 | 11.70709 | 118° | 60km/h | 6368m | 3.8m/s | 0°C | 0% | 0hPa | 2.7V | 00:00:00 | 00:00:00 | 00:00:00 | |
| DL6DJ-15 | 2026-09-02 23:03:32 | 48.20160 | 11.70665 | 120° | 66km/h | 6361m | 3.0m/s | -17.3°C | 41.3% | 466.2hPa | 2.7V | 00:00:00 | 00:00:00 | 00:00:00 | |
| OE5DRO-10 | 2026-09-02 23:03:30 | 48.20179 | 11.70626 | 133° | 57km/h | 6354m | 4.6m/s | -17.3°C | 47.5% | 466.5hPa | 2.7V | 00:00:00 | 00:00:00 | 00:00:00 | |
| DO3MHA-11 | 2026-09-02 23:03:25 | 48.20229 | 11.70561 | 132° | 57km/h | 6325m | 4.5m/s | -17.4°C | 58.0% | 468.3hPa | 2.7V | 00:00:00 | 00:34:05 | 00:00:00 | |
| OE5DXL-15 | 2026-09-02 23:03:20 | 48.20274 | 11.70474 | 132° | 57km/h | 6290m | 7.3m/s | -17.1°C | 58.4% | 470.4hPa | 2.7V | 00:00:00 | 00:00:00 | 00:00:00 | |
| PG1ADW-2 | 2026-09-02 23:03:16 | 48.20314 | 11.70413 | 132° | 57km/h | 6273m | 4.8m/s | 0°C | 0% | 0hPa | 2.7V | 00:00:00 | 00:33:56 | 00:00:00 | |
| DO3MHA-11 | 2026-09-02 23:03:15 | 48.20323 | 11.70397 | 127° | 58km/h | 6267m | 7.3m/s | -16.9°C | 58.9% | 472.0hPa | 2.7V | 00:00:00 | 00:33:55 | 00:00:00 | |
| OE5DRO-10 | 2026-09-02 23:03:11 | 48.20351 | 11.70314 | 112° | 55km/h | 6242m | 6.3m/s | -16.8°C | 61.6% | 473.5hPa | 2.7V | 00:00:00 | 00:00:00 | 08:30:00 | |
| DO3MHA-11 | 2026-09-02 23:03:05 | 48.20389 | 11.70204 | 115° | 55km/h | 6204m | 7.1m/s | -16.9°C | 78.1% | 475.7hPa | 2.9V | 00:00:00 | 00:33:45 | 00:00:00 | |
| DL6DJ-15 | 2026-09-02 23:03:01 | 48.20403 | 11.70130 | 104° | 57km/h | 6180m | 4.4m/s | -16.8°C | 77.5% | 477.4hPa | 2.9V | 00:00:00 | 00:00:00 | 00:00:00 | |
| DG1MFX-10 | 2026-09-02 23:02:56 | 48.20429 | 11.70027 | 114° | 55km/h | 6151m | 8.1m/s | -16.6°C | 78.5% | 479.1hPa | 2.9V | 00:00:00 | 00:00:00 | 00:00:00 | |
| DO3MHA-11 | 2026-09-02 23:02:55 | 48.20434 | 11.70009 | 111° | 51km/h | 6144m | 5.9m/s | -16.5°C | 80.5% | 479.5hPa | 2.9V | 00:00:00 | 00:33:35 | 00:00:00 | |
| OE5DRO-10 | 2026-09-02 23:02:52 | 48.20449 | 11.69952 | 114° | 51km/h | 6123m | 6.9m/s | -16.3°C | 79.5% | 480.8hPa | 2.9V | 00:00:00 | 00:00:00 | 00:00:00 | |
| OE5DXL-15 | 2026-09-02 23:02:50 | 48.20460 | 11.69917 | 120° | 51km/h | 6112m | 4.4m/s | -16.2°C | 79.4% | 481.5hPa | 2.9V | 00:00:00 | 00:00:00 | 00:00:00 | |
| DO3MHA-11 | 2026-09-02 23:02:45 | 48.20492 | 11.69840 | 116° | 53km/h | 6087m | 5.7m/s | -15.9°C | 79.0% | 483.0hPa | 2.9V | 00:00:00 | 00:33:25 | 00:00:00 | |
| PG1ADW-2 | 2026-09-02 23:02:36 | 48.20534 | 11.69670 | 118° | 49km/h | 6031m | 7.6m/s | 0°C | 0% | 0hPa | 2.9V | 00:00:00 | 00:00:00 | 00:00:00 | |
| DO3MHA-11 | 2026-09-02 23:02:35 | 48.20540 | 11.69652 | 118° | 51km/h | 6024m | 7.3m/s | -15.4°C | 77.6% | 487.1hPa | 2.9V | 00:00:00 | 00:33:15 | 08:30:00 | |
| OE5DRO-10 | 2026-09-02 23:02:33 | 48.20551 | 11.69620 | 115° | 53km/h | 6011m | 5.2m/s | -15.3°C | 77.1% | 488.0hPa | 2.9V | 00:00:00 | 00:00:00 | 00:00:00 | |
| DL6DJ-15 | 2026-09-02 23:02:30 | 48.20563 | 11.69572 | 108° | 47km/h | 5993m | 4.9m/s | -15.2°C | 73.1% | 489.2hPa | 2.9V | 00:00:00 | 00:00:00 | 00:00:00 | |
| DO3MHA-11 | 2026-09-02 23:02:25 | 48.20593 | 11.69474 | 118° | 53km/h | 5962m | 6.8m/s | -14.9°C | 74.9% | 491.2hPa | 2.9V | 00:00:00 | 00:33:05 | 00:00:00 | |
| OE5DXL-15 | 2026-09-02 23:02:20 | 48.20625 | 11.69385 | 120° | 55km/h | 5934m | 6.9m/s | -14.7°C | 74.7% | 493.0hPa | 2.9V | 00:00:00 | 00:00:00 | 00:00:00 | |
| DO3MHA-11 | 2026-09-02 23:02:15 | 48.20653 | 11.69292 | 114° | 51km/h | 5908m | 4.8m/s | -14.5°C | 76.4% | 494.7hPa | 2.9V | 00:00:00 | 00:32:55 | 00:00:00 | |
| OE5DRO-10 | 2026-09-02 23:02:14 | 48.20658 | 11.69273 | 114° | 55km/h | 5903m | 3.5m/s | -14.4°C | 75.4% | 495.1hPa | 2.9V | 00:00:00 | 00:00:00 | 00:00:00 | |
| OE5WHR-10 | 2026-09-02 23:02:09 | 48.20692 | 11.69196 | 127° | 58km/h | 5880m | 3.3m/s | 0°C | 0% | 0hPa | 2.9V | 00:00:00 | 00:00:00 | 00:00:00 | |
| DO3MHA-11 | 2026-09-02 23:02:05 | 48.20719 | 11.69127 | 118° | 57km/h | 5861m | 7.1m/s | -14.1°C | 76.4% | 497.7hPa | 2.9V | 00:00:00 | 00:32:45 | 00:00:00 | |
| DL6DJ-15 | 2026-09-02 23:01:59 | 48.20766 | 11.68993 | 115° | 51km/h | 5817m | 5.4m/s | -13.9°C | 79.6% | 500.8hPa | 2.9V | 00:00:00 | 00:00:00 | 00:00:00 | |
| DO3MHA-11 | 2026-09-02 23:01:55 | 48.20788 | 11.68937 | 123° | 60km/h | 5801m | 5.5m/s | -13.8°C | 83.3% | 501.9hPa | 2.9V | 00:00:00 | 00:32:35 | 00:00:00 | |
| DG1MFX-10 | 2026-09-02 23:01:53 | 48.20796 | 11.68916 | 121° | 68km/h | 5796m | 5.0m/s | -13.8°C | 81.8% | 502.2hPa | 2.9V | 00:00:00 | 00:00:00 | 00:00:00 | |
| OE5DXL-15 | 2026-09-02 23:01:50 | 48.20824 | 11.68831 | 115° | 57km/h | 5777m | 6.8m/s | -13.6°C | 85.0% | 503.6hPa | 2.9V | 00:00:00 | 00:00:00 | 00:00:00 | |
| OE3JTB-15 | 2026-09-02 23:01:48 | 48.20836 | 11.68794 | 118° | 57km/h | 5764m | 5.8m/s | -13.5°C | 85.2% | 504.4hPa | 2.9V | 00:00:00 | 00:00:00 | 00:00:00 | |
| OE5WHR-10 | 2026-09-02 23:01:46 | 48.20849 | 11.68757 | 122° | 60km/h | 5752m | 5.8m/s | 0°C | 0% | 0hPa | 2.9V | 00:00:00 | 00:00:00 | 00:00:00 | |
| DO3MHA-11 | 2026-09-02 23:01:45 | 48.20858 | 11.68736 | 124° | 58km/h | 5746m | 5.5m/s | -13.4°C | 85.6% | 505.5hPa | 2.9V | 00:00:00 | 00:32:25 | 00:00:00 | |
| OE5DRO-10 | 2026-09-02 23:01:36 | 48.20922 | 11.68560 | 120° | 57km/h | 5692m | 4.5m/s | -13.3°C | 91.2% | 509.2hPa | 2.9V | 00:00:00 | 00:00:00 | 00:00:00 | |
| DO3MHA-11 | 2026-09-02 23:01:35 | 48.20929 | 11.68542 | 121° | 62km/h | 5689m | 3.2m/s | -13.2°C | 91.4% | 509.5hPa | 2.9V | 00:00:00 | 00:32:15 | 00:00:00 | |
| DG1MFX-10 | 2026-09-02 23:01:32 | 48.20944 | 11.68503 | 116° | 64km/h | 5679m | 5.6m/s | -13.3°C | 89.5% | 510.2hPa | 2.9V | 00:00:00 | 00:00:00 | 00:00:00 | |
| DL6DJ-15 | 2026-09-02 23:01:28 | 48.20987 | 11.68371 | 114° | 55km/h | 5646m | 6.3m/s | -13.2°C | 90.6% | 512.1hPa | 2.9V | 00:00:00 | 00:00:00 | 00:00:00 | |
| DO3MHA-11 | 2026-09-02 23:01:25 | 48.20995 | 11.68335 | 105° | 55km/h | 5634m | 4.9m/s | -13.2°C | 93.5% | 512.8hPa | 2.9V | 00:00:00 | 00:32:05 | 00:00:00 | |
| OE5DXL-15 | 2026-09-02 23:01:20 | 48.21014 | 11.68249 | 119° | 51km/h | 5607m | 5.5m/s | -13.0°C | 94.8% | 514.7hPa | 2.9V | 00:00:00 | 00:00:00 | 00:00:00 | |
| OE3JTB-15 | 2026-09-02 23:01:18 | 48.21030 | 11.68210 | 123° | 57km/h | 5596m | 5.6m/s | -12.9°C | 93.8% | 515.5hPa | 2.9V | 00:00:00 | 00:31:58 | 00:00:00 | |
| OE5DRO-10 | 2026-09-02 23:01:17 | 48.21039 | 11.68190 | 124° | 51km/h | 5589m | 6.1m/s | -12.8°C | 93.2% | 515.9hPa | 2.9V | 00:00:00 | 00:00:00 | 00:00:00 | |
| DO3MHA-11 | 2026-09-02 23:01:15 | 48.21057 | 11.68152 | 127° | 51km/h | 5580m | 3.6m/s | -12.8°C | 93.7% | 516.6hPa | 2.9V | 00:00:00 | 00:31:55 | 00:00:00 | |
| DG1MFX-10 | 2026-09-02 23:01:12 | 48.21073 | 11.68116 | 126° | 53km/h | 5569m | 7.0m/s | -12.7°C | 90.7% | 517.3hPa | 2.9V | 00:00:00 | 00:00:00 | 00:00:00 | |
| DO3MHA-11 | 2026-09-02 23:01:05 | 48.21118 | 11.67986 | 109° | 47km/h | 5525m | 3.5m/s | -12.4°C | 92.3% | 520.3hPa | 2.9V | 00:00:00 | 00:31:45 | 08:30:00 | |
| OE5WHR-10 | 2026-09-02 23:01:04 | 48.21122 | 11.67970 | 114° | 47km/h | 5521m | 4.6m/s | 0°C | 0% | 0hPa | 2.9V | 00:00:00 | 00:00:00 | 00:00:00 | |
| DL6DJ-15 | 2026-09-02 23:00:57 | 48.21170 | 11.67842 | 113° | 44km/h | 5468m | 6.9m/s | -12.1°C | 94.0% | 524.0hPa | 2.9V | 00:00:00 | 00:00:00 | 00:00:00 | |
| DO3MHA-11 | 2026-09-02 23:00:55 | 48.21175 | 11.67826 | 114° | 51km/h | 5462m | 6.4m/s | -12.0°C | 95.8% | 524.4hPa | 2.9V | 00:00:00 | 00:31:35 | 00:00:00 | |
| DG1MFX-10 | 2026-09-02 23:00:51 | 48.21190 | 11.67780 | 117° | 47km/h | 5443m | 5.5m/s | -11.9°C | 92.8% | 525.7hPa | 2.9V | 00:00:00 | 00:00:00 | 00:00:00 | |
| OE5DXL-15 | 2026-09-02 23:00:50 | 48.21201 | 11.67746 | 118° | 53km/h | 5433m | 5.7m/s | -11.7°C | 94.4% | 526.5hPa | 2.9V | 00:00:00 | 00:00:00 | 08:30:00 | |
| OE3JTB-15 | 2026-09-02 23:00:49 | 48.21208 | 11.67727 | 120° | 58km/h | 5428m | 4.1m/s | -11.7°C | 95.1% | 526.9hPa | 2.9V | 00:00:00 | 00:00:00 | 00:00:00 | |
| DO3MHA-11 | 2026-09-02 23:00:45 | 48.21235 | 11.67653 | 118° | 51km/h | 5403m | 6.4m/s | -11.6°C | 92.3% | 528.5hPa | 2.9V | 00:00:00 | 00:31:25 | 00:00:00 | |
| OE5DRO-10 | 2026-09-02 23:00:39 | 48.21271 | 11.67554 | 121° | 53km/h | 5366m | 5.9m/s | -11.3°C | 90.3% | 531.2hPa | 2.9V | 00:00:00 | 00:00:00 | 00:00:00 | |
| DO3MHA-11 | 2026-09-02 23:00:35 | 48.21298 | 11.67481 | 118° | 51km/h | 5343m | 5.0m/s | -11.2°C | 90.0% | 532.5hPa | 2.9V | 00:00:00 | 00:31:15 | 00:00:00 | |
| DG1MFX-10 | 2026-09-02 23:00:30 | 48.21319 | 11.67406 | 108° | 51km/h | 5324m | 5.9m/s | -11.1°C | 87.4% | 533.9hPa | 2.9V | 00:00:00 | 00:00:00 | 00:00:00 | |
| DL6DJ-15 | 2026-09-02 23:00:26 | 48.21343 | 11.67304 | 121° | 57km/h | 5298m | 5.0m/s | -11.0°C | 87.8% | 535.7hPa | 2.9V | 00:00:00 | 00:00:00 | 00:00:00 | |
| DO3MHA-11 | 2026-09-02 23:00:25 | 48.21343 | 11.67304 | 122° | 51km/h | 5298m | 5.0m/s | -10.9°C | 89.5% | 535.7hPa | 2.9V | 00:00:00 | 00:31:05 | 00:00:00 | |
| OE5DXL-15 | 2026-09-02 23:00:20 | 48.21383 | 11.67216 | 117° | 53km/h | 5269m | 5.5m/s | -10.8°C | 93.1% | 538.0hPa | 2.9V | 00:00:00 | 00:00:00 | 00:00:00 | |
| DO3MHA-11 | 2026-09-02 23:00:15 | 48.21400 | 11.67131 | 105° | 55km/h | 5236m | 5.5m/s | -10.7°C | 94.5% | 540.0hPa | 2.9V | 00:00:00 | 00:30:55 | 00:00:00 | |
| DG1MFX-10 | 2026-09-02 23:00:10 | 48.21422 | 11.67056 | 125° | 55km/h | 5213m | 5.2m/s | -10.6°C | 95.9% | 541.9hPa | 2.9V | 00:00:00 | 00:00:00 | 00:00:00 | |
| DO3MHA-11 | 2026-09-02 23:00:05 | 48.21474 | 11.66952 | 124° | 55km/h | 5176m | 6.0m/s | -10.4°C | 97.5% | 544.5hPa | 2.9V | 00:00:00 | 00:30:45 | 00:00:00 | |
| OE3JTB-15 | 2026-09-02 23:00:03 | 48.21491 | 11.66912 | 124° | 49km/h | 5162m | 7.7m/s | -10.4°C | 97.4% | 545.3hPa | 2.7V | 00:00:00 | 00:00:00 | 00:00:00 | |
| DL6DJ-15 | 2026-09-02 22:59:55 | 48.21569 | 11.66777 | 130° | 57km/h | 5112m | 5.7m/s | -10.1°C | 94.6% | 549.1hPa | 2.7V | 00:00:00 | 00:00:00 | 00:00:00 | |
| OE5DXL-15 | 2026-09-02 22:59:50 | 48.21601 | 11.66713 | 128° | 55km/h | 5090m | 5.9m/s | -9.9°C | 96.4% | 550.7hPa | 2.7V | 00:00:00 | 00:00:00 | 00:00:00 | |
| DG1MFX-10 | 2026-09-02 22:59:49 | 48.21601 | 11.66713 | 128° | 51km/h | 5090m | 6.0m/s | -9.9°C | 94.6% | 550.7hPa | 2.7V | 00:00:00 | 00:00:00 | 00:00:00 | |
| DO3MHA-11 | 2026-09-02 22:59:45 | 48.21645 | 11.66633 | 125° | 55km/h | 5061m | 4.5m/s | -9.7°C | 97.9% | 553.0hPa | 2.7V | 00:00:00 | 00:30:25 | 00:00:00 | |
| OE5DRO-10 | 2026-09-02 22:59:42 | 48.21667 | 11.66580 | 119° | 51km/h | 5045m | 7.4m/s | -9.7°C | 0% | 554.1hPa | 2.7V | 00:00:00 | 00:00:00 | 00:00:00 | |
| DO3MHA-11 | 2026-09-02 22:59:35 | 48.21726 | 11.66466 | 124° | 47km/h | 5006m | 3.9m/s | -10.0°C | 0% | 556.6hPa | 2.7V | 00:00:00 | 00:30:15 | 08:30:00 | |
| DG1MFX-10 | 2026-09-02 22:59:29 | 48.21750 | 11.66385 | 110° | 38km/h | 4985m | 3.8m/s | -9.9°C | 100.3% | 558.1hPa | 2.9V | 00:00:00 | 00:00:00 | 00:00:00 | |
| DO3MHA-11 | 2026-09-02 22:59:25 | 48.21785 | 11.66310 | 131° | 62km/h | 4965m | 6.2m/s | -9.6°C | 0% | 559.7hPa | 2.9V | 00:00:00 | 00:30:05 | 00:00:00 | |
| OE5DRO-10 | 2026-09-02 22:59:23 | 48.21805 | 11.66271 | 125° | 58km/h | 4954m | 4.2m/s | -9.6°C | 0% | 560.4hPa | 2.9V | 00:00:00 | 00:00:00 | 00:00:00 | |
| OE5DXL-15 | 2026-09-02 22:59:20 | 48.21829 | 11.66203 | 114° | 51km/h | 4939m | 4.7m/s | -9.5°C | 0% | 561.5hPa | 2.9V | 00:00:00 | 00:00:00 | 00:00:00 | |
| DO3MHA-11 | 2026-09-02 22:59:15 | 48.21849 | 11.66103 | 105° | 58km/h | 4913m | 4.9m/s | -9.2°C | 0% | 563.3hPa | 2.9V | 00:00:00 | 00:29:55 | 00:00:00 | |
| DG1MFX-10 | 2026-09-02 22:59:08 | 48.21881 | 11.65989 | 115° | 66km/h | 4877m | 7.1m/s | -9.1°C | 99.7% | 565.9hPa | 2.9V | 00:00:00 | 00:00:00 | 00:00:00 | |
| DO3MHA-11 | 2026-09-02 22:59:05 | 48.21903 | 11.65899 | 109° | 49km/h | 4850m | 7.6m/s | -8.9°C | 0% | 567.8hPa | 2.9V | 00:00:00 | 00:29:45 | 00:00:00 | |
| OE5DRO-10 | 2026-09-02 22:59:04 | 48.21908 | 11.65879 | 111° | 46km/h | 4842m | 7.9m/s | -8.8°C | 0% | 568.4hPa | 2.9V | 00:00:00 | 00:00:00 | 00:00:00 | |
| DL6DJ-15 | 2026-09-02 22:58:52 | 48.21990 | 11.65714 | 118° | 40km/h | 4766m | 4.4m/s | -8.2°C | 99.6% | 574.1hPa | 2.9V | 00:00:00 | 00:00:00 | 00:00:00 | |
| OE5DXL-15 | 2026-09-02 22:58:50 | 48.22000 | 11.65687 | 119° | 57km/h | 4757m | 4.8m/s | -8.1°C | 0% | 574.8hPa | 2.9V | 00:00:00 | 00:00:00 | 00:00:00 | |
| DG1MFX-10 | 2026-09-02 22:58:48 | 48.22005 | 11.65673 | 125° | 42km/h | 4753m | 4.3m/s | -8.2°C | 99.5% | 575.1hPa | 2.9V | 00:00:00 | 00:00:00 | 00:00:00 | |
| DO3MHA-11 | 2026-09-02 22:58:45 | 48.22039 | 11.65617 | 136° | 62km/h | 4731m | 5.3m/s | -7.9°C | 0% | 576.6hPa | 2.9V | 00:00:00 | 00:29:25 | 00:00:00 | |
| DO3MHA-11 | 2026-09-02 22:58:35 | 48.22142 | 11.65442 | 133° | 58km/h | 4676m | 5.4m/s | -7.6°C | 0% | 580.9hPa | 2.9V | 00:00:00 | 00:29:15 | 00:00:00 | |
| DG1MFX-10 | 2026-09-02 22:58:27 | 48.22197 | 11.65300 | 120° | 57km/h | 4641m | 4.3m/s | -7.4°C | 98.8% | 583.7hPa | 2.9V | 00:00:00 | 00:00:00 | 00:00:00 | |
| OE5DRO-10 | 2026-09-02 22:58:26 | 48.22210 | 11.65267 | 120° | 60km/h | 4630m | 6.6m/s | 0°C | 0% | 0hPa | 2.9V | 00:00:00 | 00:00:00 | 00:00:00 | |
| DO3MHA-11 | 2026-09-02 22:58:25 | 48.22216 | 11.65252 | 122° | 62km/h | 4624m | 7.0m/s | -7.2°C | 98.9% | 584.9hPa | 2.9V | 00:00:00 | 00:29:05 | 00:00:00 | |
| DL6DJ-15 | 2026-09-02 22:58:21 | 48.22248 | 11.65185 | 122° | 66km/h | 4600m | 6.5m/s | -7.0°C | 97.5% | 586.8hPa | 2.9V | 00:00:00 | 00:00:00 | 00:00:00 | |
| OE5DXL-15 | 2026-09-02 22:58:20 | 48.22256 | 11.65163 | 119° | 60km/h | 4594m | 5.5m/s | -6.9°C | 99.1% | 587.2hPa | 2.9V | 00:00:00 | 00:00:00 | 00:00:00 | |
| DO3MHA-11 | 2026-09-02 22:58:15 | 48.22290 | 11.65043 | 110° | 60km/h | 4565m | 6.1m/s | -6.7°C | 97.7% | 589.4hPa | 2.9V | 00:00:00 | 00:28:55 | 00:00:00 | |
| OE5DRO-10 | 2026-09-02 22:58:07 | 48.22350 | 11.64882 | 129° | 57km/h | 4517m | 6.7m/s | 0°C | 0% | 0hPa | 2.9V | 00:00:00 | 00:00:00 | 00:00:00 | |
| DO3MHA-11 | 2026-09-02 22:58:05 | 48.22366 | 11.64852 | 129° | 60km/h | 4505m | 6.3m/s | -6.2°C | 95.7% | 594.0hPa | 2.9V | 00:00:00 | 00:28:45 | 08:30:00 | |
| DO3MHA-11 | 2026-09-02 22:57:55 | 48.22442 | 11.64649 | 120° | 53km/h | 4456m | 5.7m/s | -5.9°C | 97.9% | 597.7hPa | 2.9V | 00:00:00 | 00:28:35 | 00:00:00 | |
| OE5DXL-15 | 2026-09-02 22:57:50 | 48.22472 | 11.64565 | 121° | 58km/h | 4424m | 7.4m/s | -5.7°C | 98.0% | 600.3hPa | 2.9V | 00:00:00 | 00:00:00 | 00:00:00 | |
| OE5DRO-10 | 2026-09-02 22:57:48 | 48.22486 | 11.64534 | 128° | 58km/h | 4410m | 7.2m/s | 0°C | 0% | 0hPa | 2.9V | 00:00:00 | 00:00:00 | 00:00:00 | |
| DG1MFX-10 | 2026-09-02 22:57:46 | 48.22495 | 11.64517 | 129° | 60km/h | 4403m | 7.7m/s | -5.6°C | 95.8% | 602.0hPa | 2.9V | 00:00:00 | 00:00:00 | 00:00:00 | |
| DO3MHA-11 | 2026-09-02 22:57:45 | 48.22514 | 11.64477 | 125° | 60km/h | 4390m | 6.2m/s | -5.5°C | 96.5% | 602.8hPa | 2.9V | 00:00:00 | 00:28:25 | 00:00:00 | |
| DO3MHA-11 | 2026-09-02 22:57:35 | 48.22599 | 11.64299 | 117° | 58km/h | 4338m | 4.3m/s | -5.0°C | 92.9% | 606.7hPa | 2.9V | 00:00:00 | 00:28:15 | 00:00:00 | |
| OE5DRO-10 | 2026-09-02 22:57:29 | 48.22641 | 11.64187 | 116° | 64km/h | 4303m | 5.6m/s | 0°C | 0% | 0hPa | 2.9V | 00:00:00 | 00:00:00 | 00:00:00 | |
| DO3MHA-11 | 2026-09-02 22:57:25 | 48.22666 | 11.64097 | 116° | 49km/h | 4284m | 5.9m/s | -4.6°C | 87.9% | 610.8hPa | 2.9V | 00:00:00 | 00:28:05 | 00:00:00 | |
| OE5DXL-15 | 2026-09-02 22:57:20 | 48.22704 | 11.64005 | 122° | 47km/h | 4254m | 5.4m/s | -4.4°C | 87.6% | 613.2hPa | 2.9V | 00:00:00 | 00:00:00 | 00:00:00 | |
| DL6DJ-15 | 2026-09-02 22:57:19 | 48.22709 | 11.63991 | 118° | 40km/h | 4249m | 5.0m/s | -4.5°C | 87.2% | 613.6hPa | 2.9V | 00:00:00 | 00:00:00 | 00:00:00 | |
| DO3MHA-11 | 2026-09-02 22:57:15 | 48.22726 | 11.63936 | 113° | 53km/h | 4233m | 5.0m/s | -4.3°C | 88.0% | 614.8hPa | 2.9V | 00:00:00 | 00:27:55 | 00:00:00 | |
| DO3MHA-11 | 2026-09-02 22:57:05 | 48.22804 | 11.63774 | 126° | 49km/h | 4175m | 6.6m/s | -4.0°C | 93.7% | 619.0hPa | 2.9V | 00:00:00 | 00:27:45 | 00:00:00 | |
| DG1MFX-10 | 2026-09-02 22:57:04 | 48.22803 | 11.63774 | 127° | 47km/h | 4175m | 6.7m/s | -4.1°C | 92.6% | 619.1hPa | 2.9V | 00:00:00 | 00:00:00 | 00:00:00 | |
| DL6DJ-15 | 2026-09-02 22:56:48 | 48.22921 | 11.63524 | 122° | 47km/h | 4084m | 6.9m/s | -3.8°C | 92.3% | 626.3hPa | 2.9V | 00:00:00 | 00:00:00 | 00:00:00 | |
| DO3MHA-11 | 2026-09-02 22:56:45 | 48.22942 | 11.63481 | 131° | 44km/h | 4067m | 5.1m/s | -3.7°C | 93.3% | 627.5hPa | 2.9V | 00:00:00 | 00:27:25 | 00:00:00 | |
| DG1MFX-10 | 2026-09-02 22:56:44 | 48.22943 | 11.63481 | 131° | 46km/h | 4067m | 5.2m/s | -3.8°C | 92.3% | 627.6hPa | 2.9V | 00:00:00 | 00:00:00 | 00:00:00 | |
| DO3MHA-11 | 2026-09-02 22:56:35 | 48.22984 | 11.63330 | 100° | 53km/h | 4023m | 5.1m/s | -3.4°C | 92.9% | 631.2hPa | 2.9V | 00:00:00 | 00:27:15 | 08:30:00 | |
| DO3MHA-11 | 2026-09-02 22:56:25 | 48.23023 | 11.63141 | 116° | 49km/h | 3972m | 5.9m/s | -3.0°C | 92.2% | 635.3hPa | 2.9V | 00:00:00 | 00:27:05 | 00:00:00 | |
| DG1MFX-10 | 2026-09-02 22:56:24 | 48.23023 | 11.63141 | 117° | 44km/h | 3972m | 5.9m/s | -3.0°C | 91.2% | 635.4hPa | 2.9V | 00:00:00 | 00:00:00 | 00:00:00 | |
| DL6DJ-15 | 2026-09-02 22:56:17 | 48.23070 | 11.63006 | 126° | 49km/h | 3929m | 4.1m/s | -2.8°C | 92.4% | 638.7hPa | 2.9V | 00:00:00 | 00:00:00 | 00:00:00 | |
| DO3MHA-11 | 2026-09-02 22:56:15 | 48.23084 | 11.62975 | 120° | 60km/h | 3922m | 3.1m/s | -2.7°C | 94.0% | 639.2hPa | 2.9V | 00:00:00 | 00:26:55 | 00:00:00 | |
| DO3MHA-11 | 2026-09-02 22:56:05 | 48.23131 | 11.62756 | 114° | 55km/h | 3877m | 4.9m/s | -2.4°C | 93.4% | 643.1hPa | 2.9V | 00:00:00 | 00:26:45 | 00:00:00 | |
| DG1MFX-10 | 2026-09-02 22:56:04 | 48.23131 | 11.62756 | 115° | 60km/h | 3877m | 5.0m/s | -2.4°C | 92.5% | 643.1hPa | 2.9V | 00:00:00 | 00:00:00 | 00:00:00 | |
| DL6DJ-15 | 2026-09-02 22:55:46 | 48.23242 | 11.62351 | 105° | 60km/h | 3767m | 5.0m/s | -1.6°C | 89.9% | 651.8hPa | 2.9V | 00:00:00 | 00:00:00 | 00:00:00 | |
| DO3MHA-11 | 2026-09-02 22:55:45 | 48.23242 | 11.62351 | 106° | 47km/h | 3767m | 4.9m/s | -1.6°C | 90.7% | 651.8hPa | 2.9V | 00:00:00 | 00:26:25 | 00:00:00 | |
| DG1MFX-10 | 2026-09-02 22:55:43 | 48.23247 | 11.62329 | 108° | 58km/h | 3762m | 4.3m/s | -1.6°C | 90.0% | 652.2hPa | 2.9V | 00:00:00 | 00:00:00 | 00:00:00 | |
| DO3MHA-11 | 2026-09-02 22:55:35 | 48.23286 | 11.62190 | 118° | 42km/h | 3714m | 4.2m/s | -1.2°C | 88.8% | 656.0hPa | 2.9V | 00:00:00 | 00:26:15 | 00:00:00 | |
| DO3MHA-11 | 2026-09-02 22:55:25 | 48.23326 | 11.62042 | 112° | 47km/h | 3654m | 3.4m/s | -0.7°C | 81.1% | 660.8hPa | 2.9V | 00:00:00 | 00:26:05 | 00:00:00 | |
| OE3JTB-15 | 2026-09-02 22:55:22 | 48.23340 | 11.61995 | 112° | 51km/h | 3640m | 6.0m/s | 0°C | 0% | 0hPa | 2.9V | 00:00:00 | 00:26:02 | 00:00:00 | |
| OE5DXL-15 | 2026-09-02 22:55:20 | 48.23348 | 11.61960 | 108° | 53km/h | 3629m | 4.8m/s | -0.4°C | 77.3% | 663.4hPa | 2.9V | 00:00:00 | 00:00:00 | 00:00:00 | |
| DO3MHA-11 | 2026-09-02 22:55:15 | 48.23368 | 11.61868 | 108° | 49km/h | 3605m | 4.1m/s | -0.2°C | 73.7% | 665.4hPa | 2.9V | 00:00:00 | 00:25:55 | 00:00:00 | |
| DO3MHA-11 | 2026-09-02 22:55:05 | 48.23395 | 11.61683 | 99° | 53km/h | 3555m | 5.8m/s | 0.3°C | 54.7% | 669.5hPa | 2.9V | 00:00:00 | 00:25:45 | 08:30:00 | |
| DO3MHA-11 | 2026-09-02 22:54:55 | 48.23421 | 11.61484 | 111° | 58km/h | 3505m | 6.9m/s | 0.6°C | 45.4% | 673.7hPa | 2.9V | 00:00:00 | 00:25:35 | 00:00:00 | |
| OE3JTB-15 | 2026-09-02 22:54:53 | 48.23431 | 11.61439 | 108° | 64km/h | 3496m | 4.3m/s | 0°C | 0% | 0hPa | 2.9V | 00:00:00 | 00:00:00 | 00:00:00 | |
| OE5DXL-15 | 2026-09-02 22:54:50 | 48.23447 | 11.61370 | 112° | 49km/h | 3483m | 4.7m/s | 0.8°C | 38.2% | 675.8hPa | 2.9V | 00:00:00 | 00:00:00 | 00:00:00 | |
| DO3MHA-11 | 2026-09-02 22:54:45 | 48.23470 | 11.61280 | 104° | 49km/h | 3453m | 6.3m/s | 1.0°C | 36.4% | 678.2hPa | 2.9V | 00:00:00 | 00:25:25 | 00:00:00 | |
| DL6DJ-15 | 2026-09-02 22:54:44 | 48.23475 | 11.61247 | 103° | 46km/h | 3441m | 5.3m/s | 1.2°C | 35.7% | 679.3hPa | 2.9V | 00:00:00 | 00:00:00 | 00:00:00 | |
| DG1MFX-10 | 2026-09-02 22:54:43 | 48.23475 | 11.61247 | 104° | 47km/h | 3441m | 5.3m/s | 1.2°C | 35.7% | 679.3hPa | 2.9V | 00:00:00 | 00:00:00 | 00:00:00 | |
| DO3MHA-11 | 2026-09-02 22:54:35 | 48.23507 | 11.61099 | 104° | 47km/h | 3401m | 2.4m/s | 1.3°C | 22.4% | 682.7hPa | 2.9V | 00:00:00 | 00:25:15 | 00:00:00 | |
| DO3MHA-11 | 2026-09-02 22:54:25 | 48.23521 | 11.60921 | 97° | 57km/h | 3347m | 5.1m/s | 1.5°C | 20.3% | 687.1hPa | 2.9V | 00:00:00 | 00:25:05 | 00:00:00 | |
| DG1MFX-10 | 2026-09-02 22:54:22 | 48.23523 | 11.60886 | 93° | 51km/h | 3335m | 6.0m/s | 1.6°C | 19.0% | 688.0hPa | 2.9V | 00:00:00 | 00:00:00 | 00:00:00 | |
| OE5DXL-15 | 2026-09-02 22:54:20 | 48.23523 | 11.60820 | 90° | 49km/h | 3318m | 3.3m/s | 1.4°C | 16.5% | 689.3hPa | 2.9V | 00:00:00 | 00:00:00 | 00:00:00 | |
| DO3MHA-11 | 2026-09-02 22:54:15 | 48.23534 | 11.60706 | 110° | 46km/h | 3297m | 5.3m/s | 1.1°C | 16.9% | 691.1hPa | 2.9V | 00:00:00 | 00:24:55 | 00:00:00 | |
| DL6DJ-15 | 2026-09-02 22:54:13 | 48.23545 | 11.60660 | 105° | 38km/h | 3284m | 4.7m/s | 1.0°C | 22.6% | 692.4hPa | 2.9V | 00:00:00 | 00:00:00 | 00:00:00 | |
| DO3MHA-11 | 2026-09-02 22:54:06 | 48.23563 | 11.60536 | 104° | 49km/h | 3243m | 2.7m/s | 1.1°C | 25.7% | 695.8hPa | 2.9V | 00:00:00 | 00:24:45 | 00:00:00 | |
| DG1MFX-10 | 2026-09-02 22:54:01 | 48.23573 | 11.60476 | 105° | 51km/h | 3234m | 4.4m/s | 1.2°C | 26.2% | 696.6hPa | 2.9V | 00:00:00 | 00:00:00 | 00:00:00 | |
| DO3MHA-11 | 2026-09-02 22:53:55 | 48.23593 | 11.60356 | 115° | 44km/h | 3202m | 3.6m/s | 1.2°C | 26.2% | 699.7hPa | 2.9V | 00:00:00 | 00:24:35 | 00:00:00 | |
| OE5DXL-15 | 2026-09-02 22:53:50 | 48.23609 | 11.60277 | 103° | 44km/h | 3181m | 6.1m/s | 1.2°C | 28.1% | 701.6hPa | 2.9V | 00:00:00 | 00:00:00 | 00:00:00 | |
| DO3MHA-11 | 2026-09-02 22:53:45 | 48.23628 | 11.60201 | 118° | 40km/h | 3156m | 7.9m/s | 0.9°C | 46.9% | 703.7hPa | 2.9V | 00:00:00 | 00:24:25 | 00:00:00 | |
| DL6DJ-15 | 2026-09-02 22:53:42 | 48.23639 | 11.60145 | 95° | 37km/h | 3129m | 6.3m/s | 1.1°C | 53.1% | 706.1hPa | 2.9V | 00:00:00 | 00:00:00 | 00:00:00 | |
| DG1MFX-10 | 2026-09-02 22:53:38 | 48.23638 | 11.60115 | 86° | 40km/h | 3120m | 5.5m/s | 1.2°C | 53.2% | 706.9hPa | 2.9V | 00:00:00 | 00:00:00 | 00:00:00 | |
| DO3MHA-11 | 2026-09-02 22:53:35 | 48.23641 | 11.60050 | 103° | 44km/h | 3104m | 6.5m/s | 1.2°C | 59.8% | 708.3hPa | 2.9V | 00:00:00 | 00:24:15 | 08:30:00 | |
| DO3MHA-11 | 2026-09-02 22:53:25 | 48.23672 | 11.59887 | 102° | 44km/h | 3048m | 5.4m/s | 1.3°C | 77.0% | 713.1hPa | 2.9V | 00:00:00 | 00:24:05 | 00:00:00 | |
| OE5DXL-15 | 2026-09-02 22:53:20 | 48.23688 | 11.59809 | 104° | 46km/h | 3023m | 5.2m/s | 1.3°C | 85.6% | 715.3hPa | 2.9V | 00:00:00 | 00:00:00 | 00:00:00 | |
| DG1MFX-10 | 2026-09-02 22:53:18 | 48.23691 | 11.59793 | 104° | 44km/h | 3018m | 6.6m/s | 1.4°C | 84.0% | 715.9hPa | 2.9V | 00:00:00 | 00:00:00 | 00:00:00 | |
| DO3MHA-11 | 2026-09-02 22:53:15 | 48.23701 | 11.59729 | 97° | 46km/h | 2992m | 6.1m/s | 1.6°C | 84.3% | 718.0hPa | 2.9V | 00:00:00 | 00:23:55 | 00:00:00 | |
| DL6DJ-15 | 2026-09-02 22:53:10 | 48.23694 | 11.59649 | 81° | 49km/h | 2963m | 5.4m/s | 1.8°C | 83.9% | 720.5hPa | 2.9V | 00:00:00 | 00:00:00 | 00:00:00 | |
| DO3MHA-11 | 2026-09-02 22:53:05 | 48.23693 | 11.59556 | 95° | 42km/h | 2939m | 5.6m/s | 2.0°C | 83.4% | 722.7hPa | 2.9V | 00:00:00 | 00:23:45 | 00:00:00 | |
| DG1MFX-10 | 2026-09-02 22:52:58 | 48.23707 | 11.59448 | 118° | 42km/h | 2897m | 6.6m/s | 2.5°C | 81.0% | 726.4hPa | 2.9V | 00:00:00 | 00:00:00 | 00:00:00 | |
| DO3MHA-11 | 2026-09-02 22:52:55 | 48.23718 | 11.59403 | 107° | 47km/h | 2882m | 5.1m/s | 2.4°C | 90.2% | 727.9hPa | 2.9V | 00:00:00 | 00:23:35 | 00:00:00 | |
| OE5DXL-15 | 2026-09-02 22:52:50 | 48.23733 | 11.59312 | 94° | 44km/h | 2855m | 3.7m/s | 2.6°C | 90.1% | 730.1hPa | 2.9V | 00:00:00 | 00:00:00 | 00:00:00 | |
| DO3MHA-11 | 2026-09-02 22:52:45 | 48.23725 | 11.59226 | 81° | 44km/h | 2828m | 3.8m/s | 2.9°C | 87.9% | 732.6hPa | 2.9V | 00:00:00 | 00:23:25 | 00:00:00 | |
| DL6DJ-15 | 2026-09-02 22:52:39 | 48.23730 | 11.59115 | 95° | 42km/h | 2797m | 4.7m/s | 3.3°C | 85.6% | 735.6hPa | 2.9V | 00:00:00 | 00:00:00 | 00:00:00 | |
| DG1MFX-10 | 2026-09-02 22:52:37 | 48.23731 | 11.59100 | 94° | 37km/h | 2792m | 5.0m/s | 3.3°C | 85.9% | 736.1hPa | 2.9V | 00:00:00 | 00:00:00 | 00:00:00 | |
| DO3MHA-11 | 2026-09-02 22:52:35 | 48.23730 | 11.59060 | 86° | 42km/h | 2776m | 3.9m/s | 3.4°C | 86.0% | 737.4hPa | 2.9V | 00:00:00 | 00:23:15 | 00:00:00 | |
| DO3MHA-11 | 2026-09-02 22:52:25 | 48.23733 | 11.58899 | 80° | 51km/h | 2727m | 3.1m/s | 3.9°C | 85.4% | 742.0hPa | 2.9V | 00:00:00 | 00:23:05 | 00:00:00 | |
| OE5DXL-15 | 2026-09-02 22:52:21 | 48.23730 | 11.58810 | 92° | 46km/h | 2698m | 6.1m/s | 0°C | 0% | 0hPa | 2.9V | 00:00:00 | 00:23:00 | 00:00:00 | |
| DG1MFX-10 | 2026-09-02 22:52:16 | 48.23731 | 11.58744 | 94° | 57km/h | 2685m | 4.0m/s | 4.2°C | 88.9% | 745.7hPa | 2.9V | 00:00:00 | 00:00:00 | 00:00:00 | |
| DO3MHA-11 | 2026-09-02 22:52:15 | 48.23734 | 11.58701 | 101° | 40km/h | 2674m | 5.9m/s | 4.2°C | 89.1% | 746.6hPa | 2.9V | 00:00:00 | 00:22:55 | 00:00:00 | |
| DL6DJ-15 | 2026-09-02 22:52:08 | 48.23738 | 11.58598 | 79° | 40km/h | 2638m | 5.7m/s | 4.6°C | 88.3% | 750.1hPa | 2.9V | 00:00:00 | 00:00:00 | 00:00:00 | |
| DO3MHA-11 | 2026-09-02 22:52:05 | 48.23734 | 11.58550 | 90° | 46km/h | 2622m | 6.7m/s | 4.7°C | 88.0% | 751.4hPa | 2.9V | 00:00:00 | 00:22:45 | 08:30:00 | |
| DO3MHA-11 | 2026-09-02 22:51:55 | 48.23728 | 11.58380 | 97° | 51km/h | 2561m | 6.1m/s | 5.0°C | 87.0% | 757.0hPa | 2.9V | 00:00:00 | 00:22:35 | 00:00:00 | |
| OE5DXL-15 | 2026-09-02 22:51:50 | 48.23730 | 11.58285 | 91° | 53km/h | 2537m | 6.6m/s | 0°C | 0% | 0hPa | 2.9V | 00:00:00 | 00:00:00 | 00:00:00 | |
| DO3MHA-11 | 2026-09-02 22:51:47 | 48.23739 | 11.58187 | 100° | 37km/h | 2514m | 3.8m/s | 5.2°C | 87.5% | 761.4hPa | 2.9V | 00:00:00 | 00:22:25 | 00:00:00 | |
| DL6DJ-15 | 2026-09-02 22:51:37 | 48.23762 | 11.58082 | 113° | 31km/h | 2476m | 4.8m/s | 5.6°C | 85.9% | 764.9hPa | 2.9V | 00:00:00 | 00:00:00 | 00:00:00 | |
| DO3MHA-11 | 2026-09-02 22:51:35 | 48.23769 | 11.58058 | 113° | 42km/h | 2465m | 5.7m/s | 5.6°C | 85.7% | 765.9hPa | 2.9V | 00:00:00 | 00:22:15 | 00:00:00 | |
| DG1MFX-10 | 2026-09-02 22:51:34 | 48.23769 | 11.58058 | 113° | 38km/h | 2465m | 5.8m/s | 5.7°C | 85.5% | 765.9hPa | 2.9V | 00:00:00 | 00:00:00 | 00:00:00 | |
| DO3MHA-11 | 2026-09-02 22:51:25 | 48.23788 | 11.57907 | 93° | 33km/h | 2409m | 6.6m/s | 6.2°C | 81.7% | 771.3hPa | 2.9V | 00:00:00 | 00:22:05 | 00:00:00 | |
| DO3MHA-11 | 2026-09-02 22:51:15 | 48.23799 | 11.57783 | 95° | 44km/h | 2356m | 5.5m/s | 6.6°C | 80.5% | 776.0hPa | 2.9V | 00:00:00 | 00:21:55 | 00:00:00 | |
| DG1MFX-10 | 2026-09-02 22:51:12 | 48.23798 | 11.57737 | 84° | 38km/h | 2343m | 4.6m/s | 6.7°C | 81.0% | 777.2hPa | 2.9V | 00:00:00 | 00:00:00 | 00:00:00 | |
| DL6DJ-15 | 2026-09-02 22:51:06 | 48.23803 | 11.57635 | 101° | 47km/h | 2313m | 5.0m/s | 7.0°C | 80.9% | 780.0hPa | 2.9V | 00:00:00 | 00:00:00 | 00:00:00 | |
| DO3MHA-11 | 2026-09-02 22:51:05 | 48.23805 | 11.57618 | 103° | 33km/h | 2308m | 6.2m/s | 7.0°C | 81.1% | 780.6hPa | 2.9V | 00:00:00 | 00:21:45 | 00:00:00 | |
| DO3MHA-11 | 2026-09-02 22:50:55 | 48.23829 | 11.57500 | 120° | 37km/h | 2259m | 5.1m/s | 7.4°C | 84.3% | 785.7hPa | 2.9V | 00:00:00 | 00:21:35 | 00:00:00 | |
| DG1MFX-10 | 2026-09-02 22:50:51 | 48.23837 | 11.57467 | 101° | 29km/h | 2245m | 5.4m/s | 7.5°C | 85.2% | 786.9hPa | 2.9V | 00:00:00 | 00:00:00 | 00:00:00 | |
| DO3MHA-11 | 2026-09-02 22:50:45 | 48.23847 | 11.57364 | 102° | 31km/h | 2207m | 3.5m/s | 7.7°C | 87.5% | 790.4hPa | 2.9V | 00:00:00 | 00:21:25 | 00:00:00 | |
| DO3MHA-11 | 2026-09-02 22:50:35 | 48.23840 | 11.57252 | 73° | 26km/h | 2163m | 4.0m/s | 8.1°C | 87.6% | 794.5hPa | 2.9V | 00:00:00 | 00:21:15 | 08:30:00 | |
| DG1MFX-10 | 2026-09-02 22:50:31 | 48.23843 | 11.57218 | 119° | 29km/h | 2144m | 5.1m/s | 8.3°C | 87.7% | 796.5hPa | 2.9V | 00:00:00 | 00:00:00 | 00:00:00 | |
| DO3MHA-11 | 2026-09-02 22:50:25 | 48.23859 | 11.57162 | 92° | 27km/h | 2113m | 5.3m/s | 8.5°C | 86.1% | 799.4hPa | 2.9V | 00:00:00 | 00:21:05 | 00:00:00 | |
| DO3MHA-11 | 2026-09-02 22:50:15 | 48.23866 | 11.57059 | 89° | 20km/h | 2059m | 6.1m/s | 9.0°C | 83.3% | 804.6hPa | 2.9V | 00:00:00 | 00:20:55 | 00:00:00 | |
| DG1MFX-10 | 2026-09-02 22:50:10 | 48.23869 | 11.57022 | 113° | 18km/h | 2036m | 5.1m/s | 9.2°C | 82.3% | 806.7hPa | 2.9V | 00:00:00 | 00:00:00 | 00:00:00 | |
| DO3MHA-11 | 2026-09-02 22:50:05 | 48.23865 | 11.56986 | 86° | 22km/h | 2007m | 5.4m/s | 9.5°C | 81.2% | 809.6hPa | 2.9V | 00:00:00 | 00:20:45 | 00:00:00 | |
| DO3MHA-11 | 2026-09-02 22:49:55 | 48.23879 | 11.56907 | 68° | 20km/h | 1958m | 6.7m/s | 9.9°C | 77.7% | 814.3hPa | 2.9V | 00:00:00 | 00:20:35 | 00:00:00 | |
| DG1MFX-10 | 2026-09-02 22:49:50 | 48.23876 | 11.56882 | 102° | 20km/h | 1938m | 3.0m/s | 10.2°C | 76.1% | 816.4hPa | 2.9V | 00:00:00 | 00:00:00 | 00:00:00 | |
| DO3MHA-11 | 2026-09-02 22:49:45 | 48.23888 | 11.56832 | 95° | 18km/h | 1912m | 4.7m/s | 10.3°C | 75.3% | 819.1hPa | 2.9V | 00:00:00 | 00:20:25 | 00:00:00 | |
| DO3MHA-11 | 2026-09-02 22:49:35 | 48.23897 | 11.56765 | 97° | 22km/h | 1855m | 6.8m/s | 10.8°C | 72.7% | 824.3hPa | 2.9V | 00:00:00 | 00:20:15 | 00:00:00 | |
| DG1MFX-10 | 2026-09-02 22:49:29 | 48.23903 | 11.56714 | 94° | 22km/h | 1832m | 3.6m/s | 11.1°C | 72.8% | 827.0hPa | 2.9V | 00:00:00 | 00:00:00 | 00:00:00 | |
| DO3MHA-11 | 2026-09-02 22:49:25 | 48.23909 | 11.56686 | 125° | 22km/h | 1809m | 4.5m/s | 11.2°C | 71.7% | 829.1hPa | 2.9V | 00:00:00 | 00:20:05 | 00:00:00 | |
| DO3MHA-11 | 2026-09-02 22:49:15 | 48.23895 | 11.56606 | 68° | 22km/h | 1766m | 5.0m/s | 11.6°C | 70.1% | 833.4hPa | 2.9V | 00:00:00 | 00:19:55 | 00:00:00 | |
| DG1MFX-10 | 2026-09-02 22:49:07 | 48.23894 | 11.56546 | 115° | 18km/h | 1734m | 5.8m/s | 12.0°C | 69.2% | 836.7hPa | 2.9V | 00:00:00 | 00:00:00 | 00:00:00 | |
| DO3MHA-11 | 2026-09-02 22:49:05 | 48.23896 | 11.56526 | 75° | 26km/h | 1721m | 4.0m/s | 12.0°C | 68.4% | 838.0hPa | 2.9V | 00:00:00 | 00:19:45 | 08:30:00 | |
| DO3MHA-11 | 2026-09-02 22:48:55 | 48.23891 | 11.56434 | 111° | 29km/h | 1678m | 4.6m/s | 12.2°C | 66.8% | 842.2hPa | 2.9V | 00:00:00 | 00:19:35 | 00:00:00 | |
| DG1MFX-10 | 2026-09-02 22:48:47 | 48.23888 | 11.56355 | 87° | 33km/h | 1647m | 4.9m/s | 12.5°C | 67.1% | 845.8hPa | 2.9V | 00:00:00 | 00:00:00 | 00:00:00 | |
| DO3MHA-11 | 2026-09-02 22:48:45 | 48.23892 | 11.56324 | 114° | 22km/h | 1633m | 6.3m/s | 12.5°C | 67.5% | 847.3hPa | 2.9V | 00:00:00 | 00:19:25 | 00:00:00 | |
| DO3MHA-11 | 2026-09-02 22:48:35 | 48.23919 | 11.56248 | 98° | 24km/h | 1576m | 5.2m/s | 13.0°C | 66.4% | 852.7hPa | 2.9V | 00:00:00 | 00:19:15 | 00:00:00 | |
| DG1MFX-10 | 2026-09-02 22:48:25 | 48.23928 | 11.56172 | 140° | 9km/h | 1529m | 6.5m/s | 13.5°C | 64.8% | 857.6hPa | 2.9V | 00:00:00 | 00:00:00 | 00:00:00 | |
| DO3MHA-11 | 2026-09-02 22:48:25 | 48.23930 | 11.56169 | 133° | 22km/h | 1524m | 4.6m/s | 13.5°C | 64.5% | 858.1hPa | 2.9V | 00:00:00 | 00:19:05 | 00:00:00 | |
| DO3MHA-11 | 2026-09-02 22:48:15 | 48.23945 | 11.56093 | 108° | 24km/h | 1479m | 3.9m/s | 13.9°C | 65.0% | 862.9hPa | 2.9V | 00:00:00 | 00:18:55 | 00:00:00 | |
| DG1MFX-10 | 2026-09-02 22:48:07 | 48.23964 | 11.56022 | 112° | 33km/h | 1438m | 7.1m/s | 14.3°C | 63.9% | 867.0hPa | 2.9V | 00:00:00 | 00:00:00 | 00:00:00 | |
| DO3MHA-11 | 2026-09-02 22:48:06 | 48.23967 | 11.56011 | 117° | 16km/h | 1431m | 7.0m/s | 14.3°C | 63.3% | 867.6hPa | 2.9V | 00:00:00 | 00:18:45 | 00:00:00 | |
| DO3MHA-11 | 2026-09-02 22:47:55 | 48.23984 | 11.55960 | 102° | 24km/h | 1373m | 5.8m/s | 14.8°C | 62.5% | 873.4hPa | 2.9V | 00:00:00 | 00:18:35 | 00:00:00 | |
| DO3MHA-11 | 2026-09-02 22:47:45 | 48.23994 | 11.55870 | 90° | 16km/h | 1324m | 6.9m/s | 15.1°C | 60.9% | 878.6hPa | 2.9V | 00:00:00 | 00:18:25 | 00:00:00 | |
| DG1MFX-10 | 2026-09-02 22:47:44 | 48.23994 | 11.55870 | 91° | 24km/h | 1324m | 6.9m/s | 15.2°C | 0% | 0hPa | 2.9V | 00:00:00 | 00:00:00 | 00:00:00 | |
| DO3MHA-11 | 2026-09-02 22:47:35 | 48.24003 | 11.55815 | 118° | 13km/h | 1276m | 5.9m/s | 15.4°C | 61.3% | 883.6hPa | 2.9V | 00:00:00 | 00:18:15 | 08:30:00 | |
| DO3MHA-11 | 2026-09-02 22:47:25 | 48.24016 | 11.55776 | 85° | 16km/h | 1223m | 5.2m/s | 15.9°C | 59.6% | 889.3hPa | 2.9V | 00:00:00 | 00:18:05 | 00:00:00 | |
| DO3MHA-11 | 2026-09-02 22:47:15 | 48.24024 | 11.55717 | 73° | 15km/h | 1174m | 6.0m/s | 16.4°C | 58.2% | 894.1hPa | 2.9V | 00:00:00 | 00:17:55 | 00:00:00 | |
| DG1MFX-10 | 2026-09-02 22:47:14 | 48.24024 | 11.55717 | 74° | 18km/h | 1174m | 6.1m/s | 0°C | 0% | 0hPa | 2.9V | 00:00:00 | 00:00:00 | 00:00:00 | |
| DO3MHA-11 | 2026-09-02 22:47:05 | 48.24026 | 11.55670 | 155° | 13km/h | 1125m | 5.6m/s | 16.5°C | 59.9% | 899.6hPa | 2.9V | 00:00:00 | 00:17:45 | 00:00:00 | |
| DO3MHA-11 | 2026-09-02 22:46:55 | 48.24049 | 11.55642 | 129° | 16km/h | 1073m | 5.3m/s | 0°C | 0% | 0hPa | 0V | 00:00:00 | 00:17:35 | 00:00:00 | |
| DO3MHA-11 | 2026-09-02 22:46:45 | 48.24073 | 11.55595 | 95° | 20km/h | 1024m | 2.9m/s | 0°C | 0% | 0hPa | 0V | 00:00:00 | 00:17:25 | 00:00:00 | |
| DO3MHA-11 | 2026-09-02 22:46:35 | 48.24100 | 11.55540 | 84° | 18km/h | 982m | 4.5m/s | 0°C | 0% | 0hPa | 0V | 00:00:00 | 00:17:15 | 00:00:00 | |
| DO3MHA-11 | 2026-09-02 22:46:25 | 48.24133 | 11.55493 | 166° | 16km/h | 939m | 5.6m/s | 0°C | 0% | 0hPa | 0V | 00:00:00 | 00:17:05 | 00:00:00 | |
| DO3MHA-11 | 2026-09-02 22:46:15 | 48.24171 | 11.55464 | 137° | 20km/h | 893m | 3.7m/s | 0°C | 0% | 0hPa | 0V | 00:00:00 | 00:16:55 | 00:00:00 | |
| DO3MHA-11 | 2026-09-02 22:46:05 | 48.24206 | 11.55414 | 128° | 13km/h | 846m | 4.2m/s | 0°C | 0% | 0hPa | 0V | 00:00:00 | 00:16:45 | 00:00:00 |